<?xml version="1.0" encoding="UTF-8" standalone="no" ?>
<gpx xmlns="http://www.topografix.com/GPX/1/1" xmlns:xsi="http://www.w3.org/2001/XMLSchema-instance" xsi:schemaLocation="http://www.topografix.com/GPX/1/1 http://www.topografix.com/GPX/1/1/gpx.xsd" version="1.1" creator="VisuGPX - https://www.visugpx.com">
  <metadata>
    <name>Vosges - Pyrénées 73. Du Pont du Diable sur la Mare au refuge forestier de Font Salesse</name>
    <desc><![CDATA[Trace AlpineQuest 20/05/2026 07:13:04]]></desc>
  </metadata>
  <trk>
    <name><![CDATA[visugpx_2SkUNAH5av_1]]></name>
    <extensions>
      <line xmlns="http://www.topografix.com/GPX/gpx_style/0/2">
        <color>0000FF</color>
        <width>4</width>
      </line>
    </extensions>
    <trkseg>
      <trkpt lat="43.62455" lon="3.11618">
        <ele>231.8</ele>
        <time>2026-05-20T05:13:04Z</time>
      </trkpt>
      <trkpt lat="43.62449" lon="3.11613">
        <ele>232</ele>
        <time>2026-05-20T05:13:09Z</time>
      </trkpt>
      <trkpt lat="43.62473" lon="3.11636">
        <ele>230.9</ele>
        <time>2026-05-20T05:13:15Z</time>
      </trkpt>
      <trkpt lat="43.62475" lon="3.11637">
        <ele>230.9</ele>
        <time>2026-05-20T05:13:20Z</time>
      </trkpt>
      <trkpt lat="43.62475" lon="3.11637">
        <ele>230.9</ele>
        <time>2026-05-20T05:13:25Z</time>
      </trkpt>
      <trkpt lat="43.62475" lon="3.11637">
        <ele>230.9</ele>
        <time>2026-05-20T05:13:30Z</time>
      </trkpt>
      <trkpt lat="43.62473" lon="3.11643">
        <ele>230.6</ele>
        <time>2026-05-20T05:13:35Z</time>
      </trkpt>
      <trkpt lat="43.62473" lon="3.11645">
        <ele>230.5</ele>
        <time>2026-05-20T05:13:40Z</time>
      </trkpt>
      <trkpt lat="43.62473" lon="3.11645">
        <ele>230.5</ele>
        <time>2026-05-20T05:13:45Z</time>
      </trkpt>
      <trkpt lat="43.62473" lon="3.11645">
        <ele>230.5</ele>
        <time>2026-05-20T05:13:50Z</time>
      </trkpt>
      <trkpt lat="43.6247" lon="3.11654">
        <ele>230</ele>
        <time>2026-05-20T05:13:55Z</time>
      </trkpt>
      <trkpt lat="43.62469" lon="3.11658">
        <ele>229.8</ele>
        <time>2026-05-20T05:14:00Z</time>
      </trkpt>
      <trkpt lat="43.62468" lon="3.11659">
        <ele>229.8</ele>
        <time>2026-05-20T05:14:05Z</time>
      </trkpt>
      <trkpt lat="43.62467" lon="3.11664">
        <ele>229.5</ele>
        <time>2026-05-20T05:14:10Z</time>
      </trkpt>
      <trkpt lat="43.62464" lon="3.1167">
        <ele>229</ele>
        <time>2026-05-20T05:14:15Z</time>
      </trkpt>
      <trkpt lat="43.62462" lon="3.11676">
        <ele>228.4</ele>
        <time>2026-05-20T05:14:20Z</time>
      </trkpt>
      <trkpt lat="43.6246" lon="3.11682">
        <ele>227.7</ele>
        <time>2026-05-20T05:14:25Z</time>
      </trkpt>
      <trkpt lat="43.62457" lon="3.11686">
        <ele>227.2</ele>
        <time>2026-05-20T05:14:30Z</time>
      </trkpt>
      <trkpt lat="43.62454" lon="3.11688">
        <ele>226.9</ele>
        <time>2026-05-20T05:14:35Z</time>
      </trkpt>
      <trkpt lat="43.62449" lon="3.1169">
        <ele>226.7</ele>
        <time>2026-05-20T05:14:40Z</time>
      </trkpt>
      <trkpt lat="43.62444" lon="3.11691">
        <ele>226.6</ele>
        <time>2026-05-20T05:14:45Z</time>
      </trkpt>
      <trkpt lat="43.62439" lon="3.11691">
        <ele>226.5</ele>
        <time>2026-05-20T05:14:50Z</time>
      </trkpt>
      <trkpt lat="43.62435" lon="3.11692">
        <ele>226.4</ele>
        <time>2026-05-20T05:14:55Z</time>
      </trkpt>
      <trkpt lat="43.62433" lon="3.11691">
        <ele>226.5</ele>
        <time>2026-05-20T05:15:00Z</time>
      </trkpt>
      <trkpt lat="43.62433" lon="3.1169">
        <ele>226.7</ele>
        <time>2026-05-20T05:15:05Z</time>
      </trkpt>
      <trkpt lat="43.62433" lon="3.1169">
        <ele>226.7</ele>
        <time>2026-05-20T05:15:10Z</time>
      </trkpt>
      <trkpt lat="43.62433" lon="3.1169">
        <ele>226.7</ele>
        <time>2026-05-20T05:15:15Z</time>
      </trkpt>
      <trkpt lat="43.6243" lon="3.11691">
        <ele>226.5</ele>
        <time>2026-05-20T05:15:20Z</time>
      </trkpt>
      <trkpt lat="43.62426" lon="3.11693">
        <ele>226.2</ele>
        <time>2026-05-20T05:15:25Z</time>
      </trkpt>
      <trkpt lat="43.62421" lon="3.11693">
        <ele>226.2</ele>
        <time>2026-05-20T05:15:30Z</time>
      </trkpt>
      <trkpt lat="43.62415" lon="3.11695">
        <ele>225.7</ele>
        <time>2026-05-20T05:15:35Z</time>
      </trkpt>
      <trkpt lat="43.62409" lon="3.11698">
        <ele>224.5</ele>
        <time>2026-05-20T05:15:40Z</time>
      </trkpt>
      <trkpt lat="43.62405" lon="3.117">
        <ele>223.8</ele>
        <time>2026-05-20T05:15:45Z</time>
      </trkpt>
      <trkpt lat="43.624" lon="3.11699">
        <ele>223.3</ele>
        <time>2026-05-20T05:15:50Z</time>
      </trkpt>
      <trkpt lat="43.62394" lon="3.11698">
        <ele>222.7</ele>
        <time>2026-05-20T05:15:55Z</time>
      </trkpt>
      <trkpt lat="43.62389" lon="3.11693">
        <ele>222.6</ele>
        <time>2026-05-20T05:16:00Z</time>
      </trkpt>
      <trkpt lat="43.62385" lon="3.1169">
        <ele>222.4</ele>
        <time>2026-05-20T05:16:05Z</time>
      </trkpt>
      <trkpt lat="43.62379" lon="3.11686">
        <ele>221.9</ele>
        <time>2026-05-20T05:16:10Z</time>
      </trkpt>
      <trkpt lat="43.62375" lon="3.11681">
        <ele>221.8</ele>
        <time>2026-05-20T05:16:15Z</time>
      </trkpt>
      <trkpt lat="43.62369" lon="3.11678">
        <ele>221.1</ele>
        <time>2026-05-20T05:16:20Z</time>
      </trkpt>
      <trkpt lat="43.62364" lon="3.11676">
        <ele>220.5</ele>
        <time>2026-05-20T05:16:25Z</time>
      </trkpt>
      <trkpt lat="43.62359" lon="3.11673">
        <ele>219.9</ele>
        <time>2026-05-20T05:16:30Z</time>
      </trkpt>
      <trkpt lat="43.62354" lon="3.1167">
        <ele>219.3</ele>
        <time>2026-05-20T05:16:35Z</time>
      </trkpt>
      <trkpt lat="43.62348" lon="3.11666">
        <ele>218.5</ele>
        <time>2026-05-20T05:16:40Z</time>
      </trkpt>
      <trkpt lat="43.62345" lon="3.11657">
        <ele>218.3</ele>
        <time>2026-05-20T05:16:45Z</time>
      </trkpt>
      <trkpt lat="43.62343" lon="3.11649">
        <ele>218.3</ele>
        <time>2026-05-20T05:16:50Z</time>
      </trkpt>
      <trkpt lat="43.62342" lon="3.11641">
        <ele>218.4</ele>
        <time>2026-05-20T05:16:55Z</time>
      </trkpt>
      <trkpt lat="43.62342" lon="3.11634">
        <ele>218.6</ele>
        <time>2026-05-20T05:17:00Z</time>
      </trkpt>
      <trkpt lat="43.62341" lon="3.11626">
        <ele>218.8</ele>
        <time>2026-05-20T05:17:05Z</time>
      </trkpt>
      <trkpt lat="43.6234" lon="3.11618">
        <ele>218.9</ele>
        <time>2026-05-20T05:17:10Z</time>
      </trkpt>
      <trkpt lat="43.62339" lon="3.11614">
        <ele>218.8</ele>
        <time>2026-05-20T05:17:15Z</time>
      </trkpt>
      <trkpt lat="43.62339" lon="3.11614">
        <ele>218.8</ele>
        <time>2026-05-20T05:17:20Z</time>
      </trkpt>
      <trkpt lat="43.62339" lon="3.11613">
        <ele>218.9</ele>
        <time>2026-05-20T05:17:25Z</time>
      </trkpt>
      <trkpt lat="43.6234" lon="3.11609">
        <ele>219.2</ele>
        <time>2026-05-20T05:17:30Z</time>
      </trkpt>
      <trkpt lat="43.62339" lon="3.11603">
        <ele>219.2</ele>
        <time>2026-05-20T05:17:35Z</time>
      </trkpt>
      <trkpt lat="43.62338" lon="3.11596">
        <ele>219.3</ele>
        <time>2026-05-20T05:17:40Z</time>
      </trkpt>
      <trkpt lat="43.62337" lon="3.1159">
        <ele>219.4</ele>
        <time>2026-05-20T05:17:45Z</time>
      </trkpt>
      <trkpt lat="43.62336" lon="3.11582">
        <ele>219.5</ele>
        <time>2026-05-20T05:17:50Z</time>
      </trkpt>
      <trkpt lat="43.62335" lon="3.11573">
        <ele>219.6</ele>
        <time>2026-05-20T05:17:55Z</time>
      </trkpt>
      <trkpt lat="43.62335" lon="3.11564">
        <ele>220</ele>
        <time>2026-05-20T05:18:00Z</time>
      </trkpt>
      <trkpt lat="43.62335" lon="3.11556">
        <ele>220.3</ele>
        <time>2026-05-20T05:18:05Z</time>
      </trkpt>
      <trkpt lat="43.62334" lon="3.11546">
        <ele>220.5</ele>
        <time>2026-05-20T05:18:10Z</time>
      </trkpt>
      <trkpt lat="43.62334" lon="3.11537">
        <ele>220.8</ele>
        <time>2026-05-20T05:18:15Z</time>
      </trkpt>
      <trkpt lat="43.62335" lon="3.11529">
        <ele>221.2</ele>
        <time>2026-05-20T05:18:20Z</time>
      </trkpt>
      <trkpt lat="43.62335" lon="3.1152">
        <ele>221.5</ele>
        <time>2026-05-20T05:18:25Z</time>
      </trkpt>
      <trkpt lat="43.62335" lon="3.11511">
        <ele>221.9</ele>
        <time>2026-05-20T05:18:30Z</time>
      </trkpt>
      <trkpt lat="43.62335" lon="3.11501">
        <ele>222.2</ele>
        <time>2026-05-20T05:18:35Z</time>
      </trkpt>
      <trkpt lat="43.62337" lon="3.11493">
        <ele>222.7</ele>
        <time>2026-05-20T05:18:40Z</time>
      </trkpt>
      <trkpt lat="43.62337" lon="3.11484">
        <ele>222.8</ele>
        <time>2026-05-20T05:18:45Z</time>
      </trkpt>
      <trkpt lat="43.62337" lon="3.11475">
        <ele>222.9</ele>
        <time>2026-05-20T05:18:50Z</time>
      </trkpt>
      <trkpt lat="43.62339" lon="3.11466">
        <ele>223.3</ele>
        <time>2026-05-20T05:18:55Z</time>
      </trkpt>
      <trkpt lat="43.62339" lon="3.11457">
        <ele>223.4</ele>
        <time>2026-05-20T05:19:00Z</time>
      </trkpt>
      <trkpt lat="43.62339" lon="3.11448">
        <ele>223.6</ele>
        <time>2026-05-20T05:19:05Z</time>
      </trkpt>
      <trkpt lat="43.6234" lon="3.1144">
        <ele>223.8</ele>
        <time>2026-05-20T05:19:10Z</time>
      </trkpt>
      <trkpt lat="43.62341" lon="3.11436">
        <ele>224</ele>
        <time>2026-05-20T05:19:15Z</time>
      </trkpt>
      <trkpt lat="43.62342" lon="3.11427">
        <ele>224.3</ele>
        <time>2026-05-20T05:19:20Z</time>
      </trkpt>
      <trkpt lat="43.62343" lon="3.11419">
        <ele>224.6</ele>
        <time>2026-05-20T05:19:25Z</time>
      </trkpt>
      <trkpt lat="43.62344" lon="3.11411">
        <ele>224.9</ele>
        <time>2026-05-20T05:19:30Z</time>
      </trkpt>
      <trkpt lat="43.62345" lon="3.11402">
        <ele>225.2</ele>
        <time>2026-05-20T05:19:35Z</time>
      </trkpt>
      <trkpt lat="43.62346" lon="3.11392">
        <ele>225.5</ele>
        <time>2026-05-20T05:19:40Z</time>
      </trkpt>
      <trkpt lat="43.62346" lon="3.11382">
        <ele>225.7</ele>
        <time>2026-05-20T05:19:45Z</time>
      </trkpt>
      <trkpt lat="43.62347" lon="3.11373">
        <ele>226</ele>
        <time>2026-05-20T05:19:50Z</time>
      </trkpt>
      <trkpt lat="43.62348" lon="3.11366">
        <ele>226.3</ele>
        <time>2026-05-20T05:19:55Z</time>
      </trkpt>
      <trkpt lat="43.62349" lon="3.11358">
        <ele>226.5</ele>
        <time>2026-05-20T05:20:00Z</time>
      </trkpt>
      <trkpt lat="43.62349" lon="3.11356">
        <ele>226.5</ele>
        <time>2026-05-20T05:20:05Z</time>
      </trkpt>
      <trkpt lat="43.62349" lon="3.11355">
        <ele>226.6</ele>
        <time>2026-05-20T05:20:10Z</time>
      </trkpt>
      <trkpt lat="43.62349" lon="3.11355">
        <ele>226.6</ele>
        <time>2026-05-20T05:20:15Z</time>
      </trkpt>
      <trkpt lat="43.62347" lon="3.11349">
        <ele>226.4</ele>
        <time>2026-05-20T05:20:20Z</time>
      </trkpt>
      <trkpt lat="43.62347" lon="3.11345">
        <ele>226.5</ele>
        <time>2026-05-20T05:20:25Z</time>
      </trkpt>
      <trkpt lat="43.62346" lon="3.11344">
        <ele>226.3</ele>
        <time>2026-05-20T05:20:30Z</time>
      </trkpt>
      <trkpt lat="43.62346" lon="3.11344">
        <ele>226.3</ele>
        <time>2026-05-20T05:20:35Z</time>
      </trkpt>
      <trkpt lat="43.62346" lon="3.11344">
        <ele>226.3</ele>
        <time>2026-05-20T05:20:40Z</time>
      </trkpt>
      <trkpt lat="43.62346" lon="3.11344">
        <ele>226.3</ele>
        <time>2026-05-20T05:20:45Z</time>
      </trkpt>
      <trkpt lat="43.62346" lon="3.11344">
        <ele>226.3</ele>
        <time>2026-05-20T05:20:50Z</time>
      </trkpt>
      <trkpt lat="43.62346" lon="3.11344">
        <ele>226.3</ele>
        <time>2026-05-20T05:20:55Z</time>
      </trkpt>
      <trkpt lat="43.62346" lon="3.11344">
        <ele>226.3</ele>
        <time>2026-05-20T05:21:00Z</time>
      </trkpt>
      <trkpt lat="43.62346" lon="3.11344">
        <ele>226.3</ele>
        <time>2026-05-20T05:21:05Z</time>
      </trkpt>
      <trkpt lat="43.62342" lon="3.1134">
        <ele>225.9</ele>
        <time>2026-05-20T05:21:10Z</time>
      </trkpt>
      <trkpt lat="43.6234" lon="3.11333">
        <ele>225.8</ele>
        <time>2026-05-20T05:21:15Z</time>
      </trkpt>
      <trkpt lat="43.62339" lon="3.11329">
        <ele>225.9</ele>
        <time>2026-05-20T05:21:20Z</time>
      </trkpt>
      <trkpt lat="43.62339" lon="3.11329">
        <ele>225.9</ele>
        <time>2026-05-20T05:21:25Z</time>
      </trkpt>
      <trkpt lat="43.62339" lon="3.11329">
        <ele>225.9</ele>
        <time>2026-05-20T05:21:30Z</time>
      </trkpt>
      <trkpt lat="43.62339" lon="3.11329">
        <ele>225.9</ele>
        <time>2026-05-20T05:21:35Z</time>
      </trkpt>
      <trkpt lat="43.62338" lon="3.11325">
        <ele>225.9</ele>
        <time>2026-05-20T05:21:40Z</time>
      </trkpt>
      <trkpt lat="43.62337" lon="3.11316">
        <ele>226.3</ele>
        <time>2026-05-20T05:21:45Z</time>
      </trkpt>
      <trkpt lat="43.62335" lon="3.11308">
        <ele>226.4</ele>
        <time>2026-05-20T05:21:50Z</time>
      </trkpt>
      <trkpt lat="43.62335" lon="3.11301">
        <ele>226.7</ele>
        <time>2026-05-20T05:21:55Z</time>
      </trkpt>
      <trkpt lat="43.62335" lon="3.113">
        <ele>226.8</ele>
        <time>2026-05-20T05:22:00Z</time>
      </trkpt>
      <trkpt lat="43.62335" lon="3.11295">
        <ele>227</ele>
        <time>2026-05-20T05:22:05Z</time>
      </trkpt>
      <trkpt lat="43.62334" lon="3.11286">
        <ele>227.3</ele>
        <time>2026-05-20T05:22:10Z</time>
      </trkpt>
      <trkpt lat="43.62333" lon="3.11277">
        <ele>227.7</ele>
        <time>2026-05-20T05:22:15Z</time>
      </trkpt>
      <trkpt lat="43.62333" lon="3.11268">
        <ele>228.1</ele>
        <time>2026-05-20T05:22:20Z</time>
      </trkpt>
      <trkpt lat="43.62332" lon="3.1126">
        <ele>228.5</ele>
        <time>2026-05-20T05:22:25Z</time>
      </trkpt>
      <trkpt lat="43.62331" lon="3.11251">
        <ele>228.9</ele>
        <time>2026-05-20T05:22:30Z</time>
      </trkpt>
      <trkpt lat="43.6233" lon="3.11243">
        <ele>229.4</ele>
        <time>2026-05-20T05:22:35Z</time>
      </trkpt>
      <trkpt lat="43.6233" lon="3.11235">
        <ele>229.9</ele>
        <time>2026-05-20T05:22:40Z</time>
      </trkpt>
      <trkpt lat="43.6233" lon="3.11226">
        <ele>230.5</ele>
        <time>2026-05-20T05:22:45Z</time>
      </trkpt>
      <trkpt lat="43.6233" lon="3.11216">
        <ele>231.2</ele>
        <time>2026-05-20T05:22:50Z</time>
      </trkpt>
      <trkpt lat="43.6233" lon="3.11205">
        <ele>231.9</ele>
        <time>2026-05-20T05:22:55Z</time>
      </trkpt>
      <trkpt lat="43.62331" lon="3.11197">
        <ele>232.3</ele>
        <time>2026-05-20T05:23:00Z</time>
      </trkpt>
      <trkpt lat="43.62333" lon="3.11189">
        <ele>232.7</ele>
        <time>2026-05-20T05:23:05Z</time>
      </trkpt>
      <trkpt lat="43.62334" lon="3.11179">
        <ele>233.3</ele>
        <time>2026-05-20T05:23:10Z</time>
      </trkpt>
      <trkpt lat="43.62335" lon="3.11171">
        <ele>233.8</ele>
        <time>2026-05-20T05:23:15Z</time>
      </trkpt>
      <trkpt lat="43.62336" lon="3.11162">
        <ele>234.5</ele>
        <time>2026-05-20T05:23:20Z</time>
      </trkpt>
      <trkpt lat="43.62336" lon="3.11152">
        <ele>235.2</ele>
        <time>2026-05-20T05:23:25Z</time>
      </trkpt>
      <trkpt lat="43.62336" lon="3.11143">
        <ele>235.9</ele>
        <time>2026-05-20T05:23:30Z</time>
      </trkpt>
      <trkpt lat="43.62337" lon="3.11135">
        <ele>236.5</ele>
        <time>2026-05-20T05:23:35Z</time>
      </trkpt>
      <trkpt lat="43.62335" lon="3.11127">
        <ele>237</ele>
        <time>2026-05-20T05:23:40Z</time>
      </trkpt>
      <trkpt lat="43.62334" lon="3.11118">
        <ele>237.6</ele>
        <time>2026-05-20T05:23:45Z</time>
      </trkpt>
      <trkpt lat="43.62334" lon="3.1111">
        <ele>238.1</ele>
        <time>2026-05-20T05:23:50Z</time>
      </trkpt>
      <trkpt lat="43.62333" lon="3.111">
        <ele>238.9</ele>
        <time>2026-05-20T05:23:55Z</time>
      </trkpt>
      <trkpt lat="43.62333" lon="3.11093">
        <ele>239.4</ele>
        <time>2026-05-20T05:24:00Z</time>
      </trkpt>
      <trkpt lat="43.62334" lon="3.11085">
        <ele>239.9</ele>
        <time>2026-05-20T05:24:05Z</time>
      </trkpt>
      <trkpt lat="43.62336" lon="3.11077">
        <ele>241.2</ele>
        <time>2026-05-20T05:24:10Z</time>
      </trkpt>
      <trkpt lat="43.62336" lon="3.11068">
        <ele>242.6</ele>
        <time>2026-05-20T05:24:15Z</time>
      </trkpt>
      <trkpt lat="43.62336" lon="3.11058">
        <ele>244.1</ele>
        <time>2026-05-20T05:24:20Z</time>
      </trkpt>
      <trkpt lat="43.62336" lon="3.1105">
        <ele>245.4</ele>
        <time>2026-05-20T05:24:25Z</time>
      </trkpt>
      <trkpt lat="43.62336" lon="3.11041">
        <ele>246.8</ele>
        <time>2026-05-20T05:24:30Z</time>
      </trkpt>
      <trkpt lat="43.62336" lon="3.11031">
        <ele>248.3</ele>
        <time>2026-05-20T05:24:35Z</time>
      </trkpt>
      <trkpt lat="43.62334" lon="3.11022">
        <ele>249.6</ele>
        <time>2026-05-20T05:24:40Z</time>
      </trkpt>
      <trkpt lat="43.62332" lon="3.11015">
        <ele>250.9</ele>
        <time>2026-05-20T05:24:45Z</time>
      </trkpt>
      <trkpt lat="43.62331" lon="3.11007">
        <ele>252.3</ele>
        <time>2026-05-20T05:24:50Z</time>
      </trkpt>
      <trkpt lat="43.6233" lon="3.10999">
        <ele>253.7</ele>
        <time>2026-05-20T05:24:55Z</time>
      </trkpt>
      <trkpt lat="43.62328" lon="3.1099">
        <ele>255.1</ele>
        <time>2026-05-20T05:25:00Z</time>
      </trkpt>
      <trkpt lat="43.62326" lon="3.10981">
        <ele>256.4</ele>
        <time>2026-05-20T05:25:05Z</time>
      </trkpt>
      <trkpt lat="43.62325" lon="3.10972">
        <ele>257.6</ele>
        <time>2026-05-20T05:25:10Z</time>
      </trkpt>
      <trkpt lat="43.62324" lon="3.10963">
        <ele>258.8</ele>
        <time>2026-05-20T05:25:15Z</time>
      </trkpt>
      <trkpt lat="43.62325" lon="3.10953">
        <ele>259.7</ele>
        <time>2026-05-20T05:25:20Z</time>
      </trkpt>
      <trkpt lat="43.62325" lon="3.10943">
        <ele>260.9</ele>
        <time>2026-05-20T05:25:25Z</time>
      </trkpt>
      <trkpt lat="43.62326" lon="3.10933">
        <ele>261.8</ele>
        <time>2026-05-20T05:25:30Z</time>
      </trkpt>
      <trkpt lat="43.62328" lon="3.10923">
        <ele>262.5</ele>
        <time>2026-05-20T05:25:35Z</time>
      </trkpt>
      <trkpt lat="43.62329" lon="3.10913">
        <ele>263.4</ele>
        <time>2026-05-20T05:25:40Z</time>
      </trkpt>
      <trkpt lat="43.62332" lon="3.10905">
        <ele>263.7</ele>
        <time>2026-05-20T05:25:45Z</time>
      </trkpt>
      <trkpt lat="43.62338" lon="3.10901">
        <ele>263.9</ele>
        <time>2026-05-20T05:25:50Z</time>
      </trkpt>
      <trkpt lat="43.62341" lon="3.10902">
        <ele>263.8</ele>
        <time>2026-05-20T05:25:55Z</time>
      </trkpt>
      <trkpt lat="43.62345" lon="3.10907">
        <ele>263.3</ele>
        <time>2026-05-20T05:26:00Z</time>
      </trkpt>
      <trkpt lat="43.62346" lon="3.10917">
        <ele>262.1</ele>
        <time>2026-05-20T05:26:05Z</time>
      </trkpt>
      <trkpt lat="43.62343" lon="3.10926">
        <ele>261.1</ele>
        <time>2026-05-20T05:26:10Z</time>
      </trkpt>
      <trkpt lat="43.62342" lon="3.10935">
        <ele>260.2</ele>
        <time>2026-05-20T05:26:15Z</time>
      </trkpt>
      <trkpt lat="43.62342" lon="3.10943">
        <ele>259.4</ele>
        <time>2026-05-20T05:26:20Z</time>
      </trkpt>
      <trkpt lat="43.62342" lon="3.10949">
        <ele>258.7</ele>
        <time>2026-05-20T05:26:25Z</time>
      </trkpt>
      <trkpt lat="43.62342" lon="3.10956">
        <ele>258</ele>
        <time>2026-05-20T05:26:30Z</time>
      </trkpt>
      <trkpt lat="43.62344" lon="3.10963">
        <ele>257.3</ele>
        <time>2026-05-20T05:26:35Z</time>
      </trkpt>
      <trkpt lat="43.62346" lon="3.10972">
        <ele>256.5</ele>
        <time>2026-05-20T05:26:40Z</time>
      </trkpt>
      <trkpt lat="43.62349" lon="3.10981">
        <ele>255.7</ele>
        <time>2026-05-20T05:26:45Z</time>
      </trkpt>
      <trkpt lat="43.62353" lon="3.10986">
        <ele>255.3</ele>
        <time>2026-05-20T05:26:50Z</time>
      </trkpt>
      <trkpt lat="43.62358" lon="3.10985">
        <ele>255.6</ele>
        <time>2026-05-20T05:26:55Z</time>
      </trkpt>
      <trkpt lat="43.62359" lon="3.10977">
        <ele>256.5</ele>
        <time>2026-05-20T05:27:00Z</time>
      </trkpt>
      <trkpt lat="43.62356" lon="3.10972">
        <ele>256.8</ele>
        <time>2026-05-20T05:27:05Z</time>
      </trkpt>
      <trkpt lat="43.62354" lon="3.10963">
        <ele>257.7</ele>
        <time>2026-05-20T05:27:10Z</time>
      </trkpt>
      <trkpt lat="43.62353" lon="3.10954">
        <ele>258.5</ele>
        <time>2026-05-20T05:27:15Z</time>
      </trkpt>
      <trkpt lat="43.62354" lon="3.10945">
        <ele>259.4</ele>
        <time>2026-05-20T05:27:20Z</time>
      </trkpt>
      <trkpt lat="43.62357" lon="3.10938">
        <ele>260.2</ele>
        <time>2026-05-20T05:27:25Z</time>
      </trkpt>
      <trkpt lat="43.62361" lon="3.10931">
        <ele>261</ele>
        <time>2026-05-20T05:27:30Z</time>
      </trkpt>
      <trkpt lat="43.62365" lon="3.10927">
        <ele>261.4</ele>
        <time>2026-05-20T05:27:35Z</time>
      </trkpt>
      <trkpt lat="43.62368" lon="3.10923">
        <ele>261.8</ele>
        <time>2026-05-20T05:27:40Z</time>
      </trkpt>
      <trkpt lat="43.62369" lon="3.10922">
        <ele>261.9</ele>
        <time>2026-05-20T05:27:45Z</time>
      </trkpt>
      <trkpt lat="43.62373" lon="3.10922">
        <ele>262</ele>
        <time>2026-05-20T05:27:50Z</time>
      </trkpt>
      <trkpt lat="43.62376" lon="3.10922">
        <ele>262</ele>
        <time>2026-05-20T05:27:55Z</time>
      </trkpt>
      <trkpt lat="43.62376" lon="3.10922">
        <ele>262</ele>
        <time>2026-05-20T05:28:00Z</time>
      </trkpt>
      <trkpt lat="43.62376" lon="3.10922">
        <ele>262</ele>
        <time>2026-05-20T05:28:05Z</time>
      </trkpt>
      <trkpt lat="43.62376" lon="3.10922">
        <ele>262</ele>
        <time>2026-05-20T05:28:10Z</time>
      </trkpt>
      <trkpt lat="43.62375" lon="3.10917">
        <ele>262.5</ele>
        <time>2026-05-20T05:28:15Z</time>
      </trkpt>
      <trkpt lat="43.62375" lon="3.10911">
        <ele>263.1</ele>
        <time>2026-05-20T05:28:20Z</time>
      </trkpt>
      <trkpt lat="43.62378" lon="3.10904">
        <ele>264</ele>
        <time>2026-05-20T05:28:25Z</time>
      </trkpt>
      <trkpt lat="43.6238" lon="3.10896">
        <ele>264.9</ele>
        <time>2026-05-20T05:28:30Z</time>
      </trkpt>
      <trkpt lat="43.62379" lon="3.10889">
        <ele>265.7</ele>
        <time>2026-05-20T05:28:35Z</time>
      </trkpt>
      <trkpt lat="43.62378" lon="3.10882">
        <ele>266.5</ele>
        <time>2026-05-20T05:28:40Z</time>
      </trkpt>
      <trkpt lat="43.62377" lon="3.10874">
        <ele>267.4</ele>
        <time>2026-05-20T05:28:45Z</time>
      </trkpt>
      <trkpt lat="43.62376" lon="3.10866">
        <ele>268.3</ele>
        <time>2026-05-20T05:28:50Z</time>
      </trkpt>
      <trkpt lat="43.62375" lon="3.10864">
        <ele>268.5</ele>
        <time>2026-05-20T05:28:55Z</time>
      </trkpt>
      <trkpt lat="43.62375" lon="3.10864">
        <ele>268.5</ele>
        <time>2026-05-20T05:29:00Z</time>
      </trkpt>
      <trkpt lat="43.62378" lon="3.10872">
        <ele>267.6</ele>
        <time>2026-05-20T05:29:05Z</time>
      </trkpt>
      <trkpt lat="43.62378" lon="3.10879">
        <ele>266.8</ele>
        <time>2026-05-20T05:29:10Z</time>
      </trkpt>
      <trkpt lat="43.62378" lon="3.10887">
        <ele>265.9</ele>
        <time>2026-05-20T05:29:15Z</time>
      </trkpt>
      <trkpt lat="43.62378" lon="3.10895">
        <ele>265</ele>
        <time>2026-05-20T05:29:20Z</time>
      </trkpt>
      <trkpt lat="43.62378" lon="3.10903">
        <ele>264.1</ele>
        <time>2026-05-20T05:29:25Z</time>
      </trkpt>
      <trkpt lat="43.62376" lon="3.1091">
        <ele>263.3</ele>
        <time>2026-05-20T05:29:30Z</time>
      </trkpt>
      <trkpt lat="43.62374" lon="3.10918">
        <ele>262.4</ele>
        <time>2026-05-20T05:29:35Z</time>
      </trkpt>
      <trkpt lat="43.62373" lon="3.10923">
        <ele>261.9</ele>
        <time>2026-05-20T05:29:40Z</time>
      </trkpt>
      <trkpt lat="43.62373" lon="3.10923">
        <ele>261.9</ele>
        <time>2026-05-20T05:29:45Z</time>
      </trkpt>
      <trkpt lat="43.62373" lon="3.10923">
        <ele>261.9</ele>
        <time>2026-05-20T05:29:50Z</time>
      </trkpt>
      <trkpt lat="43.62373" lon="3.10923">
        <ele>261.9</ele>
        <time>2026-05-20T05:29:55Z</time>
      </trkpt>
      <trkpt lat="43.62373" lon="3.10923">
        <ele>261.9</ele>
        <time>2026-05-20T05:30:00Z</time>
      </trkpt>
      <trkpt lat="43.62373" lon="3.10923">
        <ele>261.9</ele>
        <time>2026-05-20T05:30:05Z</time>
      </trkpt>
      <trkpt lat="43.62373" lon="3.10923">
        <ele>261.9</ele>
        <time>2026-05-20T05:30:10Z</time>
      </trkpt>
      <trkpt lat="43.62373" lon="3.10923">
        <ele>261.9</ele>
        <time>2026-05-20T05:30:15Z</time>
      </trkpt>
      <trkpt lat="43.62373" lon="3.10923">
        <ele>261.9</ele>
        <time>2026-05-20T05:30:20Z</time>
      </trkpt>
      <trkpt lat="43.62374" lon="3.10921">
        <ele>262.1</ele>
        <time>2026-05-20T05:30:25Z</time>
      </trkpt>
      <trkpt lat="43.62372" lon="3.10917">
        <ele>262.4</ele>
        <time>2026-05-20T05:30:30Z</time>
      </trkpt>
      <trkpt lat="43.62372" lon="3.1091">
        <ele>263.2</ele>
        <time>2026-05-20T05:30:35Z</time>
      </trkpt>
      <trkpt lat="43.62376" lon="3.10904">
        <ele>264</ele>
        <time>2026-05-20T05:30:40Z</time>
      </trkpt>
      <trkpt lat="43.62378" lon="3.10897">
        <ele>264.8</ele>
        <time>2026-05-20T05:30:45Z</time>
      </trkpt>
      <trkpt lat="43.62378" lon="3.10889">
        <ele>265.7</ele>
        <time>2026-05-20T05:30:50Z</time>
      </trkpt>
      <trkpt lat="43.62378" lon="3.10881">
        <ele>266.6</ele>
        <time>2026-05-20T05:30:55Z</time>
      </trkpt>
      <trkpt lat="43.62378" lon="3.10876">
        <ele>267.2</ele>
        <time>2026-05-20T05:31:00Z</time>
      </trkpt>
      <trkpt lat="43.62376" lon="3.10871">
        <ele>267.7</ele>
        <time>2026-05-20T05:31:05Z</time>
      </trkpt>
      <trkpt lat="43.62374" lon="3.10862">
        <ele>268.7</ele>
        <time>2026-05-20T05:31:10Z</time>
      </trkpt>
      <trkpt lat="43.6237" lon="3.10854">
        <ele>269.6</ele>
        <time>2026-05-20T05:31:15Z</time>
      </trkpt>
      <trkpt lat="43.62364" lon="3.10848">
        <ele>270.3</ele>
        <time>2026-05-20T05:31:20Z</time>
      </trkpt>
      <trkpt lat="43.62359" lon="3.10842">
        <ele>271</ele>
        <time>2026-05-20T05:31:25Z</time>
      </trkpt>
      <trkpt lat="43.62354" lon="3.10835">
        <ele>271.8</ele>
        <time>2026-05-20T05:31:30Z</time>
      </trkpt>
      <trkpt lat="43.6235" lon="3.10828">
        <ele>273</ele>
        <time>2026-05-20T05:31:35Z</time>
      </trkpt>
      <trkpt lat="43.62347" lon="3.10821">
        <ele>274.3</ele>
        <time>2026-05-20T05:31:40Z</time>
      </trkpt>
      <trkpt lat="43.62343" lon="3.10814">
        <ele>275.7</ele>
        <time>2026-05-20T05:31:45Z</time>
      </trkpt>
      <trkpt lat="43.62339" lon="3.10807">
        <ele>277</ele>
        <time>2026-05-20T05:31:50Z</time>
      </trkpt>
      <trkpt lat="43.62339" lon="3.108">
        <ele>278.3</ele>
        <time>2026-05-20T05:31:55Z</time>
      </trkpt>
      <trkpt lat="43.6234" lon="3.10794">
        <ele>279.5</ele>
        <time>2026-05-20T05:32:00Z</time>
      </trkpt>
      <trkpt lat="43.62341" lon="3.1079">
        <ele>280.2</ele>
        <time>2026-05-20T05:32:05Z</time>
      </trkpt>
      <trkpt lat="43.62341" lon="3.10785">
        <ele>281.2</ele>
        <time>2026-05-20T05:32:10Z</time>
      </trkpt>
      <trkpt lat="43.6234" lon="3.10781">
        <ele>281.9</ele>
        <time>2026-05-20T05:32:15Z</time>
      </trkpt>
      <trkpt lat="43.6234" lon="3.10778">
        <ele>282.5</ele>
        <time>2026-05-20T05:32:20Z</time>
      </trkpt>
      <trkpt lat="43.62343" lon="3.10776">
        <ele>282.8</ele>
        <time>2026-05-20T05:32:25Z</time>
      </trkpt>
      <trkpt lat="43.62349" lon="3.10776">
        <ele>282.7</ele>
        <time>2026-05-20T05:32:30Z</time>
      </trkpt>
      <trkpt lat="43.62355" lon="3.10776">
        <ele>282.7</ele>
        <time>2026-05-20T05:32:35Z</time>
      </trkpt>
      <trkpt lat="43.6236" lon="3.10779">
        <ele>282</ele>
        <time>2026-05-20T05:32:40Z</time>
      </trkpt>
      <trkpt lat="43.62364" lon="3.10784">
        <ele>281</ele>
        <time>2026-05-20T05:32:45Z</time>
      </trkpt>
      <trkpt lat="43.62368" lon="3.10788">
        <ele>280.3</ele>
        <time>2026-05-20T05:32:50Z</time>
      </trkpt>
      <trkpt lat="43.62372" lon="3.10794">
        <ele>279.1</ele>
        <time>2026-05-20T05:32:55Z</time>
      </trkpt>
      <trkpt lat="43.62376" lon="3.10799">
        <ele>278.2</ele>
        <time>2026-05-20T05:33:00Z</time>
      </trkpt>
      <trkpt lat="43.62382" lon="3.10802">
        <ele>277.6</ele>
        <time>2026-05-20T05:33:05Z</time>
      </trkpt>
      <trkpt lat="43.62389" lon="3.10805">
        <ele>277</ele>
        <time>2026-05-20T05:33:10Z</time>
      </trkpt>
      <trkpt lat="43.62394" lon="3.10808">
        <ele>276.4</ele>
        <time>2026-05-20T05:33:15Z</time>
      </trkpt>
      <trkpt lat="43.62399" lon="3.10809">
        <ele>276.2</ele>
        <time>2026-05-20T05:33:20Z</time>
      </trkpt>
      <trkpt lat="43.62404" lon="3.10808">
        <ele>276.3</ele>
        <time>2026-05-20T05:33:25Z</time>
      </trkpt>
      <trkpt lat="43.62412" lon="3.10809">
        <ele>276.1</ele>
        <time>2026-05-20T05:33:30Z</time>
      </trkpt>
      <trkpt lat="43.62419" lon="3.10809">
        <ele>276.3</ele>
        <time>2026-05-20T05:33:35Z</time>
      </trkpt>
      <trkpt lat="43.62424" lon="3.10809">
        <ele>276.7</ele>
        <time>2026-05-20T05:33:40Z</time>
      </trkpt>
      <trkpt lat="43.6243" lon="3.10808">
        <ele>277.4</ele>
        <time>2026-05-20T05:33:45Z</time>
      </trkpt>
      <trkpt lat="43.62436" lon="3.10807">
        <ele>278.1</ele>
        <time>2026-05-20T05:33:50Z</time>
      </trkpt>
      <trkpt lat="43.62442" lon="3.10807">
        <ele>278.6</ele>
        <time>2026-05-20T05:33:55Z</time>
      </trkpt>
      <trkpt lat="43.62449" lon="3.10807">
        <ele>279.2</ele>
        <time>2026-05-20T05:34:00Z</time>
      </trkpt>
      <trkpt lat="43.62454" lon="3.10807">
        <ele>279.6</ele>
        <time>2026-05-20T05:34:05Z</time>
      </trkpt>
      <trkpt lat="43.6246" lon="3.10805">
        <ele>280.4</ele>
        <time>2026-05-20T05:34:10Z</time>
      </trkpt>
      <trkpt lat="43.62467" lon="3.10803">
        <ele>281.3</ele>
        <time>2026-05-20T05:34:15Z</time>
      </trkpt>
      <trkpt lat="43.62473" lon="3.108">
        <ele>282.2</ele>
        <time>2026-05-20T05:34:20Z</time>
      </trkpt>
      <trkpt lat="43.62479" lon="3.10798">
        <ele>283</ele>
        <time>2026-05-20T05:34:25Z</time>
      </trkpt>
      <trkpt lat="43.62485" lon="3.10799">
        <ele>283.3</ele>
        <time>2026-05-20T05:34:30Z</time>
      </trkpt>
      <trkpt lat="43.62488" lon="3.10795">
        <ele>284.1</ele>
        <time>2026-05-20T05:34:35Z</time>
      </trkpt>
      <trkpt lat="43.6249" lon="3.10791">
        <ele>284.8</ele>
        <time>2026-05-20T05:34:40Z</time>
      </trkpt>
      <trkpt lat="43.62492" lon="3.10786">
        <ele>285.6</ele>
        <time>2026-05-20T05:34:45Z</time>
      </trkpt>
      <trkpt lat="43.62494" lon="3.10786">
        <ele>285.8</ele>
        <time>2026-05-20T05:34:50Z</time>
      </trkpt>
      <trkpt lat="43.62498" lon="3.1078">
        <ele>286.9</ele>
        <time>2026-05-20T05:34:55Z</time>
      </trkpt>
      <trkpt lat="43.62501" lon="3.10774">
        <ele>287.8</ele>
        <time>2026-05-20T05:35:00Z</time>
      </trkpt>
      <trkpt lat="43.62504" lon="3.10767">
        <ele>288.6</ele>
        <time>2026-05-20T05:35:05Z</time>
      </trkpt>
      <trkpt lat="43.62507" lon="3.10761">
        <ele>289.3</ele>
        <time>2026-05-20T05:35:10Z</time>
      </trkpt>
      <trkpt lat="43.62509" lon="3.10753">
        <ele>290.4</ele>
        <time>2026-05-20T05:35:15Z</time>
      </trkpt>
      <trkpt lat="43.62511" lon="3.10746">
        <ele>291</ele>
        <time>2026-05-20T05:35:20Z</time>
      </trkpt>
      <trkpt lat="43.62516" lon="3.10742">
        <ele>291.2</ele>
        <time>2026-05-20T05:35:25Z</time>
      </trkpt>
      <trkpt lat="43.6252" lon="3.10735">
        <ele>291.5</ele>
        <time>2026-05-20T05:35:30Z</time>
      </trkpt>
      <trkpt lat="43.62522" lon="3.10728">
        <ele>291.9</ele>
        <time>2026-05-20T05:35:35Z</time>
      </trkpt>
      <trkpt lat="43.62526" lon="3.10722">
        <ele>292.2</ele>
        <time>2026-05-20T05:35:40Z</time>
      </trkpt>
      <trkpt lat="43.62531" lon="3.10715">
        <ele>292.5</ele>
        <time>2026-05-20T05:35:45Z</time>
      </trkpt>
      <trkpt lat="43.62535" lon="3.10709">
        <ele>292.7</ele>
        <time>2026-05-20T05:35:50Z</time>
      </trkpt>
      <trkpt lat="43.62537" lon="3.107">
        <ele>293.2</ele>
        <time>2026-05-20T05:35:55Z</time>
      </trkpt>
      <trkpt lat="43.62539" lon="3.10691">
        <ele>293.6</ele>
        <time>2026-05-20T05:36:00Z</time>
      </trkpt>
      <trkpt lat="43.62541" lon="3.10682">
        <ele>294.1</ele>
        <time>2026-05-20T05:36:05Z</time>
      </trkpt>
      <trkpt lat="43.62542" lon="3.10675">
        <ele>294.5</ele>
        <time>2026-05-20T05:36:10Z</time>
      </trkpt>
      <trkpt lat="43.62545" lon="3.10668">
        <ele>294.8</ele>
        <time>2026-05-20T05:36:15Z</time>
      </trkpt>
      <trkpt lat="43.62544" lon="3.10658">
        <ele>295.1</ele>
        <time>2026-05-20T05:36:20Z</time>
      </trkpt>
      <trkpt lat="43.62546" lon="3.1065">
        <ele>295.3</ele>
        <time>2026-05-20T05:36:25Z</time>
      </trkpt>
      <trkpt lat="43.6255" lon="3.10642">
        <ele>295.3</ele>
        <time>2026-05-20T05:36:30Z</time>
      </trkpt>
      <trkpt lat="43.62554" lon="3.10634">
        <ele>295.3</ele>
        <time>2026-05-20T05:36:35Z</time>
      </trkpt>
      <trkpt lat="43.62559" lon="3.10627">
        <ele>295.3</ele>
        <time>2026-05-20T05:36:40Z</time>
      </trkpt>
      <trkpt lat="43.62562" lon="3.10619">
        <ele>295.3</ele>
        <time>2026-05-20T05:36:45Z</time>
      </trkpt>
      <trkpt lat="43.62565" lon="3.1061">
        <ele>295.4</ele>
        <time>2026-05-20T05:36:50Z</time>
      </trkpt>
      <trkpt lat="43.62566" lon="3.10602">
        <ele>295.5</ele>
        <time>2026-05-20T05:36:55Z</time>
      </trkpt>
      <trkpt lat="43.62568" lon="3.10592">
        <ele>295.7</ele>
        <time>2026-05-20T05:37:00Z</time>
      </trkpt>
      <trkpt lat="43.62571" lon="3.10584">
        <ele>295.7</ele>
        <time>2026-05-20T05:37:05Z</time>
      </trkpt>
      <trkpt lat="43.62574" lon="3.10575">
        <ele>295.7</ele>
        <time>2026-05-20T05:37:10Z</time>
      </trkpt>
      <trkpt lat="43.62578" lon="3.10568">
        <ele>295.5</ele>
        <time>2026-05-20T05:37:15Z</time>
      </trkpt>
      <trkpt lat="43.62583" lon="3.10563">
        <ele>295.3</ele>
        <time>2026-05-20T05:37:20Z</time>
      </trkpt>
      <trkpt lat="43.62587" lon="3.10558">
        <ele>295.4</ele>
        <time>2026-05-20T05:37:25Z</time>
      </trkpt>
      <trkpt lat="43.62591" lon="3.10552">
        <ele>295.7</ele>
        <time>2026-05-20T05:37:30Z</time>
      </trkpt>
      <trkpt lat="43.62599" lon="3.10548">
        <ele>296.1</ele>
        <time>2026-05-20T05:37:35Z</time>
      </trkpt>
      <trkpt lat="43.62604" lon="3.10544">
        <ele>296.3</ele>
        <time>2026-05-20T05:37:40Z</time>
      </trkpt>
      <trkpt lat="43.62609" lon="3.10539">
        <ele>296.6</ele>
        <time>2026-05-20T05:37:45Z</time>
      </trkpt>
      <trkpt lat="43.62613" lon="3.10532">
        <ele>296.9</ele>
        <time>2026-05-20T05:37:50Z</time>
      </trkpt>
      <trkpt lat="43.62617" lon="3.10525">
        <ele>297.2</ele>
        <time>2026-05-20T05:37:55Z</time>
      </trkpt>
      <trkpt lat="43.62621" lon="3.10517">
        <ele>297.5</ele>
        <time>2026-05-20T05:38:00Z</time>
      </trkpt>
      <trkpt lat="43.62624" lon="3.10509">
        <ele>297.8</ele>
        <time>2026-05-20T05:38:05Z</time>
      </trkpt>
      <trkpt lat="43.62627" lon="3.105">
        <ele>298.1</ele>
        <time>2026-05-20T05:38:10Z</time>
      </trkpt>
      <trkpt lat="43.6263" lon="3.10492">
        <ele>298.3</ele>
        <time>2026-05-20T05:38:15Z</time>
      </trkpt>
      <trkpt lat="43.62632" lon="3.10484">
        <ele>298.5</ele>
        <time>2026-05-20T05:38:20Z</time>
      </trkpt>
      <trkpt lat="43.62635" lon="3.10476">
        <ele>298.8</ele>
        <time>2026-05-20T05:38:25Z</time>
      </trkpt>
      <trkpt lat="43.62637" lon="3.10468">
        <ele>299</ele>
        <time>2026-05-20T05:38:30Z</time>
      </trkpt>
      <trkpt lat="43.62639" lon="3.1046">
        <ele>299.2</ele>
        <time>2026-05-20T05:38:35Z</time>
      </trkpt>
      <trkpt lat="43.62641" lon="3.10451">
        <ele>299.4</ele>
        <time>2026-05-20T05:38:40Z</time>
      </trkpt>
      <trkpt lat="43.62643" lon="3.10442">
        <ele>299.6</ele>
        <time>2026-05-20T05:38:45Z</time>
      </trkpt>
      <trkpt lat="43.62643" lon="3.10438">
        <ele>299.6</ele>
        <time>2026-05-20T05:38:50Z</time>
      </trkpt>
      <trkpt lat="43.62642" lon="3.10437">
        <ele>299.6</ele>
        <time>2026-05-20T05:38:55Z</time>
      </trkpt>
      <trkpt lat="43.62642" lon="3.10437">
        <ele>299.6</ele>
        <time>2026-05-20T05:39:00Z</time>
      </trkpt>
      <trkpt lat="43.62642" lon="3.10437">
        <ele>299.6</ele>
        <time>2026-05-20T05:39:05Z</time>
      </trkpt>
      <trkpt lat="43.62642" lon="3.10437">
        <ele>299.6</ele>
        <time>2026-05-20T05:39:10Z</time>
      </trkpt>
      <trkpt lat="43.62642" lon="3.10437">
        <ele>299.6</ele>
        <time>2026-05-20T05:39:15Z</time>
      </trkpt>
      <trkpt lat="43.62642" lon="3.10437">
        <ele>299.6</ele>
        <time>2026-05-20T05:39:20Z</time>
      </trkpt>
      <trkpt lat="43.62642" lon="3.10437">
        <ele>299.6</ele>
        <time>2026-05-20T05:39:25Z</time>
      </trkpt>
      <trkpt lat="43.62642" lon="3.10437">
        <ele>299.6</ele>
        <time>2026-05-20T05:39:30Z</time>
      </trkpt>
      <trkpt lat="43.62642" lon="3.10437">
        <ele>299.6</ele>
        <time>2026-05-20T05:39:35Z</time>
      </trkpt>
      <trkpt lat="43.62642" lon="3.10437">
        <ele>299.6</ele>
        <time>2026-05-20T05:39:40Z</time>
      </trkpt>
      <trkpt lat="43.62642" lon="3.10437">
        <ele>299.6</ele>
        <time>2026-05-20T05:39:45Z</time>
      </trkpt>
      <trkpt lat="43.62642" lon="3.10437">
        <ele>299.6</ele>
        <time>2026-05-20T05:39:50Z</time>
      </trkpt>
      <trkpt lat="43.62642" lon="3.10437">
        <ele>299.6</ele>
        <time>2026-05-20T05:39:55Z</time>
      </trkpt>
      <trkpt lat="43.62642" lon="3.10437">
        <ele>299.6</ele>
        <time>2026-05-20T05:40:00Z</time>
      </trkpt>
      <trkpt lat="43.62642" lon="3.10437">
        <ele>299.6</ele>
        <time>2026-05-20T05:40:05Z</time>
      </trkpt>
      <trkpt lat="43.62642" lon="3.10437">
        <ele>299.6</ele>
        <time>2026-05-20T05:40:10Z</time>
      </trkpt>
      <trkpt lat="43.62642" lon="3.10437">
        <ele>299.6</ele>
        <time>2026-05-20T05:40:15Z</time>
      </trkpt>
      <trkpt lat="43.62642" lon="3.10437">
        <ele>299.6</ele>
        <time>2026-05-20T05:40:20Z</time>
      </trkpt>
      <trkpt lat="43.62642" lon="3.10437">
        <ele>299.6</ele>
        <time>2026-05-20T05:40:25Z</time>
      </trkpt>
      <trkpt lat="43.62642" lon="3.10437">
        <ele>299.6</ele>
        <time>2026-05-20T05:40:30Z</time>
      </trkpt>
      <trkpt lat="43.62642" lon="3.10437">
        <ele>299.6</ele>
        <time>2026-05-20T05:40:35Z</time>
      </trkpt>
      <trkpt lat="43.62642" lon="3.10437">
        <ele>299.6</ele>
        <time>2026-05-20T05:40:40Z</time>
      </trkpt>
      <trkpt lat="43.62642" lon="3.10437">
        <ele>299.6</ele>
        <time>2026-05-20T05:40:45Z</time>
      </trkpt>
      <trkpt lat="43.62642" lon="3.10437">
        <ele>299.6</ele>
        <time>2026-05-20T05:40:50Z</time>
      </trkpt>
      <trkpt lat="43.62642" lon="3.10437">
        <ele>299.6</ele>
        <time>2026-05-20T05:40:55Z</time>
      </trkpt>
      <trkpt lat="43.62642" lon="3.10437">
        <ele>299.6</ele>
        <time>2026-05-20T05:41:00Z</time>
      </trkpt>
      <trkpt lat="43.62642" lon="3.10437">
        <ele>299.6</ele>
        <time>2026-05-20T05:41:05Z</time>
      </trkpt>
      <trkpt lat="43.62642" lon="3.10437">
        <ele>299.6</ele>
        <time>2026-05-20T05:41:10Z</time>
      </trkpt>
      <trkpt lat="43.62642" lon="3.10437">
        <ele>299.6</ele>
        <time>2026-05-20T05:41:15Z</time>
      </trkpt>
      <trkpt lat="43.62642" lon="3.10437">
        <ele>299.6</ele>
        <time>2026-05-20T05:41:20Z</time>
      </trkpt>
      <trkpt lat="43.62642" lon="3.10437">
        <ele>299.6</ele>
        <time>2026-05-20T05:41:25Z</time>
      </trkpt>
      <trkpt lat="43.62643" lon="3.10435">
        <ele>299.6</ele>
        <time>2026-05-20T05:41:30Z</time>
      </trkpt>
      <trkpt lat="43.62645" lon="3.10427">
        <ele>299.8</ele>
        <time>2026-05-20T05:41:35Z</time>
      </trkpt>
      <trkpt lat="43.62647" lon="3.10421">
        <ele>300</ele>
        <time>2026-05-20T05:41:40Z</time>
      </trkpt>
      <trkpt lat="43.62647" lon="3.10415">
        <ele>300.2</ele>
        <time>2026-05-20T05:41:45Z</time>
      </trkpt>
      <trkpt lat="43.62647" lon="3.10407">
        <ele>300.6</ele>
        <time>2026-05-20T05:41:50Z</time>
      </trkpt>
      <trkpt lat="43.62647" lon="3.10397">
        <ele>301.2</ele>
        <time>2026-05-20T05:41:55Z</time>
      </trkpt>
      <trkpt lat="43.62645" lon="3.10391">
        <ele>301.4</ele>
        <time>2026-05-20T05:42:00Z</time>
      </trkpt>
      <trkpt lat="43.62642" lon="3.10382">
        <ele>301.8</ele>
        <time>2026-05-20T05:42:05Z</time>
      </trkpt>
      <trkpt lat="43.6264" lon="3.10373">
        <ele>302.2</ele>
        <time>2026-05-20T05:42:10Z</time>
      </trkpt>
      <trkpt lat="43.6264" lon="3.10364">
        <ele>302.7</ele>
        <time>2026-05-20T05:42:15Z</time>
      </trkpt>
      <trkpt lat="43.62637" lon="3.10355">
        <ele>303</ele>
        <time>2026-05-20T05:42:20Z</time>
      </trkpt>
      <trkpt lat="43.62636" lon="3.10348">
        <ele>303.3</ele>
        <time>2026-05-20T05:42:25Z</time>
      </trkpt>
      <trkpt lat="43.62634" lon="3.10341">
        <ele>303.6</ele>
        <time>2026-05-20T05:42:30Z</time>
      </trkpt>
      <trkpt lat="43.62631" lon="3.10334">
        <ele>303.8</ele>
        <time>2026-05-20T05:42:35Z</time>
      </trkpt>
      <trkpt lat="43.62628" lon="3.10326">
        <ele>304.5</ele>
        <time>2026-05-20T05:42:40Z</time>
      </trkpt>
      <trkpt lat="43.62624" lon="3.10319">
        <ele>305</ele>
        <time>2026-05-20T05:42:45Z</time>
      </trkpt>
      <trkpt lat="43.6262" lon="3.10313">
        <ele>305.4</ele>
        <time>2026-05-20T05:42:50Z</time>
      </trkpt>
      <trkpt lat="43.62618" lon="3.10303">
        <ele>306.3</ele>
        <time>2026-05-20T05:42:55Z</time>
      </trkpt>
      <trkpt lat="43.62614" lon="3.10297">
        <ele>306.6</ele>
        <time>2026-05-20T05:43:00Z</time>
      </trkpt>
      <trkpt lat="43.6261" lon="3.10292">
        <ele>306.9</ele>
        <time>2026-05-20T05:43:05Z</time>
      </trkpt>
      <trkpt lat="43.62605" lon="3.10287">
        <ele>307</ele>
        <time>2026-05-20T05:43:10Z</time>
      </trkpt>
      <trkpt lat="43.626" lon="3.10282">
        <ele>307.2</ele>
        <time>2026-05-20T05:43:15Z</time>
      </trkpt>
      <trkpt lat="43.62595" lon="3.10277">
        <ele>307.3</ele>
        <time>2026-05-20T05:43:20Z</time>
      </trkpt>
      <trkpt lat="43.6259" lon="3.10271">
        <ele>307.5</ele>
        <time>2026-05-20T05:43:25Z</time>
      </trkpt>
      <trkpt lat="43.62586" lon="3.10267">
        <ele>307.6</ele>
        <time>2026-05-20T05:43:30Z</time>
      </trkpt>
      <trkpt lat="43.62582" lon="3.10261">
        <ele>307.9</ele>
        <time>2026-05-20T05:43:35Z</time>
      </trkpt>
      <trkpt lat="43.62582" lon="3.10259">
        <ele>308.1</ele>
        <time>2026-05-20T05:43:40Z</time>
      </trkpt>
      <trkpt lat="43.62582" lon="3.10259">
        <ele>308.1</ele>
        <time>2026-05-20T05:43:45Z</time>
      </trkpt>
      <trkpt lat="43.62582" lon="3.10259">
        <ele>308.1</ele>
        <time>2026-05-20T05:43:50Z</time>
      </trkpt>
      <trkpt lat="43.62582" lon="3.10259">
        <ele>308.1</ele>
        <time>2026-05-20T05:43:55Z</time>
      </trkpt>
      <trkpt lat="43.62582" lon="3.10259">
        <ele>308.1</ele>
        <time>2026-05-20T05:44:00Z</time>
      </trkpt>
      <trkpt lat="43.62575" lon="3.10254">
        <ele>308.5</ele>
        <time>2026-05-20T05:44:05Z</time>
      </trkpt>
      <trkpt lat="43.62571" lon="3.10248">
        <ele>309</ele>
        <time>2026-05-20T05:44:10Z</time>
      </trkpt>
      <trkpt lat="43.62566" lon="3.1024">
        <ele>309.6</ele>
        <time>2026-05-20T05:44:15Z</time>
      </trkpt>
      <trkpt lat="43.62563" lon="3.10232">
        <ele>310.1</ele>
        <time>2026-05-20T05:44:20Z</time>
      </trkpt>
      <trkpt lat="43.62558" lon="3.10227">
        <ele>310.4</ele>
        <time>2026-05-20T05:44:25Z</time>
      </trkpt>
      <trkpt lat="43.6255" lon="3.10224">
        <ele>310.4</ele>
        <time>2026-05-20T05:44:30Z</time>
      </trkpt>
      <trkpt lat="43.62543" lon="3.10219">
        <ele>310.6</ele>
        <time>2026-05-20T05:44:35Z</time>
      </trkpt>
      <trkpt lat="43.62539" lon="3.10211">
        <ele>311</ele>
        <time>2026-05-20T05:44:40Z</time>
      </trkpt>
      <trkpt lat="43.62534" lon="3.10203">
        <ele>311.4</ele>
        <time>2026-05-20T05:44:45Z</time>
      </trkpt>
      <trkpt lat="43.62529" lon="3.10197">
        <ele>311.6</ele>
        <time>2026-05-20T05:44:50Z</time>
      </trkpt>
      <trkpt lat="43.62522" lon="3.10191">
        <ele>311.7</ele>
        <time>2026-05-20T05:44:55Z</time>
      </trkpt>
      <trkpt lat="43.62517" lon="3.10186">
        <ele>311.7</ele>
        <time>2026-05-20T05:45:00Z</time>
      </trkpt>
      <trkpt lat="43.62512" lon="3.10177">
        <ele>312</ele>
        <time>2026-05-20T05:45:05Z</time>
      </trkpt>
      <trkpt lat="43.62506" lon="3.10169">
        <ele>312.2</ele>
        <time>2026-05-20T05:45:10Z</time>
      </trkpt>
      <trkpt lat="43.625" lon="3.10164">
        <ele>311.9</ele>
        <time>2026-05-20T05:45:15Z</time>
      </trkpt>
      <trkpt lat="43.62495" lon="3.10155">
        <ele>311.8</ele>
        <time>2026-05-20T05:45:20Z</time>
      </trkpt>
      <trkpt lat="43.62489" lon="3.10147">
        <ele>311.7</ele>
        <time>2026-05-20T05:45:25Z</time>
      </trkpt>
      <trkpt lat="43.62484" lon="3.10139">
        <ele>311.6</ele>
        <time>2026-05-20T05:45:30Z</time>
      </trkpt>
      <trkpt lat="43.62479" lon="3.10133">
        <ele>311.5</ele>
        <time>2026-05-20T05:45:35Z</time>
      </trkpt>
      <trkpt lat="43.62473" lon="3.10127">
        <ele>311.4</ele>
        <time>2026-05-20T05:45:40Z</time>
      </trkpt>
      <trkpt lat="43.62468" lon="3.1012">
        <ele>311.2</ele>
        <time>2026-05-20T05:45:45Z</time>
      </trkpt>
      <trkpt lat="43.62463" lon="3.10113">
        <ele>311</ele>
        <time>2026-05-20T05:45:50Z</time>
      </trkpt>
      <trkpt lat="43.62457" lon="3.10106">
        <ele>310.8</ele>
        <time>2026-05-20T05:45:55Z</time>
      </trkpt>
      <trkpt lat="43.62452" lon="3.10101">
        <ele>310.7</ele>
        <time>2026-05-20T05:46:00Z</time>
      </trkpt>
      <trkpt lat="43.62447" lon="3.10096">
        <ele>310.5</ele>
        <time>2026-05-20T05:46:05Z</time>
      </trkpt>
      <trkpt lat="43.62441" lon="3.1009">
        <ele>310.3</ele>
        <time>2026-05-20T05:46:10Z</time>
      </trkpt>
      <trkpt lat="43.62436" lon="3.10083">
        <ele>310</ele>
        <time>2026-05-20T05:46:15Z</time>
      </trkpt>
      <trkpt lat="43.62433" lon="3.10079">
        <ele>309.7</ele>
        <time>2026-05-20T05:46:20Z</time>
      </trkpt>
      <trkpt lat="43.62431" lon="3.10079">
        <ele>309.7</ele>
        <time>2026-05-20T05:46:25Z</time>
      </trkpt>
      <trkpt lat="43.6243" lon="3.1008">
        <ele>309.7</ele>
        <time>2026-05-20T05:46:30Z</time>
      </trkpt>
      <trkpt lat="43.6243" lon="3.1008">
        <ele>309.7</ele>
        <time>2026-05-20T05:46:35Z</time>
      </trkpt>
      <trkpt lat="43.62427" lon="3.1008">
        <ele>309.7</ele>
        <time>2026-05-20T05:46:40Z</time>
      </trkpt>
      <trkpt lat="43.62422" lon="3.1008">
        <ele>309.7</ele>
        <time>2026-05-20T05:46:45Z</time>
      </trkpt>
      <trkpt lat="43.62415" lon="3.1008">
        <ele>309.8</ele>
        <time>2026-05-20T05:46:50Z</time>
      </trkpt>
      <trkpt lat="43.62407" lon="3.10078">
        <ele>310.1</ele>
        <time>2026-05-20T05:46:55Z</time>
      </trkpt>
      <trkpt lat="43.624" lon="3.10073">
        <ele>310</ele>
        <time>2026-05-20T05:47:00Z</time>
      </trkpt>
      <trkpt lat="43.62396" lon="3.10067">
        <ele>309.6</ele>
        <time>2026-05-20T05:47:05Z</time>
      </trkpt>
      <trkpt lat="43.6239" lon="3.10062">
        <ele>309.3</ele>
        <time>2026-05-20T05:47:10Z</time>
      </trkpt>
      <trkpt lat="43.62386" lon="3.10058">
        <ele>309</ele>
        <time>2026-05-20T05:47:15Z</time>
      </trkpt>
      <trkpt lat="43.6238" lon="3.10052">
        <ele>308.6</ele>
        <time>2026-05-20T05:47:20Z</time>
      </trkpt>
      <trkpt lat="43.62375" lon="3.10047">
        <ele>308.1</ele>
        <time>2026-05-20T05:47:25Z</time>
      </trkpt>
      <trkpt lat="43.62372" lon="3.10043">
        <ele>307.7</ele>
        <time>2026-05-20T05:47:30Z</time>
      </trkpt>
      <trkpt lat="43.62367" lon="3.10038">
        <ele>307.2</ele>
        <time>2026-05-20T05:47:35Z</time>
      </trkpt>
      <trkpt lat="43.62361" lon="3.10033">
        <ele>306.7</ele>
        <time>2026-05-20T05:47:40Z</time>
      </trkpt>
      <trkpt lat="43.62355" lon="3.1003">
        <ele>306.4</ele>
        <time>2026-05-20T05:47:45Z</time>
      </trkpt>
      <trkpt lat="43.62349" lon="3.10025">
        <ele>305.7</ele>
        <time>2026-05-20T05:47:50Z</time>
      </trkpt>
      <trkpt lat="43.62342" lon="3.10021">
        <ele>305.2</ele>
        <time>2026-05-20T05:47:55Z</time>
      </trkpt>
      <trkpt lat="43.62337" lon="3.10016">
        <ele>304.5</ele>
        <time>2026-05-20T05:48:00Z</time>
      </trkpt>
      <trkpt lat="43.62329" lon="3.10009">
        <ele>303.5</ele>
        <time>2026-05-20T05:48:05Z</time>
      </trkpt>
      <trkpt lat="43.62321" lon="3.10009">
        <ele>303.6</ele>
        <time>2026-05-20T05:48:10Z</time>
      </trkpt>
      <trkpt lat="43.62312" lon="3.10007">
        <ele>303.4</ele>
        <time>2026-05-20T05:48:15Z</time>
      </trkpt>
      <trkpt lat="43.62306" lon="3.10005">
        <ele>303.1</ele>
        <time>2026-05-20T05:48:20Z</time>
      </trkpt>
      <trkpt lat="43.62303" lon="3.10001">
        <ele>302.5</ele>
        <time>2026-05-20T05:48:25Z</time>
      </trkpt>
      <trkpt lat="43.62302" lon="3.1">
        <ele>302.4</ele>
        <time>2026-05-20T05:48:30Z</time>
      </trkpt>
      <trkpt lat="43.62301" lon="3.1">
        <ele>302.4</ele>
        <time>2026-05-20T05:48:35Z</time>
      </trkpt>
      <trkpt lat="43.62301" lon="3.1">
        <ele>302.4</ele>
        <time>2026-05-20T05:48:40Z</time>
      </trkpt>
      <trkpt lat="43.62301" lon="3.1">
        <ele>302.4</ele>
        <time>2026-05-20T05:48:45Z</time>
      </trkpt>
      <trkpt lat="43.62301" lon="3.1">
        <ele>302.4</ele>
        <time>2026-05-20T05:48:50Z</time>
      </trkpt>
      <trkpt lat="43.62296" lon="3.10002">
        <ele>302.8</ele>
        <time>2026-05-20T05:48:55Z</time>
      </trkpt>
      <trkpt lat="43.6229" lon="3.09998">
        <ele>302.2</ele>
        <time>2026-05-20T05:49:00Z</time>
      </trkpt>
      <trkpt lat="43.62284" lon="3.09994">
        <ele>301.6</ele>
        <time>2026-05-20T05:49:05Z</time>
      </trkpt>
      <trkpt lat="43.62278" lon="3.09989">
        <ele>300.8</ele>
        <time>2026-05-20T05:49:10Z</time>
      </trkpt>
      <trkpt lat="43.62272" lon="3.09985">
        <ele>300.1</ele>
        <time>2026-05-20T05:49:15Z</time>
      </trkpt>
      <trkpt lat="43.62267" lon="3.09979">
        <ele>299</ele>
        <time>2026-05-20T05:49:20Z</time>
      </trkpt>
      <trkpt lat="43.62261" lon="3.09973">
        <ele>297.9</ele>
        <time>2026-05-20T05:49:25Z</time>
      </trkpt>
      <trkpt lat="43.62256" lon="3.09968">
        <ele>296.9</ele>
        <time>2026-05-20T05:49:30Z</time>
      </trkpt>
      <trkpt lat="43.62253" lon="3.09965">
        <ele>296.3</ele>
        <time>2026-05-20T05:49:35Z</time>
      </trkpt>
      <trkpt lat="43.62253" lon="3.09965">
        <ele>296.3</ele>
        <time>2026-05-20T05:49:40Z</time>
      </trkpt>
      <trkpt lat="43.62253" lon="3.09965">
        <ele>296.3</ele>
        <time>2026-05-20T05:49:45Z</time>
      </trkpt>
      <trkpt lat="43.62247" lon="3.0996">
        <ele>295</ele>
        <time>2026-05-20T05:49:50Z</time>
      </trkpt>
      <trkpt lat="43.6224" lon="3.09957">
        <ele>293.8</ele>
        <time>2026-05-20T05:49:55Z</time>
      </trkpt>
      <trkpt lat="43.62235" lon="3.09952">
        <ele>292.5</ele>
        <time>2026-05-20T05:50:00Z</time>
      </trkpt>
      <trkpt lat="43.62227" lon="3.09948">
        <ele>291</ele>
        <time>2026-05-20T05:50:05Z</time>
      </trkpt>
      <trkpt lat="43.62219" lon="3.09945">
        <ele>289.8</ele>
        <time>2026-05-20T05:50:10Z</time>
      </trkpt>
      <trkpt lat="43.62212" lon="3.09944">
        <ele>289.1</ele>
        <time>2026-05-20T05:50:15Z</time>
      </trkpt>
      <trkpt lat="43.62207" lon="3.09945">
        <ele>288.8</ele>
        <time>2026-05-20T05:50:20Z</time>
      </trkpt>
      <trkpt lat="43.62206" lon="3.09945">
        <ele>288.7</ele>
        <time>2026-05-20T05:50:25Z</time>
      </trkpt>
      <trkpt lat="43.62203" lon="3.09944">
        <ele>288.3</ele>
        <time>2026-05-20T05:50:30Z</time>
      </trkpt>
      <trkpt lat="43.62202" lon="3.09944">
        <ele>288.2</ele>
        <time>2026-05-20T05:50:35Z</time>
      </trkpt>
      <trkpt lat="43.62196" lon="3.09947">
        <ele>288.2</ele>
        <time>2026-05-20T05:50:40Z</time>
      </trkpt>
      <trkpt lat="43.62188" lon="3.0995">
        <ele>288</ele>
        <time>2026-05-20T05:50:45Z</time>
      </trkpt>
      <trkpt lat="43.62181" lon="3.09955">
        <ele>288.2</ele>
        <time>2026-05-20T05:50:50Z</time>
      </trkpt>
      <trkpt lat="43.62175" lon="3.09959">
        <ele>288.4</ele>
        <time>2026-05-20T05:50:55Z</time>
      </trkpt>
      <trkpt lat="43.62168" lon="3.09962">
        <ele>288.2</ele>
        <time>2026-05-20T05:51:00Z</time>
      </trkpt>
      <trkpt lat="43.6216" lon="3.09965">
        <ele>288.4</ele>
        <time>2026-05-20T05:51:05Z</time>
      </trkpt>
      <trkpt lat="43.62155" lon="3.09964">
        <ele>288.1</ele>
        <time>2026-05-20T05:51:10Z</time>
      </trkpt>
      <trkpt lat="43.62148" lon="3.09966">
        <ele>288.2</ele>
        <time>2026-05-20T05:51:15Z</time>
      </trkpt>
      <trkpt lat="43.62141" lon="3.09968">
        <ele>288.4</ele>
        <time>2026-05-20T05:51:20Z</time>
      </trkpt>
      <trkpt lat="43.62134" lon="3.0997">
        <ele>288.5</ele>
        <time>2026-05-20T05:51:25Z</time>
      </trkpt>
      <trkpt lat="43.62126" lon="3.09973">
        <ele>288.8</ele>
        <time>2026-05-20T05:51:30Z</time>
      </trkpt>
      <trkpt lat="43.6212" lon="3.09978">
        <ele>289.4</ele>
        <time>2026-05-20T05:51:35Z</time>
      </trkpt>
      <trkpt lat="43.62113" lon="3.0998">
        <ele>289.6</ele>
        <time>2026-05-20T05:51:40Z</time>
      </trkpt>
      <trkpt lat="43.62105" lon="3.09983">
        <ele>289.9</ele>
        <time>2026-05-20T05:51:45Z</time>
      </trkpt>
      <trkpt lat="43.62098" lon="3.09986">
        <ele>290.2</ele>
        <time>2026-05-20T05:51:50Z</time>
      </trkpt>
      <trkpt lat="43.62089" lon="3.09986">
        <ele>290</ele>
        <time>2026-05-20T05:51:55Z</time>
      </trkpt>
      <trkpt lat="43.62082" lon="3.09981">
        <ele>288.9</ele>
        <time>2026-05-20T05:52:00Z</time>
      </trkpt>
      <trkpt lat="43.6208" lon="3.09972">
        <ele>287.3</ele>
        <time>2026-05-20T05:52:05Z</time>
      </trkpt>
      <trkpt lat="43.6208" lon="3.09967">
        <ele>286.5</ele>
        <time>2026-05-20T05:52:10Z</time>
      </trkpt>
      <trkpt lat="43.62084" lon="3.09964">
        <ele>286.4</ele>
        <time>2026-05-20T05:52:15Z</time>
      </trkpt>
      <trkpt lat="43.62091" lon="3.09962">
        <ele>286.3</ele>
        <time>2026-05-20T05:52:20Z</time>
      </trkpt>
      <trkpt lat="43.62097" lon="3.09959">
        <ele>285.9</ele>
        <time>2026-05-20T05:52:25Z</time>
      </trkpt>
      <trkpt lat="43.62104" lon="3.0996">
        <ele>286.3</ele>
        <time>2026-05-20T05:52:30Z</time>
      </trkpt>
      <trkpt lat="43.62112" lon="3.09958">
        <ele>286.1</ele>
        <time>2026-05-20T05:52:35Z</time>
      </trkpt>
      <trkpt lat="43.62119" lon="3.09956">
        <ele>286</ele>
        <time>2026-05-20T05:52:40Z</time>
      </trkpt>
      <trkpt lat="43.62125" lon="3.09953">
        <ele>285.7</ele>
        <time>2026-05-20T05:52:45Z</time>
      </trkpt>
      <trkpt lat="43.62131" lon="3.09949">
        <ele>285.2</ele>
        <time>2026-05-20T05:52:50Z</time>
      </trkpt>
      <trkpt lat="43.62137" lon="3.09945">
        <ele>284.7</ele>
        <time>2026-05-20T05:52:55Z</time>
      </trkpt>
      <trkpt lat="43.62143" lon="3.09939">
        <ele>283.9</ele>
        <time>2026-05-20T05:53:00Z</time>
      </trkpt>
      <trkpt lat="43.62149" lon="3.09932">
        <ele>283</ele>
        <time>2026-05-20T05:53:05Z</time>
      </trkpt>
      <trkpt lat="43.62155" lon="3.09926">
        <ele>282.2</ele>
        <time>2026-05-20T05:53:10Z</time>
      </trkpt>
      <trkpt lat="43.62161" lon="3.09919">
        <ele>281.2</ele>
        <time>2026-05-20T05:53:15Z</time>
      </trkpt>
      <trkpt lat="43.62167" lon="3.09912">
        <ele>280.6</ele>
        <time>2026-05-20T05:53:20Z</time>
      </trkpt>
      <trkpt lat="43.62169" lon="3.09903">
        <ele>280</ele>
        <time>2026-05-20T05:53:25Z</time>
      </trkpt>
      <trkpt lat="43.62173" lon="3.09896">
        <ele>279.7</ele>
        <time>2026-05-20T05:53:30Z</time>
      </trkpt>
      <trkpt lat="43.62179" lon="3.09889">
        <ele>279.5</ele>
        <time>2026-05-20T05:53:35Z</time>
      </trkpt>
      <trkpt lat="43.62185" lon="3.09884">
        <ele>279.5</ele>
        <time>2026-05-20T05:53:40Z</time>
      </trkpt>
      <trkpt lat="43.62192" lon="3.09881">
        <ele>279.7</ele>
        <time>2026-05-20T05:53:45Z</time>
      </trkpt>
      <trkpt lat="43.62199" lon="3.09879">
        <ele>280</ele>
        <time>2026-05-20T05:53:50Z</time>
      </trkpt>
      <trkpt lat="43.62204" lon="3.09872">
        <ele>279.7</ele>
        <time>2026-05-20T05:53:55Z</time>
      </trkpt>
      <trkpt lat="43.62208" lon="3.09865">
        <ele>279.3</ele>
        <time>2026-05-20T05:54:00Z</time>
      </trkpt>
      <trkpt lat="43.62209" lon="3.09857">
        <ele>278.7</ele>
        <time>2026-05-20T05:54:05Z</time>
      </trkpt>
      <trkpt lat="43.62206" lon="3.09848">
        <ele>277.7</ele>
        <time>2026-05-20T05:54:10Z</time>
      </trkpt>
      <trkpt lat="43.62199" lon="3.09842">
        <ele>276.7</ele>
        <time>2026-05-20T05:54:15Z</time>
      </trkpt>
      <trkpt lat="43.62192" lon="3.09839">
        <ele>276</ele>
        <time>2026-05-20T05:54:20Z</time>
      </trkpt>
      <trkpt lat="43.62184" lon="3.09837">
        <ele>275.4</ele>
        <time>2026-05-20T05:54:25Z</time>
      </trkpt>
      <trkpt lat="43.62177" lon="3.09836">
        <ele>274.8</ele>
        <time>2026-05-20T05:54:30Z</time>
      </trkpt>
      <trkpt lat="43.6217" lon="3.09837">
        <ele>274.5</ele>
        <time>2026-05-20T05:54:35Z</time>
      </trkpt>
      <trkpt lat="43.62165" lon="3.09837">
        <ele>274.4</ele>
        <time>2026-05-20T05:54:40Z</time>
      </trkpt>
      <trkpt lat="43.62165" lon="3.09838">
        <ele>274.5</ele>
        <time>2026-05-20T05:54:45Z</time>
      </trkpt>
      <trkpt lat="43.62164" lon="3.09838">
        <ele>274.5</ele>
        <time>2026-05-20T05:54:50Z</time>
      </trkpt>
      <trkpt lat="43.62164" lon="3.09838">
        <ele>274.5</ele>
        <time>2026-05-20T05:54:55Z</time>
      </trkpt>
      <trkpt lat="43.62164" lon="3.09838">
        <ele>274.5</ele>
        <time>2026-05-20T05:55:00Z</time>
      </trkpt>
      <trkpt lat="43.62164" lon="3.09838">
        <ele>274.5</ele>
        <time>2026-05-20T05:55:05Z</time>
      </trkpt>
      <trkpt lat="43.62164" lon="3.09838">
        <ele>274.5</ele>
        <time>2026-05-20T05:55:10Z</time>
      </trkpt>
      <trkpt lat="43.62164" lon="3.09838">
        <ele>274.5</ele>
        <time>2026-05-20T05:55:15Z</time>
      </trkpt>
      <trkpt lat="43.62162" lon="3.09839">
        <ele>274.7</ele>
        <time>2026-05-20T05:55:20Z</time>
      </trkpt>
      <trkpt lat="43.62157" lon="3.09841">
        <ele>275.1</ele>
        <time>2026-05-20T05:55:25Z</time>
      </trkpt>
      <trkpt lat="43.6215" lon="3.09841">
        <ele>275.5</ele>
        <time>2026-05-20T05:55:30Z</time>
      </trkpt>
      <trkpt lat="43.62144" lon="3.09841">
        <ele>275.8</ele>
        <time>2026-05-20T05:55:35Z</time>
      </trkpt>
      <trkpt lat="43.62138" lon="3.09838">
        <ele>276</ele>
        <time>2026-05-20T05:55:40Z</time>
      </trkpt>
      <trkpt lat="43.62132" lon="3.09835">
        <ele>276.2</ele>
        <time>2026-05-20T05:55:45Z</time>
      </trkpt>
      <trkpt lat="43.62126" lon="3.09833">
        <ele>276.5</ele>
        <time>2026-05-20T05:55:50Z</time>
      </trkpt>
      <trkpt lat="43.6212" lon="3.09829">
        <ele>277</ele>
        <time>2026-05-20T05:55:55Z</time>
      </trkpt>
      <trkpt lat="43.62115" lon="3.09826">
        <ele>277.5</ele>
        <time>2026-05-20T05:56:00Z</time>
      </trkpt>
      <trkpt lat="43.62115" lon="3.09825">
        <ele>277.6</ele>
        <time>2026-05-20T05:56:05Z</time>
      </trkpt>
      <trkpt lat="43.62114" lon="3.09825">
        <ele>277.6</ele>
        <time>2026-05-20T05:56:10Z</time>
      </trkpt>
      <trkpt lat="43.62111" lon="3.09824">
        <ele>277.9</ele>
        <time>2026-05-20T05:56:15Z</time>
      </trkpt>
      <trkpt lat="43.62107" lon="3.09821">
        <ele>278.4</ele>
        <time>2026-05-20T05:56:20Z</time>
      </trkpt>
      <trkpt lat="43.62104" lon="3.09819">
        <ele>278.7</ele>
        <time>2026-05-20T05:56:25Z</time>
      </trkpt>
      <trkpt lat="43.621" lon="3.09816">
        <ele>279.2</ele>
        <time>2026-05-20T05:56:30Z</time>
      </trkpt>
      <trkpt lat="43.62097" lon="3.09813">
        <ele>279.6</ele>
        <time>2026-05-20T05:56:35Z</time>
      </trkpt>
      <trkpt lat="43.62093" lon="3.09811">
        <ele>280.1</ele>
        <time>2026-05-20T05:56:40Z</time>
      </trkpt>
      <trkpt lat="43.62092" lon="3.09809">
        <ele>280.3</ele>
        <time>2026-05-20T05:56:45Z</time>
      </trkpt>
      <trkpt lat="43.62092" lon="3.09809">
        <ele>280.3</ele>
        <time>2026-05-20T05:56:50Z</time>
      </trkpt>
      <trkpt lat="43.62092" lon="3.09809">
        <ele>280.3</ele>
        <time>2026-05-20T05:56:55Z</time>
      </trkpt>
      <trkpt lat="43.62089" lon="3.09807">
        <ele>280.7</ele>
        <time>2026-05-20T05:57:00Z</time>
      </trkpt>
      <trkpt lat="43.62089" lon="3.09807">
        <ele>280.7</ele>
        <time>2026-05-20T05:57:05Z</time>
      </trkpt>
      <trkpt lat="43.62087" lon="3.09806">
        <ele>281</ele>
        <time>2026-05-20T05:57:10Z</time>
      </trkpt>
      <trkpt lat="43.62085" lon="3.09805">
        <ele>281.2</ele>
        <time>2026-05-20T05:57:15Z</time>
      </trkpt>
      <trkpt lat="43.62084" lon="3.09804">
        <ele>281.4</ele>
        <time>2026-05-20T05:57:20Z</time>
      </trkpt>
      <trkpt lat="43.62084" lon="3.09803">
        <ele>281.5</ele>
        <time>2026-05-20T05:57:25Z</time>
      </trkpt>
      <trkpt lat="43.62084" lon="3.09803">
        <ele>281.5</ele>
        <time>2026-05-20T05:57:30Z</time>
      </trkpt>
      <trkpt lat="43.62081" lon="3.09801">
        <ele>282</ele>
        <time>2026-05-20T05:57:35Z</time>
      </trkpt>
      <trkpt lat="43.62079" lon="3.09799">
        <ele>282.3</ele>
        <time>2026-05-20T05:57:40Z</time>
      </trkpt>
      <trkpt lat="43.62078" lon="3.09798">
        <ele>282.5</ele>
        <time>2026-05-20T05:57:45Z</time>
      </trkpt>
      <trkpt lat="43.62078" lon="3.09798">
        <ele>282.5</ele>
        <time>2026-05-20T05:57:50Z</time>
      </trkpt>
      <trkpt lat="43.62078" lon="3.09798">
        <ele>282.5</ele>
        <time>2026-05-20T05:57:55Z</time>
      </trkpt>
      <trkpt lat="43.62078" lon="3.09798">
        <ele>282.5</ele>
        <time>2026-05-20T05:58:00Z</time>
      </trkpt>
      <trkpt lat="43.62075" lon="3.09796">
        <ele>283</ele>
        <time>2026-05-20T05:58:05Z</time>
      </trkpt>
      <trkpt lat="43.62073" lon="3.09796">
        <ele>283.3</ele>
        <time>2026-05-20T05:58:10Z</time>
      </trkpt>
      <trkpt lat="43.62071" lon="3.09796">
        <ele>283.5</ele>
        <time>2026-05-20T05:58:15Z</time>
      </trkpt>
      <trkpt lat="43.62071" lon="3.09796">
        <ele>283.5</ele>
        <time>2026-05-20T05:58:20Z</time>
      </trkpt>
      <trkpt lat="43.62071" lon="3.09796">
        <ele>283.5</ele>
        <time>2026-05-20T05:58:25Z</time>
      </trkpt>
      <trkpt lat="43.62071" lon="3.09796">
        <ele>283.5</ele>
        <time>2026-05-20T05:58:30Z</time>
      </trkpt>
      <trkpt lat="43.62071" lon="3.09796">
        <ele>283.5</ele>
        <time>2026-05-20T05:58:35Z</time>
      </trkpt>
      <trkpt lat="43.62071" lon="3.09796">
        <ele>283.5</ele>
        <time>2026-05-20T05:58:40Z</time>
      </trkpt>
      <trkpt lat="43.62071" lon="3.09796">
        <ele>283.5</ele>
        <time>2026-05-20T05:58:45Z</time>
      </trkpt>
      <trkpt lat="43.62071" lon="3.09796">
        <ele>283.5</ele>
        <time>2026-05-20T05:58:50Z</time>
      </trkpt>
      <trkpt lat="43.62071" lon="3.09796">
        <ele>283.5</ele>
        <time>2026-05-20T05:58:55Z</time>
      </trkpt>
      <trkpt lat="43.62071" lon="3.09796">
        <ele>283.5</ele>
        <time>2026-05-20T05:59:00Z</time>
      </trkpt>
      <trkpt lat="43.62071" lon="3.09796">
        <ele>283.5</ele>
        <time>2026-05-20T05:59:05Z</time>
      </trkpt>
      <trkpt lat="43.62071" lon="3.09796">
        <ele>283.5</ele>
        <time>2026-05-20T05:59:10Z</time>
      </trkpt>
      <trkpt lat="43.62071" lon="3.09796">
        <ele>283.5</ele>
        <time>2026-05-20T05:59:15Z</time>
      </trkpt>
      <trkpt lat="43.62065" lon="3.098">
        <ele>283.7</ele>
        <time>2026-05-20T05:59:20Z</time>
      </trkpt>
      <trkpt lat="43.62062" lon="3.09803">
        <ele>283.7</ele>
        <time>2026-05-20T05:59:25Z</time>
      </trkpt>
      <trkpt lat="43.62059" lon="3.09805">
        <ele>283.7</ele>
        <time>2026-05-20T05:59:30Z</time>
      </trkpt>
      <trkpt lat="43.62057" lon="3.09807">
        <ele>283.7</ele>
        <time>2026-05-20T05:59:35Z</time>
      </trkpt>
      <trkpt lat="43.62055" lon="3.0981">
        <ele>283.5</ele>
        <time>2026-05-20T05:59:40Z</time>
      </trkpt>
      <trkpt lat="43.62053" lon="3.09812">
        <ele>283.5</ele>
        <time>2026-05-20T05:59:45Z</time>
      </trkpt>
      <trkpt lat="43.62051" lon="3.09814">
        <ele>283.4</ele>
        <time>2026-05-20T05:59:50Z</time>
      </trkpt>
      <trkpt lat="43.62049" lon="3.09816">
        <ele>283.3</ele>
        <time>2026-05-20T05:59:55Z</time>
      </trkpt>
      <trkpt lat="43.62048" lon="3.09817">
        <ele>283.2</ele>
        <time>2026-05-20T06:00:00Z</time>
      </trkpt>
      <trkpt lat="43.62046" lon="3.09818">
        <ele>283.3</ele>
        <time>2026-05-20T06:00:05Z</time>
      </trkpt>
      <trkpt lat="43.62046" lon="3.09819">
        <ele>283.1</ele>
        <time>2026-05-20T06:00:10Z</time>
      </trkpt>
      <trkpt lat="43.62046" lon="3.09819">
        <ele>283.1</ele>
        <time>2026-05-20T06:00:15Z</time>
      </trkpt>
      <trkpt lat="43.62046" lon="3.09819">
        <ele>283.1</ele>
        <time>2026-05-20T06:00:20Z</time>
      </trkpt>
      <trkpt lat="43.62046" lon="3.09819">
        <ele>283.1</ele>
        <time>2026-05-20T06:00:25Z</time>
      </trkpt>
      <trkpt lat="43.62046" lon="3.09819">
        <ele>283.1</ele>
        <time>2026-05-20T06:00:30Z</time>
      </trkpt>
      <trkpt lat="43.62046" lon="3.09819">
        <ele>283.1</ele>
        <time>2026-05-20T06:00:35Z</time>
      </trkpt>
      <trkpt lat="43.62046" lon="3.09819">
        <ele>283.1</ele>
        <time>2026-05-20T06:00:40Z</time>
      </trkpt>
      <trkpt lat="43.62046" lon="3.09819">
        <ele>283.1</ele>
        <time>2026-05-20T06:00:45Z</time>
      </trkpt>
      <trkpt lat="43.62046" lon="3.09819">
        <ele>283.1</ele>
        <time>2026-05-20T06:00:50Z</time>
      </trkpt>
      <trkpt lat="43.62046" lon="3.09819">
        <ele>283.1</ele>
        <time>2026-05-20T06:00:55Z</time>
      </trkpt>
      <trkpt lat="43.62046" lon="3.09819">
        <ele>283.1</ele>
        <time>2026-05-20T06:01:00Z</time>
      </trkpt>
      <trkpt lat="43.62046" lon="3.09819">
        <ele>283.1</ele>
        <time>2026-05-20T06:01:05Z</time>
      </trkpt>
      <trkpt lat="43.62046" lon="3.09819">
        <ele>283.1</ele>
        <time>2026-05-20T06:01:10Z</time>
      </trkpt>
      <trkpt lat="43.62046" lon="3.09819">
        <ele>283.1</ele>
        <time>2026-05-20T06:01:15Z</time>
      </trkpt>
      <trkpt lat="43.62046" lon="3.09819">
        <ele>283.1</ele>
        <time>2026-05-20T06:01:20Z</time>
      </trkpt>
      <trkpt lat="43.62046" lon="3.09819">
        <ele>283.1</ele>
        <time>2026-05-20T06:01:25Z</time>
      </trkpt>
      <trkpt lat="43.62046" lon="3.09819">
        <ele>283.1</ele>
        <time>2026-05-20T06:01:30Z</time>
      </trkpt>
      <trkpt lat="43.62046" lon="3.09819">
        <ele>283.1</ele>
        <time>2026-05-20T06:01:35Z</time>
      </trkpt>
      <trkpt lat="43.62046" lon="3.09819">
        <ele>283.1</ele>
        <time>2026-05-20T06:01:40Z</time>
      </trkpt>
      <trkpt lat="43.62046" lon="3.09819">
        <ele>283.1</ele>
        <time>2026-05-20T06:01:45Z</time>
      </trkpt>
      <trkpt lat="43.62046" lon="3.09819">
        <ele>283.1</ele>
        <time>2026-05-20T06:01:50Z</time>
      </trkpt>
      <trkpt lat="43.62046" lon="3.09819">
        <ele>283.1</ele>
        <time>2026-05-20T06:01:55Z</time>
      </trkpt>
      <trkpt lat="43.62046" lon="3.09819">
        <ele>283.1</ele>
        <time>2026-05-20T06:02:00Z</time>
      </trkpt>
      <trkpt lat="43.62046" lon="3.09819">
        <ele>283.1</ele>
        <time>2026-05-20T06:02:05Z</time>
      </trkpt>
      <trkpt lat="43.62046" lon="3.09819">
        <ele>283.1</ele>
        <time>2026-05-20T06:02:10Z</time>
      </trkpt>
      <trkpt lat="43.62046" lon="3.09819">
        <ele>283.1</ele>
        <time>2026-05-20T06:02:15Z</time>
      </trkpt>
      <trkpt lat="43.62046" lon="3.09819">
        <ele>283.1</ele>
        <time>2026-05-20T06:02:20Z</time>
      </trkpt>
      <trkpt lat="43.62046" lon="3.09819">
        <ele>283.1</ele>
        <time>2026-05-20T06:02:25Z</time>
      </trkpt>
      <trkpt lat="43.62046" lon="3.09819">
        <ele>283.1</ele>
        <time>2026-05-20T06:02:30Z</time>
      </trkpt>
      <trkpt lat="43.62046" lon="3.09819">
        <ele>283.1</ele>
        <time>2026-05-20T06:02:35Z</time>
      </trkpt>
      <trkpt lat="43.62046" lon="3.09819">
        <ele>283.1</ele>
        <time>2026-05-20T06:02:40Z</time>
      </trkpt>
      <trkpt lat="43.62046" lon="3.09819">
        <ele>283.1</ele>
        <time>2026-05-20T06:02:45Z</time>
      </trkpt>
      <trkpt lat="43.62046" lon="3.09819">
        <ele>283.1</ele>
        <time>2026-05-20T06:02:50Z</time>
      </trkpt>
      <trkpt lat="43.62046" lon="3.09819">
        <ele>283.1</ele>
        <time>2026-05-20T06:02:55Z</time>
      </trkpt>
      <trkpt lat="43.62046" lon="3.09819">
        <ele>283.1</ele>
        <time>2026-05-20T06:03:00Z</time>
      </trkpt>
      <trkpt lat="43.62046" lon="3.09819">
        <ele>283.1</ele>
        <time>2026-05-20T06:03:05Z</time>
      </trkpt>
      <trkpt lat="43.62046" lon="3.09819">
        <ele>283.1</ele>
        <time>2026-05-20T06:03:10Z</time>
      </trkpt>
      <trkpt lat="43.62046" lon="3.09819">
        <ele>283.1</ele>
        <time>2026-05-20T06:03:15Z</time>
      </trkpt>
      <trkpt lat="43.62046" lon="3.09819">
        <ele>283.1</ele>
        <time>2026-05-20T06:03:20Z</time>
      </trkpt>
      <trkpt lat="43.62046" lon="3.09819">
        <ele>283.1</ele>
        <time>2026-05-20T06:03:25Z</time>
      </trkpt>
      <trkpt lat="43.62046" lon="3.09819">
        <ele>283.1</ele>
        <time>2026-05-20T06:03:30Z</time>
      </trkpt>
      <trkpt lat="43.62046" lon="3.09819">
        <ele>283.1</ele>
        <time>2026-05-20T06:03:35Z</time>
      </trkpt>
      <trkpt lat="43.62046" lon="3.09819">
        <ele>283.1</ele>
        <time>2026-05-20T06:03:40Z</time>
      </trkpt>
      <trkpt lat="43.62046" lon="3.09819">
        <ele>283.1</ele>
        <time>2026-05-20T06:03:45Z</time>
      </trkpt>
      <trkpt lat="43.62046" lon="3.09819">
        <ele>283.1</ele>
        <time>2026-05-20T06:03:50Z</time>
      </trkpt>
      <trkpt lat="43.62046" lon="3.09819">
        <ele>283.1</ele>
        <time>2026-05-20T06:03:55Z</time>
      </trkpt>
      <trkpt lat="43.62046" lon="3.09819">
        <ele>283.1</ele>
        <time>2026-05-20T06:04:00Z</time>
      </trkpt>
      <trkpt lat="43.62046" lon="3.09819">
        <ele>283.1</ele>
        <time>2026-05-20T06:04:05Z</time>
      </trkpt>
      <trkpt lat="43.62046" lon="3.09819">
        <ele>283.1</ele>
        <time>2026-05-20T06:04:10Z</time>
      </trkpt>
      <trkpt lat="43.62046" lon="3.09819">
        <ele>283.1</ele>
        <time>2026-05-20T06:04:15Z</time>
      </trkpt>
      <trkpt lat="43.62046" lon="3.09819">
        <ele>283.1</ele>
        <time>2026-05-20T06:04:20Z</time>
      </trkpt>
      <trkpt lat="43.62046" lon="3.09819">
        <ele>283.1</ele>
        <time>2026-05-20T06:04:25Z</time>
      </trkpt>
      <trkpt lat="43.62046" lon="3.09819">
        <ele>283.1</ele>
        <time>2026-05-20T06:04:30Z</time>
      </trkpt>
      <trkpt lat="43.62046" lon="3.09819">
        <ele>283.1</ele>
        <time>2026-05-20T06:04:35Z</time>
      </trkpt>
      <trkpt lat="43.62046" lon="3.09819">
        <ele>283.1</ele>
        <time>2026-05-20T06:04:40Z</time>
      </trkpt>
      <trkpt lat="43.62046" lon="3.09819">
        <ele>283.1</ele>
        <time>2026-05-20T06:04:45Z</time>
      </trkpt>
      <trkpt lat="43.62046" lon="3.09819">
        <ele>283.1</ele>
        <time>2026-05-20T06:04:50Z</time>
      </trkpt>
      <trkpt lat="43.62046" lon="3.09819">
        <ele>283.1</ele>
        <time>2026-05-20T06:04:55Z</time>
      </trkpt>
      <trkpt lat="43.62046" lon="3.09819">
        <ele>283.1</ele>
        <time>2026-05-20T06:05:00Z</time>
      </trkpt>
      <trkpt lat="43.62046" lon="3.09819">
        <ele>283.1</ele>
        <time>2026-05-20T06:05:05Z</time>
      </trkpt>
      <trkpt lat="43.62039" lon="3.09823">
        <ele>283.1</ele>
        <time>2026-05-20T06:05:10Z</time>
      </trkpt>
      <trkpt lat="43.62034" lon="3.09826">
        <ele>283</ele>
        <time>2026-05-20T06:05:15Z</time>
      </trkpt>
      <trkpt lat="43.62028" lon="3.09829">
        <ele>283</ele>
        <time>2026-05-20T06:05:20Z</time>
      </trkpt>
      <trkpt lat="43.62021" lon="3.09831">
        <ele>283.1</ele>
        <time>2026-05-20T06:05:25Z</time>
      </trkpt>
      <trkpt lat="43.62014" lon="3.09834">
        <ele>283.1</ele>
        <time>2026-05-20T06:05:30Z</time>
      </trkpt>
      <trkpt lat="43.62007" lon="3.09837">
        <ele>283.3</ele>
        <time>2026-05-20T06:05:35Z</time>
      </trkpt>
      <trkpt lat="43.62002" lon="3.09842">
        <ele>283.1</ele>
        <time>2026-05-20T06:05:40Z</time>
      </trkpt>
      <trkpt lat="43.61996" lon="3.09849">
        <ele>282.4</ele>
        <time>2026-05-20T06:05:45Z</time>
      </trkpt>
      <trkpt lat="43.61993" lon="3.09857">
        <ele>281.6</ele>
        <time>2026-05-20T06:05:50Z</time>
      </trkpt>
      <trkpt lat="43.6199" lon="3.0986">
        <ele>281.2</ele>
        <time>2026-05-20T06:05:55Z</time>
      </trkpt>
      <trkpt lat="43.61985" lon="3.09865">
        <ele>280.5</ele>
        <time>2026-05-20T06:06:00Z</time>
      </trkpt>
      <trkpt lat="43.61979" lon="3.09871">
        <ele>279.6</ele>
        <time>2026-05-20T06:06:05Z</time>
      </trkpt>
      <trkpt lat="43.61972" lon="3.09876">
        <ele>278.7</ele>
        <time>2026-05-20T06:06:10Z</time>
      </trkpt>
      <trkpt lat="43.61965" lon="3.0988">
        <ele>277.9</ele>
        <time>2026-05-20T06:06:15Z</time>
      </trkpt>
      <trkpt lat="43.6196" lon="3.09884">
        <ele>277.1</ele>
        <time>2026-05-20T06:06:20Z</time>
      </trkpt>
      <trkpt lat="43.61955" lon="3.09887">
        <ele>276.4</ele>
        <time>2026-05-20T06:06:25Z</time>
      </trkpt>
      <trkpt lat="43.61949" lon="3.09889">
        <ele>275.8</ele>
        <time>2026-05-20T06:06:30Z</time>
      </trkpt>
      <trkpt lat="43.61942" lon="3.0989">
        <ele>275.2</ele>
        <time>2026-05-20T06:06:35Z</time>
      </trkpt>
      <trkpt lat="43.61938" lon="3.0989">
        <ele>275</ele>
        <time>2026-05-20T06:06:40Z</time>
      </trkpt>
      <trkpt lat="43.61934" lon="3.09889">
        <ele>275</ele>
        <time>2026-05-20T06:06:45Z</time>
      </trkpt>
      <trkpt lat="43.61929" lon="3.09892">
        <ele>274.2</ele>
        <time>2026-05-20T06:06:50Z</time>
      </trkpt>
      <trkpt lat="43.61924" lon="3.09898">
        <ele>272.8</ele>
        <time>2026-05-20T06:06:55Z</time>
      </trkpt>
      <trkpt lat="43.61919" lon="3.09905">
        <ele>271.3</ele>
        <time>2026-05-20T06:07:00Z</time>
      </trkpt>
      <trkpt lat="43.61914" lon="3.09913">
        <ele>269.6</ele>
        <time>2026-05-20T06:07:05Z</time>
      </trkpt>
      <trkpt lat="43.6191" lon="3.0992">
        <ele>268.8</ele>
        <time>2026-05-20T06:07:10Z</time>
      </trkpt>
      <trkpt lat="43.61905" lon="3.09928">
        <ele>268.7</ele>
        <time>2026-05-20T06:07:15Z</time>
      </trkpt>
      <trkpt lat="43.61902" lon="3.09935">
        <ele>268.7</ele>
        <time>2026-05-20T06:07:20Z</time>
      </trkpt>
      <trkpt lat="43.61896" lon="3.09941">
        <ele>268.6</ele>
        <time>2026-05-20T06:07:25Z</time>
      </trkpt>
      <trkpt lat="43.6189" lon="3.09948">
        <ele>268.5</ele>
        <time>2026-05-20T06:07:30Z</time>
      </trkpt>
      <trkpt lat="43.61885" lon="3.09955">
        <ele>268.5</ele>
        <time>2026-05-20T06:07:35Z</time>
      </trkpt>
      <trkpt lat="43.6188" lon="3.0996">
        <ele>268.4</ele>
        <time>2026-05-20T06:07:40Z</time>
      </trkpt>
      <trkpt lat="43.61876" lon="3.09956">
        <ele>268.2</ele>
        <time>2026-05-20T06:07:45Z</time>
      </trkpt>
      <trkpt lat="43.61871" lon="3.09951">
        <ele>268</ele>
        <time>2026-05-20T06:07:50Z</time>
      </trkpt>
      <trkpt lat="43.61867" lon="3.09946">
        <ele>267.8</ele>
        <time>2026-05-20T06:07:55Z</time>
      </trkpt>
      <trkpt lat="43.61861" lon="3.09946">
        <ele>267.6</ele>
        <time>2026-05-20T06:08:00Z</time>
      </trkpt>
      <trkpt lat="43.61856" lon="3.09944">
        <ele>267.4</ele>
        <time>2026-05-20T06:08:05Z</time>
      </trkpt>
      <trkpt lat="43.6185" lon="3.09944">
        <ele>267.2</ele>
        <time>2026-05-20T06:08:10Z</time>
      </trkpt>
      <trkpt lat="43.61844" lon="3.09943">
        <ele>267</ele>
        <time>2026-05-20T06:08:15Z</time>
      </trkpt>
      <trkpt lat="43.61837" lon="3.09942">
        <ele>266.7</ele>
        <time>2026-05-20T06:08:20Z</time>
      </trkpt>
      <trkpt lat="43.6183" lon="3.09941">
        <ele>266.5</ele>
        <time>2026-05-20T06:08:25Z</time>
      </trkpt>
      <trkpt lat="43.61822" lon="3.09939">
        <ele>266.1</ele>
        <time>2026-05-20T06:08:30Z</time>
      </trkpt>
      <trkpt lat="43.61815" lon="3.09937">
        <ele>265.7</ele>
        <time>2026-05-20T06:08:35Z</time>
      </trkpt>
      <trkpt lat="43.61808" lon="3.09936">
        <ele>265.4</ele>
        <time>2026-05-20T06:08:40Z</time>
      </trkpt>
      <trkpt lat="43.618" lon="3.09934">
        <ele>264.9</ele>
        <time>2026-05-20T06:08:45Z</time>
      </trkpt>
      <trkpt lat="43.61793" lon="3.09934">
        <ele>264.6</ele>
        <time>2026-05-20T06:08:50Z</time>
      </trkpt>
      <trkpt lat="43.61787" lon="3.09936">
        <ele>264.5</ele>
        <time>2026-05-20T06:08:55Z</time>
      </trkpt>
      <trkpt lat="43.61779" lon="3.09938">
        <ele>264.3</ele>
        <time>2026-05-20T06:09:00Z</time>
      </trkpt>
      <trkpt lat="43.61771" lon="3.0994">
        <ele>264.1</ele>
        <time>2026-05-20T06:09:05Z</time>
      </trkpt>
      <trkpt lat="43.61763" lon="3.0994">
        <ele>263.8</ele>
        <time>2026-05-20T06:09:10Z</time>
      </trkpt>
      <trkpt lat="43.61757" lon="3.09938">
        <ele>263.3</ele>
        <time>2026-05-20T06:09:15Z</time>
      </trkpt>
      <trkpt lat="43.61751" lon="3.09938">
        <ele>263.1</ele>
        <time>2026-05-20T06:09:20Z</time>
      </trkpt>
      <trkpt lat="43.61745" lon="3.09933">
        <ele>262.4</ele>
        <time>2026-05-20T06:09:25Z</time>
      </trkpt>
      <trkpt lat="43.6174" lon="3.09925">
        <ele>261.5</ele>
        <time>2026-05-20T06:09:30Z</time>
      </trkpt>
      <trkpt lat="43.61737" lon="3.09916">
        <ele>260.6</ele>
        <time>2026-05-20T06:09:35Z</time>
      </trkpt>
      <trkpt lat="43.61732" lon="3.09909">
        <ele>260.9</ele>
        <time>2026-05-20T06:09:40Z</time>
      </trkpt>
      <trkpt lat="43.61729" lon="3.09903">
        <ele>261.3</ele>
        <time>2026-05-20T06:09:45Z</time>
      </trkpt>
      <trkpt lat="43.61723" lon="3.09894">
        <ele>261.7</ele>
        <time>2026-05-20T06:09:50Z</time>
      </trkpt>
      <trkpt lat="43.61719" lon="3.09887">
        <ele>262</ele>
        <time>2026-05-20T06:09:55Z</time>
      </trkpt>
      <trkpt lat="43.61714" lon="3.0988">
        <ele>262.2</ele>
        <time>2026-05-20T06:10:00Z</time>
      </trkpt>
      <trkpt lat="43.61711" lon="3.09875">
        <ele>262.4</ele>
        <time>2026-05-20T06:10:05Z</time>
      </trkpt>
      <trkpt lat="43.61704" lon="3.0987">
        <ele>262.3</ele>
        <time>2026-05-20T06:10:10Z</time>
      </trkpt>
      <trkpt lat="43.61699" lon="3.09867">
        <ele>262.2</ele>
        <time>2026-05-20T06:10:15Z</time>
      </trkpt>
      <trkpt lat="43.61693" lon="3.09863">
        <ele>262.1</ele>
        <time>2026-05-20T06:10:20Z</time>
      </trkpt>
      <trkpt lat="43.61687" lon="3.09859">
        <ele>262</ele>
        <time>2026-05-20T06:10:25Z</time>
      </trkpt>
      <trkpt lat="43.61682" lon="3.09856">
        <ele>261.9</ele>
        <time>2026-05-20T06:10:30Z</time>
      </trkpt>
      <trkpt lat="43.61675" lon="3.09852">
        <ele>261.6</ele>
        <time>2026-05-20T06:10:35Z</time>
      </trkpt>
      <trkpt lat="43.61669" lon="3.09849">
        <ele>261.4</ele>
        <time>2026-05-20T06:10:40Z</time>
      </trkpt>
      <trkpt lat="43.61661" lon="3.09846">
        <ele>261.1</ele>
        <time>2026-05-20T06:10:45Z</time>
      </trkpt>
      <trkpt lat="43.61655" lon="3.09841">
        <ele>261</ele>
        <time>2026-05-20T06:10:50Z</time>
      </trkpt>
      <trkpt lat="43.61647" lon="3.09836">
        <ele>260.8</ele>
        <time>2026-05-20T06:10:55Z</time>
      </trkpt>
      <trkpt lat="43.61642" lon="3.09828">
        <ele>261.1</ele>
        <time>2026-05-20T06:11:00Z</time>
      </trkpt>
      <trkpt lat="43.61637" lon="3.09821">
        <ele>261.5</ele>
        <time>2026-05-20T06:11:05Z</time>
      </trkpt>
      <trkpt lat="43.61632" lon="3.09815">
        <ele>261.8</ele>
        <time>2026-05-20T06:11:10Z</time>
      </trkpt>
      <trkpt lat="43.61626" lon="3.09813">
        <ele>261.5</ele>
        <time>2026-05-20T06:11:15Z</time>
      </trkpt>
      <trkpt lat="43.61621" lon="3.09811">
        <ele>261.4</ele>
        <time>2026-05-20T06:11:20Z</time>
      </trkpt>
      <trkpt lat="43.61616" lon="3.09809">
        <ele>261.2</ele>
        <time>2026-05-20T06:11:25Z</time>
      </trkpt>
      <trkpt lat="43.61612" lon="3.09808">
        <ele>261</ele>
        <time>2026-05-20T06:11:30Z</time>
      </trkpt>
      <trkpt lat="43.61608" lon="3.09805">
        <ele>260.9</ele>
        <time>2026-05-20T06:11:35Z</time>
      </trkpt>
      <trkpt lat="43.61602" lon="3.09803">
        <ele>260.6</ele>
        <time>2026-05-20T06:11:40Z</time>
      </trkpt>
      <trkpt lat="43.61593" lon="3.09803">
        <ele>259.9</ele>
        <time>2026-05-20T06:11:45Z</time>
      </trkpt>
      <trkpt lat="43.6158" lon="3.09801">
        <ele>259.1</ele>
        <time>2026-05-20T06:11:50Z</time>
      </trkpt>
      <trkpt lat="43.61573" lon="3.09795">
        <ele>259.1</ele>
        <time>2026-05-20T06:11:55Z</time>
      </trkpt>
      <trkpt lat="43.61568" lon="3.09788">
        <ele>259.4</ele>
        <time>2026-05-20T06:12:00Z</time>
      </trkpt>
      <trkpt lat="43.61565" lon="3.09779">
        <ele>259.9</ele>
        <time>2026-05-20T06:12:05Z</time>
      </trkpt>
      <trkpt lat="43.61562" lon="3.09771">
        <ele>260.5</ele>
        <time>2026-05-20T06:12:10Z</time>
      </trkpt>
      <trkpt lat="43.61564" lon="3.09768">
        <ele>260.8</ele>
        <time>2026-05-20T06:12:15Z</time>
      </trkpt>
      <trkpt lat="43.61564" lon="3.09768">
        <ele>260.8</ele>
        <time>2026-05-20T06:12:20Z</time>
      </trkpt>
      <trkpt lat="43.61564" lon="3.09768">
        <ele>260.8</ele>
        <time>2026-05-20T06:12:25Z</time>
      </trkpt>
      <trkpt lat="43.61564" lon="3.09768">
        <ele>260.8</ele>
        <time>2026-05-20T06:12:30Z</time>
      </trkpt>
      <trkpt lat="43.61561" lon="3.09761">
        <ele>261.3</ele>
        <time>2026-05-20T06:12:35Z</time>
      </trkpt>
      <trkpt lat="43.61557" lon="3.09755">
        <ele>261.6</ele>
        <time>2026-05-20T06:12:40Z</time>
      </trkpt>
      <trkpt lat="43.61552" lon="3.0975">
        <ele>261.9</ele>
        <time>2026-05-20T06:12:45Z</time>
      </trkpt>
      <trkpt lat="43.61545" lon="3.09746">
        <ele>262.1</ele>
        <time>2026-05-20T06:12:50Z</time>
      </trkpt>
      <trkpt lat="43.61537" lon="3.09743">
        <ele>262.1</ele>
        <time>2026-05-20T06:12:55Z</time>
      </trkpt>
      <trkpt lat="43.61531" lon="3.09738">
        <ele>262.4</ele>
        <time>2026-05-20T06:13:00Z</time>
      </trkpt>
      <trkpt lat="43.61524" lon="3.09736">
        <ele>262.4</ele>
        <time>2026-05-20T06:13:05Z</time>
      </trkpt>
      <trkpt lat="43.61518" lon="3.09732">
        <ele>262.6</ele>
        <time>2026-05-20T06:13:10Z</time>
      </trkpt>
      <trkpt lat="43.61512" lon="3.0973">
        <ele>262.6</ele>
        <time>2026-05-20T06:13:15Z</time>
      </trkpt>
      <trkpt lat="43.61506" lon="3.09727">
        <ele>262.7</ele>
        <time>2026-05-20T06:13:20Z</time>
      </trkpt>
      <trkpt lat="43.615" lon="3.09722">
        <ele>263</ele>
        <time>2026-05-20T06:13:25Z</time>
      </trkpt>
      <trkpt lat="43.61494" lon="3.09718">
        <ele>262.8</ele>
        <time>2026-05-20T06:13:30Z</time>
      </trkpt>
      <trkpt lat="43.61489" lon="3.09711">
        <ele>263</ele>
        <time>2026-05-20T06:13:35Z</time>
      </trkpt>
      <trkpt lat="43.61483" lon="3.09706">
        <ele>262.9</ele>
        <time>2026-05-20T06:13:40Z</time>
      </trkpt>
      <trkpt lat="43.61478" lon="3.09701">
        <ele>262.9</ele>
        <time>2026-05-20T06:13:45Z</time>
      </trkpt>
      <trkpt lat="43.61473" lon="3.09695">
        <ele>263</ele>
        <time>2026-05-20T06:13:50Z</time>
      </trkpt>
      <trkpt lat="43.61468" lon="3.09691">
        <ele>262.9</ele>
        <time>2026-05-20T06:13:55Z</time>
      </trkpt>
      <trkpt lat="43.61463" lon="3.09686">
        <ele>262.9</ele>
        <time>2026-05-20T06:14:00Z</time>
      </trkpt>
      <trkpt lat="43.61458" lon="3.09682">
        <ele>262.8</ele>
        <time>2026-05-20T06:14:05Z</time>
      </trkpt>
      <trkpt lat="43.61451" lon="3.09682">
        <ele>262.1</ele>
        <time>2026-05-20T06:14:10Z</time>
      </trkpt>
      <trkpt lat="43.61443" lon="3.09681">
        <ele>261.3</ele>
        <time>2026-05-20T06:14:15Z</time>
      </trkpt>
      <trkpt lat="43.61437" lon="3.09682">
        <ele>260.5</ele>
        <time>2026-05-20T06:14:20Z</time>
      </trkpt>
      <trkpt lat="43.61429" lon="3.09683">
        <ele>259.6</ele>
        <time>2026-05-20T06:14:25Z</time>
      </trkpt>
      <trkpt lat="43.61422" lon="3.09684">
        <ele>258.7</ele>
        <time>2026-05-20T06:14:30Z</time>
      </trkpt>
      <trkpt lat="43.61415" lon="3.09683">
        <ele>258.2</ele>
        <time>2026-05-20T06:14:35Z</time>
      </trkpt>
      <trkpt lat="43.61409" lon="3.09682">
        <ele>258.1</ele>
        <time>2026-05-20T06:14:40Z</time>
      </trkpt>
      <trkpt lat="43.61403" lon="3.0968">
        <ele>258.1</ele>
        <time>2026-05-20T06:14:45Z</time>
      </trkpt>
      <trkpt lat="43.61397" lon="3.09676">
        <ele>258.4</ele>
        <time>2026-05-20T06:14:50Z</time>
      </trkpt>
      <trkpt lat="43.61393" lon="3.0967">
        <ele>258.8</ele>
        <time>2026-05-20T06:14:55Z</time>
      </trkpt>
      <trkpt lat="43.61392" lon="3.09662">
        <ele>259.8</ele>
        <time>2026-05-20T06:15:00Z</time>
      </trkpt>
      <trkpt lat="43.61391" lon="3.09655">
        <ele>260.9</ele>
        <time>2026-05-20T06:15:05Z</time>
      </trkpt>
      <trkpt lat="43.61393" lon="3.09647">
        <ele>262.2</ele>
        <time>2026-05-20T06:15:10Z</time>
      </trkpt>
      <trkpt lat="43.61397" lon="3.09641">
        <ele>263.3</ele>
        <time>2026-05-20T06:15:15Z</time>
      </trkpt>
      <trkpt lat="43.614" lon="3.09634">
        <ele>264.6</ele>
        <time>2026-05-20T06:15:20Z</time>
      </trkpt>
      <trkpt lat="43.61403" lon="3.09627">
        <ele>265.9</ele>
        <time>2026-05-20T06:15:25Z</time>
      </trkpt>
      <trkpt lat="43.61405" lon="3.0962">
        <ele>267.1</ele>
        <time>2026-05-20T06:15:30Z</time>
      </trkpt>
      <trkpt lat="43.61407" lon="3.09612">
        <ele>268.5</ele>
        <time>2026-05-20T06:15:35Z</time>
      </trkpt>
      <trkpt lat="43.61407" lon="3.09602">
        <ele>270.2</ele>
        <time>2026-05-20T06:15:40Z</time>
      </trkpt>
      <trkpt lat="43.61406" lon="3.09593">
        <ele>271.5</ele>
        <time>2026-05-20T06:15:45Z</time>
      </trkpt>
      <trkpt lat="43.61402" lon="3.09585">
        <ele>272.5</ele>
        <time>2026-05-20T06:15:50Z</time>
      </trkpt>
      <trkpt lat="43.61397" lon="3.09578">
        <ele>273.2</ele>
        <time>2026-05-20T06:15:55Z</time>
      </trkpt>
      <trkpt lat="43.61392" lon="3.09575">
        <ele>273.2</ele>
        <time>2026-05-20T06:16:00Z</time>
      </trkpt>
      <trkpt lat="43.61387" lon="3.09573">
        <ele>273.1</ele>
        <time>2026-05-20T06:16:05Z</time>
      </trkpt>
      <trkpt lat="43.61382" lon="3.09568">
        <ele>273.4</ele>
        <time>2026-05-20T06:16:10Z</time>
      </trkpt>
      <trkpt lat="43.61376" lon="3.09565">
        <ele>273.2</ele>
        <time>2026-05-20T06:16:15Z</time>
      </trkpt>
      <trkpt lat="43.6137" lon="3.09562">
        <ele>273.1</ele>
        <time>2026-05-20T06:16:20Z</time>
      </trkpt>
      <trkpt lat="43.61365" lon="3.09558">
        <ele>273.2</ele>
        <time>2026-05-20T06:16:25Z</time>
      </trkpt>
      <trkpt lat="43.61359" lon="3.09554">
        <ele>273.1</ele>
        <time>2026-05-20T06:16:30Z</time>
      </trkpt>
      <trkpt lat="43.61354" lon="3.0955">
        <ele>273.1</ele>
        <time>2026-05-20T06:16:35Z</time>
      </trkpt>
      <trkpt lat="43.61348" lon="3.09547">
        <ele>272.9</ele>
        <time>2026-05-20T06:16:40Z</time>
      </trkpt>
      <trkpt lat="43.61342" lon="3.09542">
        <ele>272.9</ele>
        <time>2026-05-20T06:16:45Z</time>
      </trkpt>
      <trkpt lat="43.61338" lon="3.09537">
        <ele>273.1</ele>
        <time>2026-05-20T06:16:50Z</time>
      </trkpt>
      <trkpt lat="43.61332" lon="3.09531">
        <ele>273.4</ele>
        <time>2026-05-20T06:16:55Z</time>
      </trkpt>
      <trkpt lat="43.61326" lon="3.09526">
        <ele>274.4</ele>
        <time>2026-05-20T06:17:00Z</time>
      </trkpt>
      <trkpt lat="43.61321" lon="3.09521">
        <ele>275.3</ele>
        <time>2026-05-20T06:17:05Z</time>
      </trkpt>
      <trkpt lat="43.61317" lon="3.09516">
        <ele>276.1</ele>
        <time>2026-05-20T06:17:10Z</time>
      </trkpt>
      <trkpt lat="43.61315" lon="3.09514">
        <ele>276.5</ele>
        <time>2026-05-20T06:17:15Z</time>
      </trkpt>
      <trkpt lat="43.61315" lon="3.09514">
        <ele>276.5</ele>
        <time>2026-05-20T06:17:20Z</time>
      </trkpt>
      <trkpt lat="43.61312" lon="3.09511">
        <ele>277</ele>
        <time>2026-05-20T06:17:25Z</time>
      </trkpt>
      <trkpt lat="43.61307" lon="3.09504">
        <ele>278.1</ele>
        <time>2026-05-20T06:17:30Z</time>
      </trkpt>
      <trkpt lat="43.61301" lon="3.09499">
        <ele>279.1</ele>
        <time>2026-05-20T06:17:35Z</time>
      </trkpt>
      <trkpt lat="43.61297" lon="3.09493">
        <ele>280</ele>
        <time>2026-05-20T06:17:40Z</time>
      </trkpt>
      <trkpt lat="43.61293" lon="3.09487">
        <ele>281</ele>
        <time>2026-05-20T06:17:45Z</time>
      </trkpt>
      <trkpt lat="43.61289" lon="3.09479">
        <ele>282.3</ele>
        <time>2026-05-20T06:17:50Z</time>
      </trkpt>
      <trkpt lat="43.61287" lon="3.09471">
        <ele>283.5</ele>
        <time>2026-05-20T06:17:55Z</time>
      </trkpt>
      <trkpt lat="43.61285" lon="3.09463">
        <ele>284.7</ele>
        <time>2026-05-20T06:18:00Z</time>
      </trkpt>
      <trkpt lat="43.61284" lon="3.09454">
        <ele>286</ele>
        <time>2026-05-20T06:18:05Z</time>
      </trkpt>
      <trkpt lat="43.61282" lon="3.09445">
        <ele>287.4</ele>
        <time>2026-05-20T06:18:10Z</time>
      </trkpt>
      <trkpt lat="43.6128" lon="3.09435">
        <ele>288.9</ele>
        <time>2026-05-20T06:18:15Z</time>
      </trkpt>
      <trkpt lat="43.61277" lon="3.09427">
        <ele>290.3</ele>
        <time>2026-05-20T06:18:20Z</time>
      </trkpt>
      <trkpt lat="43.61273" lon="3.09419">
        <ele>291.9</ele>
        <time>2026-05-20T06:18:25Z</time>
      </trkpt>
      <trkpt lat="43.61269" lon="3.09413">
        <ele>292.9</ele>
        <time>2026-05-20T06:18:30Z</time>
      </trkpt>
      <trkpt lat="43.61263" lon="3.09407">
        <ele>293.9</ele>
        <time>2026-05-20T06:18:35Z</time>
      </trkpt>
      <trkpt lat="43.61257" lon="3.09402">
        <ele>294.8</ele>
        <time>2026-05-20T06:18:40Z</time>
      </trkpt>
      <trkpt lat="43.61251" lon="3.09399">
        <ele>295.5</ele>
        <time>2026-05-20T06:18:45Z</time>
      </trkpt>
      <trkpt lat="43.61244" lon="3.09398">
        <ele>296.6</ele>
        <time>2026-05-20T06:18:50Z</time>
      </trkpt>
      <trkpt lat="43.61236" lon="3.09397">
        <ele>298</ele>
        <time>2026-05-20T06:18:55Z</time>
      </trkpt>
      <trkpt lat="43.6123" lon="3.09395">
        <ele>298.9</ele>
        <time>2026-05-20T06:19:00Z</time>
      </trkpt>
      <trkpt lat="43.61224" lon="3.09392">
        <ele>299.9</ele>
        <time>2026-05-20T06:19:05Z</time>
      </trkpt>
      <trkpt lat="43.61216" lon="3.09391">
        <ele>301.2</ele>
        <time>2026-05-20T06:19:10Z</time>
      </trkpt>
      <trkpt lat="43.61209" lon="3.09389">
        <ele>302.2</ele>
        <time>2026-05-20T06:19:15Z</time>
      </trkpt>
      <trkpt lat="43.61202" lon="3.09387">
        <ele>303.3</ele>
        <time>2026-05-20T06:19:20Z</time>
      </trkpt>
      <trkpt lat="43.61195" lon="3.09389">
        <ele>304.4</ele>
        <time>2026-05-20T06:19:25Z</time>
      </trkpt>
      <trkpt lat="43.61189" lon="3.09394">
        <ele>305.4</ele>
        <time>2026-05-20T06:19:30Z</time>
      </trkpt>
      <trkpt lat="43.61184" lon="3.09401">
        <ele>306.4</ele>
        <time>2026-05-20T06:19:35Z</time>
      </trkpt>
      <trkpt lat="43.61179" lon="3.09407">
        <ele>307.4</ele>
        <time>2026-05-20T06:19:40Z</time>
      </trkpt>
      <trkpt lat="43.61175" lon="3.09416">
        <ele>308.5</ele>
        <time>2026-05-20T06:19:45Z</time>
      </trkpt>
      <trkpt lat="43.61171" lon="3.09423">
        <ele>308.7</ele>
        <time>2026-05-20T06:19:50Z</time>
      </trkpt>
      <trkpt lat="43.61167" lon="3.0943">
        <ele>308.8</ele>
        <time>2026-05-20T06:19:55Z</time>
      </trkpt>
      <trkpt lat="43.61162" lon="3.09436">
        <ele>308.6</ele>
        <time>2026-05-20T06:20:00Z</time>
      </trkpt>
      <trkpt lat="43.61157" lon="3.09444">
        <ele>308.4</ele>
        <time>2026-05-20T06:20:05Z</time>
      </trkpt>
      <trkpt lat="43.61153" lon="3.09451">
        <ele>308.3</ele>
        <time>2026-05-20T06:20:10Z</time>
      </trkpt>
      <trkpt lat="43.61149" lon="3.09458">
        <ele>308.2</ele>
        <time>2026-05-20T06:20:15Z</time>
      </trkpt>
      <trkpt lat="43.61144" lon="3.09465">
        <ele>308.4</ele>
        <time>2026-05-20T06:20:20Z</time>
      </trkpt>
      <trkpt lat="43.6114" lon="3.09472">
        <ele>308.5</ele>
        <time>2026-05-20T06:20:25Z</time>
      </trkpt>
      <trkpt lat="43.61137" lon="3.09479">
        <ele>308.7</ele>
        <time>2026-05-20T06:20:30Z</time>
      </trkpt>
      <trkpt lat="43.61133" lon="3.09486">
        <ele>309</ele>
        <time>2026-05-20T06:20:35Z</time>
      </trkpt>
      <trkpt lat="43.61129" lon="3.09495">
        <ele>309.4</ele>
        <time>2026-05-20T06:20:40Z</time>
      </trkpt>
      <trkpt lat="43.61125" lon="3.09502">
        <ele>309.9</ele>
        <time>2026-05-20T06:20:45Z</time>
      </trkpt>
      <trkpt lat="43.61122" lon="3.09508">
        <ele>310.1</ele>
        <time>2026-05-20T06:20:50Z</time>
      </trkpt>
      <trkpt lat="43.6112" lon="3.09513">
        <ele>310.2</ele>
        <time>2026-05-20T06:20:55Z</time>
      </trkpt>
      <trkpt lat="43.61119" lon="3.09518">
        <ele>310.1</ele>
        <time>2026-05-20T06:21:00Z</time>
      </trkpt>
      <trkpt lat="43.61116" lon="3.09522">
        <ele>310.5</ele>
        <time>2026-05-20T06:21:05Z</time>
      </trkpt>
      <trkpt lat="43.61114" lon="3.09526">
        <ele>310.6</ele>
        <time>2026-05-20T06:21:10Z</time>
      </trkpt>
      <trkpt lat="43.61113" lon="3.09523">
        <ele>311</ele>
        <time>2026-05-20T06:21:15Z</time>
      </trkpt>
      <trkpt lat="43.61113" lon="3.09516">
        <ele>311.3</ele>
        <time>2026-05-20T06:21:20Z</time>
      </trkpt>
      <trkpt lat="43.61114" lon="3.09507">
        <ele>311.5</ele>
        <time>2026-05-20T06:21:25Z</time>
      </trkpt>
      <trkpt lat="43.61111" lon="3.095">
        <ele>312.4</ele>
        <time>2026-05-20T06:21:30Z</time>
      </trkpt>
      <trkpt lat="43.61113" lon="3.09491">
        <ele>311.9</ele>
        <time>2026-05-20T06:21:35Z</time>
      </trkpt>
      <trkpt lat="43.61117" lon="3.09483">
        <ele>311.3</ele>
        <time>2026-05-20T06:21:40Z</time>
      </trkpt>
      <trkpt lat="43.6112" lon="3.09476">
        <ele>310.9</ele>
        <time>2026-05-20T06:21:45Z</time>
      </trkpt>
      <trkpt lat="43.61123" lon="3.09467">
        <ele>310.6</ele>
        <time>2026-05-20T06:21:50Z</time>
      </trkpt>
      <trkpt lat="43.61124" lon="3.0946">
        <ele>310.6</ele>
        <time>2026-05-20T06:21:55Z</time>
      </trkpt>
      <trkpt lat="43.61119" lon="3.09462">
        <ele>311.1</ele>
        <time>2026-05-20T06:22:00Z</time>
      </trkpt>
      <trkpt lat="43.61115" lon="3.09469">
        <ele>311.5</ele>
        <time>2026-05-20T06:22:05Z</time>
      </trkpt>
      <trkpt lat="43.61111" lon="3.09476">
        <ele>312.1</ele>
        <time>2026-05-20T06:22:10Z</time>
      </trkpt>
      <trkpt lat="43.61107" lon="3.09483">
        <ele>312.7</ele>
        <time>2026-05-20T06:22:15Z</time>
      </trkpt>
      <trkpt lat="43.61103" lon="3.0949">
        <ele>313.4</ele>
        <time>2026-05-20T06:22:20Z</time>
      </trkpt>
      <trkpt lat="43.611" lon="3.09495">
        <ele>314</ele>
        <time>2026-05-20T06:22:25Z</time>
      </trkpt>
      <trkpt lat="43.61097" lon="3.09501">
        <ele>314.7</ele>
        <time>2026-05-20T06:22:30Z</time>
      </trkpt>
      <trkpt lat="43.61094" lon="3.09508">
        <ele>315</ele>
        <time>2026-05-20T06:22:35Z</time>
      </trkpt>
      <trkpt lat="43.61091" lon="3.09515">
        <ele>315.3</ele>
        <time>2026-05-20T06:22:40Z</time>
      </trkpt>
      <trkpt lat="43.61088" lon="3.09519">
        <ele>315.7</ele>
        <time>2026-05-20T06:22:45Z</time>
      </trkpt>
      <trkpt lat="43.61084" lon="3.09525">
        <ele>316.3</ele>
        <time>2026-05-20T06:22:50Z</time>
      </trkpt>
      <trkpt lat="43.6108" lon="3.09531">
        <ele>317</ele>
        <time>2026-05-20T06:22:55Z</time>
      </trkpt>
      <trkpt lat="43.61077" lon="3.09538">
        <ele>317.5</ele>
        <time>2026-05-20T06:23:00Z</time>
      </trkpt>
      <trkpt lat="43.61075" lon="3.09539">
        <ele>317.9</ele>
        <time>2026-05-20T06:23:05Z</time>
      </trkpt>
      <trkpt lat="43.61074" lon="3.09542">
        <ele>318.1</ele>
        <time>2026-05-20T06:23:10Z</time>
      </trkpt>
      <trkpt lat="43.61071" lon="3.09547">
        <ele>318.5</ele>
        <time>2026-05-20T06:23:15Z</time>
      </trkpt>
      <trkpt lat="43.61068" lon="3.09552">
        <ele>319</ele>
        <time>2026-05-20T06:23:20Z</time>
      </trkpt>
      <trkpt lat="43.61066" lon="3.09555">
        <ele>319.2</ele>
        <time>2026-05-20T06:23:25Z</time>
      </trkpt>
      <trkpt lat="43.61066" lon="3.09556">
        <ele>319.2</ele>
        <time>2026-05-20T06:23:30Z</time>
      </trkpt>
      <trkpt lat="43.61066" lon="3.09556">
        <ele>319.2</ele>
        <time>2026-05-20T06:23:35Z</time>
      </trkpt>
      <trkpt lat="43.61066" lon="3.09556">
        <ele>319.2</ele>
        <time>2026-05-20T06:23:40Z</time>
      </trkpt>
      <trkpt lat="43.61066" lon="3.09556">
        <ele>319.2</ele>
        <time>2026-05-20T06:23:45Z</time>
      </trkpt>
      <trkpt lat="43.61066" lon="3.09556">
        <ele>319.2</ele>
        <time>2026-05-20T06:23:50Z</time>
      </trkpt>
      <trkpt lat="43.61063" lon="3.09563">
        <ele>319.4</ele>
        <time>2026-05-20T06:23:55Z</time>
      </trkpt>
      <trkpt lat="43.61058" lon="3.0957">
        <ele>320</ele>
        <time>2026-05-20T06:24:00Z</time>
      </trkpt>
      <trkpt lat="43.61053" lon="3.09577">
        <ele>320.5</ele>
        <time>2026-05-20T06:24:05Z</time>
      </trkpt>
      <trkpt lat="43.61048" lon="3.09584">
        <ele>320.8</ele>
        <time>2026-05-20T06:24:10Z</time>
      </trkpt>
      <trkpt lat="43.61043" lon="3.09589">
        <ele>320.9</ele>
        <time>2026-05-20T06:24:15Z</time>
      </trkpt>
      <trkpt lat="43.6104" lon="3.09596">
        <ele>320.2</ele>
        <time>2026-05-20T06:24:20Z</time>
      </trkpt>
      <trkpt lat="43.61035" lon="3.09603">
        <ele>319.8</ele>
        <time>2026-05-20T06:24:25Z</time>
      </trkpt>
      <trkpt lat="43.61031" lon="3.09611">
        <ele>319.1</ele>
        <time>2026-05-20T06:24:30Z</time>
      </trkpt>
      <trkpt lat="43.61029" lon="3.09619">
        <ele>318</ele>
        <time>2026-05-20T06:24:35Z</time>
      </trkpt>
      <trkpt lat="43.61025" lon="3.09629">
        <ele>316.9</ele>
        <time>2026-05-20T06:24:40Z</time>
      </trkpt>
      <trkpt lat="43.61023" lon="3.09639">
        <ele>315.4</ele>
        <time>2026-05-20T06:24:45Z</time>
      </trkpt>
      <trkpt lat="43.61019" lon="3.09648">
        <ele>314.3</ele>
        <time>2026-05-20T06:24:50Z</time>
      </trkpt>
      <trkpt lat="43.61014" lon="3.09655">
        <ele>313.6</ele>
        <time>2026-05-20T06:24:55Z</time>
      </trkpt>
      <trkpt lat="43.61009" lon="3.09663">
        <ele>312.7</ele>
        <time>2026-05-20T06:25:00Z</time>
      </trkpt>
      <trkpt lat="43.61004" lon="3.0967">
        <ele>312.1</ele>
        <time>2026-05-20T06:25:05Z</time>
      </trkpt>
      <trkpt lat="43.60999" lon="3.09678">
        <ele>311.4</ele>
        <time>2026-05-20T06:25:10Z</time>
      </trkpt>
      <trkpt lat="43.60994" lon="3.09684">
        <ele>311.1</ele>
        <time>2026-05-20T06:25:15Z</time>
      </trkpt>
      <trkpt lat="43.6099" lon="3.0969">
        <ele>310.6</ele>
        <time>2026-05-20T06:25:20Z</time>
      </trkpt>
      <trkpt lat="43.60986" lon="3.09698">
        <ele>309.7</ele>
        <time>2026-05-20T06:25:25Z</time>
      </trkpt>
      <trkpt lat="43.60981" lon="3.09706">
        <ele>308.8</ele>
        <time>2026-05-20T06:25:30Z</time>
      </trkpt>
      <trkpt lat="43.60975" lon="3.09712">
        <ele>308.4</ele>
        <time>2026-05-20T06:25:35Z</time>
      </trkpt>
      <trkpt lat="43.60967" lon="3.09716">
        <ele>308.4</ele>
        <time>2026-05-20T06:25:40Z</time>
      </trkpt>
      <trkpt lat="43.6096" lon="3.0972">
        <ele>308.3</ele>
        <time>2026-05-20T06:25:45Z</time>
      </trkpt>
      <trkpt lat="43.60953" lon="3.09723">
        <ele>308.3</ele>
        <time>2026-05-20T06:25:50Z</time>
      </trkpt>
      <trkpt lat="43.60945" lon="3.09726">
        <ele>308.4</ele>
        <time>2026-05-20T06:25:55Z</time>
      </trkpt>
      <trkpt lat="43.60937" lon="3.09728">
        <ele>308.6</ele>
        <time>2026-05-20T06:26:00Z</time>
      </trkpt>
      <trkpt lat="43.60929" lon="3.0973">
        <ele>308.8</ele>
        <time>2026-05-20T06:26:05Z</time>
      </trkpt>
      <trkpt lat="43.60923" lon="3.09733">
        <ele>308.6</ele>
        <time>2026-05-20T06:26:10Z</time>
      </trkpt>
      <trkpt lat="43.60917" lon="3.09735">
        <ele>308.6</ele>
        <time>2026-05-20T06:26:15Z</time>
      </trkpt>
      <trkpt lat="43.6091" lon="3.09738">
        <ele>308.6</ele>
        <time>2026-05-20T06:26:20Z</time>
      </trkpt>
      <trkpt lat="43.60904" lon="3.09739">
        <ele>308.9</ele>
        <time>2026-05-20T06:26:25Z</time>
      </trkpt>
      <trkpt lat="43.60897" lon="3.0974">
        <ele>309.4</ele>
        <time>2026-05-20T06:26:30Z</time>
      </trkpt>
      <trkpt lat="43.6089" lon="3.09743">
        <ele>309.3</ele>
        <time>2026-05-20T06:26:35Z</time>
      </trkpt>
      <trkpt lat="43.60883" lon="3.09745">
        <ele>309.5</ele>
        <time>2026-05-20T06:26:40Z</time>
      </trkpt>
      <trkpt lat="43.60876" lon="3.09747">
        <ele>309.7</ele>
        <time>2026-05-20T06:26:45Z</time>
      </trkpt>
      <trkpt lat="43.6087" lon="3.09747">
        <ele>310.3</ele>
        <time>2026-05-20T06:26:50Z</time>
      </trkpt>
      <trkpt lat="43.60863" lon="3.09747">
        <ele>310.9</ele>
        <time>2026-05-20T06:26:55Z</time>
      </trkpt>
      <trkpt lat="43.60855" lon="3.09749">
        <ele>311.2</ele>
        <time>2026-05-20T06:27:00Z</time>
      </trkpt>
      <trkpt lat="43.60847" lon="3.09749">
        <ele>312</ele>
        <time>2026-05-20T06:27:05Z</time>
      </trkpt>
      <trkpt lat="43.6084" lon="3.09751">
        <ele>312.1</ele>
        <time>2026-05-20T06:27:10Z</time>
      </trkpt>
      <trkpt lat="43.60834" lon="3.09752">
        <ele>312.5</ele>
        <time>2026-05-20T06:27:15Z</time>
      </trkpt>
      <trkpt lat="43.60828" lon="3.09754">
        <ele>312.2</ele>
        <time>2026-05-20T06:27:20Z</time>
      </trkpt>
      <trkpt lat="43.60821" lon="3.09756">
        <ele>311.9</ele>
        <time>2026-05-20T06:27:25Z</time>
      </trkpt>
      <trkpt lat="43.60815" lon="3.09758">
        <ele>311.6</ele>
        <time>2026-05-20T06:27:30Z</time>
      </trkpt>
      <trkpt lat="43.60808" lon="3.0976">
        <ele>311.3</ele>
        <time>2026-05-20T06:27:35Z</time>
      </trkpt>
      <trkpt lat="43.60801" lon="3.09761">
        <ele>311.3</ele>
        <time>2026-05-20T06:27:40Z</time>
      </trkpt>
      <trkpt lat="43.60794" lon="3.09762">
        <ele>311.2</ele>
        <time>2026-05-20T06:27:45Z</time>
      </trkpt>
      <trkpt lat="43.60789" lon="3.09762">
        <ele>311.3</ele>
        <time>2026-05-20T06:27:50Z</time>
      </trkpt>
      <trkpt lat="43.60782" lon="3.09765">
        <ele>310.9</ele>
        <time>2026-05-20T06:27:55Z</time>
      </trkpt>
      <trkpt lat="43.60776" lon="3.09767">
        <ele>310.7</ele>
        <time>2026-05-20T06:28:00Z</time>
      </trkpt>
      <trkpt lat="43.60769" lon="3.09766">
        <ele>311.1</ele>
        <time>2026-05-20T06:28:05Z</time>
      </trkpt>
      <trkpt lat="43.60762" lon="3.09764">
        <ele>311.6</ele>
        <time>2026-05-20T06:28:10Z</time>
      </trkpt>
      <trkpt lat="43.60755" lon="3.09764">
        <ele>311.7</ele>
        <time>2026-05-20T06:28:15Z</time>
      </trkpt>
      <trkpt lat="43.60749" lon="3.09762">
        <ele>312.2</ele>
        <time>2026-05-20T06:28:20Z</time>
      </trkpt>
      <trkpt lat="43.60742" lon="3.09761">
        <ele>312.8</ele>
        <time>2026-05-20T06:28:25Z</time>
      </trkpt>
      <trkpt lat="43.60735" lon="3.09759">
        <ele>313.6</ele>
        <time>2026-05-20T06:28:30Z</time>
      </trkpt>
      <trkpt lat="43.60728" lon="3.09757">
        <ele>314.4</ele>
        <time>2026-05-20T06:28:35Z</time>
      </trkpt>
      <trkpt lat="43.60721" lon="3.09755">
        <ele>315.2</ele>
        <time>2026-05-20T06:28:40Z</time>
      </trkpt>
      <trkpt lat="43.60715" lon="3.09754">
        <ele>315.8</ele>
        <time>2026-05-20T06:28:45Z</time>
      </trkpt>
      <trkpt lat="43.60706" lon="3.09754">
        <ele>316.4</ele>
        <time>2026-05-20T06:28:50Z</time>
      </trkpt>
      <trkpt lat="43.607" lon="3.09752">
        <ele>317.2</ele>
        <time>2026-05-20T06:28:55Z</time>
      </trkpt>
      <trkpt lat="43.60693" lon="3.09748">
        <ele>318.8</ele>
        <time>2026-05-20T06:29:00Z</time>
      </trkpt>
      <trkpt lat="43.60686" lon="3.09745">
        <ele>320.4</ele>
        <time>2026-05-20T06:29:05Z</time>
      </trkpt>
      <trkpt lat="43.60679" lon="3.09745">
        <ele>320.9</ele>
        <time>2026-05-20T06:29:10Z</time>
      </trkpt>
      <trkpt lat="43.60672" lon="3.09745">
        <ele>321.5</ele>
        <time>2026-05-20T06:29:15Z</time>
      </trkpt>
      <trkpt lat="43.60667" lon="3.09745">
        <ele>321.8</ele>
        <time>2026-05-20T06:29:20Z</time>
      </trkpt>
      <trkpt lat="43.6066" lon="3.09747">
        <ele>322</ele>
        <time>2026-05-20T06:29:25Z</time>
      </trkpt>
      <trkpt lat="43.60655" lon="3.09751">
        <ele>321.3</ele>
        <time>2026-05-20T06:29:30Z</time>
      </trkpt>
      <trkpt lat="43.6065" lon="3.09755">
        <ele>321.2</ele>
        <time>2026-05-20T06:29:35Z</time>
      </trkpt>
      <trkpt lat="43.60646" lon="3.09758">
        <ele>321.1</ele>
        <time>2026-05-20T06:29:40Z</time>
      </trkpt>
      <trkpt lat="43.60641" lon="3.09761">
        <ele>321.1</ele>
        <time>2026-05-20T06:29:45Z</time>
      </trkpt>
      <trkpt lat="43.60636" lon="3.09764">
        <ele>321.1</ele>
        <time>2026-05-20T06:29:50Z</time>
      </trkpt>
      <trkpt lat="43.6063" lon="3.09767">
        <ele>321.3</ele>
        <time>2026-05-20T06:29:55Z</time>
      </trkpt>
      <trkpt lat="43.60624" lon="3.09768">
        <ele>321.8</ele>
        <time>2026-05-20T06:30:00Z</time>
      </trkpt>
      <trkpt lat="43.60618" lon="3.0977">
        <ele>322.2</ele>
        <time>2026-05-20T06:30:05Z</time>
      </trkpt>
      <trkpt lat="43.60613" lon="3.0977">
        <ele>322.8</ele>
        <time>2026-05-20T06:30:10Z</time>
      </trkpt>
      <trkpt lat="43.60606" lon="3.0977">
        <ele>323.8</ele>
        <time>2026-05-20T06:30:15Z</time>
      </trkpt>
      <trkpt lat="43.60599" lon="3.09771">
        <ele>324.4</ele>
        <time>2026-05-20T06:30:20Z</time>
      </trkpt>
      <trkpt lat="43.60592" lon="3.09772">
        <ele>325.1</ele>
        <time>2026-05-20T06:30:25Z</time>
      </trkpt>
      <trkpt lat="43.60586" lon="3.09773">
        <ele>325.7</ele>
        <time>2026-05-20T06:30:30Z</time>
      </trkpt>
      <trkpt lat="43.60578" lon="3.09773">
        <ele>326.5</ele>
        <time>2026-05-20T06:30:35Z</time>
      </trkpt>
      <trkpt lat="43.60572" lon="3.09774">
        <ele>326.8</ele>
        <time>2026-05-20T06:30:40Z</time>
      </trkpt>
      <trkpt lat="43.60566" lon="3.09775">
        <ele>327.2</ele>
        <time>2026-05-20T06:30:45Z</time>
      </trkpt>
      <trkpt lat="43.6056" lon="3.09776">
        <ele>327.5</ele>
        <time>2026-05-20T06:30:50Z</time>
      </trkpt>
      <trkpt lat="43.60553" lon="3.09778">
        <ele>327.7</ele>
        <time>2026-05-20T06:30:55Z</time>
      </trkpt>
      <trkpt lat="43.60547" lon="3.09779">
        <ele>328.1</ele>
        <time>2026-05-20T06:31:00Z</time>
      </trkpt>
      <trkpt lat="43.60542" lon="3.09781">
        <ele>328.1</ele>
        <time>2026-05-20T06:31:05Z</time>
      </trkpt>
      <trkpt lat="43.60536" lon="3.09782">
        <ele>328.5</ele>
        <time>2026-05-20T06:31:10Z</time>
      </trkpt>
      <trkpt lat="43.6053" lon="3.09784">
        <ele>328.7</ele>
        <time>2026-05-20T06:31:15Z</time>
      </trkpt>
      <trkpt lat="43.60523" lon="3.09785">
        <ele>329.1</ele>
        <time>2026-05-20T06:31:20Z</time>
      </trkpt>
      <trkpt lat="43.60516" lon="3.09789">
        <ele>329</ele>
        <time>2026-05-20T06:31:25Z</time>
      </trkpt>
      <trkpt lat="43.6051" lon="3.09791">
        <ele>329.2</ele>
        <time>2026-05-20T06:31:30Z</time>
      </trkpt>
      <trkpt lat="43.60505" lon="3.09793">
        <ele>329.3</ele>
        <time>2026-05-20T06:31:35Z</time>
      </trkpt>
      <trkpt lat="43.60497" lon="3.09795">
        <ele>329.3</ele>
        <time>2026-05-20T06:31:40Z</time>
      </trkpt>
      <trkpt lat="43.6049" lon="3.09798">
        <ele>328.7</ele>
        <time>2026-05-20T06:31:45Z</time>
      </trkpt>
      <trkpt lat="43.60483" lon="3.09801">
        <ele>328.1</ele>
        <time>2026-05-20T06:31:50Z</time>
      </trkpt>
      <trkpt lat="43.60478" lon="3.09802">
        <ele>327.9</ele>
        <time>2026-05-20T06:31:55Z</time>
      </trkpt>
      <trkpt lat="43.60472" lon="3.09803">
        <ele>327.7</ele>
        <time>2026-05-20T06:32:00Z</time>
      </trkpt>
      <trkpt lat="43.60465" lon="3.09805">
        <ele>327.3</ele>
        <time>2026-05-20T06:32:05Z</time>
      </trkpt>
      <trkpt lat="43.60458" lon="3.09805">
        <ele>327.3</ele>
        <time>2026-05-20T06:32:10Z</time>
      </trkpt>
      <trkpt lat="43.60453" lon="3.09806">
        <ele>327.1</ele>
        <time>2026-05-20T06:32:15Z</time>
      </trkpt>
      <trkpt lat="43.60447" lon="3.09807">
        <ele>326.9</ele>
        <time>2026-05-20T06:32:20Z</time>
      </trkpt>
      <trkpt lat="43.60442" lon="3.09807">
        <ele>326.8</ele>
        <time>2026-05-20T06:32:25Z</time>
      </trkpt>
      <trkpt lat="43.60436" lon="3.09806">
        <ele>327</ele>
        <time>2026-05-20T06:32:30Z</time>
      </trkpt>
      <trkpt lat="43.60431" lon="3.09806">
        <ele>327</ele>
        <time>2026-05-20T06:32:35Z</time>
      </trkpt>
      <trkpt lat="43.60426" lon="3.09805">
        <ele>327.1</ele>
        <time>2026-05-20T06:32:40Z</time>
      </trkpt>
      <trkpt lat="43.60422" lon="3.09802">
        <ele>327.7</ele>
        <time>2026-05-20T06:32:45Z</time>
      </trkpt>
      <trkpt lat="43.60416" lon="3.09799">
        <ele>328.1</ele>
        <time>2026-05-20T06:32:50Z</time>
      </trkpt>
      <trkpt lat="43.6041" lon="3.09797">
        <ele>328.1</ele>
        <time>2026-05-20T06:32:55Z</time>
      </trkpt>
      <trkpt lat="43.60405" lon="3.09794">
        <ele>328.4</ele>
        <time>2026-05-20T06:33:00Z</time>
      </trkpt>
      <trkpt lat="43.60401" lon="3.09793">
        <ele>328.3</ele>
        <time>2026-05-20T06:33:05Z</time>
      </trkpt>
      <trkpt lat="43.60394" lon="3.09789">
        <ele>328.7</ele>
        <time>2026-05-20T06:33:10Z</time>
      </trkpt>
      <trkpt lat="43.60387" lon="3.09785">
        <ele>329</ele>
        <time>2026-05-20T06:33:15Z</time>
      </trkpt>
      <trkpt lat="43.60382" lon="3.09783">
        <ele>329.2</ele>
        <time>2026-05-20T06:33:20Z</time>
      </trkpt>
      <trkpt lat="43.60376" lon="3.09782">
        <ele>329</ele>
        <time>2026-05-20T06:33:25Z</time>
      </trkpt>
      <trkpt lat="43.60371" lon="3.09778">
        <ele>329.6</ele>
        <time>2026-05-20T06:33:30Z</time>
      </trkpt>
      <trkpt lat="43.60367" lon="3.09775">
        <ele>330</ele>
        <time>2026-05-20T06:33:35Z</time>
      </trkpt>
      <trkpt lat="43.60361" lon="3.0977">
        <ele>330.8</ele>
        <time>2026-05-20T06:33:40Z</time>
      </trkpt>
      <trkpt lat="43.60355" lon="3.09765">
        <ele>331.5</ele>
        <time>2026-05-20T06:33:45Z</time>
      </trkpt>
      <trkpt lat="43.60351" lon="3.09761">
        <ele>332.2</ele>
        <time>2026-05-20T06:33:50Z</time>
      </trkpt>
      <trkpt lat="43.60345" lon="3.09757">
        <ele>332.9</ele>
        <time>2026-05-20T06:33:55Z</time>
      </trkpt>
      <trkpt lat="43.6034" lon="3.09753">
        <ele>333.6</ele>
        <time>2026-05-20T06:34:00Z</time>
      </trkpt>
      <trkpt lat="43.60336" lon="3.0975">
        <ele>334.1</ele>
        <time>2026-05-20T06:34:05Z</time>
      </trkpt>
      <trkpt lat="43.60329" lon="3.09747">
        <ele>334.9</ele>
        <time>2026-05-20T06:34:10Z</time>
      </trkpt>
      <trkpt lat="43.60324" lon="3.09744">
        <ele>335.8</ele>
        <time>2026-05-20T06:34:15Z</time>
      </trkpt>
      <trkpt lat="43.60316" lon="3.0974">
        <ele>337</ele>
        <time>2026-05-20T06:34:20Z</time>
      </trkpt>
      <trkpt lat="43.60309" lon="3.09737">
        <ele>337.9</ele>
        <time>2026-05-20T06:34:25Z</time>
      </trkpt>
      <trkpt lat="43.60309" lon="3.09737">
        <ele>337.9</ele>
        <time>2026-05-20T06:34:30Z</time>
      </trkpt>
      <trkpt lat="43.60305" lon="3.09733">
        <ele>339</ele>
        <time>2026-05-20T06:34:35Z</time>
      </trkpt>
      <trkpt lat="43.60298" lon="3.09729">
        <ele>340.2</ele>
        <time>2026-05-20T06:34:40Z</time>
      </trkpt>
      <trkpt lat="43.60292" lon="3.09727">
        <ele>340.8</ele>
        <time>2026-05-20T06:34:45Z</time>
      </trkpt>
      <trkpt lat="43.60285" lon="3.09725">
        <ele>341.3</ele>
        <time>2026-05-20T06:34:50Z</time>
      </trkpt>
      <trkpt lat="43.60279" lon="3.09723">
        <ele>341.9</ele>
        <time>2026-05-20T06:34:55Z</time>
      </trkpt>
      <trkpt lat="43.60276" lon="3.09721">
        <ele>342.5</ele>
        <time>2026-05-20T06:35:00Z</time>
      </trkpt>
      <trkpt lat="43.60268" lon="3.09718">
        <ele>343.3</ele>
        <time>2026-05-20T06:35:05Z</time>
      </trkpt>
      <trkpt lat="43.60264" lon="3.09718">
        <ele>343.3</ele>
        <time>2026-05-20T06:35:10Z</time>
      </trkpt>
      <trkpt lat="43.60259" lon="3.09716">
        <ele>343.8</ele>
        <time>2026-05-20T06:35:15Z</time>
      </trkpt>
      <trkpt lat="43.60254" lon="3.09715">
        <ele>344.1</ele>
        <time>2026-05-20T06:35:20Z</time>
      </trkpt>
      <trkpt lat="43.60249" lon="3.09713">
        <ele>344.7</ele>
        <time>2026-05-20T06:35:25Z</time>
      </trkpt>
      <trkpt lat="43.60245" lon="3.09712">
        <ele>345.2</ele>
        <time>2026-05-20T06:35:30Z</time>
      </trkpt>
      <trkpt lat="43.60239" lon="3.0971">
        <ele>346</ele>
        <time>2026-05-20T06:35:35Z</time>
      </trkpt>
      <trkpt lat="43.60235" lon="3.09707">
        <ele>347</ele>
        <time>2026-05-20T06:35:40Z</time>
      </trkpt>
      <trkpt lat="43.60229" lon="3.09704">
        <ele>348.1</ele>
        <time>2026-05-20T06:35:45Z</time>
      </trkpt>
      <trkpt lat="43.60223" lon="3.09703">
        <ele>348.6</ele>
        <time>2026-05-20T06:35:50Z</time>
      </trkpt>
      <trkpt lat="43.60218" lon="3.09701">
        <ele>349.3</ele>
        <time>2026-05-20T06:35:55Z</time>
      </trkpt>
      <trkpt lat="43.60212" lon="3.09699">
        <ele>350</ele>
        <time>2026-05-20T06:36:00Z</time>
      </trkpt>
      <trkpt lat="43.60206" lon="3.09698">
        <ele>350.5</ele>
        <time>2026-05-20T06:36:05Z</time>
      </trkpt>
      <trkpt lat="43.60202" lon="3.09696">
        <ele>351.1</ele>
        <time>2026-05-20T06:36:10Z</time>
      </trkpt>
      <trkpt lat="43.60196" lon="3.09694">
        <ele>351.8</ele>
        <time>2026-05-20T06:36:15Z</time>
      </trkpt>
      <trkpt lat="43.60191" lon="3.09694">
        <ele>352</ele>
        <time>2026-05-20T06:36:20Z</time>
      </trkpt>
      <trkpt lat="43.60185" lon="3.09692">
        <ele>352.7</ele>
        <time>2026-05-20T06:36:25Z</time>
      </trkpt>
      <trkpt lat="43.6018" lon="3.09691">
        <ele>353.1</ele>
        <time>2026-05-20T06:36:30Z</time>
      </trkpt>
      <trkpt lat="43.60175" lon="3.09689">
        <ele>353.7</ele>
        <time>2026-05-20T06:36:35Z</time>
      </trkpt>
      <trkpt lat="43.6017" lon="3.09688">
        <ele>354</ele>
        <time>2026-05-20T06:36:40Z</time>
      </trkpt>
      <trkpt lat="43.60164" lon="3.09686">
        <ele>354.3</ele>
        <time>2026-05-20T06:36:45Z</time>
      </trkpt>
      <trkpt lat="43.60159" lon="3.09684">
        <ele>354</ele>
        <time>2026-05-20T06:36:50Z</time>
      </trkpt>
      <trkpt lat="43.60155" lon="3.09684">
        <ele>353.5</ele>
        <time>2026-05-20T06:36:55Z</time>
      </trkpt>
      <trkpt lat="43.6015" lon="3.09683">
        <ele>353.1</ele>
        <time>2026-05-20T06:37:00Z</time>
      </trkpt>
      <trkpt lat="43.60145" lon="3.09681">
        <ele>352.8</ele>
        <time>2026-05-20T06:37:05Z</time>
      </trkpt>
      <trkpt lat="43.60139" lon="3.0968">
        <ele>352.2</ele>
        <time>2026-05-20T06:37:10Z</time>
      </trkpt>
      <trkpt lat="43.60133" lon="3.09679">
        <ele>351.5</ele>
        <time>2026-05-20T06:37:15Z</time>
      </trkpt>
      <trkpt lat="43.60127" lon="3.09678">
        <ele>350.9</ele>
        <time>2026-05-20T06:37:20Z</time>
      </trkpt>
      <trkpt lat="43.60121" lon="3.09679">
        <ele>349.9</ele>
        <time>2026-05-20T06:37:25Z</time>
      </trkpt>
      <trkpt lat="43.60115" lon="3.0968">
        <ele>348.9</ele>
        <time>2026-05-20T06:37:30Z</time>
      </trkpt>
      <trkpt lat="43.6011" lon="3.09681">
        <ele>348.1</ele>
        <time>2026-05-20T06:37:35Z</time>
      </trkpt>
      <trkpt lat="43.60105" lon="3.09681">
        <ele>347.4</ele>
        <time>2026-05-20T06:37:40Z</time>
      </trkpt>
      <trkpt lat="43.60099" lon="3.09678">
        <ele>347</ele>
        <time>2026-05-20T06:37:45Z</time>
      </trkpt>
      <trkpt lat="43.60093" lon="3.09678">
        <ele>346.1</ele>
        <time>2026-05-20T06:37:50Z</time>
      </trkpt>
      <trkpt lat="43.60087" lon="3.09677">
        <ele>345.4</ele>
        <time>2026-05-20T06:37:55Z</time>
      </trkpt>
      <trkpt lat="43.60081" lon="3.09675">
        <ele>344.7</ele>
        <time>2026-05-20T06:38:00Z</time>
      </trkpt>
      <trkpt lat="43.60075" lon="3.09673">
        <ele>343.9</ele>
        <time>2026-05-20T06:38:05Z</time>
      </trkpt>
      <trkpt lat="43.6007" lon="3.0967">
        <ele>343.4</ele>
        <time>2026-05-20T06:38:10Z</time>
      </trkpt>
      <trkpt lat="43.60064" lon="3.09667">
        <ele>342.7</ele>
        <time>2026-05-20T06:38:15Z</time>
      </trkpt>
      <trkpt lat="43.60058" lon="3.09663">
        <ele>342.4</ele>
        <time>2026-05-20T06:38:20Z</time>
      </trkpt>
      <trkpt lat="43.60052" lon="3.09657">
        <ele>342.6</ele>
        <time>2026-05-20T06:38:25Z</time>
      </trkpt>
      <trkpt lat="43.60045" lon="3.09651">
        <ele>342.7</ele>
        <time>2026-05-20T06:38:30Z</time>
      </trkpt>
      <trkpt lat="43.60039" lon="3.09649">
        <ele>342.2</ele>
        <time>2026-05-20T06:38:35Z</time>
      </trkpt>
      <trkpt lat="43.60033" lon="3.0965">
        <ele>341.1</ele>
        <time>2026-05-20T06:38:40Z</time>
      </trkpt>
      <trkpt lat="43.60027" lon="3.09646">
        <ele>341</ele>
        <time>2026-05-20T06:38:45Z</time>
      </trkpt>
      <trkpt lat="43.6002" lon="3.09645">
        <ele>340.2</ele>
        <time>2026-05-20T06:38:50Z</time>
      </trkpt>
      <trkpt lat="43.60015" lon="3.09641">
        <ele>340.3</ele>
        <time>2026-05-20T06:38:55Z</time>
      </trkpt>
      <trkpt lat="43.60011" lon="3.09633">
        <ele>341.6</ele>
        <time>2026-05-20T06:39:00Z</time>
      </trkpt>
      <trkpt lat="43.60007" lon="3.09623">
        <ele>343.4</ele>
        <time>2026-05-20T06:39:05Z</time>
      </trkpt>
      <trkpt lat="43.60005" lon="3.09615">
        <ele>345</ele>
        <time>2026-05-20T06:39:10Z</time>
      </trkpt>
      <trkpt lat="43.60004" lon="3.09607">
        <ele>346.8</ele>
        <time>2026-05-20T06:39:15Z</time>
      </trkpt>
      <trkpt lat="43.60004" lon="3.09599">
        <ele>348.7</ele>
        <time>2026-05-20T06:39:20Z</time>
      </trkpt>
      <trkpt lat="43.60004" lon="3.09591">
        <ele>350.6</ele>
        <time>2026-05-20T06:39:25Z</time>
      </trkpt>
      <trkpt lat="43.60004" lon="3.09582">
        <ele>352.7</ele>
        <time>2026-05-20T06:39:30Z</time>
      </trkpt>
      <trkpt lat="43.60003" lon="3.09572">
        <ele>354.7</ele>
        <time>2026-05-20T06:39:35Z</time>
      </trkpt>
      <trkpt lat="43.60003" lon="3.09563">
        <ele>356.6</ele>
        <time>2026-05-20T06:39:40Z</time>
      </trkpt>
      <trkpt lat="43.60003" lon="3.09555">
        <ele>358.3</ele>
        <time>2026-05-20T06:39:45Z</time>
      </trkpt>
      <trkpt lat="43.60001" lon="3.09547">
        <ele>359.9</ele>
        <time>2026-05-20T06:39:50Z</time>
      </trkpt>
      <trkpt lat="43.59996" lon="3.0954">
        <ele>360.7</ele>
        <time>2026-05-20T06:39:55Z</time>
      </trkpt>
      <trkpt lat="43.5999" lon="3.09536">
        <ele>360.4</ele>
        <time>2026-05-20T06:40:00Z</time>
      </trkpt>
      <trkpt lat="43.59984" lon="3.09532">
        <ele>360.1</ele>
        <time>2026-05-20T06:40:05Z</time>
      </trkpt>
      <trkpt lat="43.59979" lon="3.09527">
        <ele>360.1</ele>
        <time>2026-05-20T06:40:10Z</time>
      </trkpt>
      <trkpt lat="43.59974" lon="3.09521">
        <ele>360.2</ele>
        <time>2026-05-20T06:40:15Z</time>
      </trkpt>
      <trkpt lat="43.59972" lon="3.09517">
        <ele>360.6</ele>
        <time>2026-05-20T06:40:20Z</time>
      </trkpt>
      <trkpt lat="43.59971" lon="3.09513">
        <ele>361.1</ele>
        <time>2026-05-20T06:40:25Z</time>
      </trkpt>
      <trkpt lat="43.59971" lon="3.09512">
        <ele>361.2</ele>
        <time>2026-05-20T06:40:30Z</time>
      </trkpt>
      <trkpt lat="43.59969" lon="3.09512">
        <ele>360.8</ele>
        <time>2026-05-20T06:40:35Z</time>
      </trkpt>
      <trkpt lat="43.59963" lon="3.09519">
        <ele>358.4</ele>
        <time>2026-05-20T06:40:40Z</time>
      </trkpt>
      <trkpt lat="43.59957" lon="3.09523">
        <ele>356.5</ele>
        <time>2026-05-20T06:40:45Z</time>
      </trkpt>
      <trkpt lat="43.59951" lon="3.09523">
        <ele>355.3</ele>
        <time>2026-05-20T06:40:50Z</time>
      </trkpt>
      <trkpt lat="43.59951" lon="3.09523">
        <ele>355.3</ele>
        <time>2026-05-20T06:40:55Z</time>
      </trkpt>
      <trkpt lat="43.59949" lon="3.09523">
        <ele>354.9</ele>
        <time>2026-05-20T06:41:00Z</time>
      </trkpt>
      <trkpt lat="43.59944" lon="3.09527">
        <ele>353.4</ele>
        <time>2026-05-20T06:41:05Z</time>
      </trkpt>
      <trkpt lat="43.59938" lon="3.09526">
        <ele>352.3</ele>
        <time>2026-05-20T06:41:10Z</time>
      </trkpt>
      <trkpt lat="43.59933" lon="3.09528">
        <ele>351.1</ele>
        <time>2026-05-20T06:41:15Z</time>
      </trkpt>
      <trkpt lat="43.59927" lon="3.09531">
        <ele>349.6</ele>
        <time>2026-05-20T06:41:20Z</time>
      </trkpt>
      <trkpt lat="43.59921" lon="3.09533">
        <ele>348.2</ele>
        <time>2026-05-20T06:41:25Z</time>
      </trkpt>
      <trkpt lat="43.59916" lon="3.09534">
        <ele>347.2</ele>
        <time>2026-05-20T06:41:30Z</time>
      </trkpt>
      <trkpt lat="43.5991" lon="3.09536">
        <ele>345.6</ele>
        <time>2026-05-20T06:41:35Z</time>
      </trkpt>
      <trkpt lat="43.59904" lon="3.09538">
        <ele>344</ele>
        <time>2026-05-20T06:41:40Z</time>
      </trkpt>
      <trkpt lat="43.59899" lon="3.09537">
        <ele>343</ele>
        <time>2026-05-20T06:41:45Z</time>
      </trkpt>
      <trkpt lat="43.59895" lon="3.09534">
        <ele>342.4</ele>
        <time>2026-05-20T06:41:50Z</time>
      </trkpt>
      <trkpt lat="43.5989" lon="3.09532">
        <ele>341.4</ele>
        <time>2026-05-20T06:41:55Z</time>
      </trkpt>
      <trkpt lat="43.5989" lon="3.09534">
        <ele>341.2</ele>
        <time>2026-05-20T06:42:00Z</time>
      </trkpt>
      <trkpt lat="43.59894" lon="3.09534">
        <ele>342.1</ele>
        <time>2026-05-20T06:42:05Z</time>
      </trkpt>
      <trkpt lat="43.599" lon="3.09536">
        <ele>343.3</ele>
        <time>2026-05-20T06:42:10Z</time>
      </trkpt>
      <trkpt lat="43.59903" lon="3.09533">
        <ele>344.3</ele>
        <time>2026-05-20T06:42:15Z</time>
      </trkpt>
      <trkpt lat="43.59905" lon="3.09529">
        <ele>345.1</ele>
        <time>2026-05-20T06:42:20Z</time>
      </trkpt>
      <trkpt lat="43.59907" lon="3.09525">
        <ele>346</ele>
        <time>2026-05-20T06:42:25Z</time>
      </trkpt>
      <trkpt lat="43.59907" lon="3.09522">
        <ele>346.3</ele>
        <time>2026-05-20T06:42:30Z</time>
      </trkpt>
      <trkpt lat="43.59907" lon="3.09522">
        <ele>346.3</ele>
        <time>2026-05-20T06:42:35Z</time>
      </trkpt>
      <trkpt lat="43.59907" lon="3.09522">
        <ele>346.3</ele>
        <time>2026-05-20T06:42:40Z</time>
      </trkpt>
      <trkpt lat="43.59907" lon="3.09522">
        <ele>346.3</ele>
        <time>2026-05-20T06:42:45Z</time>
      </trkpt>
      <trkpt lat="43.59907" lon="3.09522">
        <ele>346.3</ele>
        <time>2026-05-20T06:42:50Z</time>
      </trkpt>
      <trkpt lat="43.59907" lon="3.09522">
        <ele>346.3</ele>
        <time>2026-05-20T06:42:55Z</time>
      </trkpt>
      <trkpt lat="43.59907" lon="3.09522">
        <ele>346.3</ele>
        <time>2026-05-20T06:43:00Z</time>
      </trkpt>
      <trkpt lat="43.59907" lon="3.09522">
        <ele>346.3</ele>
        <time>2026-05-20T06:43:05Z</time>
      </trkpt>
      <trkpt lat="43.59907" lon="3.09522">
        <ele>346.3</ele>
        <time>2026-05-20T06:43:10Z</time>
      </trkpt>
      <trkpt lat="43.59907" lon="3.09522">
        <ele>346.3</ele>
        <time>2026-05-20T06:43:15Z</time>
      </trkpt>
      <trkpt lat="43.59907" lon="3.09522">
        <ele>346.3</ele>
        <time>2026-05-20T06:43:20Z</time>
      </trkpt>
      <trkpt lat="43.59906" lon="3.09507">
        <ele>347.5</ele>
        <time>2026-05-20T06:43:25Z</time>
      </trkpt>
      <trkpt lat="43.59902" lon="3.09504">
        <ele>346.8</ele>
        <time>2026-05-20T06:43:30Z</time>
      </trkpt>
      <trkpt lat="43.59899" lon="3.09503">
        <ele>346.1</ele>
        <time>2026-05-20T06:43:35Z</time>
      </trkpt>
      <trkpt lat="43.59895" lon="3.09503">
        <ele>345</ele>
        <time>2026-05-20T06:43:40Z</time>
      </trkpt>
      <trkpt lat="43.59891" lon="3.09501">
        <ele>344.1</ele>
        <time>2026-05-20T06:43:45Z</time>
      </trkpt>
      <trkpt lat="43.59888" lon="3.09499">
        <ele>343.5</ele>
        <time>2026-05-20T06:43:50Z</time>
      </trkpt>
      <trkpt lat="43.59888" lon="3.09499">
        <ele>343.5</ele>
        <time>2026-05-20T06:43:55Z</time>
      </trkpt>
      <trkpt lat="43.59882" lon="3.09497">
        <ele>342.1</ele>
        <time>2026-05-20T06:44:00Z</time>
      </trkpt>
      <trkpt lat="43.59877" lon="3.09496">
        <ele>340.9</ele>
        <time>2026-05-20T06:44:05Z</time>
      </trkpt>
      <trkpt lat="43.59874" lon="3.0949">
        <ele>340.6</ele>
        <time>2026-05-20T06:44:10Z</time>
      </trkpt>
      <trkpt lat="43.59875" lon="3.09487">
        <ele>341.1</ele>
        <time>2026-05-20T06:44:15Z</time>
      </trkpt>
      <trkpt lat="43.59875" lon="3.09487">
        <ele>341.1</ele>
        <time>2026-05-20T06:44:20Z</time>
      </trkpt>
      <trkpt lat="43.59873" lon="3.09481">
        <ele>341</ele>
        <time>2026-05-20T06:44:25Z</time>
      </trkpt>
      <trkpt lat="43.59874" lon="3.09476">
        <ele>341.7</ele>
        <time>2026-05-20T06:44:30Z</time>
      </trkpt>
      <trkpt lat="43.59874" lon="3.09469">
        <ele>342.3</ele>
        <time>2026-05-20T06:44:35Z</time>
      </trkpt>
      <trkpt lat="43.59875" lon="3.09463">
        <ele>343.1</ele>
        <time>2026-05-20T06:44:40Z</time>
      </trkpt>
      <trkpt lat="43.59877" lon="3.09458">
        <ele>344.1</ele>
        <time>2026-05-20T06:44:45Z</time>
      </trkpt>
      <trkpt lat="43.59878" lon="3.09452">
        <ele>344.9</ele>
        <time>2026-05-20T06:44:50Z</time>
      </trkpt>
      <trkpt lat="43.5988" lon="3.09448">
        <ele>345.9</ele>
        <time>2026-05-20T06:44:55Z</time>
      </trkpt>
      <trkpt lat="43.59883" lon="3.09446">
        <ele>347</ele>
        <time>2026-05-20T06:45:00Z</time>
      </trkpt>
      <trkpt lat="43.59884" lon="3.09446">
        <ele>347.3</ele>
        <time>2026-05-20T06:45:05Z</time>
      </trkpt>
      <trkpt lat="43.59884" lon="3.09446">
        <ele>347.3</ele>
        <time>2026-05-20T06:45:10Z</time>
      </trkpt>
      <trkpt lat="43.59884" lon="3.09446">
        <ele>347.3</ele>
        <time>2026-05-20T06:45:15Z</time>
      </trkpt>
      <trkpt lat="43.59885" lon="3.09441">
        <ele>348.1</ele>
        <time>2026-05-20T06:45:20Z</time>
      </trkpt>
      <trkpt lat="43.59886" lon="3.09437">
        <ele>348.8</ele>
        <time>2026-05-20T06:45:25Z</time>
      </trkpt>
      <trkpt lat="43.59886" lon="3.09437">
        <ele>348.8</ele>
        <time>2026-05-20T06:45:30Z</time>
      </trkpt>
      <trkpt lat="43.59886" lon="3.09437">
        <ele>348.8</ele>
        <time>2026-05-20T06:45:35Z</time>
      </trkpt>
      <trkpt lat="43.59886" lon="3.09437">
        <ele>348.8</ele>
        <time>2026-05-20T06:45:40Z</time>
      </trkpt>
      <trkpt lat="43.59886" lon="3.09437">
        <ele>348.8</ele>
        <time>2026-05-20T06:45:45Z</time>
      </trkpt>
      <trkpt lat="43.59879" lon="3.09431">
        <ele>347.1</ele>
        <time>2026-05-20T06:45:50Z</time>
      </trkpt>
      <trkpt lat="43.59872" lon="3.09431">
        <ele>344.8</ele>
        <time>2026-05-20T06:45:55Z</time>
      </trkpt>
      <trkpt lat="43.59867" lon="3.09435">
        <ele>342.9</ele>
        <time>2026-05-20T06:46:00Z</time>
      </trkpt>
      <trkpt lat="43.59866" lon="3.09436">
        <ele>342.5</ele>
        <time>2026-05-20T06:46:05Z</time>
      </trkpt>
      <trkpt lat="43.59866" lon="3.09436">
        <ele>342.5</ele>
        <time>2026-05-20T06:46:10Z</time>
      </trkpt>
      <trkpt lat="43.59866" lon="3.09436">
        <ele>342.5</ele>
        <time>2026-05-20T06:46:15Z</time>
      </trkpt>
      <trkpt lat="43.59866" lon="3.09436">
        <ele>342.5</ele>
        <time>2026-05-20T06:46:20Z</time>
      </trkpt>
      <trkpt lat="43.59866" lon="3.09436">
        <ele>342.5</ele>
        <time>2026-05-20T06:46:25Z</time>
      </trkpt>
      <trkpt lat="43.59866" lon="3.09436">
        <ele>342.5</ele>
        <time>2026-05-20T06:46:30Z</time>
      </trkpt>
      <trkpt lat="43.59866" lon="3.09436">
        <ele>342.5</ele>
        <time>2026-05-20T06:46:35Z</time>
      </trkpt>
      <trkpt lat="43.59866" lon="3.09436">
        <ele>342.5</ele>
        <time>2026-05-20T06:46:40Z</time>
      </trkpt>
      <trkpt lat="43.59866" lon="3.09436">
        <ele>342.5</ele>
        <time>2026-05-20T06:46:45Z</time>
      </trkpt>
      <trkpt lat="43.59866" lon="3.09436">
        <ele>342.5</ele>
        <time>2026-05-20T06:46:50Z</time>
      </trkpt>
      <trkpt lat="43.59866" lon="3.09436">
        <ele>342.5</ele>
        <time>2026-05-20T06:46:55Z</time>
      </trkpt>
      <trkpt lat="43.59866" lon="3.09436">
        <ele>342.5</ele>
        <time>2026-05-20T06:47:00Z</time>
      </trkpt>
      <trkpt lat="43.59866" lon="3.09436">
        <ele>342.5</ele>
        <time>2026-05-20T06:47:05Z</time>
      </trkpt>
      <trkpt lat="43.59866" lon="3.09436">
        <ele>342.5</ele>
        <time>2026-05-20T06:47:10Z</time>
      </trkpt>
      <trkpt lat="43.59866" lon="3.09436">
        <ele>342.5</ele>
        <time>2026-05-20T06:47:15Z</time>
      </trkpt>
      <trkpt lat="43.59866" lon="3.09436">
        <ele>342.5</ele>
        <time>2026-05-20T06:47:20Z</time>
      </trkpt>
      <trkpt lat="43.59866" lon="3.09436">
        <ele>342.5</ele>
        <time>2026-05-20T06:47:25Z</time>
      </trkpt>
      <trkpt lat="43.59866" lon="3.09436">
        <ele>342.5</ele>
        <time>2026-05-20T06:47:30Z</time>
      </trkpt>
      <trkpt lat="43.59866" lon="3.09436">
        <ele>342.5</ele>
        <time>2026-05-20T06:47:35Z</time>
      </trkpt>
      <trkpt lat="43.59866" lon="3.09436">
        <ele>342.5</ele>
        <time>2026-05-20T06:47:40Z</time>
      </trkpt>
      <trkpt lat="43.59866" lon="3.09436">
        <ele>342.5</ele>
        <time>2026-05-20T06:47:45Z</time>
      </trkpt>
      <trkpt lat="43.59867" lon="3.09433">
        <ele>343.1</ele>
        <time>2026-05-20T06:47:50Z</time>
      </trkpt>
      <trkpt lat="43.59869" lon="3.09433">
        <ele>343.7</ele>
        <time>2026-05-20T06:47:55Z</time>
      </trkpt>
      <trkpt lat="43.59871" lon="3.09429">
        <ele>344.7</ele>
        <time>2026-05-20T06:48:00Z</time>
      </trkpt>
      <trkpt lat="43.59873" lon="3.09422">
        <ele>345.9</ele>
        <time>2026-05-20T06:48:05Z</time>
      </trkpt>
      <trkpt lat="43.59877" lon="3.09416">
        <ele>347.6</ele>
        <time>2026-05-20T06:48:10Z</time>
      </trkpt>
      <trkpt lat="43.59878" lon="3.09416">
        <ele>348</ele>
        <time>2026-05-20T06:48:15Z</time>
      </trkpt>
      <trkpt lat="43.59879" lon="3.0941">
        <ele>348</ele>
        <time>2026-05-20T06:48:20Z</time>
      </trkpt>
      <trkpt lat="43.59882" lon="3.09404">
        <ele>348.7</ele>
        <time>2026-05-20T06:48:25Z</time>
      </trkpt>
      <trkpt lat="43.59883" lon="3.09403">
        <ele>349</ele>
        <time>2026-05-20T06:48:30Z</time>
      </trkpt>
      <trkpt lat="43.59883" lon="3.09403">
        <ele>349</ele>
        <time>2026-05-20T06:48:35Z</time>
      </trkpt>
      <trkpt lat="43.59883" lon="3.09403">
        <ele>349</ele>
        <time>2026-05-20T06:48:40Z</time>
      </trkpt>
      <trkpt lat="43.59878" lon="3.09401">
        <ele>347.2</ele>
        <time>2026-05-20T06:48:45Z</time>
      </trkpt>
      <trkpt lat="43.59874" lon="3.09397">
        <ele>345.7</ele>
        <time>2026-05-20T06:48:50Z</time>
      </trkpt>
      <trkpt lat="43.59872" lon="3.09398">
        <ele>345.1</ele>
        <time>2026-05-20T06:48:55Z</time>
      </trkpt>
      <trkpt lat="43.5987" lon="3.09393">
        <ele>344.2</ele>
        <time>2026-05-20T06:49:00Z</time>
      </trkpt>
      <trkpt lat="43.59869" lon="3.09386">
        <ele>343.6</ele>
        <time>2026-05-20T06:49:05Z</time>
      </trkpt>
      <trkpt lat="43.59869" lon="3.09378">
        <ele>343.2</ele>
        <time>2026-05-20T06:49:10Z</time>
      </trkpt>
      <trkpt lat="43.59868" lon="3.09371">
        <ele>342.5</ele>
        <time>2026-05-20T06:49:15Z</time>
      </trkpt>
      <trkpt lat="43.59865" lon="3.09363">
        <ele>341.2</ele>
        <time>2026-05-20T06:49:20Z</time>
      </trkpt>
      <trkpt lat="43.59865" lon="3.09358">
        <ele>341</ele>
        <time>2026-05-20T06:49:25Z</time>
      </trkpt>
      <trkpt lat="43.59865" lon="3.09356">
        <ele>340.9</ele>
        <time>2026-05-20T06:49:30Z</time>
      </trkpt>
      <trkpt lat="43.59865" lon="3.09354">
        <ele>340.8</ele>
        <time>2026-05-20T06:49:35Z</time>
      </trkpt>
      <trkpt lat="43.59865" lon="3.09354">
        <ele>340.8</ele>
        <time>2026-05-20T06:49:40Z</time>
      </trkpt>
      <trkpt lat="43.59865" lon="3.09354">
        <ele>340.8</ele>
        <time>2026-05-20T06:49:45Z</time>
      </trkpt>
      <trkpt lat="43.59865" lon="3.09354">
        <ele>340.8</ele>
        <time>2026-05-20T06:49:50Z</time>
      </trkpt>
      <trkpt lat="43.59865" lon="3.09354">
        <ele>340.8</ele>
        <time>2026-05-20T06:49:55Z</time>
      </trkpt>
      <trkpt lat="43.59865" lon="3.09354">
        <ele>340.8</ele>
        <time>2026-05-20T06:50:00Z</time>
      </trkpt>
      <trkpt lat="43.59865" lon="3.09354">
        <ele>340.8</ele>
        <time>2026-05-20T06:50:05Z</time>
      </trkpt>
      <trkpt lat="43.59866" lon="3.09347">
        <ele>340.8</ele>
        <time>2026-05-20T06:50:10Z</time>
      </trkpt>
      <trkpt lat="43.5987" lon="3.09355">
        <ele>342.4</ele>
        <time>2026-05-20T06:50:15Z</time>
      </trkpt>
      <trkpt lat="43.59873" lon="3.09363">
        <ele>343.8</ele>
        <time>2026-05-20T06:50:20Z</time>
      </trkpt>
      <trkpt lat="43.59876" lon="3.09368">
        <ele>345</ele>
        <time>2026-05-20T06:50:25Z</time>
      </trkpt>
      <trkpt lat="43.59878" lon="3.09374">
        <ele>345.9</ele>
        <time>2026-05-20T06:50:30Z</time>
      </trkpt>
      <trkpt lat="43.59881" lon="3.09378">
        <ele>347.1</ele>
        <time>2026-05-20T06:50:35Z</time>
      </trkpt>
      <trkpt lat="43.59884" lon="3.09382">
        <ele>348.3</ele>
        <time>2026-05-20T06:50:40Z</time>
      </trkpt>
      <trkpt lat="43.59889" lon="3.09385">
        <ele>350.1</ele>
        <time>2026-05-20T06:50:45Z</time>
      </trkpt>
      <trkpt lat="43.59893" lon="3.0939">
        <ele>351.6</ele>
        <time>2026-05-20T06:50:50Z</time>
      </trkpt>
      <trkpt lat="43.59896" lon="3.09395">
        <ele>352.9</ele>
        <time>2026-05-20T06:50:55Z</time>
      </trkpt>
      <trkpt lat="43.599" lon="3.09398">
        <ele>354.4</ele>
        <time>2026-05-20T06:51:00Z</time>
      </trkpt>
      <trkpt lat="43.59905" lon="3.09399">
        <ele>356.1</ele>
        <time>2026-05-20T06:51:05Z</time>
      </trkpt>
      <trkpt lat="43.59909" lon="3.09401">
        <ele>357.5</ele>
        <time>2026-05-20T06:51:10Z</time>
      </trkpt>
      <trkpt lat="43.59909" lon="3.09403">
        <ele>357.6</ele>
        <time>2026-05-20T06:51:15Z</time>
      </trkpt>
      <trkpt lat="43.59906" lon="3.09406">
        <ele>356.8</ele>
        <time>2026-05-20T06:51:20Z</time>
      </trkpt>
      <trkpt lat="43.59905" lon="3.09411">
        <ele>356.8</ele>
        <time>2026-05-20T06:51:25Z</time>
      </trkpt>
      <trkpt lat="43.59907" lon="3.09418">
        <ele>357.6</ele>
        <time>2026-05-20T06:51:30Z</time>
      </trkpt>
      <trkpt lat="43.59906" lon="3.09423">
        <ele>356.7</ele>
        <time>2026-05-20T06:51:35Z</time>
      </trkpt>
      <trkpt lat="43.59905" lon="3.0943">
        <ele>355.6</ele>
        <time>2026-05-20T06:51:40Z</time>
      </trkpt>
      <trkpt lat="43.59905" lon="3.09436">
        <ele>355</ele>
        <time>2026-05-20T06:51:45Z</time>
      </trkpt>
      <trkpt lat="43.59904" lon="3.09443">
        <ele>353.9</ele>
        <time>2026-05-20T06:51:50Z</time>
      </trkpt>
      <trkpt lat="43.59901" lon="3.0945">
        <ele>352.2</ele>
        <time>2026-05-20T06:51:55Z</time>
      </trkpt>
      <trkpt lat="43.59897" lon="3.09452">
        <ele>350.8</ele>
        <time>2026-05-20T06:52:00Z</time>
      </trkpt>
      <trkpt lat="43.59894" lon="3.09452">
        <ele>349.8</ele>
        <time>2026-05-20T06:52:05Z</time>
      </trkpt>
      <trkpt lat="43.59894" lon="3.09452">
        <ele>349.8</ele>
        <time>2026-05-20T06:52:10Z</time>
      </trkpt>
      <trkpt lat="43.59894" lon="3.09452">
        <ele>349.8</ele>
        <time>2026-05-20T06:52:15Z</time>
      </trkpt>
      <trkpt lat="43.59894" lon="3.09452">
        <ele>349.8</ele>
        <time>2026-05-20T06:52:20Z</time>
      </trkpt>
      <trkpt lat="43.59888" lon="3.09448">
        <ele>348.4</ele>
        <time>2026-05-20T06:52:25Z</time>
      </trkpt>
      <trkpt lat="43.59886" lon="3.09441">
        <ele>348.4</ele>
        <time>2026-05-20T06:52:30Z</time>
      </trkpt>
      <trkpt lat="43.59887" lon="3.09435">
        <ele>349.3</ele>
        <time>2026-05-20T06:52:35Z</time>
      </trkpt>
      <trkpt lat="43.59891" lon="3.09432">
        <ele>350.9</ele>
        <time>2026-05-20T06:52:40Z</time>
      </trkpt>
      <trkpt lat="43.59893" lon="3.0943">
        <ele>351.7</ele>
        <time>2026-05-20T06:52:45Z</time>
      </trkpt>
      <trkpt lat="43.59893" lon="3.0943">
        <ele>351.7</ele>
        <time>2026-05-20T06:52:45Z</time>
      </trkpt>
      <trkpt lat="43.59888" lon="3.09428">
        <ele>350.3</ele>
        <time>2026-05-20T06:53:53Z</time>
      </trkpt>
      <trkpt lat="43.59888" lon="3.09428">
        <ele>350.3</ele>
        <time>2026-05-20T06:53:59Z</time>
      </trkpt>
      <trkpt lat="43.59888" lon="3.09428">
        <ele>350.3</ele>
        <time>2026-05-20T06:54:04Z</time>
      </trkpt>
      <trkpt lat="43.59888" lon="3.09428">
        <ele>350.3</ele>
        <time>2026-05-20T06:54:09Z</time>
      </trkpt>
      <trkpt lat="43.59889" lon="3.09425">
        <ele>350.9</ele>
        <time>2026-05-20T06:54:14Z</time>
      </trkpt>
      <trkpt lat="43.59893" lon="3.0942">
        <ele>352.7</ele>
        <time>2026-05-20T06:54:19Z</time>
      </trkpt>
      <trkpt lat="43.59894" lon="3.09415">
        <ele>353.3</ele>
        <time>2026-05-20T06:54:24Z</time>
      </trkpt>
      <trkpt lat="43.59895" lon="3.09413">
        <ele>353.5</ele>
        <time>2026-05-20T06:54:29Z</time>
      </trkpt>
      <trkpt lat="43.59895" lon="3.0941">
        <ele>353.4</ele>
        <time>2026-05-20T06:54:34Z</time>
      </trkpt>
      <trkpt lat="43.59892" lon="3.09413">
        <ele>352.5</ele>
        <time>2026-05-20T06:54:39Z</time>
      </trkpt>
      <trkpt lat="43.5989" lon="3.09417">
        <ele>352</ele>
        <time>2026-05-20T06:54:44Z</time>
      </trkpt>
      <trkpt lat="43.5989" lon="3.09417">
        <ele>352</ele>
        <time>2026-05-20T06:54:49Z</time>
      </trkpt>
      <trkpt lat="43.59884" lon="3.09425">
        <ele>349.3</ele>
        <time>2026-05-20T06:54:54Z</time>
      </trkpt>
      <trkpt lat="43.59882" lon="3.09431">
        <ele>348.1</ele>
        <time>2026-05-20T06:54:59Z</time>
      </trkpt>
      <trkpt lat="43.59882" lon="3.09439">
        <ele>347.3</ele>
        <time>2026-05-20T06:55:04Z</time>
      </trkpt>
      <trkpt lat="43.59885" lon="3.09445">
        <ele>347.7</ele>
        <time>2026-05-20T06:55:09Z</time>
      </trkpt>
      <trkpt lat="43.59887" lon="3.0945">
        <ele>347.9</ele>
        <time>2026-05-20T06:55:14Z</time>
      </trkpt>
      <trkpt lat="43.59884" lon="3.09453">
        <ele>346.7</ele>
        <time>2026-05-20T06:55:19Z</time>
      </trkpt>
      <trkpt lat="43.59881" lon="3.09454">
        <ele>345.7</ele>
        <time>2026-05-20T06:55:24Z</time>
      </trkpt>
      <trkpt lat="43.59879" lon="3.0946">
        <ele>344.6</ele>
        <time>2026-05-20T06:55:29Z</time>
      </trkpt>
      <trkpt lat="43.5988" lon="3.09464">
        <ele>344.5</ele>
        <time>2026-05-20T06:55:34Z</time>
      </trkpt>
      <trkpt lat="43.59877" lon="3.09468">
        <ele>343.3</ele>
        <time>2026-05-20T06:55:39Z</time>
      </trkpt>
      <trkpt lat="43.59872" lon="3.09472">
        <ele>341.5</ele>
        <time>2026-05-20T06:55:44Z</time>
      </trkpt>
      <trkpt lat="43.59873" lon="3.09479">
        <ele>341.2</ele>
        <time>2026-05-20T06:55:49Z</time>
      </trkpt>
      <trkpt lat="43.59875" lon="3.09485">
        <ele>341.3</ele>
        <time>2026-05-20T06:55:54Z</time>
      </trkpt>
      <trkpt lat="43.59878" lon="3.09492">
        <ele>341.5</ele>
        <time>2026-05-20T06:55:59Z</time>
      </trkpt>
      <trkpt lat="43.59883" lon="3.09495">
        <ele>342.6</ele>
        <time>2026-05-20T06:56:04Z</time>
      </trkpt>
      <trkpt lat="43.59888" lon="3.09499">
        <ele>343.5</ele>
        <time>2026-05-20T06:56:09Z</time>
      </trkpt>
      <trkpt lat="43.59893" lon="3.09504">
        <ele>344.4</ele>
        <time>2026-05-20T06:56:14Z</time>
      </trkpt>
      <trkpt lat="43.59899" lon="3.09507">
        <ele>345.7</ele>
        <time>2026-05-20T06:56:19Z</time>
      </trkpt>
      <trkpt lat="43.59904" lon="3.09509">
        <ele>346.8</ele>
        <time>2026-05-20T06:56:24Z</time>
      </trkpt>
      <trkpt lat="43.59906" lon="3.09511">
        <ele>347.1</ele>
        <time>2026-05-20T06:56:29Z</time>
      </trkpt>
      <trkpt lat="43.59908" lon="3.09513">
        <ele>347.4</ele>
        <time>2026-05-20T06:56:34Z</time>
      </trkpt>
      <trkpt lat="43.59907" lon="3.09514">
        <ele>347.1</ele>
        <time>2026-05-20T06:56:39Z</time>
      </trkpt>
      <trkpt lat="43.59907" lon="3.09514">
        <ele>347.1</ele>
        <time>2026-05-20T06:56:44Z</time>
      </trkpt>
      <trkpt lat="43.59907" lon="3.09514">
        <ele>347.1</ele>
        <time>2026-05-20T06:56:49Z</time>
      </trkpt>
      <trkpt lat="43.59907" lon="3.09514">
        <ele>347.1</ele>
        <time>2026-05-20T06:56:54Z</time>
      </trkpt>
      <trkpt lat="43.59907" lon="3.09514">
        <ele>347.1</ele>
        <time>2026-05-20T06:56:59Z</time>
      </trkpt>
      <trkpt lat="43.59907" lon="3.09514">
        <ele>347.1</ele>
        <time>2026-05-20T06:57:04Z</time>
      </trkpt>
      <trkpt lat="43.59907" lon="3.09514">
        <ele>347.1</ele>
        <time>2026-05-20T06:57:09Z</time>
      </trkpt>
      <trkpt lat="43.59907" lon="3.09514">
        <ele>347.1</ele>
        <time>2026-05-20T06:57:14Z</time>
      </trkpt>
      <trkpt lat="43.59907" lon="3.09514">
        <ele>347.1</ele>
        <time>2026-05-20T06:57:19Z</time>
      </trkpt>
      <trkpt lat="43.59907" lon="3.09514">
        <ele>347.1</ele>
        <time>2026-05-20T06:57:24Z</time>
      </trkpt>
      <trkpt lat="43.59907" lon="3.09514">
        <ele>347.1</ele>
        <time>2026-05-20T06:57:29Z</time>
      </trkpt>
      <trkpt lat="43.59907" lon="3.09514">
        <ele>347.1</ele>
        <time>2026-05-20T06:57:34Z</time>
      </trkpt>
      <trkpt lat="43.59907" lon="3.09514">
        <ele>347.1</ele>
        <time>2026-05-20T06:57:39Z</time>
      </trkpt>
      <trkpt lat="43.59907" lon="3.09514">
        <ele>347.1</ele>
        <time>2026-05-20T06:57:44Z</time>
      </trkpt>
      <trkpt lat="43.59907" lon="3.09514">
        <ele>347.1</ele>
        <time>2026-05-20T06:57:49Z</time>
      </trkpt>
      <trkpt lat="43.59907" lon="3.09514">
        <ele>347.1</ele>
        <time>2026-05-20T06:57:54Z</time>
      </trkpt>
      <trkpt lat="43.59907" lon="3.09514">
        <ele>347.1</ele>
        <time>2026-05-20T06:57:59Z</time>
      </trkpt>
      <trkpt lat="43.59907" lon="3.09514">
        <ele>347.1</ele>
        <time>2026-05-20T06:58:04Z</time>
      </trkpt>
      <trkpt lat="43.59907" lon="3.09514">
        <ele>347.1</ele>
        <time>2026-05-20T06:58:09Z</time>
      </trkpt>
      <trkpt lat="43.59907" lon="3.09514">
        <ele>347.1</ele>
        <time>2026-05-20T06:58:14Z</time>
      </trkpt>
      <trkpt lat="43.59907" lon="3.09514">
        <ele>347.1</ele>
        <time>2026-05-20T06:58:19Z</time>
      </trkpt>
      <trkpt lat="43.59907" lon="3.09514">
        <ele>347.1</ele>
        <time>2026-05-20T06:58:24Z</time>
      </trkpt>
      <trkpt lat="43.59907" lon="3.09514">
        <ele>347.1</ele>
        <time>2026-05-20T06:58:29Z</time>
      </trkpt>
      <trkpt lat="43.59907" lon="3.09514">
        <ele>347.1</ele>
        <time>2026-05-20T06:58:34Z</time>
      </trkpt>
      <trkpt lat="43.59907" lon="3.09514">
        <ele>347.1</ele>
        <time>2026-05-20T06:58:39Z</time>
      </trkpt>
      <trkpt lat="43.59907" lon="3.09514">
        <ele>347.1</ele>
        <time>2026-05-20T06:58:44Z</time>
      </trkpt>
      <trkpt lat="43.59907" lon="3.09514">
        <ele>347.1</ele>
        <time>2026-05-20T06:58:49Z</time>
      </trkpt>
      <trkpt lat="43.59906" lon="3.09519">
        <ele>346.3</ele>
        <time>2026-05-20T06:58:54Z</time>
      </trkpt>
      <trkpt lat="43.59904" lon="3.09522">
        <ele>345.6</ele>
        <time>2026-05-20T06:58:59Z</time>
      </trkpt>
      <trkpt lat="43.59902" lon="3.09526">
        <ele>344.7</ele>
        <time>2026-05-20T06:59:04Z</time>
      </trkpt>
      <trkpt lat="43.599" lon="3.09531">
        <ele>343.8</ele>
        <time>2026-05-20T06:59:09Z</time>
      </trkpt>
      <trkpt lat="43.59898" lon="3.09535">
        <ele>343</ele>
        <time>2026-05-20T06:59:14Z</time>
      </trkpt>
      <trkpt lat="43.59897" lon="3.09539">
        <ele>342.4</ele>
        <time>2026-05-20T06:59:19Z</time>
      </trkpt>
      <trkpt lat="43.59894" lon="3.09542">
        <ele>341.4</ele>
        <time>2026-05-20T06:59:24Z</time>
      </trkpt>
      <trkpt lat="43.59892" lon="3.09545">
        <ele>340.7</ele>
        <time>2026-05-20T06:59:29Z</time>
      </trkpt>
      <trkpt lat="43.59889" lon="3.09548">
        <ele>339.9</ele>
        <time>2026-05-20T06:59:34Z</time>
      </trkpt>
      <trkpt lat="43.59885" lon="3.09551">
        <ele>338.8</ele>
        <time>2026-05-20T06:59:39Z</time>
      </trkpt>
      <trkpt lat="43.59883" lon="3.09556">
        <ele>338</ele>
        <time>2026-05-20T06:59:44Z</time>
      </trkpt>
      <trkpt lat="43.59882" lon="3.09559">
        <ele>337.5</ele>
        <time>2026-05-20T06:59:49Z</time>
      </trkpt>
      <trkpt lat="43.5988" lon="3.09563">
        <ele>336.8</ele>
        <time>2026-05-20T06:59:54Z</time>
      </trkpt>
      <trkpt lat="43.59878" lon="3.09567">
        <ele>336.2</ele>
        <time>2026-05-20T06:59:59Z</time>
      </trkpt>
      <trkpt lat="43.59875" lon="3.09571">
        <ele>335.3</ele>
        <time>2026-05-20T07:00:04Z</time>
      </trkpt>
      <trkpt lat="43.5987" lon="3.09575">
        <ele>334.1</ele>
        <time>2026-05-20T07:00:09Z</time>
      </trkpt>
      <trkpt lat="43.59867" lon="3.09579">
        <ele>333.3</ele>
        <time>2026-05-20T07:00:14Z</time>
      </trkpt>
      <trkpt lat="43.59865" lon="3.09582">
        <ele>332.8</ele>
        <time>2026-05-20T07:00:19Z</time>
      </trkpt>
      <trkpt lat="43.59863" lon="3.09586">
        <ele>332.3</ele>
        <time>2026-05-20T07:00:24Z</time>
      </trkpt>
      <trkpt lat="43.59861" lon="3.09591">
        <ele>331.9</ele>
        <time>2026-05-20T07:00:29Z</time>
      </trkpt>
      <trkpt lat="43.59859" lon="3.09595">
        <ele>331.5</ele>
        <time>2026-05-20T07:00:34Z</time>
      </trkpt>
      <trkpt lat="43.59856" lon="3.09598">
        <ele>330.9</ele>
        <time>2026-05-20T07:00:39Z</time>
      </trkpt>
      <trkpt lat="43.59855" lon="3.09599">
        <ele>330.8</ele>
        <time>2026-05-20T07:00:44Z</time>
      </trkpt>
      <trkpt lat="43.59855" lon="3.09599">
        <ele>330.8</ele>
        <time>2026-05-20T07:00:49Z</time>
      </trkpt>
      <trkpt lat="43.59855" lon="3.09599">
        <ele>330.8</ele>
        <time>2026-05-20T07:00:54Z</time>
      </trkpt>
      <trkpt lat="43.59855" lon="3.09599">
        <ele>330.8</ele>
        <time>2026-05-20T07:00:59Z</time>
      </trkpt>
      <trkpt lat="43.59855" lon="3.09599">
        <ele>330.8</ele>
        <time>2026-05-20T07:01:04Z</time>
      </trkpt>
      <trkpt lat="43.59855" lon="3.09599">
        <ele>330.8</ele>
        <time>2026-05-20T07:01:09Z</time>
      </trkpt>
      <trkpt lat="43.59855" lon="3.09599">
        <ele>330.8</ele>
        <time>2026-05-20T07:01:14Z</time>
      </trkpt>
      <trkpt lat="43.59855" lon="3.09599">
        <ele>330.8</ele>
        <time>2026-05-20T07:01:19Z</time>
      </trkpt>
      <trkpt lat="43.59855" lon="3.09599">
        <ele>330.8</ele>
        <time>2026-05-20T07:01:24Z</time>
      </trkpt>
      <trkpt lat="43.59855" lon="3.09599">
        <ele>330.8</ele>
        <time>2026-05-20T07:01:29Z</time>
      </trkpt>
      <trkpt lat="43.59855" lon="3.09616">
        <ele>330.6</ele>
        <time>2026-05-20T07:01:34Z</time>
      </trkpt>
      <trkpt lat="43.59853" lon="3.0962">
        <ele>330.2</ele>
        <time>2026-05-20T07:01:39Z</time>
      </trkpt>
      <trkpt lat="43.59851" lon="3.09624">
        <ele>329.9</ele>
        <time>2026-05-20T07:01:44Z</time>
      </trkpt>
      <trkpt lat="43.59848" lon="3.0963">
        <ele>329.3</ele>
        <time>2026-05-20T07:01:49Z</time>
      </trkpt>
      <trkpt lat="43.59845" lon="3.09635">
        <ele>328.8</ele>
        <time>2026-05-20T07:01:54Z</time>
      </trkpt>
      <trkpt lat="43.59841" lon="3.09638">
        <ele>328.2</ele>
        <time>2026-05-20T07:01:59Z</time>
      </trkpt>
      <trkpt lat="43.59837" lon="3.09638">
        <ele>327.6</ele>
        <time>2026-05-20T07:02:04Z</time>
      </trkpt>
      <trkpt lat="43.59836" lon="3.09637">
        <ele>327.4</ele>
        <time>2026-05-20T07:02:09Z</time>
      </trkpt>
      <trkpt lat="43.59834" lon="3.09635">
        <ele>327.1</ele>
        <time>2026-05-20T07:02:14Z</time>
      </trkpt>
      <trkpt lat="43.59834" lon="3.09634">
        <ele>327.1</ele>
        <time>2026-05-20T07:02:19Z</time>
      </trkpt>
      <trkpt lat="43.59834" lon="3.09634">
        <ele>327.1</ele>
        <time>2026-05-20T07:02:24Z</time>
      </trkpt>
      <trkpt lat="43.59834" lon="3.09634">
        <ele>327.1</ele>
        <time>2026-05-20T07:02:29Z</time>
      </trkpt>
      <trkpt lat="43.59826" lon="3.09627">
        <ele>325.6</ele>
        <time>2026-05-20T07:02:34Z</time>
      </trkpt>
      <trkpt lat="43.59822" lon="3.09626">
        <ele>324.8</ele>
        <time>2026-05-20T07:02:39Z</time>
      </trkpt>
      <trkpt lat="43.59817" lon="3.09626">
        <ele>323.9</ele>
        <time>2026-05-20T07:02:44Z</time>
      </trkpt>
      <trkpt lat="43.59814" lon="3.09626">
        <ele>323.3</ele>
        <time>2026-05-20T07:02:49Z</time>
      </trkpt>
      <trkpt lat="43.59809" lon="3.09626">
        <ele>322.3</ele>
        <time>2026-05-20T07:02:54Z</time>
      </trkpt>
      <trkpt lat="43.59805" lon="3.09625">
        <ele>321.6</ele>
        <time>2026-05-20T07:02:59Z</time>
      </trkpt>
      <trkpt lat="43.59802" lon="3.09624">
        <ele>321</ele>
        <time>2026-05-20T07:03:04Z</time>
      </trkpt>
      <trkpt lat="43.59799" lon="3.09622">
        <ele>320.4</ele>
        <time>2026-05-20T07:03:09Z</time>
      </trkpt>
      <trkpt lat="43.59795" lon="3.09622">
        <ele>319.6</ele>
        <time>2026-05-20T07:03:14Z</time>
      </trkpt>
      <trkpt lat="43.59791" lon="3.09619">
        <ele>318.8</ele>
        <time>2026-05-20T07:03:19Z</time>
      </trkpt>
      <trkpt lat="43.59785" lon="3.09616">
        <ele>317.6</ele>
        <time>2026-05-20T07:03:24Z</time>
      </trkpt>
      <trkpt lat="43.5978" lon="3.09615">
        <ele>316.6</ele>
        <time>2026-05-20T07:03:29Z</time>
      </trkpt>
      <trkpt lat="43.59775" lon="3.09615">
        <ele>315.6</ele>
        <time>2026-05-20T07:03:34Z</time>
      </trkpt>
      <trkpt lat="43.59769" lon="3.09615">
        <ele>314.5</ele>
        <time>2026-05-20T07:03:39Z</time>
      </trkpt>
      <trkpt lat="43.59764" lon="3.09615">
        <ele>313.5</ele>
        <time>2026-05-20T07:03:44Z</time>
      </trkpt>
      <trkpt lat="43.59761" lon="3.09615">
        <ele>312.9</ele>
        <time>2026-05-20T07:03:49Z</time>
      </trkpt>
      <trkpt lat="43.59759" lon="3.09615">
        <ele>312.5</ele>
        <time>2026-05-20T07:03:54Z</time>
      </trkpt>
      <trkpt lat="43.59758" lon="3.09616">
        <ele>312.3</ele>
        <time>2026-05-20T07:03:59Z</time>
      </trkpt>
      <trkpt lat="43.59758" lon="3.09616">
        <ele>312.3</ele>
        <time>2026-05-20T07:04:04Z</time>
      </trkpt>
      <trkpt lat="43.59758" lon="3.09616">
        <ele>312.3</ele>
        <time>2026-05-20T07:04:09Z</time>
      </trkpt>
      <trkpt lat="43.59758" lon="3.09616">
        <ele>312.3</ele>
        <time>2026-05-20T07:04:14Z</time>
      </trkpt>
      <trkpt lat="43.59758" lon="3.09616">
        <ele>312.3</ele>
        <time>2026-05-20T07:04:19Z</time>
      </trkpt>
      <trkpt lat="43.59758" lon="3.09616">
        <ele>312.3</ele>
        <time>2026-05-20T07:04:24Z</time>
      </trkpt>
      <trkpt lat="43.59758" lon="3.09616">
        <ele>312.3</ele>
        <time>2026-05-20T07:04:29Z</time>
      </trkpt>
      <trkpt lat="43.59758" lon="3.09616">
        <ele>312.3</ele>
        <time>2026-05-20T07:04:34Z</time>
      </trkpt>
      <trkpt lat="43.59758" lon="3.09616">
        <ele>312.3</ele>
        <time>2026-05-20T07:04:39Z</time>
      </trkpt>
      <trkpt lat="43.59758" lon="3.09616">
        <ele>312.3</ele>
        <time>2026-05-20T07:04:44Z</time>
      </trkpt>
      <trkpt lat="43.59758" lon="3.09616">
        <ele>312.3</ele>
        <time>2026-05-20T07:04:49Z</time>
      </trkpt>
      <trkpt lat="43.59758" lon="3.09616">
        <ele>312.3</ele>
        <time>2026-05-20T07:04:54Z</time>
      </trkpt>
      <trkpt lat="43.59758" lon="3.09616">
        <ele>312.3</ele>
        <time>2026-05-20T07:04:59Z</time>
      </trkpt>
      <trkpt lat="43.59758" lon="3.09616">
        <ele>312.3</ele>
        <time>2026-05-20T07:05:04Z</time>
      </trkpt>
      <trkpt lat="43.59758" lon="3.09616">
        <ele>312.3</ele>
        <time>2026-05-20T07:05:09Z</time>
      </trkpt>
      <trkpt lat="43.59758" lon="3.09616">
        <ele>312.3</ele>
        <time>2026-05-20T07:05:14Z</time>
      </trkpt>
      <trkpt lat="43.59758" lon="3.09616">
        <ele>312.3</ele>
        <time>2026-05-20T07:05:19Z</time>
      </trkpt>
      <trkpt lat="43.59758" lon="3.09616">
        <ele>312.3</ele>
        <time>2026-05-20T07:05:24Z</time>
      </trkpt>
      <trkpt lat="43.59752" lon="3.09621">
        <ele>311.3</ele>
        <time>2026-05-20T07:05:29Z</time>
      </trkpt>
      <trkpt lat="43.59749" lon="3.09626">
        <ele>310.7</ele>
        <time>2026-05-20T07:05:34Z</time>
      </trkpt>
      <trkpt lat="43.59746" lon="3.09628">
        <ele>309.9</ele>
        <time>2026-05-20T07:05:39Z</time>
      </trkpt>
      <trkpt lat="43.59744" lon="3.09633">
        <ele>309.4</ele>
        <time>2026-05-20T07:05:44Z</time>
      </trkpt>
      <trkpt lat="43.59742" lon="3.0964">
        <ele>309</ele>
        <time>2026-05-20T07:05:49Z</time>
      </trkpt>
      <trkpt lat="43.59738" lon="3.09645">
        <ele>307.9</ele>
        <time>2026-05-20T07:05:54Z</time>
      </trkpt>
      <trkpt lat="43.59736" lon="3.09647">
        <ele>307.3</ele>
        <time>2026-05-20T07:05:59Z</time>
      </trkpt>
      <trkpt lat="43.59733" lon="3.09652">
        <ele>306.5</ele>
        <time>2026-05-20T07:06:04Z</time>
      </trkpt>
      <trkpt lat="43.59731" lon="3.09656">
        <ele>305.9</ele>
        <time>2026-05-20T07:06:09Z</time>
      </trkpt>
      <trkpt lat="43.59727" lon="3.09662">
        <ele>304.8</ele>
        <time>2026-05-20T07:06:14Z</time>
      </trkpt>
      <trkpt lat="43.59722" lon="3.09666">
        <ele>303.3</ele>
        <time>2026-05-20T07:06:19Z</time>
      </trkpt>
      <trkpt lat="43.59718" lon="3.0967">
        <ele>302</ele>
        <time>2026-05-20T07:06:24Z</time>
      </trkpt>
      <trkpt lat="43.59714" lon="3.09676">
        <ele>300.7</ele>
        <time>2026-05-20T07:06:29Z</time>
      </trkpt>
      <trkpt lat="43.59711" lon="3.09679">
        <ele>299.7</ele>
        <time>2026-05-20T07:06:34Z</time>
      </trkpt>
      <trkpt lat="43.59708" lon="3.09683">
        <ele>298.7</ele>
        <time>2026-05-20T07:06:39Z</time>
      </trkpt>
      <trkpt lat="43.59705" lon="3.09687">
        <ele>297.7</ele>
        <time>2026-05-20T07:06:44Z</time>
      </trkpt>
      <trkpt lat="43.59702" lon="3.0969">
        <ele>296.7</ele>
        <time>2026-05-20T07:06:49Z</time>
      </trkpt>
      <trkpt lat="43.59699" lon="3.09692">
        <ele>295.8</ele>
        <time>2026-05-20T07:06:54Z</time>
      </trkpt>
      <trkpt lat="43.59696" lon="3.09693">
        <ele>294.8</ele>
        <time>2026-05-20T07:06:59Z</time>
      </trkpt>
      <trkpt lat="43.59692" lon="3.09691">
        <ele>293.6</ele>
        <time>2026-05-20T07:07:04Z</time>
      </trkpt>
      <trkpt lat="43.59689" lon="3.09689">
        <ele>292.7</ele>
        <time>2026-05-20T07:07:09Z</time>
      </trkpt>
      <trkpt lat="43.59686" lon="3.09687">
        <ele>291.8</ele>
        <time>2026-05-20T07:07:14Z</time>
      </trkpt>
      <trkpt lat="43.59681" lon="3.09686">
        <ele>290.2</ele>
        <time>2026-05-20T07:07:19Z</time>
      </trkpt>
      <trkpt lat="43.59678" lon="3.09684">
        <ele>289.3</ele>
        <time>2026-05-20T07:07:24Z</time>
      </trkpt>
      <trkpt lat="43.59674" lon="3.09682">
        <ele>288.1</ele>
        <time>2026-05-20T07:07:29Z</time>
      </trkpt>
      <trkpt lat="43.59669" lon="3.0968">
        <ele>286.6</ele>
        <time>2026-05-20T07:07:34Z</time>
      </trkpt>
      <trkpt lat="43.59665" lon="3.09677">
        <ele>285.5</ele>
        <time>2026-05-20T07:07:39Z</time>
      </trkpt>
      <trkpt lat="43.59661" lon="3.09675">
        <ele>284.7</ele>
        <time>2026-05-20T07:07:44Z</time>
      </trkpt>
      <trkpt lat="43.59659" lon="3.09674">
        <ele>284.2</ele>
        <time>2026-05-20T07:07:49Z</time>
      </trkpt>
      <trkpt lat="43.59655" lon="3.09672">
        <ele>283.4</ele>
        <time>2026-05-20T07:07:54Z</time>
      </trkpt>
      <trkpt lat="43.59651" lon="3.09668">
        <ele>282.6</ele>
        <time>2026-05-20T07:07:59Z</time>
      </trkpt>
      <trkpt lat="43.59649" lon="3.09665">
        <ele>282.2</ele>
        <time>2026-05-20T07:08:04Z</time>
      </trkpt>
      <trkpt lat="43.59647" lon="3.09662">
        <ele>281.8</ele>
        <time>2026-05-20T07:08:09Z</time>
      </trkpt>
      <trkpt lat="43.59643" lon="3.09656">
        <ele>281.1</ele>
        <time>2026-05-20T07:08:14Z</time>
      </trkpt>
      <trkpt lat="43.5964" lon="3.09651">
        <ele>280.5</ele>
        <time>2026-05-20T07:08:19Z</time>
      </trkpt>
      <trkpt lat="43.59638" lon="3.09648">
        <ele>280.1</ele>
        <time>2026-05-20T07:08:24Z</time>
      </trkpt>
      <trkpt lat="43.59637" lon="3.09644">
        <ele>279.9</ele>
        <time>2026-05-20T07:08:29Z</time>
      </trkpt>
      <trkpt lat="43.59634" lon="3.09639">
        <ele>279.3</ele>
        <time>2026-05-20T07:08:34Z</time>
      </trkpt>
      <trkpt lat="43.59633" lon="3.09633">
        <ele>279.2</ele>
        <time>2026-05-20T07:08:39Z</time>
      </trkpt>
      <trkpt lat="43.59632" lon="3.09627">
        <ele>279.1</ele>
        <time>2026-05-20T07:08:44Z</time>
      </trkpt>
      <trkpt lat="43.59629" lon="3.09622">
        <ele>278.5</ele>
        <time>2026-05-20T07:08:49Z</time>
      </trkpt>
      <trkpt lat="43.59627" lon="3.09617">
        <ele>278.1</ele>
        <time>2026-05-20T07:08:54Z</time>
      </trkpt>
      <trkpt lat="43.59627" lon="3.09613">
        <ele>278.1</ele>
        <time>2026-05-20T07:08:59Z</time>
      </trkpt>
      <trkpt lat="43.59626" lon="3.09613">
        <ele>277.9</ele>
        <time>2026-05-20T07:09:04Z</time>
      </trkpt>
      <trkpt lat="43.59626" lon="3.09613">
        <ele>277.9</ele>
        <time>2026-05-20T07:09:09Z</time>
      </trkpt>
      <trkpt lat="43.59626" lon="3.09613">
        <ele>277.9</ele>
        <time>2026-05-20T07:09:14Z</time>
      </trkpt>
      <trkpt lat="43.59626" lon="3.09613">
        <ele>277.9</ele>
        <time>2026-05-20T07:09:19Z</time>
      </trkpt>
      <trkpt lat="43.59623" lon="3.0961">
        <ele>277.2</ele>
        <time>2026-05-20T07:09:24Z</time>
      </trkpt>
      <trkpt lat="43.59621" lon="3.09606">
        <ele>276.8</ele>
        <time>2026-05-20T07:09:29Z</time>
      </trkpt>
      <trkpt lat="43.59619" lon="3.09602">
        <ele>276.4</ele>
        <time>2026-05-20T07:09:34Z</time>
      </trkpt>
      <trkpt lat="43.59616" lon="3.09598">
        <ele>275.7</ele>
        <time>2026-05-20T07:09:39Z</time>
      </trkpt>
      <trkpt lat="43.59613" lon="3.09593">
        <ele>275</ele>
        <time>2026-05-20T07:09:44Z</time>
      </trkpt>
      <trkpt lat="43.59611" lon="3.09587">
        <ele>274.6</ele>
        <time>2026-05-20T07:09:49Z</time>
      </trkpt>
      <trkpt lat="43.59608" lon="3.09583">
        <ele>273.9</ele>
        <time>2026-05-20T07:09:54Z</time>
      </trkpt>
      <trkpt lat="43.59604" lon="3.09582">
        <ele>273</ele>
        <time>2026-05-20T07:09:59Z</time>
      </trkpt>
      <trkpt lat="43.59603" lon="3.09582">
        <ele>272.8</ele>
        <time>2026-05-20T07:10:04Z</time>
      </trkpt>
      <trkpt lat="43.59596" lon="3.09579">
        <ele>271.2</ele>
        <time>2026-05-20T07:10:09Z</time>
      </trkpt>
      <trkpt lat="43.59592" lon="3.09578">
        <ele>270.3</ele>
        <time>2026-05-20T07:10:14Z</time>
      </trkpt>
      <trkpt lat="43.59588" lon="3.09578">
        <ele>269.3</ele>
        <time>2026-05-20T07:10:19Z</time>
      </trkpt>
      <trkpt lat="43.59588" lon="3.09578">
        <ele>269.3</ele>
        <time>2026-05-20T07:10:24Z</time>
      </trkpt>
      <trkpt lat="43.59588" lon="3.09578">
        <ele>269.3</ele>
        <time>2026-05-20T07:10:29Z</time>
      </trkpt>
      <trkpt lat="43.59579" lon="3.09573">
        <ele>267.8</ele>
        <time>2026-05-20T07:10:34Z</time>
      </trkpt>
      <trkpt lat="43.59575" lon="3.0957">
        <ele>267.4</ele>
        <time>2026-05-20T07:10:39Z</time>
      </trkpt>
      <trkpt lat="43.59571" lon="3.09567">
        <ele>266.9</ele>
        <time>2026-05-20T07:10:44Z</time>
      </trkpt>
      <trkpt lat="43.59567" lon="3.09565">
        <ele>266.5</ele>
        <time>2026-05-20T07:10:49Z</time>
      </trkpt>
      <trkpt lat="43.59563" lon="3.09563">
        <ele>266</ele>
        <time>2026-05-20T07:10:54Z</time>
      </trkpt>
      <trkpt lat="43.5956" lon="3.09559">
        <ele>265.7</ele>
        <time>2026-05-20T07:10:59Z</time>
      </trkpt>
      <trkpt lat="43.59558" lon="3.09553">
        <ele>265.6</ele>
        <time>2026-05-20T07:11:04Z</time>
      </trkpt>
      <trkpt lat="43.59556" lon="3.09549">
        <ele>265.5</ele>
        <time>2026-05-20T07:11:09Z</time>
      </trkpt>
      <trkpt lat="43.59553" lon="3.09547">
        <ele>265.1</ele>
        <time>2026-05-20T07:11:14Z</time>
      </trkpt>
      <trkpt lat="43.5955" lon="3.09546">
        <ele>264.8</ele>
        <time>2026-05-20T07:11:19Z</time>
      </trkpt>
      <trkpt lat="43.5955" lon="3.09546">
        <ele>264.8</ele>
        <time>2026-05-20T07:11:24Z</time>
      </trkpt>
      <trkpt lat="43.59541" lon="3.09548">
        <ele>263.5</ele>
        <time>2026-05-20T07:11:29Z</time>
      </trkpt>
      <trkpt lat="43.59539" lon="3.09549">
        <ele>263.2</ele>
        <time>2026-05-20T07:11:34Z</time>
      </trkpt>
      <trkpt lat="43.59534" lon="3.09549">
        <ele>262.5</ele>
        <time>2026-05-20T07:11:39Z</time>
      </trkpt>
      <trkpt lat="43.59533" lon="3.09549">
        <ele>262.3</ele>
        <time>2026-05-20T07:11:44Z</time>
      </trkpt>
      <trkpt lat="43.59527" lon="3.09546">
        <ele>261.6</ele>
        <time>2026-05-20T07:11:49Z</time>
      </trkpt>
      <trkpt lat="43.59527" lon="3.09546">
        <ele>261.6</ele>
        <time>2026-05-20T07:11:54Z</time>
      </trkpt>
      <trkpt lat="43.59527" lon="3.09546">
        <ele>261.6</ele>
        <time>2026-05-20T07:11:59Z</time>
      </trkpt>
      <trkpt lat="43.59517" lon="3.09546">
        <ele>260.2</ele>
        <time>2026-05-20T07:12:04Z</time>
      </trkpt>
      <trkpt lat="43.59512" lon="3.09545">
        <ele>259.6</ele>
        <time>2026-05-20T07:12:09Z</time>
      </trkpt>
      <trkpt lat="43.59506" lon="3.09546">
        <ele>258.7</ele>
        <time>2026-05-20T07:12:14Z</time>
      </trkpt>
      <trkpt lat="43.59502" lon="3.09546">
        <ele>258.2</ele>
        <time>2026-05-20T07:12:19Z</time>
      </trkpt>
      <trkpt lat="43.59497" lon="3.09547">
        <ele>257.3</ele>
        <time>2026-05-20T07:12:24Z</time>
      </trkpt>
      <trkpt lat="43.59492" lon="3.09546">
        <ele>256.4</ele>
        <time>2026-05-20T07:12:29Z</time>
      </trkpt>
      <trkpt lat="43.59488" lon="3.09544">
        <ele>255.7</ele>
        <time>2026-05-20T07:12:34Z</time>
      </trkpt>
      <trkpt lat="43.59482" lon="3.09543">
        <ele>254.6</ele>
        <time>2026-05-20T07:12:39Z</time>
      </trkpt>
      <trkpt lat="43.59477" lon="3.09542">
        <ele>253.7</ele>
        <time>2026-05-20T07:12:44Z</time>
      </trkpt>
      <trkpt lat="43.59474" lon="3.0954">
        <ele>253.2</ele>
        <time>2026-05-20T07:12:49Z</time>
      </trkpt>
      <trkpt lat="43.59472" lon="3.09538">
        <ele>252.8</ele>
        <time>2026-05-20T07:12:54Z</time>
      </trkpt>
      <trkpt lat="43.59466" lon="3.09536">
        <ele>251.7</ele>
        <time>2026-05-20T07:12:59Z</time>
      </trkpt>
      <trkpt lat="43.5946" lon="3.09533">
        <ele>250.6</ele>
        <time>2026-05-20T07:13:04Z</time>
      </trkpt>
      <trkpt lat="43.59455" lon="3.09528">
        <ele>249.7</ele>
        <time>2026-05-20T07:13:09Z</time>
      </trkpt>
      <trkpt lat="43.59449" lon="3.09525">
        <ele>248.5</ele>
        <time>2026-05-20T07:13:14Z</time>
      </trkpt>
      <trkpt lat="43.59443" lon="3.09522">
        <ele>247.4</ele>
        <time>2026-05-20T07:13:19Z</time>
      </trkpt>
      <trkpt lat="43.59437" lon="3.09518">
        <ele>246.2</ele>
        <time>2026-05-20T07:13:24Z</time>
      </trkpt>
      <trkpt lat="43.59431" lon="3.09513">
        <ele>245</ele>
        <time>2026-05-20T07:13:29Z</time>
      </trkpt>
      <trkpt lat="43.59426" lon="3.0951">
        <ele>244</ele>
        <time>2026-05-20T07:13:34Z</time>
      </trkpt>
      <trkpt lat="43.59421" lon="3.09507">
        <ele>243</ele>
        <time>2026-05-20T07:13:39Z</time>
      </trkpt>
      <trkpt lat="43.59416" lon="3.09503">
        <ele>241.9</ele>
        <time>2026-05-20T07:13:44Z</time>
      </trkpt>
      <trkpt lat="43.59409" lon="3.09501">
        <ele>240.5</ele>
        <time>2026-05-20T07:13:49Z</time>
      </trkpt>
      <trkpt lat="43.59402" lon="3.09499">
        <ele>239.2</ele>
        <time>2026-05-20T07:13:54Z</time>
      </trkpt>
      <trkpt lat="43.59396" lon="3.09496">
        <ele>238.1</ele>
        <time>2026-05-20T07:13:59Z</time>
      </trkpt>
      <trkpt lat="43.5939" lon="3.09489">
        <ele>237.1</ele>
        <time>2026-05-20T07:14:04Z</time>
      </trkpt>
      <trkpt lat="43.59384" lon="3.09485">
        <ele>236</ele>
        <time>2026-05-20T07:14:09Z</time>
      </trkpt>
      <trkpt lat="43.59379" lon="3.09479">
        <ele>235.1</ele>
        <time>2026-05-20T07:14:14Z</time>
      </trkpt>
      <trkpt lat="43.59375" lon="3.09471">
        <ele>234.5</ele>
        <time>2026-05-20T07:14:19Z</time>
      </trkpt>
      <trkpt lat="43.5937" lon="3.09465">
        <ele>233.7</ele>
        <time>2026-05-20T07:14:24Z</time>
      </trkpt>
      <trkpt lat="43.59365" lon="3.0946">
        <ele>232.9</ele>
        <time>2026-05-20T07:14:29Z</time>
      </trkpt>
      <trkpt lat="43.59359" lon="3.09453">
        <ele>231.9</ele>
        <time>2026-05-20T07:14:34Z</time>
      </trkpt>
      <trkpt lat="43.59353" lon="3.09446">
        <ele>230.9</ele>
        <time>2026-05-20T07:14:39Z</time>
      </trkpt>
      <trkpt lat="43.59349" lon="3.0944">
        <ele>230.3</ele>
        <time>2026-05-20T07:14:44Z</time>
      </trkpt>
      <trkpt lat="43.59342" lon="3.09435">
        <ele>229.1</ele>
        <time>2026-05-20T07:14:49Z</time>
      </trkpt>
      <trkpt lat="43.59334" lon="3.09431">
        <ele>227.8</ele>
        <time>2026-05-20T07:14:54Z</time>
      </trkpt>
      <trkpt lat="43.59329" lon="3.09424">
        <ele>227.2</ele>
        <time>2026-05-20T07:14:59Z</time>
      </trkpt>
      <trkpt lat="43.59325" lon="3.09418">
        <ele>226.8</ele>
        <time>2026-05-20T07:15:04Z</time>
      </trkpt>
      <trkpt lat="43.59323" lon="3.09409">
        <ele>226.9</ele>
        <time>2026-05-20T07:15:09Z</time>
      </trkpt>
      <trkpt lat="43.59322" lon="3.094">
        <ele>227.3</ele>
        <time>2026-05-20T07:15:14Z</time>
      </trkpt>
      <trkpt lat="43.59323" lon="3.09391">
        <ele>227.9</ele>
        <time>2026-05-20T07:15:19Z</time>
      </trkpt>
      <trkpt lat="43.59323" lon="3.09382">
        <ele>228.4</ele>
        <time>2026-05-20T07:15:24Z</time>
      </trkpt>
      <trkpt lat="43.5932" lon="3.09372">
        <ele>228.5</ele>
        <time>2026-05-20T07:15:29Z</time>
      </trkpt>
      <trkpt lat="43.59315" lon="3.09366">
        <ele>228</ele>
        <time>2026-05-20T07:15:34Z</time>
      </trkpt>
      <trkpt lat="43.5931" lon="3.09364">
        <ele>227.3</ele>
        <time>2026-05-20T07:15:39Z</time>
      </trkpt>
      <trkpt lat="43.59302" lon="3.09363">
        <ele>226</ele>
        <time>2026-05-20T07:15:44Z</time>
      </trkpt>
      <trkpt lat="43.59297" lon="3.09364">
        <ele>225.1</ele>
        <time>2026-05-20T07:15:49Z</time>
      </trkpt>
      <trkpt lat="43.59293" lon="3.09366">
        <ele>224.3</ele>
        <time>2026-05-20T07:15:54Z</time>
      </trkpt>
      <trkpt lat="43.59291" lon="3.09363">
        <ele>224.1</ele>
        <time>2026-05-20T07:15:59Z</time>
      </trkpt>
      <trkpt lat="43.59289" lon="3.09362">
        <ele>223.8</ele>
        <time>2026-05-20T07:16:04Z</time>
      </trkpt>
      <trkpt lat="43.59285" lon="3.09361">
        <ele>223.2</ele>
        <time>2026-05-20T07:16:09Z</time>
      </trkpt>
      <trkpt lat="43.59279" lon="3.09358">
        <ele>222.3</ele>
        <time>2026-05-20T07:16:14Z</time>
      </trkpt>
      <trkpt lat="43.5927" lon="3.09356">
        <ele>220.9</ele>
        <time>2026-05-20T07:16:19Z</time>
      </trkpt>
      <trkpt lat="43.59262" lon="3.09357">
        <ele>219.5</ele>
        <time>2026-05-20T07:16:24Z</time>
      </trkpt>
      <trkpt lat="43.59258" lon="3.09359">
        <ele>218.7</ele>
        <time>2026-05-20T07:16:29Z</time>
      </trkpt>
      <trkpt lat="43.59254" lon="3.09361">
        <ele>218</ele>
        <time>2026-05-20T07:16:34Z</time>
      </trkpt>
      <trkpt lat="43.5925" lon="3.09364">
        <ele>217.3</ele>
        <time>2026-05-20T07:16:39Z</time>
      </trkpt>
      <trkpt lat="43.59245" lon="3.09366">
        <ele>216.7</ele>
        <time>2026-05-20T07:16:44Z</time>
      </trkpt>
      <trkpt lat="43.59238" lon="3.09367">
        <ele>216</ele>
        <time>2026-05-20T07:16:49Z</time>
      </trkpt>
      <trkpt lat="43.59231" lon="3.09367">
        <ele>215.4</ele>
        <time>2026-05-20T07:16:54Z</time>
      </trkpt>
      <trkpt lat="43.59224" lon="3.09365">
        <ele>214.7</ele>
        <time>2026-05-20T07:16:59Z</time>
      </trkpt>
      <trkpt lat="43.59217" lon="3.0936">
        <ele>214.2</ele>
        <time>2026-05-20T07:17:04Z</time>
      </trkpt>
      <trkpt lat="43.59212" lon="3.09355">
        <ele>213.8</ele>
        <time>2026-05-20T07:17:09Z</time>
      </trkpt>
      <trkpt lat="43.59207" lon="3.0935">
        <ele>213.5</ele>
        <time>2026-05-20T07:17:14Z</time>
      </trkpt>
      <trkpt lat="43.59201" lon="3.09343">
        <ele>213.1</ele>
        <time>2026-05-20T07:17:19Z</time>
      </trkpt>
      <trkpt lat="43.59196" lon="3.09334">
        <ele>212.8</ele>
        <time>2026-05-20T07:17:24Z</time>
      </trkpt>
      <trkpt lat="43.59192" lon="3.09328">
        <ele>212.6</ele>
        <time>2026-05-20T07:17:29Z</time>
      </trkpt>
      <trkpt lat="43.59187" lon="3.09322">
        <ele>212.4</ele>
        <time>2026-05-20T07:17:34Z</time>
      </trkpt>
      <trkpt lat="43.59181" lon="3.09318">
        <ele>212</ele>
        <time>2026-05-20T07:17:39Z</time>
      </trkpt>
      <trkpt lat="43.59175" lon="3.09316">
        <ele>211.5</ele>
        <time>2026-05-20T07:17:44Z</time>
      </trkpt>
      <trkpt lat="43.59167" lon="3.09314">
        <ele>211</ele>
        <time>2026-05-20T07:17:49Z</time>
      </trkpt>
      <trkpt lat="43.5916" lon="3.09313">
        <ele>210.7</ele>
        <time>2026-05-20T07:17:54Z</time>
      </trkpt>
      <trkpt lat="43.59154" lon="3.09312">
        <ele>210.5</ele>
        <time>2026-05-20T07:17:59Z</time>
      </trkpt>
      <trkpt lat="43.59148" lon="3.09309">
        <ele>210.4</ele>
        <time>2026-05-20T07:18:04Z</time>
      </trkpt>
      <trkpt lat="43.59147" lon="3.09307">
        <ele>210.5</ele>
        <time>2026-05-20T07:18:09Z</time>
      </trkpt>
      <trkpt lat="43.59147" lon="3.09306">
        <ele>210.5</ele>
        <time>2026-05-20T07:18:14Z</time>
      </trkpt>
      <trkpt lat="43.59147" lon="3.09306">
        <ele>210.5</ele>
        <time>2026-05-20T07:18:19Z</time>
      </trkpt>
      <trkpt lat="43.59136" lon="3.09305">
        <ele>210.1</ele>
        <time>2026-05-20T07:18:24Z</time>
      </trkpt>
      <trkpt lat="43.5913" lon="3.093">
        <ele>210.1</ele>
        <time>2026-05-20T07:18:29Z</time>
      </trkpt>
      <trkpt lat="43.59124" lon="3.09296">
        <ele>210</ele>
        <time>2026-05-20T07:18:34Z</time>
      </trkpt>
      <trkpt lat="43.59118" lon="3.09292">
        <ele>209.9</ele>
        <time>2026-05-20T07:18:39Z</time>
      </trkpt>
      <trkpt lat="43.59112" lon="3.0929">
        <ele>209.8</ele>
        <time>2026-05-20T07:18:44Z</time>
      </trkpt>
      <trkpt lat="43.59106" lon="3.09289">
        <ele>209.6</ele>
        <time>2026-05-20T07:18:49Z</time>
      </trkpt>
      <trkpt lat="43.59099" lon="3.09288">
        <ele>209.3</ele>
        <time>2026-05-20T07:18:54Z</time>
      </trkpt>
      <trkpt lat="43.59091" lon="3.09288">
        <ele>209</ele>
        <time>2026-05-20T07:18:59Z</time>
      </trkpt>
      <trkpt lat="43.59086" lon="3.09287">
        <ele>208.8</ele>
        <time>2026-05-20T07:19:04Z</time>
      </trkpt>
      <trkpt lat="43.59081" lon="3.09286">
        <ele>208.4</ele>
        <time>2026-05-20T07:19:09Z</time>
      </trkpt>
      <trkpt lat="43.59078" lon="3.09283">
        <ele>208.1</ele>
        <time>2026-05-20T07:19:14Z</time>
      </trkpt>
      <trkpt lat="43.59078" lon="3.09281">
        <ele>208.1</ele>
        <time>2026-05-20T07:19:19Z</time>
      </trkpt>
      <trkpt lat="43.59078" lon="3.0928">
        <ele>208.2</ele>
        <time>2026-05-20T07:19:24Z</time>
      </trkpt>
      <trkpt lat="43.59078" lon="3.0928">
        <ele>208.2</ele>
        <time>2026-05-20T07:19:29Z</time>
      </trkpt>
      <trkpt lat="43.59075" lon="3.09277">
        <ele>207.9</ele>
        <time>2026-05-20T07:19:34Z</time>
      </trkpt>
      <trkpt lat="43.59071" lon="3.09272">
        <ele>207.5</ele>
        <time>2026-05-20T07:19:39Z</time>
      </trkpt>
      <trkpt lat="43.59068" lon="3.09265">
        <ele>207.3</ele>
        <time>2026-05-20T07:19:44Z</time>
      </trkpt>
      <trkpt lat="43.59068" lon="3.09257">
        <ele>207.6</ele>
        <time>2026-05-20T07:19:49Z</time>
      </trkpt>
      <trkpt lat="43.59066" lon="3.09246">
        <ele>207.6</ele>
        <time>2026-05-20T07:19:54Z</time>
      </trkpt>
      <trkpt lat="43.59066" lon="3.0924">
        <ele>207.7</ele>
        <time>2026-05-20T07:19:59Z</time>
      </trkpt>
      <trkpt lat="43.59064" lon="3.09232">
        <ele>207.5</ele>
        <time>2026-05-20T07:20:04Z</time>
      </trkpt>
      <trkpt lat="43.59064" lon="3.09222">
        <ele>207.7</ele>
        <time>2026-05-20T07:20:09Z</time>
      </trkpt>
      <trkpt lat="43.59065" lon="3.09212">
        <ele>208.1</ele>
        <time>2026-05-20T07:20:14Z</time>
      </trkpt>
      <trkpt lat="43.59064" lon="3.09202">
        <ele>208.1</ele>
        <time>2026-05-20T07:20:19Z</time>
      </trkpt>
      <trkpt lat="43.59064" lon="3.09194">
        <ele>208.2</ele>
        <time>2026-05-20T07:20:24Z</time>
      </trkpt>
      <trkpt lat="43.59064" lon="3.09186">
        <ele>208.4</ele>
        <time>2026-05-20T07:20:29Z</time>
      </trkpt>
      <trkpt lat="43.59065" lon="3.09174">
        <ele>208.8</ele>
        <time>2026-05-20T07:20:34Z</time>
      </trkpt>
      <trkpt lat="43.59066" lon="3.09165">
        <ele>209.1</ele>
        <time>2026-05-20T07:20:39Z</time>
      </trkpt>
      <trkpt lat="43.59069" lon="3.09158">
        <ele>209.6</ele>
        <time>2026-05-20T07:20:44Z</time>
      </trkpt>
      <trkpt lat="43.59069" lon="3.09149">
        <ele>209.6</ele>
        <time>2026-05-20T07:20:49Z</time>
      </trkpt>
      <trkpt lat="43.59068" lon="3.09141">
        <ele>209.5</ele>
        <time>2026-05-20T07:20:54Z</time>
      </trkpt>
      <trkpt lat="43.59068" lon="3.09131">
        <ele>209.5</ele>
        <time>2026-05-20T07:20:59Z</time>
      </trkpt>
      <trkpt lat="43.59069" lon="3.09119">
        <ele>209.7</ele>
        <time>2026-05-20T07:21:04Z</time>
      </trkpt>
      <trkpt lat="43.5907" lon="3.09111">
        <ele>209.9</ele>
        <time>2026-05-20T07:21:09Z</time>
      </trkpt>
      <trkpt lat="43.59071" lon="3.09102">
        <ele>210</ele>
        <time>2026-05-20T07:21:14Z</time>
      </trkpt>
      <trkpt lat="43.59072" lon="3.09092">
        <ele>210.2</ele>
        <time>2026-05-20T07:21:19Z</time>
      </trkpt>
      <trkpt lat="43.59074" lon="3.09083">
        <ele>210.5</ele>
        <time>2026-05-20T07:21:24Z</time>
      </trkpt>
      <trkpt lat="43.59074" lon="3.09074">
        <ele>210.4</ele>
        <time>2026-05-20T07:21:29Z</time>
      </trkpt>
      <trkpt lat="43.59076" lon="3.09062">
        <ele>210.6</ele>
        <time>2026-05-20T07:21:34Z</time>
      </trkpt>
      <trkpt lat="43.59079" lon="3.09053">
        <ele>211</ele>
        <time>2026-05-20T07:21:39Z</time>
      </trkpt>
      <trkpt lat="43.59082" lon="3.09044">
        <ele>211.3</ele>
        <time>2026-05-20T07:21:44Z</time>
      </trkpt>
      <trkpt lat="43.59083" lon="3.09036">
        <ele>211.4</ele>
        <time>2026-05-20T07:21:49Z</time>
      </trkpt>
      <trkpt lat="43.59084" lon="3.09028">
        <ele>211.4</ele>
        <time>2026-05-20T07:21:54Z</time>
      </trkpt>
      <trkpt lat="43.59084" lon="3.09019">
        <ele>211.3</ele>
        <time>2026-05-20T07:21:59Z</time>
      </trkpt>
      <trkpt lat="43.59087" lon="3.0901">
        <ele>211.3</ele>
        <time>2026-05-20T07:22:04Z</time>
      </trkpt>
      <trkpt lat="43.59087" lon="3.08999">
        <ele>211.3</ele>
        <time>2026-05-20T07:22:09Z</time>
      </trkpt>
      <trkpt lat="43.59088" lon="3.08989">
        <ele>211.9</ele>
        <time>2026-05-20T07:22:14Z</time>
      </trkpt>
      <trkpt lat="43.59089" lon="3.08979">
        <ele>212.5</ele>
        <time>2026-05-20T07:22:19Z</time>
      </trkpt>
      <trkpt lat="43.59091" lon="3.0897">
        <ele>213.1</ele>
        <time>2026-05-20T07:22:24Z</time>
      </trkpt>
      <trkpt lat="43.59093" lon="3.08967">
        <ele>213.3</ele>
        <time>2026-05-20T07:22:29Z</time>
      </trkpt>
      <trkpt lat="43.59095" lon="3.08964">
        <ele>213.6</ele>
        <time>2026-05-20T07:22:34Z</time>
      </trkpt>
      <trkpt lat="43.59095" lon="3.08964">
        <ele>213.6</ele>
        <time>2026-05-20T07:22:39Z</time>
      </trkpt>
      <trkpt lat="43.59095" lon="3.08964">
        <ele>213.6</ele>
        <time>2026-05-20T07:22:44Z</time>
      </trkpt>
      <trkpt lat="43.59095" lon="3.08964">
        <ele>213.6</ele>
        <time>2026-05-20T07:22:49Z</time>
      </trkpt>
      <trkpt lat="43.59095" lon="3.08964">
        <ele>213.6</ele>
        <time>2026-05-20T07:22:54Z</time>
      </trkpt>
      <trkpt lat="43.59095" lon="3.08964">
        <ele>213.6</ele>
        <time>2026-05-20T07:22:59Z</time>
      </trkpt>
      <trkpt lat="43.59095" lon="3.08964">
        <ele>213.6</ele>
        <time>2026-05-20T07:23:04Z</time>
      </trkpt>
      <trkpt lat="43.59095" lon="3.08964">
        <ele>213.6</ele>
        <time>2026-05-20T07:23:09Z</time>
      </trkpt>
      <trkpt lat="43.59095" lon="3.08964">
        <ele>213.6</ele>
        <time>2026-05-20T07:23:14Z</time>
      </trkpt>
      <trkpt lat="43.59095" lon="3.08964">
        <ele>213.6</ele>
        <time>2026-05-20T07:23:19Z</time>
      </trkpt>
      <trkpt lat="43.59095" lon="3.08964">
        <ele>213.6</ele>
        <time>2026-05-20T07:23:24Z</time>
      </trkpt>
      <trkpt lat="43.59095" lon="3.08964">
        <ele>213.6</ele>
        <time>2026-05-20T07:23:29Z</time>
      </trkpt>
      <trkpt lat="43.59096" lon="3.08951">
        <ele>214.3</ele>
        <time>2026-05-20T07:23:34Z</time>
      </trkpt>
      <trkpt lat="43.59097" lon="3.08942">
        <ele>214.7</ele>
        <time>2026-05-20T07:23:39Z</time>
      </trkpt>
      <trkpt lat="43.59097" lon="3.08936">
        <ele>215</ele>
        <time>2026-05-20T07:23:44Z</time>
      </trkpt>
      <trkpt lat="43.59098" lon="3.08931">
        <ele>215.3</ele>
        <time>2026-05-20T07:23:49Z</time>
      </trkpt>
      <trkpt lat="43.591" lon="3.08923">
        <ele>215.7</ele>
        <time>2026-05-20T07:23:54Z</time>
      </trkpt>
      <trkpt lat="43.59101" lon="3.08916">
        <ele>216</ele>
        <time>2026-05-20T07:23:59Z</time>
      </trkpt>
      <trkpt lat="43.59101" lon="3.08908">
        <ele>216.3</ele>
        <time>2026-05-20T07:24:04Z</time>
      </trkpt>
      <trkpt lat="43.59102" lon="3.08899">
        <ele>216.6</ele>
        <time>2026-05-20T07:24:09Z</time>
      </trkpt>
      <trkpt lat="43.59105" lon="3.08891">
        <ele>216.8</ele>
        <time>2026-05-20T07:24:14Z</time>
      </trkpt>
      <trkpt lat="43.59106" lon="3.08879">
        <ele>217.1</ele>
        <time>2026-05-20T07:24:19Z</time>
      </trkpt>
      <trkpt lat="43.59109" lon="3.08871">
        <ele>217.2</ele>
        <time>2026-05-20T07:24:24Z</time>
      </trkpt>
      <trkpt lat="43.59112" lon="3.08862">
        <ele>217.3</ele>
        <time>2026-05-20T07:24:29Z</time>
      </trkpt>
      <trkpt lat="43.59115" lon="3.08852">
        <ele>217.3</ele>
        <time>2026-05-20T07:24:34Z</time>
      </trkpt>
      <trkpt lat="43.59118" lon="3.08844">
        <ele>217.3</ele>
        <time>2026-05-20T07:24:39Z</time>
      </trkpt>
      <trkpt lat="43.59121" lon="3.08836">
        <ele>217.2</ele>
        <time>2026-05-20T07:24:44Z</time>
      </trkpt>
      <trkpt lat="43.59122" lon="3.08828">
        <ele>217</ele>
        <time>2026-05-20T07:24:49Z</time>
      </trkpt>
      <trkpt lat="43.59125" lon="3.08819">
        <ele>216.5</ele>
        <time>2026-05-20T07:24:54Z</time>
      </trkpt>
      <trkpt lat="43.59129" lon="3.08809">
        <ele>215.8</ele>
        <time>2026-05-20T07:24:59Z</time>
      </trkpt>
      <trkpt lat="43.59132" lon="3.08799">
        <ele>215.1</ele>
        <time>2026-05-20T07:25:04Z</time>
      </trkpt>
      <trkpt lat="43.59135" lon="3.08792">
        <ele>214.4</ele>
        <time>2026-05-20T07:25:09Z</time>
      </trkpt>
      <trkpt lat="43.59136" lon="3.08782">
        <ele>213.9</ele>
        <time>2026-05-20T07:25:14Z</time>
      </trkpt>
      <trkpt lat="43.59136" lon="3.08773">
        <ele>213.5</ele>
        <time>2026-05-20T07:25:19Z</time>
      </trkpt>
      <trkpt lat="43.59136" lon="3.08763">
        <ele>213</ele>
        <time>2026-05-20T07:25:24Z</time>
      </trkpt>
      <trkpt lat="43.59138" lon="3.08754">
        <ele>212.3</ele>
        <time>2026-05-20T07:25:29Z</time>
      </trkpt>
      <trkpt lat="43.59141" lon="3.08747">
        <ele>211.5</ele>
        <time>2026-05-20T07:25:34Z</time>
      </trkpt>
      <trkpt lat="43.59144" lon="3.08738">
        <ele>210.4</ele>
        <time>2026-05-20T07:25:39Z</time>
      </trkpt>
      <trkpt lat="43.59146" lon="3.08733">
        <ele>209.7</ele>
        <time>2026-05-20T07:25:44Z</time>
      </trkpt>
      <trkpt lat="43.59148" lon="3.08731">
        <ele>209.2</ele>
        <time>2026-05-20T07:25:49Z</time>
      </trkpt>
      <trkpt lat="43.59149" lon="3.08731">
        <ele>209.1</ele>
        <time>2026-05-20T07:25:54Z</time>
      </trkpt>
      <trkpt lat="43.59151" lon="3.08724">
        <ele>208.2</ele>
        <time>2026-05-20T07:25:59Z</time>
      </trkpt>
      <trkpt lat="43.59154" lon="3.08717">
        <ele>207.2</ele>
        <time>2026-05-20T07:26:04Z</time>
      </trkpt>
      <trkpt lat="43.59154" lon="3.0871">
        <ele>206.7</ele>
        <time>2026-05-20T07:26:09Z</time>
      </trkpt>
      <trkpt lat="43.59156" lon="3.08703">
        <ele>205.8</ele>
        <time>2026-05-20T07:26:14Z</time>
      </trkpt>
      <trkpt lat="43.59159" lon="3.08702">
        <ele>205.2</ele>
        <time>2026-05-20T07:26:19Z</time>
      </trkpt>
      <trkpt lat="43.5916" lon="3.08702">
        <ele>205.1</ele>
        <time>2026-05-20T07:26:24Z</time>
      </trkpt>
      <trkpt lat="43.59163" lon="3.08696">
        <ele>204.1</ele>
        <time>2026-05-20T07:26:29Z</time>
      </trkpt>
      <trkpt lat="43.59164" lon="3.08691">
        <ele>203.5</ele>
        <time>2026-05-20T07:26:34Z</time>
      </trkpt>
      <trkpt lat="43.59164" lon="3.08688">
        <ele>203.2</ele>
        <time>2026-05-20T07:26:39Z</time>
      </trkpt>
      <trkpt lat="43.59163" lon="3.08688">
        <ele>203.4</ele>
        <time>2026-05-20T07:26:44Z</time>
      </trkpt>
      <trkpt lat="43.59163" lon="3.08688">
        <ele>203.4</ele>
        <time>2026-05-20T07:26:49Z</time>
      </trkpt>
      <trkpt lat="43.59163" lon="3.08684">
        <ele>203.1</ele>
        <time>2026-05-20T07:26:54Z</time>
      </trkpt>
      <trkpt lat="43.59165" lon="3.08679">
        <ele>202.3</ele>
        <time>2026-05-20T07:26:59Z</time>
      </trkpt>
      <trkpt lat="43.59169" lon="3.08673">
        <ele>201.3</ele>
        <time>2026-05-20T07:27:04Z</time>
      </trkpt>
      <trkpt lat="43.59173" lon="3.08668">
        <ele>200.6</ele>
        <time>2026-05-20T07:27:08Z</time>
      </trkpt>
      <trkpt lat="43.59178" lon="3.08662">
        <ele>199.6</ele>
        <time>2026-05-20T07:27:14Z</time>
      </trkpt>
      <trkpt lat="43.59184" lon="3.08658">
        <ele>198.6</ele>
        <time>2026-05-20T07:27:19Z</time>
      </trkpt>
      <trkpt lat="43.5919" lon="3.08651">
        <ele>197.4</ele>
        <time>2026-05-20T07:27:24Z</time>
      </trkpt>
      <trkpt lat="43.59194" lon="3.08646">
        <ele>196.6</ele>
        <time>2026-05-20T07:27:29Z</time>
      </trkpt>
      <trkpt lat="43.59199" lon="3.08642">
        <ele>195.7</ele>
        <time>2026-05-20T07:27:34Z</time>
      </trkpt>
      <trkpt lat="43.59204" lon="3.08636">
        <ele>194.7</ele>
        <time>2026-05-20T07:27:39Z</time>
      </trkpt>
      <trkpt lat="43.5921" lon="3.0863">
        <ele>193.6</ele>
        <time>2026-05-20T07:27:44Z</time>
      </trkpt>
      <trkpt lat="43.59214" lon="3.08624">
        <ele>192.7</ele>
        <time>2026-05-20T07:27:49Z</time>
      </trkpt>
      <trkpt lat="43.59219" lon="3.08619">
        <ele>191.8</ele>
        <time>2026-05-20T07:27:54Z</time>
      </trkpt>
      <trkpt lat="43.59225" lon="3.08613">
        <ele>190.8</ele>
        <time>2026-05-20T07:27:59Z</time>
      </trkpt>
      <trkpt lat="43.59231" lon="3.08606">
        <ele>189.6</ele>
        <time>2026-05-20T07:28:04Z</time>
      </trkpt>
      <trkpt lat="43.59236" lon="3.086">
        <ele>188.6</ele>
        <time>2026-05-20T07:28:09Z</time>
      </trkpt>
      <trkpt lat="43.59238" lon="3.08597">
        <ele>188.2</ele>
        <time>2026-05-20T07:28:14Z</time>
      </trkpt>
      <trkpt lat="43.5924" lon="3.08594">
        <ele>187.8</ele>
        <time>2026-05-20T07:28:19Z</time>
      </trkpt>
      <trkpt lat="43.59246" lon="3.08588">
        <ele>186.7</ele>
        <time>2026-05-20T07:28:24Z</time>
      </trkpt>
      <trkpt lat="43.59252" lon="3.08584">
        <ele>186.2</ele>
        <time>2026-05-20T07:28:29Z</time>
      </trkpt>
      <trkpt lat="43.59258" lon="3.08579">
        <ele>186.1</ele>
        <time>2026-05-20T07:28:34Z</time>
      </trkpt>
      <trkpt lat="43.59262" lon="3.08573">
        <ele>185.8</ele>
        <time>2026-05-20T07:28:39Z</time>
      </trkpt>
      <trkpt lat="43.59265" lon="3.08569">
        <ele>185.7</ele>
        <time>2026-05-20T07:28:44Z</time>
      </trkpt>
      <trkpt lat="43.59272" lon="3.08566">
        <ele>185.7</ele>
        <time>2026-05-20T07:28:49Z</time>
      </trkpt>
      <trkpt lat="43.59278" lon="3.08563">
        <ele>185.6</ele>
        <time>2026-05-20T07:28:54Z</time>
      </trkpt>
      <trkpt lat="43.5928" lon="3.08566">
        <ele>186</ele>
        <time>2026-05-20T07:28:59Z</time>
      </trkpt>
      <trkpt lat="43.59282" lon="3.08567">
        <ele>186.1</ele>
        <time>2026-05-20T07:29:04Z</time>
      </trkpt>
      <trkpt lat="43.59282" lon="3.08567">
        <ele>186.1</ele>
        <time>2026-05-20T07:29:09Z</time>
      </trkpt>
      <trkpt lat="43.59286" lon="3.08564">
        <ele>186</ele>
        <time>2026-05-20T07:29:14Z</time>
      </trkpt>
      <trkpt lat="43.5929" lon="3.08559">
        <ele>185.6</ele>
        <time>2026-05-20T07:29:19Z</time>
      </trkpt>
      <trkpt lat="43.59297" lon="3.08557">
        <ele>185.6</ele>
        <time>2026-05-20T07:29:24Z</time>
      </trkpt>
      <trkpt lat="43.59303" lon="3.08554">
        <ele>185.4</ele>
        <time>2026-05-20T07:29:29Z</time>
      </trkpt>
      <trkpt lat="43.59308" lon="3.08552">
        <ele>185.3</ele>
        <time>2026-05-20T07:29:34Z</time>
      </trkpt>
      <trkpt lat="43.59314" lon="3.0855">
        <ele>185.2</ele>
        <time>2026-05-20T07:29:39Z</time>
      </trkpt>
      <trkpt lat="43.59321" lon="3.0855">
        <ele>185.4</ele>
        <time>2026-05-20T07:29:44Z</time>
      </trkpt>
      <trkpt lat="43.59326" lon="3.08549">
        <ele>185.3</ele>
        <time>2026-05-20T07:29:49Z</time>
      </trkpt>
      <trkpt lat="43.59333" lon="3.08549">
        <ele>185.5</ele>
        <time>2026-05-20T07:29:54Z</time>
      </trkpt>
      <trkpt lat="43.59339" lon="3.08548">
        <ele>185.7</ele>
        <time>2026-05-20T07:29:59Z</time>
      </trkpt>
      <trkpt lat="43.59346" lon="3.08546">
        <ele>185.9</ele>
        <time>2026-05-20T07:30:04Z</time>
      </trkpt>
      <trkpt lat="43.59354" lon="3.08545">
        <ele>186.3</ele>
        <time>2026-05-20T07:30:09Z</time>
      </trkpt>
      <trkpt lat="43.59361" lon="3.08542">
        <ele>186.4</ele>
        <time>2026-05-20T07:30:14Z</time>
      </trkpt>
      <trkpt lat="43.5937" lon="3.0854">
        <ele>186.7</ele>
        <time>2026-05-20T07:30:19Z</time>
      </trkpt>
      <trkpt lat="43.59376" lon="3.08537">
        <ele>186.6</ele>
        <time>2026-05-20T07:30:24Z</time>
      </trkpt>
      <trkpt lat="43.59383" lon="3.08532">
        <ele>186.3</ele>
        <time>2026-05-20T07:30:29Z</time>
      </trkpt>
      <trkpt lat="43.59389" lon="3.08526">
        <ele>185.7</ele>
        <time>2026-05-20T07:30:34Z</time>
      </trkpt>
      <trkpt lat="43.59394" lon="3.08521">
        <ele>185.2</ele>
        <time>2026-05-20T07:30:39Z</time>
      </trkpt>
      <trkpt lat="43.59402" lon="3.08516">
        <ele>184.9</ele>
        <time>2026-05-20T07:30:44Z</time>
      </trkpt>
      <trkpt lat="43.59407" lon="3.08513">
        <ele>184.7</ele>
        <time>2026-05-20T07:30:49Z</time>
      </trkpt>
      <trkpt lat="43.59415" lon="3.0851">
        <ele>184.6</ele>
        <time>2026-05-20T07:30:54Z</time>
      </trkpt>
      <trkpt lat="43.5942" lon="3.08507">
        <ele>184.1</ele>
        <time>2026-05-20T07:30:59Z</time>
      </trkpt>
      <trkpt lat="43.59426" lon="3.08502">
        <ele>183.2</ele>
        <time>2026-05-20T07:31:04Z</time>
      </trkpt>
      <trkpt lat="43.59433" lon="3.08498">
        <ele>182.7</ele>
        <time>2026-05-20T07:31:09Z</time>
      </trkpt>
      <trkpt lat="43.59438" lon="3.08493">
        <ele>182.5</ele>
        <time>2026-05-20T07:31:14Z</time>
      </trkpt>
      <trkpt lat="43.59444" lon="3.08488">
        <ele>182.2</ele>
        <time>2026-05-20T07:31:19Z</time>
      </trkpt>
      <trkpt lat="43.59452" lon="3.08485">
        <ele>182</ele>
        <time>2026-05-20T07:31:24Z</time>
      </trkpt>
      <trkpt lat="43.59458" lon="3.08482">
        <ele>181.7</ele>
        <time>2026-05-20T07:31:29Z</time>
      </trkpt>
      <trkpt lat="43.59463" lon="3.08476">
        <ele>181.4</ele>
        <time>2026-05-20T07:31:34Z</time>
      </trkpt>
      <trkpt lat="43.59465" lon="3.08466">
        <ele>181</ele>
        <time>2026-05-20T07:31:39Z</time>
      </trkpt>
      <trkpt lat="43.59467" lon="3.08458">
        <ele>180.6</ele>
        <time>2026-05-20T07:31:44Z</time>
      </trkpt>
      <trkpt lat="43.59471" lon="3.08451">
        <ele>180.2</ele>
        <time>2026-05-20T07:31:49Z</time>
      </trkpt>
      <trkpt lat="43.59471" lon="3.08442">
        <ele>179.8</ele>
        <time>2026-05-20T07:31:54Z</time>
      </trkpt>
      <trkpt lat="43.59473" lon="3.08435">
        <ele>179.5</ele>
        <time>2026-05-20T07:31:59Z</time>
      </trkpt>
      <trkpt lat="43.59478" lon="3.08431">
        <ele>179.2</ele>
        <time>2026-05-20T07:32:04Z</time>
      </trkpt>
      <trkpt lat="43.59483" lon="3.08429">
        <ele>179</ele>
        <time>2026-05-20T07:32:09Z</time>
      </trkpt>
      <trkpt lat="43.59489" lon="3.08424">
        <ele>178.6</ele>
        <time>2026-05-20T07:32:14Z</time>
      </trkpt>
      <trkpt lat="43.59494" lon="3.08419">
        <ele>178.3</ele>
        <time>2026-05-20T07:32:19Z</time>
      </trkpt>
      <trkpt lat="43.59498" lon="3.08415">
        <ele>178.1</ele>
        <time>2026-05-20T07:32:24Z</time>
      </trkpt>
      <trkpt lat="43.59499" lon="3.08407">
        <ele>178.3</ele>
        <time>2026-05-20T07:32:29Z</time>
      </trkpt>
      <trkpt lat="43.59501" lon="3.084">
        <ele>178.4</ele>
        <time>2026-05-20T07:32:34Z</time>
      </trkpt>
      <trkpt lat="43.59505" lon="3.08393">
        <ele>178.8</ele>
        <time>2026-05-20T07:32:39Z</time>
      </trkpt>
      <trkpt lat="43.59508" lon="3.08384">
        <ele>179.1</ele>
        <time>2026-05-20T07:32:44Z</time>
      </trkpt>
      <trkpt lat="43.59512" lon="3.08375">
        <ele>179.4</ele>
        <time>2026-05-20T07:32:49Z</time>
      </trkpt>
      <trkpt lat="43.59514" lon="3.08366">
        <ele>179.7</ele>
        <time>2026-05-20T07:32:54Z</time>
      </trkpt>
      <trkpt lat="43.59516" lon="3.08358">
        <ele>179.9</ele>
        <time>2026-05-20T07:32:59Z</time>
      </trkpt>
      <trkpt lat="43.59517" lon="3.0835">
        <ele>180.1</ele>
        <time>2026-05-20T07:33:04Z</time>
      </trkpt>
      <trkpt lat="43.59519" lon="3.08342">
        <ele>180.3</ele>
        <time>2026-05-20T07:33:09Z</time>
      </trkpt>
      <trkpt lat="43.59521" lon="3.08334">
        <ele>180.5</ele>
        <time>2026-05-20T07:33:14Z</time>
      </trkpt>
      <trkpt lat="43.59522" lon="3.08326">
        <ele>180.8</ele>
        <time>2026-05-20T07:33:19Z</time>
      </trkpt>
      <trkpt lat="43.59524" lon="3.08319">
        <ele>181.2</ele>
        <time>2026-05-20T07:33:24Z</time>
      </trkpt>
      <trkpt lat="43.59524" lon="3.08311">
        <ele>181.5</ele>
        <time>2026-05-20T07:33:29Z</time>
      </trkpt>
      <trkpt lat="43.59524" lon="3.08306">
        <ele>181.7</ele>
        <time>2026-05-20T07:33:34Z</time>
      </trkpt>
      <trkpt lat="43.59527" lon="3.08298">
        <ele>182.2</ele>
        <time>2026-05-20T07:33:39Z</time>
      </trkpt>
      <trkpt lat="43.59532" lon="3.0829">
        <ele>182.7</ele>
        <time>2026-05-20T07:33:44Z</time>
      </trkpt>
      <trkpt lat="43.59535" lon="3.08283">
        <ele>183.2</ele>
        <time>2026-05-20T07:33:49Z</time>
      </trkpt>
      <trkpt lat="43.59538" lon="3.08275">
        <ele>183.7</ele>
        <time>2026-05-20T07:33:54Z</time>
      </trkpt>
      <trkpt lat="43.59539" lon="3.08265">
        <ele>184.2</ele>
        <time>2026-05-20T07:33:59Z</time>
      </trkpt>
      <trkpt lat="43.5954" lon="3.08257">
        <ele>184.6</ele>
        <time>2026-05-20T07:34:04Z</time>
      </trkpt>
      <trkpt lat="43.5954" lon="3.08251">
        <ele>184.9</ele>
        <time>2026-05-20T07:34:09Z</time>
      </trkpt>
      <trkpt lat="43.5954" lon="3.08247">
        <ele>185</ele>
        <time>2026-05-20T07:34:14Z</time>
      </trkpt>
      <trkpt lat="43.59541" lon="3.0824">
        <ele>185.3</ele>
        <time>2026-05-20T07:34:19Z</time>
      </trkpt>
      <trkpt lat="43.59542" lon="3.08233">
        <ele>185.5</ele>
        <time>2026-05-20T07:34:24Z</time>
      </trkpt>
      <trkpt lat="43.59542" lon="3.08227">
        <ele>185.7</ele>
        <time>2026-05-20T07:34:29Z</time>
      </trkpt>
      <trkpt lat="43.59542" lon="3.08227">
        <ele>185.7</ele>
        <time>2026-05-20T07:34:34Z</time>
      </trkpt>
      <trkpt lat="43.59549" lon="3.0823">
        <ele>185.9</ele>
        <time>2026-05-20T07:34:39Z</time>
      </trkpt>
      <trkpt lat="43.59549" lon="3.0823">
        <ele>185.9</ele>
        <time>2026-05-20T07:34:39Z</time>
      </trkpt>
      <trkpt lat="43.59556" lon="3.08193">
        <ele>187.3</ele>
        <time>2026-05-20T08:11:37Z</time>
      </trkpt>
      <trkpt lat="43.59556" lon="3.08223">
        <ele>186.4</ele>
        <time>2026-05-20T08:11:43Z</time>
      </trkpt>
      <trkpt lat="43.59556" lon="3.08223">
        <ele>186.4</ele>
        <time>2026-05-20T08:11:48Z</time>
      </trkpt>
      <trkpt lat="43.59552" lon="3.0822">
        <ele>186.4</ele>
        <time>2026-05-20T08:11:53Z</time>
      </trkpt>
      <trkpt lat="43.59551" lon="3.08216">
        <ele>186.4</ele>
        <time>2026-05-20T08:11:58Z</time>
      </trkpt>
      <trkpt lat="43.5955" lon="3.08215">
        <ele>186.4</ele>
        <time>2026-05-20T08:12:03Z</time>
      </trkpt>
      <trkpt lat="43.59547" lon="3.08215">
        <ele>186.3</ele>
        <time>2026-05-20T08:12:08Z</time>
      </trkpt>
      <trkpt lat="43.59544" lon="3.08213">
        <ele>186.2</ele>
        <time>2026-05-20T08:12:13Z</time>
      </trkpt>
      <trkpt lat="43.59542" lon="3.08209">
        <ele>186.2</ele>
        <time>2026-05-20T08:12:18Z</time>
      </trkpt>
      <trkpt lat="43.59537" lon="3.08212">
        <ele>185.9</ele>
        <time>2026-05-20T08:12:23Z</time>
      </trkpt>
      <trkpt lat="43.59532" lon="3.08215">
        <ele>185.6</ele>
        <time>2026-05-20T08:12:28Z</time>
      </trkpt>
      <trkpt lat="43.59526" lon="3.08216">
        <ele>185.3</ele>
        <time>2026-05-20T08:12:33Z</time>
      </trkpt>
      <trkpt lat="43.59522" lon="3.08219">
        <ele>185.1</ele>
        <time>2026-05-20T08:12:38Z</time>
      </trkpt>
      <trkpt lat="43.59514" lon="3.08222">
        <ele>184.6</ele>
        <time>2026-05-20T08:12:43Z</time>
      </trkpt>
      <trkpt lat="43.59506" lon="3.08224">
        <ele>184.2</ele>
        <time>2026-05-20T08:12:48Z</time>
      </trkpt>
      <trkpt lat="43.59501" lon="3.08225">
        <ele>183.9</ele>
        <time>2026-05-20T08:12:53Z</time>
      </trkpt>
      <trkpt lat="43.59495" lon="3.08225">
        <ele>184.1</ele>
        <time>2026-05-20T08:12:58Z</time>
      </trkpt>
      <trkpt lat="43.5949" lon="3.08226">
        <ele>184.3</ele>
        <time>2026-05-20T08:13:03Z</time>
      </trkpt>
      <trkpt lat="43.59484" lon="3.08226">
        <ele>184.6</ele>
        <time>2026-05-20T08:13:08Z</time>
      </trkpt>
      <trkpt lat="43.59478" lon="3.08223">
        <ele>184.9</ele>
        <time>2026-05-20T08:13:13Z</time>
      </trkpt>
      <trkpt lat="43.59473" lon="3.08223">
        <ele>185.2</ele>
        <time>2026-05-20T08:13:18Z</time>
      </trkpt>
      <trkpt lat="43.59468" lon="3.08224">
        <ele>185.4</ele>
        <time>2026-05-20T08:13:23Z</time>
      </trkpt>
      <trkpt lat="43.59462" lon="3.08224">
        <ele>185.6</ele>
        <time>2026-05-20T08:13:28Z</time>
      </trkpt>
      <trkpt lat="43.59456" lon="3.08225">
        <ele>185.9</ele>
        <time>2026-05-20T08:13:33Z</time>
      </trkpt>
      <trkpt lat="43.5945" lon="3.08226">
        <ele>186.1</ele>
        <time>2026-05-20T08:13:38Z</time>
      </trkpt>
      <trkpt lat="43.59446" lon="3.08224">
        <ele>186.3</ele>
        <time>2026-05-20T08:13:43Z</time>
      </trkpt>
      <trkpt lat="43.59442" lon="3.08224">
        <ele>186.5</ele>
        <time>2026-05-20T08:13:48Z</time>
      </trkpt>
      <trkpt lat="43.59441" lon="3.08225">
        <ele>186.5</ele>
        <time>2026-05-20T08:13:53Z</time>
      </trkpt>
      <trkpt lat="43.59441" lon="3.08225">
        <ele>186.5</ele>
        <time>2026-05-20T08:13:58Z</time>
      </trkpt>
      <trkpt lat="43.59441" lon="3.08225">
        <ele>186.5</ele>
        <time>2026-05-20T08:14:03Z</time>
      </trkpt>
      <trkpt lat="43.59441" lon="3.08225">
        <ele>186.5</ele>
        <time>2026-05-20T08:14:08Z</time>
      </trkpt>
      <trkpt lat="43.59441" lon="3.08225">
        <ele>186.5</ele>
        <time>2026-05-20T08:14:13Z</time>
      </trkpt>
      <trkpt lat="43.59441" lon="3.08225">
        <ele>186.5</ele>
        <time>2026-05-20T08:14:18Z</time>
      </trkpt>
      <trkpt lat="43.59441" lon="3.08225">
        <ele>186.5</ele>
        <time>2026-05-20T08:14:23Z</time>
      </trkpt>
      <trkpt lat="43.59441" lon="3.08225">
        <ele>186.5</ele>
        <time>2026-05-20T08:14:28Z</time>
      </trkpt>
      <trkpt lat="43.59441" lon="3.08225">
        <ele>186.5</ele>
        <time>2026-05-20T08:14:33Z</time>
      </trkpt>
      <trkpt lat="43.59441" lon="3.08225">
        <ele>186.5</ele>
        <time>2026-05-20T08:14:38Z</time>
      </trkpt>
      <trkpt lat="43.59441" lon="3.08225">
        <ele>186.5</ele>
        <time>2026-05-20T08:14:43Z</time>
      </trkpt>
      <trkpt lat="43.59441" lon="3.08225">
        <ele>186.5</ele>
        <time>2026-05-20T08:14:48Z</time>
      </trkpt>
      <trkpt lat="43.59441" lon="3.08225">
        <ele>186.5</ele>
        <time>2026-05-20T08:14:53Z</time>
      </trkpt>
      <trkpt lat="43.59441" lon="3.08225">
        <ele>186.5</ele>
        <time>2026-05-20T08:14:58Z</time>
      </trkpt>
      <trkpt lat="43.59441" lon="3.08225">
        <ele>186.5</ele>
        <time>2026-05-20T08:15:03Z</time>
      </trkpt>
      <trkpt lat="43.59441" lon="3.08225">
        <ele>186.5</ele>
        <time>2026-05-20T08:15:08Z</time>
      </trkpt>
      <trkpt lat="43.59441" lon="3.08225">
        <ele>186.5</ele>
        <time>2026-05-20T08:15:13Z</time>
      </trkpt>
      <trkpt lat="43.59441" lon="3.08225">
        <ele>186.5</ele>
        <time>2026-05-20T08:15:18Z</time>
      </trkpt>
      <trkpt lat="43.59441" lon="3.08225">
        <ele>186.5</ele>
        <time>2026-05-20T08:15:23Z</time>
      </trkpt>
      <trkpt lat="43.59441" lon="3.08225">
        <ele>186.5</ele>
        <time>2026-05-20T08:15:28Z</time>
      </trkpt>
      <trkpt lat="43.59441" lon="3.08225">
        <ele>186.5</ele>
        <time>2026-05-20T08:15:33Z</time>
      </trkpt>
      <trkpt lat="43.59432" lon="3.08233">
        <ele>186.7</ele>
        <time>2026-05-20T08:15:38Z</time>
      </trkpt>
      <trkpt lat="43.59428" lon="3.08233">
        <ele>186.9</ele>
        <time>2026-05-20T08:15:43Z</time>
      </trkpt>
      <trkpt lat="43.59423" lon="3.08232">
        <ele>187.1</ele>
        <time>2026-05-20T08:15:48Z</time>
      </trkpt>
      <trkpt lat="43.59418" lon="3.08231">
        <ele>187.4</ele>
        <time>2026-05-20T08:15:53Z</time>
      </trkpt>
      <trkpt lat="43.59413" lon="3.08231">
        <ele>187.5</ele>
        <time>2026-05-20T08:15:58Z</time>
      </trkpt>
      <trkpt lat="43.59408" lon="3.08231">
        <ele>187.6</ele>
        <time>2026-05-20T08:16:03Z</time>
      </trkpt>
      <trkpt lat="43.594" lon="3.08228">
        <ele>187.9</ele>
        <time>2026-05-20T08:16:08Z</time>
      </trkpt>
      <trkpt lat="43.59399" lon="3.08226">
        <ele>188</ele>
        <time>2026-05-20T08:16:13Z</time>
      </trkpt>
      <trkpt lat="43.59402" lon="3.08226">
        <ele>187.9</ele>
        <time>2026-05-20T08:16:18Z</time>
      </trkpt>
      <trkpt lat="43.59408" lon="3.08224">
        <ele>187.9</ele>
        <time>2026-05-20T08:16:23Z</time>
      </trkpt>
      <trkpt lat="43.59412" lon="3.08226">
        <ele>187.7</ele>
        <time>2026-05-20T08:16:28Z</time>
      </trkpt>
      <trkpt lat="43.59418" lon="3.08223">
        <ele>187.6</ele>
        <time>2026-05-20T08:16:33Z</time>
      </trkpt>
      <trkpt lat="43.59422" lon="3.08222">
        <ele>187.4</ele>
        <time>2026-05-20T08:16:38Z</time>
      </trkpt>
      <trkpt lat="43.59426" lon="3.08222">
        <ele>187.3</ele>
        <time>2026-05-20T08:16:43Z</time>
      </trkpt>
      <trkpt lat="43.59432" lon="3.08222">
        <ele>187</ele>
        <time>2026-05-20T08:16:48Z</time>
      </trkpt>
      <trkpt lat="43.5944" lon="3.08221">
        <ele>186.7</ele>
        <time>2026-05-20T08:16:53Z</time>
      </trkpt>
      <trkpt lat="43.59447" lon="3.08221">
        <ele>186.4</ele>
        <time>2026-05-20T08:16:58Z</time>
      </trkpt>
      <trkpt lat="43.59453" lon="3.08223">
        <ele>186</ele>
        <time>2026-05-20T08:17:03Z</time>
      </trkpt>
      <trkpt lat="43.5946" lon="3.08224">
        <ele>185.7</ele>
        <time>2026-05-20T08:17:08Z</time>
      </trkpt>
      <trkpt lat="43.59462" lon="3.08218">
        <ele>185.8</ele>
        <time>2026-05-20T08:17:13Z</time>
      </trkpt>
      <trkpt lat="43.59463" lon="3.08211">
        <ele>186</ele>
        <time>2026-05-20T08:17:18Z</time>
      </trkpt>
      <trkpt lat="43.59462" lon="3.08204">
        <ele>186.2</ele>
        <time>2026-05-20T08:17:23Z</time>
      </trkpt>
      <trkpt lat="43.59463" lon="3.08195">
        <ele>186.5</ele>
        <time>2026-05-20T08:17:28Z</time>
      </trkpt>
      <trkpt lat="43.59465" lon="3.08187">
        <ele>186.6</ele>
        <time>2026-05-20T08:17:33Z</time>
      </trkpt>
      <trkpt lat="43.59465" lon="3.08181">
        <ele>186.8</ele>
        <time>2026-05-20T08:17:38Z</time>
      </trkpt>
      <trkpt lat="43.59465" lon="3.08176">
        <ele>187</ele>
        <time>2026-05-20T08:17:43Z</time>
      </trkpt>
      <trkpt lat="43.59463" lon="3.0817">
        <ele>187.2</ele>
        <time>2026-05-20T08:17:48Z</time>
      </trkpt>
      <trkpt lat="43.59463" lon="3.08161">
        <ele>187.7</ele>
        <time>2026-05-20T08:17:53Z</time>
      </trkpt>
      <trkpt lat="43.59461" lon="3.08154">
        <ele>188.3</ele>
        <time>2026-05-20T08:17:58Z</time>
      </trkpt>
      <trkpt lat="43.59459" lon="3.08148">
        <ele>188.7</ele>
        <time>2026-05-20T08:18:03Z</time>
      </trkpt>
      <trkpt lat="43.59458" lon="3.08141">
        <ele>189.2</ele>
        <time>2026-05-20T08:18:08Z</time>
      </trkpt>
      <trkpt lat="43.59457" lon="3.08134">
        <ele>189.7</ele>
        <time>2026-05-20T08:18:13Z</time>
      </trkpt>
      <trkpt lat="43.59456" lon="3.08125">
        <ele>190.3</ele>
        <time>2026-05-20T08:18:18Z</time>
      </trkpt>
      <trkpt lat="43.59455" lon="3.08117">
        <ele>190.8</ele>
        <time>2026-05-20T08:18:23Z</time>
      </trkpt>
      <trkpt lat="43.59454" lon="3.08108">
        <ele>191.3</ele>
        <time>2026-05-20T08:18:28Z</time>
      </trkpt>
      <trkpt lat="43.59454" lon="3.08099">
        <ele>191.9</ele>
        <time>2026-05-20T08:18:33Z</time>
      </trkpt>
      <trkpt lat="43.59455" lon="3.08092">
        <ele>192.4</ele>
        <time>2026-05-20T08:18:38Z</time>
      </trkpt>
      <trkpt lat="43.59452" lon="3.08093">
        <ele>192.3</ele>
        <time>2026-05-20T08:18:43Z</time>
      </trkpt>
      <trkpt lat="43.59448" lon="3.08092">
        <ele>192.2</ele>
        <time>2026-05-20T08:18:48Z</time>
      </trkpt>
      <trkpt lat="43.59444" lon="3.08091">
        <ele>192.2</ele>
        <time>2026-05-20T08:18:53Z</time>
      </trkpt>
      <trkpt lat="43.59441" lon="3.08091">
        <ele>192.2</ele>
        <time>2026-05-20T08:18:58Z</time>
      </trkpt>
      <trkpt lat="43.5944" lon="3.08088">
        <ele>192.3</ele>
        <time>2026-05-20T08:19:03Z</time>
      </trkpt>
      <trkpt lat="43.59435" lon="3.08088">
        <ele>192.2</ele>
        <time>2026-05-20T08:19:08Z</time>
      </trkpt>
      <trkpt lat="43.59431" lon="3.08086">
        <ele>192.2</ele>
        <time>2026-05-20T08:19:13Z</time>
      </trkpt>
      <trkpt lat="43.59431" lon="3.08085">
        <ele>192.3</ele>
        <time>2026-05-20T08:19:18Z</time>
      </trkpt>
      <trkpt lat="43.59431" lon="3.08085">
        <ele>192.3</ele>
        <time>2026-05-20T08:19:23Z</time>
      </trkpt>
      <trkpt lat="43.59431" lon="3.08085">
        <ele>192.3</ele>
        <time>2026-05-20T08:19:28Z</time>
      </trkpt>
      <trkpt lat="43.59431" lon="3.08085">
        <ele>192.3</ele>
        <time>2026-05-20T08:19:33Z</time>
      </trkpt>
      <trkpt lat="43.59431" lon="3.08085">
        <ele>192.3</ele>
        <time>2026-05-20T08:19:38Z</time>
      </trkpt>
      <trkpt lat="43.59431" lon="3.08085">
        <ele>192.3</ele>
        <time>2026-05-20T08:19:43Z</time>
      </trkpt>
      <trkpt lat="43.59431" lon="3.08085">
        <ele>192.3</ele>
        <time>2026-05-20T08:19:48Z</time>
      </trkpt>
      <trkpt lat="43.59431" lon="3.08085">
        <ele>192.3</ele>
        <time>2026-05-20T08:19:53Z</time>
      </trkpt>
      <trkpt lat="43.59431" lon="3.08085">
        <ele>192.3</ele>
        <time>2026-05-20T08:19:58Z</time>
      </trkpt>
      <trkpt lat="43.59431" lon="3.08085">
        <ele>192.3</ele>
        <time>2026-05-20T08:20:03Z</time>
      </trkpt>
      <trkpt lat="43.59431" lon="3.08085">
        <ele>192.3</ele>
        <time>2026-05-20T08:20:08Z</time>
      </trkpt>
      <trkpt lat="43.59422" lon="3.08084">
        <ele>192.1</ele>
        <time>2026-05-20T08:20:13Z</time>
      </trkpt>
      <trkpt lat="43.59419" lon="3.08086">
        <ele>192</ele>
        <time>2026-05-20T08:20:18Z</time>
      </trkpt>
      <trkpt lat="43.59419" lon="3.08086">
        <ele>192</ele>
        <time>2026-05-20T08:20:23Z</time>
      </trkpt>
      <trkpt lat="43.59419" lon="3.08086">
        <ele>192</ele>
        <time>2026-05-20T08:20:28Z</time>
      </trkpt>
      <trkpt lat="43.59412" lon="3.08091">
        <ele>192.2</ele>
        <time>2026-05-20T08:20:33Z</time>
      </trkpt>
      <trkpt lat="43.59409" lon="3.08091">
        <ele>192.5</ele>
        <time>2026-05-20T08:20:38Z</time>
      </trkpt>
      <trkpt lat="43.59409" lon="3.08091">
        <ele>192.5</ele>
        <time>2026-05-20T08:20:43Z</time>
      </trkpt>
      <trkpt lat="43.59414" lon="3.08092">
        <ele>192</ele>
        <time>2026-05-20T08:20:48Z</time>
      </trkpt>
      <trkpt lat="43.59421" lon="3.08093">
        <ele>191.7</ele>
        <time>2026-05-20T08:20:53Z</time>
      </trkpt>
      <trkpt lat="43.59426" lon="3.08095">
        <ele>191.7</ele>
        <time>2026-05-20T08:20:58Z</time>
      </trkpt>
      <trkpt lat="43.59427" lon="3.08095">
        <ele>191.7</ele>
        <time>2026-05-20T08:21:03Z</time>
      </trkpt>
      <trkpt lat="43.59427" lon="3.08095">
        <ele>191.7</ele>
        <time>2026-05-20T08:21:08Z</time>
      </trkpt>
      <trkpt lat="43.59427" lon="3.08095">
        <ele>191.7</ele>
        <time>2026-05-20T08:21:13Z</time>
      </trkpt>
      <trkpt lat="43.59427" lon="3.08095">
        <ele>191.7</ele>
        <time>2026-05-20T08:21:18Z</time>
      </trkpt>
      <trkpt lat="43.59436" lon="3.08092">
        <ele>192</ele>
        <time>2026-05-20T08:21:23Z</time>
      </trkpt>
      <trkpt lat="43.5944" lon="3.08092">
        <ele>192.1</ele>
        <time>2026-05-20T08:21:28Z</time>
      </trkpt>
      <trkpt lat="43.59445" lon="3.08088">
        <ele>192.4</ele>
        <time>2026-05-20T08:21:33Z</time>
      </trkpt>
      <trkpt lat="43.59449" lon="3.08084">
        <ele>192.7</ele>
        <time>2026-05-20T08:21:38Z</time>
      </trkpt>
      <trkpt lat="43.59452" lon="3.08079">
        <ele>193.4</ele>
        <time>2026-05-20T08:21:43Z</time>
      </trkpt>
      <trkpt lat="43.59454" lon="3.08082">
        <ele>193.1</ele>
        <time>2026-05-20T08:21:48Z</time>
      </trkpt>
      <trkpt lat="43.59457" lon="3.08087">
        <ele>192.7</ele>
        <time>2026-05-20T08:21:53Z</time>
      </trkpt>
      <trkpt lat="43.5946" lon="3.0809">
        <ele>192.6</ele>
        <time>2026-05-20T08:21:58Z</time>
      </trkpt>
      <trkpt lat="43.59465" lon="3.08093">
        <ele>192.5</ele>
        <time>2026-05-20T08:22:03Z</time>
      </trkpt>
      <trkpt lat="43.59471" lon="3.08092">
        <ele>192.7</ele>
        <time>2026-05-20T08:22:08Z</time>
      </trkpt>
      <trkpt lat="43.59476" lon="3.08092">
        <ele>192.7</ele>
        <time>2026-05-20T08:22:13Z</time>
      </trkpt>
      <trkpt lat="43.59478" lon="3.0809">
        <ele>192.9</ele>
        <time>2026-05-20T08:22:18Z</time>
      </trkpt>
      <trkpt lat="43.59479" lon="3.0809">
        <ele>193</ele>
        <time>2026-05-20T08:22:23Z</time>
      </trkpt>
      <trkpt lat="43.59485" lon="3.0809">
        <ele>193.1</ele>
        <time>2026-05-20T08:22:28Z</time>
      </trkpt>
      <trkpt lat="43.59489" lon="3.08091">
        <ele>193.1</ele>
        <time>2026-05-20T08:22:33Z</time>
      </trkpt>
      <trkpt lat="43.59494" lon="3.08092">
        <ele>193.1</ele>
        <time>2026-05-20T08:22:38Z</time>
      </trkpt>
      <trkpt lat="43.595" lon="3.08094">
        <ele>193</ele>
        <time>2026-05-20T08:22:43Z</time>
      </trkpt>
      <trkpt lat="43.59507" lon="3.08094">
        <ele>193</ele>
        <time>2026-05-20T08:22:48Z</time>
      </trkpt>
      <trkpt lat="43.59517" lon="3.08093">
        <ele>193.1</ele>
        <time>2026-05-20T08:22:53Z</time>
      </trkpt>
      <trkpt lat="43.59525" lon="3.08093">
        <ele>193.2</ele>
        <time>2026-05-20T08:22:58Z</time>
      </trkpt>
      <trkpt lat="43.59532" lon="3.08091">
        <ele>193.4</ele>
        <time>2026-05-20T08:23:03Z</time>
      </trkpt>
      <trkpt lat="43.59538" lon="3.08089">
        <ele>193.5</ele>
        <time>2026-05-20T08:23:08Z</time>
      </trkpt>
      <trkpt lat="43.59542" lon="3.0809">
        <ele>193.5</ele>
        <time>2026-05-20T08:23:13Z</time>
      </trkpt>
      <trkpt lat="43.59546" lon="3.08092">
        <ele>193.3</ele>
        <time>2026-05-20T08:23:18Z</time>
      </trkpt>
      <trkpt lat="43.59554" lon="3.08092">
        <ele>193.4</ele>
        <time>2026-05-20T08:23:23Z</time>
      </trkpt>
      <trkpt lat="43.59563" lon="3.0809">
        <ele>193.5</ele>
        <time>2026-05-20T08:23:28Z</time>
      </trkpt>
      <trkpt lat="43.59569" lon="3.08089">
        <ele>193.6</ele>
        <time>2026-05-20T08:23:33Z</time>
      </trkpt>
      <trkpt lat="43.59575" lon="3.08089">
        <ele>193.6</ele>
        <time>2026-05-20T08:23:38Z</time>
      </trkpt>
      <trkpt lat="43.59582" lon="3.08089">
        <ele>193.7</ele>
        <time>2026-05-20T08:23:43Z</time>
      </trkpt>
      <trkpt lat="43.59588" lon="3.08088">
        <ele>193.7</ele>
        <time>2026-05-20T08:23:48Z</time>
      </trkpt>
      <trkpt lat="43.59597" lon="3.08087">
        <ele>193.6</ele>
        <time>2026-05-20T08:23:53Z</time>
      </trkpt>
      <trkpt lat="43.596" lon="3.08086">
        <ele>193.7</ele>
        <time>2026-05-20T08:23:58Z</time>
      </trkpt>
      <trkpt lat="43.59601" lon="3.08084">
        <ele>193.8</ele>
        <time>2026-05-20T08:24:03Z</time>
      </trkpt>
      <trkpt lat="43.59602" lon="3.08083">
        <ele>193.8</ele>
        <time>2026-05-20T08:24:08Z</time>
      </trkpt>
      <trkpt lat="43.59602" lon="3.08083">
        <ele>193.8</ele>
        <time>2026-05-20T08:24:13Z</time>
      </trkpt>
      <trkpt lat="43.59602" lon="3.08083">
        <ele>193.8</ele>
        <time>2026-05-20T08:24:18Z</time>
      </trkpt>
      <trkpt lat="43.59602" lon="3.08083">
        <ele>193.8</ele>
        <time>2026-05-20T08:24:23Z</time>
      </trkpt>
      <trkpt lat="43.59603" lon="3.08079">
        <ele>194.2</ele>
        <time>2026-05-20T08:24:28Z</time>
      </trkpt>
      <trkpt lat="43.59609" lon="3.08077">
        <ele>194.3</ele>
        <time>2026-05-20T08:24:33Z</time>
      </trkpt>
      <trkpt lat="43.59611" lon="3.08076">
        <ele>194.3</ele>
        <time>2026-05-20T08:24:38Z</time>
      </trkpt>
      <trkpt lat="43.59611" lon="3.08076">
        <ele>194.3</ele>
        <time>2026-05-20T08:24:43Z</time>
      </trkpt>
      <trkpt lat="43.59611" lon="3.08076">
        <ele>194.3</ele>
        <time>2026-05-20T08:24:48Z</time>
      </trkpt>
      <trkpt lat="43.59611" lon="3.08076">
        <ele>194.3</ele>
        <time>2026-05-20T08:24:53Z</time>
      </trkpt>
      <trkpt lat="43.59611" lon="3.08076">
        <ele>194.3</ele>
        <time>2026-05-20T08:24:58Z</time>
      </trkpt>
      <trkpt lat="43.59611" lon="3.08076">
        <ele>194.3</ele>
        <time>2026-05-20T08:25:03Z</time>
      </trkpt>
      <trkpt lat="43.59611" lon="3.08076">
        <ele>194.3</ele>
        <time>2026-05-20T08:25:08Z</time>
      </trkpt>
      <trkpt lat="43.59611" lon="3.08076">
        <ele>194.3</ele>
        <time>2026-05-20T08:25:08Z</time>
      </trkpt>
      <trkpt lat="43.59607" lon="3.08045">
        <ele>197.3</ele>
        <time>2026-05-20T08:25:56Z</time>
      </trkpt>
      <trkpt lat="43.59612" lon="3.08062">
        <ele>195.6</ele>
        <time>2026-05-20T08:26:02Z</time>
      </trkpt>
      <trkpt lat="43.5961" lon="3.08063">
        <ele>195.6</ele>
        <time>2026-05-20T08:26:07Z</time>
      </trkpt>
      <trkpt lat="43.59609" lon="3.08061">
        <ele>195.8</ele>
        <time>2026-05-20T08:26:12Z</time>
      </trkpt>
      <trkpt lat="43.59605" lon="3.08058">
        <ele>196.2</ele>
        <time>2026-05-20T08:26:17Z</time>
      </trkpt>
      <trkpt lat="43.59602" lon="3.08053">
        <ele>196.7</ele>
        <time>2026-05-20T08:26:22Z</time>
      </trkpt>
      <trkpt lat="43.59601" lon="3.08046">
        <ele>197.4</ele>
        <time>2026-05-20T08:26:27Z</time>
      </trkpt>
      <trkpt lat="43.596" lon="3.08038">
        <ele>198.3</ele>
        <time>2026-05-20T08:26:32Z</time>
      </trkpt>
      <trkpt lat="43.59599" lon="3.08033">
        <ele>198.8</ele>
        <time>2026-05-20T08:26:37Z</time>
      </trkpt>
      <trkpt lat="43.59598" lon="3.08025">
        <ele>199.6</ele>
        <time>2026-05-20T08:26:42Z</time>
      </trkpt>
      <trkpt lat="43.59595" lon="3.08017">
        <ele>200.6</ele>
        <time>2026-05-20T08:26:47Z</time>
      </trkpt>
      <trkpt lat="43.59594" lon="3.08011">
        <ele>201.2</ele>
        <time>2026-05-20T08:26:52Z</time>
      </trkpt>
      <trkpt lat="43.59594" lon="3.08006">
        <ele>201.7</ele>
        <time>2026-05-20T08:26:57Z</time>
      </trkpt>
      <trkpt lat="43.59594" lon="3.07997">
        <ele>202.7</ele>
        <time>2026-05-20T08:27:02Z</time>
      </trkpt>
      <trkpt lat="43.59595" lon="3.07988">
        <ele>203.8</ele>
        <time>2026-05-20T08:27:07Z</time>
      </trkpt>
      <trkpt lat="43.59596" lon="3.07981">
        <ele>204.6</ele>
        <time>2026-05-20T08:27:12Z</time>
      </trkpt>
      <trkpt lat="43.59597" lon="3.07977">
        <ele>205.1</ele>
        <time>2026-05-20T08:27:17Z</time>
      </trkpt>
      <trkpt lat="43.59596" lon="3.07969">
        <ele>206.2</ele>
        <time>2026-05-20T08:27:22Z</time>
      </trkpt>
      <trkpt lat="43.59591" lon="3.07965">
        <ele>207</ele>
        <time>2026-05-20T08:27:27Z</time>
      </trkpt>
      <trkpt lat="43.59584" lon="3.07967">
        <ele>207.3</ele>
        <time>2026-05-20T08:27:32Z</time>
      </trkpt>
      <trkpt lat="43.59581" lon="3.07969">
        <ele>207.2</ele>
        <time>2026-05-20T08:27:37Z</time>
      </trkpt>
      <trkpt lat="43.59574" lon="3.07971">
        <ele>207.2</ele>
        <time>2026-05-20T08:27:42Z</time>
      </trkpt>
      <trkpt lat="43.59566" lon="3.07974">
        <ele>207</ele>
        <time>2026-05-20T08:27:47Z</time>
      </trkpt>
      <trkpt lat="43.59561" lon="3.07976">
        <ele>206.9</ele>
        <time>2026-05-20T08:27:52Z</time>
      </trkpt>
      <trkpt lat="43.59556" lon="3.07977">
        <ele>206.9</ele>
        <time>2026-05-20T08:27:57Z</time>
      </trkpt>
      <trkpt lat="43.59549" lon="3.07981">
        <ele>206.5</ele>
        <time>2026-05-20T08:28:02Z</time>
      </trkpt>
      <trkpt lat="43.59541" lon="3.07984">
        <ele>206.2</ele>
        <time>2026-05-20T08:28:07Z</time>
      </trkpt>
      <trkpt lat="43.59536" lon="3.07987">
        <ele>205.8</ele>
        <time>2026-05-20T08:28:12Z</time>
      </trkpt>
      <trkpt lat="43.5953" lon="3.07989">
        <ele>205.6</ele>
        <time>2026-05-20T08:28:17Z</time>
      </trkpt>
      <trkpt lat="43.59525" lon="3.07992">
        <ele>205.2</ele>
        <time>2026-05-20T08:28:22Z</time>
      </trkpt>
      <trkpt lat="43.5952" lon="3.07992">
        <ele>205.3</ele>
        <time>2026-05-20T08:28:27Z</time>
      </trkpt>
      <trkpt lat="43.59513" lon="3.07993">
        <ele>205.2</ele>
        <time>2026-05-20T08:28:32Z</time>
      </trkpt>
      <trkpt lat="43.59508" lon="3.07994">
        <ele>205.1</ele>
        <time>2026-05-20T08:28:37Z</time>
      </trkpt>
      <trkpt lat="43.59502" lon="3.07996">
        <ele>204.8</ele>
        <time>2026-05-20T08:28:42Z</time>
      </trkpt>
      <trkpt lat="43.59496" lon="3.07998">
        <ele>204.4</ele>
        <time>2026-05-20T08:28:47Z</time>
      </trkpt>
      <trkpt lat="43.5949" lon="3.07995">
        <ele>204.9</ele>
        <time>2026-05-20T08:28:52Z</time>
      </trkpt>
      <trkpt lat="43.59486" lon="3.0799">
        <ele>205.8</ele>
        <time>2026-05-20T08:28:57Z</time>
      </trkpt>
      <trkpt lat="43.59486" lon="3.07987">
        <ele>206.4</ele>
        <time>2026-05-20T08:29:02Z</time>
      </trkpt>
      <trkpt lat="43.59486" lon="3.0798">
        <ele>207.8</ele>
        <time>2026-05-20T08:29:07Z</time>
      </trkpt>
      <trkpt lat="43.59484" lon="3.07973">
        <ele>209.2</ele>
        <time>2026-05-20T08:29:12Z</time>
      </trkpt>
      <trkpt lat="43.59483" lon="3.07966">
        <ele>210.6</ele>
        <time>2026-05-20T08:29:17Z</time>
      </trkpt>
      <trkpt lat="43.59482" lon="3.07959">
        <ele>211.9</ele>
        <time>2026-05-20T08:29:22Z</time>
      </trkpt>
      <trkpt lat="43.5948" lon="3.07953">
        <ele>213.1</ele>
        <time>2026-05-20T08:29:27Z</time>
      </trkpt>
      <trkpt lat="43.59478" lon="3.07947">
        <ele>214.2</ele>
        <time>2026-05-20T08:29:32Z</time>
      </trkpt>
      <trkpt lat="43.59478" lon="3.0794">
        <ele>215.6</ele>
        <time>2026-05-20T08:29:37Z</time>
      </trkpt>
      <trkpt lat="43.59478" lon="3.07934">
        <ele>216.8</ele>
        <time>2026-05-20T08:29:42Z</time>
      </trkpt>
      <trkpt lat="43.59476" lon="3.07926">
        <ele>218.3</ele>
        <time>2026-05-20T08:29:47Z</time>
      </trkpt>
      <trkpt lat="43.59476" lon="3.07925">
        <ele>218.5</ele>
        <time>2026-05-20T08:29:52Z</time>
      </trkpt>
      <trkpt lat="43.59476" lon="3.07925">
        <ele>218.5</ele>
        <time>2026-05-20T08:29:57Z</time>
      </trkpt>
      <trkpt lat="43.59476" lon="3.07925">
        <ele>218.5</ele>
        <time>2026-05-20T08:30:02Z</time>
      </trkpt>
      <trkpt lat="43.59476" lon="3.07925">
        <ele>218.5</ele>
        <time>2026-05-20T08:30:07Z</time>
      </trkpt>
      <trkpt lat="43.59476" lon="3.07925">
        <ele>218.5</ele>
        <time>2026-05-20T08:30:12Z</time>
      </trkpt>
      <trkpt lat="43.59476" lon="3.07925">
        <ele>218.5</ele>
        <time>2026-05-20T08:30:17Z</time>
      </trkpt>
      <trkpt lat="43.59476" lon="3.07925">
        <ele>218.5</ele>
        <time>2026-05-20T08:30:22Z</time>
      </trkpt>
      <trkpt lat="43.59476" lon="3.07925">
        <ele>218.5</ele>
        <time>2026-05-20T08:30:27Z</time>
      </trkpt>
      <trkpt lat="43.59476" lon="3.07925">
        <ele>218.5</ele>
        <time>2026-05-20T08:30:32Z</time>
      </trkpt>
      <trkpt lat="43.59476" lon="3.07925">
        <ele>218.5</ele>
        <time>2026-05-20T08:30:37Z</time>
      </trkpt>
      <trkpt lat="43.59476" lon="3.07925">
        <ele>218.5</ele>
        <time>2026-05-20T08:30:42Z</time>
      </trkpt>
      <trkpt lat="43.59476" lon="3.07925">
        <ele>218.5</ele>
        <time>2026-05-20T08:30:47Z</time>
      </trkpt>
      <trkpt lat="43.59476" lon="3.07925">
        <ele>218.5</ele>
        <time>2026-05-20T08:30:52Z</time>
      </trkpt>
      <trkpt lat="43.59476" lon="3.07925">
        <ele>218.5</ele>
        <time>2026-05-20T08:30:57Z</time>
      </trkpt>
      <trkpt lat="43.59476" lon="3.07925">
        <ele>218.5</ele>
        <time>2026-05-20T08:31:02Z</time>
      </trkpt>
      <trkpt lat="43.59476" lon="3.07925">
        <ele>218.5</ele>
        <time>2026-05-20T08:31:07Z</time>
      </trkpt>
      <trkpt lat="43.59472" lon="3.07911">
        <ele>221.8</ele>
        <time>2026-05-20T08:31:12Z</time>
      </trkpt>
      <trkpt lat="43.59473" lon="3.07909">
        <ele>222.5</ele>
        <time>2026-05-20T08:31:17Z</time>
      </trkpt>
      <trkpt lat="43.59472" lon="3.07908">
        <ele>222.7</ele>
        <time>2026-05-20T08:31:22Z</time>
      </trkpt>
      <trkpt lat="43.5947" lon="3.07904">
        <ele>223.9</ele>
        <time>2026-05-20T08:31:27Z</time>
      </trkpt>
      <trkpt lat="43.59466" lon="3.079">
        <ele>225</ele>
        <time>2026-05-20T08:31:32Z</time>
      </trkpt>
      <trkpt lat="43.59466" lon="3.07899">
        <ele>225.3</ele>
        <time>2026-05-20T08:31:37Z</time>
      </trkpt>
      <trkpt lat="43.59466" lon="3.07899">
        <ele>225.3</ele>
        <time>2026-05-20T08:31:42Z</time>
      </trkpt>
      <trkpt lat="43.59458" lon="3.07893">
        <ele>226.7</ele>
        <time>2026-05-20T08:31:47Z</time>
      </trkpt>
      <trkpt lat="43.59453" lon="3.07894">
        <ele>226.2</ele>
        <time>2026-05-20T08:31:52Z</time>
      </trkpt>
      <trkpt lat="43.59446" lon="3.07891">
        <ele>226.7</ele>
        <time>2026-05-20T08:31:57Z</time>
      </trkpt>
      <trkpt lat="43.59442" lon="3.07889">
        <ele>227.1</ele>
        <time>2026-05-20T08:32:02Z</time>
      </trkpt>
      <trkpt lat="43.59436" lon="3.07889">
        <ele>226.7</ele>
        <time>2026-05-20T08:32:07Z</time>
      </trkpt>
      <trkpt lat="43.59432" lon="3.07887">
        <ele>227.1</ele>
        <time>2026-05-20T08:32:12Z</time>
      </trkpt>
      <trkpt lat="43.59433" lon="3.0788">
        <ele>229.1</ele>
        <time>2026-05-20T08:32:17Z</time>
      </trkpt>
      <trkpt lat="43.5944" lon="3.07876">
        <ele>230.7</ele>
        <time>2026-05-20T08:32:22Z</time>
      </trkpt>
      <trkpt lat="43.59445" lon="3.07875">
        <ele>231.4</ele>
        <time>2026-05-20T08:32:27Z</time>
      </trkpt>
      <trkpt lat="43.5945" lon="3.07872">
        <ele>232.6</ele>
        <time>2026-05-20T08:32:32Z</time>
      </trkpt>
      <trkpt lat="43.59454" lon="3.07868">
        <ele>234.1</ele>
        <time>2026-05-20T08:32:37Z</time>
      </trkpt>
      <trkpt lat="43.59459" lon="3.07865">
        <ele>235.4</ele>
        <time>2026-05-20T08:32:42Z</time>
      </trkpt>
      <trkpt lat="43.59463" lon="3.0786">
        <ele>237.2</ele>
        <time>2026-05-20T08:32:47Z</time>
      </trkpt>
      <trkpt lat="43.59468" lon="3.07856">
        <ele>238.8</ele>
        <time>2026-05-20T08:32:52Z</time>
      </trkpt>
      <trkpt lat="43.59472" lon="3.07853">
        <ele>240.1</ele>
        <time>2026-05-20T08:32:57Z</time>
      </trkpt>
      <trkpt lat="43.59477" lon="3.0785">
        <ele>241.5</ele>
        <time>2026-05-20T08:33:02Z</time>
      </trkpt>
      <trkpt lat="43.5948" lon="3.07844">
        <ele>243.6</ele>
        <time>2026-05-20T08:33:07Z</time>
      </trkpt>
      <trkpt lat="43.59479" lon="3.07839">
        <ele>245.2</ele>
        <time>2026-05-20T08:33:12Z</time>
      </trkpt>
      <trkpt lat="43.59472" lon="3.07838">
        <ele>244.8</ele>
        <time>2026-05-20T08:33:17Z</time>
      </trkpt>
      <trkpt lat="43.59464" lon="3.07839">
        <ele>243.8</ele>
        <time>2026-05-20T08:33:22Z</time>
      </trkpt>
      <trkpt lat="43.59458" lon="3.07839">
        <ele>243.2</ele>
        <time>2026-05-20T08:33:27Z</time>
      </trkpt>
      <trkpt lat="43.59453" lon="3.07838">
        <ele>243.1</ele>
        <time>2026-05-20T08:33:32Z</time>
      </trkpt>
      <trkpt lat="43.59448" lon="3.07838">
        <ele>242.6</ele>
        <time>2026-05-20T08:33:37Z</time>
      </trkpt>
      <trkpt lat="43.59443" lon="3.07837">
        <ele>242.4</ele>
        <time>2026-05-20T08:33:42Z</time>
      </trkpt>
      <trkpt lat="43.59439" lon="3.07837">
        <ele>242.1</ele>
        <time>2026-05-20T08:33:47Z</time>
      </trkpt>
      <trkpt lat="43.59435" lon="3.07836">
        <ele>242</ele>
        <time>2026-05-20T08:33:52Z</time>
      </trkpt>
      <trkpt lat="43.59431" lon="3.07834">
        <ele>242.2</ele>
        <time>2026-05-20T08:33:57Z</time>
      </trkpt>
      <trkpt lat="43.59427" lon="3.07832">
        <ele>242.5</ele>
        <time>2026-05-20T08:34:02Z</time>
      </trkpt>
      <trkpt lat="43.59422" lon="3.07829">
        <ele>243.1</ele>
        <time>2026-05-20T08:34:07Z</time>
      </trkpt>
      <trkpt lat="43.59417" lon="3.07827">
        <ele>243.4</ele>
        <time>2026-05-20T08:34:12Z</time>
      </trkpt>
      <trkpt lat="43.59412" lon="3.07825">
        <ele>244.7</ele>
        <time>2026-05-20T08:34:17Z</time>
      </trkpt>
      <trkpt lat="43.59407" lon="3.07822">
        <ele>246.3</ele>
        <time>2026-05-20T08:34:22Z</time>
      </trkpt>
      <trkpt lat="43.59402" lon="3.07815">
        <ele>249.4</ele>
        <time>2026-05-20T08:34:27Z</time>
      </trkpt>
      <trkpt lat="43.59401" lon="3.07809">
        <ele>251.6</ele>
        <time>2026-05-20T08:34:32Z</time>
      </trkpt>
      <trkpt lat="43.594" lon="3.07808">
        <ele>252</ele>
        <time>2026-05-20T08:34:37Z</time>
      </trkpt>
      <trkpt lat="43.594" lon="3.07807">
        <ele>252.4</ele>
        <time>2026-05-20T08:34:42Z</time>
      </trkpt>
      <trkpt lat="43.594" lon="3.07807">
        <ele>252.4</ele>
        <time>2026-05-20T08:34:47Z</time>
      </trkpt>
      <trkpt lat="43.594" lon="3.07807">
        <ele>252.4</ele>
        <time>2026-05-20T08:34:52Z</time>
      </trkpt>
      <trkpt lat="43.59389" lon="3.07802">
        <ele>255.1</ele>
        <time>2026-05-20T08:34:57Z</time>
      </trkpt>
      <trkpt lat="43.59388" lon="3.07801">
        <ele>255.5</ele>
        <time>2026-05-20T08:35:02Z</time>
      </trkpt>
      <trkpt lat="43.59388" lon="3.07801">
        <ele>255.5</ele>
        <time>2026-05-20T08:35:07Z</time>
      </trkpt>
      <trkpt lat="43.59388" lon="3.07801">
        <ele>255.5</ele>
        <time>2026-05-20T08:35:12Z</time>
      </trkpt>
      <trkpt lat="43.59388" lon="3.07801">
        <ele>255.5</ele>
        <time>2026-05-20T08:35:17Z</time>
      </trkpt>
      <trkpt lat="43.59388" lon="3.07801">
        <ele>255.5</ele>
        <time>2026-05-20T08:35:22Z</time>
      </trkpt>
      <trkpt lat="43.59388" lon="3.07801">
        <ele>255.5</ele>
        <time>2026-05-20T08:35:27Z</time>
      </trkpt>
      <trkpt lat="43.59388" lon="3.07801">
        <ele>255.5</ele>
        <time>2026-05-20T08:35:32Z</time>
      </trkpt>
      <trkpt lat="43.59388" lon="3.07801">
        <ele>255.5</ele>
        <time>2026-05-20T08:35:37Z</time>
      </trkpt>
      <trkpt lat="43.59388" lon="3.07801">
        <ele>255.5</ele>
        <time>2026-05-20T08:35:42Z</time>
      </trkpt>
      <trkpt lat="43.59388" lon="3.07801">
        <ele>255.5</ele>
        <time>2026-05-20T08:35:47Z</time>
      </trkpt>
      <trkpt lat="43.59388" lon="3.07801">
        <ele>255.5</ele>
        <time>2026-05-20T08:35:52Z</time>
      </trkpt>
      <trkpt lat="43.59388" lon="3.07801">
        <ele>255.5</ele>
        <time>2026-05-20T08:35:57Z</time>
      </trkpt>
      <trkpt lat="43.59388" lon="3.07801">
        <ele>255.5</ele>
        <time>2026-05-20T08:36:02Z</time>
      </trkpt>
      <trkpt lat="43.59385" lon="3.07799">
        <ele>256.4</ele>
        <time>2026-05-20T08:36:07Z</time>
      </trkpt>
      <trkpt lat="43.59384" lon="3.07793">
        <ele>258.4</ele>
        <time>2026-05-20T08:36:12Z</time>
      </trkpt>
      <trkpt lat="43.59382" lon="3.07785">
        <ele>261.1</ele>
        <time>2026-05-20T08:36:17Z</time>
      </trkpt>
      <trkpt lat="43.5938" lon="3.07778">
        <ele>263.5</ele>
        <time>2026-05-20T08:36:22Z</time>
      </trkpt>
      <trkpt lat="43.59379" lon="3.07772">
        <ele>265.5</ele>
        <time>2026-05-20T08:36:27Z</time>
      </trkpt>
      <trkpt lat="43.59376" lon="3.07765">
        <ele>267.8</ele>
        <time>2026-05-20T08:36:32Z</time>
      </trkpt>
      <trkpt lat="43.59372" lon="3.07756">
        <ele>270.7</ele>
        <time>2026-05-20T08:36:37Z</time>
      </trkpt>
      <trkpt lat="43.59366" lon="3.07751">
        <ele>272.3</ele>
        <time>2026-05-20T08:36:42Z</time>
      </trkpt>
      <trkpt lat="43.59361" lon="3.07751">
        <ele>272.4</ele>
        <time>2026-05-20T08:36:47Z</time>
      </trkpt>
      <trkpt lat="43.59357" lon="3.07752">
        <ele>272.1</ele>
        <time>2026-05-20T08:36:52Z</time>
      </trkpt>
      <trkpt lat="43.59353" lon="3.07752">
        <ele>272.2</ele>
        <time>2026-05-20T08:36:57Z</time>
      </trkpt>
      <trkpt lat="43.59348" lon="3.07751">
        <ele>272.6</ele>
        <time>2026-05-20T08:37:02Z</time>
      </trkpt>
      <trkpt lat="43.59343" lon="3.0775">
        <ele>272.9</ele>
        <time>2026-05-20T08:37:07Z</time>
      </trkpt>
      <trkpt lat="43.5934" lon="3.07749">
        <ele>273.1</ele>
        <time>2026-05-20T08:37:12Z</time>
      </trkpt>
      <trkpt lat="43.59335" lon="3.07748">
        <ele>273.3</ele>
        <time>2026-05-20T08:37:17Z</time>
      </trkpt>
      <trkpt lat="43.59331" lon="3.07748">
        <ele>273.7</ele>
        <time>2026-05-20T08:37:22Z</time>
      </trkpt>
      <trkpt lat="43.59325" lon="3.07745">
        <ele>275.1</ele>
        <time>2026-05-20T08:37:27Z</time>
      </trkpt>
      <trkpt lat="43.5932" lon="3.07741">
        <ele>276.4</ele>
        <time>2026-05-20T08:37:32Z</time>
      </trkpt>
      <trkpt lat="43.59316" lon="3.07742">
        <ele>276.8</ele>
        <time>2026-05-20T08:37:37Z</time>
      </trkpt>
      <trkpt lat="43.59311" lon="3.07743">
        <ele>277.3</ele>
        <time>2026-05-20T08:37:42Z</time>
      </trkpt>
      <trkpt lat="43.59306" lon="3.07745">
        <ele>277.7</ele>
        <time>2026-05-20T08:37:47Z</time>
      </trkpt>
      <trkpt lat="43.59302" lon="3.07748">
        <ele>277.8</ele>
        <time>2026-05-20T08:37:52Z</time>
      </trkpt>
      <trkpt lat="43.59297" lon="3.07752">
        <ele>277.8</ele>
        <time>2026-05-20T08:37:57Z</time>
      </trkpt>
      <trkpt lat="43.59291" lon="3.07754">
        <ele>278.3</ele>
        <time>2026-05-20T08:38:02Z</time>
      </trkpt>
      <trkpt lat="43.59284" lon="3.07755">
        <ele>279.2</ele>
        <time>2026-05-20T08:38:07Z</time>
      </trkpt>
      <trkpt lat="43.5928" lon="3.07754">
        <ele>279.9</ele>
        <time>2026-05-20T08:38:12Z</time>
      </trkpt>
      <trkpt lat="43.59275" lon="3.07755">
        <ele>280.5</ele>
        <time>2026-05-20T08:38:17Z</time>
      </trkpt>
      <trkpt lat="43.59271" lon="3.07755">
        <ele>281.1</ele>
        <time>2026-05-20T08:38:22Z</time>
      </trkpt>
      <trkpt lat="43.59267" lon="3.07754">
        <ele>281.9</ele>
        <time>2026-05-20T08:38:27Z</time>
      </trkpt>
      <trkpt lat="43.59263" lon="3.07754">
        <ele>282.5</ele>
        <time>2026-05-20T08:38:32Z</time>
      </trkpt>
      <trkpt lat="43.59259" lon="3.07752">
        <ele>283.4</ele>
        <time>2026-05-20T08:38:37Z</time>
      </trkpt>
      <trkpt lat="43.59254" lon="3.07745">
        <ele>285</ele>
        <time>2026-05-20T08:38:42Z</time>
      </trkpt>
      <trkpt lat="43.59253" lon="3.07739">
        <ele>285.8</ele>
        <time>2026-05-20T08:38:47Z</time>
      </trkpt>
      <trkpt lat="43.59258" lon="3.07738">
        <ele>285.2</ele>
        <time>2026-05-20T08:38:52Z</time>
      </trkpt>
      <trkpt lat="43.59265" lon="3.07736">
        <ele>284.5</ele>
        <time>2026-05-20T08:38:57Z</time>
      </trkpt>
      <trkpt lat="43.59271" lon="3.07734">
        <ele>284</ele>
        <time>2026-05-20T08:39:02Z</time>
      </trkpt>
      <trkpt lat="43.59277" lon="3.0773">
        <ele>283.7</ele>
        <time>2026-05-20T08:39:07Z</time>
      </trkpt>
      <trkpt lat="43.59283" lon="3.07727">
        <ele>283.4</ele>
        <time>2026-05-20T08:39:12Z</time>
      </trkpt>
      <trkpt lat="43.59287" lon="3.07723">
        <ele>283.5</ele>
        <time>2026-05-20T08:39:17Z</time>
      </trkpt>
      <trkpt lat="43.59291" lon="3.07718">
        <ele>283.7</ele>
        <time>2026-05-20T08:39:22Z</time>
      </trkpt>
      <trkpt lat="43.59295" lon="3.07713">
        <ele>284</ele>
        <time>2026-05-20T08:39:27Z</time>
      </trkpt>
      <trkpt lat="43.59301" lon="3.07709">
        <ele>283.9</ele>
        <time>2026-05-20T08:39:32Z</time>
      </trkpt>
      <trkpt lat="43.59305" lon="3.07704">
        <ele>284.2</ele>
        <time>2026-05-20T08:39:37Z</time>
      </trkpt>
      <trkpt lat="43.59309" lon="3.07701">
        <ele>284.3</ele>
        <time>2026-05-20T08:39:42Z</time>
      </trkpt>
      <trkpt lat="43.59315" lon="3.07697">
        <ele>284.3</ele>
        <time>2026-05-20T08:39:47Z</time>
      </trkpt>
      <trkpt lat="43.59321" lon="3.07693">
        <ele>284.4</ele>
        <time>2026-05-20T08:39:52Z</time>
      </trkpt>
      <trkpt lat="43.59327" lon="3.07689">
        <ele>284.6</ele>
        <time>2026-05-20T08:39:57Z</time>
      </trkpt>
      <trkpt lat="43.59333" lon="3.07687">
        <ele>284.4</ele>
        <time>2026-05-20T08:40:02Z</time>
      </trkpt>
      <trkpt lat="43.59337" lon="3.07683">
        <ele>284.9</ele>
        <time>2026-05-20T08:40:07Z</time>
      </trkpt>
      <trkpt lat="43.5934" lon="3.07679">
        <ele>285.6</ele>
        <time>2026-05-20T08:40:12Z</time>
      </trkpt>
      <trkpt lat="43.59342" lon="3.07676">
        <ele>286</ele>
        <time>2026-05-20T08:40:17Z</time>
      </trkpt>
      <trkpt lat="43.59345" lon="3.07674">
        <ele>286.3</ele>
        <time>2026-05-20T08:40:22Z</time>
      </trkpt>
      <trkpt lat="43.59349" lon="3.07669">
        <ele>287</ele>
        <time>2026-05-20T08:40:27Z</time>
      </trkpt>
      <trkpt lat="43.59355" lon="3.07665">
        <ele>287.2</ele>
        <time>2026-05-20T08:40:32Z</time>
      </trkpt>
      <trkpt lat="43.5936" lon="3.0766">
        <ele>287.1</ele>
        <time>2026-05-20T08:40:37Z</time>
      </trkpt>
      <trkpt lat="43.59364" lon="3.07656">
        <ele>287</ele>
        <time>2026-05-20T08:40:42Z</time>
      </trkpt>
      <trkpt lat="43.59367" lon="3.07651">
        <ele>287</ele>
        <time>2026-05-20T08:40:47Z</time>
      </trkpt>
      <trkpt lat="43.5937" lon="3.07648">
        <ele>286.9</ele>
        <time>2026-05-20T08:40:52Z</time>
      </trkpt>
      <trkpt lat="43.59375" lon="3.07644">
        <ele>286.9</ele>
        <time>2026-05-20T08:40:57Z</time>
      </trkpt>
      <trkpt lat="43.5938" lon="3.07639">
        <ele>286.9</ele>
        <time>2026-05-20T08:41:02Z</time>
      </trkpt>
      <trkpt lat="43.59384" lon="3.07634">
        <ele>287</ele>
        <time>2026-05-20T08:41:07Z</time>
      </trkpt>
      <trkpt lat="43.59386" lon="3.07628">
        <ele>287.1</ele>
        <time>2026-05-20T08:41:12Z</time>
      </trkpt>
      <trkpt lat="43.59389" lon="3.07623">
        <ele>287.2</ele>
        <time>2026-05-20T08:41:17Z</time>
      </trkpt>
      <trkpt lat="43.5939" lon="3.07616">
        <ele>287.4</ele>
        <time>2026-05-20T08:41:22Z</time>
      </trkpt>
      <trkpt lat="43.59391" lon="3.07611">
        <ele>287.6</ele>
        <time>2026-05-20T08:41:27Z</time>
      </trkpt>
      <trkpt lat="43.59393" lon="3.07607">
        <ele>287.7</ele>
        <time>2026-05-20T08:41:32Z</time>
      </trkpt>
      <trkpt lat="43.59394" lon="3.07602">
        <ele>287.9</ele>
        <time>2026-05-20T08:41:37Z</time>
      </trkpt>
      <trkpt lat="43.59393" lon="3.07595">
        <ele>288.1</ele>
        <time>2026-05-20T08:41:42Z</time>
      </trkpt>
      <trkpt lat="43.59394" lon="3.0759">
        <ele>288.2</ele>
        <time>2026-05-20T08:41:47Z</time>
      </trkpt>
      <trkpt lat="43.59395" lon="3.07585">
        <ele>288.4</ele>
        <time>2026-05-20T08:41:52Z</time>
      </trkpt>
      <trkpt lat="43.59397" lon="3.0758">
        <ele>288.2</ele>
        <time>2026-05-20T08:41:57Z</time>
      </trkpt>
      <trkpt lat="43.59398" lon="3.07577">
        <ele>287.9</ele>
        <time>2026-05-20T08:42:02Z</time>
      </trkpt>
      <trkpt lat="43.59396" lon="3.07573">
        <ele>287.4</ele>
        <time>2026-05-20T08:42:07Z</time>
      </trkpt>
      <trkpt lat="43.59392" lon="3.0757">
        <ele>287.1</ele>
        <time>2026-05-20T08:42:12Z</time>
      </trkpt>
      <trkpt lat="43.59387" lon="3.07567">
        <ele>286.7</ele>
        <time>2026-05-20T08:42:17Z</time>
      </trkpt>
      <trkpt lat="43.59382" lon="3.07566">
        <ele>286.5</ele>
        <time>2026-05-20T08:42:22Z</time>
      </trkpt>
      <trkpt lat="43.59379" lon="3.07565">
        <ele>286.3</ele>
        <time>2026-05-20T08:42:27Z</time>
      </trkpt>
      <trkpt lat="43.59374" lon="3.07564">
        <ele>286.1</ele>
        <time>2026-05-20T08:42:32Z</time>
      </trkpt>
      <trkpt lat="43.59368" lon="3.07562">
        <ele>285.8</ele>
        <time>2026-05-20T08:42:37Z</time>
      </trkpt>
      <trkpt lat="43.59364" lon="3.07561">
        <ele>285.7</ele>
        <time>2026-05-20T08:42:42Z</time>
      </trkpt>
      <trkpt lat="43.59358" lon="3.07561">
        <ele>285.6</ele>
        <time>2026-05-20T08:42:47Z</time>
      </trkpt>
      <trkpt lat="43.59351" lon="3.07561">
        <ele>285.4</ele>
        <time>2026-05-20T08:42:52Z</time>
      </trkpt>
      <trkpt lat="43.59345" lon="3.0756">
        <ele>285.2</ele>
        <time>2026-05-20T08:42:57Z</time>
      </trkpt>
      <trkpt lat="43.59336" lon="3.07554">
        <ele>284.6</ele>
        <time>2026-05-20T08:43:02Z</time>
      </trkpt>
      <trkpt lat="43.59333" lon="3.07551">
        <ele>284.2</ele>
        <time>2026-05-20T08:43:07Z</time>
      </trkpt>
      <trkpt lat="43.59333" lon="3.07549">
        <ele>284.1</ele>
        <time>2026-05-20T08:43:12Z</time>
      </trkpt>
      <trkpt lat="43.59332" lon="3.07549">
        <ele>283.9</ele>
        <time>2026-05-20T08:43:17Z</time>
      </trkpt>
      <trkpt lat="43.59332" lon="3.07549">
        <ele>283.9</ele>
        <time>2026-05-20T08:43:22Z</time>
      </trkpt>
      <trkpt lat="43.59332" lon="3.07549">
        <ele>283.9</ele>
        <time>2026-05-20T08:43:27Z</time>
      </trkpt>
      <trkpt lat="43.59325" lon="3.07543">
        <ele>282.2</ele>
        <time>2026-05-20T08:43:32Z</time>
      </trkpt>
      <trkpt lat="43.59321" lon="3.0754">
        <ele>281.2</ele>
        <time>2026-05-20T08:43:37Z</time>
      </trkpt>
      <trkpt lat="43.59318" lon="3.07535">
        <ele>280.1</ele>
        <time>2026-05-20T08:43:42Z</time>
      </trkpt>
      <trkpt lat="43.59315" lon="3.07529">
        <ele>278.9</ele>
        <time>2026-05-20T08:43:47Z</time>
      </trkpt>
      <trkpt lat="43.5931" lon="3.07524">
        <ele>277.3</ele>
        <time>2026-05-20T08:43:52Z</time>
      </trkpt>
      <trkpt lat="43.59306" lon="3.07518">
        <ele>275.7</ele>
        <time>2026-05-20T08:43:57Z</time>
      </trkpt>
      <trkpt lat="43.59301" lon="3.0751">
        <ele>273.6</ele>
        <time>2026-05-20T08:44:02Z</time>
      </trkpt>
      <trkpt lat="43.59296" lon="3.075">
        <ele>271</ele>
        <time>2026-05-20T08:44:07Z</time>
      </trkpt>
      <trkpt lat="43.59294" lon="3.07492">
        <ele>271.1</ele>
        <time>2026-05-20T08:44:12Z</time>
      </trkpt>
      <trkpt lat="43.59293" lon="3.07485">
        <ele>271.3</ele>
        <time>2026-05-20T08:44:17Z</time>
      </trkpt>
      <trkpt lat="43.59291" lon="3.07477">
        <ele>271.4</ele>
        <time>2026-05-20T08:44:22Z</time>
      </trkpt>
      <trkpt lat="43.59292" lon="3.07466">
        <ele>272.3</ele>
        <time>2026-05-20T08:44:27Z</time>
      </trkpt>
      <trkpt lat="43.59292" lon="3.07456">
        <ele>273</ele>
        <time>2026-05-20T08:44:32Z</time>
      </trkpt>
      <trkpt lat="43.59294" lon="3.07448">
        <ele>273.9</ele>
        <time>2026-05-20T08:44:37Z</time>
      </trkpt>
      <trkpt lat="43.59298" lon="3.07441">
        <ele>275</ele>
        <time>2026-05-20T08:44:42Z</time>
      </trkpt>
      <trkpt lat="43.59302" lon="3.07436">
        <ele>276</ele>
        <time>2026-05-20T08:44:47Z</time>
      </trkpt>
      <trkpt lat="43.59305" lon="3.0743">
        <ele>276.9</ele>
        <time>2026-05-20T08:44:52Z</time>
      </trkpt>
      <trkpt lat="43.59309" lon="3.07423">
        <ele>277.9</ele>
        <time>2026-05-20T08:44:57Z</time>
      </trkpt>
      <trkpt lat="43.59313" lon="3.07417">
        <ele>278.8</ele>
        <time>2026-05-20T08:45:02Z</time>
      </trkpt>
      <trkpt lat="43.59318" lon="3.0741">
        <ele>280.6</ele>
        <time>2026-05-20T08:45:07Z</time>
      </trkpt>
      <trkpt lat="43.59321" lon="3.07404">
        <ele>282</ele>
        <time>2026-05-20T08:45:12Z</time>
      </trkpt>
      <trkpt lat="43.59324" lon="3.07399">
        <ele>283.2</ele>
        <time>2026-05-20T08:45:17Z</time>
      </trkpt>
      <trkpt lat="43.59327" lon="3.07395">
        <ele>284.2</ele>
        <time>2026-05-20T08:45:22Z</time>
      </trkpt>
      <trkpt lat="43.5933" lon="3.07391">
        <ele>285.2</ele>
        <time>2026-05-20T08:45:27Z</time>
      </trkpt>
      <trkpt lat="43.59334" lon="3.07387">
        <ele>286.3</ele>
        <time>2026-05-20T08:45:32Z</time>
      </trkpt>
      <trkpt lat="43.59338" lon="3.07384">
        <ele>286.9</ele>
        <time>2026-05-20T08:45:37Z</time>
      </trkpt>
      <trkpt lat="43.59341" lon="3.0738">
        <ele>287.7</ele>
        <time>2026-05-20T08:45:42Z</time>
      </trkpt>
      <trkpt lat="43.59344" lon="3.07376">
        <ele>288.4</ele>
        <time>2026-05-20T08:45:47Z</time>
      </trkpt>
      <trkpt lat="43.59346" lon="3.07371">
        <ele>289.3</ele>
        <time>2026-05-20T08:45:52Z</time>
      </trkpt>
      <trkpt lat="43.59349" lon="3.07366">
        <ele>290.2</ele>
        <time>2026-05-20T08:45:57Z</time>
      </trkpt>
      <trkpt lat="43.59351" lon="3.07359">
        <ele>291.3</ele>
        <time>2026-05-20T08:46:02Z</time>
      </trkpt>
      <trkpt lat="43.59354" lon="3.07355">
        <ele>292.1</ele>
        <time>2026-05-20T08:46:07Z</time>
      </trkpt>
      <trkpt lat="43.59356" lon="3.07349">
        <ele>293.1</ele>
        <time>2026-05-20T08:46:12Z</time>
      </trkpt>
      <trkpt lat="43.59358" lon="3.07345">
        <ele>293.8</ele>
        <time>2026-05-20T08:46:17Z</time>
      </trkpt>
      <trkpt lat="43.59361" lon="3.07339">
        <ele>294.8</ele>
        <time>2026-05-20T08:46:22Z</time>
      </trkpt>
      <trkpt lat="43.59363" lon="3.07334">
        <ele>295.7</ele>
        <time>2026-05-20T08:46:27Z</time>
      </trkpt>
      <trkpt lat="43.59364" lon="3.07329">
        <ele>296.3</ele>
        <time>2026-05-20T08:46:32Z</time>
      </trkpt>
      <trkpt lat="43.59367" lon="3.07324">
        <ele>297.1</ele>
        <time>2026-05-20T08:46:37Z</time>
      </trkpt>
      <trkpt lat="43.59371" lon="3.07318">
        <ele>298</ele>
        <time>2026-05-20T08:46:42Z</time>
      </trkpt>
      <trkpt lat="43.59374" lon="3.07312">
        <ele>299</ele>
        <time>2026-05-20T08:46:47Z</time>
      </trkpt>
      <trkpt lat="43.59377" lon="3.07306">
        <ele>300</ele>
        <time>2026-05-20T08:46:52Z</time>
      </trkpt>
      <trkpt lat="43.59379" lon="3.073">
        <ele>300.9</ele>
        <time>2026-05-20T08:46:57Z</time>
      </trkpt>
      <trkpt lat="43.59383" lon="3.07295">
        <ele>301.9</ele>
        <time>2026-05-20T08:47:02Z</time>
      </trkpt>
      <trkpt lat="43.59385" lon="3.0729">
        <ele>302.8</ele>
        <time>2026-05-20T08:47:07Z</time>
      </trkpt>
      <trkpt lat="43.59388" lon="3.07287">
        <ele>303.5</ele>
        <time>2026-05-20T08:47:12Z</time>
      </trkpt>
      <trkpt lat="43.59391" lon="3.07282">
        <ele>304.6</ele>
        <time>2026-05-20T08:47:17Z</time>
      </trkpt>
      <trkpt lat="43.59393" lon="3.07278">
        <ele>305.4</ele>
        <time>2026-05-20T08:47:22Z</time>
      </trkpt>
      <trkpt lat="43.59397" lon="3.07273">
        <ele>306.6</ele>
        <time>2026-05-20T08:47:27Z</time>
      </trkpt>
      <trkpt lat="43.594" lon="3.07269">
        <ele>307.6</ele>
        <time>2026-05-20T08:47:32Z</time>
      </trkpt>
      <trkpt lat="43.59403" lon="3.07265">
        <ele>308.6</ele>
        <time>2026-05-20T08:47:37Z</time>
      </trkpt>
      <trkpt lat="43.59405" lon="3.07261">
        <ele>309.5</ele>
        <time>2026-05-20T08:47:42Z</time>
      </trkpt>
      <trkpt lat="43.5941" lon="3.07257">
        <ele>310.8</ele>
        <time>2026-05-20T08:47:47Z</time>
      </trkpt>
      <trkpt lat="43.59413" lon="3.07253">
        <ele>311.9</ele>
        <time>2026-05-20T08:47:52Z</time>
      </trkpt>
      <trkpt lat="43.59417" lon="3.07249">
        <ele>312.9</ele>
        <time>2026-05-20T08:47:57Z</time>
      </trkpt>
      <trkpt lat="43.59421" lon="3.07245">
        <ele>312.6</ele>
        <time>2026-05-20T08:48:02Z</time>
      </trkpt>
      <trkpt lat="43.59422" lon="3.07242">
        <ele>312.4</ele>
        <time>2026-05-20T08:48:07Z</time>
      </trkpt>
      <trkpt lat="43.59424" lon="3.07241">
        <ele>312.3</ele>
        <time>2026-05-20T08:48:12Z</time>
      </trkpt>
      <trkpt lat="43.59427" lon="3.07238">
        <ele>312.1</ele>
        <time>2026-05-20T08:48:17Z</time>
      </trkpt>
      <trkpt lat="43.59431" lon="3.07235">
        <ele>312</ele>
        <time>2026-05-20T08:48:22Z</time>
      </trkpt>
      <trkpt lat="43.59434" lon="3.07232">
        <ele>311.9</ele>
        <time>2026-05-20T08:48:27Z</time>
      </trkpt>
      <trkpt lat="43.59437" lon="3.0723">
        <ele>311.9</ele>
        <time>2026-05-20T08:48:32Z</time>
      </trkpt>
      <trkpt lat="43.59437" lon="3.0723">
        <ele>311.9</ele>
        <time>2026-05-20T08:48:37Z</time>
      </trkpt>
      <trkpt lat="43.59439" lon="3.07229">
        <ele>311.9</ele>
        <time>2026-05-20T08:48:42Z</time>
      </trkpt>
      <trkpt lat="43.59444" lon="3.07226">
        <ele>311.9</ele>
        <time>2026-05-20T08:48:47Z</time>
      </trkpt>
      <trkpt lat="43.59447" lon="3.07222">
        <ele>312</ele>
        <time>2026-05-20T08:48:52Z</time>
      </trkpt>
      <trkpt lat="43.59449" lon="3.0722">
        <ele>312.1</ele>
        <time>2026-05-20T08:48:57Z</time>
      </trkpt>
      <trkpt lat="43.59449" lon="3.0722">
        <ele>312.1</ele>
        <time>2026-05-20T08:49:02Z</time>
      </trkpt>
      <trkpt lat="43.59449" lon="3.0722">
        <ele>312.1</ele>
        <time>2026-05-20T08:49:07Z</time>
      </trkpt>
      <trkpt lat="43.59449" lon="3.0722">
        <ele>312.1</ele>
        <time>2026-05-20T08:49:12Z</time>
      </trkpt>
      <trkpt lat="43.59449" lon="3.0722">
        <ele>312.1</ele>
        <time>2026-05-20T08:49:17Z</time>
      </trkpt>
      <trkpt lat="43.59449" lon="3.0722">
        <ele>312.1</ele>
        <time>2026-05-20T08:49:22Z</time>
      </trkpt>
      <trkpt lat="43.59449" lon="3.0722">
        <ele>312.1</ele>
        <time>2026-05-20T08:49:27Z</time>
      </trkpt>
      <trkpt lat="43.59452" lon="3.07216">
        <ele>312.3</ele>
        <time>2026-05-20T08:49:32Z</time>
      </trkpt>
      <trkpt lat="43.59457" lon="3.07211">
        <ele>312.8</ele>
        <time>2026-05-20T08:49:37Z</time>
      </trkpt>
      <trkpt lat="43.59461" lon="3.07205">
        <ele>313.4</ele>
        <time>2026-05-20T08:49:42Z</time>
      </trkpt>
      <trkpt lat="43.59464" lon="3.072">
        <ele>313.9</ele>
        <time>2026-05-20T08:49:47Z</time>
      </trkpt>
      <trkpt lat="43.59467" lon="3.07193">
        <ele>314.8</ele>
        <time>2026-05-20T08:49:52Z</time>
      </trkpt>
      <trkpt lat="43.59469" lon="3.07188">
        <ele>315.4</ele>
        <time>2026-05-20T08:49:57Z</time>
      </trkpt>
      <trkpt lat="43.59472" lon="3.07181">
        <ele>316.4</ele>
        <time>2026-05-20T08:50:02Z</time>
      </trkpt>
      <trkpt lat="43.59475" lon="3.07174">
        <ele>317.6</ele>
        <time>2026-05-20T08:50:07Z</time>
      </trkpt>
      <trkpt lat="43.59478" lon="3.07167">
        <ele>318.8</ele>
        <time>2026-05-20T08:50:12Z</time>
      </trkpt>
      <trkpt lat="43.59479" lon="3.07161">
        <ele>318.6</ele>
        <time>2026-05-20T08:50:17Z</time>
      </trkpt>
      <trkpt lat="43.5948" lon="3.07156">
        <ele>318.5</ele>
        <time>2026-05-20T08:50:22Z</time>
      </trkpt>
      <trkpt lat="43.59481" lon="3.07152">
        <ele>318.4</ele>
        <time>2026-05-20T08:50:27Z</time>
      </trkpt>
      <trkpt lat="43.59482" lon="3.07148">
        <ele>318.3</ele>
        <time>2026-05-20T08:50:32Z</time>
      </trkpt>
      <trkpt lat="43.59484" lon="3.07142">
        <ele>318.3</ele>
        <time>2026-05-20T08:50:37Z</time>
      </trkpt>
      <trkpt lat="43.59484" lon="3.07138">
        <ele>318.1</ele>
        <time>2026-05-20T08:50:42Z</time>
      </trkpt>
      <trkpt lat="43.59484" lon="3.07133">
        <ele>317.8</ele>
        <time>2026-05-20T08:50:47Z</time>
      </trkpt>
      <trkpt lat="43.59484" lon="3.07129">
        <ele>317.6</ele>
        <time>2026-05-20T08:50:52Z</time>
      </trkpt>
      <trkpt lat="43.59485" lon="3.07124">
        <ele>317.5</ele>
        <time>2026-05-20T08:50:57Z</time>
      </trkpt>
      <trkpt lat="43.59486" lon="3.07119">
        <ele>317.4</ele>
        <time>2026-05-20T08:51:02Z</time>
      </trkpt>
      <trkpt lat="43.59488" lon="3.07114">
        <ele>317.6</ele>
        <time>2026-05-20T08:51:07Z</time>
      </trkpt>
      <trkpt lat="43.59489" lon="3.07109">
        <ele>317.5</ele>
        <time>2026-05-20T08:51:12Z</time>
      </trkpt>
      <trkpt lat="43.59489" lon="3.07104">
        <ele>317.3</ele>
        <time>2026-05-20T08:51:17Z</time>
      </trkpt>
      <trkpt lat="43.5949" lon="3.07099">
        <ele>317.2</ele>
        <time>2026-05-20T08:51:22Z</time>
      </trkpt>
      <trkpt lat="43.59492" lon="3.07094">
        <ele>317.5</ele>
        <time>2026-05-20T08:51:27Z</time>
      </trkpt>
      <trkpt lat="43.59493" lon="3.07089">
        <ele>317.5</ele>
        <time>2026-05-20T08:51:32Z</time>
      </trkpt>
      <trkpt lat="43.59494" lon="3.07086">
        <ele>317.6</ele>
        <time>2026-05-20T08:51:37Z</time>
      </trkpt>
      <trkpt lat="43.59494" lon="3.07086">
        <ele>317.6</ele>
        <time>2026-05-20T08:51:42Z</time>
      </trkpt>
      <trkpt lat="43.59499" lon="3.07077">
        <ele>318.6</ele>
        <time>2026-05-20T08:51:47Z</time>
      </trkpt>
      <trkpt lat="43.595" lon="3.07073">
        <ele>318.8</ele>
        <time>2026-05-20T08:51:52Z</time>
      </trkpt>
      <trkpt lat="43.59501" lon="3.07067">
        <ele>318.7</ele>
        <time>2026-05-20T08:51:57Z</time>
      </trkpt>
      <trkpt lat="43.59501" lon="3.07062">
        <ele>318.6</ele>
        <time>2026-05-20T08:52:02Z</time>
      </trkpt>
      <trkpt lat="43.59501" lon="3.07056">
        <ele>318.5</ele>
        <time>2026-05-20T08:52:07Z</time>
      </trkpt>
      <trkpt lat="43.59502" lon="3.07051">
        <ele>318.5</ele>
        <time>2026-05-20T08:52:12Z</time>
      </trkpt>
      <trkpt lat="43.59504" lon="3.07044">
        <ele>318.5</ele>
        <time>2026-05-20T08:52:17Z</time>
      </trkpt>
      <trkpt lat="43.59507" lon="3.0704">
        <ele>318.9</ele>
        <time>2026-05-20T08:52:22Z</time>
      </trkpt>
      <trkpt lat="43.59508" lon="3.07035">
        <ele>318.9</ele>
        <time>2026-05-20T08:52:27Z</time>
      </trkpt>
      <trkpt lat="43.5951" lon="3.0703">
        <ele>319.1</ele>
        <time>2026-05-20T08:52:32Z</time>
      </trkpt>
      <trkpt lat="43.59513" lon="3.07026">
        <ele>319.5</ele>
        <time>2026-05-20T08:52:37Z</time>
      </trkpt>
      <trkpt lat="43.59515" lon="3.0702">
        <ele>319.8</ele>
        <time>2026-05-20T08:52:42Z</time>
      </trkpt>
      <trkpt lat="43.59517" lon="3.07014">
        <ele>320.1</ele>
        <time>2026-05-20T08:52:47Z</time>
      </trkpt>
      <trkpt lat="43.59516" lon="3.07008">
        <ele>319.9</ele>
        <time>2026-05-20T08:52:52Z</time>
      </trkpt>
      <trkpt lat="43.59514" lon="3.07">
        <ele>319.5</ele>
        <time>2026-05-20T08:52:57Z</time>
      </trkpt>
      <trkpt lat="43.59515" lon="3.06993">
        <ele>320.5</ele>
        <time>2026-05-20T08:53:02Z</time>
      </trkpt>
      <trkpt lat="43.59516" lon="3.06985">
        <ele>321.6</ele>
        <time>2026-05-20T08:53:07Z</time>
      </trkpt>
      <trkpt lat="43.59518" lon="3.06979">
        <ele>322.6</ele>
        <time>2026-05-20T08:53:12Z</time>
      </trkpt>
      <trkpt lat="43.5952" lon="3.06973">
        <ele>323.6</ele>
        <time>2026-05-20T08:53:17Z</time>
      </trkpt>
      <trkpt lat="43.59523" lon="3.06967">
        <ele>324.7</ele>
        <time>2026-05-20T08:53:22Z</time>
      </trkpt>
      <trkpt lat="43.59525" lon="3.06963">
        <ele>325.5</ele>
        <time>2026-05-20T08:53:27Z</time>
      </trkpt>
      <trkpt lat="43.59528" lon="3.06958">
        <ele>326.4</ele>
        <time>2026-05-20T08:53:32Z</time>
      </trkpt>
      <trkpt lat="43.59529" lon="3.06951">
        <ele>327.3</ele>
        <time>2026-05-20T08:53:37Z</time>
      </trkpt>
      <trkpt lat="43.59533" lon="3.06946">
        <ele>328.3</ele>
        <time>2026-05-20T08:53:42Z</time>
      </trkpt>
      <trkpt lat="43.59536" lon="3.0694">
        <ele>329.2</ele>
        <time>2026-05-20T08:53:47Z</time>
      </trkpt>
      <trkpt lat="43.59538" lon="3.06933">
        <ele>330.1</ele>
        <time>2026-05-20T08:53:52Z</time>
      </trkpt>
      <trkpt lat="43.5954" lon="3.06926">
        <ele>331</ele>
        <time>2026-05-20T08:53:57Z</time>
      </trkpt>
      <trkpt lat="43.59541" lon="3.06919">
        <ele>331.7</ele>
        <time>2026-05-20T08:54:02Z</time>
      </trkpt>
      <trkpt lat="43.5954" lon="3.06912">
        <ele>332.9</ele>
        <time>2026-05-20T08:54:07Z</time>
      </trkpt>
      <trkpt lat="43.5954" lon="3.06904">
        <ele>334.6</ele>
        <time>2026-05-20T08:54:12Z</time>
      </trkpt>
      <trkpt lat="43.59539" lon="3.06896">
        <ele>336.3</ele>
        <time>2026-05-20T08:54:17Z</time>
      </trkpt>
      <trkpt lat="43.5954" lon="3.0689">
        <ele>337.7</ele>
        <time>2026-05-20T08:54:22Z</time>
      </trkpt>
      <trkpt lat="43.59542" lon="3.06887">
        <ele>338.4</ele>
        <time>2026-05-20T08:54:27Z</time>
      </trkpt>
      <trkpt lat="43.59541" lon="3.06884">
        <ele>339</ele>
        <time>2026-05-20T08:54:32Z</time>
      </trkpt>
      <trkpt lat="43.59541" lon="3.06883">
        <ele>339.2</ele>
        <time>2026-05-20T08:54:37Z</time>
      </trkpt>
      <trkpt lat="43.59542" lon="3.06871">
        <ele>341.9</ele>
        <time>2026-05-20T08:54:42Z</time>
      </trkpt>
      <trkpt lat="43.5954" lon="3.06864">
        <ele>343.3</ele>
        <time>2026-05-20T08:54:47Z</time>
      </trkpt>
      <trkpt lat="43.5954" lon="3.06859">
        <ele>344.4</ele>
        <time>2026-05-20T08:54:52Z</time>
      </trkpt>
      <trkpt lat="43.59539" lon="3.06852">
        <ele>345.9</ele>
        <time>2026-05-20T08:54:57Z</time>
      </trkpt>
      <trkpt lat="43.59538" lon="3.06846">
        <ele>347.2</ele>
        <time>2026-05-20T08:55:02Z</time>
      </trkpt>
      <trkpt lat="43.59535" lon="3.0684">
        <ele>348.5</ele>
        <time>2026-05-20T08:55:07Z</time>
      </trkpt>
      <trkpt lat="43.59534" lon="3.06835">
        <ele>349.6</ele>
        <time>2026-05-20T08:55:12Z</time>
      </trkpt>
      <trkpt lat="43.59533" lon="3.06831">
        <ele>350.3</ele>
        <time>2026-05-20T08:55:17Z</time>
      </trkpt>
      <trkpt lat="43.59532" lon="3.06826">
        <ele>350.8</ele>
        <time>2026-05-20T08:55:22Z</time>
      </trkpt>
      <trkpt lat="43.59533" lon="3.06821">
        <ele>351.4</ele>
        <time>2026-05-20T08:55:27Z</time>
      </trkpt>
      <trkpt lat="43.59532" lon="3.06818">
        <ele>351.7</ele>
        <time>2026-05-20T08:55:32Z</time>
      </trkpt>
      <trkpt lat="43.59532" lon="3.06818">
        <ele>351.7</ele>
        <time>2026-05-20T08:55:37Z</time>
      </trkpt>
      <trkpt lat="43.59523" lon="3.0681">
        <ele>352.8</ele>
        <time>2026-05-20T08:55:42Z</time>
      </trkpt>
      <trkpt lat="43.59518" lon="3.06807">
        <ele>353.2</ele>
        <time>2026-05-20T08:55:47Z</time>
      </trkpt>
      <trkpt lat="43.59513" lon="3.06804">
        <ele>353.7</ele>
        <time>2026-05-20T08:55:52Z</time>
      </trkpt>
      <trkpt lat="43.5951" lon="3.06801">
        <ele>354.1</ele>
        <time>2026-05-20T08:55:57Z</time>
      </trkpt>
      <trkpt lat="43.59506" lon="3.06798">
        <ele>354.5</ele>
        <time>2026-05-20T08:56:02Z</time>
      </trkpt>
      <trkpt lat="43.59505" lon="3.06793">
        <ele>355.2</ele>
        <time>2026-05-20T08:56:07Z</time>
      </trkpt>
      <trkpt lat="43.59509" lon="3.06788">
        <ele>355.7</ele>
        <time>2026-05-20T08:56:12Z</time>
      </trkpt>
      <trkpt lat="43.59515" lon="3.06785">
        <ele>356</ele>
        <time>2026-05-20T08:56:17Z</time>
      </trkpt>
      <trkpt lat="43.59523" lon="3.06782">
        <ele>356.1</ele>
        <time>2026-05-20T08:56:22Z</time>
      </trkpt>
      <trkpt lat="43.59529" lon="3.06781">
        <ele>356</ele>
        <time>2026-05-20T08:56:27Z</time>
      </trkpt>
      <trkpt lat="43.59536" lon="3.06779">
        <ele>356</ele>
        <time>2026-05-20T08:56:32Z</time>
      </trkpt>
      <trkpt lat="43.59541" lon="3.0678">
        <ele>355.8</ele>
        <time>2026-05-20T08:56:37Z</time>
      </trkpt>
      <trkpt lat="43.59547" lon="3.06778">
        <ele>355.8</ele>
        <time>2026-05-20T08:56:42Z</time>
      </trkpt>
      <trkpt lat="43.59553" lon="3.06776">
        <ele>355.8</ele>
        <time>2026-05-20T08:56:47Z</time>
      </trkpt>
      <trkpt lat="43.59558" lon="3.06777">
        <ele>355.6</ele>
        <time>2026-05-20T08:56:52Z</time>
      </trkpt>
      <trkpt lat="43.59563" lon="3.06777">
        <ele>355.4</ele>
        <time>2026-05-20T08:56:57Z</time>
      </trkpt>
      <trkpt lat="43.59568" lon="3.06777">
        <ele>355.2</ele>
        <time>2026-05-20T08:57:02Z</time>
      </trkpt>
      <trkpt lat="43.59573" lon="3.06777">
        <ele>355.1</ele>
        <time>2026-05-20T08:57:07Z</time>
      </trkpt>
      <trkpt lat="43.59577" lon="3.06777">
        <ele>354.9</ele>
        <time>2026-05-20T08:57:12Z</time>
      </trkpt>
      <trkpt lat="43.59582" lon="3.06777">
        <ele>354.8</ele>
        <time>2026-05-20T08:57:17Z</time>
      </trkpt>
      <trkpt lat="43.59588" lon="3.06778">
        <ele>355.1</ele>
        <time>2026-05-20T08:57:22Z</time>
      </trkpt>
      <trkpt lat="43.59593" lon="3.06778">
        <ele>355.5</ele>
        <time>2026-05-20T08:57:27Z</time>
      </trkpt>
      <trkpt lat="43.59598" lon="3.06777">
        <ele>356.1</ele>
        <time>2026-05-20T08:57:32Z</time>
      </trkpt>
      <trkpt lat="43.59603" lon="3.06775">
        <ele>356.7</ele>
        <time>2026-05-20T08:57:37Z</time>
      </trkpt>
      <trkpt lat="43.59609" lon="3.06774">
        <ele>357.3</ele>
        <time>2026-05-20T08:57:42Z</time>
      </trkpt>
      <trkpt lat="43.59613" lon="3.06771">
        <ele>357.8</ele>
        <time>2026-05-20T08:57:47Z</time>
      </trkpt>
      <trkpt lat="43.59618" lon="3.06767">
        <ele>358.5</ele>
        <time>2026-05-20T08:57:52Z</time>
      </trkpt>
      <trkpt lat="43.59622" lon="3.06763">
        <ele>359.1</ele>
        <time>2026-05-20T08:57:57Z</time>
      </trkpt>
      <trkpt lat="43.59626" lon="3.0676">
        <ele>359.5</ele>
        <time>2026-05-20T08:58:02Z</time>
      </trkpt>
      <trkpt lat="43.5963" lon="3.06756">
        <ele>360.1</ele>
        <time>2026-05-20T08:58:07Z</time>
      </trkpt>
      <trkpt lat="43.59635" lon="3.06752">
        <ele>360.6</ele>
        <time>2026-05-20T08:58:12Z</time>
      </trkpt>
      <trkpt lat="43.5964" lon="3.06748">
        <ele>360.8</ele>
        <time>2026-05-20T08:58:17Z</time>
      </trkpt>
      <trkpt lat="43.59645" lon="3.06744">
        <ele>360.8</ele>
        <time>2026-05-20T08:58:22Z</time>
      </trkpt>
      <trkpt lat="43.59649" lon="3.06741">
        <ele>360.7</ele>
        <time>2026-05-20T08:58:27Z</time>
      </trkpt>
      <trkpt lat="43.59655" lon="3.0674">
        <ele>361</ele>
        <time>2026-05-20T08:58:32Z</time>
      </trkpt>
      <trkpt lat="43.59659" lon="3.06737">
        <ele>361</ele>
        <time>2026-05-20T08:58:37Z</time>
      </trkpt>
      <trkpt lat="43.59666" lon="3.06734">
        <ele>361.2</ele>
        <time>2026-05-20T08:58:42Z</time>
      </trkpt>
      <trkpt lat="43.59672" lon="3.0673">
        <ele>361.4</ele>
        <time>2026-05-20T08:58:47Z</time>
      </trkpt>
      <trkpt lat="43.59676" lon="3.06726">
        <ele>361.4</ele>
        <time>2026-05-20T08:58:52Z</time>
      </trkpt>
      <trkpt lat="43.59682" lon="3.06723">
        <ele>361.7</ele>
        <time>2026-05-20T08:58:57Z</time>
      </trkpt>
      <trkpt lat="43.59688" lon="3.06718">
        <ele>361.7</ele>
        <time>2026-05-20T08:59:02Z</time>
      </trkpt>
      <trkpt lat="43.59693" lon="3.06716">
        <ele>362</ele>
        <time>2026-05-20T08:59:07Z</time>
      </trkpt>
      <trkpt lat="43.59699" lon="3.06713">
        <ele>362.3</ele>
        <time>2026-05-20T08:59:12Z</time>
      </trkpt>
      <trkpt lat="43.59703" lon="3.06709">
        <ele>362.3</ele>
        <time>2026-05-20T08:59:17Z</time>
      </trkpt>
      <trkpt lat="43.59709" lon="3.06705">
        <ele>362.4</ele>
        <time>2026-05-20T08:59:22Z</time>
      </trkpt>
      <trkpt lat="43.59715" lon="3.06701">
        <ele>362.6</ele>
        <time>2026-05-20T08:59:27Z</time>
      </trkpt>
      <trkpt lat="43.5972" lon="3.06697">
        <ele>362.6</ele>
        <time>2026-05-20T08:59:32Z</time>
      </trkpt>
      <trkpt lat="43.59726" lon="3.06694">
        <ele>362.9</ele>
        <time>2026-05-20T08:59:37Z</time>
      </trkpt>
      <trkpt lat="43.59731" lon="3.06691">
        <ele>363</ele>
        <time>2026-05-20T08:59:42Z</time>
      </trkpt>
      <trkpt lat="43.59736" lon="3.06688">
        <ele>363.2</ele>
        <time>2026-05-20T08:59:47Z</time>
      </trkpt>
      <trkpt lat="43.59742" lon="3.06683">
        <ele>363.2</ele>
        <time>2026-05-20T08:59:52Z</time>
      </trkpt>
      <trkpt lat="43.59747" lon="3.06679">
        <ele>363.2</ele>
        <time>2026-05-20T08:59:57Z</time>
      </trkpt>
      <trkpt lat="43.59753" lon="3.06675">
        <ele>363.5</ele>
        <time>2026-05-20T09:00:02Z</time>
      </trkpt>
      <trkpt lat="43.59758" lon="3.06672">
        <ele>364</ele>
        <time>2026-05-20T09:00:07Z</time>
      </trkpt>
      <trkpt lat="43.59765" lon="3.06667">
        <ele>364.6</ele>
        <time>2026-05-20T09:00:12Z</time>
      </trkpt>
      <trkpt lat="43.59771" lon="3.06663">
        <ele>365.8</ele>
        <time>2026-05-20T09:00:17Z</time>
      </trkpt>
      <trkpt lat="43.59775" lon="3.06659">
        <ele>366.8</ele>
        <time>2026-05-20T09:00:22Z</time>
      </trkpt>
      <trkpt lat="43.5978" lon="3.06655">
        <ele>367.8</ele>
        <time>2026-05-20T09:00:27Z</time>
      </trkpt>
      <trkpt lat="43.59785" lon="3.06652">
        <ele>368.8</ele>
        <time>2026-05-20T09:00:32Z</time>
      </trkpt>
      <trkpt lat="43.59789" lon="3.06647">
        <ele>369.7</ele>
        <time>2026-05-20T09:00:37Z</time>
      </trkpt>
      <trkpt lat="43.59795" lon="3.06642">
        <ele>370.8</ele>
        <time>2026-05-20T09:00:42Z</time>
      </trkpt>
      <trkpt lat="43.598" lon="3.06639">
        <ele>371.6</ele>
        <time>2026-05-20T09:00:47Z</time>
      </trkpt>
      <trkpt lat="43.59805" lon="3.06637">
        <ele>372.3</ele>
        <time>2026-05-20T09:00:52Z</time>
      </trkpt>
      <trkpt lat="43.5981" lon="3.06633">
        <ele>373.1</ele>
        <time>2026-05-20T09:00:57Z</time>
      </trkpt>
      <trkpt lat="43.59815" lon="3.0663">
        <ele>373.8</ele>
        <time>2026-05-20T09:01:02Z</time>
      </trkpt>
      <trkpt lat="43.59819" lon="3.06627">
        <ele>374.3</ele>
        <time>2026-05-20T09:01:07Z</time>
      </trkpt>
      <trkpt lat="43.59824" lon="3.06624">
        <ele>374.9</ele>
        <time>2026-05-20T09:01:12Z</time>
      </trkpt>
      <trkpt lat="43.5983" lon="3.0662">
        <ele>375.6</ele>
        <time>2026-05-20T09:01:17Z</time>
      </trkpt>
      <trkpt lat="43.59835" lon="3.06616">
        <ele>376.2</ele>
        <time>2026-05-20T09:01:22Z</time>
      </trkpt>
      <trkpt lat="43.59839" lon="3.06611">
        <ele>376.5</ele>
        <time>2026-05-20T09:01:27Z</time>
      </trkpt>
      <trkpt lat="43.59843" lon="3.06606">
        <ele>376.9</ele>
        <time>2026-05-20T09:01:32Z</time>
      </trkpt>
      <trkpt lat="43.59847" lon="3.06601">
        <ele>377.3</ele>
        <time>2026-05-20T09:01:37Z</time>
      </trkpt>
      <trkpt lat="43.59851" lon="3.06596">
        <ele>377.6</ele>
        <time>2026-05-20T09:01:42Z</time>
      </trkpt>
      <trkpt lat="43.59854" lon="3.06593">
        <ele>377.8</ele>
        <time>2026-05-20T09:01:47Z</time>
      </trkpt>
      <trkpt lat="43.59858" lon="3.06588">
        <ele>378.1</ele>
        <time>2026-05-20T09:01:52Z</time>
      </trkpt>
      <trkpt lat="43.59863" lon="3.06584">
        <ele>378.5</ele>
        <time>2026-05-20T09:01:57Z</time>
      </trkpt>
      <trkpt lat="43.59866" lon="3.06578">
        <ele>379.6</ele>
        <time>2026-05-20T09:02:02Z</time>
      </trkpt>
      <trkpt lat="43.5987" lon="3.06574">
        <ele>380.6</ele>
        <time>2026-05-20T09:02:07Z</time>
      </trkpt>
      <trkpt lat="43.59873" lon="3.06568">
        <ele>381.7</ele>
        <time>2026-05-20T09:02:12Z</time>
      </trkpt>
      <trkpt lat="43.59876" lon="3.06561">
        <ele>382.9</ele>
        <time>2026-05-20T09:02:17Z</time>
      </trkpt>
      <trkpt lat="43.59878" lon="3.06555">
        <ele>383.9</ele>
        <time>2026-05-20T09:02:22Z</time>
      </trkpt>
      <trkpt lat="43.59879" lon="3.06548">
        <ele>384.9</ele>
        <time>2026-05-20T09:02:27Z</time>
      </trkpt>
      <trkpt lat="43.59881" lon="3.06542">
        <ele>385.8</ele>
        <time>2026-05-20T09:02:32Z</time>
      </trkpt>
      <trkpt lat="43.59884" lon="3.06535">
        <ele>386.8</ele>
        <time>2026-05-20T09:02:37Z</time>
      </trkpt>
      <trkpt lat="43.59886" lon="3.0653">
        <ele>387.5</ele>
        <time>2026-05-20T09:02:42Z</time>
      </trkpt>
      <trkpt lat="43.59889" lon="3.06525">
        <ele>388.1</ele>
        <time>2026-05-20T09:02:47Z</time>
      </trkpt>
      <trkpt lat="43.59892" lon="3.06519">
        <ele>388.8</ele>
        <time>2026-05-20T09:02:52Z</time>
      </trkpt>
      <trkpt lat="43.59894" lon="3.06514">
        <ele>389.4</ele>
        <time>2026-05-20T09:02:57Z</time>
      </trkpt>
      <trkpt lat="43.59897" lon="3.06508">
        <ele>390</ele>
        <time>2026-05-20T09:03:02Z</time>
      </trkpt>
      <trkpt lat="43.59899" lon="3.06501">
        <ele>390.7</ele>
        <time>2026-05-20T09:03:07Z</time>
      </trkpt>
      <trkpt lat="43.59901" lon="3.06496">
        <ele>391.7</ele>
        <time>2026-05-20T09:03:12Z</time>
      </trkpt>
      <trkpt lat="43.59904" lon="3.06492">
        <ele>392.4</ele>
        <time>2026-05-20T09:03:17Z</time>
      </trkpt>
      <trkpt lat="43.59906" lon="3.06487">
        <ele>393.4</ele>
        <time>2026-05-20T09:03:22Z</time>
      </trkpt>
      <trkpt lat="43.59907" lon="3.06479">
        <ele>395.1</ele>
        <time>2026-05-20T09:03:27Z</time>
      </trkpt>
      <trkpt lat="43.59908" lon="3.06473">
        <ele>396.4</ele>
        <time>2026-05-20T09:03:32Z</time>
      </trkpt>
      <trkpt lat="43.59908" lon="3.06467">
        <ele>397.7</ele>
        <time>2026-05-20T09:03:37Z</time>
      </trkpt>
      <trkpt lat="43.59908" lon="3.06462">
        <ele>398.8</ele>
        <time>2026-05-20T09:03:42Z</time>
      </trkpt>
      <trkpt lat="43.59907" lon="3.06456">
        <ele>400.2</ele>
        <time>2026-05-20T09:03:47Z</time>
      </trkpt>
      <trkpt lat="43.59906" lon="3.06449">
        <ele>401.8</ele>
        <time>2026-05-20T09:03:52Z</time>
      </trkpt>
      <trkpt lat="43.59907" lon="3.06444">
        <ele>402.9</ele>
        <time>2026-05-20T09:03:57Z</time>
      </trkpt>
      <trkpt lat="43.59907" lon="3.06438">
        <ele>404.2</ele>
        <time>2026-05-20T09:04:02Z</time>
      </trkpt>
      <trkpt lat="43.59906" lon="3.06432">
        <ele>405.6</ele>
        <time>2026-05-20T09:04:07Z</time>
      </trkpt>
      <trkpt lat="43.59906" lon="3.06426">
        <ele>407</ele>
        <time>2026-05-20T09:04:12Z</time>
      </trkpt>
      <trkpt lat="43.59905" lon="3.06419">
        <ele>408.6</ele>
        <time>2026-05-20T09:04:17Z</time>
      </trkpt>
      <trkpt lat="43.59905" lon="3.06412">
        <ele>410.2</ele>
        <time>2026-05-20T09:04:22Z</time>
      </trkpt>
      <trkpt lat="43.59905" lon="3.06404">
        <ele>412</ele>
        <time>2026-05-20T09:04:27Z</time>
      </trkpt>
      <trkpt lat="43.59907" lon="3.06398">
        <ele>413.1</ele>
        <time>2026-05-20T09:04:32Z</time>
      </trkpt>
      <trkpt lat="43.5991" lon="3.06393">
        <ele>414</ele>
        <time>2026-05-20T09:04:37Z</time>
      </trkpt>
      <trkpt lat="43.59913" lon="3.06391">
        <ele>414.2</ele>
        <time>2026-05-20T09:04:42Z</time>
      </trkpt>
      <trkpt lat="43.59915" lon="3.06389">
        <ele>414.5</ele>
        <time>2026-05-20T09:04:47Z</time>
      </trkpt>
      <trkpt lat="43.59917" lon="3.06386">
        <ele>415</ele>
        <time>2026-05-20T09:04:52Z</time>
      </trkpt>
      <trkpt lat="43.59918" lon="3.06383">
        <ele>415.6</ele>
        <time>2026-05-20T09:04:57Z</time>
      </trkpt>
      <trkpt lat="43.59919" lon="3.06382">
        <ele>415.8</ele>
        <time>2026-05-20T09:05:02Z</time>
      </trkpt>
      <trkpt lat="43.59919" lon="3.06382">
        <ele>415.8</ele>
        <time>2026-05-20T09:05:07Z</time>
      </trkpt>
      <trkpt lat="43.59919" lon="3.06382">
        <ele>415.8</ele>
        <time>2026-05-20T09:05:12Z</time>
      </trkpt>
      <trkpt lat="43.59919" lon="3.06382">
        <ele>415.8</ele>
        <time>2026-05-20T09:05:17Z</time>
      </trkpt>
      <trkpt lat="43.59919" lon="3.06382">
        <ele>415.8</ele>
        <time>2026-05-20T09:05:22Z</time>
      </trkpt>
      <trkpt lat="43.59919" lon="3.06382">
        <ele>415.8</ele>
        <time>2026-05-20T09:05:27Z</time>
      </trkpt>
      <trkpt lat="43.59919" lon="3.06382">
        <ele>415.8</ele>
        <time>2026-05-20T09:05:32Z</time>
      </trkpt>
      <trkpt lat="43.59919" lon="3.06382">
        <ele>415.8</ele>
        <time>2026-05-20T09:05:37Z</time>
      </trkpt>
      <trkpt lat="43.59924" lon="3.06369">
        <ele>418.4</ele>
        <time>2026-05-20T09:05:42Z</time>
      </trkpt>
      <trkpt lat="43.59925" lon="3.06364">
        <ele>419.4</ele>
        <time>2026-05-20T09:05:47Z</time>
      </trkpt>
      <trkpt lat="43.59925" lon="3.06363">
        <ele>419.6</ele>
        <time>2026-05-20T09:05:52Z</time>
      </trkpt>
      <trkpt lat="43.59925" lon="3.06363">
        <ele>419.6</ele>
        <time>2026-05-20T09:05:57Z</time>
      </trkpt>
      <trkpt lat="43.59925" lon="3.06363">
        <ele>419.6</ele>
        <time>2026-05-20T09:06:02Z</time>
      </trkpt>
      <trkpt lat="43.59926" lon="3.0635">
        <ele>422.4</ele>
        <time>2026-05-20T09:06:07Z</time>
      </trkpt>
      <trkpt lat="43.59927" lon="3.06345">
        <ele>423.4</ele>
        <time>2026-05-20T09:06:12Z</time>
      </trkpt>
      <trkpt lat="43.59928" lon="3.06339">
        <ele>424.6</ele>
        <time>2026-05-20T09:06:17Z</time>
      </trkpt>
      <trkpt lat="43.59927" lon="3.06334">
        <ele>425.7</ele>
        <time>2026-05-20T09:06:22Z</time>
      </trkpt>
      <trkpt lat="43.59927" lon="3.0633">
        <ele>426.5</ele>
        <time>2026-05-20T09:06:27Z</time>
      </trkpt>
      <trkpt lat="43.59926" lon="3.06328">
        <ele>427</ele>
        <time>2026-05-20T09:06:32Z</time>
      </trkpt>
      <trkpt lat="43.59926" lon="3.06328">
        <ele>427</ele>
        <time>2026-05-20T09:06:37Z</time>
      </trkpt>
      <trkpt lat="43.59926" lon="3.06328">
        <ele>427</ele>
        <time>2026-05-20T09:06:42Z</time>
      </trkpt>
      <trkpt lat="43.59926" lon="3.06328">
        <ele>427</ele>
        <time>2026-05-20T09:06:47Z</time>
      </trkpt>
      <trkpt lat="43.59926" lon="3.06328">
        <ele>427</ele>
        <time>2026-05-20T09:06:52Z</time>
      </trkpt>
      <trkpt lat="43.59924" lon="3.06315">
        <ele>429.6</ele>
        <time>2026-05-20T09:06:57Z</time>
      </trkpt>
      <trkpt lat="43.59924" lon="3.06315">
        <ele>429.6</ele>
        <time>2026-05-20T09:07:02Z</time>
      </trkpt>
      <trkpt lat="43.59924" lon="3.06315">
        <ele>429.6</ele>
        <time>2026-05-20T09:07:07Z</time>
      </trkpt>
      <trkpt lat="43.59924" lon="3.06315">
        <ele>429.6</ele>
        <time>2026-05-20T09:07:12Z</time>
      </trkpt>
      <trkpt lat="43.59924" lon="3.06315">
        <ele>429.6</ele>
        <time>2026-05-20T09:07:17Z</time>
      </trkpt>
      <trkpt lat="43.59926" lon="3.06302">
        <ele>431.8</ele>
        <time>2026-05-20T09:07:22Z</time>
      </trkpt>
      <trkpt lat="43.59926" lon="3.06302">
        <ele>431.8</ele>
        <time>2026-05-20T09:07:27Z</time>
      </trkpt>
      <trkpt lat="43.59926" lon="3.06302">
        <ele>431.8</ele>
        <time>2026-05-20T09:07:32Z</time>
      </trkpt>
      <trkpt lat="43.59922" lon="3.06289">
        <ele>434.5</ele>
        <time>2026-05-20T09:07:37Z</time>
      </trkpt>
      <trkpt lat="43.59921" lon="3.06288">
        <ele>434.8</ele>
        <time>2026-05-20T09:07:42Z</time>
      </trkpt>
      <trkpt lat="43.59921" lon="3.06288">
        <ele>434.8</ele>
        <time>2026-05-20T09:07:47Z</time>
      </trkpt>
      <trkpt lat="43.59921" lon="3.06288">
        <ele>434.8</ele>
        <time>2026-05-20T09:07:52Z</time>
      </trkpt>
      <trkpt lat="43.59917" lon="3.06274">
        <ele>437.7</ele>
        <time>2026-05-20T09:07:57Z</time>
      </trkpt>
      <trkpt lat="43.59917" lon="3.06274">
        <ele>437.7</ele>
        <time>2026-05-20T09:08:02Z</time>
      </trkpt>
      <trkpt lat="43.59917" lon="3.06274">
        <ele>437.7</ele>
        <time>2026-05-20T09:08:07Z</time>
      </trkpt>
      <trkpt lat="43.59911" lon="3.06263">
        <ele>440.1</ele>
        <time>2026-05-20T09:08:12Z</time>
      </trkpt>
      <trkpt lat="43.5991" lon="3.06262">
        <ele>440.4</ele>
        <time>2026-05-20T09:08:17Z</time>
      </trkpt>
      <trkpt lat="43.5991" lon="3.06262">
        <ele>440.4</ele>
        <time>2026-05-20T09:08:22Z</time>
      </trkpt>
      <trkpt lat="43.59902" lon="3.06252">
        <ele>442.9</ele>
        <time>2026-05-20T09:08:27Z</time>
      </trkpt>
      <trkpt lat="43.59901" lon="3.06251">
        <ele>443.1</ele>
        <time>2026-05-20T09:08:32Z</time>
      </trkpt>
      <trkpt lat="43.59901" lon="3.06251">
        <ele>443.1</ele>
        <time>2026-05-20T09:08:37Z</time>
      </trkpt>
      <trkpt lat="43.59901" lon="3.06251">
        <ele>443.1</ele>
        <time>2026-05-20T09:08:42Z</time>
      </trkpt>
      <trkpt lat="43.59893" lon="3.06245">
        <ele>445.1</ele>
        <time>2026-05-20T09:08:47Z</time>
      </trkpt>
      <trkpt lat="43.59892" lon="3.06244">
        <ele>445.4</ele>
        <time>2026-05-20T09:08:52Z</time>
      </trkpt>
      <trkpt lat="43.59892" lon="3.06244">
        <ele>445.4</ele>
        <time>2026-05-20T09:08:57Z</time>
      </trkpt>
      <trkpt lat="43.59892" lon="3.06244">
        <ele>445.4</ele>
        <time>2026-05-20T09:09:02Z</time>
      </trkpt>
      <trkpt lat="43.59883" lon="3.06238">
        <ele>447.4</ele>
        <time>2026-05-20T09:09:07Z</time>
      </trkpt>
      <trkpt lat="43.59881" lon="3.06238">
        <ele>447.6</ele>
        <time>2026-05-20T09:09:12Z</time>
      </trkpt>
      <trkpt lat="43.59881" lon="3.06238">
        <ele>447.6</ele>
        <time>2026-05-20T09:09:17Z</time>
      </trkpt>
      <trkpt lat="43.59881" lon="3.06238">
        <ele>447.6</ele>
        <time>2026-05-20T09:09:22Z</time>
      </trkpt>
      <trkpt lat="43.59881" lon="3.06238">
        <ele>447.6</ele>
        <time>2026-05-20T09:09:27Z</time>
      </trkpt>
      <trkpt lat="43.59871" lon="3.06239">
        <ele>448.1</ele>
        <time>2026-05-20T09:09:32Z</time>
      </trkpt>
      <trkpt lat="43.59871" lon="3.06239">
        <ele>448.1</ele>
        <time>2026-05-20T09:09:37Z</time>
      </trkpt>
      <trkpt lat="43.59871" lon="3.06239">
        <ele>448.1</ele>
        <time>2026-05-20T09:09:42Z</time>
      </trkpt>
      <trkpt lat="43.59871" lon="3.06239">
        <ele>448.1</ele>
        <time>2026-05-20T09:09:47Z</time>
      </trkpt>
      <trkpt lat="43.59861" lon="3.06241">
        <ele>448.5</ele>
        <time>2026-05-20T09:09:52Z</time>
      </trkpt>
      <trkpt lat="43.5986" lon="3.06242">
        <ele>448.4</ele>
        <time>2026-05-20T09:09:57Z</time>
      </trkpt>
      <trkpt lat="43.5986" lon="3.06242">
        <ele>448.4</ele>
        <time>2026-05-20T09:10:02Z</time>
      </trkpt>
      <trkpt lat="43.59852" lon="3.06249">
        <ele>447.6</ele>
        <time>2026-05-20T09:10:07Z</time>
      </trkpt>
      <trkpt lat="43.59849" lon="3.06249">
        <ele>447.9</ele>
        <time>2026-05-20T09:10:12Z</time>
      </trkpt>
      <trkpt lat="43.59847" lon="3.06249">
        <ele>448</ele>
        <time>2026-05-20T09:10:17Z</time>
      </trkpt>
      <trkpt lat="43.59847" lon="3.06249">
        <ele>448</ele>
        <time>2026-05-20T09:10:22Z</time>
      </trkpt>
      <trkpt lat="43.59846" lon="3.06241">
        <ele>449.6</ele>
        <time>2026-05-20T09:10:27Z</time>
      </trkpt>
      <trkpt lat="43.59845" lon="3.06238">
        <ele>450.3</ele>
        <time>2026-05-20T09:10:32Z</time>
      </trkpt>
      <trkpt lat="43.59843" lon="3.06236">
        <ele>450.8</ele>
        <time>2026-05-20T09:10:37Z</time>
      </trkpt>
      <trkpt lat="43.59843" lon="3.06236">
        <ele>450.8</ele>
        <time>2026-05-20T09:10:42Z</time>
      </trkpt>
      <trkpt lat="43.59843" lon="3.06236">
        <ele>450.8</ele>
        <time>2026-05-20T09:10:47Z</time>
      </trkpt>
      <trkpt lat="43.59843" lon="3.06236">
        <ele>450.8</ele>
        <time>2026-05-20T09:10:52Z</time>
      </trkpt>
      <trkpt lat="43.59837" lon="3.06224">
        <ele>453.4</ele>
        <time>2026-05-20T09:10:57Z</time>
      </trkpt>
      <trkpt lat="43.59834" lon="3.06221">
        <ele>454.2</ele>
        <time>2026-05-20T09:11:02Z</time>
      </trkpt>
      <trkpt lat="43.59833" lon="3.06218">
        <ele>454.7</ele>
        <time>2026-05-20T09:11:07Z</time>
      </trkpt>
      <trkpt lat="43.59833" lon="3.06218">
        <ele>454.7</ele>
        <time>2026-05-20T09:11:12Z</time>
      </trkpt>
      <trkpt lat="43.59829" lon="3.06212">
        <ele>455</ele>
        <time>2026-05-20T09:11:17Z</time>
      </trkpt>
      <trkpt lat="43.59828" lon="3.06209">
        <ele>455.3</ele>
        <time>2026-05-20T09:11:22Z</time>
      </trkpt>
      <trkpt lat="43.59827" lon="3.06205">
        <ele>455.8</ele>
        <time>2026-05-20T09:11:27Z</time>
      </trkpt>
      <trkpt lat="43.59827" lon="3.06202">
        <ele>456.4</ele>
        <time>2026-05-20T09:11:32Z</time>
      </trkpt>
      <trkpt lat="43.59826" lon="3.06198">
        <ele>456.9</ele>
        <time>2026-05-20T09:11:37Z</time>
      </trkpt>
      <trkpt lat="43.59825" lon="3.06195">
        <ele>457.2</ele>
        <time>2026-05-20T09:11:42Z</time>
      </trkpt>
      <trkpt lat="43.59826" lon="3.06192">
        <ele>457.9</ele>
        <time>2026-05-20T09:11:47Z</time>
      </trkpt>
      <trkpt lat="43.59826" lon="3.06188">
        <ele>458.6</ele>
        <time>2026-05-20T09:11:52Z</time>
      </trkpt>
      <trkpt lat="43.59825" lon="3.06184">
        <ele>459.1</ele>
        <time>2026-05-20T09:11:57Z</time>
      </trkpt>
      <trkpt lat="43.59825" lon="3.06179">
        <ele>460</ele>
        <time>2026-05-20T09:12:02Z</time>
      </trkpt>
      <trkpt lat="43.59826" lon="3.06175">
        <ele>460.9</ele>
        <time>2026-05-20T09:12:07Z</time>
      </trkpt>
      <trkpt lat="43.59824" lon="3.06172">
        <ele>461</ele>
        <time>2026-05-20T09:12:12Z</time>
      </trkpt>
      <trkpt lat="43.59824" lon="3.06169">
        <ele>461.6</ele>
        <time>2026-05-20T09:12:17Z</time>
      </trkpt>
      <trkpt lat="43.59824" lon="3.06169">
        <ele>461.6</ele>
        <time>2026-05-20T09:12:22Z</time>
      </trkpt>
      <trkpt lat="43.59824" lon="3.06169">
        <ele>461.6</ele>
        <time>2026-05-20T09:12:27Z</time>
      </trkpt>
      <trkpt lat="43.59823" lon="3.06161">
        <ele>461.6</ele>
        <time>2026-05-20T09:12:32Z</time>
      </trkpt>
      <trkpt lat="43.59823" lon="3.06155">
        <ele>461.4</ele>
        <time>2026-05-20T09:12:37Z</time>
      </trkpt>
      <trkpt lat="43.59823" lon="3.0615">
        <ele>461.2</ele>
        <time>2026-05-20T09:12:42Z</time>
      </trkpt>
      <trkpt lat="43.59822" lon="3.06146">
        <ele>460.9</ele>
        <time>2026-05-20T09:12:47Z</time>
      </trkpt>
      <trkpt lat="43.59825" lon="3.06142">
        <ele>461.3</ele>
        <time>2026-05-20T09:12:52Z</time>
      </trkpt>
      <trkpt lat="43.59828" lon="3.06142">
        <ele>461.9</ele>
        <time>2026-05-20T09:12:57Z</time>
      </trkpt>
      <trkpt lat="43.59829" lon="3.06142">
        <ele>462</ele>
        <time>2026-05-20T09:13:02Z</time>
      </trkpt>
      <trkpt lat="43.59829" lon="3.06142">
        <ele>462</ele>
        <time>2026-05-20T09:13:07Z</time>
      </trkpt>
      <trkpt lat="43.59829" lon="3.06142">
        <ele>462</ele>
        <time>2026-05-20T09:13:12Z</time>
      </trkpt>
      <trkpt lat="43.59822" lon="3.06143">
        <ele>460.8</ele>
        <time>2026-05-20T09:13:17Z</time>
      </trkpt>
      <trkpt lat="43.59819" lon="3.06138">
        <ele>460.2</ele>
        <time>2026-05-20T09:13:22Z</time>
      </trkpt>
      <trkpt lat="43.59819" lon="3.06131">
        <ele>460</ele>
        <time>2026-05-20T09:13:27Z</time>
      </trkpt>
      <trkpt lat="43.59819" lon="3.06125">
        <ele>459.8</ele>
        <time>2026-05-20T09:13:32Z</time>
      </trkpt>
      <trkpt lat="43.59818" lon="3.06122">
        <ele>459.6</ele>
        <time>2026-05-20T09:13:37Z</time>
      </trkpt>
      <trkpt lat="43.59818" lon="3.06122">
        <ele>459.6</ele>
        <time>2026-05-20T09:13:42Z</time>
      </trkpt>
      <trkpt lat="43.59817" lon="3.06117">
        <ele>459.4</ele>
        <time>2026-05-20T09:13:47Z</time>
      </trkpt>
      <trkpt lat="43.59817" lon="3.06113">
        <ele>459.3</ele>
        <time>2026-05-20T09:13:52Z</time>
      </trkpt>
      <trkpt lat="43.59817" lon="3.06108">
        <ele>459.2</ele>
        <time>2026-05-20T09:13:57Z</time>
      </trkpt>
      <trkpt lat="43.59817" lon="3.061">
        <ele>459</ele>
        <time>2026-05-20T09:14:02Z</time>
      </trkpt>
      <trkpt lat="43.59816" lon="3.06092">
        <ele>458.7</ele>
        <time>2026-05-20T09:14:07Z</time>
      </trkpt>
      <trkpt lat="43.59816" lon="3.06086">
        <ele>458.6</ele>
        <time>2026-05-20T09:14:12Z</time>
      </trkpt>
      <trkpt lat="43.59815" lon="3.06079">
        <ele>458.1</ele>
        <time>2026-05-20T09:14:17Z</time>
      </trkpt>
      <trkpt lat="43.59815" lon="3.06071">
        <ele>457.3</ele>
        <time>2026-05-20T09:14:22Z</time>
      </trkpt>
      <trkpt lat="43.59815" lon="3.06064">
        <ele>456.7</ele>
        <time>2026-05-20T09:14:27Z</time>
      </trkpt>
      <trkpt lat="43.59816" lon="3.06055">
        <ele>455.9</ele>
        <time>2026-05-20T09:14:32Z</time>
      </trkpt>
      <trkpt lat="43.59817" lon="3.06044">
        <ele>454.9</ele>
        <time>2026-05-20T09:14:37Z</time>
      </trkpt>
      <trkpt lat="43.59817" lon="3.06035">
        <ele>454.1</ele>
        <time>2026-05-20T09:14:42Z</time>
      </trkpt>
      <trkpt lat="43.59818" lon="3.06027">
        <ele>453.4</ele>
        <time>2026-05-20T09:14:47Z</time>
      </trkpt>
      <trkpt lat="43.59817" lon="3.06019">
        <ele>452.6</ele>
        <time>2026-05-20T09:14:52Z</time>
      </trkpt>
      <trkpt lat="43.59816" lon="3.06011">
        <ele>451.8</ele>
        <time>2026-05-20T09:14:57Z</time>
      </trkpt>
      <trkpt lat="43.59815" lon="3.06003">
        <ele>451</ele>
        <time>2026-05-20T09:15:02Z</time>
      </trkpt>
      <trkpt lat="43.59814" lon="3.05998">
        <ele>450.3</ele>
        <time>2026-05-20T09:15:07Z</time>
      </trkpt>
      <trkpt lat="43.59813" lon="3.05994">
        <ele>449.7</ele>
        <time>2026-05-20T09:15:12Z</time>
      </trkpt>
      <trkpt lat="43.59812" lon="3.05986">
        <ele>448.5</ele>
        <time>2026-05-20T09:15:17Z</time>
      </trkpt>
      <trkpt lat="43.59812" lon="3.05975">
        <ele>447</ele>
        <time>2026-05-20T09:15:22Z</time>
      </trkpt>
      <trkpt lat="43.59811" lon="3.05965">
        <ele>445.5</ele>
        <time>2026-05-20T09:15:27Z</time>
      </trkpt>
      <trkpt lat="43.59811" lon="3.05956">
        <ele>444.3</ele>
        <time>2026-05-20T09:15:32Z</time>
      </trkpt>
      <trkpt lat="43.59812" lon="3.05948">
        <ele>443.3</ele>
        <time>2026-05-20T09:15:37Z</time>
      </trkpt>
      <trkpt lat="43.59813" lon="3.0594">
        <ele>442.3</ele>
        <time>2026-05-20T09:15:42Z</time>
      </trkpt>
      <trkpt lat="43.59814" lon="3.05927">
        <ele>440.6</ele>
        <time>2026-05-20T09:15:47Z</time>
      </trkpt>
      <trkpt lat="43.59813" lon="3.05918">
        <ele>439.3</ele>
        <time>2026-05-20T09:15:52Z</time>
      </trkpt>
      <trkpt lat="43.59814" lon="3.05908">
        <ele>438.2</ele>
        <time>2026-05-20T09:15:57Z</time>
      </trkpt>
      <trkpt lat="43.59816" lon="3.05899">
        <ele>437.5</ele>
        <time>2026-05-20T09:16:02Z</time>
      </trkpt>
      <trkpt lat="43.59818" lon="3.05889">
        <ele>436.7</ele>
        <time>2026-05-20T09:16:07Z</time>
      </trkpt>
      <trkpt lat="43.5982" lon="3.05882">
        <ele>436.4</ele>
        <time>2026-05-20T09:16:12Z</time>
      </trkpt>
      <trkpt lat="43.59821" lon="3.05875">
        <ele>435.8</ele>
        <time>2026-05-20T09:16:17Z</time>
      </trkpt>
      <trkpt lat="43.59821" lon="3.05866">
        <ele>434.9</ele>
        <time>2026-05-20T09:16:22Z</time>
      </trkpt>
      <trkpt lat="43.59821" lon="3.05857">
        <ele>433.9</ele>
        <time>2026-05-20T09:16:27Z</time>
      </trkpt>
      <trkpt lat="43.59821" lon="3.0585">
        <ele>433.2</ele>
        <time>2026-05-20T09:16:32Z</time>
      </trkpt>
      <trkpt lat="43.59823" lon="3.05841">
        <ele>432.8</ele>
        <time>2026-05-20T09:16:37Z</time>
      </trkpt>
      <trkpt lat="43.59823" lon="3.05834">
        <ele>432.1</ele>
        <time>2026-05-20T09:16:42Z</time>
      </trkpt>
      <trkpt lat="43.59824" lon="3.05826">
        <ele>431.9</ele>
        <time>2026-05-20T09:16:47Z</time>
      </trkpt>
      <trkpt lat="43.59824" lon="3.0582">
        <ele>431.5</ele>
        <time>2026-05-20T09:16:52Z</time>
      </trkpt>
      <trkpt lat="43.59824" lon="3.0581">
        <ele>430.9</ele>
        <time>2026-05-20T09:16:57Z</time>
      </trkpt>
      <trkpt lat="43.59824" lon="3.05799">
        <ele>430.2</ele>
        <time>2026-05-20T09:17:02Z</time>
      </trkpt>
      <trkpt lat="43.59825" lon="3.0579">
        <ele>430.1</ele>
        <time>2026-05-20T09:17:07Z</time>
      </trkpt>
      <trkpt lat="43.59824" lon="3.05784">
        <ele>429.3</ele>
        <time>2026-05-20T09:17:12Z</time>
      </trkpt>
      <trkpt lat="43.59823" lon="3.05775">
        <ele>428.4</ele>
        <time>2026-05-20T09:17:17Z</time>
      </trkpt>
      <trkpt lat="43.59821" lon="3.05765">
        <ele>426.8</ele>
        <time>2026-05-20T09:17:22Z</time>
      </trkpt>
      <trkpt lat="43.59821" lon="3.05762">
        <ele>426.6</ele>
        <time>2026-05-20T09:17:27Z</time>
      </trkpt>
      <trkpt lat="43.59821" lon="3.05757">
        <ele>426.3</ele>
        <time>2026-05-20T09:17:32Z</time>
      </trkpt>
      <trkpt lat="43.59821" lon="3.05755">
        <ele>426.1</ele>
        <time>2026-05-20T09:17:37Z</time>
      </trkpt>
      <trkpt lat="43.59821" lon="3.05755">
        <ele>426.1</ele>
        <time>2026-05-20T09:17:42Z</time>
      </trkpt>
      <trkpt lat="43.59821" lon="3.05755">
        <ele>426.1</ele>
        <time>2026-05-20T09:17:47Z</time>
      </trkpt>
      <trkpt lat="43.59821" lon="3.05755">
        <ele>426.1</ele>
        <time>2026-05-20T09:17:52Z</time>
      </trkpt>
      <trkpt lat="43.59821" lon="3.05755">
        <ele>426.1</ele>
        <time>2026-05-20T09:17:57Z</time>
      </trkpt>
      <trkpt lat="43.59821" lon="3.05755">
        <ele>426.1</ele>
        <time>2026-05-20T09:18:02Z</time>
      </trkpt>
      <trkpt lat="43.59821" lon="3.05755">
        <ele>426.1</ele>
        <time>2026-05-20T09:18:07Z</time>
      </trkpt>
      <trkpt lat="43.5982" lon="3.05747">
        <ele>425.1</ele>
        <time>2026-05-20T09:18:12Z</time>
      </trkpt>
      <trkpt lat="43.5982" lon="3.05747">
        <ele>425.1</ele>
        <time>2026-05-20T09:18:17Z</time>
      </trkpt>
      <trkpt lat="43.5982" lon="3.05747">
        <ele>425.1</ele>
        <time>2026-05-20T09:18:22Z</time>
      </trkpt>
      <trkpt lat="43.5982" lon="3.05747">
        <ele>425.1</ele>
        <time>2026-05-20T09:18:27Z</time>
      </trkpt>
      <trkpt lat="43.5982" lon="3.05747">
        <ele>425.1</ele>
        <time>2026-05-20T09:18:32Z</time>
      </trkpt>
      <trkpt lat="43.5982" lon="3.05741">
        <ele>424.7</ele>
        <time>2026-05-20T09:18:37Z</time>
      </trkpt>
      <trkpt lat="43.59821" lon="3.05738">
        <ele>425</ele>
        <time>2026-05-20T09:18:42Z</time>
      </trkpt>
      <trkpt lat="43.59822" lon="3.05736">
        <ele>425.3</ele>
        <time>2026-05-20T09:18:47Z</time>
      </trkpt>
      <trkpt lat="43.59822" lon="3.05735">
        <ele>425.3</ele>
        <time>2026-05-20T09:18:52Z</time>
      </trkpt>
      <trkpt lat="43.59822" lon="3.05735">
        <ele>425.3</ele>
        <time>2026-05-20T09:18:57Z</time>
      </trkpt>
      <trkpt lat="43.59822" lon="3.05735">
        <ele>425.3</ele>
        <time>2026-05-20T09:19:02Z</time>
      </trkpt>
      <trkpt lat="43.59822" lon="3.05735">
        <ele>425.3</ele>
        <time>2026-05-20T09:19:07Z</time>
      </trkpt>
      <trkpt lat="43.59822" lon="3.05735">
        <ele>425.3</ele>
        <time>2026-05-20T09:19:12Z</time>
      </trkpt>
      <trkpt lat="43.59822" lon="3.05735">
        <ele>425.3</ele>
        <time>2026-05-20T09:19:17Z</time>
      </trkpt>
      <trkpt lat="43.59821" lon="3.05726">
        <ele>424.1</ele>
        <time>2026-05-20T09:19:22Z</time>
      </trkpt>
      <trkpt lat="43.59822" lon="3.05721">
        <ele>424.3</ele>
        <time>2026-05-20T09:19:27Z</time>
      </trkpt>
      <trkpt lat="43.59823" lon="3.05717">
        <ele>424.5</ele>
        <time>2026-05-20T09:19:32Z</time>
      </trkpt>
      <trkpt lat="43.59823" lon="3.05715">
        <ele>424.4</ele>
        <time>2026-05-20T09:19:37Z</time>
      </trkpt>
      <trkpt lat="43.59823" lon="3.05714">
        <ele>424.3</ele>
        <time>2026-05-20T09:19:42Z</time>
      </trkpt>
      <trkpt lat="43.59823" lon="3.05714">
        <ele>424.3</ele>
        <time>2026-05-20T09:19:47Z</time>
      </trkpt>
      <trkpt lat="43.59823" lon="3.05704">
        <ele>423.6</ele>
        <time>2026-05-20T09:19:52Z</time>
      </trkpt>
      <trkpt lat="43.59824" lon="3.05697">
        <ele>423.6</ele>
        <time>2026-05-20T09:19:57Z</time>
      </trkpt>
      <trkpt lat="43.59825" lon="3.05689">
        <ele>423.6</ele>
        <time>2026-05-20T09:20:02Z</time>
      </trkpt>
      <trkpt lat="43.59825" lon="3.05682">
        <ele>423.1</ele>
        <time>2026-05-20T09:20:07Z</time>
      </trkpt>
      <trkpt lat="43.59827" lon="3.05681">
        <ele>424</ele>
        <time>2026-05-20T09:20:12Z</time>
      </trkpt>
      <trkpt lat="43.59827" lon="3.05681">
        <ele>424</ele>
        <time>2026-05-20T09:20:17Z</time>
      </trkpt>
      <trkpt lat="43.59827" lon="3.05681">
        <ele>424</ele>
        <time>2026-05-20T09:20:22Z</time>
      </trkpt>
      <trkpt lat="43.59827" lon="3.05681">
        <ele>424</ele>
        <time>2026-05-20T09:20:27Z</time>
      </trkpt>
      <trkpt lat="43.59827" lon="3.05681">
        <ele>424</ele>
        <time>2026-05-20T09:20:32Z</time>
      </trkpt>
      <trkpt lat="43.59828" lon="3.05677">
        <ele>424.2</ele>
        <time>2026-05-20T09:20:37Z</time>
      </trkpt>
      <trkpt lat="43.59828" lon="3.05672">
        <ele>423.8</ele>
        <time>2026-05-20T09:20:42Z</time>
      </trkpt>
      <trkpt lat="43.59827" lon="3.05664">
        <ele>422.8</ele>
        <time>2026-05-20T09:20:47Z</time>
      </trkpt>
      <trkpt lat="43.59828" lon="3.0566">
        <ele>423.1</ele>
        <time>2026-05-20T09:20:52Z</time>
      </trkpt>
      <trkpt lat="43.59829" lon="3.05653">
        <ele>423.2</ele>
        <time>2026-05-20T09:20:57Z</time>
      </trkpt>
      <trkpt lat="43.59829" lon="3.05647">
        <ele>422.8</ele>
        <time>2026-05-20T09:21:02Z</time>
      </trkpt>
      <trkpt lat="43.59831" lon="3.05638">
        <ele>423.2</ele>
        <time>2026-05-20T09:21:07Z</time>
      </trkpt>
      <trkpt lat="43.59832" lon="3.05629">
        <ele>423.1</ele>
        <time>2026-05-20T09:21:12Z</time>
      </trkpt>
      <trkpt lat="43.59834" lon="3.0562">
        <ele>423.4</ele>
        <time>2026-05-20T09:21:17Z</time>
      </trkpt>
      <trkpt lat="43.59834" lon="3.05612">
        <ele>422.9</ele>
        <time>2026-05-20T09:21:22Z</time>
      </trkpt>
      <trkpt lat="43.59834" lon="3.05607">
        <ele>422.6</ele>
        <time>2026-05-20T09:21:27Z</time>
      </trkpt>
      <trkpt lat="43.59836" lon="3.05603">
        <ele>423.1</ele>
        <time>2026-05-20T09:21:32Z</time>
      </trkpt>
      <trkpt lat="43.59837" lon="3.05598">
        <ele>423.1</ele>
        <time>2026-05-20T09:21:37Z</time>
      </trkpt>
      <trkpt lat="43.59841" lon="3.05591">
        <ele>423.9</ele>
        <time>2026-05-20T09:21:42Z</time>
      </trkpt>
      <trkpt lat="43.59844" lon="3.05586">
        <ele>424.5</ele>
        <time>2026-05-20T09:21:47Z</time>
      </trkpt>
      <trkpt lat="43.59848" lon="3.05583">
        <ele>425.5</ele>
        <time>2026-05-20T09:21:52Z</time>
      </trkpt>
      <trkpt lat="43.59852" lon="3.0558">
        <ele>426.4</ele>
        <time>2026-05-20T09:21:57Z</time>
      </trkpt>
      <trkpt lat="43.59858" lon="3.05578">
        <ele>427.9</ele>
        <time>2026-05-20T09:22:02Z</time>
      </trkpt>
      <trkpt lat="43.59863" lon="3.05573">
        <ele>428.7</ele>
        <time>2026-05-20T09:22:07Z</time>
      </trkpt>
      <trkpt lat="43.59868" lon="3.05568">
        <ele>429.4</ele>
        <time>2026-05-20T09:22:12Z</time>
      </trkpt>
      <trkpt lat="43.59873" lon="3.05564">
        <ele>430.3</ele>
        <time>2026-05-20T09:22:17Z</time>
      </trkpt>
      <trkpt lat="43.59876" lon="3.0556">
        <ele>430.5</ele>
        <time>2026-05-20T09:22:22Z</time>
      </trkpt>
      <trkpt lat="43.5988" lon="3.0555">
        <ele>430</ele>
        <time>2026-05-20T09:22:27Z</time>
      </trkpt>
      <trkpt lat="43.59884" lon="3.05543">
        <ele>429.9</ele>
        <time>2026-05-20T09:22:32Z</time>
      </trkpt>
      <trkpt lat="43.59887" lon="3.05535">
        <ele>429.3</ele>
        <time>2026-05-20T09:22:37Z</time>
      </trkpt>
      <trkpt lat="43.59892" lon="3.0553">
        <ele>429.8</ele>
        <time>2026-05-20T09:22:42Z</time>
      </trkpt>
      <trkpt lat="43.59896" lon="3.0552">
        <ele>429</ele>
        <time>2026-05-20T09:22:47Z</time>
      </trkpt>
      <trkpt lat="43.59898" lon="3.05513">
        <ele>428.2</ele>
        <time>2026-05-20T09:22:52Z</time>
      </trkpt>
      <trkpt lat="43.599" lon="3.05506">
        <ele>427.3</ele>
        <time>2026-05-20T09:22:57Z</time>
      </trkpt>
      <trkpt lat="43.59902" lon="3.05499">
        <ele>426.6</ele>
        <time>2026-05-20T09:23:02Z</time>
      </trkpt>
      <trkpt lat="43.59904" lon="3.05492">
        <ele>426.3</ele>
        <time>2026-05-20T09:23:07Z</time>
      </trkpt>
      <trkpt lat="43.59905" lon="3.05485">
        <ele>425.8</ele>
        <time>2026-05-20T09:23:12Z</time>
      </trkpt>
      <trkpt lat="43.59907" lon="3.05471">
        <ele>424.9</ele>
        <time>2026-05-20T09:23:17Z</time>
      </trkpt>
      <trkpt lat="43.59908" lon="3.05463">
        <ele>424.3</ele>
        <time>2026-05-20T09:23:22Z</time>
      </trkpt>
      <trkpt lat="43.59908" lon="3.05455">
        <ele>423.4</ele>
        <time>2026-05-20T09:23:27Z</time>
      </trkpt>
      <trkpt lat="43.59909" lon="3.05446">
        <ele>422.7</ele>
        <time>2026-05-20T09:23:32Z</time>
      </trkpt>
      <trkpt lat="43.5991" lon="3.05435">
        <ele>421.8</ele>
        <time>2026-05-20T09:23:37Z</time>
      </trkpt>
      <trkpt lat="43.59913" lon="3.05422">
        <ele>420.9</ele>
        <time>2026-05-20T09:23:42Z</time>
      </trkpt>
      <trkpt lat="43.59915" lon="3.0541">
        <ele>421</ele>
        <time>2026-05-20T09:23:47Z</time>
      </trkpt>
      <trkpt lat="43.5992" lon="3.05405">
        <ele>422.3</ele>
        <time>2026-05-20T09:23:52Z</time>
      </trkpt>
      <trkpt lat="43.5992" lon="3.05405">
        <ele>422.3</ele>
        <time>2026-05-20T09:23:57Z</time>
      </trkpt>
      <trkpt lat="43.5992" lon="3.05405">
        <ele>422.3</ele>
        <time>2026-05-20T09:24:02Z</time>
      </trkpt>
      <trkpt lat="43.5992" lon="3.05405">
        <ele>422.3</ele>
        <time>2026-05-20T09:24:07Z</time>
      </trkpt>
      <trkpt lat="43.5992" lon="3.054">
        <ele>422.4</ele>
        <time>2026-05-20T09:24:12Z</time>
      </trkpt>
      <trkpt lat="43.59922" lon="3.05392">
        <ele>423.2</ele>
        <time>2026-05-20T09:24:17Z</time>
      </trkpt>
      <trkpt lat="43.59925" lon="3.05384">
        <ele>424.2</ele>
        <time>2026-05-20T09:24:22Z</time>
      </trkpt>
      <trkpt lat="43.59929" lon="3.05376">
        <ele>425.4</ele>
        <time>2026-05-20T09:24:27Z</time>
      </trkpt>
      <trkpt lat="43.5993" lon="3.05366">
        <ele>425.9</ele>
        <time>2026-05-20T09:24:32Z</time>
      </trkpt>
      <trkpt lat="43.5993" lon="3.05362">
        <ele>426</ele>
        <time>2026-05-20T09:24:37Z</time>
      </trkpt>
      <trkpt lat="43.59932" lon="3.05356">
        <ele>426.6</ele>
        <time>2026-05-20T09:24:42Z</time>
      </trkpt>
      <trkpt lat="43.59933" lon="3.05348">
        <ele>427</ele>
        <time>2026-05-20T09:24:47Z</time>
      </trkpt>
      <trkpt lat="43.59935" lon="3.0534">
        <ele>427.6</ele>
        <time>2026-05-20T09:24:52Z</time>
      </trkpt>
      <trkpt lat="43.59936" lon="3.0533">
        <ele>428.2</ele>
        <time>2026-05-20T09:24:57Z</time>
      </trkpt>
      <trkpt lat="43.59935" lon="3.05321">
        <ele>428.7</ele>
        <time>2026-05-20T09:25:02Z</time>
      </trkpt>
      <trkpt lat="43.59931" lon="3.05316">
        <ele>428.3</ele>
        <time>2026-05-20T09:25:07Z</time>
      </trkpt>
      <trkpt lat="43.59924" lon="3.05313">
        <ele>427.1</ele>
        <time>2026-05-20T09:25:12Z</time>
      </trkpt>
      <trkpt lat="43.59917" lon="3.05309">
        <ele>426.1</ele>
        <time>2026-05-20T09:25:17Z</time>
      </trkpt>
      <trkpt lat="43.59913" lon="3.05304">
        <ele>426.2</ele>
        <time>2026-05-20T09:25:22Z</time>
      </trkpt>
      <trkpt lat="43.5991" lon="3.05299">
        <ele>426.4</ele>
        <time>2026-05-20T09:25:27Z</time>
      </trkpt>
      <trkpt lat="43.59906" lon="3.05294">
        <ele>426.5</ele>
        <time>2026-05-20T09:25:32Z</time>
      </trkpt>
      <trkpt lat="43.59902" lon="3.05288">
        <ele>426.7</ele>
        <time>2026-05-20T09:25:37Z</time>
      </trkpt>
      <trkpt lat="43.59902" lon="3.0528">
        <ele>427.3</ele>
        <time>2026-05-20T09:25:42Z</time>
      </trkpt>
      <trkpt lat="43.59899" lon="3.05274">
        <ele>427.6</ele>
        <time>2026-05-20T09:25:47Z</time>
      </trkpt>
      <trkpt lat="43.59898" lon="3.05267">
        <ele>428</ele>
        <time>2026-05-20T09:25:52Z</time>
      </trkpt>
      <trkpt lat="43.59897" lon="3.05262">
        <ele>428.4</ele>
        <time>2026-05-20T09:25:57Z</time>
      </trkpt>
      <trkpt lat="43.59895" lon="3.05255">
        <ele>428.8</ele>
        <time>2026-05-20T09:26:02Z</time>
      </trkpt>
      <trkpt lat="43.59895" lon="3.05248">
        <ele>429</ele>
        <time>2026-05-20T09:26:07Z</time>
      </trkpt>
      <trkpt lat="43.59894" lon="3.05237">
        <ele>428.1</ele>
        <time>2026-05-20T09:26:12Z</time>
      </trkpt>
      <trkpt lat="43.59896" lon="3.05226">
        <ele>427.4</ele>
        <time>2026-05-20T09:26:17Z</time>
      </trkpt>
      <trkpt lat="43.59897" lon="3.05219">
        <ele>426.9</ele>
        <time>2026-05-20T09:26:22Z</time>
      </trkpt>
      <trkpt lat="43.59901" lon="3.05212">
        <ele>426.8</ele>
        <time>2026-05-20T09:26:27Z</time>
      </trkpt>
      <trkpt lat="43.59905" lon="3.05205">
        <ele>426.6</ele>
        <time>2026-05-20T09:26:32Z</time>
      </trkpt>
      <trkpt lat="43.59907" lon="3.05199">
        <ele>426.4</ele>
        <time>2026-05-20T09:26:37Z</time>
      </trkpt>
      <trkpt lat="43.59911" lon="3.05193">
        <ele>426.3</ele>
        <time>2026-05-20T09:26:42Z</time>
      </trkpt>
      <trkpt lat="43.59917" lon="3.05188">
        <ele>426.6</ele>
        <time>2026-05-20T09:26:47Z</time>
      </trkpt>
      <trkpt lat="43.59923" lon="3.05183">
        <ele>427.2</ele>
        <time>2026-05-20T09:26:52Z</time>
      </trkpt>
      <trkpt lat="43.59928" lon="3.05178">
        <ele>427.6</ele>
        <time>2026-05-20T09:26:57Z</time>
      </trkpt>
      <trkpt lat="43.59933" lon="3.05177">
        <ele>428.3</ele>
        <time>2026-05-20T09:27:02Z</time>
      </trkpt>
      <trkpt lat="43.59939" lon="3.05174">
        <ele>429</ele>
        <time>2026-05-20T09:27:07Z</time>
      </trkpt>
      <trkpt lat="43.59944" lon="3.05172">
        <ele>429.7</ele>
        <time>2026-05-20T09:27:12Z</time>
      </trkpt>
      <trkpt lat="43.59947" lon="3.0517">
        <ele>430</ele>
        <time>2026-05-20T09:27:17Z</time>
      </trkpt>
      <trkpt lat="43.5995" lon="3.05167">
        <ele>430.2</ele>
        <time>2026-05-20T09:27:22Z</time>
      </trkpt>
      <trkpt lat="43.59954" lon="3.05164">
        <ele>430.1</ele>
        <time>2026-05-20T09:27:27Z</time>
      </trkpt>
      <trkpt lat="43.59958" lon="3.05163">
        <ele>430.4</ele>
        <time>2026-05-20T09:27:32Z</time>
      </trkpt>
      <trkpt lat="43.59963" lon="3.05161">
        <ele>430.6</ele>
        <time>2026-05-20T09:27:37Z</time>
      </trkpt>
      <trkpt lat="43.59969" lon="3.05159">
        <ele>431</ele>
        <time>2026-05-20T09:27:42Z</time>
      </trkpt>
      <trkpt lat="43.59975" lon="3.05158">
        <ele>431.6</ele>
        <time>2026-05-20T09:27:47Z</time>
      </trkpt>
      <trkpt lat="43.59981" lon="3.05154">
        <ele>431.4</ele>
        <time>2026-05-20T09:27:52Z</time>
      </trkpt>
      <trkpt lat="43.59987" lon="3.05153">
        <ele>432</ele>
        <time>2026-05-20T09:27:57Z</time>
      </trkpt>
      <trkpt lat="43.59992" lon="3.05152">
        <ele>432.5</ele>
        <time>2026-05-20T09:28:02Z</time>
      </trkpt>
      <trkpt lat="43.59998" lon="3.05147">
        <ele>432</ele>
        <time>2026-05-20T09:28:07Z</time>
      </trkpt>
      <trkpt lat="43.60005" lon="3.05145">
        <ele>432.4</ele>
        <time>2026-05-20T09:28:12Z</time>
      </trkpt>
      <trkpt lat="43.60012" lon="3.05144">
        <ele>433.1</ele>
        <time>2026-05-20T09:28:17Z</time>
      </trkpt>
      <trkpt lat="43.60019" lon="3.05142">
        <ele>433.4</ele>
        <time>2026-05-20T09:28:22Z</time>
      </trkpt>
      <trkpt lat="43.60025" lon="3.05136">
        <ele>432.5</ele>
        <time>2026-05-20T09:28:27Z</time>
      </trkpt>
      <trkpt lat="43.60032" lon="3.05134">
        <ele>432.8</ele>
        <time>2026-05-20T09:28:32Z</time>
      </trkpt>
      <trkpt lat="43.60039" lon="3.05131">
        <ele>432.9</ele>
        <time>2026-05-20T09:28:37Z</time>
      </trkpt>
      <trkpt lat="43.60045" lon="3.05126">
        <ele>432.2</ele>
        <time>2026-05-20T09:28:42Z</time>
      </trkpt>
      <trkpt lat="43.6005" lon="3.05123">
        <ele>432</ele>
        <time>2026-05-20T09:28:47Z</time>
      </trkpt>
      <trkpt lat="43.60055" lon="3.05118">
        <ele>431.2</ele>
        <time>2026-05-20T09:28:52Z</time>
      </trkpt>
      <trkpt lat="43.60061" lon="3.05117">
        <ele>431.7</ele>
        <time>2026-05-20T09:28:57Z</time>
      </trkpt>
      <trkpt lat="43.60068" lon="3.05116">
        <ele>432.4</ele>
        <time>2026-05-20T09:29:02Z</time>
      </trkpt>
      <trkpt lat="43.60074" lon="3.05114">
        <ele>432.6</ele>
        <time>2026-05-20T09:29:07Z</time>
      </trkpt>
      <trkpt lat="43.6008" lon="3.0511">
        <ele>432.2</ele>
        <time>2026-05-20T09:29:12Z</time>
      </trkpt>
      <trkpt lat="43.60085" lon="3.05106">
        <ele>431.7</ele>
        <time>2026-05-20T09:29:17Z</time>
      </trkpt>
      <trkpt lat="43.60089" lon="3.05103">
        <ele>431.2</ele>
        <time>2026-05-20T09:29:22Z</time>
      </trkpt>
      <trkpt lat="43.60094" lon="3.05104">
        <ele>432</ele>
        <time>2026-05-20T09:29:27Z</time>
      </trkpt>
      <trkpt lat="43.60101" lon="3.05101">
        <ele>431.8</ele>
        <time>2026-05-20T09:29:32Z</time>
      </trkpt>
      <trkpt lat="43.60107" lon="3.05097">
        <ele>431.3</ele>
        <time>2026-05-20T09:29:37Z</time>
      </trkpt>
      <trkpt lat="43.60113" lon="3.05095">
        <ele>431.3</ele>
        <time>2026-05-20T09:29:42Z</time>
      </trkpt>
      <trkpt lat="43.60119" lon="3.05092">
        <ele>431</ele>
        <time>2026-05-20T09:29:47Z</time>
      </trkpt>
      <trkpt lat="43.60123" lon="3.05091">
        <ele>431.1</ele>
        <time>2026-05-20T09:29:52Z</time>
      </trkpt>
      <trkpt lat="43.60128" lon="3.05093">
        <ele>432.1</ele>
        <time>2026-05-20T09:29:57Z</time>
      </trkpt>
      <trkpt lat="43.60132" lon="3.0509">
        <ele>431.6</ele>
        <time>2026-05-20T09:30:02Z</time>
      </trkpt>
      <trkpt lat="43.60137" lon="3.0509">
        <ele>432.1</ele>
        <time>2026-05-20T09:30:07Z</time>
      </trkpt>
      <trkpt lat="43.60141" lon="3.05091">
        <ele>432.8</ele>
        <time>2026-05-20T09:30:12Z</time>
      </trkpt>
      <trkpt lat="43.60146" lon="3.0509">
        <ele>433</ele>
        <time>2026-05-20T09:30:17Z</time>
      </trkpt>
      <trkpt lat="43.60151" lon="3.0509">
        <ele>433.5</ele>
        <time>2026-05-20T09:30:22Z</time>
      </trkpt>
      <trkpt lat="43.60156" lon="3.0509">
        <ele>434</ele>
        <time>2026-05-20T09:30:27Z</time>
      </trkpt>
      <trkpt lat="43.6016" lon="3.05092">
        <ele>435</ele>
        <time>2026-05-20T09:30:32Z</time>
      </trkpt>
      <trkpt lat="43.60164" lon="3.05093">
        <ele>435.6</ele>
        <time>2026-05-20T09:30:37Z</time>
      </trkpt>
      <trkpt lat="43.60171" lon="3.05094">
        <ele>436.2</ele>
        <time>2026-05-20T09:30:42Z</time>
      </trkpt>
      <trkpt lat="43.60177" lon="3.05094">
        <ele>436.3</ele>
        <time>2026-05-20T09:30:47Z</time>
      </trkpt>
      <trkpt lat="43.60182" lon="3.05094">
        <ele>436.3</ele>
        <time>2026-05-20T09:30:52Z</time>
      </trkpt>
      <trkpt lat="43.60186" lon="3.05093">
        <ele>436.1</ele>
        <time>2026-05-20T09:30:57Z</time>
      </trkpt>
      <trkpt lat="43.60191" lon="3.05094">
        <ele>436.4</ele>
        <time>2026-05-20T09:31:02Z</time>
      </trkpt>
      <trkpt lat="43.60197" lon="3.05093">
        <ele>436.2</ele>
        <time>2026-05-20T09:31:07Z</time>
      </trkpt>
      <trkpt lat="43.60202" lon="3.05092">
        <ele>435.9</ele>
        <time>2026-05-20T09:31:12Z</time>
      </trkpt>
      <trkpt lat="43.60211" lon="3.05091">
        <ele>435.6</ele>
        <time>2026-05-20T09:31:17Z</time>
      </trkpt>
      <trkpt lat="43.60217" lon="3.0509">
        <ele>435.3</ele>
        <time>2026-05-20T09:31:22Z</time>
      </trkpt>
      <trkpt lat="43.60222" lon="3.0509">
        <ele>435.3</ele>
        <time>2026-05-20T09:31:27Z</time>
      </trkpt>
      <trkpt lat="43.60228" lon="3.0509">
        <ele>435.4</ele>
        <time>2026-05-20T09:31:32Z</time>
      </trkpt>
      <trkpt lat="43.60233" lon="3.05088">
        <ele>434.7</ele>
        <time>2026-05-20T09:31:37Z</time>
      </trkpt>
      <trkpt lat="43.60239" lon="3.05088">
        <ele>434.7</ele>
        <time>2026-05-20T09:31:42Z</time>
      </trkpt>
      <trkpt lat="43.60248" lon="3.05089">
        <ele>435.1</ele>
        <time>2026-05-20T09:31:47Z</time>
      </trkpt>
      <trkpt lat="43.60253" lon="3.05086">
        <ele>434</ele>
        <time>2026-05-20T09:31:52Z</time>
      </trkpt>
      <trkpt lat="43.60257" lon="3.05083">
        <ele>432.9</ele>
        <time>2026-05-20T09:31:57Z</time>
      </trkpt>
      <trkpt lat="43.60264" lon="3.05081">
        <ele>432.1</ele>
        <time>2026-05-20T09:32:02Z</time>
      </trkpt>
      <trkpt lat="43.6027" lon="3.0508">
        <ele>431.8</ele>
        <time>2026-05-20T09:32:07Z</time>
      </trkpt>
      <trkpt lat="43.60276" lon="3.0508">
        <ele>431.8</ele>
        <time>2026-05-20T09:32:12Z</time>
      </trkpt>
      <trkpt lat="43.60281" lon="3.05079">
        <ele>431.5</ele>
        <time>2026-05-20T09:32:17Z</time>
      </trkpt>
      <trkpt lat="43.60287" lon="3.05078">
        <ele>431.2</ele>
        <time>2026-05-20T09:32:22Z</time>
      </trkpt>
      <trkpt lat="43.60293" lon="3.05077">
        <ele>430.9</ele>
        <time>2026-05-20T09:32:27Z</time>
      </trkpt>
      <trkpt lat="43.60299" lon="3.05076">
        <ele>430.6</ele>
        <time>2026-05-20T09:32:32Z</time>
      </trkpt>
      <trkpt lat="43.60304" lon="3.05075">
        <ele>430.4</ele>
        <time>2026-05-20T09:32:37Z</time>
      </trkpt>
      <trkpt lat="43.60309" lon="3.05076">
        <ele>430.7</ele>
        <time>2026-05-20T09:32:42Z</time>
      </trkpt>
      <trkpt lat="43.6031" lon="3.05074">
        <ele>430.1</ele>
        <time>2026-05-20T09:32:47Z</time>
      </trkpt>
      <trkpt lat="43.6031" lon="3.05074">
        <ele>430.1</ele>
        <time>2026-05-20T09:32:52Z</time>
      </trkpt>
      <trkpt lat="43.6031" lon="3.05074">
        <ele>430.1</ele>
        <time>2026-05-20T09:32:57Z</time>
      </trkpt>
      <trkpt lat="43.6031" lon="3.05074">
        <ele>430.1</ele>
        <time>2026-05-20T09:33:02Z</time>
      </trkpt>
      <trkpt lat="43.60317" lon="3.05071">
        <ele>429.3</ele>
        <time>2026-05-20T09:33:07Z</time>
      </trkpt>
      <trkpt lat="43.60321" lon="3.0507">
        <ele>429.1</ele>
        <time>2026-05-20T09:33:12Z</time>
      </trkpt>
      <trkpt lat="43.60325" lon="3.05068">
        <ele>428.6</ele>
        <time>2026-05-20T09:33:17Z</time>
      </trkpt>
      <trkpt lat="43.60329" lon="3.05068">
        <ele>428.7</ele>
        <time>2026-05-20T09:33:22Z</time>
      </trkpt>
      <trkpt lat="43.60334" lon="3.05068">
        <ele>428.8</ele>
        <time>2026-05-20T09:33:27Z</time>
      </trkpt>
      <trkpt lat="43.60338" lon="3.05066">
        <ele>428.5</ele>
        <time>2026-05-20T09:33:32Z</time>
      </trkpt>
      <trkpt lat="43.60344" lon="3.05067">
        <ele>429.1</ele>
        <time>2026-05-20T09:33:37Z</time>
      </trkpt>
      <trkpt lat="43.60349" lon="3.05069">
        <ele>429.9</ele>
        <time>2026-05-20T09:33:42Z</time>
      </trkpt>
      <trkpt lat="43.60355" lon="3.0507">
        <ele>430.5</ele>
        <time>2026-05-20T09:33:47Z</time>
      </trkpt>
      <trkpt lat="43.60361" lon="3.05071">
        <ele>431.1</ele>
        <time>2026-05-20T09:33:52Z</time>
      </trkpt>
      <trkpt lat="43.60366" lon="3.05072">
        <ele>431.7</ele>
        <time>2026-05-20T09:33:57Z</time>
      </trkpt>
      <trkpt lat="43.6037" lon="3.05074">
        <ele>432.4</ele>
        <time>2026-05-20T09:34:02Z</time>
      </trkpt>
      <trkpt lat="43.60375" lon="3.05077">
        <ele>433.4</ele>
        <time>2026-05-20T09:34:07Z</time>
      </trkpt>
      <trkpt lat="43.60379" lon="3.05079">
        <ele>434.1</ele>
        <time>2026-05-20T09:34:12Z</time>
      </trkpt>
      <trkpt lat="43.60382" lon="3.05077">
        <ele>433.8</ele>
        <time>2026-05-20T09:34:17Z</time>
      </trkpt>
      <trkpt lat="43.60387" lon="3.05074">
        <ele>433.3</ele>
        <time>2026-05-20T09:34:22Z</time>
      </trkpt>
      <trkpt lat="43.60391" lon="3.05068">
        <ele>432</ele>
        <time>2026-05-20T09:34:27Z</time>
      </trkpt>
      <trkpt lat="43.60396" lon="3.05067">
        <ele>432.1</ele>
        <time>2026-05-20T09:34:32Z</time>
      </trkpt>
      <trkpt lat="43.60399" lon="3.05061">
        <ele>430.8</ele>
        <time>2026-05-20T09:34:37Z</time>
      </trkpt>
      <trkpt lat="43.60403" lon="3.05058">
        <ele>430.4</ele>
        <time>2026-05-20T09:34:42Z</time>
      </trkpt>
      <trkpt lat="43.60407" lon="3.05055">
        <ele>429.9</ele>
        <time>2026-05-20T09:34:47Z</time>
      </trkpt>
      <trkpt lat="43.60407" lon="3.05055">
        <ele>429.9</ele>
        <time>2026-05-20T09:34:52Z</time>
      </trkpt>
      <trkpt lat="43.60405" lon="3.05053">
        <ele>429.3</ele>
        <time>2026-05-20T09:34:57Z</time>
      </trkpt>
      <trkpt lat="43.60405" lon="3.05044">
        <ele>427.2</ele>
        <time>2026-05-20T09:35:02Z</time>
      </trkpt>
      <trkpt lat="43.6041" lon="3.0504">
        <ele>426.6</ele>
        <time>2026-05-20T09:35:07Z</time>
      </trkpt>
      <trkpt lat="43.60415" lon="3.05038">
        <ele>426.5</ele>
        <time>2026-05-20T09:35:12Z</time>
      </trkpt>
      <trkpt lat="43.60419" lon="3.05034">
        <ele>426.1</ele>
        <time>2026-05-20T09:35:17Z</time>
      </trkpt>
      <trkpt lat="43.60425" lon="3.05034">
        <ele>427</ele>
        <time>2026-05-20T09:35:22Z</time>
      </trkpt>
      <trkpt lat="43.60429" lon="3.05029">
        <ele>426.3</ele>
        <time>2026-05-20T09:35:27Z</time>
      </trkpt>
      <trkpt lat="43.60435" lon="3.05024">
        <ele>426</ele>
        <time>2026-05-20T09:35:32Z</time>
      </trkpt>
      <trkpt lat="43.60438" lon="3.05019">
        <ele>425.2</ele>
        <time>2026-05-20T09:35:37Z</time>
      </trkpt>
      <trkpt lat="43.60444" lon="3.05016">
        <ele>425.2</ele>
        <time>2026-05-20T09:35:42Z</time>
      </trkpt>
      <trkpt lat="43.60448" lon="3.05013">
        <ele>425</ele>
        <time>2026-05-20T09:35:47Z</time>
      </trkpt>
      <trkpt lat="43.60455" lon="3.05009">
        <ele>424.9</ele>
        <time>2026-05-20T09:35:52Z</time>
      </trkpt>
      <trkpt lat="43.6046" lon="3.05007">
        <ele>425</ele>
        <time>2026-05-20T09:35:57Z</time>
      </trkpt>
      <trkpt lat="43.60464" lon="3.05005">
        <ele>425</ele>
        <time>2026-05-20T09:36:02Z</time>
      </trkpt>
      <trkpt lat="43.60469" lon="3.05004">
        <ele>425.3</ele>
        <time>2026-05-20T09:36:07Z</time>
      </trkpt>
      <trkpt lat="43.60476" lon="3.05003">
        <ele>425.9</ele>
        <time>2026-05-20T09:36:12Z</time>
      </trkpt>
      <trkpt lat="43.60479" lon="3.05002">
        <ele>426</ele>
        <time>2026-05-20T09:36:17Z</time>
      </trkpt>
      <trkpt lat="43.60485" lon="3.05">
        <ele>426.2</ele>
        <time>2026-05-20T09:36:22Z</time>
      </trkpt>
      <trkpt lat="43.60487" lon="3.05001">
        <ele>426.7</ele>
        <time>2026-05-20T09:36:27Z</time>
      </trkpt>
      <trkpt lat="43.60493" lon="3.04999">
        <ele>427.4</ele>
        <time>2026-05-20T09:36:32Z</time>
      </trkpt>
      <trkpt lat="43.60499" lon="3.04996">
        <ele>428.7</ele>
        <time>2026-05-20T09:36:37Z</time>
      </trkpt>
      <trkpt lat="43.60499" lon="3.04996">
        <ele>428.7</ele>
        <time>2026-05-20T09:36:42Z</time>
      </trkpt>
      <trkpt lat="43.60499" lon="3.04996">
        <ele>428.7</ele>
        <time>2026-05-20T09:36:47Z</time>
      </trkpt>
      <trkpt lat="43.60499" lon="3.04996">
        <ele>428.7</ele>
        <time>2026-05-20T09:36:52Z</time>
      </trkpt>
      <trkpt lat="43.60499" lon="3.04996">
        <ele>428.7</ele>
        <time>2026-05-20T09:36:57Z</time>
      </trkpt>
      <trkpt lat="43.60499" lon="3.04996">
        <ele>428.7</ele>
        <time>2026-05-20T09:37:02Z</time>
      </trkpt>
      <trkpt lat="43.60499" lon="3.04996">
        <ele>428.7</ele>
        <time>2026-05-20T09:37:07Z</time>
      </trkpt>
      <trkpt lat="43.60499" lon="3.04996">
        <ele>428.7</ele>
        <time>2026-05-20T09:37:12Z</time>
      </trkpt>
      <trkpt lat="43.60499" lon="3.04996">
        <ele>428.7</ele>
        <time>2026-05-20T09:37:17Z</time>
      </trkpt>
      <trkpt lat="43.60499" lon="3.04996">
        <ele>428.7</ele>
        <time>2026-05-20T09:37:22Z</time>
      </trkpt>
      <trkpt lat="43.60494" lon="3.04981">
        <ele>431</ele>
        <time>2026-05-20T09:37:27Z</time>
      </trkpt>
      <trkpt lat="43.60493" lon="3.0498">
        <ele>431.1</ele>
        <time>2026-05-20T09:37:32Z</time>
      </trkpt>
      <trkpt lat="43.60488" lon="3.04975">
        <ele>431.6</ele>
        <time>2026-05-20T09:37:37Z</time>
      </trkpt>
      <trkpt lat="43.60485" lon="3.04971">
        <ele>432.1</ele>
        <time>2026-05-20T09:37:42Z</time>
      </trkpt>
      <trkpt lat="43.60484" lon="3.0497">
        <ele>432.2</ele>
        <time>2026-05-20T09:37:47Z</time>
      </trkpt>
      <trkpt lat="43.60484" lon="3.0497">
        <ele>432.2</ele>
        <time>2026-05-20T09:37:52Z</time>
      </trkpt>
      <trkpt lat="43.60484" lon="3.0497">
        <ele>432.2</ele>
        <time>2026-05-20T09:37:57Z</time>
      </trkpt>
      <trkpt lat="43.60484" lon="3.0497">
        <ele>432.2</ele>
        <time>2026-05-20T09:38:02Z</time>
      </trkpt>
      <trkpt lat="43.60477" lon="3.04959">
        <ele>433.8</ele>
        <time>2026-05-20T09:38:07Z</time>
      </trkpt>
      <trkpt lat="43.60474" lon="3.04958">
        <ele>433.7</ele>
        <time>2026-05-20T09:38:12Z</time>
      </trkpt>
      <trkpt lat="43.60473" lon="3.04957">
        <ele>433.9</ele>
        <time>2026-05-20T09:38:17Z</time>
      </trkpt>
      <trkpt lat="43.60473" lon="3.04957">
        <ele>433.9</ele>
        <time>2026-05-20T09:38:22Z</time>
      </trkpt>
      <trkpt lat="43.60468" lon="3.04954">
        <ele>434.1</ele>
        <time>2026-05-20T09:38:27Z</time>
      </trkpt>
      <trkpt lat="43.60467" lon="3.04954">
        <ele>434</ele>
        <time>2026-05-20T09:38:32Z</time>
      </trkpt>
      <trkpt lat="43.60467" lon="3.04954">
        <ele>434</ele>
        <time>2026-05-20T09:38:37Z</time>
      </trkpt>
      <trkpt lat="43.60467" lon="3.04954">
        <ele>434</ele>
        <time>2026-05-20T09:38:42Z</time>
      </trkpt>
      <trkpt lat="43.60462" lon="3.04942">
        <ele>436.2</ele>
        <time>2026-05-20T09:38:47Z</time>
      </trkpt>
      <trkpt lat="43.60461" lon="3.04934">
        <ele>437.8</ele>
        <time>2026-05-20T09:38:52Z</time>
      </trkpt>
      <trkpt lat="43.60461" lon="3.0493">
        <ele>438.7</ele>
        <time>2026-05-20T09:38:57Z</time>
      </trkpt>
      <trkpt lat="43.60461" lon="3.04926">
        <ele>439.6</ele>
        <time>2026-05-20T09:39:02Z</time>
      </trkpt>
      <trkpt lat="43.60459" lon="3.0492">
        <ele>440.8</ele>
        <time>2026-05-20T09:39:07Z</time>
      </trkpt>
      <trkpt lat="43.60455" lon="3.04917">
        <ele>441.2</ele>
        <time>2026-05-20T09:39:12Z</time>
      </trkpt>
      <trkpt lat="43.60452" lon="3.04912">
        <ele>442.3</ele>
        <time>2026-05-20T09:39:17Z</time>
      </trkpt>
      <trkpt lat="43.6045" lon="3.04907">
        <ele>443.5</ele>
        <time>2026-05-20T09:39:22Z</time>
      </trkpt>
      <trkpt lat="43.60447" lon="3.04904">
        <ele>444.1</ele>
        <time>2026-05-20T09:39:27Z</time>
      </trkpt>
      <trkpt lat="43.60444" lon="3.049">
        <ele>444.9</ele>
        <time>2026-05-20T09:39:32Z</time>
      </trkpt>
      <trkpt lat="43.6044" lon="3.04895">
        <ele>445.9</ele>
        <time>2026-05-20T09:39:37Z</time>
      </trkpt>
      <trkpt lat="43.60439" lon="3.04892">
        <ele>446.6</ele>
        <time>2026-05-20T09:39:42Z</time>
      </trkpt>
      <trkpt lat="43.60437" lon="3.04888">
        <ele>447.5</ele>
        <time>2026-05-20T09:39:47Z</time>
      </trkpt>
      <trkpt lat="43.60435" lon="3.04884">
        <ele>448.4</ele>
        <time>2026-05-20T09:39:52Z</time>
      </trkpt>
      <trkpt lat="43.60435" lon="3.04884">
        <ele>448.4</ele>
        <time>2026-05-20T09:39:57Z</time>
      </trkpt>
      <trkpt lat="43.60435" lon="3.04884">
        <ele>448.4</ele>
        <time>2026-05-20T09:40:02Z</time>
      </trkpt>
      <trkpt lat="43.60426" lon="3.04876">
        <ele>449.9</ele>
        <time>2026-05-20T09:40:07Z</time>
      </trkpt>
      <trkpt lat="43.60423" lon="3.04873">
        <ele>450.4</ele>
        <time>2026-05-20T09:40:12Z</time>
      </trkpt>
      <trkpt lat="43.60421" lon="3.04869">
        <ele>451.3</ele>
        <time>2026-05-20T09:40:17Z</time>
      </trkpt>
      <trkpt lat="43.60418" lon="3.04864">
        <ele>452.4</ele>
        <time>2026-05-20T09:40:22Z</time>
      </trkpt>
      <trkpt lat="43.60415" lon="3.0486">
        <ele>452.9</ele>
        <time>2026-05-20T09:40:27Z</time>
      </trkpt>
      <trkpt lat="43.60414" lon="3.04857">
        <ele>453.4</ele>
        <time>2026-05-20T09:40:32Z</time>
      </trkpt>
      <trkpt lat="43.60413" lon="3.04856">
        <ele>453.4</ele>
        <time>2026-05-20T09:40:37Z</time>
      </trkpt>
      <trkpt lat="43.60413" lon="3.04856">
        <ele>453.4</ele>
        <time>2026-05-20T09:40:42Z</time>
      </trkpt>
      <trkpt lat="43.60413" lon="3.04856">
        <ele>453.4</ele>
        <time>2026-05-20T09:40:47Z</time>
      </trkpt>
      <trkpt lat="43.60413" lon="3.04856">
        <ele>453.4</ele>
        <time>2026-05-20T09:40:52Z</time>
      </trkpt>
      <trkpt lat="43.60405" lon="3.04852">
        <ele>452.6</ele>
        <time>2026-05-20T09:40:57Z</time>
      </trkpt>
      <trkpt lat="43.60403" lon="3.0485">
        <ele>452.6</ele>
        <time>2026-05-20T09:41:02Z</time>
      </trkpt>
      <trkpt lat="43.60403" lon="3.0485">
        <ele>452.6</ele>
        <time>2026-05-20T09:41:07Z</time>
      </trkpt>
      <trkpt lat="43.60403" lon="3.0485">
        <ele>452.6</ele>
        <time>2026-05-20T09:41:12Z</time>
      </trkpt>
      <trkpt lat="43.60393" lon="3.04846">
        <ele>451.3</ele>
        <time>2026-05-20T09:41:17Z</time>
      </trkpt>
      <trkpt lat="43.60389" lon="3.04845">
        <ele>450.7</ele>
        <time>2026-05-20T09:41:22Z</time>
      </trkpt>
      <trkpt lat="43.60385" lon="3.04844">
        <ele>450</ele>
        <time>2026-05-20T09:41:27Z</time>
      </trkpt>
      <trkpt lat="43.60382" lon="3.04843">
        <ele>449.6</ele>
        <time>2026-05-20T09:41:32Z</time>
      </trkpt>
      <trkpt lat="43.60378" lon="3.04837">
        <ele>450.2</ele>
        <time>2026-05-20T09:41:37Z</time>
      </trkpt>
      <trkpt lat="43.60375" lon="3.04834">
        <ele>450.3</ele>
        <time>2026-05-20T09:41:42Z</time>
      </trkpt>
      <trkpt lat="43.60373" lon="3.04829">
        <ele>451.3</ele>
        <time>2026-05-20T09:41:47Z</time>
      </trkpt>
      <trkpt lat="43.60371" lon="3.04827">
        <ele>451.4</ele>
        <time>2026-05-20T09:41:52Z</time>
      </trkpt>
      <trkpt lat="43.6037" lon="3.04823">
        <ele>452.4</ele>
        <time>2026-05-20T09:41:57Z</time>
      </trkpt>
      <trkpt lat="43.60369" lon="3.04818">
        <ele>453.7</ele>
        <time>2026-05-20T09:42:02Z</time>
      </trkpt>
      <trkpt lat="43.60369" lon="3.04815">
        <ele>454.5</ele>
        <time>2026-05-20T09:42:07Z</time>
      </trkpt>
      <trkpt lat="43.60369" lon="3.04815">
        <ele>454.5</ele>
        <time>2026-05-20T09:42:12Z</time>
      </trkpt>
      <trkpt lat="43.60369" lon="3.04815">
        <ele>454.5</ele>
        <time>2026-05-20T09:42:17Z</time>
      </trkpt>
      <trkpt lat="43.60362" lon="3.04811">
        <ele>454.3</ele>
        <time>2026-05-20T09:42:22Z</time>
      </trkpt>
      <trkpt lat="43.6036" lon="3.04811">
        <ele>453.9</ele>
        <time>2026-05-20T09:42:27Z</time>
      </trkpt>
      <trkpt lat="43.60356" lon="3.04809">
        <ele>453.7</ele>
        <time>2026-05-20T09:42:32Z</time>
      </trkpt>
      <trkpt lat="43.60354" lon="3.04809">
        <ele>453.3</ele>
        <time>2026-05-20T09:42:37Z</time>
      </trkpt>
      <trkpt lat="43.60348" lon="3.04807">
        <ele>452.7</ele>
        <time>2026-05-20T09:42:42Z</time>
      </trkpt>
      <trkpt lat="43.60344" lon="3.04804">
        <ele>452.9</ele>
        <time>2026-05-20T09:42:47Z</time>
      </trkpt>
      <trkpt lat="43.60342" lon="3.04801">
        <ele>453.5</ele>
        <time>2026-05-20T09:42:52Z</time>
      </trkpt>
      <trkpt lat="43.6034" lon="3.04799">
        <ele>453.8</ele>
        <time>2026-05-20T09:42:57Z</time>
      </trkpt>
      <trkpt lat="43.60337" lon="3.04798">
        <ele>453.6</ele>
        <time>2026-05-20T09:43:02Z</time>
      </trkpt>
      <trkpt lat="43.60335" lon="3.04797">
        <ele>453.5</ele>
        <time>2026-05-20T09:43:07Z</time>
      </trkpt>
      <trkpt lat="43.60335" lon="3.04797">
        <ele>453.5</ele>
        <time>2026-05-20T09:43:12Z</time>
      </trkpt>
      <trkpt lat="43.60335" lon="3.04797">
        <ele>453.5</ele>
        <time>2026-05-20T09:43:17Z</time>
      </trkpt>
      <trkpt lat="43.60335" lon="3.04797">
        <ele>453.5</ele>
        <time>2026-05-20T09:43:22Z</time>
      </trkpt>
      <trkpt lat="43.60335" lon="3.04797">
        <ele>453.5</ele>
        <time>2026-05-20T09:43:27Z</time>
      </trkpt>
      <trkpt lat="43.60335" lon="3.04797">
        <ele>453.5</ele>
        <time>2026-05-20T09:43:32Z</time>
      </trkpt>
      <trkpt lat="43.60335" lon="3.04797">
        <ele>453.5</ele>
        <time>2026-05-20T09:43:37Z</time>
      </trkpt>
      <trkpt lat="43.60335" lon="3.04797">
        <ele>453.5</ele>
        <time>2026-05-20T09:43:42Z</time>
      </trkpt>
      <trkpt lat="43.60335" lon="3.04797">
        <ele>453.5</ele>
        <time>2026-05-20T09:43:47Z</time>
      </trkpt>
      <trkpt lat="43.60335" lon="3.04797">
        <ele>453.5</ele>
        <time>2026-05-20T09:43:52Z</time>
      </trkpt>
      <trkpt lat="43.60335" lon="3.04797">
        <ele>453.5</ele>
        <time>2026-05-20T09:43:57Z</time>
      </trkpt>
      <trkpt lat="43.60335" lon="3.04797">
        <ele>453.5</ele>
        <time>2026-05-20T09:44:02Z</time>
      </trkpt>
      <trkpt lat="43.6033" lon="3.04802">
        <ele>450.3</ele>
        <time>2026-05-20T09:44:07Z</time>
      </trkpt>
      <trkpt lat="43.60329" lon="3.04804">
        <ele>449.3</ele>
        <time>2026-05-20T09:44:12Z</time>
      </trkpt>
      <trkpt lat="43.60329" lon="3.04811">
        <ele>446.9</ele>
        <time>2026-05-20T09:44:17Z</time>
      </trkpt>
      <trkpt lat="43.60333" lon="3.04806">
        <ele>450.1</ele>
        <time>2026-05-20T09:44:22Z</time>
      </trkpt>
      <trkpt lat="43.60333" lon="3.04806">
        <ele>450.1</ele>
        <time>2026-05-20T09:44:27Z</time>
      </trkpt>
      <trkpt lat="43.60333" lon="3.04806">
        <ele>450.1</ele>
        <time>2026-05-20T09:44:32Z</time>
      </trkpt>
      <trkpt lat="43.60333" lon="3.04806">
        <ele>450.1</ele>
        <time>2026-05-20T09:44:37Z</time>
      </trkpt>
      <trkpt lat="43.60327" lon="3.04794">
        <ele>451.9</ele>
        <time>2026-05-20T09:44:42Z</time>
      </trkpt>
      <trkpt lat="43.60328" lon="3.04791">
        <ele>453.3</ele>
        <time>2026-05-20T09:44:47Z</time>
      </trkpt>
      <trkpt lat="43.60328" lon="3.04791">
        <ele>453.3</ele>
        <time>2026-05-20T09:44:52Z</time>
      </trkpt>
      <trkpt lat="43.60328" lon="3.04791">
        <ele>453.3</ele>
        <time>2026-05-20T09:44:57Z</time>
      </trkpt>
      <trkpt lat="43.60328" lon="3.04791">
        <ele>453.3</ele>
        <time>2026-05-20T09:45:02Z</time>
      </trkpt>
      <trkpt lat="43.60328" lon="3.04791">
        <ele>453.3</ele>
        <time>2026-05-20T09:45:07Z</time>
      </trkpt>
      <trkpt lat="43.60328" lon="3.04791">
        <ele>453.3</ele>
        <time>2026-05-20T09:45:12Z</time>
      </trkpt>
      <trkpt lat="43.60328" lon="3.04791">
        <ele>453.3</ele>
        <time>2026-05-20T09:45:17Z</time>
      </trkpt>
      <trkpt lat="43.60328" lon="3.04791">
        <ele>453.3</ele>
        <time>2026-05-20T09:45:22Z</time>
      </trkpt>
      <trkpt lat="43.60328" lon="3.04791">
        <ele>453.3</ele>
        <time>2026-05-20T09:45:27Z</time>
      </trkpt>
      <trkpt lat="43.60328" lon="3.04791">
        <ele>453.3</ele>
        <time>2026-05-20T09:45:32Z</time>
      </trkpt>
      <trkpt lat="43.60328" lon="3.04791">
        <ele>453.3</ele>
        <time>2026-05-20T09:45:37Z</time>
      </trkpt>
      <trkpt lat="43.60326" lon="3.04786">
        <ele>454.2</ele>
        <time>2026-05-20T09:45:42Z</time>
      </trkpt>
      <trkpt lat="43.60324" lon="3.04783">
        <ele>454.5</ele>
        <time>2026-05-20T09:45:47Z</time>
      </trkpt>
      <trkpt lat="43.60322" lon="3.04781">
        <ele>454.4</ele>
        <time>2026-05-20T09:45:52Z</time>
      </trkpt>
      <trkpt lat="43.60322" lon="3.04779">
        <ele>455.1</ele>
        <time>2026-05-20T09:45:57Z</time>
      </trkpt>
      <trkpt lat="43.60322" lon="3.04779">
        <ele>455.1</ele>
        <time>2026-05-20T09:46:02Z</time>
      </trkpt>
      <trkpt lat="43.60322" lon="3.04779">
        <ele>455.1</ele>
        <time>2026-05-20T09:46:07Z</time>
      </trkpt>
      <trkpt lat="43.60312" lon="3.04771">
        <ele>454.1</ele>
        <time>2026-05-20T09:46:12Z</time>
      </trkpt>
      <trkpt lat="43.60308" lon="3.04768">
        <ele>453.6</ele>
        <time>2026-05-20T09:46:17Z</time>
      </trkpt>
      <trkpt lat="43.60305" lon="3.04766">
        <ele>453.1</ele>
        <time>2026-05-20T09:46:22Z</time>
      </trkpt>
      <trkpt lat="43.60302" lon="3.04764">
        <ele>452.7</ele>
        <time>2026-05-20T09:46:27Z</time>
      </trkpt>
      <trkpt lat="43.603" lon="3.04762">
        <ele>452.6</ele>
        <time>2026-05-20T09:46:32Z</time>
      </trkpt>
      <trkpt lat="43.60296" lon="3.04758">
        <ele>452.5</ele>
        <time>2026-05-20T09:46:37Z</time>
      </trkpt>
      <trkpt lat="43.60294" lon="3.04755">
        <ele>452.7</ele>
        <time>2026-05-20T09:46:42Z</time>
      </trkpt>
      <trkpt lat="43.60292" lon="3.04753">
        <ele>452.6</ele>
        <time>2026-05-20T09:46:47Z</time>
      </trkpt>
      <trkpt lat="43.6029" lon="3.0475">
        <ele>452.9</ele>
        <time>2026-05-20T09:46:52Z</time>
      </trkpt>
      <trkpt lat="43.60289" lon="3.04746">
        <ele>453.5</ele>
        <time>2026-05-20T09:46:57Z</time>
      </trkpt>
      <trkpt lat="43.60287" lon="3.04745">
        <ele>453</ele>
        <time>2026-05-20T09:47:02Z</time>
      </trkpt>
      <trkpt lat="43.60285" lon="3.04743">
        <ele>452.7</ele>
        <time>2026-05-20T09:47:07Z</time>
      </trkpt>
      <trkpt lat="43.60285" lon="3.04743">
        <ele>452.7</ele>
        <time>2026-05-20T09:47:12Z</time>
      </trkpt>
      <trkpt lat="43.60285" lon="3.04743">
        <ele>452.7</ele>
        <time>2026-05-20T09:47:17Z</time>
      </trkpt>
      <trkpt lat="43.60289" lon="3.04737">
        <ele>455.6</ele>
        <time>2026-05-20T09:47:22Z</time>
      </trkpt>
      <trkpt lat="43.60291" lon="3.04734">
        <ele>457.1</ele>
        <time>2026-05-20T09:47:27Z</time>
      </trkpt>
      <trkpt lat="43.60292" lon="3.0473">
        <ele>458.4</ele>
        <time>2026-05-20T09:47:32Z</time>
      </trkpt>
      <trkpt lat="43.60294" lon="3.04728">
        <ele>459.6</ele>
        <time>2026-05-20T09:47:37Z</time>
      </trkpt>
      <trkpt lat="43.60296" lon="3.04726">
        <ele>460.9</ele>
        <time>2026-05-20T09:47:42Z</time>
      </trkpt>
      <trkpt lat="43.60299" lon="3.04724">
        <ele>462.5</ele>
        <time>2026-05-20T09:47:47Z</time>
      </trkpt>
      <trkpt lat="43.60301" lon="3.04722">
        <ele>463.7</ele>
        <time>2026-05-20T09:47:52Z</time>
      </trkpt>
      <trkpt lat="43.60303" lon="3.04721">
        <ele>464.7</ele>
        <time>2026-05-20T09:47:57Z</time>
      </trkpt>
      <trkpt lat="43.60306" lon="3.04719">
        <ele>466.3</ele>
        <time>2026-05-20T09:48:02Z</time>
      </trkpt>
      <trkpt lat="43.60308" lon="3.04716">
        <ele>467.7</ele>
        <time>2026-05-20T09:48:07Z</time>
      </trkpt>
      <trkpt lat="43.60314" lon="3.04714">
        <ele>470.4</ele>
        <time>2026-05-20T09:48:12Z</time>
      </trkpt>
      <trkpt lat="43.60313" lon="3.04712">
        <ele>470.6</ele>
        <time>2026-05-20T09:48:17Z</time>
      </trkpt>
      <trkpt lat="43.60309" lon="3.0471">
        <ele>469.5</ele>
        <time>2026-05-20T09:48:22Z</time>
      </trkpt>
      <trkpt lat="43.60304" lon="3.04711">
        <ele>467.4</ele>
        <time>2026-05-20T09:48:27Z</time>
      </trkpt>
      <trkpt lat="43.60298" lon="3.04712">
        <ele>465</ele>
        <time>2026-05-20T09:48:32Z</time>
      </trkpt>
      <trkpt lat="43.60294" lon="3.04711">
        <ele>463.7</ele>
        <time>2026-05-20T09:48:37Z</time>
      </trkpt>
      <trkpt lat="43.60288" lon="3.04708">
        <ele>462.2</ele>
        <time>2026-05-20T09:48:42Z</time>
      </trkpt>
      <trkpt lat="43.60283" lon="3.04707">
        <ele>460.6</ele>
        <time>2026-05-20T09:48:47Z</time>
      </trkpt>
      <trkpt lat="43.60277" lon="3.04703">
        <ele>459.3</ele>
        <time>2026-05-20T09:48:52Z</time>
      </trkpt>
      <trkpt lat="43.60272" lon="3.04698">
        <ele>458.7</ele>
        <time>2026-05-20T09:48:57Z</time>
      </trkpt>
      <trkpt lat="43.60269" lon="3.04693">
        <ele>458.7</ele>
        <time>2026-05-20T09:49:02Z</time>
      </trkpt>
      <trkpt lat="43.60264" lon="3.04688">
        <ele>458.1</ele>
        <time>2026-05-20T09:49:07Z</time>
      </trkpt>
      <trkpt lat="43.60262" lon="3.04682">
        <ele>458.8</ele>
        <time>2026-05-20T09:49:12Z</time>
      </trkpt>
      <trkpt lat="43.60259" lon="3.04677">
        <ele>458.9</ele>
        <time>2026-05-20T09:49:17Z</time>
      </trkpt>
      <trkpt lat="43.60256" lon="3.04671">
        <ele>459.2</ele>
        <time>2026-05-20T09:49:22Z</time>
      </trkpt>
      <trkpt lat="43.60254" lon="3.04665">
        <ele>460</ele>
        <time>2026-05-20T09:49:27Z</time>
      </trkpt>
      <trkpt lat="43.60253" lon="3.04663">
        <ele>460.2</ele>
        <time>2026-05-20T09:49:32Z</time>
      </trkpt>
      <trkpt lat="43.60254" lon="3.04661">
        <ele>461.1</ele>
        <time>2026-05-20T09:49:37Z</time>
      </trkpt>
      <trkpt lat="43.60256" lon="3.04659">
        <ele>462.4</ele>
        <time>2026-05-20T09:49:42Z</time>
      </trkpt>
      <trkpt lat="43.60258" lon="3.04658">
        <ele>463.4</ele>
        <time>2026-05-20T09:49:47Z</time>
      </trkpt>
      <trkpt lat="43.60261" lon="3.04657">
        <ele>464.7</ele>
        <time>2026-05-20T09:49:52Z</time>
      </trkpt>
      <trkpt lat="43.60263" lon="3.04654">
        <ele>466.2</ele>
        <time>2026-05-20T09:49:57Z</time>
      </trkpt>
      <trkpt lat="43.60263" lon="3.0465">
        <ele>467.3</ele>
        <time>2026-05-20T09:50:02Z</time>
      </trkpt>
      <trkpt lat="43.60263" lon="3.04647">
        <ele>468.1</ele>
        <time>2026-05-20T09:50:07Z</time>
      </trkpt>
      <trkpt lat="43.60264" lon="3.04644">
        <ele>469.3</ele>
        <time>2026-05-20T09:50:12Z</time>
      </trkpt>
      <trkpt lat="43.60265" lon="3.0464">
        <ele>470.7</ele>
        <time>2026-05-20T09:50:17Z</time>
      </trkpt>
      <trkpt lat="43.60266" lon="3.04637">
        <ele>471.8</ele>
        <time>2026-05-20T09:50:22Z</time>
      </trkpt>
      <trkpt lat="43.60268" lon="3.04632">
        <ele>473.8</ele>
        <time>2026-05-20T09:50:27Z</time>
      </trkpt>
      <trkpt lat="43.6027" lon="3.04629">
        <ele>475.2</ele>
        <time>2026-05-20T09:50:32Z</time>
      </trkpt>
      <trkpt lat="43.60275" lon="3.04628">
        <ele>477</ele>
        <time>2026-05-20T09:50:37Z</time>
      </trkpt>
      <trkpt lat="43.60282" lon="3.04627">
        <ele>479.5</ele>
        <time>2026-05-20T09:50:42Z</time>
      </trkpt>
      <trkpt lat="43.60286" lon="3.04628">
        <ele>480.5</ele>
        <time>2026-05-20T09:50:47Z</time>
      </trkpt>
      <trkpt lat="43.60288" lon="3.04628">
        <ele>481.2</ele>
        <time>2026-05-20T09:50:52Z</time>
      </trkpt>
      <trkpt lat="43.6029" lon="3.04628">
        <ele>481.8</ele>
        <time>2026-05-20T09:50:57Z</time>
      </trkpt>
      <trkpt lat="43.6029" lon="3.04628">
        <ele>481.8</ele>
        <time>2026-05-20T09:51:02Z</time>
      </trkpt>
      <trkpt lat="43.6029" lon="3.04628">
        <ele>481.8</ele>
        <time>2026-05-20T09:51:07Z</time>
      </trkpt>
      <trkpt lat="43.6029" lon="3.04628">
        <ele>481.8</ele>
        <time>2026-05-20T09:51:12Z</time>
      </trkpt>
      <trkpt lat="43.60299" lon="3.04624">
        <ele>485.5</ele>
        <time>2026-05-20T09:51:17Z</time>
      </trkpt>
      <trkpt lat="43.60303" lon="3.04624">
        <ele>486.7</ele>
        <time>2026-05-20T09:51:22Z</time>
      </trkpt>
      <trkpt lat="43.60303" lon="3.04624">
        <ele>486.7</ele>
        <time>2026-05-20T09:51:27Z</time>
      </trkpt>
      <trkpt lat="43.60304" lon="3.04631">
        <ele>485.6</ele>
        <time>2026-05-20T09:51:32Z</time>
      </trkpt>
      <trkpt lat="43.60309" lon="3.04631">
        <ele>487.2</ele>
        <time>2026-05-20T09:51:37Z</time>
      </trkpt>
      <trkpt lat="43.60312" lon="3.04629">
        <ele>488.5</ele>
        <time>2026-05-20T09:51:42Z</time>
      </trkpt>
      <trkpt lat="43.60314" lon="3.0463">
        <ele>489</ele>
        <time>2026-05-20T09:51:47Z</time>
      </trkpt>
      <trkpt lat="43.60315" lon="3.04629">
        <ele>489.5</ele>
        <time>2026-05-20T09:51:52Z</time>
      </trkpt>
      <trkpt lat="43.60315" lon="3.04629">
        <ele>489.5</ele>
        <time>2026-05-20T09:51:57Z</time>
      </trkpt>
      <trkpt lat="43.60315" lon="3.04629">
        <ele>489.5</ele>
        <time>2026-05-20T09:52:02Z</time>
      </trkpt>
      <trkpt lat="43.60315" lon="3.04629">
        <ele>489.5</ele>
        <time>2026-05-20T09:52:07Z</time>
      </trkpt>
      <trkpt lat="43.60315" lon="3.04629">
        <ele>489.5</ele>
        <time>2026-05-20T09:52:12Z</time>
      </trkpt>
      <trkpt lat="43.60318" lon="3.04634">
        <ele>489.5</ele>
        <time>2026-05-20T09:52:17Z</time>
      </trkpt>
      <trkpt lat="43.60318" lon="3.04634">
        <ele>489.5</ele>
        <time>2026-05-20T09:52:22Z</time>
      </trkpt>
      <trkpt lat="43.60318" lon="3.04634">
        <ele>489.5</ele>
        <time>2026-05-20T09:52:27Z</time>
      </trkpt>
      <trkpt lat="43.60318" lon="3.04634">
        <ele>489.5</ele>
        <time>2026-05-20T09:52:32Z</time>
      </trkpt>
      <trkpt lat="43.60318" lon="3.04634">
        <ele>489.5</ele>
        <time>2026-05-20T09:52:37Z</time>
      </trkpt>
      <trkpt lat="43.60318" lon="3.04634">
        <ele>489.5</ele>
        <time>2026-05-20T09:52:42Z</time>
      </trkpt>
      <trkpt lat="43.60318" lon="3.04634">
        <ele>489.5</ele>
        <time>2026-05-20T09:52:47Z</time>
      </trkpt>
      <trkpt lat="43.60318" lon="3.04634">
        <ele>489.5</ele>
        <time>2026-05-20T09:52:52Z</time>
      </trkpt>
      <trkpt lat="43.60318" lon="3.04634">
        <ele>489.5</ele>
        <time>2026-05-20T09:52:57Z</time>
      </trkpt>
      <trkpt lat="43.60318" lon="3.04634">
        <ele>489.5</ele>
        <time>2026-05-20T09:53:02Z</time>
      </trkpt>
      <trkpt lat="43.60318" lon="3.04634">
        <ele>489.5</ele>
        <time>2026-05-20T09:53:07Z</time>
      </trkpt>
      <trkpt lat="43.60318" lon="3.04634">
        <ele>489.5</ele>
        <time>2026-05-20T09:53:12Z</time>
      </trkpt>
      <trkpt lat="43.60318" lon="3.04634">
        <ele>489.5</ele>
        <time>2026-05-20T09:53:17Z</time>
      </trkpt>
      <trkpt lat="43.60318" lon="3.04634">
        <ele>489.5</ele>
        <time>2026-05-20T09:53:22Z</time>
      </trkpt>
      <trkpt lat="43.60318" lon="3.04634">
        <ele>489.5</ele>
        <time>2026-05-20T09:53:27Z</time>
      </trkpt>
      <trkpt lat="43.60318" lon="3.04634">
        <ele>489.5</ele>
        <time>2026-05-20T09:53:32Z</time>
      </trkpt>
      <trkpt lat="43.60318" lon="3.04634">
        <ele>489.5</ele>
        <time>2026-05-20T09:53:37Z</time>
      </trkpt>
      <trkpt lat="43.60318" lon="3.04634">
        <ele>489.5</ele>
        <time>2026-05-20T09:53:42Z</time>
      </trkpt>
      <trkpt lat="43.60318" lon="3.04634">
        <ele>489.5</ele>
        <time>2026-05-20T09:53:47Z</time>
      </trkpt>
      <trkpt lat="43.60318" lon="3.04634">
        <ele>489.5</ele>
        <time>2026-05-20T09:53:52Z</time>
      </trkpt>
      <trkpt lat="43.60318" lon="3.04634">
        <ele>489.5</ele>
        <time>2026-05-20T09:53:57Z</time>
      </trkpt>
      <trkpt lat="43.60318" lon="3.04634">
        <ele>489.5</ele>
        <time>2026-05-20T09:54:02Z</time>
      </trkpt>
      <trkpt lat="43.60318" lon="3.04634">
        <ele>489.5</ele>
        <time>2026-05-20T09:54:07Z</time>
      </trkpt>
      <trkpt lat="43.60325" lon="3.04628">
        <ele>492.9</ele>
        <time>2026-05-20T09:54:12Z</time>
      </trkpt>
      <trkpt lat="43.60325" lon="3.04628">
        <ele>492.9</ele>
        <time>2026-05-20T09:54:17Z</time>
      </trkpt>
      <trkpt lat="43.60325" lon="3.04628">
        <ele>492.9</ele>
        <time>2026-05-20T09:54:22Z</time>
      </trkpt>
      <trkpt lat="43.60325" lon="3.04628">
        <ele>492.9</ele>
        <time>2026-05-20T09:54:27Z</time>
      </trkpt>
      <trkpt lat="43.60325" lon="3.04628">
        <ele>492.9</ele>
        <time>2026-05-20T09:54:32Z</time>
      </trkpt>
      <trkpt lat="43.60325" lon="3.04628">
        <ele>492.9</ele>
        <time>2026-05-20T09:54:37Z</time>
      </trkpt>
      <trkpt lat="43.60325" lon="3.04628">
        <ele>492.9</ele>
        <time>2026-05-20T09:54:42Z</time>
      </trkpt>
      <trkpt lat="43.60325" lon="3.04628">
        <ele>492.9</ele>
        <time>2026-05-20T09:54:47Z</time>
      </trkpt>
      <trkpt lat="43.60325" lon="3.04628">
        <ele>492.9</ele>
        <time>2026-05-20T09:54:52Z</time>
      </trkpt>
      <trkpt lat="43.60325" lon="3.04628">
        <ele>492.9</ele>
        <time>2026-05-20T09:54:57Z</time>
      </trkpt>
      <trkpt lat="43.60325" lon="3.04628">
        <ele>492.9</ele>
        <time>2026-05-20T09:55:02Z</time>
      </trkpt>
      <trkpt lat="43.60325" lon="3.04628">
        <ele>492.9</ele>
        <time>2026-05-20T09:55:07Z</time>
      </trkpt>
      <trkpt lat="43.60325" lon="3.04628">
        <ele>492.9</ele>
        <time>2026-05-20T09:55:12Z</time>
      </trkpt>
      <trkpt lat="43.60325" lon="3.04628">
        <ele>492.9</ele>
        <time>2026-05-20T09:55:17Z</time>
      </trkpt>
      <trkpt lat="43.60325" lon="3.04628">
        <ele>492.9</ele>
        <time>2026-05-20T09:55:22Z</time>
      </trkpt>
      <trkpt lat="43.60325" lon="3.04628">
        <ele>492.9</ele>
        <time>2026-05-20T09:55:27Z</time>
      </trkpt>
      <trkpt lat="43.60325" lon="3.04628">
        <ele>492.9</ele>
        <time>2026-05-20T09:55:32Z</time>
      </trkpt>
      <trkpt lat="43.60325" lon="3.04628">
        <ele>492.9</ele>
        <time>2026-05-20T09:55:37Z</time>
      </trkpt>
      <trkpt lat="43.60325" lon="3.04628">
        <ele>492.9</ele>
        <time>2026-05-20T09:55:42Z</time>
      </trkpt>
      <trkpt lat="43.60325" lon="3.04628">
        <ele>492.9</ele>
        <time>2026-05-20T09:55:47Z</time>
      </trkpt>
      <trkpt lat="43.60325" lon="3.04628">
        <ele>492.9</ele>
        <time>2026-05-20T09:55:52Z</time>
      </trkpt>
      <trkpt lat="43.60325" lon="3.04628">
        <ele>492.9</ele>
        <time>2026-05-20T09:55:57Z</time>
      </trkpt>
      <trkpt lat="43.60325" lon="3.04628">
        <ele>492.9</ele>
        <time>2026-05-20T09:56:02Z</time>
      </trkpt>
      <trkpt lat="43.60325" lon="3.04628">
        <ele>492.9</ele>
        <time>2026-05-20T09:56:07Z</time>
      </trkpt>
      <trkpt lat="43.60325" lon="3.04628">
        <ele>492.9</ele>
        <time>2026-05-20T09:56:12Z</time>
      </trkpt>
      <trkpt lat="43.60325" lon="3.04628">
        <ele>492.9</ele>
        <time>2026-05-20T09:56:17Z</time>
      </trkpt>
      <trkpt lat="43.60325" lon="3.04628">
        <ele>492.9</ele>
        <time>2026-05-20T09:56:22Z</time>
      </trkpt>
      <trkpt lat="43.60325" lon="3.04628">
        <ele>492.9</ele>
        <time>2026-05-20T09:56:27Z</time>
      </trkpt>
      <trkpt lat="43.60325" lon="3.04628">
        <ele>492.9</ele>
        <time>2026-05-20T09:56:32Z</time>
      </trkpt>
      <trkpt lat="43.60325" lon="3.04628">
        <ele>492.9</ele>
        <time>2026-05-20T09:56:37Z</time>
      </trkpt>
      <trkpt lat="43.60325" lon="3.04628">
        <ele>492.9</ele>
        <time>2026-05-20T09:56:42Z</time>
      </trkpt>
      <trkpt lat="43.60325" lon="3.04628">
        <ele>492.9</ele>
        <time>2026-05-20T09:56:47Z</time>
      </trkpt>
      <trkpt lat="43.60325" lon="3.04628">
        <ele>492.9</ele>
        <time>2026-05-20T09:56:52Z</time>
      </trkpt>
      <trkpt lat="43.60325" lon="3.04628">
        <ele>492.9</ele>
        <time>2026-05-20T09:56:57Z</time>
      </trkpt>
      <trkpt lat="43.60325" lon="3.04628">
        <ele>492.9</ele>
        <time>2026-05-20T09:57:02Z</time>
      </trkpt>
      <trkpt lat="43.60325" lon="3.04628">
        <ele>492.9</ele>
        <time>2026-05-20T09:57:07Z</time>
      </trkpt>
      <trkpt lat="43.60325" lon="3.04628">
        <ele>492.9</ele>
        <time>2026-05-20T09:57:12Z</time>
      </trkpt>
      <trkpt lat="43.60325" lon="3.04628">
        <ele>492.9</ele>
        <time>2026-05-20T09:57:17Z</time>
      </trkpt>
      <trkpt lat="43.60325" lon="3.04628">
        <ele>492.9</ele>
        <time>2026-05-20T09:57:22Z</time>
      </trkpt>
      <trkpt lat="43.60325" lon="3.04628">
        <ele>492.9</ele>
        <time>2026-05-20T09:57:27Z</time>
      </trkpt>
      <trkpt lat="43.60325" lon="3.04628">
        <ele>492.9</ele>
        <time>2026-05-20T09:57:32Z</time>
      </trkpt>
      <trkpt lat="43.60325" lon="3.04628">
        <ele>492.9</ele>
        <time>2026-05-20T09:57:37Z</time>
      </trkpt>
      <trkpt lat="43.60325" lon="3.04628">
        <ele>492.9</ele>
        <time>2026-05-20T09:57:42Z</time>
      </trkpt>
      <trkpt lat="43.60325" lon="3.04628">
        <ele>492.9</ele>
        <time>2026-05-20T09:57:47Z</time>
      </trkpt>
      <trkpt lat="43.60325" lon="3.04628">
        <ele>492.9</ele>
        <time>2026-05-20T09:57:52Z</time>
      </trkpt>
      <trkpt lat="43.60325" lon="3.04628">
        <ele>492.9</ele>
        <time>2026-05-20T09:57:57Z</time>
      </trkpt>
      <trkpt lat="43.60325" lon="3.04628">
        <ele>492.9</ele>
        <time>2026-05-20T09:58:02Z</time>
      </trkpt>
      <trkpt lat="43.60325" lon="3.04628">
        <ele>492.9</ele>
        <time>2026-05-20T09:58:07Z</time>
      </trkpt>
      <trkpt lat="43.60325" lon="3.04628">
        <ele>492.9</ele>
        <time>2026-05-20T09:58:12Z</time>
      </trkpt>
      <trkpt lat="43.60325" lon="3.04628">
        <ele>492.9</ele>
        <time>2026-05-20T09:58:17Z</time>
      </trkpt>
      <trkpt lat="43.60325" lon="3.04628">
        <ele>492.9</ele>
        <time>2026-05-20T09:58:22Z</time>
      </trkpt>
      <trkpt lat="43.60325" lon="3.04628">
        <ele>492.9</ele>
        <time>2026-05-20T09:58:27Z</time>
      </trkpt>
      <trkpt lat="43.60325" lon="3.04628">
        <ele>492.9</ele>
        <time>2026-05-20T09:58:32Z</time>
      </trkpt>
      <trkpt lat="43.60325" lon="3.04628">
        <ele>492.9</ele>
        <time>2026-05-20T09:58:37Z</time>
      </trkpt>
      <trkpt lat="43.60325" lon="3.04628">
        <ele>492.9</ele>
        <time>2026-05-20T09:58:42Z</time>
      </trkpt>
      <trkpt lat="43.60325" lon="3.04628">
        <ele>492.9</ele>
        <time>2026-05-20T09:58:47Z</time>
      </trkpt>
      <trkpt lat="43.60325" lon="3.04628">
        <ele>492.9</ele>
        <time>2026-05-20T09:58:52Z</time>
      </trkpt>
      <trkpt lat="43.60325" lon="3.04628">
        <ele>492.9</ele>
        <time>2026-05-20T09:58:57Z</time>
      </trkpt>
      <trkpt lat="43.60325" lon="3.04628">
        <ele>492.9</ele>
        <time>2026-05-20T09:59:02Z</time>
      </trkpt>
      <trkpt lat="43.60325" lon="3.04628">
        <ele>492.9</ele>
        <time>2026-05-20T09:59:07Z</time>
      </trkpt>
      <trkpt lat="43.60325" lon="3.04628">
        <ele>492.9</ele>
        <time>2026-05-20T09:59:12Z</time>
      </trkpt>
      <trkpt lat="43.60325" lon="3.04628">
        <ele>492.9</ele>
        <time>2026-05-20T09:59:17Z</time>
      </trkpt>
      <trkpt lat="43.60325" lon="3.04628">
        <ele>492.9</ele>
        <time>2026-05-20T09:59:22Z</time>
      </trkpt>
      <trkpt lat="43.60325" lon="3.04628">
        <ele>492.9</ele>
        <time>2026-05-20T09:59:27Z</time>
      </trkpt>
      <trkpt lat="43.60325" lon="3.04628">
        <ele>492.9</ele>
        <time>2026-05-20T09:59:32Z</time>
      </trkpt>
      <trkpt lat="43.60325" lon="3.04628">
        <ele>492.9</ele>
        <time>2026-05-20T09:59:37Z</time>
      </trkpt>
      <trkpt lat="43.60325" lon="3.04628">
        <ele>492.9</ele>
        <time>2026-05-20T09:59:42Z</time>
      </trkpt>
      <trkpt lat="43.60325" lon="3.04628">
        <ele>492.9</ele>
        <time>2026-05-20T09:59:47Z</time>
      </trkpt>
      <trkpt lat="43.60325" lon="3.04628">
        <ele>492.9</ele>
        <time>2026-05-20T09:59:52Z</time>
      </trkpt>
      <trkpt lat="43.60325" lon="3.04628">
        <ele>492.9</ele>
        <time>2026-05-20T09:59:57Z</time>
      </trkpt>
      <trkpt lat="43.60325" lon="3.04628">
        <ele>492.9</ele>
        <time>2026-05-20T10:00:02Z</time>
      </trkpt>
      <trkpt lat="43.60325" lon="3.04628">
        <ele>492.9</ele>
        <time>2026-05-20T10:00:07Z</time>
      </trkpt>
      <trkpt lat="43.60325" lon="3.04628">
        <ele>492.9</ele>
        <time>2026-05-20T10:00:12Z</time>
      </trkpt>
      <trkpt lat="43.60325" lon="3.04628">
        <ele>492.9</ele>
        <time>2026-05-20T10:00:17Z</time>
      </trkpt>
      <trkpt lat="43.60325" lon="3.04628">
        <ele>492.9</ele>
        <time>2026-05-20T10:00:22Z</time>
      </trkpt>
      <trkpt lat="43.60325" lon="3.04628">
        <ele>492.9</ele>
        <time>2026-05-20T10:00:27Z</time>
      </trkpt>
      <trkpt lat="43.60325" lon="3.04628">
        <ele>492.9</ele>
        <time>2026-05-20T10:00:32Z</time>
      </trkpt>
      <trkpt lat="43.60325" lon="3.04628">
        <ele>492.9</ele>
        <time>2026-05-20T10:00:37Z</time>
      </trkpt>
      <trkpt lat="43.60325" lon="3.04628">
        <ele>492.9</ele>
        <time>2026-05-20T10:00:42Z</time>
      </trkpt>
      <trkpt lat="43.60325" lon="3.04628">
        <ele>492.9</ele>
        <time>2026-05-20T10:00:47Z</time>
      </trkpt>
      <trkpt lat="43.60325" lon="3.04628">
        <ele>492.9</ele>
        <time>2026-05-20T10:00:52Z</time>
      </trkpt>
      <trkpt lat="43.60325" lon="3.04628">
        <ele>492.9</ele>
        <time>2026-05-20T10:00:57Z</time>
      </trkpt>
      <trkpt lat="43.60325" lon="3.04628">
        <ele>492.9</ele>
        <time>2026-05-20T10:01:02Z</time>
      </trkpt>
      <trkpt lat="43.60325" lon="3.04628">
        <ele>492.9</ele>
        <time>2026-05-20T10:01:07Z</time>
      </trkpt>
      <trkpt lat="43.60325" lon="3.04628">
        <ele>492.9</ele>
        <time>2026-05-20T10:01:12Z</time>
      </trkpt>
      <trkpt lat="43.60325" lon="3.04628">
        <ele>492.9</ele>
        <time>2026-05-20T10:01:17Z</time>
      </trkpt>
      <trkpt lat="43.60325" lon="3.04628">
        <ele>492.9</ele>
        <time>2026-05-20T10:01:22Z</time>
      </trkpt>
      <trkpt lat="43.60325" lon="3.04628">
        <ele>492.9</ele>
        <time>2026-05-20T10:01:27Z</time>
      </trkpt>
      <trkpt lat="43.60325" lon="3.04628">
        <ele>492.9</ele>
        <time>2026-05-20T10:01:32Z</time>
      </trkpt>
      <trkpt lat="43.60325" lon="3.04628">
        <ele>492.9</ele>
        <time>2026-05-20T10:01:37Z</time>
      </trkpt>
      <trkpt lat="43.60325" lon="3.04628">
        <ele>492.9</ele>
        <time>2026-05-20T10:01:42Z</time>
      </trkpt>
      <trkpt lat="43.60325" lon="3.04628">
        <ele>492.9</ele>
        <time>2026-05-20T10:01:47Z</time>
      </trkpt>
      <trkpt lat="43.60325" lon="3.04628">
        <ele>492.9</ele>
        <time>2026-05-20T10:01:52Z</time>
      </trkpt>
      <trkpt lat="43.60325" lon="3.04628">
        <ele>492.9</ele>
        <time>2026-05-20T10:01:57Z</time>
      </trkpt>
      <trkpt lat="43.60325" lon="3.04628">
        <ele>492.9</ele>
        <time>2026-05-20T10:02:02Z</time>
      </trkpt>
      <trkpt lat="43.60325" lon="3.04628">
        <ele>492.9</ele>
        <time>2026-05-20T10:02:07Z</time>
      </trkpt>
      <trkpt lat="43.60325" lon="3.04628">
        <ele>492.9</ele>
        <time>2026-05-20T10:02:12Z</time>
      </trkpt>
      <trkpt lat="43.60325" lon="3.04628">
        <ele>492.9</ele>
        <time>2026-05-20T10:02:17Z</time>
      </trkpt>
      <trkpt lat="43.60325" lon="3.04628">
        <ele>492.9</ele>
        <time>2026-05-20T10:02:22Z</time>
      </trkpt>
      <trkpt lat="43.60325" lon="3.04628">
        <ele>492.9</ele>
        <time>2026-05-20T10:02:27Z</time>
      </trkpt>
      <trkpt lat="43.60325" lon="3.04628">
        <ele>492.9</ele>
        <time>2026-05-20T10:02:32Z</time>
      </trkpt>
      <trkpt lat="43.60325" lon="3.04628">
        <ele>492.9</ele>
        <time>2026-05-20T10:02:37Z</time>
      </trkpt>
      <trkpt lat="43.60325" lon="3.04628">
        <ele>492.9</ele>
        <time>2026-05-20T10:02:42Z</time>
      </trkpt>
      <trkpt lat="43.60325" lon="3.04628">
        <ele>492.9</ele>
        <time>2026-05-20T10:02:47Z</time>
      </trkpt>
      <trkpt lat="43.60325" lon="3.04628">
        <ele>492.9</ele>
        <time>2026-05-20T10:02:52Z</time>
      </trkpt>
      <trkpt lat="43.60325" lon="3.04628">
        <ele>492.9</ele>
        <time>2026-05-20T10:02:57Z</time>
      </trkpt>
      <trkpt lat="43.60325" lon="3.04628">
        <ele>492.9</ele>
        <time>2026-05-20T10:03:02Z</time>
      </trkpt>
      <trkpt lat="43.60325" lon="3.04628">
        <ele>492.9</ele>
        <time>2026-05-20T10:03:07Z</time>
      </trkpt>
      <trkpt lat="43.60325" lon="3.04628">
        <ele>492.9</ele>
        <time>2026-05-20T10:03:12Z</time>
      </trkpt>
      <trkpt lat="43.60325" lon="3.04628">
        <ele>492.9</ele>
        <time>2026-05-20T10:03:17Z</time>
      </trkpt>
      <trkpt lat="43.60325" lon="3.04628">
        <ele>492.9</ele>
        <time>2026-05-20T10:03:22Z</time>
      </trkpt>
      <trkpt lat="43.60325" lon="3.04628">
        <ele>492.9</ele>
        <time>2026-05-20T10:03:27Z</time>
      </trkpt>
      <trkpt lat="43.60325" lon="3.04628">
        <ele>492.9</ele>
        <time>2026-05-20T10:03:32Z</time>
      </trkpt>
      <trkpt lat="43.60325" lon="3.04628">
        <ele>492.9</ele>
        <time>2026-05-20T10:03:37Z</time>
      </trkpt>
      <trkpt lat="43.60325" lon="3.04628">
        <ele>492.9</ele>
        <time>2026-05-20T10:03:42Z</time>
      </trkpt>
      <trkpt lat="43.60325" lon="3.04628">
        <ele>492.9</ele>
        <time>2026-05-20T10:03:47Z</time>
      </trkpt>
      <trkpt lat="43.60325" lon="3.04628">
        <ele>492.9</ele>
        <time>2026-05-20T10:03:52Z</time>
      </trkpt>
      <trkpt lat="43.60325" lon="3.04628">
        <ele>492.9</ele>
        <time>2026-05-20T10:03:57Z</time>
      </trkpt>
      <trkpt lat="43.60325" lon="3.04628">
        <ele>492.9</ele>
        <time>2026-05-20T10:04:02Z</time>
      </trkpt>
      <trkpt lat="43.60325" lon="3.04628">
        <ele>492.9</ele>
        <time>2026-05-20T10:04:07Z</time>
      </trkpt>
      <trkpt lat="43.60325" lon="3.04628">
        <ele>492.9</ele>
        <time>2026-05-20T10:04:12Z</time>
      </trkpt>
      <trkpt lat="43.60325" lon="3.04628">
        <ele>492.9</ele>
        <time>2026-05-20T10:04:17Z</time>
      </trkpt>
      <trkpt lat="43.60325" lon="3.04628">
        <ele>492.9</ele>
        <time>2026-05-20T10:04:22Z</time>
      </trkpt>
      <trkpt lat="43.60325" lon="3.04628">
        <ele>492.9</ele>
        <time>2026-05-20T10:04:27Z</time>
      </trkpt>
      <trkpt lat="43.60325" lon="3.04628">
        <ele>492.9</ele>
        <time>2026-05-20T10:04:32Z</time>
      </trkpt>
      <trkpt lat="43.60325" lon="3.04628">
        <ele>492.9</ele>
        <time>2026-05-20T10:04:37Z</time>
      </trkpt>
      <trkpt lat="43.60325" lon="3.04628">
        <ele>492.9</ele>
        <time>2026-05-20T10:04:42Z</time>
      </trkpt>
      <trkpt lat="43.60325" lon="3.04628">
        <ele>492.9</ele>
        <time>2026-05-20T10:04:47Z</time>
      </trkpt>
      <trkpt lat="43.60325" lon="3.04628">
        <ele>492.9</ele>
        <time>2026-05-20T10:04:52Z</time>
      </trkpt>
      <trkpt lat="43.60325" lon="3.04628">
        <ele>492.9</ele>
        <time>2026-05-20T10:04:57Z</time>
      </trkpt>
      <trkpt lat="43.60325" lon="3.04628">
        <ele>492.9</ele>
        <time>2026-05-20T10:05:02Z</time>
      </trkpt>
      <trkpt lat="43.60325" lon="3.04628">
        <ele>492.9</ele>
        <time>2026-05-20T10:05:07Z</time>
      </trkpt>
      <trkpt lat="43.60325" lon="3.04628">
        <ele>492.9</ele>
        <time>2026-05-20T10:05:12Z</time>
      </trkpt>
      <trkpt lat="43.60325" lon="3.04628">
        <ele>492.9</ele>
        <time>2026-05-20T10:05:17Z</time>
      </trkpt>
      <trkpt lat="43.60325" lon="3.04628">
        <ele>492.9</ele>
        <time>2026-05-20T10:05:22Z</time>
      </trkpt>
      <trkpt lat="43.60325" lon="3.04628">
        <ele>492.9</ele>
        <time>2026-05-20T10:05:27Z</time>
      </trkpt>
      <trkpt lat="43.60325" lon="3.04628">
        <ele>492.9</ele>
        <time>2026-05-20T10:05:32Z</time>
      </trkpt>
      <trkpt lat="43.60325" lon="3.04628">
        <ele>492.9</ele>
        <time>2026-05-20T10:05:37Z</time>
      </trkpt>
      <trkpt lat="43.60325" lon="3.04628">
        <ele>492.9</ele>
        <time>2026-05-20T10:05:42Z</time>
      </trkpt>
      <trkpt lat="43.60325" lon="3.04628">
        <ele>492.9</ele>
        <time>2026-05-20T10:05:47Z</time>
      </trkpt>
      <trkpt lat="43.60325" lon="3.04628">
        <ele>492.9</ele>
        <time>2026-05-20T10:05:52Z</time>
      </trkpt>
      <trkpt lat="43.60325" lon="3.04628">
        <ele>492.9</ele>
        <time>2026-05-20T10:05:57Z</time>
      </trkpt>
      <trkpt lat="43.60325" lon="3.04628">
        <ele>492.9</ele>
        <time>2026-05-20T10:06:02Z</time>
      </trkpt>
      <trkpt lat="43.60325" lon="3.04628">
        <ele>492.9</ele>
        <time>2026-05-20T10:06:07Z</time>
      </trkpt>
      <trkpt lat="43.60325" lon="3.04628">
        <ele>492.9</ele>
        <time>2026-05-20T10:06:12Z</time>
      </trkpt>
      <trkpt lat="43.60325" lon="3.04628">
        <ele>492.9</ele>
        <time>2026-05-20T10:06:17Z</time>
      </trkpt>
      <trkpt lat="43.60325" lon="3.04628">
        <ele>492.9</ele>
        <time>2026-05-20T10:06:22Z</time>
      </trkpt>
      <trkpt lat="43.60325" lon="3.04628">
        <ele>492.9</ele>
        <time>2026-05-20T10:06:27Z</time>
      </trkpt>
      <trkpt lat="43.60325" lon="3.04628">
        <ele>492.9</ele>
        <time>2026-05-20T10:06:32Z</time>
      </trkpt>
      <trkpt lat="43.60325" lon="3.04628">
        <ele>492.9</ele>
        <time>2026-05-20T10:06:37Z</time>
      </trkpt>
      <trkpt lat="43.60325" lon="3.04628">
        <ele>492.9</ele>
        <time>2026-05-20T10:06:42Z</time>
      </trkpt>
      <trkpt lat="43.60325" lon="3.04628">
        <ele>492.9</ele>
        <time>2026-05-20T10:06:47Z</time>
      </trkpt>
      <trkpt lat="43.60325" lon="3.04628">
        <ele>492.9</ele>
        <time>2026-05-20T10:06:52Z</time>
      </trkpt>
      <trkpt lat="43.60325" lon="3.04628">
        <ele>492.9</ele>
        <time>2026-05-20T10:06:57Z</time>
      </trkpt>
      <trkpt lat="43.60325" lon="3.04628">
        <ele>492.9</ele>
        <time>2026-05-20T10:07:02Z</time>
      </trkpt>
      <trkpt lat="43.60325" lon="3.04628">
        <ele>492.9</ele>
        <time>2026-05-20T10:07:07Z</time>
      </trkpt>
      <trkpt lat="43.60325" lon="3.04628">
        <ele>492.9</ele>
        <time>2026-05-20T10:07:12Z</time>
      </trkpt>
      <trkpt lat="43.60325" lon="3.04628">
        <ele>492.9</ele>
        <time>2026-05-20T10:07:17Z</time>
      </trkpt>
      <trkpt lat="43.60325" lon="3.04628">
        <ele>492.9</ele>
        <time>2026-05-20T10:07:22Z</time>
      </trkpt>
      <trkpt lat="43.60325" lon="3.04628">
        <ele>492.9</ele>
        <time>2026-05-20T10:07:27Z</time>
      </trkpt>
      <trkpt lat="43.60325" lon="3.04628">
        <ele>492.9</ele>
        <time>2026-05-20T10:07:32Z</time>
      </trkpt>
      <trkpt lat="43.60325" lon="3.04628">
        <ele>492.9</ele>
        <time>2026-05-20T10:07:37Z</time>
      </trkpt>
      <trkpt lat="43.60325" lon="3.04628">
        <ele>492.9</ele>
        <time>2026-05-20T10:07:42Z</time>
      </trkpt>
      <trkpt lat="43.60325" lon="3.04628">
        <ele>492.9</ele>
        <time>2026-05-20T10:07:47Z</time>
      </trkpt>
      <trkpt lat="43.60325" lon="3.04628">
        <ele>492.9</ele>
        <time>2026-05-20T10:07:52Z</time>
      </trkpt>
      <trkpt lat="43.60325" lon="3.04628">
        <ele>492.9</ele>
        <time>2026-05-20T10:07:57Z</time>
      </trkpt>
      <trkpt lat="43.60325" lon="3.04628">
        <ele>492.9</ele>
        <time>2026-05-20T10:08:02Z</time>
      </trkpt>
      <trkpt lat="43.60325" lon="3.04628">
        <ele>492.9</ele>
        <time>2026-05-20T10:08:07Z</time>
      </trkpt>
      <trkpt lat="43.60325" lon="3.04628">
        <ele>492.9</ele>
        <time>2026-05-20T10:08:12Z</time>
      </trkpt>
      <trkpt lat="43.60325" lon="3.04628">
        <ele>492.9</ele>
        <time>2026-05-20T10:08:17Z</time>
      </trkpt>
      <trkpt lat="43.60325" lon="3.04628">
        <ele>492.9</ele>
        <time>2026-05-20T10:08:22Z</time>
      </trkpt>
      <trkpt lat="43.60325" lon="3.04628">
        <ele>492.9</ele>
        <time>2026-05-20T10:08:27Z</time>
      </trkpt>
      <trkpt lat="43.60325" lon="3.04628">
        <ele>492.9</ele>
        <time>2026-05-20T10:08:32Z</time>
      </trkpt>
      <trkpt lat="43.60325" lon="3.04628">
        <ele>492.9</ele>
        <time>2026-05-20T10:08:37Z</time>
      </trkpt>
      <trkpt lat="43.60325" lon="3.04628">
        <ele>492.9</ele>
        <time>2026-05-20T10:08:42Z</time>
      </trkpt>
      <trkpt lat="43.60325" lon="3.04628">
        <ele>492.9</ele>
        <time>2026-05-20T10:08:47Z</time>
      </trkpt>
      <trkpt lat="43.60325" lon="3.04628">
        <ele>492.9</ele>
        <time>2026-05-20T10:08:52Z</time>
      </trkpt>
      <trkpt lat="43.60325" lon="3.04628">
        <ele>492.9</ele>
        <time>2026-05-20T10:08:57Z</time>
      </trkpt>
      <trkpt lat="43.60325" lon="3.04628">
        <ele>492.9</ele>
        <time>2026-05-20T10:09:02Z</time>
      </trkpt>
      <trkpt lat="43.60325" lon="3.04628">
        <ele>492.9</ele>
        <time>2026-05-20T10:09:07Z</time>
      </trkpt>
      <trkpt lat="43.60325" lon="3.04628">
        <ele>492.9</ele>
        <time>2026-05-20T10:09:12Z</time>
      </trkpt>
      <trkpt lat="43.60325" lon="3.04628">
        <ele>492.9</ele>
        <time>2026-05-20T10:09:17Z</time>
      </trkpt>
      <trkpt lat="43.60325" lon="3.04628">
        <ele>492.9</ele>
        <time>2026-05-20T10:09:22Z</time>
      </trkpt>
      <trkpt lat="43.60325" lon="3.04628">
        <ele>492.9</ele>
        <time>2026-05-20T10:09:27Z</time>
      </trkpt>
      <trkpt lat="43.60325" lon="3.04628">
        <ele>492.9</ele>
        <time>2026-05-20T10:09:32Z</time>
      </trkpt>
      <trkpt lat="43.60325" lon="3.04628">
        <ele>492.9</ele>
        <time>2026-05-20T10:09:37Z</time>
      </trkpt>
      <trkpt lat="43.60325" lon="3.04628">
        <ele>492.9</ele>
        <time>2026-05-20T10:09:42Z</time>
      </trkpt>
      <trkpt lat="43.60325" lon="3.04628">
        <ele>492.9</ele>
        <time>2026-05-20T10:09:47Z</time>
      </trkpt>
      <trkpt lat="43.60325" lon="3.04628">
        <ele>492.9</ele>
        <time>2026-05-20T10:09:52Z</time>
      </trkpt>
      <trkpt lat="43.60325" lon="3.04628">
        <ele>492.9</ele>
        <time>2026-05-20T10:09:57Z</time>
      </trkpt>
      <trkpt lat="43.60325" lon="3.04628">
        <ele>492.9</ele>
        <time>2026-05-20T10:10:02Z</time>
      </trkpt>
      <trkpt lat="43.60325" lon="3.04628">
        <ele>492.9</ele>
        <time>2026-05-20T10:10:07Z</time>
      </trkpt>
      <trkpt lat="43.60325" lon="3.04628">
        <ele>492.9</ele>
        <time>2026-05-20T10:10:12Z</time>
      </trkpt>
      <trkpt lat="43.60325" lon="3.04628">
        <ele>492.9</ele>
        <time>2026-05-20T10:10:17Z</time>
      </trkpt>
      <trkpt lat="43.60325" lon="3.04628">
        <ele>492.9</ele>
        <time>2026-05-20T10:10:22Z</time>
      </trkpt>
      <trkpt lat="43.60325" lon="3.04628">
        <ele>492.9</ele>
        <time>2026-05-20T10:10:27Z</time>
      </trkpt>
      <trkpt lat="43.60325" lon="3.04628">
        <ele>492.9</ele>
        <time>2026-05-20T10:10:32Z</time>
      </trkpt>
      <trkpt lat="43.60325" lon="3.04628">
        <ele>492.9</ele>
        <time>2026-05-20T10:10:37Z</time>
      </trkpt>
      <trkpt lat="43.60325" lon="3.04628">
        <ele>492.9</ele>
        <time>2026-05-20T10:10:42Z</time>
      </trkpt>
      <trkpt lat="43.60325" lon="3.04628">
        <ele>492.9</ele>
        <time>2026-05-20T10:10:47Z</time>
      </trkpt>
      <trkpt lat="43.60325" lon="3.04628">
        <ele>492.9</ele>
        <time>2026-05-20T10:10:52Z</time>
      </trkpt>
      <trkpt lat="43.60325" lon="3.04628">
        <ele>492.9</ele>
        <time>2026-05-20T10:10:57Z</time>
      </trkpt>
      <trkpt lat="43.60325" lon="3.04628">
        <ele>492.9</ele>
        <time>2026-05-20T10:11:02Z</time>
      </trkpt>
      <trkpt lat="43.60325" lon="3.04628">
        <ele>492.9</ele>
        <time>2026-05-20T10:11:07Z</time>
      </trkpt>
      <trkpt lat="43.60325" lon="3.04628">
        <ele>492.9</ele>
        <time>2026-05-20T10:11:12Z</time>
      </trkpt>
      <trkpt lat="43.60325" lon="3.04628">
        <ele>492.9</ele>
        <time>2026-05-20T10:11:17Z</time>
      </trkpt>
      <trkpt lat="43.60325" lon="3.04628">
        <ele>492.9</ele>
        <time>2026-05-20T10:11:22Z</time>
      </trkpt>
      <trkpt lat="43.60325" lon="3.04628">
        <ele>492.9</ele>
        <time>2026-05-20T10:11:27Z</time>
      </trkpt>
      <trkpt lat="43.60325" lon="3.04628">
        <ele>492.9</ele>
        <time>2026-05-20T10:11:32Z</time>
      </trkpt>
      <trkpt lat="43.60325" lon="3.04628">
        <ele>492.9</ele>
        <time>2026-05-20T10:11:37Z</time>
      </trkpt>
      <trkpt lat="43.60325" lon="3.04628">
        <ele>492.9</ele>
        <time>2026-05-20T10:11:42Z</time>
      </trkpt>
      <trkpt lat="43.60325" lon="3.04628">
        <ele>492.9</ele>
        <time>2026-05-20T10:11:47Z</time>
      </trkpt>
      <trkpt lat="43.60325" lon="3.04628">
        <ele>492.9</ele>
        <time>2026-05-20T10:11:52Z</time>
      </trkpt>
      <trkpt lat="43.60325" lon="3.04628">
        <ele>492.9</ele>
        <time>2026-05-20T10:11:57Z</time>
      </trkpt>
      <trkpt lat="43.60325" lon="3.04628">
        <ele>492.9</ele>
        <time>2026-05-20T10:12:02Z</time>
      </trkpt>
      <trkpt lat="43.60325" lon="3.04628">
        <ele>492.9</ele>
        <time>2026-05-20T10:12:07Z</time>
      </trkpt>
      <trkpt lat="43.60325" lon="3.04628">
        <ele>492.9</ele>
        <time>2026-05-20T10:12:12Z</time>
      </trkpt>
      <trkpt lat="43.60325" lon="3.04628">
        <ele>492.9</ele>
        <time>2026-05-20T10:12:17Z</time>
      </trkpt>
      <trkpt lat="43.60325" lon="3.04628">
        <ele>492.9</ele>
        <time>2026-05-20T10:12:22Z</time>
      </trkpt>
      <trkpt lat="43.60325" lon="3.04628">
        <ele>492.9</ele>
        <time>2026-05-20T10:12:27Z</time>
      </trkpt>
      <trkpt lat="43.60325" lon="3.04628">
        <ele>492.9</ele>
        <time>2026-05-20T10:12:32Z</time>
      </trkpt>
      <trkpt lat="43.60325" lon="3.04628">
        <ele>492.9</ele>
        <time>2026-05-20T10:12:37Z</time>
      </trkpt>
      <trkpt lat="43.60325" lon="3.04628">
        <ele>492.9</ele>
        <time>2026-05-20T10:12:42Z</time>
      </trkpt>
      <trkpt lat="43.60325" lon="3.04628">
        <ele>492.9</ele>
        <time>2026-05-20T10:12:47Z</time>
      </trkpt>
      <trkpt lat="43.60325" lon="3.04628">
        <ele>492.9</ele>
        <time>2026-05-20T10:12:52Z</time>
      </trkpt>
      <trkpt lat="43.60325" lon="3.04628">
        <ele>492.9</ele>
        <time>2026-05-20T10:12:57Z</time>
      </trkpt>
      <trkpt lat="43.60325" lon="3.04628">
        <ele>492.9</ele>
        <time>2026-05-20T10:13:02Z</time>
      </trkpt>
      <trkpt lat="43.60335" lon="3.04625">
        <ele>496.2</ele>
        <time>2026-05-20T10:13:07Z</time>
      </trkpt>
      <trkpt lat="43.60335" lon="3.04625">
        <ele>496.2</ele>
        <time>2026-05-20T10:13:12Z</time>
      </trkpt>
      <trkpt lat="43.60335" lon="3.04625">
        <ele>496.2</ele>
        <time>2026-05-20T10:13:17Z</time>
      </trkpt>
      <trkpt lat="43.60335" lon="3.04625">
        <ele>496.2</ele>
        <time>2026-05-20T10:13:22Z</time>
      </trkpt>
      <trkpt lat="43.60335" lon="3.04625">
        <ele>496.2</ele>
        <time>2026-05-20T10:13:27Z</time>
      </trkpt>
      <trkpt lat="43.60335" lon="3.04625">
        <ele>496.2</ele>
        <time>2026-05-20T10:13:32Z</time>
      </trkpt>
      <trkpt lat="43.60335" lon="3.04625">
        <ele>496.2</ele>
        <time>2026-05-20T10:13:37Z</time>
      </trkpt>
      <trkpt lat="43.60335" lon="3.04625">
        <ele>496.2</ele>
        <time>2026-05-20T10:13:42Z</time>
      </trkpt>
      <trkpt lat="43.60335" lon="3.04625">
        <ele>496.2</ele>
        <time>2026-05-20T10:13:47Z</time>
      </trkpt>
      <trkpt lat="43.60335" lon="3.04625">
        <ele>496.2</ele>
        <time>2026-05-20T10:13:52Z</time>
      </trkpt>
      <trkpt lat="43.60335" lon="3.04625">
        <ele>496.2</ele>
        <time>2026-05-20T10:13:57Z</time>
      </trkpt>
      <trkpt lat="43.60335" lon="3.04625">
        <ele>496.2</ele>
        <time>2026-05-20T10:14:02Z</time>
      </trkpt>
      <trkpt lat="43.60335" lon="3.04625">
        <ele>496.2</ele>
        <time>2026-05-20T10:14:07Z</time>
      </trkpt>
      <trkpt lat="43.60335" lon="3.04625">
        <ele>496.2</ele>
        <time>2026-05-20T10:14:12Z</time>
      </trkpt>
      <trkpt lat="43.60335" lon="3.04625">
        <ele>496.2</ele>
        <time>2026-05-20T10:14:17Z</time>
      </trkpt>
      <trkpt lat="43.60339" lon="3.04628">
        <ele>496.3</ele>
        <time>2026-05-20T10:14:22Z</time>
      </trkpt>
      <trkpt lat="43.60346" lon="3.04627">
        <ele>497.4</ele>
        <time>2026-05-20T10:14:27Z</time>
      </trkpt>
      <trkpt lat="43.60351" lon="3.04628">
        <ele>497.9</ele>
        <time>2026-05-20T10:14:32Z</time>
      </trkpt>
      <trkpt lat="43.60357" lon="3.04629">
        <ele>498.5</ele>
        <time>2026-05-20T10:14:37Z</time>
      </trkpt>
      <trkpt lat="43.6036" lon="3.04632">
        <ele>498.3</ele>
        <time>2026-05-20T10:14:42Z</time>
      </trkpt>
      <trkpt lat="43.60361" lon="3.04636">
        <ele>497.7</ele>
        <time>2026-05-20T10:14:47Z</time>
      </trkpt>
      <trkpt lat="43.60364" lon="3.04636">
        <ele>498</ele>
        <time>2026-05-20T10:14:52Z</time>
      </trkpt>
      <trkpt lat="43.6037" lon="3.04635">
        <ele>499</ele>
        <time>2026-05-20T10:14:57Z</time>
      </trkpt>
      <trkpt lat="43.60376" lon="3.04639">
        <ele>498.9</ele>
        <time>2026-05-20T10:15:02Z</time>
      </trkpt>
      <trkpt lat="43.60381" lon="3.04638">
        <ele>499.8</ele>
        <time>2026-05-20T10:15:07Z</time>
      </trkpt>
      <trkpt lat="43.60383" lon="3.04639">
        <ele>499.8</ele>
        <time>2026-05-20T10:15:12Z</time>
      </trkpt>
      <trkpt lat="43.60387" lon="3.04642">
        <ele>499.6</ele>
        <time>2026-05-20T10:15:17Z</time>
      </trkpt>
      <trkpt lat="43.60392" lon="3.04646">
        <ele>499.3</ele>
        <time>2026-05-20T10:15:22Z</time>
      </trkpt>
      <trkpt lat="43.60395" lon="3.04653">
        <ele>498.1</ele>
        <time>2026-05-20T10:15:27Z</time>
      </trkpt>
      <trkpt lat="43.604" lon="3.04662">
        <ele>496.5</ele>
        <time>2026-05-20T10:15:32Z</time>
      </trkpt>
      <trkpt lat="43.60401" lon="3.04664">
        <ele>496.1</ele>
        <time>2026-05-20T10:15:37Z</time>
      </trkpt>
      <trkpt lat="43.60401" lon="3.04665">
        <ele>495.9</ele>
        <time>2026-05-20T10:15:42Z</time>
      </trkpt>
      <trkpt lat="43.60401" lon="3.04665">
        <ele>495.9</ele>
        <time>2026-05-20T10:15:47Z</time>
      </trkpt>
      <trkpt lat="43.60401" lon="3.04665">
        <ele>495.9</ele>
        <time>2026-05-20T10:15:52Z</time>
      </trkpt>
      <trkpt lat="43.60401" lon="3.04665">
        <ele>495.9</ele>
        <time>2026-05-20T10:15:57Z</time>
      </trkpt>
      <trkpt lat="43.60401" lon="3.04665">
        <ele>495.9</ele>
        <time>2026-05-20T10:16:02Z</time>
      </trkpt>
      <trkpt lat="43.60406" lon="3.04666">
        <ele>496.1</ele>
        <time>2026-05-20T10:16:07Z</time>
      </trkpt>
      <trkpt lat="43.60411" lon="3.04669">
        <ele>496</ele>
        <time>2026-05-20T10:16:12Z</time>
      </trkpt>
      <trkpt lat="43.60415" lon="3.04673">
        <ele>495.5</ele>
        <time>2026-05-20T10:16:17Z</time>
      </trkpt>
      <trkpt lat="43.6042" lon="3.04677">
        <ele>495.4</ele>
        <time>2026-05-20T10:16:22Z</time>
      </trkpt>
      <trkpt lat="43.60425" lon="3.04682">
        <ele>495.2</ele>
        <time>2026-05-20T10:16:27Z</time>
      </trkpt>
      <trkpt lat="43.60428" lon="3.04686">
        <ele>494.9</ele>
        <time>2026-05-20T10:16:32Z</time>
      </trkpt>
      <trkpt lat="43.60432" lon="3.04691">
        <ele>494.5</ele>
        <time>2026-05-20T10:16:37Z</time>
      </trkpt>
      <trkpt lat="43.60437" lon="3.04695">
        <ele>494.4</ele>
        <time>2026-05-20T10:16:42Z</time>
      </trkpt>
      <trkpt lat="43.60442" lon="3.04702">
        <ele>493.7</ele>
        <time>2026-05-20T10:16:47Z</time>
      </trkpt>
      <trkpt lat="43.60443" lon="3.04705">
        <ele>493.2</ele>
        <time>2026-05-20T10:16:52Z</time>
      </trkpt>
      <trkpt lat="43.60444" lon="3.04707">
        <ele>492.9</ele>
        <time>2026-05-20T10:16:57Z</time>
      </trkpt>
      <trkpt lat="43.60445" lon="3.04707">
        <ele>493</ele>
        <time>2026-05-20T10:17:02Z</time>
      </trkpt>
      <trkpt lat="43.60445" lon="3.04707">
        <ele>493</ele>
        <time>2026-05-20T10:17:07Z</time>
      </trkpt>
      <trkpt lat="43.60445" lon="3.04707">
        <ele>493</ele>
        <time>2026-05-20T10:17:12Z</time>
      </trkpt>
      <trkpt lat="43.60445" lon="3.04707">
        <ele>493</ele>
        <time>2026-05-20T10:17:17Z</time>
      </trkpt>
      <trkpt lat="43.60445" lon="3.04707">
        <ele>493</ele>
        <time>2026-05-20T10:17:22Z</time>
      </trkpt>
      <trkpt lat="43.6045" lon="3.04711">
        <ele>492.9</ele>
        <time>2026-05-20T10:17:27Z</time>
      </trkpt>
      <trkpt lat="43.60454" lon="3.0471">
        <ele>493.7</ele>
        <time>2026-05-20T10:17:32Z</time>
      </trkpt>
      <trkpt lat="43.60452" lon="3.04704">
        <ele>494.8</ele>
        <time>2026-05-20T10:17:37Z</time>
      </trkpt>
      <trkpt lat="43.6045" lon="3.04697">
        <ele>496</ele>
        <time>2026-05-20T10:17:42Z</time>
      </trkpt>
      <trkpt lat="43.6045" lon="3.0469">
        <ele>497.5</ele>
        <time>2026-05-20T10:17:47Z</time>
      </trkpt>
      <trkpt lat="43.60449" lon="3.04684">
        <ele>498.7</ele>
        <time>2026-05-20T10:17:52Z</time>
      </trkpt>
      <trkpt lat="43.60447" lon="3.04676">
        <ele>500.1</ele>
        <time>2026-05-20T10:17:57Z</time>
      </trkpt>
      <trkpt lat="43.60444" lon="3.04671">
        <ele>500.7</ele>
        <time>2026-05-20T10:18:02Z</time>
      </trkpt>
      <trkpt lat="43.60443" lon="3.04665">
        <ele>501.9</ele>
        <time>2026-05-20T10:18:07Z</time>
      </trkpt>
      <trkpt lat="43.60441" lon="3.04658">
        <ele>503.4</ele>
        <time>2026-05-20T10:18:12Z</time>
      </trkpt>
      <trkpt lat="43.60437" lon="3.04654">
        <ele>503.8</ele>
        <time>2026-05-20T10:18:17Z</time>
      </trkpt>
      <trkpt lat="43.60433" lon="3.0465">
        <ele>504.1</ele>
        <time>2026-05-20T10:18:22Z</time>
      </trkpt>
      <trkpt lat="43.60427" lon="3.04648">
        <ele>503.6</ele>
        <time>2026-05-20T10:18:27Z</time>
      </trkpt>
      <trkpt lat="43.60425" lon="3.0465">
        <ele>502.7</ele>
        <time>2026-05-20T10:18:32Z</time>
      </trkpt>
      <trkpt lat="43.60425" lon="3.04651">
        <ele>502.4</ele>
        <time>2026-05-20T10:18:37Z</time>
      </trkpt>
      <trkpt lat="43.60425" lon="3.04651">
        <ele>502.4</ele>
        <time>2026-05-20T10:18:42Z</time>
      </trkpt>
      <trkpt lat="43.60425" lon="3.04651">
        <ele>502.4</ele>
        <time>2026-05-20T10:18:47Z</time>
      </trkpt>
      <trkpt lat="43.60425" lon="3.04651">
        <ele>502.4</ele>
        <time>2026-05-20T10:18:52Z</time>
      </trkpt>
      <trkpt lat="43.60425" lon="3.04651">
        <ele>502.4</ele>
        <time>2026-05-20T10:18:57Z</time>
      </trkpt>
      <trkpt lat="43.60425" lon="3.04651">
        <ele>502.4</ele>
        <time>2026-05-20T10:19:02Z</time>
      </trkpt>
      <trkpt lat="43.60425" lon="3.04651">
        <ele>502.4</ele>
        <time>2026-05-20T10:19:07Z</time>
      </trkpt>
      <trkpt lat="43.60425" lon="3.04651">
        <ele>502.4</ele>
        <time>2026-05-20T10:19:12Z</time>
      </trkpt>
      <trkpt lat="43.60425" lon="3.04651">
        <ele>502.4</ele>
        <time>2026-05-20T10:19:17Z</time>
      </trkpt>
      <trkpt lat="43.60425" lon="3.04651">
        <ele>502.4</ele>
        <time>2026-05-20T10:19:22Z</time>
      </trkpt>
      <trkpt lat="43.60425" lon="3.04651">
        <ele>502.4</ele>
        <time>2026-05-20T10:19:27Z</time>
      </trkpt>
      <trkpt lat="43.60425" lon="3.04651">
        <ele>502.4</ele>
        <time>2026-05-20T10:19:32Z</time>
      </trkpt>
      <trkpt lat="43.60425" lon="3.04651">
        <ele>502.4</ele>
        <time>2026-05-20T10:19:37Z</time>
      </trkpt>
      <trkpt lat="43.60425" lon="3.04651">
        <ele>502.4</ele>
        <time>2026-05-20T10:19:42Z</time>
      </trkpt>
      <trkpt lat="43.60425" lon="3.04651">
        <ele>502.4</ele>
        <time>2026-05-20T10:19:47Z</time>
      </trkpt>
      <trkpt lat="43.60425" lon="3.04651">
        <ele>502.4</ele>
        <time>2026-05-20T10:19:52Z</time>
      </trkpt>
      <trkpt lat="43.60425" lon="3.04651">
        <ele>502.4</ele>
        <time>2026-05-20T10:19:57Z</time>
      </trkpt>
      <trkpt lat="43.60425" lon="3.04651">
        <ele>502.4</ele>
        <time>2026-05-20T10:20:02Z</time>
      </trkpt>
      <trkpt lat="43.60425" lon="3.04651">
        <ele>502.4</ele>
        <time>2026-05-20T10:20:07Z</time>
      </trkpt>
      <trkpt lat="43.60425" lon="3.04651">
        <ele>502.4</ele>
        <time>2026-05-20T10:20:12Z</time>
      </trkpt>
      <trkpt lat="43.60425" lon="3.04651">
        <ele>502.4</ele>
        <time>2026-05-20T10:20:17Z</time>
      </trkpt>
      <trkpt lat="43.60425" lon="3.04651">
        <ele>502.4</ele>
        <time>2026-05-20T10:20:22Z</time>
      </trkpt>
      <trkpt lat="43.60425" lon="3.04651">
        <ele>502.4</ele>
        <time>2026-05-20T10:20:27Z</time>
      </trkpt>
      <trkpt lat="43.60425" lon="3.04651">
        <ele>502.4</ele>
        <time>2026-05-20T10:20:32Z</time>
      </trkpt>
      <trkpt lat="43.60425" lon="3.04651">
        <ele>502.4</ele>
        <time>2026-05-20T10:20:37Z</time>
      </trkpt>
      <trkpt lat="43.60425" lon="3.04651">
        <ele>502.4</ele>
        <time>2026-05-20T10:20:42Z</time>
      </trkpt>
      <trkpt lat="43.60425" lon="3.04651">
        <ele>502.4</ele>
        <time>2026-05-20T10:20:47Z</time>
      </trkpt>
      <trkpt lat="43.60425" lon="3.04651">
        <ele>502.4</ele>
        <time>2026-05-20T10:20:52Z</time>
      </trkpt>
      <trkpt lat="43.60425" lon="3.04651">
        <ele>502.4</ele>
        <time>2026-05-20T10:20:57Z</time>
      </trkpt>
      <trkpt lat="43.60425" lon="3.04651">
        <ele>502.4</ele>
        <time>2026-05-20T10:21:02Z</time>
      </trkpt>
      <trkpt lat="43.60425" lon="3.04651">
        <ele>502.4</ele>
        <time>2026-05-20T10:21:07Z</time>
      </trkpt>
      <trkpt lat="43.60425" lon="3.04651">
        <ele>502.4</ele>
        <time>2026-05-20T10:21:12Z</time>
      </trkpt>
      <trkpt lat="43.60425" lon="3.04651">
        <ele>502.4</ele>
        <time>2026-05-20T10:21:17Z</time>
      </trkpt>
      <trkpt lat="43.60425" lon="3.04651">
        <ele>502.4</ele>
        <time>2026-05-20T10:21:22Z</time>
      </trkpt>
      <trkpt lat="43.60425" lon="3.04651">
        <ele>502.4</ele>
        <time>2026-05-20T10:21:27Z</time>
      </trkpt>
      <trkpt lat="43.60425" lon="3.04651">
        <ele>502.4</ele>
        <time>2026-05-20T10:21:32Z</time>
      </trkpt>
      <trkpt lat="43.60425" lon="3.04651">
        <ele>502.4</ele>
        <time>2026-05-20T10:21:37Z</time>
      </trkpt>
      <trkpt lat="43.60425" lon="3.04651">
        <ele>502.4</ele>
        <time>2026-05-20T10:21:42Z</time>
      </trkpt>
      <trkpt lat="43.60425" lon="3.04651">
        <ele>502.4</ele>
        <time>2026-05-20T10:21:47Z</time>
      </trkpt>
      <trkpt lat="43.60425" lon="3.04651">
        <ele>502.4</ele>
        <time>2026-05-20T10:21:52Z</time>
      </trkpt>
      <trkpt lat="43.60425" lon="3.04651">
        <ele>502.4</ele>
        <time>2026-05-20T10:21:57Z</time>
      </trkpt>
      <trkpt lat="43.60425" lon="3.04651">
        <ele>502.4</ele>
        <time>2026-05-20T10:22:02Z</time>
      </trkpt>
      <trkpt lat="43.60425" lon="3.04651">
        <ele>502.4</ele>
        <time>2026-05-20T10:22:07Z</time>
      </trkpt>
      <trkpt lat="43.60425" lon="3.04651">
        <ele>502.4</ele>
        <time>2026-05-20T10:22:12Z</time>
      </trkpt>
      <trkpt lat="43.60425" lon="3.04651">
        <ele>502.4</ele>
        <time>2026-05-20T10:22:17Z</time>
      </trkpt>
      <trkpt lat="43.60425" lon="3.04651">
        <ele>502.4</ele>
        <time>2026-05-20T10:22:22Z</time>
      </trkpt>
      <trkpt lat="43.60425" lon="3.04651">
        <ele>502.4</ele>
        <time>2026-05-20T10:22:27Z</time>
      </trkpt>
      <trkpt lat="43.60425" lon="3.04651">
        <ele>502.4</ele>
        <time>2026-05-20T10:22:32Z</time>
      </trkpt>
      <trkpt lat="43.60425" lon="3.04651">
        <ele>502.4</ele>
        <time>2026-05-20T10:22:37Z</time>
      </trkpt>
      <trkpt lat="43.60425" lon="3.04651">
        <ele>502.4</ele>
        <time>2026-05-20T10:22:42Z</time>
      </trkpt>
      <trkpt lat="43.60425" lon="3.04651">
        <ele>502.4</ele>
        <time>2026-05-20T10:22:47Z</time>
      </trkpt>
      <trkpt lat="43.60425" lon="3.04651">
        <ele>502.4</ele>
        <time>2026-05-20T10:22:52Z</time>
      </trkpt>
      <trkpt lat="43.60425" lon="3.04651">
        <ele>502.4</ele>
        <time>2026-05-20T10:22:57Z</time>
      </trkpt>
      <trkpt lat="43.60425" lon="3.04651">
        <ele>502.4</ele>
        <time>2026-05-20T10:23:02Z</time>
      </trkpt>
      <trkpt lat="43.6042" lon="3.04636">
        <ele>505.4</ele>
        <time>2026-05-20T10:23:07Z</time>
      </trkpt>
      <trkpt lat="43.60416" lon="3.0463">
        <ele>506.2</ele>
        <time>2026-05-20T10:23:12Z</time>
      </trkpt>
      <trkpt lat="43.60413" lon="3.04625">
        <ele>507</ele>
        <time>2026-05-20T10:23:17Z</time>
      </trkpt>
      <trkpt lat="43.60409" lon="3.0462">
        <ele>507.7</ele>
        <time>2026-05-20T10:23:22Z</time>
      </trkpt>
      <trkpt lat="43.60404" lon="3.04616">
        <ele>507.9</ele>
        <time>2026-05-20T10:23:27Z</time>
      </trkpt>
      <trkpt lat="43.60401" lon="3.04614">
        <ele>507.9</ele>
        <time>2026-05-20T10:23:32Z</time>
      </trkpt>
      <trkpt lat="43.60399" lon="3.04616">
        <ele>507.2</ele>
        <time>2026-05-20T10:23:37Z</time>
      </trkpt>
      <trkpt lat="43.60399" lon="3.04616">
        <ele>507.2</ele>
        <time>2026-05-20T10:23:42Z</time>
      </trkpt>
      <trkpt lat="43.60399" lon="3.04616">
        <ele>507.2</ele>
        <time>2026-05-20T10:23:47Z</time>
      </trkpt>
      <trkpt lat="43.60391" lon="3.04611">
        <ele>507.1</ele>
        <time>2026-05-20T10:23:52Z</time>
      </trkpt>
      <trkpt lat="43.60389" lon="3.04605">
        <ele>508.2</ele>
        <time>2026-05-20T10:23:57Z</time>
      </trkpt>
      <trkpt lat="43.60385" lon="3.04599">
        <ele>508.9</ele>
        <time>2026-05-20T10:24:02Z</time>
      </trkpt>
      <trkpt lat="43.60381" lon="3.04595">
        <ele>509.1</ele>
        <time>2026-05-20T10:24:07Z</time>
      </trkpt>
      <trkpt lat="43.60376" lon="3.04592">
        <ele>508.9</ele>
        <time>2026-05-20T10:24:12Z</time>
      </trkpt>
      <trkpt lat="43.6037" lon="3.0459">
        <ele>508.2</ele>
        <time>2026-05-20T10:24:17Z</time>
      </trkpt>
      <trkpt lat="43.60364" lon="3.04588">
        <ele>507.6</ele>
        <time>2026-05-20T10:24:22Z</time>
      </trkpt>
      <trkpt lat="43.60358" lon="3.04585">
        <ele>507.1</ele>
        <time>2026-05-20T10:24:27Z</time>
      </trkpt>
      <trkpt lat="43.6035" lon="3.04582">
        <ele>506.2</ele>
        <time>2026-05-20T10:24:32Z</time>
      </trkpt>
      <trkpt lat="43.60344" lon="3.04579">
        <ele>505.7</ele>
        <time>2026-05-20T10:24:37Z</time>
      </trkpt>
      <trkpt lat="43.60338" lon="3.04576">
        <ele>505.1</ele>
        <time>2026-05-20T10:24:42Z</time>
      </trkpt>
      <trkpt lat="43.60333" lon="3.04574">
        <ele>504.5</ele>
        <time>2026-05-20T10:24:47Z</time>
      </trkpt>
      <trkpt lat="43.60328" lon="3.0457">
        <ele>503.9</ele>
        <time>2026-05-20T10:24:52Z</time>
      </trkpt>
      <trkpt lat="43.60322" lon="3.04567">
        <ele>503</ele>
        <time>2026-05-20T10:24:57Z</time>
      </trkpt>
      <trkpt lat="43.60316" lon="3.04563">
        <ele>502.3</ele>
        <time>2026-05-20T10:25:02Z</time>
      </trkpt>
      <trkpt lat="43.60309" lon="3.04559">
        <ele>501.4</ele>
        <time>2026-05-20T10:25:07Z</time>
      </trkpt>
      <trkpt lat="43.60306" lon="3.04555">
        <ele>501.4</ele>
        <time>2026-05-20T10:25:12Z</time>
      </trkpt>
      <trkpt lat="43.60304" lon="3.04549">
        <ele>502.1</ele>
        <time>2026-05-20T10:25:17Z</time>
      </trkpt>
      <trkpt lat="43.60304" lon="3.04551">
        <ele>501.7</ele>
        <time>2026-05-20T10:25:22Z</time>
      </trkpt>
      <trkpt lat="43.60303" lon="3.04553">
        <ele>501.1</ele>
        <time>2026-05-20T10:25:27Z</time>
      </trkpt>
      <trkpt lat="43.60304" lon="3.04554">
        <ele>501.2</ele>
        <time>2026-05-20T10:25:32Z</time>
      </trkpt>
      <trkpt lat="43.60305" lon="3.04557">
        <ele>500.8</ele>
        <time>2026-05-20T10:25:37Z</time>
      </trkpt>
      <trkpt lat="43.60308" lon="3.04561">
        <ele>500.8</ele>
        <time>2026-05-20T10:25:42Z</time>
      </trkpt>
      <trkpt lat="43.60313" lon="3.04565">
        <ele>501.2</ele>
        <time>2026-05-20T10:25:47Z</time>
      </trkpt>
      <trkpt lat="43.60317" lon="3.04568">
        <ele>501.6</ele>
        <time>2026-05-20T10:25:52Z</time>
      </trkpt>
      <trkpt lat="43.60321" lon="3.04569">
        <ele>502.4</ele>
        <time>2026-05-20T10:25:57Z</time>
      </trkpt>
      <trkpt lat="43.60324" lon="3.0457">
        <ele>503</ele>
        <time>2026-05-20T10:26:02Z</time>
      </trkpt>
      <trkpt lat="43.60327" lon="3.04566">
        <ele>504.4</ele>
        <time>2026-05-20T10:26:07Z</time>
      </trkpt>
      <trkpt lat="43.60327" lon="3.04566">
        <ele>504.4</ele>
        <time>2026-05-20T10:26:12Z</time>
      </trkpt>
      <trkpt lat="43.60327" lon="3.04566">
        <ele>504.4</ele>
        <time>2026-05-20T10:26:17Z</time>
      </trkpt>
      <trkpt lat="43.60327" lon="3.04566">
        <ele>504.4</ele>
        <time>2026-05-20T10:26:22Z</time>
      </trkpt>
      <trkpt lat="43.60327" lon="3.04566">
        <ele>504.4</ele>
        <time>2026-05-20T10:26:27Z</time>
      </trkpt>
      <trkpt lat="43.6033" lon="3.04562">
        <ele>505.8</ele>
        <time>2026-05-20T10:26:32Z</time>
      </trkpt>
      <trkpt lat="43.60333" lon="3.0456">
        <ele>506.8</ele>
        <time>2026-05-20T10:26:37Z</time>
      </trkpt>
      <trkpt lat="43.60337" lon="3.04561">
        <ele>507.5</ele>
        <time>2026-05-20T10:26:42Z</time>
      </trkpt>
      <trkpt lat="43.6034" lon="3.04562">
        <ele>507.9</ele>
        <time>2026-05-20T10:26:47Z</time>
      </trkpt>
      <trkpt lat="43.60342" lon="3.04562">
        <ele>508.3</ele>
        <time>2026-05-20T10:26:52Z</time>
      </trkpt>
      <trkpt lat="43.60342" lon="3.04561">
        <ele>508.5</ele>
        <time>2026-05-20T10:26:57Z</time>
      </trkpt>
      <trkpt lat="43.60342" lon="3.04561">
        <ele>508.5</ele>
        <time>2026-05-20T10:27:02Z</time>
      </trkpt>
      <trkpt lat="43.60342" lon="3.04561">
        <ele>508.5</ele>
        <time>2026-05-20T10:27:07Z</time>
      </trkpt>
      <trkpt lat="43.60342" lon="3.04561">
        <ele>508.5</ele>
        <time>2026-05-20T10:27:12Z</time>
      </trkpt>
      <trkpt lat="43.60342" lon="3.04561">
        <ele>508.5</ele>
        <time>2026-05-20T10:27:17Z</time>
      </trkpt>
      <trkpt lat="43.6035" lon="3.04552">
        <ele>511.8</ele>
        <time>2026-05-20T10:27:22Z</time>
      </trkpt>
      <trkpt lat="43.60351" lon="3.04551">
        <ele>512.2</ele>
        <time>2026-05-20T10:27:27Z</time>
      </trkpt>
      <trkpt lat="43.60357" lon="3.04552">
        <ele>513.3</ele>
        <time>2026-05-20T10:27:32Z</time>
      </trkpt>
      <trkpt lat="43.60358" lon="3.04553">
        <ele>513.3</ele>
        <time>2026-05-20T10:27:37Z</time>
      </trkpt>
      <trkpt lat="43.60358" lon="3.04553">
        <ele>513.3</ele>
        <time>2026-05-20T10:27:42Z</time>
      </trkpt>
      <trkpt lat="43.60358" lon="3.04553">
        <ele>513.3</ele>
        <time>2026-05-20T10:27:47Z</time>
      </trkpt>
      <trkpt lat="43.60358" lon="3.04553">
        <ele>513.3</ele>
        <time>2026-05-20T10:27:52Z</time>
      </trkpt>
      <trkpt lat="43.60365" lon="3.04544">
        <ele>516.6</ele>
        <time>2026-05-20T10:27:57Z</time>
      </trkpt>
      <trkpt lat="43.60366" lon="3.04544">
        <ele>516.8</ele>
        <time>2026-05-20T10:28:02Z</time>
      </trkpt>
      <trkpt lat="43.60366" lon="3.04544">
        <ele>516.8</ele>
        <time>2026-05-20T10:28:07Z</time>
      </trkpt>
      <trkpt lat="43.60366" lon="3.04544">
        <ele>516.8</ele>
        <time>2026-05-20T10:28:12Z</time>
      </trkpt>
      <trkpt lat="43.60366" lon="3.04544">
        <ele>516.8</ele>
        <time>2026-05-20T10:28:17Z</time>
      </trkpt>
      <trkpt lat="43.60375" lon="3.04542">
        <ele>519.2</ele>
        <time>2026-05-20T10:28:22Z</time>
      </trkpt>
      <trkpt lat="43.60377" lon="3.04541">
        <ele>519.8</ele>
        <time>2026-05-20T10:28:27Z</time>
      </trkpt>
      <trkpt lat="43.60377" lon="3.04541">
        <ele>519.8</ele>
        <time>2026-05-20T10:28:32Z</time>
      </trkpt>
      <trkpt lat="43.60377" lon="3.04541">
        <ele>519.8</ele>
        <time>2026-05-20T10:28:37Z</time>
      </trkpt>
      <trkpt lat="43.60377" lon="3.04541">
        <ele>519.8</ele>
        <time>2026-05-20T10:28:42Z</time>
      </trkpt>
      <trkpt lat="43.60385" lon="3.04541">
        <ele>521.6</ele>
        <time>2026-05-20T10:28:47Z</time>
      </trkpt>
      <trkpt lat="43.60385" lon="3.04541">
        <ele>521.6</ele>
        <time>2026-05-20T10:28:52Z</time>
      </trkpt>
      <trkpt lat="43.60385" lon="3.04541">
        <ele>521.6</ele>
        <time>2026-05-20T10:28:57Z</time>
      </trkpt>
      <trkpt lat="43.60393" lon="3.04542">
        <ele>523.2</ele>
        <time>2026-05-20T10:29:02Z</time>
      </trkpt>
      <trkpt lat="43.60395" lon="3.04543">
        <ele>523.4</ele>
        <time>2026-05-20T10:29:07Z</time>
      </trkpt>
      <trkpt lat="43.60395" lon="3.04543">
        <ele>523.4</ele>
        <time>2026-05-20T10:29:12Z</time>
      </trkpt>
      <trkpt lat="43.60395" lon="3.04543">
        <ele>523.4</ele>
        <time>2026-05-20T10:29:17Z</time>
      </trkpt>
      <trkpt lat="43.60395" lon="3.04543">
        <ele>523.4</ele>
        <time>2026-05-20T10:29:22Z</time>
      </trkpt>
      <trkpt lat="43.60395" lon="3.04543">
        <ele>523.4</ele>
        <time>2026-05-20T10:29:27Z</time>
      </trkpt>
      <trkpt lat="43.60406" lon="3.0454">
        <ele>526.5</ele>
        <time>2026-05-20T10:29:32Z</time>
      </trkpt>
      <trkpt lat="43.60407" lon="3.0454">
        <ele>526.8</ele>
        <time>2026-05-20T10:29:37Z</time>
      </trkpt>
      <trkpt lat="43.60407" lon="3.0454">
        <ele>526.8</ele>
        <time>2026-05-20T10:29:42Z</time>
      </trkpt>
      <trkpt lat="43.60407" lon="3.0454">
        <ele>526.8</ele>
        <time>2026-05-20T10:29:47Z</time>
      </trkpt>
      <trkpt lat="43.60417" lon="3.04544">
        <ele>528</ele>
        <time>2026-05-20T10:29:52Z</time>
      </trkpt>
      <trkpt lat="43.60417" lon="3.04544">
        <ele>528</ele>
        <time>2026-05-20T10:29:57Z</time>
      </trkpt>
      <trkpt lat="43.60422" lon="3.04544">
        <ele>529.3</ele>
        <time>2026-05-20T10:30:02Z</time>
      </trkpt>
      <trkpt lat="43.60426" lon="3.04546">
        <ele>529.9</ele>
        <time>2026-05-20T10:30:07Z</time>
      </trkpt>
      <trkpt lat="43.60428" lon="3.0455">
        <ele>529.4</ele>
        <time>2026-05-20T10:30:12Z</time>
      </trkpt>
      <trkpt lat="43.60431" lon="3.0455">
        <ele>530.1</ele>
        <time>2026-05-20T10:30:17Z</time>
      </trkpt>
      <trkpt lat="43.60434" lon="3.04552">
        <ele>530.4</ele>
        <time>2026-05-20T10:30:22Z</time>
      </trkpt>
      <trkpt lat="43.60437" lon="3.04554">
        <ele>530.6</ele>
        <time>2026-05-20T10:30:27Z</time>
      </trkpt>
      <trkpt lat="43.6044" lon="3.04556">
        <ele>530.9</ele>
        <time>2026-05-20T10:30:32Z</time>
      </trkpt>
      <trkpt lat="43.6044" lon="3.04557">
        <ele>530.6</ele>
        <time>2026-05-20T10:30:37Z</time>
      </trkpt>
      <trkpt lat="43.6044" lon="3.04557">
        <ele>530.6</ele>
        <time>2026-05-20T10:30:42Z</time>
      </trkpt>
      <trkpt lat="43.6044" lon="3.04557">
        <ele>530.6</ele>
        <time>2026-05-20T10:30:47Z</time>
      </trkpt>
      <trkpt lat="43.60446" lon="3.04562">
        <ele>530.7</ele>
        <time>2026-05-20T10:30:52Z</time>
      </trkpt>
      <trkpt lat="43.60446" lon="3.04562">
        <ele>530.7</ele>
        <time>2026-05-20T10:30:57Z</time>
      </trkpt>
      <trkpt lat="43.60452" lon="3.04565">
        <ele>531.3</ele>
        <time>2026-05-20T10:31:02Z</time>
      </trkpt>
      <trkpt lat="43.60455" lon="3.04564">
        <ele>532.4</ele>
        <time>2026-05-20T10:31:07Z</time>
      </trkpt>
      <trkpt lat="43.60458" lon="3.04565">
        <ele>532.8</ele>
        <time>2026-05-20T10:31:12Z</time>
      </trkpt>
      <trkpt lat="43.60461" lon="3.04566">
        <ele>533.3</ele>
        <time>2026-05-20T10:31:17Z</time>
      </trkpt>
      <trkpt lat="43.60465" lon="3.04569">
        <ele>533.3</ele>
        <time>2026-05-20T10:31:22Z</time>
      </trkpt>
      <trkpt lat="43.60467" lon="3.04571">
        <ele>533.2</ele>
        <time>2026-05-20T10:31:27Z</time>
      </trkpt>
      <trkpt lat="43.60469" lon="3.04574">
        <ele>532.8</ele>
        <time>2026-05-20T10:31:32Z</time>
      </trkpt>
      <trkpt lat="43.60472" lon="3.04576">
        <ele>532.9</ele>
        <time>2026-05-20T10:31:37Z</time>
      </trkpt>
      <trkpt lat="43.60474" lon="3.04578">
        <ele>532.7</ele>
        <time>2026-05-20T10:31:42Z</time>
      </trkpt>
      <trkpt lat="43.60476" lon="3.04579">
        <ele>532.9</ele>
        <time>2026-05-20T10:31:47Z</time>
      </trkpt>
      <trkpt lat="43.60479" lon="3.04583">
        <ele>532.3</ele>
        <time>2026-05-20T10:31:52Z</time>
      </trkpt>
      <trkpt lat="43.60482" lon="3.04585">
        <ele>532.4</ele>
        <time>2026-05-20T10:31:57Z</time>
      </trkpt>
      <trkpt lat="43.60486" lon="3.04586">
        <ele>533</ele>
        <time>2026-05-20T10:32:02Z</time>
      </trkpt>
      <trkpt lat="43.60489" lon="3.04588">
        <ele>533.1</ele>
        <time>2026-05-20T10:32:07Z</time>
      </trkpt>
      <trkpt lat="43.60492" lon="3.0459">
        <ele>533.1</ele>
        <time>2026-05-20T10:32:12Z</time>
      </trkpt>
      <trkpt lat="43.60496" lon="3.04592">
        <ele>533.4</ele>
        <time>2026-05-20T10:32:17Z</time>
      </trkpt>
      <trkpt lat="43.60499" lon="3.04593">
        <ele>533.8</ele>
        <time>2026-05-20T10:32:22Z</time>
      </trkpt>
      <trkpt lat="43.60501" lon="3.04595">
        <ele>533.7</ele>
        <time>2026-05-20T10:32:27Z</time>
      </trkpt>
      <trkpt lat="43.60501" lon="3.04597">
        <ele>533.1</ele>
        <time>2026-05-20T10:32:32Z</time>
      </trkpt>
      <trkpt lat="43.60501" lon="3.04597">
        <ele>533.1</ele>
        <time>2026-05-20T10:32:37Z</time>
      </trkpt>
      <trkpt lat="43.60501" lon="3.04597">
        <ele>533.1</ele>
        <time>2026-05-20T10:32:42Z</time>
      </trkpt>
      <trkpt lat="43.60501" lon="3.04597">
        <ele>533.1</ele>
        <time>2026-05-20T10:32:47Z</time>
      </trkpt>
      <trkpt lat="43.60506" lon="3.046">
        <ele>533.9</ele>
        <time>2026-05-20T10:32:52Z</time>
      </trkpt>
      <trkpt lat="43.60508" lon="3.04601">
        <ele>534.3</ele>
        <time>2026-05-20T10:32:57Z</time>
      </trkpt>
      <trkpt lat="43.6051" lon="3.04604">
        <ele>534</ele>
        <time>2026-05-20T10:33:02Z</time>
      </trkpt>
      <trkpt lat="43.60512" lon="3.04607">
        <ele>533.8</ele>
        <time>2026-05-20T10:33:07Z</time>
      </trkpt>
      <trkpt lat="43.60515" lon="3.04609">
        <ele>534.2</ele>
        <time>2026-05-20T10:33:12Z</time>
      </trkpt>
      <trkpt lat="43.60518" lon="3.0461">
        <ele>534.9</ele>
        <time>2026-05-20T10:33:17Z</time>
      </trkpt>
      <trkpt lat="43.6052" lon="3.04612">
        <ele>535</ele>
        <time>2026-05-20T10:33:22Z</time>
      </trkpt>
      <trkpt lat="43.6052" lon="3.04612">
        <ele>535</ele>
        <time>2026-05-20T10:33:27Z</time>
      </trkpt>
      <trkpt lat="43.6052" lon="3.04612">
        <ele>535</ele>
        <time>2026-05-20T10:33:32Z</time>
      </trkpt>
      <trkpt lat="43.6052" lon="3.04612">
        <ele>535</ele>
        <time>2026-05-20T10:33:37Z</time>
      </trkpt>
      <trkpt lat="43.60523" lon="3.04615">
        <ele>535.1</ele>
        <time>2026-05-20T10:33:42Z</time>
      </trkpt>
      <trkpt lat="43.60527" lon="3.04613">
        <ele>537.1</ele>
        <time>2026-05-20T10:33:47Z</time>
      </trkpt>
      <trkpt lat="43.60528" lon="3.04611">
        <ele>538.1</ele>
        <time>2026-05-20T10:33:52Z</time>
      </trkpt>
      <trkpt lat="43.60526" lon="3.04607">
        <ele>538.7</ele>
        <time>2026-05-20T10:33:57Z</time>
      </trkpt>
      <trkpt lat="43.60525" lon="3.04601">
        <ele>540.2</ele>
        <time>2026-05-20T10:34:02Z</time>
      </trkpt>
      <trkpt lat="43.60523" lon="3.04597">
        <ele>540.7</ele>
        <time>2026-05-20T10:34:07Z</time>
      </trkpt>
      <trkpt lat="43.60522" lon="3.04594">
        <ele>541.3</ele>
        <time>2026-05-20T10:34:12Z</time>
      </trkpt>
      <trkpt lat="43.6052" lon="3.0459">
        <ele>541.9</ele>
        <time>2026-05-20T10:34:17Z</time>
      </trkpt>
      <trkpt lat="43.60521" lon="3.04588">
        <ele>542.9</ele>
        <time>2026-05-20T10:34:22Z</time>
      </trkpt>
      <trkpt lat="43.60521" lon="3.04588">
        <ele>542.9</ele>
        <time>2026-05-20T10:34:27Z</time>
      </trkpt>
      <trkpt lat="43.60521" lon="3.04588">
        <ele>542.9</ele>
        <time>2026-05-20T10:34:32Z</time>
      </trkpt>
      <trkpt lat="43.60521" lon="3.04588">
        <ele>542.9</ele>
        <time>2026-05-20T10:34:37Z</time>
      </trkpt>
      <trkpt lat="43.60521" lon="3.04588">
        <ele>542.9</ele>
        <time>2026-05-20T10:34:42Z</time>
      </trkpt>
      <trkpt lat="43.60521" lon="3.04588">
        <ele>542.9</ele>
        <time>2026-05-20T10:34:47Z</time>
      </trkpt>
      <trkpt lat="43.60525" lon="3.04573">
        <ele>549.1</ele>
        <time>2026-05-20T10:34:52Z</time>
      </trkpt>
      <trkpt lat="43.60525" lon="3.04572">
        <ele>549.4</ele>
        <time>2026-05-20T10:34:57Z</time>
      </trkpt>
      <trkpt lat="43.60525" lon="3.04572">
        <ele>549.4</ele>
        <time>2026-05-20T10:35:02Z</time>
      </trkpt>
      <trkpt lat="43.60525" lon="3.04572">
        <ele>549.4</ele>
        <time>2026-05-20T10:35:07Z</time>
      </trkpt>
      <trkpt lat="43.60525" lon="3.04572">
        <ele>549.4</ele>
        <time>2026-05-20T10:35:12Z</time>
      </trkpt>
      <trkpt lat="43.60525" lon="3.04572">
        <ele>549.4</ele>
        <time>2026-05-20T10:35:17Z</time>
      </trkpt>
      <trkpt lat="43.60525" lon="3.04572">
        <ele>549.4</ele>
        <time>2026-05-20T10:35:22Z</time>
      </trkpt>
      <trkpt lat="43.60525" lon="3.04572">
        <ele>549.4</ele>
        <time>2026-05-20T10:35:27Z</time>
      </trkpt>
      <trkpt lat="43.6053" lon="3.04574">
        <ele>550.5</ele>
        <time>2026-05-20T10:35:32Z</time>
      </trkpt>
      <trkpt lat="43.60533" lon="3.04577">
        <ele>550.6</ele>
        <time>2026-05-20T10:35:37Z</time>
      </trkpt>
      <trkpt lat="43.60536" lon="3.04579">
        <ele>550.9</ele>
        <time>2026-05-20T10:35:42Z</time>
      </trkpt>
      <trkpt lat="43.60538" lon="3.04581">
        <ele>551</ele>
        <time>2026-05-20T10:35:47Z</time>
      </trkpt>
      <trkpt lat="43.6054" lon="3.04581">
        <ele>551.7</ele>
        <time>2026-05-20T10:35:52Z</time>
      </trkpt>
      <trkpt lat="43.6054" lon="3.04582">
        <ele>551.4</ele>
        <time>2026-05-20T10:35:57Z</time>
      </trkpt>
      <trkpt lat="43.6054" lon="3.04582">
        <ele>551.4</ele>
        <time>2026-05-20T10:36:02Z</time>
      </trkpt>
      <trkpt lat="43.6054" lon="3.04582">
        <ele>551.4</ele>
        <time>2026-05-20T10:36:07Z</time>
      </trkpt>
      <trkpt lat="43.6055" lon="3.04581">
        <ele>555.2</ele>
        <time>2026-05-20T10:36:12Z</time>
      </trkpt>
      <trkpt lat="43.60553" lon="3.0458">
        <ele>556.5</ele>
        <time>2026-05-20T10:36:17Z</time>
      </trkpt>
      <trkpt lat="43.60553" lon="3.0458">
        <ele>556.5</ele>
        <time>2026-05-20T10:36:22Z</time>
      </trkpt>
      <trkpt lat="43.60557" lon="3.04582">
        <ele>557.3</ele>
        <time>2026-05-20T10:36:27Z</time>
      </trkpt>
      <trkpt lat="43.60559" lon="3.04577">
        <ele>559.6</ele>
        <time>2026-05-20T10:36:32Z</time>
      </trkpt>
      <trkpt lat="43.6056" lon="3.04574">
        <ele>560.9</ele>
        <time>2026-05-20T10:36:37Z</time>
      </trkpt>
      <trkpt lat="43.60561" lon="3.04571">
        <ele>562.2</ele>
        <time>2026-05-20T10:36:42Z</time>
      </trkpt>
      <trkpt lat="43.60562" lon="3.0457">
        <ele>562.8</ele>
        <time>2026-05-20T10:36:47Z</time>
      </trkpt>
      <trkpt lat="43.60562" lon="3.0457">
        <ele>562.8</ele>
        <time>2026-05-20T10:36:52Z</time>
      </trkpt>
      <trkpt lat="43.60562" lon="3.0457">
        <ele>562.8</ele>
        <time>2026-05-20T10:36:57Z</time>
      </trkpt>
      <trkpt lat="43.60562" lon="3.0457">
        <ele>562.8</ele>
        <time>2026-05-20T10:37:02Z</time>
      </trkpt>
      <trkpt lat="43.6057" lon="3.04562">
        <ele>568.1</ele>
        <time>2026-05-20T10:37:07Z</time>
      </trkpt>
      <trkpt lat="43.6057" lon="3.04562">
        <ele>568.1</ele>
        <time>2026-05-20T10:37:12Z</time>
      </trkpt>
      <trkpt lat="43.6057" lon="3.04562">
        <ele>568.1</ele>
        <time>2026-05-20T10:37:17Z</time>
      </trkpt>
      <trkpt lat="43.60578" lon="3.04556">
        <ele>572.7</ele>
        <time>2026-05-20T10:37:22Z</time>
      </trkpt>
      <trkpt lat="43.6058" lon="3.04555">
        <ele>573.7</ele>
        <time>2026-05-20T10:37:27Z</time>
      </trkpt>
      <trkpt lat="43.6058" lon="3.04555">
        <ele>573.7</ele>
        <time>2026-05-20T10:37:32Z</time>
      </trkpt>
      <trkpt lat="43.6058" lon="3.04555">
        <ele>573.7</ele>
        <time>2026-05-20T10:37:37Z</time>
      </trkpt>
      <trkpt lat="43.6058" lon="3.04555">
        <ele>573.7</ele>
        <time>2026-05-20T10:37:42Z</time>
      </trkpt>
      <trkpt lat="43.60589" lon="3.04554">
        <ele>576.7</ele>
        <time>2026-05-20T10:37:47Z</time>
      </trkpt>
      <trkpt lat="43.60591" lon="3.04554">
        <ele>577.3</ele>
        <time>2026-05-20T10:37:52Z</time>
      </trkpt>
      <trkpt lat="43.60595" lon="3.04555">
        <ele>578.1</ele>
        <time>2026-05-20T10:37:57Z</time>
      </trkpt>
      <trkpt lat="43.60597" lon="3.04554">
        <ele>578.9</ele>
        <time>2026-05-20T10:38:02Z</time>
      </trkpt>
      <trkpt lat="43.60598" lon="3.04553">
        <ele>579.5</ele>
        <time>2026-05-20T10:38:07Z</time>
      </trkpt>
      <trkpt lat="43.60599" lon="3.04552">
        <ele>580.1</ele>
        <time>2026-05-20T10:38:12Z</time>
      </trkpt>
      <trkpt lat="43.60604" lon="3.04548">
        <ele>582.6</ele>
        <time>2026-05-20T10:38:17Z</time>
      </trkpt>
      <trkpt lat="43.60606" lon="3.04546">
        <ele>583.7</ele>
        <time>2026-05-20T10:38:22Z</time>
      </trkpt>
      <trkpt lat="43.60609" lon="3.04547">
        <ele>584.2</ele>
        <time>2026-05-20T10:38:27Z</time>
      </trkpt>
      <trkpt lat="43.6061" lon="3.04547">
        <ele>584.5</ele>
        <time>2026-05-20T10:38:32Z</time>
      </trkpt>
      <trkpt lat="43.6061" lon="3.04547">
        <ele>584.5</ele>
        <time>2026-05-20T10:38:37Z</time>
      </trkpt>
      <trkpt lat="43.6061" lon="3.04547">
        <ele>584.5</ele>
        <time>2026-05-20T10:38:42Z</time>
      </trkpt>
      <trkpt lat="43.60616" lon="3.04544">
        <ele>587</ele>
        <time>2026-05-20T10:38:47Z</time>
      </trkpt>
      <trkpt lat="43.60616" lon="3.04544">
        <ele>587</ele>
        <time>2026-05-20T10:38:52Z</time>
      </trkpt>
      <trkpt lat="43.60616" lon="3.04544">
        <ele>587</ele>
        <time>2026-05-20T10:38:57Z</time>
      </trkpt>
      <trkpt lat="43.60616" lon="3.04544">
        <ele>587</ele>
        <time>2026-05-20T10:39:02Z</time>
      </trkpt>
      <trkpt lat="43.60616" lon="3.04544">
        <ele>587</ele>
        <time>2026-05-20T10:39:07Z</time>
      </trkpt>
      <trkpt lat="43.60625" lon="3.04542">
        <ele>589.9</ele>
        <time>2026-05-20T10:39:12Z</time>
      </trkpt>
      <trkpt lat="43.60625" lon="3.04542">
        <ele>589.9</ele>
        <time>2026-05-20T10:39:17Z</time>
      </trkpt>
      <trkpt lat="43.60625" lon="3.04542">
        <ele>589.9</ele>
        <time>2026-05-20T10:39:22Z</time>
      </trkpt>
      <trkpt lat="43.60625" lon="3.04542">
        <ele>589.9</ele>
        <time>2026-05-20T10:39:27Z</time>
      </trkpt>
      <trkpt lat="43.60625" lon="3.04542">
        <ele>589.9</ele>
        <time>2026-05-20T10:39:32Z</time>
      </trkpt>
      <trkpt lat="43.60625" lon="3.04542">
        <ele>589.9</ele>
        <time>2026-05-20T10:39:37Z</time>
      </trkpt>
      <trkpt lat="43.60625" lon="3.04542">
        <ele>589.9</ele>
        <time>2026-05-20T10:39:42Z</time>
      </trkpt>
      <trkpt lat="43.60625" lon="3.04542">
        <ele>589.9</ele>
        <time>2026-05-20T10:39:47Z</time>
      </trkpt>
      <trkpt lat="43.60635" lon="3.04538">
        <ele>593.6</ele>
        <time>2026-05-20T10:39:52Z</time>
      </trkpt>
      <trkpt lat="43.60635" lon="3.04538">
        <ele>593.6</ele>
        <time>2026-05-20T10:39:57Z</time>
      </trkpt>
      <trkpt lat="43.60635" lon="3.04538">
        <ele>593.6</ele>
        <time>2026-05-20T10:40:02Z</time>
      </trkpt>
      <trkpt lat="43.60642" lon="3.04532">
        <ele>597</ele>
        <time>2026-05-20T10:40:07Z</time>
      </trkpt>
      <trkpt lat="43.60645" lon="3.04529">
        <ele>598.6</ele>
        <time>2026-05-20T10:40:12Z</time>
      </trkpt>
      <trkpt lat="43.60648" lon="3.04527">
        <ele>599.8</ele>
        <time>2026-05-20T10:40:17Z</time>
      </trkpt>
      <trkpt lat="43.60651" lon="3.04524">
        <ele>601.3</ele>
        <time>2026-05-20T10:40:22Z</time>
      </trkpt>
      <trkpt lat="43.60652" lon="3.04522">
        <ele>602.1</ele>
        <time>2026-05-20T10:40:27Z</time>
      </trkpt>
      <trkpt lat="43.60654" lon="3.0452">
        <ele>603.1</ele>
        <time>2026-05-20T10:40:32Z</time>
      </trkpt>
      <trkpt lat="43.60659" lon="3.04519">
        <ele>604.6</ele>
        <time>2026-05-20T10:40:37Z</time>
      </trkpt>
      <trkpt lat="43.60661" lon="3.04517">
        <ele>605.5</ele>
        <time>2026-05-20T10:40:42Z</time>
      </trkpt>
      <trkpt lat="43.60664" lon="3.04514">
        <ele>607</ele>
        <time>2026-05-20T10:40:47Z</time>
      </trkpt>
      <trkpt lat="43.60667" lon="3.04512">
        <ele>608.2</ele>
        <time>2026-05-20T10:40:52Z</time>
      </trkpt>
      <trkpt lat="43.60671" lon="3.04511">
        <ele>609</ele>
        <time>2026-05-20T10:40:57Z</time>
      </trkpt>
      <trkpt lat="43.60675" lon="3.04508">
        <ele>610.3</ele>
        <time>2026-05-20T10:41:02Z</time>
      </trkpt>
      <trkpt lat="43.60677" lon="3.04506">
        <ele>611.1</ele>
        <time>2026-05-20T10:41:07Z</time>
      </trkpt>
      <trkpt lat="43.6068" lon="3.04506">
        <ele>611.5</ele>
        <time>2026-05-20T10:41:12Z</time>
      </trkpt>
      <trkpt lat="43.6068" lon="3.04506">
        <ele>611.5</ele>
        <time>2026-05-20T10:41:17Z</time>
      </trkpt>
      <trkpt lat="43.6068" lon="3.04506">
        <ele>611.5</ele>
        <time>2026-05-20T10:41:22Z</time>
      </trkpt>
      <trkpt lat="43.60684" lon="3.04493">
        <ele>614.2</ele>
        <time>2026-05-20T10:41:27Z</time>
      </trkpt>
      <trkpt lat="43.60682" lon="3.0449">
        <ele>614.3</ele>
        <time>2026-05-20T10:41:32Z</time>
      </trkpt>
      <trkpt lat="43.60676" lon="3.04486">
        <ele>613.9</ele>
        <time>2026-05-20T10:41:37Z</time>
      </trkpt>
      <trkpt lat="43.6067" lon="3.04482">
        <ele>613.6</ele>
        <time>2026-05-20T10:41:42Z</time>
      </trkpt>
      <trkpt lat="43.60666" lon="3.04477">
        <ele>613.6</ele>
        <time>2026-05-20T10:41:47Z</time>
      </trkpt>
      <trkpt lat="43.60665" lon="3.0447">
        <ele>614.3</ele>
        <time>2026-05-20T10:41:52Z</time>
      </trkpt>
      <trkpt lat="43.60662" lon="3.04464">
        <ele>614.5</ele>
        <time>2026-05-20T10:41:57Z</time>
      </trkpt>
      <trkpt lat="43.6066" lon="3.04457">
        <ele>615.1</ele>
        <time>2026-05-20T10:42:02Z</time>
      </trkpt>
      <trkpt lat="43.60657" lon="3.0445">
        <ele>615.6</ele>
        <time>2026-05-20T10:42:07Z</time>
      </trkpt>
      <trkpt lat="43.60654" lon="3.04442">
        <ele>616.3</ele>
        <time>2026-05-20T10:42:12Z</time>
      </trkpt>
      <trkpt lat="43.60652" lon="3.04434">
        <ele>617.2</ele>
        <time>2026-05-20T10:42:17Z</time>
      </trkpt>
      <trkpt lat="43.60647" lon="3.04424">
        <ele>618.2</ele>
        <time>2026-05-20T10:42:22Z</time>
      </trkpt>
      <trkpt lat="43.60643" lon="3.04417">
        <ele>619</ele>
        <time>2026-05-20T10:42:27Z</time>
      </trkpt>
      <trkpt lat="43.6064" lon="3.04408">
        <ele>619.8</ele>
        <time>2026-05-20T10:42:32Z</time>
      </trkpt>
      <trkpt lat="43.60638" lon="3.04401">
        <ele>620.5</ele>
        <time>2026-05-20T10:42:37Z</time>
      </trkpt>
      <trkpt lat="43.60635" lon="3.04394">
        <ele>621.2</ele>
        <time>2026-05-20T10:42:42Z</time>
      </trkpt>
      <trkpt lat="43.60631" lon="3.04388">
        <ele>621.7</ele>
        <time>2026-05-20T10:42:47Z</time>
      </trkpt>
      <trkpt lat="43.60629" lon="3.04382">
        <ele>622.3</ele>
        <time>2026-05-20T10:42:52Z</time>
      </trkpt>
      <trkpt lat="43.60628" lon="3.04373">
        <ele>623.4</ele>
        <time>2026-05-20T10:42:57Z</time>
      </trkpt>
      <trkpt lat="43.60626" lon="3.04365">
        <ele>624.4</ele>
        <time>2026-05-20T10:43:02Z</time>
      </trkpt>
      <trkpt lat="43.60624" lon="3.04355">
        <ele>625.6</ele>
        <time>2026-05-20T10:43:07Z</time>
      </trkpt>
      <trkpt lat="43.60624" lon="3.04347">
        <ele>626.7</ele>
        <time>2026-05-20T10:43:12Z</time>
      </trkpt>
      <trkpt lat="43.60623" lon="3.04341">
        <ele>627.4</ele>
        <time>2026-05-20T10:43:17Z</time>
      </trkpt>
      <trkpt lat="43.60622" lon="3.04333">
        <ele>628.4</ele>
        <time>2026-05-20T10:43:22Z</time>
      </trkpt>
      <trkpt lat="43.60623" lon="3.04324">
        <ele>628.1</ele>
        <time>2026-05-20T10:43:27Z</time>
      </trkpt>
      <trkpt lat="43.60625" lon="3.04318">
        <ele>627.9</ele>
        <time>2026-05-20T10:43:32Z</time>
      </trkpt>
      <trkpt lat="43.60628" lon="3.04314">
        <ele>627.9</ele>
        <time>2026-05-20T10:43:37Z</time>
      </trkpt>
      <trkpt lat="43.60636" lon="3.04314">
        <ele>628.3</ele>
        <time>2026-05-20T10:43:42Z</time>
      </trkpt>
      <trkpt lat="43.60643" lon="3.04317">
        <ele>628.6</ele>
        <time>2026-05-20T10:43:47Z</time>
      </trkpt>
      <trkpt lat="43.60647" lon="3.04322">
        <ele>629</ele>
        <time>2026-05-20T10:43:52Z</time>
      </trkpt>
      <trkpt lat="43.60651" lon="3.04326">
        <ele>629.2</ele>
        <time>2026-05-20T10:43:57Z</time>
      </trkpt>
      <trkpt lat="43.60657" lon="3.0433">
        <ele>629.6</ele>
        <time>2026-05-20T10:44:02Z</time>
      </trkpt>
      <trkpt lat="43.60663" lon="3.04333">
        <ele>629.9</ele>
        <time>2026-05-20T10:44:07Z</time>
      </trkpt>
      <trkpt lat="43.60667" lon="3.04338">
        <ele>629.5</ele>
        <time>2026-05-20T10:44:12Z</time>
      </trkpt>
      <trkpt lat="43.60672" lon="3.04343">
        <ele>629.1</ele>
        <time>2026-05-20T10:44:17Z</time>
      </trkpt>
      <trkpt lat="43.60678" lon="3.04345">
        <ele>629</ele>
        <time>2026-05-20T10:44:22Z</time>
      </trkpt>
      <trkpt lat="43.60682" lon="3.04347">
        <ele>628.9</ele>
        <time>2026-05-20T10:44:27Z</time>
      </trkpt>
      <trkpt lat="43.60688" lon="3.04348">
        <ele>628.9</ele>
        <time>2026-05-20T10:44:32Z</time>
      </trkpt>
      <trkpt lat="43.60694" lon="3.04351">
        <ele>628.8</ele>
        <time>2026-05-20T10:44:37Z</time>
      </trkpt>
      <trkpt lat="43.60699" lon="3.0435">
        <ele>629.1</ele>
        <time>2026-05-20T10:44:42Z</time>
      </trkpt>
      <trkpt lat="43.60703" lon="3.0435">
        <ele>629.2</ele>
        <time>2026-05-20T10:44:47Z</time>
      </trkpt>
      <trkpt lat="43.60713" lon="3.04352">
        <ele>629.3</ele>
        <time>2026-05-20T10:44:52Z</time>
      </trkpt>
      <trkpt lat="43.60721" lon="3.04352">
        <ele>629.5</ele>
        <time>2026-05-20T10:44:57Z</time>
      </trkpt>
      <trkpt lat="43.60727" lon="3.04348">
        <ele>629.9</ele>
        <time>2026-05-20T10:45:02Z</time>
      </trkpt>
      <trkpt lat="43.60731" lon="3.04344">
        <ele>630.2</ele>
        <time>2026-05-20T10:45:07Z</time>
      </trkpt>
      <trkpt lat="43.60736" lon="3.04339">
        <ele>630.6</ele>
        <time>2026-05-20T10:45:12Z</time>
      </trkpt>
      <trkpt lat="43.60741" lon="3.04334">
        <ele>630.9</ele>
        <time>2026-05-20T10:45:17Z</time>
      </trkpt>
      <trkpt lat="43.60744" lon="3.04329">
        <ele>630.9</ele>
        <time>2026-05-20T10:45:22Z</time>
      </trkpt>
      <trkpt lat="43.60748" lon="3.04325">
        <ele>630.9</ele>
        <time>2026-05-20T10:45:27Z</time>
      </trkpt>
      <trkpt lat="43.60753" lon="3.0432">
        <ele>631.3</ele>
        <time>2026-05-20T10:45:32Z</time>
      </trkpt>
      <trkpt lat="43.60757" lon="3.04315">
        <ele>631.8</ele>
        <time>2026-05-20T10:45:37Z</time>
      </trkpt>
      <trkpt lat="43.60762" lon="3.04309">
        <ele>632.4</ele>
        <time>2026-05-20T10:45:42Z</time>
      </trkpt>
      <trkpt lat="43.60767" lon="3.04303">
        <ele>633</ele>
        <time>2026-05-20T10:45:47Z</time>
      </trkpt>
      <trkpt lat="43.60771" lon="3.04297">
        <ele>633.5</ele>
        <time>2026-05-20T10:45:52Z</time>
      </trkpt>
      <trkpt lat="43.60776" lon="3.0429">
        <ele>634.1</ele>
        <time>2026-05-20T10:45:57Z</time>
      </trkpt>
      <trkpt lat="43.6078" lon="3.04285">
        <ele>634.5</ele>
        <time>2026-05-20T10:46:02Z</time>
      </trkpt>
      <trkpt lat="43.60784" lon="3.04279">
        <ele>635</ele>
        <time>2026-05-20T10:46:07Z</time>
      </trkpt>
      <trkpt lat="43.60788" lon="3.04274">
        <ele>635.4</ele>
        <time>2026-05-20T10:46:12Z</time>
      </trkpt>
      <trkpt lat="43.60793" lon="3.04268">
        <ele>636</ele>
        <time>2026-05-20T10:46:17Z</time>
      </trkpt>
      <trkpt lat="43.60798" lon="3.04262">
        <ele>636.6</ele>
        <time>2026-05-20T10:46:22Z</time>
      </trkpt>
      <trkpt lat="43.608" lon="3.04256">
        <ele>636.7</ele>
        <time>2026-05-20T10:46:27Z</time>
      </trkpt>
      <trkpt lat="43.60804" lon="3.04249">
        <ele>637</ele>
        <time>2026-05-20T10:46:32Z</time>
      </trkpt>
      <trkpt lat="43.60807" lon="3.04243">
        <ele>636.5</ele>
        <time>2026-05-20T10:46:37Z</time>
      </trkpt>
      <trkpt lat="43.6081" lon="3.04238">
        <ele>636.1</ele>
        <time>2026-05-20T10:46:42Z</time>
      </trkpt>
      <trkpt lat="43.60813" lon="3.04231">
        <ele>635.5</ele>
        <time>2026-05-20T10:46:47Z</time>
      </trkpt>
      <trkpt lat="43.60819" lon="3.04223">
        <ele>635.3</ele>
        <time>2026-05-20T10:46:52Z</time>
      </trkpt>
      <trkpt lat="43.60825" lon="3.04215">
        <ele>635.1</ele>
        <time>2026-05-20T10:46:57Z</time>
      </trkpt>
      <trkpt lat="43.60828" lon="3.04214">
        <ele>635.4</ele>
        <time>2026-05-20T10:47:02Z</time>
      </trkpt>
      <trkpt lat="43.60832" lon="3.04207">
        <ele>635.1</ele>
        <time>2026-05-20T10:47:07Z</time>
      </trkpt>
      <trkpt lat="43.60834" lon="3.04199">
        <ele>634.4</ele>
        <time>2026-05-20T10:47:12Z</time>
      </trkpt>
      <trkpt lat="43.60839" lon="3.04194">
        <ele>634.4</ele>
        <time>2026-05-20T10:47:17Z</time>
      </trkpt>
      <trkpt lat="43.60842" lon="3.04191">
        <ele>634.5</ele>
        <time>2026-05-20T10:47:22Z</time>
      </trkpt>
      <trkpt lat="43.60845" lon="3.04186">
        <ele>634.3</ele>
        <time>2026-05-20T10:47:27Z</time>
      </trkpt>
      <trkpt lat="43.60852" lon="3.0418">
        <ele>634.7</ele>
        <time>2026-05-20T10:47:32Z</time>
      </trkpt>
      <trkpt lat="43.60859" lon="3.04174">
        <ele>635.1</ele>
        <time>2026-05-20T10:47:37Z</time>
      </trkpt>
      <trkpt lat="43.60866" lon="3.04169">
        <ele>635.7</ele>
        <time>2026-05-20T10:47:42Z</time>
      </trkpt>
      <trkpt lat="43.6087" lon="3.04165">
        <ele>635.9</ele>
        <time>2026-05-20T10:47:47Z</time>
      </trkpt>
      <trkpt lat="43.60875" lon="3.04162">
        <ele>636.2</ele>
        <time>2026-05-20T10:47:52Z</time>
      </trkpt>
      <trkpt lat="43.60882" lon="3.0416">
        <ele>637</ele>
        <time>2026-05-20T10:47:57Z</time>
      </trkpt>
      <trkpt lat="43.60888" lon="3.04157">
        <ele>637.5</ele>
        <time>2026-05-20T10:48:02Z</time>
      </trkpt>
      <trkpt lat="43.60894" lon="3.04157">
        <ele>638.6</ele>
        <time>2026-05-20T10:48:07Z</time>
      </trkpt>
      <trkpt lat="43.609" lon="3.04159">
        <ele>639.9</ele>
        <time>2026-05-20T10:48:12Z</time>
      </trkpt>
      <trkpt lat="43.60906" lon="3.04159">
        <ele>641</ele>
        <time>2026-05-20T10:48:17Z</time>
      </trkpt>
      <trkpt lat="43.60911" lon="3.04161">
        <ele>642.1</ele>
        <time>2026-05-20T10:48:22Z</time>
      </trkpt>
      <trkpt lat="43.60914" lon="3.04164">
        <ele>643.1</ele>
        <time>2026-05-20T10:48:27Z</time>
      </trkpt>
      <trkpt lat="43.60916" lon="3.04167">
        <ele>643.9</ele>
        <time>2026-05-20T10:48:32Z</time>
      </trkpt>
      <trkpt lat="43.6092" lon="3.04168">
        <ele>644.6</ele>
        <time>2026-05-20T10:48:37Z</time>
      </trkpt>
      <trkpt lat="43.60925" lon="3.0417">
        <ele>645.4</ele>
        <time>2026-05-20T10:48:42Z</time>
      </trkpt>
      <trkpt lat="43.60931" lon="3.04172">
        <ele>646.4</ele>
        <time>2026-05-20T10:48:47Z</time>
      </trkpt>
      <trkpt lat="43.60935" lon="3.04173">
        <ele>647.1</ele>
        <time>2026-05-20T10:48:52Z</time>
      </trkpt>
      <trkpt lat="43.60941" lon="3.04176">
        <ele>648.1</ele>
        <time>2026-05-20T10:48:57Z</time>
      </trkpt>
      <trkpt lat="43.60946" lon="3.04179">
        <ele>649.1</ele>
        <time>2026-05-20T10:49:02Z</time>
      </trkpt>
      <trkpt lat="43.60951" lon="3.04181">
        <ele>649.9</ele>
        <time>2026-05-20T10:49:07Z</time>
      </trkpt>
      <trkpt lat="43.60957" lon="3.04184">
        <ele>651</ele>
        <time>2026-05-20T10:49:12Z</time>
      </trkpt>
      <trkpt lat="43.60961" lon="3.04188">
        <ele>651.8</ele>
        <time>2026-05-20T10:49:17Z</time>
      </trkpt>
      <trkpt lat="43.60965" lon="3.04192">
        <ele>652.6</ele>
        <time>2026-05-20T10:49:22Z</time>
      </trkpt>
      <trkpt lat="43.6097" lon="3.04195">
        <ele>653.5</ele>
        <time>2026-05-20T10:49:27Z</time>
      </trkpt>
      <trkpt lat="43.60976" lon="3.04199">
        <ele>654.6</ele>
        <time>2026-05-20T10:49:32Z</time>
      </trkpt>
      <trkpt lat="43.6098" lon="3.04204">
        <ele>655.5</ele>
        <time>2026-05-20T10:49:37Z</time>
      </trkpt>
      <trkpt lat="43.60985" lon="3.04209">
        <ele>656.5</ele>
        <time>2026-05-20T10:49:42Z</time>
      </trkpt>
      <trkpt lat="43.60989" lon="3.04213">
        <ele>657.3</ele>
        <time>2026-05-20T10:49:47Z</time>
      </trkpt>
      <trkpt lat="43.60993" lon="3.04217">
        <ele>658.1</ele>
        <time>2026-05-20T10:49:52Z</time>
      </trkpt>
      <trkpt lat="43.61" lon="3.0422">
        <ele>659.2</ele>
        <time>2026-05-20T10:49:57Z</time>
      </trkpt>
      <trkpt lat="43.61006" lon="3.04223">
        <ele>659.7</ele>
        <time>2026-05-20T10:50:02Z</time>
      </trkpt>
      <trkpt lat="43.61011" lon="3.04227">
        <ele>660.3</ele>
        <time>2026-05-20T10:50:07Z</time>
      </trkpt>
      <trkpt lat="43.61018" lon="3.0423">
        <ele>660.9</ele>
        <time>2026-05-20T10:50:12Z</time>
      </trkpt>
      <trkpt lat="43.61022" lon="3.04233">
        <ele>661.4</ele>
        <time>2026-05-20T10:50:17Z</time>
      </trkpt>
      <trkpt lat="43.61025" lon="3.04234">
        <ele>661.7</ele>
        <time>2026-05-20T10:50:22Z</time>
      </trkpt>
      <trkpt lat="43.61032" lon="3.04232">
        <ele>661.9</ele>
        <time>2026-05-20T10:50:27Z</time>
      </trkpt>
      <trkpt lat="43.61039" lon="3.0423">
        <ele>662.2</ele>
        <time>2026-05-20T10:50:32Z</time>
      </trkpt>
      <trkpt lat="43.61047" lon="3.04227">
        <ele>662.3</ele>
        <time>2026-05-20T10:50:37Z</time>
      </trkpt>
      <trkpt lat="43.61054" lon="3.04225">
        <ele>662.5</ele>
        <time>2026-05-20T10:50:42Z</time>
      </trkpt>
      <trkpt lat="43.6106" lon="3.04222">
        <ele>662.4</ele>
        <time>2026-05-20T10:50:47Z</time>
      </trkpt>
      <trkpt lat="43.61067" lon="3.0422">
        <ele>662.5</ele>
        <time>2026-05-20T10:50:52Z</time>
      </trkpt>
      <trkpt lat="43.61073" lon="3.0422">
        <ele>662.8</ele>
        <time>2026-05-20T10:50:57Z</time>
      </trkpt>
      <trkpt lat="43.61078" lon="3.04222">
        <ele>663.4</ele>
        <time>2026-05-20T10:51:02Z</time>
      </trkpt>
      <trkpt lat="43.61079" lon="3.04226">
        <ele>664</ele>
        <time>2026-05-20T10:51:07Z</time>
      </trkpt>
      <trkpt lat="43.61073" lon="3.04232">
        <ele>664.5</ele>
        <time>2026-05-20T10:51:12Z</time>
      </trkpt>
      <trkpt lat="43.61066" lon="3.04235">
        <ele>664.5</ele>
        <time>2026-05-20T10:51:17Z</time>
      </trkpt>
      <trkpt lat="43.61061" lon="3.04238">
        <ele>664.6</ele>
        <time>2026-05-20T10:51:22Z</time>
      </trkpt>
      <trkpt lat="43.61054" lon="3.04242">
        <ele>664.6</ele>
        <time>2026-05-20T10:51:27Z</time>
      </trkpt>
      <trkpt lat="43.61048" lon="3.04247">
        <ele>664.7</ele>
        <time>2026-05-20T10:51:32Z</time>
      </trkpt>
      <trkpt lat="43.61041" lon="3.04251">
        <ele>664.5</ele>
        <time>2026-05-20T10:51:37Z</time>
      </trkpt>
      <trkpt lat="43.61036" lon="3.04254">
        <ele>664.3</ele>
        <time>2026-05-20T10:51:42Z</time>
      </trkpt>
      <trkpt lat="43.61029" lon="3.04256">
        <ele>663.8</ele>
        <time>2026-05-20T10:51:47Z</time>
      </trkpt>
      <trkpt lat="43.61022" lon="3.04258">
        <ele>663.3</ele>
        <time>2026-05-20T10:51:52Z</time>
      </trkpt>
      <trkpt lat="43.61019" lon="3.04266">
        <ele>663.5</ele>
        <time>2026-05-20T10:51:57Z</time>
      </trkpt>
      <trkpt lat="43.61021" lon="3.04272">
        <ele>664</ele>
        <time>2026-05-20T10:52:02Z</time>
      </trkpt>
      <trkpt lat="43.61028" lon="3.04272">
        <ele>664.7</ele>
        <time>2026-05-20T10:52:07Z</time>
      </trkpt>
      <trkpt lat="43.61037" lon="3.0427">
        <ele>665.4</ele>
        <time>2026-05-20T10:52:12Z</time>
      </trkpt>
      <trkpt lat="43.61044" lon="3.0427">
        <ele>666</ele>
        <time>2026-05-20T10:52:17Z</time>
      </trkpt>
      <trkpt lat="43.61051" lon="3.0427">
        <ele>666.7</ele>
        <time>2026-05-20T10:52:22Z</time>
      </trkpt>
      <trkpt lat="43.61056" lon="3.04268">
        <ele>667</ele>
        <time>2026-05-20T10:52:27Z</time>
      </trkpt>
      <trkpt lat="43.61061" lon="3.04269">
        <ele>667.5</ele>
        <time>2026-05-20T10:52:32Z</time>
      </trkpt>
      <trkpt lat="43.61064" lon="3.04268">
        <ele>667.7</ele>
        <time>2026-05-20T10:52:37Z</time>
      </trkpt>
      <trkpt lat="43.61066" lon="3.04267">
        <ele>667.8</ele>
        <time>2026-05-20T10:52:42Z</time>
      </trkpt>
      <trkpt lat="43.61068" lon="3.04266">
        <ele>668</ele>
        <time>2026-05-20T10:52:47Z</time>
      </trkpt>
      <trkpt lat="43.61068" lon="3.04266">
        <ele>668</ele>
        <time>2026-05-20T10:52:52Z</time>
      </trkpt>
      <trkpt lat="43.61068" lon="3.04266">
        <ele>668</ele>
        <time>2026-05-20T10:52:57Z</time>
      </trkpt>
      <trkpt lat="43.61068" lon="3.04266">
        <ele>668</ele>
        <time>2026-05-20T10:53:02Z</time>
      </trkpt>
      <trkpt lat="43.61068" lon="3.04266">
        <ele>668</ele>
        <time>2026-05-20T10:53:07Z</time>
      </trkpt>
      <trkpt lat="43.61068" lon="3.04266">
        <ele>668</ele>
        <time>2026-05-20T10:53:12Z</time>
      </trkpt>
      <trkpt lat="43.61068" lon="3.04266">
        <ele>668</ele>
        <time>2026-05-20T10:53:17Z</time>
      </trkpt>
      <trkpt lat="43.61068" lon="3.04264">
        <ele>667.8</ele>
        <time>2026-05-20T10:53:22Z</time>
      </trkpt>
      <trkpt lat="43.61074" lon="3.04265">
        <ele>668.4</ele>
        <time>2026-05-20T10:53:27Z</time>
      </trkpt>
      <trkpt lat="43.61081" lon="3.04263">
        <ele>668.9</ele>
        <time>2026-05-20T10:53:32Z</time>
      </trkpt>
      <trkpt lat="43.61085" lon="3.04261">
        <ele>669</ele>
        <time>2026-05-20T10:53:37Z</time>
      </trkpt>
      <trkpt lat="43.6109" lon="3.04261">
        <ele>669.4</ele>
        <time>2026-05-20T10:53:42Z</time>
      </trkpt>
      <trkpt lat="43.61095" lon="3.0426">
        <ele>669.6</ele>
        <time>2026-05-20T10:53:47Z</time>
      </trkpt>
      <trkpt lat="43.61103" lon="3.04259">
        <ele>670.1</ele>
        <time>2026-05-20T10:53:52Z</time>
      </trkpt>
      <trkpt lat="43.61108" lon="3.04257">
        <ele>670.2</ele>
        <time>2026-05-20T10:53:57Z</time>
      </trkpt>
      <trkpt lat="43.61113" lon="3.04255">
        <ele>670.3</ele>
        <time>2026-05-20T10:54:02Z</time>
      </trkpt>
      <trkpt lat="43.61117" lon="3.04253">
        <ele>670.4</ele>
        <time>2026-05-20T10:54:07Z</time>
      </trkpt>
      <trkpt lat="43.61123" lon="3.04251">
        <ele>670.5</ele>
        <time>2026-05-20T10:54:12Z</time>
      </trkpt>
      <trkpt lat="43.61129" lon="3.0425">
        <ele>670.7</ele>
        <time>2026-05-20T10:54:17Z</time>
      </trkpt>
      <trkpt lat="43.61133" lon="3.04246">
        <ele>670.4</ele>
        <time>2026-05-20T10:54:22Z</time>
      </trkpt>
      <trkpt lat="43.61143" lon="3.04243">
        <ele>670.5</ele>
        <time>2026-05-20T10:54:27Z</time>
      </trkpt>
      <trkpt lat="43.61151" lon="3.04242">
        <ele>670.8</ele>
        <time>2026-05-20T10:54:32Z</time>
      </trkpt>
      <trkpt lat="43.61156" lon="3.04244">
        <ele>671.4</ele>
        <time>2026-05-20T10:54:37Z</time>
      </trkpt>
      <trkpt lat="43.61158" lon="3.04245">
        <ele>671.7</ele>
        <time>2026-05-20T10:54:42Z</time>
      </trkpt>
      <trkpt lat="43.61159" lon="3.04246">
        <ele>671.9</ele>
        <time>2026-05-20T10:54:47Z</time>
      </trkpt>
      <trkpt lat="43.61163" lon="3.04243">
        <ele>671.7</ele>
        <time>2026-05-20T10:54:52Z</time>
      </trkpt>
      <trkpt lat="43.61168" lon="3.04239">
        <ele>671.5</ele>
        <time>2026-05-20T10:54:57Z</time>
      </trkpt>
      <trkpt lat="43.61173" lon="3.04235">
        <ele>671.7</ele>
        <time>2026-05-20T10:55:02Z</time>
      </trkpt>
      <trkpt lat="43.61177" lon="3.04232">
        <ele>672</ele>
        <time>2026-05-20T10:55:07Z</time>
      </trkpt>
      <trkpt lat="43.61183" lon="3.04228">
        <ele>672.4</ele>
        <time>2026-05-20T10:55:12Z</time>
      </trkpt>
      <trkpt lat="43.61189" lon="3.04222">
        <ele>672.5</ele>
        <time>2026-05-20T10:55:17Z</time>
      </trkpt>
      <trkpt lat="43.61193" lon="3.04218">
        <ele>672.6</ele>
        <time>2026-05-20T10:55:22Z</time>
      </trkpt>
      <trkpt lat="43.61199" lon="3.04212">
        <ele>672.7</ele>
        <time>2026-05-20T10:55:27Z</time>
      </trkpt>
      <trkpt lat="43.61203" lon="3.04208">
        <ele>672.8</ele>
        <time>2026-05-20T10:55:32Z</time>
      </trkpt>
      <trkpt lat="43.61207" lon="3.04203">
        <ele>672.7</ele>
        <time>2026-05-20T10:55:37Z</time>
      </trkpt>
      <trkpt lat="43.61212" lon="3.04198">
        <ele>672.8</ele>
        <time>2026-05-20T10:55:42Z</time>
      </trkpt>
      <trkpt lat="43.61215" lon="3.04192">
        <ele>672.5</ele>
        <time>2026-05-20T10:55:47Z</time>
      </trkpt>
      <trkpt lat="43.6122" lon="3.04185">
        <ele>672.3</ele>
        <time>2026-05-20T10:55:52Z</time>
      </trkpt>
      <trkpt lat="43.61226" lon="3.0418">
        <ele>672.6</ele>
        <time>2026-05-20T10:55:57Z</time>
      </trkpt>
      <trkpt lat="43.61231" lon="3.04173">
        <ele>672.5</ele>
        <time>2026-05-20T10:56:02Z</time>
      </trkpt>
      <trkpt lat="43.61238" lon="3.04166">
        <ele>672.8</ele>
        <time>2026-05-20T10:56:07Z</time>
      </trkpt>
      <trkpt lat="43.61242" lon="3.04159">
        <ele>673.5</ele>
        <time>2026-05-20T10:56:12Z</time>
      </trkpt>
      <trkpt lat="43.61247" lon="3.04154">
        <ele>674.3</ele>
        <time>2026-05-20T10:56:17Z</time>
      </trkpt>
      <trkpt lat="43.61252" lon="3.04148">
        <ele>675</ele>
        <time>2026-05-20T10:56:22Z</time>
      </trkpt>
      <trkpt lat="43.61257" lon="3.04142">
        <ele>675.6</ele>
        <time>2026-05-20T10:56:27Z</time>
      </trkpt>
      <trkpt lat="43.61259" lon="3.04135">
        <ele>675.7</ele>
        <time>2026-05-20T10:56:32Z</time>
      </trkpt>
      <trkpt lat="43.61264" lon="3.04127">
        <ele>676.1</ele>
        <time>2026-05-20T10:56:37Z</time>
      </trkpt>
      <trkpt lat="43.61267" lon="3.04119">
        <ele>676.2</ele>
        <time>2026-05-20T10:56:42Z</time>
      </trkpt>
      <trkpt lat="43.6127" lon="3.04111">
        <ele>676.3</ele>
        <time>2026-05-20T10:56:47Z</time>
      </trkpt>
      <trkpt lat="43.61274" lon="3.04104">
        <ele>676.4</ele>
        <time>2026-05-20T10:56:52Z</time>
      </trkpt>
      <trkpt lat="43.61278" lon="3.04096">
        <ele>676.5</ele>
        <time>2026-05-20T10:56:57Z</time>
      </trkpt>
      <trkpt lat="43.61281" lon="3.04091">
        <ele>676.5</ele>
        <time>2026-05-20T10:57:02Z</time>
      </trkpt>
      <trkpt lat="43.61284" lon="3.04085">
        <ele>676.5</ele>
        <time>2026-05-20T10:57:07Z</time>
      </trkpt>
      <trkpt lat="43.61287" lon="3.04082">
        <ele>676.8</ele>
        <time>2026-05-20T10:57:12Z</time>
      </trkpt>
      <trkpt lat="43.61292" lon="3.04079">
        <ele>677.3</ele>
        <time>2026-05-20T10:57:17Z</time>
      </trkpt>
      <trkpt lat="43.61297" lon="3.04075">
        <ele>677.9</ele>
        <time>2026-05-20T10:57:22Z</time>
      </trkpt>
      <trkpt lat="43.61303" lon="3.04068">
        <ele>678.7</ele>
        <time>2026-05-20T10:57:27Z</time>
      </trkpt>
      <trkpt lat="43.61306" lon="3.04062">
        <ele>679.2</ele>
        <time>2026-05-20T10:57:32Z</time>
      </trkpt>
      <trkpt lat="43.61308" lon="3.04055">
        <ele>679.7</ele>
        <time>2026-05-20T10:57:37Z</time>
      </trkpt>
      <trkpt lat="43.61312" lon="3.04047">
        <ele>680.2</ele>
        <time>2026-05-20T10:57:42Z</time>
      </trkpt>
      <trkpt lat="43.61314" lon="3.04041">
        <ele>680.6</ele>
        <time>2026-05-20T10:57:47Z</time>
      </trkpt>
      <trkpt lat="43.61312" lon="3.04042">
        <ele>680.5</ele>
        <time>2026-05-20T10:57:52Z</time>
      </trkpt>
      <trkpt lat="43.61312" lon="3.04042">
        <ele>680.5</ele>
        <time>2026-05-20T10:57:57Z</time>
      </trkpt>
      <trkpt lat="43.61311" lon="3.04047">
        <ele>680.2</ele>
        <time>2026-05-20T10:58:02Z</time>
      </trkpt>
      <trkpt lat="43.6131" lon="3.04055">
        <ele>679.8</ele>
        <time>2026-05-20T10:58:07Z</time>
      </trkpt>
      <trkpt lat="43.61307" lon="3.04061">
        <ele>679.3</ele>
        <time>2026-05-20T10:58:12Z</time>
      </trkpt>
      <trkpt lat="43.61304" lon="3.04067">
        <ele>678.8</ele>
        <time>2026-05-20T10:58:17Z</time>
      </trkpt>
      <trkpt lat="43.613" lon="3.04074">
        <ele>678.2</ele>
        <time>2026-05-20T10:58:22Z</time>
      </trkpt>
      <trkpt lat="43.61295" lon="3.04077">
        <ele>677.7</ele>
        <time>2026-05-20T10:58:27Z</time>
      </trkpt>
      <trkpt lat="43.61292" lon="3.04079">
        <ele>677.3</ele>
        <time>2026-05-20T10:58:32Z</time>
      </trkpt>
      <trkpt lat="43.61287" lon="3.04079">
        <ele>677</ele>
        <time>2026-05-20T10:58:37Z</time>
      </trkpt>
      <trkpt lat="43.61282" lon="3.04083">
        <ele>676.3</ele>
        <time>2026-05-20T10:58:42Z</time>
      </trkpt>
      <trkpt lat="43.61279" lon="3.04089">
        <ele>676.3</ele>
        <time>2026-05-20T10:58:47Z</time>
      </trkpt>
      <trkpt lat="43.6128" lon="3.04092">
        <ele>676.5</ele>
        <time>2026-05-20T10:58:52Z</time>
      </trkpt>
      <trkpt lat="43.61283" lon="3.04094">
        <ele>676.8</ele>
        <time>2026-05-20T10:58:57Z</time>
      </trkpt>
      <trkpt lat="43.61287" lon="3.04095">
        <ele>677.2</ele>
        <time>2026-05-20T10:59:02Z</time>
      </trkpt>
      <trkpt lat="43.61293" lon="3.04097">
        <ele>677.8</ele>
        <time>2026-05-20T10:59:07Z</time>
      </trkpt>
      <trkpt lat="43.61298" lon="3.04098">
        <ele>678.2</ele>
        <time>2026-05-20T10:59:12Z</time>
      </trkpt>
      <trkpt lat="43.61304" lon="3.04099">
        <ele>678.8</ele>
        <time>2026-05-20T10:59:17Z</time>
      </trkpt>
      <trkpt lat="43.6131" lon="3.04099">
        <ele>679.3</ele>
        <time>2026-05-20T10:59:22Z</time>
      </trkpt>
      <trkpt lat="43.61315" lon="3.04097">
        <ele>679.6</ele>
        <time>2026-05-20T10:59:27Z</time>
      </trkpt>
      <trkpt lat="43.6132" lon="3.04097">
        <ele>680</ele>
        <time>2026-05-20T10:59:32Z</time>
      </trkpt>
      <trkpt lat="43.61324" lon="3.04097">
        <ele>680.4</ele>
        <time>2026-05-20T10:59:37Z</time>
      </trkpt>
      <trkpt lat="43.61328" lon="3.04097">
        <ele>680.7</ele>
        <time>2026-05-20T10:59:42Z</time>
      </trkpt>
      <trkpt lat="43.61334" lon="3.04096">
        <ele>681.1</ele>
        <time>2026-05-20T10:59:47Z</time>
      </trkpt>
      <trkpt lat="43.61337" lon="3.04096">
        <ele>681.3</ele>
        <time>2026-05-20T10:59:52Z</time>
      </trkpt>
      <trkpt lat="43.61343" lon="3.04096">
        <ele>681.6</ele>
        <time>2026-05-20T10:59:57Z</time>
      </trkpt>
      <trkpt lat="43.61348" lon="3.04096">
        <ele>681.9</ele>
        <time>2026-05-20T11:00:02Z</time>
      </trkpt>
      <trkpt lat="43.61355" lon="3.04096">
        <ele>682.3</ele>
        <time>2026-05-20T11:00:07Z</time>
      </trkpt>
      <trkpt lat="43.61358" lon="3.04101">
        <ele>682.7</ele>
        <time>2026-05-20T11:00:12Z</time>
      </trkpt>
      <trkpt lat="43.61359" lon="3.04108">
        <ele>683.1</ele>
        <time>2026-05-20T11:00:17Z</time>
      </trkpt>
      <trkpt lat="43.61361" lon="3.04105">
        <ele>683</ele>
        <time>2026-05-20T11:00:22Z</time>
      </trkpt>
      <trkpt lat="43.61363" lon="3.04101">
        <ele>682.9</ele>
        <time>2026-05-20T11:00:27Z</time>
      </trkpt>
      <trkpt lat="43.61363" lon="3.04101">
        <ele>682.9</ele>
        <time>2026-05-20T11:00:32Z</time>
      </trkpt>
      <trkpt lat="43.61363" lon="3.04101">
        <ele>682.9</ele>
        <time>2026-05-20T11:00:37Z</time>
      </trkpt>
      <trkpt lat="43.61363" lon="3.04101">
        <ele>682.9</ele>
        <time>2026-05-20T11:00:42Z</time>
      </trkpt>
      <trkpt lat="43.61363" lon="3.04101">
        <ele>682.9</ele>
        <time>2026-05-20T11:00:47Z</time>
      </trkpt>
      <trkpt lat="43.61363" lon="3.04088">
        <ele>682.3</ele>
        <time>2026-05-20T11:00:52Z</time>
      </trkpt>
      <trkpt lat="43.61364" lon="3.04088">
        <ele>682.4</ele>
        <time>2026-05-20T11:00:57Z</time>
      </trkpt>
      <trkpt lat="43.61364" lon="3.04088">
        <ele>682.4</ele>
        <time>2026-05-20T11:01:02Z</time>
      </trkpt>
      <trkpt lat="43.61364" lon="3.04088">
        <ele>682.4</ele>
        <time>2026-05-20T11:01:07Z</time>
      </trkpt>
      <trkpt lat="43.61364" lon="3.04088">
        <ele>682.4</ele>
        <time>2026-05-20T11:01:12Z</time>
      </trkpt>
      <trkpt lat="43.61364" lon="3.04088">
        <ele>682.4</ele>
        <time>2026-05-20T11:01:17Z</time>
      </trkpt>
      <trkpt lat="43.61364" lon="3.04088">
        <ele>682.4</ele>
        <time>2026-05-20T11:01:22Z</time>
      </trkpt>
      <trkpt lat="43.6137" lon="3.041">
        <ele>683.2</ele>
        <time>2026-05-20T11:01:27Z</time>
      </trkpt>
      <trkpt lat="43.61371" lon="3.04101">
        <ele>683.3</ele>
        <time>2026-05-20T11:01:32Z</time>
      </trkpt>
      <trkpt lat="43.61371" lon="3.04101">
        <ele>683.3</ele>
        <time>2026-05-20T11:01:37Z</time>
      </trkpt>
      <trkpt lat="43.61371" lon="3.04101">
        <ele>683.3</ele>
        <time>2026-05-20T11:01:42Z</time>
      </trkpt>
      <trkpt lat="43.61371" lon="3.04101">
        <ele>683.3</ele>
        <time>2026-05-20T11:01:47Z</time>
      </trkpt>
      <trkpt lat="43.61375" lon="3.04094">
        <ele>683.3</ele>
        <time>2026-05-20T11:01:52Z</time>
      </trkpt>
      <trkpt lat="43.61375" lon="3.04087">
        <ele>683.1</ele>
        <time>2026-05-20T11:01:57Z</time>
      </trkpt>
      <trkpt lat="43.61377" lon="3.04082">
        <ele>683.2</ele>
        <time>2026-05-20T11:02:02Z</time>
      </trkpt>
      <trkpt lat="43.61377" lon="3.04082">
        <ele>683.2</ele>
        <time>2026-05-20T11:02:07Z</time>
      </trkpt>
      <trkpt lat="43.61377" lon="3.04082">
        <ele>683.2</ele>
        <time>2026-05-20T11:02:12Z</time>
      </trkpt>
      <trkpt lat="43.61377" lon="3.04082">
        <ele>683.2</ele>
        <time>2026-05-20T11:02:17Z</time>
      </trkpt>
      <trkpt lat="43.61377" lon="3.04082">
        <ele>683.2</ele>
        <time>2026-05-20T11:02:22Z</time>
      </trkpt>
      <trkpt lat="43.61377" lon="3.04082">
        <ele>683.2</ele>
        <time>2026-05-20T11:02:27Z</time>
      </trkpt>
      <trkpt lat="43.61377" lon="3.04082">
        <ele>683.2</ele>
        <time>2026-05-20T11:02:32Z</time>
      </trkpt>
      <trkpt lat="43.61377" lon="3.04082">
        <ele>683.2</ele>
        <time>2026-05-20T11:02:37Z</time>
      </trkpt>
      <trkpt lat="43.61377" lon="3.04082">
        <ele>683.2</ele>
        <time>2026-05-20T11:02:42Z</time>
      </trkpt>
      <trkpt lat="43.61377" lon="3.04082">
        <ele>683.2</ele>
        <time>2026-05-20T11:02:47Z</time>
      </trkpt>
      <trkpt lat="43.61377" lon="3.04082">
        <ele>683.2</ele>
        <time>2026-05-20T11:02:52Z</time>
      </trkpt>
      <trkpt lat="43.61377" lon="3.04082">
        <ele>683.2</ele>
        <time>2026-05-20T11:02:57Z</time>
      </trkpt>
      <trkpt lat="43.61377" lon="3.04082">
        <ele>683.2</ele>
        <time>2026-05-20T11:03:02Z</time>
      </trkpt>
      <trkpt lat="43.61377" lon="3.04082">
        <ele>683.2</ele>
        <time>2026-05-20T11:03:07Z</time>
      </trkpt>
      <trkpt lat="43.61377" lon="3.04082">
        <ele>683.2</ele>
        <time>2026-05-20T11:03:12Z</time>
      </trkpt>
      <trkpt lat="43.61377" lon="3.04082">
        <ele>683.2</ele>
        <time>2026-05-20T11:03:17Z</time>
      </trkpt>
      <trkpt lat="43.61377" lon="3.04082">
        <ele>683.2</ele>
        <time>2026-05-20T11:03:22Z</time>
      </trkpt>
      <trkpt lat="43.61377" lon="3.04082">
        <ele>683.2</ele>
        <time>2026-05-20T11:03:27Z</time>
      </trkpt>
      <trkpt lat="43.61377" lon="3.04082">
        <ele>683.2</ele>
        <time>2026-05-20T11:03:32Z</time>
      </trkpt>
      <trkpt lat="43.61384" lon="3.04076">
        <ele>683.9</ele>
        <time>2026-05-20T11:03:37Z</time>
      </trkpt>
      <trkpt lat="43.61388" lon="3.04075">
        <ele>684.3</ele>
        <time>2026-05-20T11:03:42Z</time>
      </trkpt>
      <trkpt lat="43.6139" lon="3.04073">
        <ele>684.5</ele>
        <time>2026-05-20T11:03:47Z</time>
      </trkpt>
      <trkpt lat="43.61394" lon="3.04068">
        <ele>685</ele>
        <time>2026-05-20T11:03:52Z</time>
      </trkpt>
      <trkpt lat="43.61395" lon="3.0406">
        <ele>685.4</ele>
        <time>2026-05-20T11:03:57Z</time>
      </trkpt>
      <trkpt lat="43.61397" lon="3.04053">
        <ele>685.9</ele>
        <time>2026-05-20T11:04:02Z</time>
      </trkpt>
      <trkpt lat="43.61397" lon="3.04045">
        <ele>686.2</ele>
        <time>2026-05-20T11:04:07Z</time>
      </trkpt>
      <trkpt lat="43.61397" lon="3.04037">
        <ele>686.5</ele>
        <time>2026-05-20T11:04:12Z</time>
      </trkpt>
      <trkpt lat="43.61398" lon="3.04028">
        <ele>687</ele>
        <time>2026-05-20T11:04:17Z</time>
      </trkpt>
      <trkpt lat="43.61399" lon="3.04018">
        <ele>687.5</ele>
        <time>2026-05-20T11:04:22Z</time>
      </trkpt>
      <trkpt lat="43.61399" lon="3.04008">
        <ele>688</ele>
        <time>2026-05-20T11:04:27Z</time>
      </trkpt>
      <trkpt lat="43.614" lon="3.03999">
        <ele>688.4</ele>
        <time>2026-05-20T11:04:32Z</time>
      </trkpt>
      <trkpt lat="43.61401" lon="3.03991">
        <ele>688.9</ele>
        <time>2026-05-20T11:04:37Z</time>
      </trkpt>
      <trkpt lat="43.61402" lon="3.03983">
        <ele>689.3</ele>
        <time>2026-05-20T11:04:42Z</time>
      </trkpt>
      <trkpt lat="43.61403" lon="3.03973">
        <ele>689.9</ele>
        <time>2026-05-20T11:04:47Z</time>
      </trkpt>
      <trkpt lat="43.61403" lon="3.03963">
        <ele>690.3</ele>
        <time>2026-05-20T11:04:52Z</time>
      </trkpt>
      <trkpt lat="43.61403" lon="3.03955">
        <ele>690.7</ele>
        <time>2026-05-20T11:04:57Z</time>
      </trkpt>
      <trkpt lat="43.61403" lon="3.03946">
        <ele>691.1</ele>
        <time>2026-05-20T11:05:02Z</time>
      </trkpt>
      <trkpt lat="43.61404" lon="3.03936">
        <ele>691.6</ele>
        <time>2026-05-20T11:05:07Z</time>
      </trkpt>
      <trkpt lat="43.61406" lon="3.03927">
        <ele>692.1</ele>
        <time>2026-05-20T11:05:12Z</time>
      </trkpt>
      <trkpt lat="43.61407" lon="3.03918">
        <ele>692.5</ele>
        <time>2026-05-20T11:05:17Z</time>
      </trkpt>
      <trkpt lat="43.61407" lon="3.03909">
        <ele>693.2</ele>
        <time>2026-05-20T11:05:22Z</time>
      </trkpt>
      <trkpt lat="43.61408" lon="3.039">
        <ele>693.9</ele>
        <time>2026-05-20T11:05:27Z</time>
      </trkpt>
      <trkpt lat="43.61409" lon="3.03892">
        <ele>694.6</ele>
        <time>2026-05-20T11:05:32Z</time>
      </trkpt>
      <trkpt lat="43.61409" lon="3.03883">
        <ele>695.3</ele>
        <time>2026-05-20T11:05:37Z</time>
      </trkpt>
      <trkpt lat="43.61409" lon="3.03874">
        <ele>696</ele>
        <time>2026-05-20T11:05:42Z</time>
      </trkpt>
      <trkpt lat="43.61409" lon="3.03864">
        <ele>696.8</ele>
        <time>2026-05-20T11:05:47Z</time>
      </trkpt>
      <trkpt lat="43.61411" lon="3.03856">
        <ele>697.4</ele>
        <time>2026-05-20T11:05:52Z</time>
      </trkpt>
      <trkpt lat="43.61414" lon="3.0385">
        <ele>697.8</ele>
        <time>2026-05-20T11:05:57Z</time>
      </trkpt>
      <trkpt lat="43.61415" lon="3.03842">
        <ele>698.4</ele>
        <time>2026-05-20T11:06:02Z</time>
      </trkpt>
      <trkpt lat="43.61416" lon="3.03834">
        <ele>699</ele>
        <time>2026-05-20T11:06:07Z</time>
      </trkpt>
      <trkpt lat="43.61417" lon="3.03827">
        <ele>699.8</ele>
        <time>2026-05-20T11:06:12Z</time>
      </trkpt>
      <trkpt lat="43.61419" lon="3.03819">
        <ele>700.8</ele>
        <time>2026-05-20T11:06:17Z</time>
      </trkpt>
      <trkpt lat="43.6142" lon="3.03811">
        <ele>701.8</ele>
        <time>2026-05-20T11:06:22Z</time>
      </trkpt>
      <trkpt lat="43.61421" lon="3.03803">
        <ele>702.7</ele>
        <time>2026-05-20T11:06:27Z</time>
      </trkpt>
      <trkpt lat="43.61421" lon="3.03797">
        <ele>703.4</ele>
        <time>2026-05-20T11:06:32Z</time>
      </trkpt>
      <trkpt lat="43.61422" lon="3.0379">
        <ele>704.3</ele>
        <time>2026-05-20T11:06:37Z</time>
      </trkpt>
      <trkpt lat="43.61422" lon="3.03783">
        <ele>705.1</ele>
        <time>2026-05-20T11:06:42Z</time>
      </trkpt>
      <trkpt lat="43.61423" lon="3.03777">
        <ele>705.8</ele>
        <time>2026-05-20T11:06:47Z</time>
      </trkpt>
      <trkpt lat="43.61424" lon="3.03771">
        <ele>706.5</ele>
        <time>2026-05-20T11:06:52Z</time>
      </trkpt>
      <trkpt lat="43.61425" lon="3.03764">
        <ele>707.4</ele>
        <time>2026-05-20T11:06:57Z</time>
      </trkpt>
      <trkpt lat="43.61426" lon="3.03759">
        <ele>708</ele>
        <time>2026-05-20T11:07:02Z</time>
      </trkpt>
      <trkpt lat="43.61428" lon="3.03754">
        <ele>708.5</ele>
        <time>2026-05-20T11:07:07Z</time>
      </trkpt>
      <trkpt lat="43.61428" lon="3.03747">
        <ele>709.5</ele>
        <time>2026-05-20T11:07:12Z</time>
      </trkpt>
      <trkpt lat="43.61429" lon="3.03742">
        <ele>710.3</ele>
        <time>2026-05-20T11:07:17Z</time>
      </trkpt>
      <trkpt lat="43.61431" lon="3.03737">
        <ele>711.1</ele>
        <time>2026-05-20T11:07:22Z</time>
      </trkpt>
      <trkpt lat="43.61431" lon="3.03733">
        <ele>711.8</ele>
        <time>2026-05-20T11:07:27Z</time>
      </trkpt>
      <trkpt lat="43.61433" lon="3.03728">
        <ele>712.6</ele>
        <time>2026-05-20T11:07:32Z</time>
      </trkpt>
      <trkpt lat="43.61434" lon="3.03723">
        <ele>713.4</ele>
        <time>2026-05-20T11:07:37Z</time>
      </trkpt>
      <trkpt lat="43.61435" lon="3.03717">
        <ele>714.4</ele>
        <time>2026-05-20T11:07:42Z</time>
      </trkpt>
      <trkpt lat="43.61435" lon="3.03711">
        <ele>715.3</ele>
        <time>2026-05-20T11:07:47Z</time>
      </trkpt>
      <trkpt lat="43.61436" lon="3.03704">
        <ele>716.5</ele>
        <time>2026-05-20T11:07:52Z</time>
      </trkpt>
      <trkpt lat="43.61437" lon="3.03697">
        <ele>717.6</ele>
        <time>2026-05-20T11:07:57Z</time>
      </trkpt>
      <trkpt lat="43.61437" lon="3.03691">
        <ele>718.6</ele>
        <time>2026-05-20T11:08:02Z</time>
      </trkpt>
      <trkpt lat="43.61439" lon="3.03688">
        <ele>719</ele>
        <time>2026-05-20T11:08:07Z</time>
      </trkpt>
      <trkpt lat="43.61439" lon="3.03688">
        <ele>719</ele>
        <time>2026-05-20T11:08:12Z</time>
      </trkpt>
      <trkpt lat="43.61438" lon="3.03686">
        <ele>719.4</ele>
        <time>2026-05-20T11:08:17Z</time>
      </trkpt>
      <trkpt lat="43.61439" lon="3.0368">
        <ele>720.3</ele>
        <time>2026-05-20T11:08:22Z</time>
      </trkpt>
      <trkpt lat="43.61437" lon="3.03673">
        <ele>721.5</ele>
        <time>2026-05-20T11:08:27Z</time>
      </trkpt>
      <trkpt lat="43.61435" lon="3.03669">
        <ele>722.2</ele>
        <time>2026-05-20T11:08:32Z</time>
      </trkpt>
      <trkpt lat="43.61432" lon="3.03666">
        <ele>722.7</ele>
        <time>2026-05-20T11:08:37Z</time>
      </trkpt>
      <trkpt lat="43.6143" lon="3.03662">
        <ele>723.1</ele>
        <time>2026-05-20T11:08:42Z</time>
      </trkpt>
      <trkpt lat="43.61427" lon="3.03656">
        <ele>723.8</ele>
        <time>2026-05-20T11:08:47Z</time>
      </trkpt>
      <trkpt lat="43.61426" lon="3.03649">
        <ele>724.4</ele>
        <time>2026-05-20T11:08:52Z</time>
      </trkpt>
      <trkpt lat="43.61424" lon="3.03647">
        <ele>724.7</ele>
        <time>2026-05-20T11:08:57Z</time>
      </trkpt>
      <trkpt lat="43.61422" lon="3.03644">
        <ele>725</ele>
        <time>2026-05-20T11:09:02Z</time>
      </trkpt>
      <trkpt lat="43.61421" lon="3.03641">
        <ele>725.3</ele>
        <time>2026-05-20T11:09:07Z</time>
      </trkpt>
      <trkpt lat="43.61419" lon="3.0364">
        <ele>725.5</ele>
        <time>2026-05-20T11:09:12Z</time>
      </trkpt>
      <trkpt lat="43.61419" lon="3.0364">
        <ele>725.5</ele>
        <time>2026-05-20T11:09:17Z</time>
      </trkpt>
      <trkpt lat="43.61419" lon="3.0364">
        <ele>725.5</ele>
        <time>2026-05-20T11:09:22Z</time>
      </trkpt>
      <trkpt lat="43.61419" lon="3.0364">
        <ele>725.5</ele>
        <time>2026-05-20T11:09:27Z</time>
      </trkpt>
      <trkpt lat="43.61413" lon="3.03632">
        <ele>726.1</ele>
        <time>2026-05-20T11:09:32Z</time>
      </trkpt>
      <trkpt lat="43.61412" lon="3.0363">
        <ele>726.2</ele>
        <time>2026-05-20T11:09:37Z</time>
      </trkpt>
      <trkpt lat="43.61412" lon="3.0363">
        <ele>726.2</ele>
        <time>2026-05-20T11:09:42Z</time>
      </trkpt>
      <trkpt lat="43.61412" lon="3.0363">
        <ele>726.2</ele>
        <time>2026-05-20T11:09:47Z</time>
      </trkpt>
      <trkpt lat="43.61412" lon="3.0363">
        <ele>726.2</ele>
        <time>2026-05-20T11:09:52Z</time>
      </trkpt>
      <trkpt lat="43.61413" lon="3.03617">
        <ele>727.5</ele>
        <time>2026-05-20T11:09:57Z</time>
      </trkpt>
      <trkpt lat="43.61411" lon="3.03612">
        <ele>727.9</ele>
        <time>2026-05-20T11:10:02Z</time>
      </trkpt>
      <trkpt lat="43.6141" lon="3.03608">
        <ele>728.2</ele>
        <time>2026-05-20T11:10:07Z</time>
      </trkpt>
      <trkpt lat="43.6141" lon="3.03608">
        <ele>728.2</ele>
        <time>2026-05-20T11:10:12Z</time>
      </trkpt>
      <trkpt lat="43.61408" lon="3.03602">
        <ele>728.7</ele>
        <time>2026-05-20T11:10:17Z</time>
      </trkpt>
      <trkpt lat="43.61406" lon="3.03598">
        <ele>729</ele>
        <time>2026-05-20T11:10:22Z</time>
      </trkpt>
      <trkpt lat="43.61403" lon="3.03595">
        <ele>729.2</ele>
        <time>2026-05-20T11:10:27Z</time>
      </trkpt>
      <trkpt lat="43.61401" lon="3.03592">
        <ele>729.4</ele>
        <time>2026-05-20T11:10:32Z</time>
      </trkpt>
      <trkpt lat="43.61399" lon="3.03587">
        <ele>729.8</ele>
        <time>2026-05-20T11:10:37Z</time>
      </trkpt>
      <trkpt lat="43.61399" lon="3.03583">
        <ele>730.2</ele>
        <time>2026-05-20T11:10:42Z</time>
      </trkpt>
      <trkpt lat="43.614" lon="3.03579">
        <ele>730.7</ele>
        <time>2026-05-20T11:10:47Z</time>
      </trkpt>
      <trkpt lat="43.61399" lon="3.03576">
        <ele>730.9</ele>
        <time>2026-05-20T11:10:52Z</time>
      </trkpt>
      <trkpt lat="43.61397" lon="3.03573">
        <ele>731.2</ele>
        <time>2026-05-20T11:10:57Z</time>
      </trkpt>
      <trkpt lat="43.61395" lon="3.03567">
        <ele>731.7</ele>
        <time>2026-05-20T11:11:02Z</time>
      </trkpt>
      <trkpt lat="43.61394" lon="3.03562">
        <ele>732.2</ele>
        <time>2026-05-20T11:11:07Z</time>
      </trkpt>
      <trkpt lat="43.61394" lon="3.03557">
        <ele>732.8</ele>
        <time>2026-05-20T11:11:12Z</time>
      </trkpt>
      <trkpt lat="43.61393" lon="3.03552">
        <ele>733.3</ele>
        <time>2026-05-20T11:11:17Z</time>
      </trkpt>
      <trkpt lat="43.61393" lon="3.03548">
        <ele>733.7</ele>
        <time>2026-05-20T11:11:22Z</time>
      </trkpt>
      <trkpt lat="43.61391" lon="3.03543">
        <ele>734.2</ele>
        <time>2026-05-20T11:11:27Z</time>
      </trkpt>
      <trkpt lat="43.6139" lon="3.03537">
        <ele>734.9</ele>
        <time>2026-05-20T11:11:32Z</time>
      </trkpt>
      <trkpt lat="43.61388" lon="3.03533">
        <ele>735.3</ele>
        <time>2026-05-20T11:11:37Z</time>
      </trkpt>
      <trkpt lat="43.61386" lon="3.03526">
        <ele>736</ele>
        <time>2026-05-20T11:11:42Z</time>
      </trkpt>
      <trkpt lat="43.61383" lon="3.03521">
        <ele>736.6</ele>
        <time>2026-05-20T11:11:47Z</time>
      </trkpt>
      <trkpt lat="43.61382" lon="3.03517">
        <ele>737</ele>
        <time>2026-05-20T11:11:52Z</time>
      </trkpt>
      <trkpt lat="43.6138" lon="3.03512">
        <ele>737.6</ele>
        <time>2026-05-20T11:11:57Z</time>
      </trkpt>
      <trkpt lat="43.6138" lon="3.03506">
        <ele>738.3</ele>
        <time>2026-05-20T11:12:02Z</time>
      </trkpt>
      <trkpt lat="43.6138" lon="3.03501">
        <ele>738.9</ele>
        <time>2026-05-20T11:12:07Z</time>
      </trkpt>
      <trkpt lat="43.6138" lon="3.03495">
        <ele>739.4</ele>
        <time>2026-05-20T11:12:12Z</time>
      </trkpt>
      <trkpt lat="43.61378" lon="3.03489">
        <ele>739.9</ele>
        <time>2026-05-20T11:12:17Z</time>
      </trkpt>
      <trkpt lat="43.61378" lon="3.03482">
        <ele>740.5</ele>
        <time>2026-05-20T11:12:22Z</time>
      </trkpt>
      <trkpt lat="43.61378" lon="3.03476">
        <ele>741</ele>
        <time>2026-05-20T11:12:27Z</time>
      </trkpt>
      <trkpt lat="43.61378" lon="3.0347">
        <ele>741.5</ele>
        <time>2026-05-20T11:12:32Z</time>
      </trkpt>
      <trkpt lat="43.61377" lon="3.03464">
        <ele>742</ele>
        <time>2026-05-20T11:12:37Z</time>
      </trkpt>
      <trkpt lat="43.61377" lon="3.03457">
        <ele>742.6</ele>
        <time>2026-05-20T11:12:42Z</time>
      </trkpt>
      <trkpt lat="43.61377" lon="3.03451">
        <ele>743.1</ele>
        <time>2026-05-20T11:12:47Z</time>
      </trkpt>
      <trkpt lat="43.61377" lon="3.03445">
        <ele>743.6</ele>
        <time>2026-05-20T11:12:52Z</time>
      </trkpt>
      <trkpt lat="43.61376" lon="3.03438">
        <ele>744.2</ele>
        <time>2026-05-20T11:12:57Z</time>
      </trkpt>
      <trkpt lat="43.61376" lon="3.03432">
        <ele>744.7</ele>
        <time>2026-05-20T11:13:02Z</time>
      </trkpt>
      <trkpt lat="43.61376" lon="3.03427">
        <ele>745.1</ele>
        <time>2026-05-20T11:13:07Z</time>
      </trkpt>
      <trkpt lat="43.61377" lon="3.03421">
        <ele>745.6</ele>
        <time>2026-05-20T11:13:12Z</time>
      </trkpt>
      <trkpt lat="43.61377" lon="3.03416">
        <ele>746</ele>
        <time>2026-05-20T11:13:17Z</time>
      </trkpt>
      <trkpt lat="43.61375" lon="3.03411">
        <ele>746.6</ele>
        <time>2026-05-20T11:13:22Z</time>
      </trkpt>
      <trkpt lat="43.61375" lon="3.03407">
        <ele>747.1</ele>
        <time>2026-05-20T11:13:27Z</time>
      </trkpt>
      <trkpt lat="43.61376" lon="3.03401">
        <ele>747.8</ele>
        <time>2026-05-20T11:13:32Z</time>
      </trkpt>
      <trkpt lat="43.61375" lon="3.03395">
        <ele>748.5</ele>
        <time>2026-05-20T11:13:37Z</time>
      </trkpt>
      <trkpt lat="43.61375" lon="3.03389">
        <ele>749.2</ele>
        <time>2026-05-20T11:13:42Z</time>
      </trkpt>
      <trkpt lat="43.61376" lon="3.03385">
        <ele>749.6</ele>
        <time>2026-05-20T11:13:47Z</time>
      </trkpt>
      <trkpt lat="43.61376" lon="3.03381">
        <ele>750.1</ele>
        <time>2026-05-20T11:13:52Z</time>
      </trkpt>
      <trkpt lat="43.61376" lon="3.03375">
        <ele>750.7</ele>
        <time>2026-05-20T11:13:57Z</time>
      </trkpt>
      <trkpt lat="43.61375" lon="3.03369">
        <ele>751.4</ele>
        <time>2026-05-20T11:14:02Z</time>
      </trkpt>
      <trkpt lat="43.61374" lon="3.03364">
        <ele>752</ele>
        <time>2026-05-20T11:14:07Z</time>
      </trkpt>
      <trkpt lat="43.61373" lon="3.03359">
        <ele>752.6</ele>
        <time>2026-05-20T11:14:12Z</time>
      </trkpt>
      <trkpt lat="43.61372" lon="3.03353">
        <ele>753.2</ele>
        <time>2026-05-20T11:14:17Z</time>
      </trkpt>
      <trkpt lat="43.61373" lon="3.03347">
        <ele>753.9</ele>
        <time>2026-05-20T11:14:22Z</time>
      </trkpt>
      <trkpt lat="43.61374" lon="3.03341">
        <ele>754.6</ele>
        <time>2026-05-20T11:14:27Z</time>
      </trkpt>
      <trkpt lat="43.61376" lon="3.03337">
        <ele>755.1</ele>
        <time>2026-05-20T11:14:32Z</time>
      </trkpt>
      <trkpt lat="43.61378" lon="3.03334">
        <ele>755.5</ele>
        <time>2026-05-20T11:14:37Z</time>
      </trkpt>
      <trkpt lat="43.61381" lon="3.03331">
        <ele>755.3</ele>
        <time>2026-05-20T11:14:42Z</time>
      </trkpt>
      <trkpt lat="43.61381" lon="3.03329">
        <ele>755.1</ele>
        <time>2026-05-20T11:14:47Z</time>
      </trkpt>
      <trkpt lat="43.61381" lon="3.03329">
        <ele>755.1</ele>
        <time>2026-05-20T11:14:52Z</time>
      </trkpt>
      <trkpt lat="43.61381" lon="3.03329">
        <ele>755.1</ele>
        <time>2026-05-20T11:14:57Z</time>
      </trkpt>
      <trkpt lat="43.61384" lon="3.03327">
        <ele>754.9</ele>
        <time>2026-05-20T11:15:02Z</time>
      </trkpt>
      <trkpt lat="43.61385" lon="3.03325">
        <ele>754.7</ele>
        <time>2026-05-20T11:15:07Z</time>
      </trkpt>
      <trkpt lat="43.61386" lon="3.03323">
        <ele>754.5</ele>
        <time>2026-05-20T11:15:12Z</time>
      </trkpt>
      <trkpt lat="43.61386" lon="3.03322">
        <ele>754.4</ele>
        <time>2026-05-20T11:15:17Z</time>
      </trkpt>
      <trkpt lat="43.61389" lon="3.03319">
        <ele>754.1</ele>
        <time>2026-05-20T11:15:22Z</time>
      </trkpt>
      <trkpt lat="43.61391" lon="3.03314">
        <ele>753.5</ele>
        <time>2026-05-20T11:15:27Z</time>
      </trkpt>
      <trkpt lat="43.61392" lon="3.03309">
        <ele>753</ele>
        <time>2026-05-20T11:15:32Z</time>
      </trkpt>
      <trkpt lat="43.61392" lon="3.03304">
        <ele>752.4</ele>
        <time>2026-05-20T11:15:37Z</time>
      </trkpt>
      <trkpt lat="43.61393" lon="3.03301">
        <ele>752.1</ele>
        <time>2026-05-20T11:15:42Z</time>
      </trkpt>
      <trkpt lat="43.6139" lon="3.03298">
        <ele>751.7</ele>
        <time>2026-05-20T11:15:47Z</time>
      </trkpt>
      <trkpt lat="43.61389" lon="3.03294">
        <ele>751.3</ele>
        <time>2026-05-20T11:15:52Z</time>
      </trkpt>
      <trkpt lat="43.61392" lon="3.03288">
        <ele>750.6</ele>
        <time>2026-05-20T11:15:57Z</time>
      </trkpt>
      <trkpt lat="43.61397" lon="3.03284">
        <ele>750.1</ele>
        <time>2026-05-20T11:16:02Z</time>
      </trkpt>
      <trkpt lat="43.61399" lon="3.03279">
        <ele>749.5</ele>
        <time>2026-05-20T11:16:07Z</time>
      </trkpt>
      <trkpt lat="43.61402" lon="3.03274">
        <ele>749</ele>
        <time>2026-05-20T11:16:12Z</time>
      </trkpt>
      <trkpt lat="43.61405" lon="3.0327">
        <ele>748.5</ele>
        <time>2026-05-20T11:16:17Z</time>
      </trkpt>
      <trkpt lat="43.61406" lon="3.03269">
        <ele>748.3</ele>
        <time>2026-05-20T11:16:22Z</time>
      </trkpt>
      <trkpt lat="43.61407" lon="3.03269">
        <ele>748.3</ele>
        <time>2026-05-20T11:16:27Z</time>
      </trkpt>
      <trkpt lat="43.61407" lon="3.03269">
        <ele>748.3</ele>
        <time>2026-05-20T11:16:32Z</time>
      </trkpt>
      <trkpt lat="43.61407" lon="3.03269">
        <ele>748.3</ele>
        <time>2026-05-20T11:16:37Z</time>
      </trkpt>
      <trkpt lat="43.61407" lon="3.03269">
        <ele>748.3</ele>
        <time>2026-05-20T11:16:42Z</time>
      </trkpt>
      <trkpt lat="43.61407" lon="3.03269">
        <ele>748.3</ele>
        <time>2026-05-20T11:16:47Z</time>
      </trkpt>
      <trkpt lat="43.61407" lon="3.03269">
        <ele>748.3</ele>
        <time>2026-05-20T11:16:52Z</time>
      </trkpt>
      <trkpt lat="43.61407" lon="3.03269">
        <ele>748.3</ele>
        <time>2026-05-20T11:16:57Z</time>
      </trkpt>
      <trkpt lat="43.61407" lon="3.03269">
        <ele>748.3</ele>
        <time>2026-05-20T11:17:02Z</time>
      </trkpt>
      <trkpt lat="43.61407" lon="3.03269">
        <ele>748.3</ele>
        <time>2026-05-20T11:17:07Z</time>
      </trkpt>
      <trkpt lat="43.61407" lon="3.03269">
        <ele>748.3</ele>
        <time>2026-05-20T11:17:12Z</time>
      </trkpt>
      <trkpt lat="43.61407" lon="3.03269">
        <ele>748.3</ele>
        <time>2026-05-20T11:17:17Z</time>
      </trkpt>
      <trkpt lat="43.61407" lon="3.03269">
        <ele>748.3</ele>
        <time>2026-05-20T11:17:22Z</time>
      </trkpt>
      <trkpt lat="43.61407" lon="3.03269">
        <ele>748.3</ele>
        <time>2026-05-20T11:17:27Z</time>
      </trkpt>
      <trkpt lat="43.61407" lon="3.03269">
        <ele>748.3</ele>
        <time>2026-05-20T11:17:32Z</time>
      </trkpt>
      <trkpt lat="43.61407" lon="3.03269">
        <ele>748.3</ele>
        <time>2026-05-20T11:17:37Z</time>
      </trkpt>
      <trkpt lat="43.61407" lon="3.03269">
        <ele>748.3</ele>
        <time>2026-05-20T11:17:42Z</time>
      </trkpt>
      <trkpt lat="43.61407" lon="3.03269">
        <ele>748.3</ele>
        <time>2026-05-20T11:17:47Z</time>
      </trkpt>
      <trkpt lat="43.61407" lon="3.03269">
        <ele>748.3</ele>
        <time>2026-05-20T11:17:52Z</time>
      </trkpt>
      <trkpt lat="43.61407" lon="3.03269">
        <ele>748.3</ele>
        <time>2026-05-20T11:17:57Z</time>
      </trkpt>
      <trkpt lat="43.61407" lon="3.03269">
        <ele>748.3</ele>
        <time>2026-05-20T11:18:02Z</time>
      </trkpt>
      <trkpt lat="43.61407" lon="3.03269">
        <ele>748.3</ele>
        <time>2026-05-20T11:18:07Z</time>
      </trkpt>
      <trkpt lat="43.61407" lon="3.03269">
        <ele>748.3</ele>
        <time>2026-05-20T11:18:12Z</time>
      </trkpt>
      <trkpt lat="43.61407" lon="3.03269">
        <ele>748.3</ele>
        <time>2026-05-20T11:18:17Z</time>
      </trkpt>
      <trkpt lat="43.61407" lon="3.03269">
        <ele>748.3</ele>
        <time>2026-05-20T11:18:22Z</time>
      </trkpt>
      <trkpt lat="43.61407" lon="3.03269">
        <ele>748.3</ele>
        <time>2026-05-20T11:18:27Z</time>
      </trkpt>
      <trkpt lat="43.61407" lon="3.03269">
        <ele>748.3</ele>
        <time>2026-05-20T11:18:32Z</time>
      </trkpt>
      <trkpt lat="43.61407" lon="3.03269">
        <ele>748.3</ele>
        <time>2026-05-20T11:18:37Z</time>
      </trkpt>
      <trkpt lat="43.61407" lon="3.03269">
        <ele>748.3</ele>
        <time>2026-05-20T11:18:42Z</time>
      </trkpt>
      <trkpt lat="43.61407" lon="3.03269">
        <ele>748.3</ele>
        <time>2026-05-20T11:18:47Z</time>
      </trkpt>
      <trkpt lat="43.61407" lon="3.03269">
        <ele>748.3</ele>
        <time>2026-05-20T11:18:52Z</time>
      </trkpt>
      <trkpt lat="43.61407" lon="3.03269">
        <ele>748.3</ele>
        <time>2026-05-20T11:18:57Z</time>
      </trkpt>
      <trkpt lat="43.61407" lon="3.03269">
        <ele>748.3</ele>
        <time>2026-05-20T11:19:02Z</time>
      </trkpt>
      <trkpt lat="43.61405" lon="3.03271">
        <ele>748.6</ele>
        <time>2026-05-20T11:19:07Z</time>
      </trkpt>
      <trkpt lat="43.61401" lon="3.03275">
        <ele>749.1</ele>
        <time>2026-05-20T11:19:12Z</time>
      </trkpt>
      <trkpt lat="43.61397" lon="3.0328">
        <ele>749.7</ele>
        <time>2026-05-20T11:19:17Z</time>
      </trkpt>
      <trkpt lat="43.61393" lon="3.03286">
        <ele>750.4</ele>
        <time>2026-05-20T11:19:22Z</time>
      </trkpt>
      <trkpt lat="43.61388" lon="3.03291">
        <ele>750.9</ele>
        <time>2026-05-20T11:19:27Z</time>
      </trkpt>
      <trkpt lat="43.61382" lon="3.03295">
        <ele>751.4</ele>
        <time>2026-05-20T11:19:32Z</time>
      </trkpt>
      <trkpt lat="43.61378" lon="3.03301">
        <ele>752</ele>
        <time>2026-05-20T11:19:37Z</time>
      </trkpt>
      <trkpt lat="43.61374" lon="3.03307">
        <ele>752.7</ele>
        <time>2026-05-20T11:19:42Z</time>
      </trkpt>
      <trkpt lat="43.6137" lon="3.03314">
        <ele>753.4</ele>
        <time>2026-05-20T11:19:47Z</time>
      </trkpt>
      <trkpt lat="43.61365" lon="3.03322">
        <ele>754.2</ele>
        <time>2026-05-20T11:19:52Z</time>
      </trkpt>
      <trkpt lat="43.61361" lon="3.03326">
        <ele>754.6</ele>
        <time>2026-05-20T11:19:57Z</time>
      </trkpt>
      <trkpt lat="43.61359" lon="3.03327">
        <ele>754.7</ele>
        <time>2026-05-20T11:20:02Z</time>
      </trkpt>
      <trkpt lat="43.61359" lon="3.03327">
        <ele>754.7</ele>
        <time>2026-05-20T11:20:07Z</time>
      </trkpt>
      <trkpt lat="43.61359" lon="3.03322">
        <ele>754.1</ele>
        <time>2026-05-20T11:20:12Z</time>
      </trkpt>
      <trkpt lat="43.61355" lon="3.03316">
        <ele>753.5</ele>
        <time>2026-05-20T11:20:17Z</time>
      </trkpt>
      <trkpt lat="43.61353" lon="3.03315">
        <ele>753.4</ele>
        <time>2026-05-20T11:20:22Z</time>
      </trkpt>
      <trkpt lat="43.61352" lon="3.03312">
        <ele>753.1</ele>
        <time>2026-05-20T11:20:27Z</time>
      </trkpt>
      <trkpt lat="43.6135" lon="3.0331">
        <ele>752.8</ele>
        <time>2026-05-20T11:20:32Z</time>
      </trkpt>
      <trkpt lat="43.61345" lon="3.03305">
        <ele>752.3</ele>
        <time>2026-05-20T11:20:37Z</time>
      </trkpt>
      <trkpt lat="43.61341" lon="3.03299">
        <ele>751.7</ele>
        <time>2026-05-20T11:20:42Z</time>
      </trkpt>
      <trkpt lat="43.61336" lon="3.03293">
        <ele>751.1</ele>
        <time>2026-05-20T11:20:47Z</time>
      </trkpt>
      <trkpt lat="43.61332" lon="3.03286">
        <ele>750.4</ele>
        <time>2026-05-20T11:20:52Z</time>
      </trkpt>
      <trkpt lat="43.61327" lon="3.03281">
        <ele>749.9</ele>
        <time>2026-05-20T11:20:57Z</time>
      </trkpt>
      <trkpt lat="43.61322" lon="3.03276">
        <ele>749.4</ele>
        <time>2026-05-20T11:21:02Z</time>
      </trkpt>
      <trkpt lat="43.61318" lon="3.0327">
        <ele>748.9</ele>
        <time>2026-05-20T11:21:07Z</time>
      </trkpt>
      <trkpt lat="43.61314" lon="3.03266">
        <ele>748.5</ele>
        <time>2026-05-20T11:21:12Z</time>
      </trkpt>
      <trkpt lat="43.61309" lon="3.03259">
        <ele>748</ele>
        <time>2026-05-20T11:21:17Z</time>
      </trkpt>
      <trkpt lat="43.61305" lon="3.03253">
        <ele>747.6</ele>
        <time>2026-05-20T11:21:22Z</time>
      </trkpt>
      <trkpt lat="43.61301" lon="3.03247">
        <ele>747.3</ele>
        <time>2026-05-20T11:21:27Z</time>
      </trkpt>
      <trkpt lat="43.61296" lon="3.03243">
        <ele>747.2</ele>
        <time>2026-05-20T11:21:32Z</time>
      </trkpt>
      <trkpt lat="43.61291" lon="3.03237">
        <ele>747.1</ele>
        <time>2026-05-20T11:21:37Z</time>
      </trkpt>
      <trkpt lat="43.61286" lon="3.03231">
        <ele>747.1</ele>
        <time>2026-05-20T11:21:42Z</time>
      </trkpt>
      <trkpt lat="43.61281" lon="3.03225">
        <ele>747.1</ele>
        <time>2026-05-20T11:21:47Z</time>
      </trkpt>
      <trkpt lat="43.61276" lon="3.03219">
        <ele>747.2</ele>
        <time>2026-05-20T11:21:52Z</time>
      </trkpt>
      <trkpt lat="43.61271" lon="3.03213">
        <ele>747.4</ele>
        <time>2026-05-20T11:21:57Z</time>
      </trkpt>
      <trkpt lat="43.61266" lon="3.03205">
        <ele>747.6</ele>
        <time>2026-05-20T11:22:02Z</time>
      </trkpt>
      <trkpt lat="43.61262" lon="3.03198">
        <ele>747.9</ele>
        <time>2026-05-20T11:22:07Z</time>
      </trkpt>
      <trkpt lat="43.61258" lon="3.03193">
        <ele>748.1</ele>
        <time>2026-05-20T11:22:12Z</time>
      </trkpt>
      <trkpt lat="43.61257" lon="3.03191">
        <ele>748.2</ele>
        <time>2026-05-20T11:22:17Z</time>
      </trkpt>
      <trkpt lat="43.61252" lon="3.03187">
        <ele>748.6</ele>
        <time>2026-05-20T11:22:22Z</time>
      </trkpt>
      <trkpt lat="43.61251" lon="3.0318">
        <ele>748.8</ele>
        <time>2026-05-20T11:22:27Z</time>
      </trkpt>
      <trkpt lat="43.61251" lon="3.03177">
        <ele>748.8</ele>
        <time>2026-05-20T11:22:32Z</time>
      </trkpt>
      <trkpt lat="43.61251" lon="3.03177">
        <ele>748.8</ele>
        <time>2026-05-20T11:22:37Z</time>
      </trkpt>
      <trkpt lat="43.6125" lon="3.03175">
        <ele>748.9</ele>
        <time>2026-05-20T11:22:42Z</time>
      </trkpt>
      <trkpt lat="43.61245" lon="3.03172">
        <ele>749.7</ele>
        <time>2026-05-20T11:22:47Z</time>
      </trkpt>
      <trkpt lat="43.61241" lon="3.03167">
        <ele>750.4</ele>
        <time>2026-05-20T11:22:52Z</time>
      </trkpt>
      <trkpt lat="43.61237" lon="3.03162">
        <ele>751.1</ele>
        <time>2026-05-20T11:22:57Z</time>
      </trkpt>
      <trkpt lat="43.61233" lon="3.03159">
        <ele>751.7</ele>
        <time>2026-05-20T11:23:02Z</time>
      </trkpt>
      <trkpt lat="43.61229" lon="3.03156">
        <ele>752.4</ele>
        <time>2026-05-20T11:23:07Z</time>
      </trkpt>
      <trkpt lat="43.61227" lon="3.03151">
        <ele>752.7</ele>
        <time>2026-05-20T11:23:12Z</time>
      </trkpt>
      <trkpt lat="43.61226" lon="3.03146">
        <ele>753</ele>
        <time>2026-05-20T11:23:17Z</time>
      </trkpt>
      <trkpt lat="43.61223" lon="3.0314">
        <ele>753.5</ele>
        <time>2026-05-20T11:23:22Z</time>
      </trkpt>
      <trkpt lat="43.6122" lon="3.03136">
        <ele>754.1</ele>
        <time>2026-05-20T11:23:27Z</time>
      </trkpt>
      <trkpt lat="43.61216" lon="3.03129">
        <ele>754.9</ele>
        <time>2026-05-20T11:23:32Z</time>
      </trkpt>
      <trkpt lat="43.61213" lon="3.03125">
        <ele>755.4</ele>
        <time>2026-05-20T11:23:37Z</time>
      </trkpt>
      <trkpt lat="43.61211" lon="3.03117">
        <ele>755.9</ele>
        <time>2026-05-20T11:23:42Z</time>
      </trkpt>
      <trkpt lat="43.6121" lon="3.03109">
        <ele>756.2</ele>
        <time>2026-05-20T11:23:47Z</time>
      </trkpt>
      <trkpt lat="43.61211" lon="3.03103">
        <ele>756.2</ele>
        <time>2026-05-20T11:23:52Z</time>
      </trkpt>
      <trkpt lat="43.61212" lon="3.03099">
        <ele>756</ele>
        <time>2026-05-20T11:23:57Z</time>
      </trkpt>
      <trkpt lat="43.61212" lon="3.03099">
        <ele>756</ele>
        <time>2026-05-20T11:24:02Z</time>
      </trkpt>
      <trkpt lat="43.61212" lon="3.03099">
        <ele>756</ele>
        <time>2026-05-20T11:24:07Z</time>
      </trkpt>
      <trkpt lat="43.61213" lon="3.03094">
        <ele>755.9</ele>
        <time>2026-05-20T11:24:12Z</time>
      </trkpt>
      <trkpt lat="43.61217" lon="3.03084">
        <ele>755.3</ele>
        <time>2026-05-20T11:24:17Z</time>
      </trkpt>
      <trkpt lat="43.61219" lon="3.03075">
        <ele>754.3</ele>
        <time>2026-05-20T11:24:22Z</time>
      </trkpt>
      <trkpt lat="43.61222" lon="3.03066">
        <ele>753.2</ele>
        <time>2026-05-20T11:24:27Z</time>
      </trkpt>
      <trkpt lat="43.61223" lon="3.03058">
        <ele>752.5</ele>
        <time>2026-05-20T11:24:32Z</time>
      </trkpt>
      <trkpt lat="43.61225" lon="3.0305">
        <ele>751.7</ele>
        <time>2026-05-20T11:24:37Z</time>
      </trkpt>
      <trkpt lat="43.61229" lon="3.03041">
        <ele>750.6</ele>
        <time>2026-05-20T11:24:42Z</time>
      </trkpt>
      <trkpt lat="43.61232" lon="3.03031">
        <ele>749.7</ele>
        <time>2026-05-20T11:24:47Z</time>
      </trkpt>
      <trkpt lat="43.61234" lon="3.03024">
        <ele>749.1</ele>
        <time>2026-05-20T11:24:52Z</time>
      </trkpt>
      <trkpt lat="43.61237" lon="3.03015">
        <ele>748.4</ele>
        <time>2026-05-20T11:24:57Z</time>
      </trkpt>
      <trkpt lat="43.61242" lon="3.03008">
        <ele>747.8</ele>
        <time>2026-05-20T11:25:02Z</time>
      </trkpt>
      <trkpt lat="43.61245" lon="3.03003">
        <ele>747.4</ele>
        <time>2026-05-20T11:25:07Z</time>
      </trkpt>
      <trkpt lat="43.6125" lon="3.03001">
        <ele>747</ele>
        <time>2026-05-20T11:25:12Z</time>
      </trkpt>
      <trkpt lat="43.61255" lon="3.02999">
        <ele>746.1</ele>
        <time>2026-05-20T11:25:17Z</time>
      </trkpt>
      <trkpt lat="43.61257" lon="3.02998">
        <ele>745.7</ele>
        <time>2026-05-20T11:25:22Z</time>
      </trkpt>
      <trkpt lat="43.61256" lon="3.02999">
        <ele>746</ele>
        <time>2026-05-20T11:25:27Z</time>
      </trkpt>
      <trkpt lat="43.61256" lon="3.02999">
        <ele>746</ele>
        <time>2026-05-20T11:25:32Z</time>
      </trkpt>
      <trkpt lat="43.61256" lon="3.02999">
        <ele>746</ele>
        <time>2026-05-20T11:25:37Z</time>
      </trkpt>
      <trkpt lat="43.61256" lon="3.02999">
        <ele>746</ele>
        <time>2026-05-20T11:25:42Z</time>
      </trkpt>
      <trkpt lat="43.61256" lon="3.02999">
        <ele>746</ele>
        <time>2026-05-20T11:25:47Z</time>
      </trkpt>
      <trkpt lat="43.61251" lon="3.03001">
        <ele>746.9</ele>
        <time>2026-05-20T11:25:52Z</time>
      </trkpt>
      <trkpt lat="43.61248" lon="3.02995">
        <ele>746.3</ele>
        <time>2026-05-20T11:25:57Z</time>
      </trkpt>
      <trkpt lat="43.61248" lon="3.02986">
        <ele>744.7</ele>
        <time>2026-05-20T11:26:02Z</time>
      </trkpt>
      <trkpt lat="43.61251" lon="3.02978">
        <ele>743.2</ele>
        <time>2026-05-20T11:26:07Z</time>
      </trkpt>
      <trkpt lat="43.61255" lon="3.0297">
        <ele>741.5</ele>
        <time>2026-05-20T11:26:12Z</time>
      </trkpt>
      <trkpt lat="43.61258" lon="3.02962">
        <ele>740.1</ele>
        <time>2026-05-20T11:26:17Z</time>
      </trkpt>
      <trkpt lat="43.61262" lon="3.02953">
        <ele>738.5</ele>
        <time>2026-05-20T11:26:22Z</time>
      </trkpt>
      <trkpt lat="43.61262" lon="3.02945">
        <ele>737.4</ele>
        <time>2026-05-20T11:26:27Z</time>
      </trkpt>
      <trkpt lat="43.61263" lon="3.02937">
        <ele>736.2</ele>
        <time>2026-05-20T11:26:32Z</time>
      </trkpt>
      <trkpt lat="43.61265" lon="3.02929">
        <ele>735.1</ele>
        <time>2026-05-20T11:26:37Z</time>
      </trkpt>
      <trkpt lat="43.61267" lon="3.0292">
        <ele>733.9</ele>
        <time>2026-05-20T11:26:42Z</time>
      </trkpt>
      <trkpt lat="43.6127" lon="3.02914">
        <ele>732.7</ele>
        <time>2026-05-20T11:26:47Z</time>
      </trkpt>
      <trkpt lat="43.61273" lon="3.02906">
        <ele>730.7</ele>
        <time>2026-05-20T11:26:52Z</time>
      </trkpt>
      <trkpt lat="43.61275" lon="3.02898">
        <ele>728.6</ele>
        <time>2026-05-20T11:26:57Z</time>
      </trkpt>
      <trkpt lat="43.61278" lon="3.0289">
        <ele>726.8</ele>
        <time>2026-05-20T11:27:02Z</time>
      </trkpt>
      <trkpt lat="43.61281" lon="3.02883">
        <ele>725.2</ele>
        <time>2026-05-20T11:27:07Z</time>
      </trkpt>
      <trkpt lat="43.61284" lon="3.02878">
        <ele>724.3</ele>
        <time>2026-05-20T11:27:12Z</time>
      </trkpt>
      <trkpt lat="43.61285" lon="3.02874">
        <ele>723.5</ele>
        <time>2026-05-20T11:27:17Z</time>
      </trkpt>
      <trkpt lat="43.61286" lon="3.02869">
        <ele>722.4</ele>
        <time>2026-05-20T11:27:22Z</time>
      </trkpt>
      <trkpt lat="43.6129" lon="3.02861">
        <ele>721.1</ele>
        <time>2026-05-20T11:27:27Z</time>
      </trkpt>
      <trkpt lat="43.61291" lon="3.02852">
        <ele>719.1</ele>
        <time>2026-05-20T11:27:32Z</time>
      </trkpt>
      <trkpt lat="43.61293" lon="3.0284">
        <ele>716.8</ele>
        <time>2026-05-20T11:27:37Z</time>
      </trkpt>
      <trkpt lat="43.61296" lon="3.0283">
        <ele>715.3</ele>
        <time>2026-05-20T11:27:42Z</time>
      </trkpt>
      <trkpt lat="43.61297" lon="3.02822">
        <ele>714</ele>
        <time>2026-05-20T11:27:47Z</time>
      </trkpt>
      <trkpt lat="43.61301" lon="3.02815">
        <ele>713.7</ele>
        <time>2026-05-20T11:27:52Z</time>
      </trkpt>
      <trkpt lat="43.61303" lon="3.02807">
        <ele>712.8</ele>
        <time>2026-05-20T11:27:57Z</time>
      </trkpt>
      <trkpt lat="43.61303" lon="3.02799">
        <ele>711.4</ele>
        <time>2026-05-20T11:28:02Z</time>
      </trkpt>
      <trkpt lat="43.61303" lon="3.02792">
        <ele>710.1</ele>
        <time>2026-05-20T11:28:07Z</time>
      </trkpt>
      <trkpt lat="43.61303" lon="3.02785">
        <ele>708.9</ele>
        <time>2026-05-20T11:28:12Z</time>
      </trkpt>
      <trkpt lat="43.61304" lon="3.02777">
        <ele>707.8</ele>
        <time>2026-05-20T11:28:17Z</time>
      </trkpt>
      <trkpt lat="43.61302" lon="3.0277">
        <ele>705.9</ele>
        <time>2026-05-20T11:28:22Z</time>
      </trkpt>
      <trkpt lat="43.61301" lon="3.02763">
        <ele>704.3</ele>
        <time>2026-05-20T11:28:27Z</time>
      </trkpt>
      <trkpt lat="43.61302" lon="3.02755">
        <ele>703.2</ele>
        <time>2026-05-20T11:28:32Z</time>
      </trkpt>
      <trkpt lat="43.61302" lon="3.02748">
        <ele>702</ele>
        <time>2026-05-20T11:28:37Z</time>
      </trkpt>
      <trkpt lat="43.61303" lon="3.02743">
        <ele>701.3</ele>
        <time>2026-05-20T11:28:42Z</time>
      </trkpt>
      <trkpt lat="43.61302" lon="3.02736">
        <ele>699.6</ele>
        <time>2026-05-20T11:28:47Z</time>
      </trkpt>
      <trkpt lat="43.61302" lon="3.02729">
        <ele>698.2</ele>
        <time>2026-05-20T11:28:52Z</time>
      </trkpt>
      <trkpt lat="43.613" lon="3.02722">
        <ele>696</ele>
        <time>2026-05-20T11:28:57Z</time>
      </trkpt>
      <trkpt lat="43.61298" lon="3.02715">
        <ele>693.8</ele>
        <time>2026-05-20T11:29:02Z</time>
      </trkpt>
      <trkpt lat="43.61298" lon="3.02707">
        <ele>692.2</ele>
        <time>2026-05-20T11:29:07Z</time>
      </trkpt>
      <trkpt lat="43.61297" lon="3.02702">
        <ele>690.7</ele>
        <time>2026-05-20T11:29:12Z</time>
      </trkpt>
      <trkpt lat="43.61297" lon="3.02694">
        <ele>689.1</ele>
        <time>2026-05-20T11:29:17Z</time>
      </trkpt>
      <trkpt lat="43.61299" lon="3.02685">
        <ele>688.2</ele>
        <time>2026-05-20T11:29:22Z</time>
      </trkpt>
      <trkpt lat="43.61298" lon="3.02678">
        <ele>686.3</ele>
        <time>2026-05-20T11:29:27Z</time>
      </trkpt>
      <trkpt lat="43.61299" lon="3.0267">
        <ele>685.2</ele>
        <time>2026-05-20T11:29:32Z</time>
      </trkpt>
      <trkpt lat="43.613" lon="3.02669">
        <ele>685.5</ele>
        <time>2026-05-20T11:29:37Z</time>
      </trkpt>
      <trkpt lat="43.61299" lon="3.02666">
        <ele>684.4</ele>
        <time>2026-05-20T11:29:42Z</time>
      </trkpt>
      <trkpt lat="43.61299" lon="3.02665">
        <ele>684.1</ele>
        <time>2026-05-20T11:29:47Z</time>
      </trkpt>
      <trkpt lat="43.61299" lon="3.02665">
        <ele>684.1</ele>
        <time>2026-05-20T11:29:52Z</time>
      </trkpt>
      <trkpt lat="43.61299" lon="3.02665">
        <ele>684.1</ele>
        <time>2026-05-20T11:29:57Z</time>
      </trkpt>
      <trkpt lat="43.61299" lon="3.02665">
        <ele>684.1</ele>
        <time>2026-05-20T11:30:02Z</time>
      </trkpt>
      <trkpt lat="43.613" lon="3.02665">
        <ele>684.6</ele>
        <time>2026-05-20T11:30:07Z</time>
      </trkpt>
      <trkpt lat="43.61301" lon="3.02662">
        <ele>684.4</ele>
        <time>2026-05-20T11:30:12Z</time>
      </trkpt>
      <trkpt lat="43.61301" lon="3.0266">
        <ele>683.9</ele>
        <time>2026-05-20T11:30:17Z</time>
      </trkpt>
      <trkpt lat="43.61301" lon="3.0266">
        <ele>683.9</ele>
        <time>2026-05-20T11:30:22Z</time>
      </trkpt>
      <trkpt lat="43.61301" lon="3.02656">
        <ele>682.9</ele>
        <time>2026-05-20T11:30:27Z</time>
      </trkpt>
      <trkpt lat="43.61302" lon="3.02655">
        <ele>683.2</ele>
        <time>2026-05-20T11:30:32Z</time>
      </trkpt>
      <trkpt lat="43.61303" lon="3.02653">
        <ele>683.2</ele>
        <time>2026-05-20T11:30:37Z</time>
      </trkpt>
      <trkpt lat="43.61303" lon="3.02647">
        <ele>681.7</ele>
        <time>2026-05-20T11:30:42Z</time>
      </trkpt>
      <trkpt lat="43.61304" lon="3.02638">
        <ele>680.1</ele>
        <time>2026-05-20T11:30:47Z</time>
      </trkpt>
      <trkpt lat="43.61307" lon="3.02632">
        <ele>680</ele>
        <time>2026-05-20T11:30:52Z</time>
      </trkpt>
      <trkpt lat="43.61311" lon="3.02627">
        <ele>680.7</ele>
        <time>2026-05-20T11:30:57Z</time>
      </trkpt>
      <trkpt lat="43.61312" lon="3.02622">
        <ele>679.9</ele>
        <time>2026-05-20T11:31:02Z</time>
      </trkpt>
      <trkpt lat="43.61313" lon="3.02619">
        <ele>679.6</ele>
        <time>2026-05-20T11:31:07Z</time>
      </trkpt>
      <trkpt lat="43.61317" lon="3.02617">
        <ele>681</ele>
        <time>2026-05-20T11:31:12Z</time>
      </trkpt>
      <trkpt lat="43.61319" lon="3.02615">
        <ele>681.4</ele>
        <time>2026-05-20T11:31:17Z</time>
      </trkpt>
      <trkpt lat="43.6132" lon="3.02611">
        <ele>680.9</ele>
        <time>2026-05-20T11:31:22Z</time>
      </trkpt>
      <trkpt lat="43.6132" lon="3.02607">
        <ele>679.9</ele>
        <time>2026-05-20T11:31:27Z</time>
      </trkpt>
      <trkpt lat="43.61322" lon="3.02603">
        <ele>679.8</ele>
        <time>2026-05-20T11:31:32Z</time>
      </trkpt>
      <trkpt lat="43.61322" lon="3.026">
        <ele>679.1</ele>
        <time>2026-05-20T11:31:37Z</time>
      </trkpt>
      <trkpt lat="43.61323" lon="3.02596">
        <ele>678.5</ele>
        <time>2026-05-20T11:31:42Z</time>
      </trkpt>
      <trkpt lat="43.61324" lon="3.02592">
        <ele>678</ele>
        <time>2026-05-20T11:31:47Z</time>
      </trkpt>
      <trkpt lat="43.61326" lon="3.0259">
        <ele>678.4</ele>
        <time>2026-05-20T11:31:52Z</time>
      </trkpt>
      <trkpt lat="43.61327" lon="3.02588">
        <ele>678.4</ele>
        <time>2026-05-20T11:31:57Z</time>
      </trkpt>
      <trkpt lat="43.61328" lon="3.02583">
        <ele>677.6</ele>
        <time>2026-05-20T11:32:02Z</time>
      </trkpt>
      <trkpt lat="43.61329" lon="3.0258">
        <ele>677.4</ele>
        <time>2026-05-20T11:32:07Z</time>
      </trkpt>
      <trkpt lat="43.6133" lon="3.02576">
        <ele>676.9</ele>
        <time>2026-05-20T11:32:12Z</time>
      </trkpt>
      <trkpt lat="43.6133" lon="3.02573">
        <ele>676.3</ele>
        <time>2026-05-20T11:32:17Z</time>
      </trkpt>
      <trkpt lat="43.61331" lon="3.0257">
        <ele>676</ele>
        <time>2026-05-20T11:32:22Z</time>
      </trkpt>
      <trkpt lat="43.61332" lon="3.02567">
        <ele>675.8</ele>
        <time>2026-05-20T11:32:27Z</time>
      </trkpt>
      <trkpt lat="43.61333" lon="3.02564">
        <ele>675.5</ele>
        <time>2026-05-20T11:32:32Z</time>
      </trkpt>
      <trkpt lat="43.61334" lon="3.02562">
        <ele>675.3</ele>
        <time>2026-05-20T11:32:37Z</time>
      </trkpt>
      <trkpt lat="43.61335" lon="3.02559">
        <ele>675</ele>
        <time>2026-05-20T11:32:42Z</time>
      </trkpt>
      <trkpt lat="43.61335" lon="3.02559">
        <ele>675</ele>
        <time>2026-05-20T11:32:47Z</time>
      </trkpt>
      <trkpt lat="43.61335" lon="3.02559">
        <ele>675</ele>
        <time>2026-05-20T11:32:52Z</time>
      </trkpt>
      <trkpt lat="43.61335" lon="3.02559">
        <ele>675</ele>
        <time>2026-05-20T11:32:57Z</time>
      </trkpt>
      <trkpt lat="43.61335" lon="3.02559">
        <ele>675</ele>
        <time>2026-05-20T11:33:02Z</time>
      </trkpt>
      <trkpt lat="43.61335" lon="3.02559">
        <ele>675</ele>
        <time>2026-05-20T11:33:07Z</time>
      </trkpt>
      <trkpt lat="43.61335" lon="3.02559">
        <ele>675</ele>
        <time>2026-05-20T11:33:12Z</time>
      </trkpt>
      <trkpt lat="43.61335" lon="3.02559">
        <ele>675</ele>
        <time>2026-05-20T11:33:17Z</time>
      </trkpt>
      <trkpt lat="43.61335" lon="3.02559">
        <ele>675</ele>
        <time>2026-05-20T11:33:22Z</time>
      </trkpt>
      <trkpt lat="43.61335" lon="3.02559">
        <ele>675</ele>
        <time>2026-05-20T11:33:27Z</time>
      </trkpt>
      <trkpt lat="43.61335" lon="3.02559">
        <ele>675</ele>
        <time>2026-05-20T11:33:32Z</time>
      </trkpt>
      <trkpt lat="43.61335" lon="3.02559">
        <ele>675</ele>
        <time>2026-05-20T11:33:37Z</time>
      </trkpt>
      <trkpt lat="43.61335" lon="3.02559">
        <ele>675</ele>
        <time>2026-05-20T11:33:42Z</time>
      </trkpt>
      <trkpt lat="43.61336" lon="3.02545">
        <ele>672.1</ele>
        <time>2026-05-20T11:33:47Z</time>
      </trkpt>
      <trkpt lat="43.61337" lon="3.0254">
        <ele>671.2</ele>
        <time>2026-05-20T11:33:52Z</time>
      </trkpt>
      <trkpt lat="43.61338" lon="3.02538">
        <ele>671.1</ele>
        <time>2026-05-20T11:33:57Z</time>
      </trkpt>
      <trkpt lat="43.61339" lon="3.02537">
        <ele>671.2</ele>
        <time>2026-05-20T11:34:02Z</time>
      </trkpt>
      <trkpt lat="43.61339" lon="3.02537">
        <ele>671.2</ele>
        <time>2026-05-20T11:34:07Z</time>
      </trkpt>
      <trkpt lat="43.61339" lon="3.02537">
        <ele>671.2</ele>
        <time>2026-05-20T11:34:12Z</time>
      </trkpt>
      <trkpt lat="43.61339" lon="3.02537">
        <ele>671.2</ele>
        <time>2026-05-20T11:34:17Z</time>
      </trkpt>
      <trkpt lat="43.61339" lon="3.02537">
        <ele>671.2</ele>
        <time>2026-05-20T11:34:22Z</time>
      </trkpt>
      <trkpt lat="43.61339" lon="3.02532">
        <ele>670</ele>
        <time>2026-05-20T11:34:27Z</time>
      </trkpt>
      <trkpt lat="43.6134" lon="3.02527">
        <ele>669.2</ele>
        <time>2026-05-20T11:34:32Z</time>
      </trkpt>
      <trkpt lat="43.61339" lon="3.02523">
        <ele>668</ele>
        <time>2026-05-20T11:34:37Z</time>
      </trkpt>
      <trkpt lat="43.61339" lon="3.02521">
        <ele>667.5</ele>
        <time>2026-05-20T11:34:42Z</time>
      </trkpt>
      <trkpt lat="43.61339" lon="3.0252">
        <ele>667.3</ele>
        <time>2026-05-20T11:34:47Z</time>
      </trkpt>
      <trkpt lat="43.6134" lon="3.02516">
        <ele>666.7</ele>
        <time>2026-05-20T11:34:52Z</time>
      </trkpt>
      <trkpt lat="43.61341" lon="3.02513">
        <ele>666.3</ele>
        <time>2026-05-20T11:34:57Z</time>
      </trkpt>
      <trkpt lat="43.61342" lon="3.0251">
        <ele>666</ele>
        <time>2026-05-20T11:35:02Z</time>
      </trkpt>
      <trkpt lat="43.61342" lon="3.02508">
        <ele>665.5</ele>
        <time>2026-05-20T11:35:07Z</time>
      </trkpt>
      <trkpt lat="43.6134" lon="3.02505">
        <ele>664.2</ele>
        <time>2026-05-20T11:35:12Z</time>
      </trkpt>
      <trkpt lat="43.61339" lon="3.025">
        <ele>662.8</ele>
        <time>2026-05-20T11:35:17Z</time>
      </trkpt>
      <trkpt lat="43.61338" lon="3.02494">
        <ele>662</ele>
        <time>2026-05-20T11:35:22Z</time>
      </trkpt>
      <trkpt lat="43.61339" lon="3.0249">
        <ele>662.1</ele>
        <time>2026-05-20T11:35:27Z</time>
      </trkpt>
      <trkpt lat="43.6134" lon="3.02486">
        <ele>662.1</ele>
        <time>2026-05-20T11:35:32Z</time>
      </trkpt>
      <trkpt lat="43.61342" lon="3.02484">
        <ele>662.5</ele>
        <time>2026-05-20T11:35:37Z</time>
      </trkpt>
      <trkpt lat="43.61342" lon="3.02482">
        <ele>662.3</ele>
        <time>2026-05-20T11:35:42Z</time>
      </trkpt>
      <trkpt lat="43.61344" lon="3.02479">
        <ele>662.6</ele>
        <time>2026-05-20T11:35:47Z</time>
      </trkpt>
      <trkpt lat="43.61344" lon="3.02479">
        <ele>662.6</ele>
        <time>2026-05-20T11:35:52Z</time>
      </trkpt>
      <trkpt lat="43.61344" lon="3.02479">
        <ele>662.6</ele>
        <time>2026-05-20T11:35:57Z</time>
      </trkpt>
      <trkpt lat="43.61344" lon="3.02479">
        <ele>662.6</ele>
        <time>2026-05-20T11:36:02Z</time>
      </trkpt>
      <trkpt lat="43.61344" lon="3.02479">
        <ele>662.6</ele>
        <time>2026-05-20T11:36:07Z</time>
      </trkpt>
      <trkpt lat="43.61344" lon="3.02479">
        <ele>662.6</ele>
        <time>2026-05-20T11:36:12Z</time>
      </trkpt>
      <trkpt lat="43.61344" lon="3.02479">
        <ele>662.6</ele>
        <time>2026-05-20T11:36:17Z</time>
      </trkpt>
      <trkpt lat="43.61344" lon="3.02479">
        <ele>662.6</ele>
        <time>2026-05-20T11:36:22Z</time>
      </trkpt>
      <trkpt lat="43.61348" lon="3.02477">
        <ele>663.6</ele>
        <time>2026-05-20T11:36:27Z</time>
      </trkpt>
      <trkpt lat="43.6135" lon="3.02474">
        <ele>663.8</ele>
        <time>2026-05-20T11:36:32Z</time>
      </trkpt>
      <trkpt lat="43.61352" lon="3.02474">
        <ele>664.4</ele>
        <time>2026-05-20T11:36:37Z</time>
      </trkpt>
      <trkpt lat="43.61356" lon="3.02477">
        <ele>665.7</ele>
        <time>2026-05-20T11:36:42Z</time>
      </trkpt>
      <trkpt lat="43.61358" lon="3.02479">
        <ele>666.5</ele>
        <time>2026-05-20T11:36:47Z</time>
      </trkpt>
      <trkpt lat="43.61361" lon="3.0248">
        <ele>667.4</ele>
        <time>2026-05-20T11:36:52Z</time>
      </trkpt>
      <trkpt lat="43.61365" lon="3.02483">
        <ele>668.9</ele>
        <time>2026-05-20T11:36:57Z</time>
      </trkpt>
      <trkpt lat="43.61368" lon="3.02486">
        <ele>670.1</ele>
        <time>2026-05-20T11:37:02Z</time>
      </trkpt>
      <trkpt lat="43.61371" lon="3.02489">
        <ele>671.3</ele>
        <time>2026-05-20T11:37:07Z</time>
      </trkpt>
      <trkpt lat="43.61374" lon="3.02489">
        <ele>672.2</ele>
        <time>2026-05-20T11:37:12Z</time>
      </trkpt>
      <trkpt lat="43.61376" lon="3.02489">
        <ele>672.8</ele>
        <time>2026-05-20T11:37:17Z</time>
      </trkpt>
      <trkpt lat="43.61378" lon="3.02489">
        <ele>673.4</ele>
        <time>2026-05-20T11:37:22Z</time>
      </trkpt>
      <trkpt lat="43.61382" lon="3.02488">
        <ele>674.4</ele>
        <time>2026-05-20T11:37:27Z</time>
      </trkpt>
      <trkpt lat="43.61381" lon="3.02486">
        <ele>673.8</ele>
        <time>2026-05-20T11:37:32Z</time>
      </trkpt>
      <trkpt lat="43.61381" lon="3.02486">
        <ele>673.8</ele>
        <time>2026-05-20T11:37:37Z</time>
      </trkpt>
      <trkpt lat="43.61381" lon="3.02486">
        <ele>673.8</ele>
        <time>2026-05-20T11:37:42Z</time>
      </trkpt>
      <trkpt lat="43.61381" lon="3.02486">
        <ele>673.8</ele>
        <time>2026-05-20T11:37:47Z</time>
      </trkpt>
      <trkpt lat="43.61381" lon="3.02486">
        <ele>673.8</ele>
        <time>2026-05-20T11:37:52Z</time>
      </trkpt>
      <trkpt lat="43.61381" lon="3.02486">
        <ele>673.8</ele>
        <time>2026-05-20T11:37:57Z</time>
      </trkpt>
      <trkpt lat="43.61381" lon="3.02486">
        <ele>673.8</ele>
        <time>2026-05-20T11:38:02Z</time>
      </trkpt>
      <trkpt lat="43.61381" lon="3.02486">
        <ele>673.8</ele>
        <time>2026-05-20T11:38:07Z</time>
      </trkpt>
      <trkpt lat="43.61381" lon="3.02486">
        <ele>673.8</ele>
        <time>2026-05-20T11:38:12Z</time>
      </trkpt>
      <trkpt lat="43.61381" lon="3.02486">
        <ele>673.8</ele>
        <time>2026-05-20T11:38:17Z</time>
      </trkpt>
      <trkpt lat="43.61381" lon="3.02486">
        <ele>673.8</ele>
        <time>2026-05-20T11:38:22Z</time>
      </trkpt>
      <trkpt lat="43.61381" lon="3.02486">
        <ele>673.8</ele>
        <time>2026-05-20T11:38:27Z</time>
      </trkpt>
      <trkpt lat="43.61388" lon="3.02475">
        <ele>674</ele>
        <time>2026-05-20T11:38:32Z</time>
      </trkpt>
      <trkpt lat="43.61388" lon="3.02471">
        <ele>673.3</ele>
        <time>2026-05-20T11:38:37Z</time>
      </trkpt>
      <trkpt lat="43.61388" lon="3.02469">
        <ele>673</ele>
        <time>2026-05-20T11:38:42Z</time>
      </trkpt>
      <trkpt lat="43.61388" lon="3.02468">
        <ele>672.9</ele>
        <time>2026-05-20T11:38:47Z</time>
      </trkpt>
      <trkpt lat="43.61388" lon="3.02468">
        <ele>672.9</ele>
        <time>2026-05-20T11:38:52Z</time>
      </trkpt>
      <trkpt lat="43.61388" lon="3.02468">
        <ele>672.9</ele>
        <time>2026-05-20T11:38:57Z</time>
      </trkpt>
      <trkpt lat="43.61388" lon="3.02468">
        <ele>672.9</ele>
        <time>2026-05-20T11:39:02Z</time>
      </trkpt>
      <trkpt lat="43.61388" lon="3.02468">
        <ele>672.9</ele>
        <time>2026-05-20T11:39:07Z</time>
      </trkpt>
      <trkpt lat="43.61398" lon="3.02462">
        <ele>674.3</ele>
        <time>2026-05-20T11:39:12Z</time>
      </trkpt>
      <trkpt lat="43.61398" lon="3.02462">
        <ele>674.3</ele>
        <time>2026-05-20T11:39:17Z</time>
      </trkpt>
      <trkpt lat="43.61398" lon="3.02462">
        <ele>674.3</ele>
        <time>2026-05-20T11:39:22Z</time>
      </trkpt>
      <trkpt lat="43.61405" lon="3.02463">
        <ele>676.2</ele>
        <time>2026-05-20T11:39:27Z</time>
      </trkpt>
      <trkpt lat="43.61406" lon="3.02464">
        <ele>676.6</ele>
        <time>2026-05-20T11:39:32Z</time>
      </trkpt>
      <trkpt lat="43.61406" lon="3.02464">
        <ele>676.6</ele>
        <time>2026-05-20T11:39:37Z</time>
      </trkpt>
      <trkpt lat="43.61406" lon="3.02464">
        <ele>676.6</ele>
        <time>2026-05-20T11:39:42Z</time>
      </trkpt>
      <trkpt lat="43.61406" lon="3.02464">
        <ele>676.6</ele>
        <time>2026-05-20T11:39:47Z</time>
      </trkpt>
      <trkpt lat="43.61406" lon="3.02464">
        <ele>676.6</ele>
        <time>2026-05-20T11:39:52Z</time>
      </trkpt>
      <trkpt lat="43.61416" lon="3.02472">
        <ele>680.8</ele>
        <time>2026-05-20T11:39:57Z</time>
      </trkpt>
      <trkpt lat="43.61416" lon="3.02472">
        <ele>680.8</ele>
        <time>2026-05-20T11:40:02Z</time>
      </trkpt>
      <trkpt lat="43.61416" lon="3.02472">
        <ele>680.8</ele>
        <time>2026-05-20T11:40:07Z</time>
      </trkpt>
      <trkpt lat="43.61422" lon="3.02481">
        <ele>682.2</ele>
        <time>2026-05-20T11:40:12Z</time>
      </trkpt>
      <trkpt lat="43.61424" lon="3.02482">
        <ele>682.1</ele>
        <time>2026-05-20T11:40:17Z</time>
      </trkpt>
      <trkpt lat="43.61424" lon="3.02482">
        <ele>682.1</ele>
        <time>2026-05-20T11:40:22Z</time>
      </trkpt>
      <trkpt lat="43.61424" lon="3.02482">
        <ele>682.1</ele>
        <time>2026-05-20T11:40:27Z</time>
      </trkpt>
      <trkpt lat="43.61424" lon="3.02482">
        <ele>682.1</ele>
        <time>2026-05-20T11:40:32Z</time>
      </trkpt>
      <trkpt lat="43.61432" lon="3.02471">
        <ele>678.9</ele>
        <time>2026-05-20T11:40:37Z</time>
      </trkpt>
      <trkpt lat="43.61435" lon="3.02468">
        <ele>677.9</ele>
        <time>2026-05-20T11:40:42Z</time>
      </trkpt>
      <trkpt lat="43.61435" lon="3.02467">
        <ele>677.8</ele>
        <time>2026-05-20T11:40:47Z</time>
      </trkpt>
      <trkpt lat="43.61435" lon="3.02467">
        <ele>677.8</ele>
        <time>2026-05-20T11:40:52Z</time>
      </trkpt>
      <trkpt lat="43.61435" lon="3.02467">
        <ele>677.8</ele>
        <time>2026-05-20T11:40:57Z</time>
      </trkpt>
      <trkpt lat="43.61439" lon="3.02463">
        <ele>676.6</ele>
        <time>2026-05-20T11:41:02Z</time>
      </trkpt>
      <trkpt lat="43.61439" lon="3.02462">
        <ele>676.4</ele>
        <time>2026-05-20T11:41:07Z</time>
      </trkpt>
      <trkpt lat="43.61439" lon="3.02462">
        <ele>676.4</ele>
        <time>2026-05-20T11:41:12Z</time>
      </trkpt>
      <trkpt lat="43.61439" lon="3.02462">
        <ele>676.4</ele>
        <time>2026-05-20T11:41:17Z</time>
      </trkpt>
      <trkpt lat="43.61439" lon="3.02462">
        <ele>676.4</ele>
        <time>2026-05-20T11:41:22Z</time>
      </trkpt>
      <trkpt lat="43.61439" lon="3.02462">
        <ele>676.4</ele>
        <time>2026-05-20T11:41:27Z</time>
      </trkpt>
      <trkpt lat="43.61439" lon="3.02462">
        <ele>676.4</ele>
        <time>2026-05-20T11:41:32Z</time>
      </trkpt>
      <trkpt lat="43.61439" lon="3.02462">
        <ele>676.4</ele>
        <time>2026-05-20T11:41:37Z</time>
      </trkpt>
      <trkpt lat="43.61439" lon="3.02462">
        <ele>676.4</ele>
        <time>2026-05-20T11:41:42Z</time>
      </trkpt>
      <trkpt lat="43.61439" lon="3.02462">
        <ele>676.4</ele>
        <time>2026-05-20T11:41:47Z</time>
      </trkpt>
      <trkpt lat="43.61439" lon="3.02462">
        <ele>676.4</ele>
        <time>2026-05-20T11:41:52Z</time>
      </trkpt>
      <trkpt lat="43.61439" lon="3.02462">
        <ele>676.4</ele>
        <time>2026-05-20T11:41:57Z</time>
      </trkpt>
      <trkpt lat="43.61439" lon="3.02462">
        <ele>676.4</ele>
        <time>2026-05-20T11:42:02Z</time>
      </trkpt>
      <trkpt lat="43.61439" lon="3.02462">
        <ele>676.4</ele>
        <time>2026-05-20T11:42:07Z</time>
      </trkpt>
      <trkpt lat="43.61439" lon="3.02462">
        <ele>676.4</ele>
        <time>2026-05-20T11:42:12Z</time>
      </trkpt>
      <trkpt lat="43.61439" lon="3.02462">
        <ele>676.4</ele>
        <time>2026-05-20T11:42:17Z</time>
      </trkpt>
      <trkpt lat="43.61439" lon="3.02462">
        <ele>676.4</ele>
        <time>2026-05-20T11:42:22Z</time>
      </trkpt>
      <trkpt lat="43.61439" lon="3.02462">
        <ele>676.4</ele>
        <time>2026-05-20T11:42:27Z</time>
      </trkpt>
      <trkpt lat="43.61439" lon="3.02462">
        <ele>676.4</ele>
        <time>2026-05-20T11:42:32Z</time>
      </trkpt>
      <trkpt lat="43.61439" lon="3.02462">
        <ele>676.4</ele>
        <time>2026-05-20T11:42:37Z</time>
      </trkpt>
      <trkpt lat="43.61439" lon="3.02462">
        <ele>676.4</ele>
        <time>2026-05-20T11:42:42Z</time>
      </trkpt>
      <trkpt lat="43.61439" lon="3.02462">
        <ele>676.4</ele>
        <time>2026-05-20T11:42:47Z</time>
      </trkpt>
      <trkpt lat="43.61439" lon="3.02462">
        <ele>676.4</ele>
        <time>2026-05-20T11:42:52Z</time>
      </trkpt>
      <trkpt lat="43.61439" lon="3.02462">
        <ele>676.4</ele>
        <time>2026-05-20T11:42:57Z</time>
      </trkpt>
      <trkpt lat="43.61439" lon="3.02462">
        <ele>676.4</ele>
        <time>2026-05-20T11:43:02Z</time>
      </trkpt>
      <trkpt lat="43.61439" lon="3.02462">
        <ele>676.4</ele>
        <time>2026-05-20T11:43:07Z</time>
      </trkpt>
      <trkpt lat="43.61442" lon="3.02449">
        <ele>673.8</ele>
        <time>2026-05-20T11:43:12Z</time>
      </trkpt>
      <trkpt lat="43.61442" lon="3.02449">
        <ele>673.8</ele>
        <time>2026-05-20T11:43:17Z</time>
      </trkpt>
      <trkpt lat="43.61442" lon="3.02449">
        <ele>673.8</ele>
        <time>2026-05-20T11:43:22Z</time>
      </trkpt>
      <trkpt lat="43.61442" lon="3.02449">
        <ele>673.8</ele>
        <time>2026-05-20T11:43:27Z</time>
      </trkpt>
      <trkpt lat="43.61442" lon="3.02449">
        <ele>673.8</ele>
        <time>2026-05-20T11:43:32Z</time>
      </trkpt>
      <trkpt lat="43.61442" lon="3.02449">
        <ele>673.8</ele>
        <time>2026-05-20T11:43:37Z</time>
      </trkpt>
      <trkpt lat="43.61443" lon="3.02465">
        <ele>676.5</ele>
        <time>2026-05-20T11:43:42Z</time>
      </trkpt>
      <trkpt lat="43.61443" lon="3.02468">
        <ele>677</ele>
        <time>2026-05-20T11:43:47Z</time>
      </trkpt>
      <trkpt lat="43.61444" lon="3.02468">
        <ele>676.9</ele>
        <time>2026-05-20T11:43:52Z</time>
      </trkpt>
      <trkpt lat="43.61444" lon="3.02468">
        <ele>676.9</ele>
        <time>2026-05-20T11:43:57Z</time>
      </trkpt>
      <trkpt lat="43.61444" lon="3.02468">
        <ele>676.9</ele>
        <time>2026-05-20T11:44:02Z</time>
      </trkpt>
      <trkpt lat="43.61444" lon="3.02468">
        <ele>676.9</ele>
        <time>2026-05-20T11:44:07Z</time>
      </trkpt>
      <trkpt lat="43.61449" lon="3.02457">
        <ele>674.5</ele>
        <time>2026-05-20T11:44:12Z</time>
      </trkpt>
      <trkpt lat="43.61448" lon="3.02455">
        <ele>674.2</ele>
        <time>2026-05-20T11:44:17Z</time>
      </trkpt>
      <trkpt lat="43.61448" lon="3.02455">
        <ele>674.2</ele>
        <time>2026-05-20T11:44:22Z</time>
      </trkpt>
      <trkpt lat="43.61448" lon="3.02455">
        <ele>674.2</ele>
        <time>2026-05-20T11:44:27Z</time>
      </trkpt>
      <trkpt lat="43.61448" lon="3.02455">
        <ele>674.2</ele>
        <time>2026-05-20T11:44:32Z</time>
      </trkpt>
      <trkpt lat="43.61448" lon="3.02455">
        <ele>674.2</ele>
        <time>2026-05-20T11:44:37Z</time>
      </trkpt>
      <trkpt lat="43.61448" lon="3.02455">
        <ele>674.2</ele>
        <time>2026-05-20T11:44:42Z</time>
      </trkpt>
      <trkpt lat="43.61448" lon="3.02455">
        <ele>674.2</ele>
        <time>2026-05-20T11:44:47Z</time>
      </trkpt>
      <trkpt lat="43.61448" lon="3.02453">
        <ele>673.9</ele>
        <time>2026-05-20T11:44:52Z</time>
      </trkpt>
      <trkpt lat="43.61445" lon="3.02456">
        <ele>674.7</ele>
        <time>2026-05-20T11:44:57Z</time>
      </trkpt>
      <trkpt lat="43.61446" lon="3.02457">
        <ele>674.8</ele>
        <time>2026-05-20T11:45:02Z</time>
      </trkpt>
      <trkpt lat="43.6145" lon="3.02455">
        <ele>674.1</ele>
        <time>2026-05-20T11:45:07Z</time>
      </trkpt>
      <trkpt lat="43.6145" lon="3.02451">
        <ele>673.4</ele>
        <time>2026-05-20T11:45:12Z</time>
      </trkpt>
      <trkpt lat="43.61448" lon="3.02449">
        <ele>673.3</ele>
        <time>2026-05-20T11:45:17Z</time>
      </trkpt>
      <trkpt lat="43.61447" lon="3.02446">
        <ele>672.8</ele>
        <time>2026-05-20T11:45:22Z</time>
      </trkpt>
      <trkpt lat="43.61448" lon="3.02442">
        <ele>672.1</ele>
        <time>2026-05-20T11:45:27Z</time>
      </trkpt>
      <trkpt lat="43.61449" lon="3.02439">
        <ele>671.5</ele>
        <time>2026-05-20T11:45:32Z</time>
      </trkpt>
      <trkpt lat="43.6145" lon="3.02436">
        <ele>671</ele>
        <time>2026-05-20T11:45:37Z</time>
      </trkpt>
      <trkpt lat="43.6145" lon="3.02433">
        <ele>670.5</ele>
        <time>2026-05-20T11:45:42Z</time>
      </trkpt>
      <trkpt lat="43.6145" lon="3.0243">
        <ele>670</ele>
        <time>2026-05-20T11:45:47Z</time>
      </trkpt>
      <trkpt lat="43.6145" lon="3.02427">
        <ele>669.5</ele>
        <time>2026-05-20T11:45:52Z</time>
      </trkpt>
      <trkpt lat="43.61451" lon="3.02424">
        <ele>668.9</ele>
        <time>2026-05-20T11:45:57Z</time>
      </trkpt>
      <trkpt lat="43.61453" lon="3.0242">
        <ele>668.2</ele>
        <time>2026-05-20T11:46:02Z</time>
      </trkpt>
      <trkpt lat="43.61454" lon="3.02417">
        <ele>667.7</ele>
        <time>2026-05-20T11:46:07Z</time>
      </trkpt>
      <trkpt lat="43.61455" lon="3.02414">
        <ele>667.6</ele>
        <time>2026-05-20T11:46:12Z</time>
      </trkpt>
      <trkpt lat="43.61456" lon="3.02411">
        <ele>667.5</ele>
        <time>2026-05-20T11:46:17Z</time>
      </trkpt>
      <trkpt lat="43.61457" lon="3.02407">
        <ele>667.5</ele>
        <time>2026-05-20T11:46:22Z</time>
      </trkpt>
      <trkpt lat="43.61458" lon="3.02406">
        <ele>667.4</ele>
        <time>2026-05-20T11:46:27Z</time>
      </trkpt>
      <trkpt lat="43.61459" lon="3.02402">
        <ele>667.4</ele>
        <time>2026-05-20T11:46:32Z</time>
      </trkpt>
      <trkpt lat="43.6146" lon="3.02398">
        <ele>667.4</ele>
        <time>2026-05-20T11:46:37Z</time>
      </trkpt>
      <trkpt lat="43.61461" lon="3.02396">
        <ele>667.3</ele>
        <time>2026-05-20T11:46:42Z</time>
      </trkpt>
      <trkpt lat="43.61463" lon="3.02393">
        <ele>667.3</ele>
        <time>2026-05-20T11:46:47Z</time>
      </trkpt>
      <trkpt lat="43.61465" lon="3.0239">
        <ele>667.3</ele>
        <time>2026-05-20T11:46:52Z</time>
      </trkpt>
      <trkpt lat="43.61465" lon="3.02388">
        <ele>667.3</ele>
        <time>2026-05-20T11:46:57Z</time>
      </trkpt>
      <trkpt lat="43.61465" lon="3.02387">
        <ele>667.3</ele>
        <time>2026-05-20T11:47:02Z</time>
      </trkpt>
      <trkpt lat="43.61468" lon="3.02382">
        <ele>667.3</ele>
        <time>2026-05-20T11:47:07Z</time>
      </trkpt>
      <trkpt lat="43.61468" lon="3.0238">
        <ele>667.3</ele>
        <time>2026-05-20T11:47:12Z</time>
      </trkpt>
      <trkpt lat="43.61469" lon="3.02376">
        <ele>667.3</ele>
        <time>2026-05-20T11:47:17Z</time>
      </trkpt>
      <trkpt lat="43.61471" lon="3.02376">
        <ele>667.3</ele>
        <time>2026-05-20T11:47:22Z</time>
      </trkpt>
      <trkpt lat="43.61471" lon="3.0238">
        <ele>667.3</ele>
        <time>2026-05-20T11:47:27Z</time>
      </trkpt>
      <trkpt lat="43.61474" lon="3.02385">
        <ele>667.2</ele>
        <time>2026-05-20T11:47:32Z</time>
      </trkpt>
      <trkpt lat="43.61475" lon="3.02386">
        <ele>667.2</ele>
        <time>2026-05-20T11:47:37Z</time>
      </trkpt>
      <trkpt lat="43.61476" lon="3.02388">
        <ele>667.2</ele>
        <time>2026-05-20T11:47:42Z</time>
      </trkpt>
      <trkpt lat="43.61475" lon="3.02388">
        <ele>667.2</ele>
        <time>2026-05-20T11:47:47Z</time>
      </trkpt>
      <trkpt lat="43.61475" lon="3.02388">
        <ele>667.2</ele>
        <time>2026-05-20T11:47:52Z</time>
      </trkpt>
      <trkpt lat="43.61475" lon="3.02388">
        <ele>667.2</ele>
        <time>2026-05-20T11:47:57Z</time>
      </trkpt>
      <trkpt lat="43.6148" lon="3.02391">
        <ele>667.1</ele>
        <time>2026-05-20T11:48:02Z</time>
      </trkpt>
      <trkpt lat="43.61481" lon="3.02394">
        <ele>667.1</ele>
        <time>2026-05-20T11:48:07Z</time>
      </trkpt>
      <trkpt lat="43.61481" lon="3.02397">
        <ele>667</ele>
        <time>2026-05-20T11:48:12Z</time>
      </trkpt>
      <trkpt lat="43.61484" lon="3.02398">
        <ele>666.9</ele>
        <time>2026-05-20T11:48:17Z</time>
      </trkpt>
      <trkpt lat="43.61484" lon="3.02399">
        <ele>666.9</ele>
        <time>2026-05-20T11:48:22Z</time>
      </trkpt>
      <trkpt lat="43.61489" lon="3.02402">
        <ele>666.8</ele>
        <time>2026-05-20T11:48:27Z</time>
      </trkpt>
      <trkpt lat="43.61492" lon="3.02406">
        <ele>666.6</ele>
        <time>2026-05-20T11:48:32Z</time>
      </trkpt>
      <trkpt lat="43.61494" lon="3.02406">
        <ele>666.5</ele>
        <time>2026-05-20T11:48:37Z</time>
      </trkpt>
      <trkpt lat="43.61496" lon="3.02406">
        <ele>666.5</ele>
        <time>2026-05-20T11:48:42Z</time>
      </trkpt>
      <trkpt lat="43.61498" lon="3.02405">
        <ele>666.5</ele>
        <time>2026-05-20T11:48:47Z</time>
      </trkpt>
      <trkpt lat="43.61499" lon="3.02404">
        <ele>666.5</ele>
        <time>2026-05-20T11:48:52Z</time>
      </trkpt>
      <trkpt lat="43.61502" lon="3.02401">
        <ele>666.9</ele>
        <time>2026-05-20T11:48:57Z</time>
      </trkpt>
      <trkpt lat="43.61504" lon="3.02399">
        <ele>667.3</ele>
        <time>2026-05-20T11:49:02Z</time>
      </trkpt>
      <trkpt lat="43.61505" lon="3.02397">
        <ele>667.5</ele>
        <time>2026-05-20T11:49:07Z</time>
      </trkpt>
      <trkpt lat="43.61505" lon="3.02395">
        <ele>667.6</ele>
        <time>2026-05-20T11:49:12Z</time>
      </trkpt>
      <trkpt lat="43.61507" lon="3.02391">
        <ele>668.1</ele>
        <time>2026-05-20T11:49:17Z</time>
      </trkpt>
      <trkpt lat="43.61512" lon="3.02388">
        <ele>669.1</ele>
        <time>2026-05-20T11:49:22Z</time>
      </trkpt>
      <trkpt lat="43.61516" lon="3.02387">
        <ele>669.9</ele>
        <time>2026-05-20T11:49:27Z</time>
      </trkpt>
      <trkpt lat="43.6152" lon="3.02384">
        <ele>670.7</ele>
        <time>2026-05-20T11:49:32Z</time>
      </trkpt>
      <trkpt lat="43.61522" lon="3.0238">
        <ele>671.3</ele>
        <time>2026-05-20T11:49:37Z</time>
      </trkpt>
      <trkpt lat="43.61525" lon="3.02375">
        <ele>672.1</ele>
        <time>2026-05-20T11:49:42Z</time>
      </trkpt>
      <trkpt lat="43.61525" lon="3.02369">
        <ele>672.5</ele>
        <time>2026-05-20T11:49:47Z</time>
      </trkpt>
      <trkpt lat="43.61527" lon="3.02363">
        <ele>673.3</ele>
        <time>2026-05-20T11:49:52Z</time>
      </trkpt>
      <trkpt lat="43.61527" lon="3.02357">
        <ele>673.7</ele>
        <time>2026-05-20T11:49:57Z</time>
      </trkpt>
      <trkpt lat="43.61528" lon="3.02352">
        <ele>674.2</ele>
        <time>2026-05-20T11:50:02Z</time>
      </trkpt>
      <trkpt lat="43.61527" lon="3.02345">
        <ele>674.4</ele>
        <time>2026-05-20T11:50:07Z</time>
      </trkpt>
      <trkpt lat="43.61527" lon="3.02339">
        <ele>674.8</ele>
        <time>2026-05-20T11:50:12Z</time>
      </trkpt>
      <trkpt lat="43.61527" lon="3.02333">
        <ele>675.2</ele>
        <time>2026-05-20T11:50:17Z</time>
      </trkpt>
      <trkpt lat="43.61528" lon="3.02328">
        <ele>676.5</ele>
        <time>2026-05-20T11:50:22Z</time>
      </trkpt>
      <trkpt lat="43.61528" lon="3.02322">
        <ele>677.8</ele>
        <time>2026-05-20T11:50:27Z</time>
      </trkpt>
      <trkpt lat="43.61527" lon="3.02316">
        <ele>678.9</ele>
        <time>2026-05-20T11:50:32Z</time>
      </trkpt>
      <trkpt lat="43.61527" lon="3.02309">
        <ele>680.4</ele>
        <time>2026-05-20T11:50:37Z</time>
      </trkpt>
      <trkpt lat="43.61527" lon="3.02303">
        <ele>681.7</ele>
        <time>2026-05-20T11:50:42Z</time>
      </trkpt>
      <trkpt lat="43.61527" lon="3.02298">
        <ele>682.8</ele>
        <time>2026-05-20T11:50:47Z</time>
      </trkpt>
      <trkpt lat="43.61526" lon="3.02292">
        <ele>684</ele>
        <time>2026-05-20T11:50:52Z</time>
      </trkpt>
      <trkpt lat="43.61526" lon="3.02291">
        <ele>684.2</ele>
        <time>2026-05-20T11:50:57Z</time>
      </trkpt>
      <trkpt lat="43.61526" lon="3.02291">
        <ele>684.2</ele>
        <time>2026-05-20T11:51:02Z</time>
      </trkpt>
      <trkpt lat="43.61526" lon="3.02291">
        <ele>684.2</ele>
        <time>2026-05-20T11:51:07Z</time>
      </trkpt>
      <trkpt lat="43.61526" lon="3.02291">
        <ele>684.2</ele>
        <time>2026-05-20T11:51:12Z</time>
      </trkpt>
      <trkpt lat="43.61526" lon="3.02291">
        <ele>684.2</ele>
        <time>2026-05-20T11:51:17Z</time>
      </trkpt>
      <trkpt lat="43.61526" lon="3.02291">
        <ele>684.2</ele>
        <time>2026-05-20T11:51:22Z</time>
      </trkpt>
      <trkpt lat="43.61526" lon="3.02291">
        <ele>684.2</ele>
        <time>2026-05-20T11:51:27Z</time>
      </trkpt>
      <trkpt lat="43.61526" lon="3.02291">
        <ele>684.2</ele>
        <time>2026-05-20T11:51:32Z</time>
      </trkpt>
      <trkpt lat="43.61526" lon="3.02287">
        <ele>685.1</ele>
        <time>2026-05-20T11:51:37Z</time>
      </trkpt>
      <trkpt lat="43.61525" lon="3.02281">
        <ele>686.3</ele>
        <time>2026-05-20T11:51:42Z</time>
      </trkpt>
      <trkpt lat="43.61526" lon="3.02273">
        <ele>688.1</ele>
        <time>2026-05-20T11:51:47Z</time>
      </trkpt>
      <trkpt lat="43.61526" lon="3.02266">
        <ele>689.7</ele>
        <time>2026-05-20T11:51:52Z</time>
      </trkpt>
      <trkpt lat="43.61526" lon="3.02261">
        <ele>690.8</ele>
        <time>2026-05-20T11:51:57Z</time>
      </trkpt>
      <trkpt lat="43.61525" lon="3.02254">
        <ele>692.2</ele>
        <time>2026-05-20T11:52:02Z</time>
      </trkpt>
      <trkpt lat="43.61525" lon="3.02249">
        <ele>693.4</ele>
        <time>2026-05-20T11:52:07Z</time>
      </trkpt>
      <trkpt lat="43.61526" lon="3.02242">
        <ele>695.4</ele>
        <time>2026-05-20T11:52:12Z</time>
      </trkpt>
      <trkpt lat="43.61527" lon="3.02237">
        <ele>696.9</ele>
        <time>2026-05-20T11:52:17Z</time>
      </trkpt>
      <trkpt lat="43.61529" lon="3.02233">
        <ele>698.2</ele>
        <time>2026-05-20T11:52:22Z</time>
      </trkpt>
      <trkpt lat="43.6153" lon="3.02226">
        <ele>700.2</ele>
        <time>2026-05-20T11:52:27Z</time>
      </trkpt>
      <trkpt lat="43.6153" lon="3.0222">
        <ele>701.8</ele>
        <time>2026-05-20T11:52:32Z</time>
      </trkpt>
      <trkpt lat="43.6153" lon="3.02215">
        <ele>703.2</ele>
        <time>2026-05-20T11:52:37Z</time>
      </trkpt>
      <trkpt lat="43.61531" lon="3.0221">
        <ele>704.7</ele>
        <time>2026-05-20T11:52:42Z</time>
      </trkpt>
      <trkpt lat="43.61532" lon="3.02205">
        <ele>706.1</ele>
        <time>2026-05-20T11:52:47Z</time>
      </trkpt>
      <trkpt lat="43.61532" lon="3.02199">
        <ele>707.7</ele>
        <time>2026-05-20T11:52:52Z</time>
      </trkpt>
      <trkpt lat="43.61533" lon="3.02194">
        <ele>709.1</ele>
        <time>2026-05-20T11:52:57Z</time>
      </trkpt>
      <trkpt lat="43.61534" lon="3.02189">
        <ele>710.5</ele>
        <time>2026-05-20T11:53:02Z</time>
      </trkpt>
      <trkpt lat="43.61535" lon="3.02185">
        <ele>711.6</ele>
        <time>2026-05-20T11:53:07Z</time>
      </trkpt>
      <trkpt lat="43.61536" lon="3.02178">
        <ele>713.5</ele>
        <time>2026-05-20T11:53:12Z</time>
      </trkpt>
      <trkpt lat="43.61539" lon="3.02173">
        <ele>714.8</ele>
        <time>2026-05-20T11:53:17Z</time>
      </trkpt>
      <trkpt lat="43.6154" lon="3.02167">
        <ele>716.4</ele>
        <time>2026-05-20T11:53:22Z</time>
      </trkpt>
      <trkpt lat="43.61542" lon="3.02161">
        <ele>717.9</ele>
        <time>2026-05-20T11:53:27Z</time>
      </trkpt>
      <trkpt lat="43.61545" lon="3.02155">
        <ele>719.2</ele>
        <time>2026-05-20T11:53:32Z</time>
      </trkpt>
      <trkpt lat="43.61547" lon="3.0215">
        <ele>720.3</ele>
        <time>2026-05-20T11:53:37Z</time>
      </trkpt>
      <trkpt lat="43.61549" lon="3.02144">
        <ele>721.6</ele>
        <time>2026-05-20T11:53:42Z</time>
      </trkpt>
      <trkpt lat="43.6155" lon="3.0214">
        <ele>722.5</ele>
        <time>2026-05-20T11:53:47Z</time>
      </trkpt>
      <trkpt lat="43.61551" lon="3.02132">
        <ele>724.2</ele>
        <time>2026-05-20T11:53:52Z</time>
      </trkpt>
      <trkpt lat="43.61551" lon="3.02126">
        <ele>725.6</ele>
        <time>2026-05-20T11:53:57Z</time>
      </trkpt>
      <trkpt lat="43.61551" lon="3.02121">
        <ele>726.7</ele>
        <time>2026-05-20T11:54:02Z</time>
      </trkpt>
      <trkpt lat="43.61551" lon="3.02112">
        <ele>728.7</ele>
        <time>2026-05-20T11:54:07Z</time>
      </trkpt>
      <trkpt lat="43.61551" lon="3.02105">
        <ele>730.3</ele>
        <time>2026-05-20T11:54:12Z</time>
      </trkpt>
      <trkpt lat="43.61553" lon="3.02098">
        <ele>731.6</ele>
        <time>2026-05-20T11:54:17Z</time>
      </trkpt>
      <trkpt lat="43.61555" lon="3.02096">
        <ele>731.7</ele>
        <time>2026-05-20T11:54:22Z</time>
      </trkpt>
      <trkpt lat="43.61558" lon="3.0209">
        <ele>732.5</ele>
        <time>2026-05-20T11:54:27Z</time>
      </trkpt>
      <trkpt lat="43.6156" lon="3.02082">
        <ele>733.6</ele>
        <time>2026-05-20T11:54:32Z</time>
      </trkpt>
      <trkpt lat="43.61563" lon="3.02075">
        <ele>733.8</ele>
        <time>2026-05-20T11:54:37Z</time>
      </trkpt>
      <trkpt lat="43.61565" lon="3.02068">
        <ele>734.2</ele>
        <time>2026-05-20T11:54:42Z</time>
      </trkpt>
      <trkpt lat="43.61567" lon="3.02059">
        <ele>734.7</ele>
        <time>2026-05-20T11:54:47Z</time>
      </trkpt>
      <trkpt lat="43.6157" lon="3.02055">
        <ele>734.5</ele>
        <time>2026-05-20T11:54:52Z</time>
      </trkpt>
      <trkpt lat="43.61573" lon="3.02048">
        <ele>734.6</ele>
        <time>2026-05-20T11:54:57Z</time>
      </trkpt>
      <trkpt lat="43.61576" lon="3.02039">
        <ele>734.9</ele>
        <time>2026-05-20T11:55:02Z</time>
      </trkpt>
      <trkpt lat="43.61579" lon="3.02033">
        <ele>734.8</ele>
        <time>2026-05-20T11:55:07Z</time>
      </trkpt>
      <trkpt lat="43.6158" lon="3.02025">
        <ele>735.4</ele>
        <time>2026-05-20T11:55:12Z</time>
      </trkpt>
      <trkpt lat="43.61577" lon="3.02017">
        <ele>736.8</ele>
        <time>2026-05-20T11:55:17Z</time>
      </trkpt>
      <trkpt lat="43.61578" lon="3.02013">
        <ele>737</ele>
        <time>2026-05-20T11:55:22Z</time>
      </trkpt>
      <trkpt lat="43.6158" lon="3.02009">
        <ele>736.9</ele>
        <time>2026-05-20T11:55:27Z</time>
      </trkpt>
      <trkpt lat="43.61584" lon="3.02007">
        <ele>736.2</ele>
        <time>2026-05-20T11:55:32Z</time>
      </trkpt>
      <trkpt lat="43.61588" lon="3.02006">
        <ele>735.5</ele>
        <time>2026-05-20T11:55:37Z</time>
      </trkpt>
      <trkpt lat="43.61594" lon="3.02008">
        <ele>734.1</ele>
        <time>2026-05-20T11:55:42Z</time>
      </trkpt>
      <trkpt lat="43.616" lon="3.0201">
        <ele>732.6</ele>
        <time>2026-05-20T11:55:47Z</time>
      </trkpt>
      <trkpt lat="43.61604" lon="3.02012">
        <ele>731.6</ele>
        <time>2026-05-20T11:55:52Z</time>
      </trkpt>
      <trkpt lat="43.61609" lon="3.02014">
        <ele>730.3</ele>
        <time>2026-05-20T11:55:57Z</time>
      </trkpt>
      <trkpt lat="43.61615" lon="3.02018">
        <ele>728.5</ele>
        <time>2026-05-20T11:56:02Z</time>
      </trkpt>
      <trkpt lat="43.6162" lon="3.0202">
        <ele>727.1</ele>
        <time>2026-05-20T11:56:07Z</time>
      </trkpt>
      <trkpt lat="43.61625" lon="3.02021">
        <ele>725.8</ele>
        <time>2026-05-20T11:56:12Z</time>
      </trkpt>
      <trkpt lat="43.6163" lon="3.0202">
        <ele>724.9</ele>
        <time>2026-05-20T11:56:17Z</time>
      </trkpt>
      <trkpt lat="43.61633" lon="3.02018">
        <ele>724.6</ele>
        <time>2026-05-20T11:56:22Z</time>
      </trkpt>
      <trkpt lat="43.61637" lon="3.02016">
        <ele>724</ele>
        <time>2026-05-20T11:56:27Z</time>
      </trkpt>
      <trkpt lat="43.61639" lon="3.02012">
        <ele>724.3</ele>
        <time>2026-05-20T11:56:32Z</time>
      </trkpt>
      <trkpt lat="43.61639" lon="3.02008">
        <ele>725</ele>
        <time>2026-05-20T11:56:37Z</time>
      </trkpt>
      <trkpt lat="43.6164" lon="3.02004">
        <ele>725.4</ele>
        <time>2026-05-20T11:56:42Z</time>
      </trkpt>
      <trkpt lat="43.61641" lon="3.02002">
        <ele>725.6</ele>
        <time>2026-05-20T11:56:47Z</time>
      </trkpt>
      <trkpt lat="43.61643" lon="3.01997">
        <ele>726.1</ele>
        <time>2026-05-20T11:56:52Z</time>
      </trkpt>
      <trkpt lat="43.61645" lon="3.01994">
        <ele>726.3</ele>
        <time>2026-05-20T11:56:57Z</time>
      </trkpt>
      <trkpt lat="43.61646" lon="3.01991">
        <ele>726.7</ele>
        <time>2026-05-20T11:57:02Z</time>
      </trkpt>
      <trkpt lat="43.61646" lon="3.01986">
        <ele>727.6</ele>
        <time>2026-05-20T11:57:07Z</time>
      </trkpt>
      <trkpt lat="43.61647" lon="3.01982">
        <ele>728.2</ele>
        <time>2026-05-20T11:57:12Z</time>
      </trkpt>
      <trkpt lat="43.61648" lon="3.01978">
        <ele>728.8</ele>
        <time>2026-05-20T11:57:17Z</time>
      </trkpt>
      <trkpt lat="43.61648" lon="3.01975">
        <ele>729.3</ele>
        <time>2026-05-20T11:57:22Z</time>
      </trkpt>
      <trkpt lat="43.61648" lon="3.01975">
        <ele>729.3</ele>
        <time>2026-05-20T11:57:27Z</time>
      </trkpt>
      <trkpt lat="43.6165" lon="3.01969">
        <ele>730.2</ele>
        <time>2026-05-20T11:57:32Z</time>
      </trkpt>
      <trkpt lat="43.61652" lon="3.01966">
        <ele>730.4</ele>
        <time>2026-05-20T11:57:37Z</time>
      </trkpt>
      <trkpt lat="43.61653" lon="3.01962">
        <ele>731</ele>
        <time>2026-05-20T11:57:42Z</time>
      </trkpt>
      <trkpt lat="43.61654" lon="3.01957">
        <ele>731.8</ele>
        <time>2026-05-20T11:57:47Z</time>
      </trkpt>
      <trkpt lat="43.61653" lon="3.01953">
        <ele>732.7</ele>
        <time>2026-05-20T11:57:52Z</time>
      </trkpt>
      <trkpt lat="43.61653" lon="3.01949">
        <ele>733.5</ele>
        <time>2026-05-20T11:57:57Z</time>
      </trkpt>
      <trkpt lat="43.61652" lon="3.01944">
        <ele>734.6</ele>
        <time>2026-05-20T11:58:02Z</time>
      </trkpt>
      <trkpt lat="43.61652" lon="3.01939">
        <ele>735.6</ele>
        <time>2026-05-20T11:58:07Z</time>
      </trkpt>
      <trkpt lat="43.61652" lon="3.01934">
        <ele>736.6</ele>
        <time>2026-05-20T11:58:12Z</time>
      </trkpt>
      <trkpt lat="43.61651" lon="3.0193">
        <ele>737.5</ele>
        <time>2026-05-20T11:58:17Z</time>
      </trkpt>
      <trkpt lat="43.61651" lon="3.01924">
        <ele>738.7</ele>
        <time>2026-05-20T11:58:22Z</time>
      </trkpt>
      <trkpt lat="43.6165" lon="3.01921">
        <ele>739.4</ele>
        <time>2026-05-20T11:58:27Z</time>
      </trkpt>
      <trkpt lat="43.6165" lon="3.01916">
        <ele>740.3</ele>
        <time>2026-05-20T11:58:32Z</time>
      </trkpt>
      <trkpt lat="43.61651" lon="3.01911">
        <ele>740.8</ele>
        <time>2026-05-20T11:58:37Z</time>
      </trkpt>
      <trkpt lat="43.61653" lon="3.01906">
        <ele>741.1</ele>
        <time>2026-05-20T11:58:42Z</time>
      </trkpt>
      <trkpt lat="43.61654" lon="3.01901">
        <ele>741.6</ele>
        <time>2026-05-20T11:58:47Z</time>
      </trkpt>
      <trkpt lat="43.61654" lon="3.01896">
        <ele>742.2</ele>
        <time>2026-05-20T11:58:52Z</time>
      </trkpt>
      <trkpt lat="43.61653" lon="3.01891">
        <ele>742.9</ele>
        <time>2026-05-20T11:58:57Z</time>
      </trkpt>
      <trkpt lat="43.6165" lon="3.01889">
        <ele>743.6</ele>
        <time>2026-05-20T11:59:02Z</time>
      </trkpt>
      <trkpt lat="43.61647" lon="3.01886">
        <ele>744.4</ele>
        <time>2026-05-20T11:59:07Z</time>
      </trkpt>
      <trkpt lat="43.61644" lon="3.01884">
        <ele>745</ele>
        <time>2026-05-20T11:59:12Z</time>
      </trkpt>
      <trkpt lat="43.61644" lon="3.01883">
        <ele>745.1</ele>
        <time>2026-05-20T11:59:17Z</time>
      </trkpt>
      <trkpt lat="43.61641" lon="3.0188">
        <ele>745.9</ele>
        <time>2026-05-20T11:59:22Z</time>
      </trkpt>
      <trkpt lat="43.6164" lon="3.01877">
        <ele>746.4</ele>
        <time>2026-05-20T11:59:27Z</time>
      </trkpt>
      <trkpt lat="43.61637" lon="3.01874">
        <ele>747.2</ele>
        <time>2026-05-20T11:59:32Z</time>
      </trkpt>
      <trkpt lat="43.61635" lon="3.01871">
        <ele>747.9</ele>
        <time>2026-05-20T11:59:37Z</time>
      </trkpt>
      <trkpt lat="43.61635" lon="3.01869">
        <ele>748.1</ele>
        <time>2026-05-20T11:59:42Z</time>
      </trkpt>
      <trkpt lat="43.61634" lon="3.01868">
        <ele>748.4</ele>
        <time>2026-05-20T11:59:47Z</time>
      </trkpt>
      <trkpt lat="43.61631" lon="3.01865">
        <ele>749.2</ele>
        <time>2026-05-20T11:59:52Z</time>
      </trkpt>
      <trkpt lat="43.61628" lon="3.0186">
        <ele>750.2</ele>
        <time>2026-05-20T11:59:57Z</time>
      </trkpt>
      <trkpt lat="43.61626" lon="3.01855">
        <ele>751.1</ele>
        <time>2026-05-20T12:00:02Z</time>
      </trkpt>
      <trkpt lat="43.61625" lon="3.01854">
        <ele>751.4</ele>
        <time>2026-05-20T12:00:07Z</time>
      </trkpt>
      <trkpt lat="43.61625" lon="3.01853">
        <ele>751.5</ele>
        <time>2026-05-20T12:00:12Z</time>
      </trkpt>
      <trkpt lat="43.61625" lon="3.01853">
        <ele>751.5</ele>
        <time>2026-05-20T12:00:17Z</time>
      </trkpt>
      <trkpt lat="43.61625" lon="3.01853">
        <ele>751.5</ele>
        <time>2026-05-20T12:00:22Z</time>
      </trkpt>
      <trkpt lat="43.61624" lon="3.01848">
        <ele>752.3</ele>
        <time>2026-05-20T12:00:27Z</time>
      </trkpt>
      <trkpt lat="43.61625" lon="3.01844">
        <ele>752.7</ele>
        <time>2026-05-20T12:00:32Z</time>
      </trkpt>
      <trkpt lat="43.61624" lon="3.01839">
        <ele>753.4</ele>
        <time>2026-05-20T12:00:37Z</time>
      </trkpt>
      <trkpt lat="43.61621" lon="3.01836">
        <ele>754.2</ele>
        <time>2026-05-20T12:00:42Z</time>
      </trkpt>
      <trkpt lat="43.61622" lon="3.01836">
        <ele>754.1</ele>
        <time>2026-05-20T12:00:47Z</time>
      </trkpt>
      <trkpt lat="43.61622" lon="3.01836">
        <ele>754.1</ele>
        <time>2026-05-20T12:00:52Z</time>
      </trkpt>
      <trkpt lat="43.61623" lon="3.01834">
        <ele>754.2</ele>
        <time>2026-05-20T12:00:57Z</time>
      </trkpt>
      <trkpt lat="43.61621" lon="3.01831">
        <ele>754.9</ele>
        <time>2026-05-20T12:01:02Z</time>
      </trkpt>
      <trkpt lat="43.6162" lon="3.01831">
        <ele>755.1</ele>
        <time>2026-05-20T12:01:07Z</time>
      </trkpt>
      <trkpt lat="43.6162" lon="3.01831">
        <ele>755.1</ele>
        <time>2026-05-20T12:01:12Z</time>
      </trkpt>
      <trkpt lat="43.6162" lon="3.01831">
        <ele>755.1</ele>
        <time>2026-05-20T12:01:17Z</time>
      </trkpt>
      <trkpt lat="43.61618" lon="3.01826">
        <ele>756.1</ele>
        <time>2026-05-20T12:01:22Z</time>
      </trkpt>
      <trkpt lat="43.61615" lon="3.01821">
        <ele>757.3</ele>
        <time>2026-05-20T12:01:27Z</time>
      </trkpt>
      <trkpt lat="43.61613" lon="3.01817">
        <ele>758.2</ele>
        <time>2026-05-20T12:01:32Z</time>
      </trkpt>
      <trkpt lat="43.61611" lon="3.01814">
        <ele>759</ele>
        <time>2026-05-20T12:01:37Z</time>
      </trkpt>
      <trkpt lat="43.61609" lon="3.01811">
        <ele>759.8</ele>
        <time>2026-05-20T12:01:42Z</time>
      </trkpt>
      <trkpt lat="43.61607" lon="3.01808">
        <ele>760.7</ele>
        <time>2026-05-20T12:01:47Z</time>
      </trkpt>
      <trkpt lat="43.61605" lon="3.01806">
        <ele>761.4</ele>
        <time>2026-05-20T12:01:52Z</time>
      </trkpt>
      <trkpt lat="43.61603" lon="3.01802">
        <ele>762.4</ele>
        <time>2026-05-20T12:01:57Z</time>
      </trkpt>
      <trkpt lat="43.61601" lon="3.01799">
        <ele>763.3</ele>
        <time>2026-05-20T12:02:02Z</time>
      </trkpt>
      <trkpt lat="43.61599" lon="3.01795">
        <ele>764.3</ele>
        <time>2026-05-20T12:02:07Z</time>
      </trkpt>
      <trkpt lat="43.61597" lon="3.01792">
        <ele>765.2</ele>
        <time>2026-05-20T12:02:12Z</time>
      </trkpt>
      <trkpt lat="43.61594" lon="3.0179">
        <ele>766.2</ele>
        <time>2026-05-20T12:02:17Z</time>
      </trkpt>
      <trkpt lat="43.61593" lon="3.01787">
        <ele>766.9</ele>
        <time>2026-05-20T12:02:22Z</time>
      </trkpt>
      <trkpt lat="43.61592" lon="3.01782">
        <ele>768</ele>
        <time>2026-05-20T12:02:27Z</time>
      </trkpt>
      <trkpt lat="43.61592" lon="3.01781">
        <ele>768.2</ele>
        <time>2026-05-20T12:02:32Z</time>
      </trkpt>
      <trkpt lat="43.61588" lon="3.01778">
        <ele>769.6</ele>
        <time>2026-05-20T12:02:37Z</time>
      </trkpt>
      <trkpt lat="43.61586" lon="3.01775">
        <ele>770.6</ele>
        <time>2026-05-20T12:02:42Z</time>
      </trkpt>
      <trkpt lat="43.61585" lon="3.01772">
        <ele>771.4</ele>
        <time>2026-05-20T12:02:47Z</time>
      </trkpt>
      <trkpt lat="43.61583" lon="3.01769">
        <ele>772.4</ele>
        <time>2026-05-20T12:02:52Z</time>
      </trkpt>
      <trkpt lat="43.61581" lon="3.01765">
        <ele>773.4</ele>
        <time>2026-05-20T12:02:57Z</time>
      </trkpt>
      <trkpt lat="43.61581" lon="3.01763">
        <ele>773.8</ele>
        <time>2026-05-20T12:03:02Z</time>
      </trkpt>
      <trkpt lat="43.61581" lon="3.01762">
        <ele>774</ele>
        <time>2026-05-20T12:03:07Z</time>
      </trkpt>
      <trkpt lat="43.61581" lon="3.01762">
        <ele>774</ele>
        <time>2026-05-20T12:03:12Z</time>
      </trkpt>
      <trkpt lat="43.61581" lon="3.01762">
        <ele>774</ele>
        <time>2026-05-20T12:03:17Z</time>
      </trkpt>
      <trkpt lat="43.61581" lon="3.01762">
        <ele>774</ele>
        <time>2026-05-20T12:03:22Z</time>
      </trkpt>
      <trkpt lat="43.61581" lon="3.01762">
        <ele>774</ele>
        <time>2026-05-20T12:03:27Z</time>
      </trkpt>
      <trkpt lat="43.61581" lon="3.01762">
        <ele>774</ele>
        <time>2026-05-20T12:03:32Z</time>
      </trkpt>
      <trkpt lat="43.61581" lon="3.01762">
        <ele>774</ele>
        <time>2026-05-20T12:03:37Z</time>
      </trkpt>
      <trkpt lat="43.61581" lon="3.01762">
        <ele>774</ele>
        <time>2026-05-20T12:03:42Z</time>
      </trkpt>
      <trkpt lat="43.61581" lon="3.01762">
        <ele>774</ele>
        <time>2026-05-20T12:03:47Z</time>
      </trkpt>
      <trkpt lat="43.61581" lon="3.01762">
        <ele>774</ele>
        <time>2026-05-20T12:03:52Z</time>
      </trkpt>
      <trkpt lat="43.61581" lon="3.01762">
        <ele>774</ele>
        <time>2026-05-20T12:03:57Z</time>
      </trkpt>
      <trkpt lat="43.61581" lon="3.01762">
        <ele>774</ele>
        <time>2026-05-20T12:04:02Z</time>
      </trkpt>
      <trkpt lat="43.61577" lon="3.0175">
        <ele>776.7</ele>
        <time>2026-05-20T12:04:07Z</time>
      </trkpt>
      <trkpt lat="43.61576" lon="3.01745">
        <ele>777.5</ele>
        <time>2026-05-20T12:04:12Z</time>
      </trkpt>
      <trkpt lat="43.61575" lon="3.0174">
        <ele>778.4</ele>
        <time>2026-05-20T12:04:17Z</time>
      </trkpt>
      <trkpt lat="43.61575" lon="3.01735">
        <ele>779.1</ele>
        <time>2026-05-20T12:04:22Z</time>
      </trkpt>
      <trkpt lat="43.61575" lon="3.01731">
        <ele>779.7</ele>
        <time>2026-05-20T12:04:27Z</time>
      </trkpt>
      <trkpt lat="43.61575" lon="3.01726">
        <ele>780.4</ele>
        <time>2026-05-20T12:04:32Z</time>
      </trkpt>
      <trkpt lat="43.61573" lon="3.01721">
        <ele>781.4</ele>
        <time>2026-05-20T12:04:37Z</time>
      </trkpt>
      <trkpt lat="43.61573" lon="3.01716">
        <ele>782.1</ele>
        <time>2026-05-20T12:04:42Z</time>
      </trkpt>
      <trkpt lat="43.61573" lon="3.01712">
        <ele>782.7</ele>
        <time>2026-05-20T12:04:47Z</time>
      </trkpt>
      <trkpt lat="43.61573" lon="3.01708">
        <ele>783.3</ele>
        <time>2026-05-20T12:04:52Z</time>
      </trkpt>
      <trkpt lat="43.61573" lon="3.01704">
        <ele>783.9</ele>
        <time>2026-05-20T12:04:57Z</time>
      </trkpt>
      <trkpt lat="43.61573" lon="3.01698">
        <ele>784.8</ele>
        <time>2026-05-20T12:05:02Z</time>
      </trkpt>
      <trkpt lat="43.61572" lon="3.01694">
        <ele>785.5</ele>
        <time>2026-05-20T12:05:07Z</time>
      </trkpt>
      <trkpt lat="43.61572" lon="3.0169">
        <ele>786.1</ele>
        <time>2026-05-20T12:05:12Z</time>
      </trkpt>
      <trkpt lat="43.61572" lon="3.01686">
        <ele>786.6</ele>
        <time>2026-05-20T12:05:17Z</time>
      </trkpt>
      <trkpt lat="43.61572" lon="3.01682">
        <ele>787.2</ele>
        <time>2026-05-20T12:05:22Z</time>
      </trkpt>
      <trkpt lat="43.61572" lon="3.01678">
        <ele>787.8</ele>
        <time>2026-05-20T12:05:27Z</time>
      </trkpt>
      <trkpt lat="43.61571" lon="3.01674">
        <ele>788.5</ele>
        <time>2026-05-20T12:05:32Z</time>
      </trkpt>
      <trkpt lat="43.61571" lon="3.0167">
        <ele>789.1</ele>
        <time>2026-05-20T12:05:37Z</time>
      </trkpt>
      <trkpt lat="43.61571" lon="3.01665">
        <ele>789.9</ele>
        <time>2026-05-20T12:05:42Z</time>
      </trkpt>
      <trkpt lat="43.61571" lon="3.01661">
        <ele>790.5</ele>
        <time>2026-05-20T12:05:47Z</time>
      </trkpt>
      <trkpt lat="43.6157" lon="3.01657">
        <ele>791.3</ele>
        <time>2026-05-20T12:05:52Z</time>
      </trkpt>
      <trkpt lat="43.6157" lon="3.01654">
        <ele>791.8</ele>
        <time>2026-05-20T12:05:57Z</time>
      </trkpt>
      <trkpt lat="43.6157" lon="3.01649">
        <ele>792.6</ele>
        <time>2026-05-20T12:06:02Z</time>
      </trkpt>
      <trkpt lat="43.6157" lon="3.01644">
        <ele>793.4</ele>
        <time>2026-05-20T12:06:07Z</time>
      </trkpt>
      <trkpt lat="43.6157" lon="3.01639">
        <ele>794.2</ele>
        <time>2026-05-20T12:06:12Z</time>
      </trkpt>
      <trkpt lat="43.61569" lon="3.01634">
        <ele>795.2</ele>
        <time>2026-05-20T12:06:17Z</time>
      </trkpt>
      <trkpt lat="43.6157" lon="3.01629">
        <ele>795.9</ele>
        <time>2026-05-20T12:06:22Z</time>
      </trkpt>
      <trkpt lat="43.6157" lon="3.01623">
        <ele>796.8</ele>
        <time>2026-05-20T12:06:27Z</time>
      </trkpt>
      <trkpt lat="43.61571" lon="3.01619">
        <ele>797.3</ele>
        <time>2026-05-20T12:06:32Z</time>
      </trkpt>
      <trkpt lat="43.6157" lon="3.01613">
        <ele>798.4</ele>
        <time>2026-05-20T12:06:37Z</time>
      </trkpt>
      <trkpt lat="43.6157" lon="3.01608">
        <ele>799.2</ele>
        <time>2026-05-20T12:06:42Z</time>
      </trkpt>
      <trkpt lat="43.61571" lon="3.01602">
        <ele>800.1</ele>
        <time>2026-05-20T12:06:47Z</time>
      </trkpt>
      <trkpt lat="43.61571" lon="3.01597">
        <ele>800.9</ele>
        <time>2026-05-20T12:06:52Z</time>
      </trkpt>
      <trkpt lat="43.61571" lon="3.01593">
        <ele>801.5</ele>
        <time>2026-05-20T12:06:57Z</time>
      </trkpt>
      <trkpt lat="43.61571" lon="3.01588">
        <ele>802.3</ele>
        <time>2026-05-20T12:07:02Z</time>
      </trkpt>
      <trkpt lat="43.61571" lon="3.01584">
        <ele>803</ele>
        <time>2026-05-20T12:07:07Z</time>
      </trkpt>
      <trkpt lat="43.61571" lon="3.01578">
        <ele>803.8</ele>
        <time>2026-05-20T12:07:12Z</time>
      </trkpt>
      <trkpt lat="43.61571" lon="3.01573">
        <ele>804.4</ele>
        <time>2026-05-20T12:07:17Z</time>
      </trkpt>
      <trkpt lat="43.61571" lon="3.01569">
        <ele>804.9</ele>
        <time>2026-05-20T12:07:22Z</time>
      </trkpt>
      <trkpt lat="43.6157" lon="3.01565">
        <ele>805.6</ele>
        <time>2026-05-20T12:07:27Z</time>
      </trkpt>
      <trkpt lat="43.6157" lon="3.01562">
        <ele>806</ele>
        <time>2026-05-20T12:07:32Z</time>
      </trkpt>
      <trkpt lat="43.6157" lon="3.01558">
        <ele>806.5</ele>
        <time>2026-05-20T12:07:37Z</time>
      </trkpt>
      <trkpt lat="43.61569" lon="3.01553">
        <ele>807.4</ele>
        <time>2026-05-20T12:07:42Z</time>
      </trkpt>
      <trkpt lat="43.61568" lon="3.01549">
        <ele>808.1</ele>
        <time>2026-05-20T12:07:47Z</time>
      </trkpt>
      <trkpt lat="43.61567" lon="3.01546">
        <ele>808.7</ele>
        <time>2026-05-20T12:07:52Z</time>
      </trkpt>
      <trkpt lat="43.61565" lon="3.01543">
        <ele>809.5</ele>
        <time>2026-05-20T12:07:57Z</time>
      </trkpt>
      <trkpt lat="43.61564" lon="3.01538">
        <ele>810.3</ele>
        <time>2026-05-20T12:08:02Z</time>
      </trkpt>
      <trkpt lat="43.61564" lon="3.01533">
        <ele>811</ele>
        <time>2026-05-20T12:08:07Z</time>
      </trkpt>
      <trkpt lat="43.61563" lon="3.01528">
        <ele>811.9</ele>
        <time>2026-05-20T12:08:12Z</time>
      </trkpt>
      <trkpt lat="43.61562" lon="3.01523">
        <ele>812.8</ele>
        <time>2026-05-20T12:08:17Z</time>
      </trkpt>
      <trkpt lat="43.61561" lon="3.01518">
        <ele>813.6</ele>
        <time>2026-05-20T12:08:22Z</time>
      </trkpt>
      <trkpt lat="43.61561" lon="3.01515">
        <ele>814.1</ele>
        <time>2026-05-20T12:08:27Z</time>
      </trkpt>
      <trkpt lat="43.6156" lon="3.01508">
        <ele>815.2</ele>
        <time>2026-05-20T12:08:32Z</time>
      </trkpt>
      <trkpt lat="43.6156" lon="3.01502">
        <ele>816</ele>
        <time>2026-05-20T12:08:37Z</time>
      </trkpt>
      <trkpt lat="43.6156" lon="3.01497">
        <ele>816.6</ele>
        <time>2026-05-20T12:08:42Z</time>
      </trkpt>
      <trkpt lat="43.61559" lon="3.01492">
        <ele>817.4</ele>
        <time>2026-05-20T12:08:47Z</time>
      </trkpt>
      <trkpt lat="43.61558" lon="3.01488">
        <ele>818</ele>
        <time>2026-05-20T12:08:52Z</time>
      </trkpt>
      <trkpt lat="43.61558" lon="3.01483">
        <ele>818.5</ele>
        <time>2026-05-20T12:08:57Z</time>
      </trkpt>
      <trkpt lat="43.61557" lon="3.01478">
        <ele>819.3</ele>
        <time>2026-05-20T12:09:02Z</time>
      </trkpt>
      <trkpt lat="43.61557" lon="3.01473">
        <ele>819.8</ele>
        <time>2026-05-20T12:09:07Z</time>
      </trkpt>
      <trkpt lat="43.61557" lon="3.01468">
        <ele>820.3</ele>
        <time>2026-05-20T12:09:12Z</time>
      </trkpt>
      <trkpt lat="43.61556" lon="3.01464">
        <ele>821</ele>
        <time>2026-05-20T12:09:17Z</time>
      </trkpt>
      <trkpt lat="43.61556" lon="3.0146">
        <ele>821.4</ele>
        <time>2026-05-20T12:09:22Z</time>
      </trkpt>
      <trkpt lat="43.61555" lon="3.01454">
        <ele>822.3</ele>
        <time>2026-05-20T12:09:27Z</time>
      </trkpt>
      <trkpt lat="43.61555" lon="3.01449">
        <ele>822.8</ele>
        <time>2026-05-20T12:09:32Z</time>
      </trkpt>
      <trkpt lat="43.61555" lon="3.01443">
        <ele>823.4</ele>
        <time>2026-05-20T12:09:37Z</time>
      </trkpt>
      <trkpt lat="43.61555" lon="3.01438">
        <ele>823.9</ele>
        <time>2026-05-20T12:09:42Z</time>
      </trkpt>
      <trkpt lat="43.61556" lon="3.01431">
        <ele>824.4</ele>
        <time>2026-05-20T12:09:47Z</time>
      </trkpt>
      <trkpt lat="43.61556" lon="3.01425">
        <ele>825</ele>
        <time>2026-05-20T12:09:52Z</time>
      </trkpt>
      <trkpt lat="43.61556" lon="3.01418">
        <ele>825.7</ele>
        <time>2026-05-20T12:09:57Z</time>
      </trkpt>
      <trkpt lat="43.61557" lon="3.01414">
        <ele>825.8</ele>
        <time>2026-05-20T12:10:02Z</time>
      </trkpt>
      <trkpt lat="43.61557" lon="3.01407">
        <ele>826.3</ele>
        <time>2026-05-20T12:10:07Z</time>
      </trkpt>
      <trkpt lat="43.61558" lon="3.01402">
        <ele>826.3</ele>
        <time>2026-05-20T12:10:12Z</time>
      </trkpt>
      <trkpt lat="43.61558" lon="3.01396">
        <ele>826.7</ele>
        <time>2026-05-20T12:10:17Z</time>
      </trkpt>
      <trkpt lat="43.6156" lon="3.0139">
        <ele>826.7</ele>
        <time>2026-05-20T12:10:22Z</time>
      </trkpt>
      <trkpt lat="43.61561" lon="3.01384">
        <ele>826.8</ele>
        <time>2026-05-20T12:10:27Z</time>
      </trkpt>
      <trkpt lat="43.61563" lon="3.01377">
        <ele>826.9</ele>
        <time>2026-05-20T12:10:32Z</time>
      </trkpt>
      <trkpt lat="43.61564" lon="3.0137">
        <ele>827.1</ele>
        <time>2026-05-20T12:10:37Z</time>
      </trkpt>
      <trkpt lat="43.61566" lon="3.01363">
        <ele>827.2</ele>
        <time>2026-05-20T12:10:42Z</time>
      </trkpt>
      <trkpt lat="43.61568" lon="3.01354">
        <ele>827.4</ele>
        <time>2026-05-20T12:10:47Z</time>
      </trkpt>
      <trkpt lat="43.61569" lon="3.01346">
        <ele>827.8</ele>
        <time>2026-05-20T12:10:52Z</time>
      </trkpt>
      <trkpt lat="43.6157" lon="3.01337">
        <ele>828.3</ele>
        <time>2026-05-20T12:10:57Z</time>
      </trkpt>
      <trkpt lat="43.61573" lon="3.01328">
        <ele>827.8</ele>
        <time>2026-05-20T12:11:02Z</time>
      </trkpt>
      <trkpt lat="43.61574" lon="3.0132">
        <ele>827.4</ele>
        <time>2026-05-20T12:11:07Z</time>
      </trkpt>
      <trkpt lat="43.61575" lon="3.01311">
        <ele>826.9</ele>
        <time>2026-05-20T12:11:12Z</time>
      </trkpt>
      <trkpt lat="43.61577" lon="3.01302">
        <ele>826.3</ele>
        <time>2026-05-20T12:11:17Z</time>
      </trkpt>
      <trkpt lat="43.61578" lon="3.01294">
        <ele>825.9</ele>
        <time>2026-05-20T12:11:22Z</time>
      </trkpt>
      <trkpt lat="43.6158" lon="3.01284">
        <ele>825.3</ele>
        <time>2026-05-20T12:11:27Z</time>
      </trkpt>
      <trkpt lat="43.6158" lon="3.01274">
        <ele>825</ele>
        <time>2026-05-20T12:11:32Z</time>
      </trkpt>
      <trkpt lat="43.61579" lon="3.01265">
        <ele>824.9</ele>
        <time>2026-05-20T12:11:37Z</time>
      </trkpt>
      <trkpt lat="43.61578" lon="3.01258">
        <ele>824.9</ele>
        <time>2026-05-20T12:11:42Z</time>
      </trkpt>
      <trkpt lat="43.61578" lon="3.01249">
        <ele>824.5</ele>
        <time>2026-05-20T12:11:47Z</time>
      </trkpt>
      <trkpt lat="43.61576" lon="3.01241">
        <ele>823.8</ele>
        <time>2026-05-20T12:11:52Z</time>
      </trkpt>
      <trkpt lat="43.61574" lon="3.01232">
        <ele>823</ele>
        <time>2026-05-20T12:11:57Z</time>
      </trkpt>
      <trkpt lat="43.61572" lon="3.01224">
        <ele>822.3</ele>
        <time>2026-05-20T12:12:02Z</time>
      </trkpt>
      <trkpt lat="43.6157" lon="3.01215">
        <ele>821.5</ele>
        <time>2026-05-20T12:12:07Z</time>
      </trkpt>
      <trkpt lat="43.61568" lon="3.01206">
        <ele>820.8</ele>
        <time>2026-05-20T12:12:12Z</time>
      </trkpt>
      <trkpt lat="43.61566" lon="3.01197">
        <ele>820</ele>
        <time>2026-05-20T12:12:17Z</time>
      </trkpt>
      <trkpt lat="43.61562" lon="3.01189">
        <ele>819.6</ele>
        <time>2026-05-20T12:12:22Z</time>
      </trkpt>
      <trkpt lat="43.61558" lon="3.01182">
        <ele>819.4</ele>
        <time>2026-05-20T12:12:27Z</time>
      </trkpt>
      <trkpt lat="43.61555" lon="3.01176">
        <ele>819.1</ele>
        <time>2026-05-20T12:12:32Z</time>
      </trkpt>
      <trkpt lat="43.6155" lon="3.01171">
        <ele>819.3</ele>
        <time>2026-05-20T12:12:37Z</time>
      </trkpt>
      <trkpt lat="43.61549" lon="3.0117">
        <ele>819.3</ele>
        <time>2026-05-20T12:12:42Z</time>
      </trkpt>
      <trkpt lat="43.61549" lon="3.01169">
        <ele>819.2</ele>
        <time>2026-05-20T12:12:47Z</time>
      </trkpt>
      <trkpt lat="43.61549" lon="3.01169">
        <ele>819.2</ele>
        <time>2026-05-20T12:12:52Z</time>
      </trkpt>
      <trkpt lat="43.61549" lon="3.01169">
        <ele>819.2</ele>
        <time>2026-05-20T12:12:57Z</time>
      </trkpt>
      <trkpt lat="43.61549" lon="3.01169">
        <ele>819.2</ele>
        <time>2026-05-20T12:13:02Z</time>
      </trkpt>
      <trkpt lat="43.61545" lon="3.01162">
        <ele>818.9</ele>
        <time>2026-05-20T12:13:07Z</time>
      </trkpt>
      <trkpt lat="43.61542" lon="3.0116">
        <ele>819</ele>
        <time>2026-05-20T12:13:12Z</time>
      </trkpt>
      <trkpt lat="43.61542" lon="3.0116">
        <ele>819</ele>
        <time>2026-05-20T12:13:17Z</time>
      </trkpt>
      <trkpt lat="43.6154" lon="3.01157">
        <ele>818.9</ele>
        <time>2026-05-20T12:13:22Z</time>
      </trkpt>
      <trkpt lat="43.61535" lon="3.01152">
        <ele>819</ele>
        <time>2026-05-20T12:13:27Z</time>
      </trkpt>
      <trkpt lat="43.6153" lon="3.0115">
        <ele>819.5</ele>
        <time>2026-05-20T12:13:32Z</time>
      </trkpt>
      <trkpt lat="43.61525" lon="3.01145">
        <ele>819.7</ele>
        <time>2026-05-20T12:13:37Z</time>
      </trkpt>
      <trkpt lat="43.6152" lon="3.01141">
        <ele>820</ele>
        <time>2026-05-20T12:13:42Z</time>
      </trkpt>
      <trkpt lat="43.61516" lon="3.01138">
        <ele>820.3</ele>
        <time>2026-05-20T12:13:47Z</time>
      </trkpt>
      <trkpt lat="43.61515" lon="3.0114">
        <ele>820.7</ele>
        <time>2026-05-20T12:13:52Z</time>
      </trkpt>
      <trkpt lat="43.61513" lon="3.01141">
        <ele>821.1</ele>
        <time>2026-05-20T12:13:57Z</time>
      </trkpt>
      <trkpt lat="43.61513" lon="3.01141">
        <ele>821.1</ele>
        <time>2026-05-20T12:14:02Z</time>
      </trkpt>
      <trkpt lat="43.61513" lon="3.01141">
        <ele>821.1</ele>
        <time>2026-05-20T12:14:07Z</time>
      </trkpt>
      <trkpt lat="43.61513" lon="3.01141">
        <ele>821.1</ele>
        <time>2026-05-20T12:14:12Z</time>
      </trkpt>
      <trkpt lat="43.61513" lon="3.01141">
        <ele>821.1</ele>
        <time>2026-05-20T12:14:17Z</time>
      </trkpt>
      <trkpt lat="43.61513" lon="3.01141">
        <ele>821.1</ele>
        <time>2026-05-20T12:14:22Z</time>
      </trkpt>
      <trkpt lat="43.61513" lon="3.01141">
        <ele>821.1</ele>
        <time>2026-05-20T12:14:27Z</time>
      </trkpt>
      <trkpt lat="43.61513" lon="3.01141">
        <ele>821.1</ele>
        <time>2026-05-20T12:14:32Z</time>
      </trkpt>
      <trkpt lat="43.61513" lon="3.01141">
        <ele>821.1</ele>
        <time>2026-05-20T12:14:37Z</time>
      </trkpt>
      <trkpt lat="43.61513" lon="3.01141">
        <ele>821.1</ele>
        <time>2026-05-20T12:14:42Z</time>
      </trkpt>
      <trkpt lat="43.61513" lon="3.01141">
        <ele>821.1</ele>
        <time>2026-05-20T12:14:47Z</time>
      </trkpt>
      <trkpt lat="43.61513" lon="3.01141">
        <ele>821.1</ele>
        <time>2026-05-20T12:14:52Z</time>
      </trkpt>
      <trkpt lat="43.61513" lon="3.01141">
        <ele>821.1</ele>
        <time>2026-05-20T12:14:57Z</time>
      </trkpt>
      <trkpt lat="43.61513" lon="3.01141">
        <ele>821.1</ele>
        <time>2026-05-20T12:15:02Z</time>
      </trkpt>
      <trkpt lat="43.61513" lon="3.01141">
        <ele>821.1</ele>
        <time>2026-05-20T12:15:07Z</time>
      </trkpt>
      <trkpt lat="43.61513" lon="3.01141">
        <ele>821.1</ele>
        <time>2026-05-20T12:15:12Z</time>
      </trkpt>
      <trkpt lat="43.61513" lon="3.01141">
        <ele>821.1</ele>
        <time>2026-05-20T12:15:17Z</time>
      </trkpt>
      <trkpt lat="43.61513" lon="3.01141">
        <ele>821.1</ele>
        <time>2026-05-20T12:15:22Z</time>
      </trkpt>
      <trkpt lat="43.61513" lon="3.01141">
        <ele>821.1</ele>
        <time>2026-05-20T12:15:27Z</time>
      </trkpt>
      <trkpt lat="43.61513" lon="3.01141">
        <ele>821.1</ele>
        <time>2026-05-20T12:15:32Z</time>
      </trkpt>
      <trkpt lat="43.61513" lon="3.01141">
        <ele>821.1</ele>
        <time>2026-05-20T12:15:37Z</time>
      </trkpt>
      <trkpt lat="43.61513" lon="3.01141">
        <ele>821.1</ele>
        <time>2026-05-20T12:15:42Z</time>
      </trkpt>
      <trkpt lat="43.61513" lon="3.01141">
        <ele>821.1</ele>
        <time>2026-05-20T12:15:47Z</time>
      </trkpt>
      <trkpt lat="43.61513" lon="3.01141">
        <ele>821.1</ele>
        <time>2026-05-20T12:15:52Z</time>
      </trkpt>
      <trkpt lat="43.61513" lon="3.01141">
        <ele>821.1</ele>
        <time>2026-05-20T12:15:57Z</time>
      </trkpt>
      <trkpt lat="43.61513" lon="3.01141">
        <ele>821.1</ele>
        <time>2026-05-20T12:16:02Z</time>
      </trkpt>
      <trkpt lat="43.61513" lon="3.01141">
        <ele>821.1</ele>
        <time>2026-05-20T12:16:07Z</time>
      </trkpt>
      <trkpt lat="43.61513" lon="3.01141">
        <ele>821.1</ele>
        <time>2026-05-20T12:16:12Z</time>
      </trkpt>
      <trkpt lat="43.61513" lon="3.01141">
        <ele>821.1</ele>
        <time>2026-05-20T12:16:17Z</time>
      </trkpt>
      <trkpt lat="43.61513" lon="3.01141">
        <ele>821.1</ele>
        <time>2026-05-20T12:16:22Z</time>
      </trkpt>
      <trkpt lat="43.61513" lon="3.01141">
        <ele>821.1</ele>
        <time>2026-05-20T12:16:27Z</time>
      </trkpt>
      <trkpt lat="43.61513" lon="3.01141">
        <ele>821.1</ele>
        <time>2026-05-20T12:16:32Z</time>
      </trkpt>
      <trkpt lat="43.61513" lon="3.01141">
        <ele>821.1</ele>
        <time>2026-05-20T12:16:37Z</time>
      </trkpt>
      <trkpt lat="43.61513" lon="3.01141">
        <ele>821.1</ele>
        <time>2026-05-20T12:16:42Z</time>
      </trkpt>
      <trkpt lat="43.61513" lon="3.01141">
        <ele>821.1</ele>
        <time>2026-05-20T12:16:47Z</time>
      </trkpt>
      <trkpt lat="43.61513" lon="3.01141">
        <ele>821.1</ele>
        <time>2026-05-20T12:16:52Z</time>
      </trkpt>
      <trkpt lat="43.61513" lon="3.01141">
        <ele>821.1</ele>
        <time>2026-05-20T12:16:57Z</time>
      </trkpt>
      <trkpt lat="43.61513" lon="3.01141">
        <ele>821.1</ele>
        <time>2026-05-20T12:17:02Z</time>
      </trkpt>
      <trkpt lat="43.61513" lon="3.01141">
        <ele>821.1</ele>
        <time>2026-05-20T12:17:07Z</time>
      </trkpt>
      <trkpt lat="43.61513" lon="3.01141">
        <ele>821.1</ele>
        <time>2026-05-20T12:17:12Z</time>
      </trkpt>
      <trkpt lat="43.61513" lon="3.01141">
        <ele>821.1</ele>
        <time>2026-05-20T12:17:17Z</time>
      </trkpt>
      <trkpt lat="43.61513" lon="3.01141">
        <ele>821.1</ele>
        <time>2026-05-20T12:17:22Z</time>
      </trkpt>
      <trkpt lat="43.61513" lon="3.01141">
        <ele>821.1</ele>
        <time>2026-05-20T12:17:27Z</time>
      </trkpt>
      <trkpt lat="43.61513" lon="3.01141">
        <ele>821.1</ele>
        <time>2026-05-20T12:17:32Z</time>
      </trkpt>
      <trkpt lat="43.61513" lon="3.01141">
        <ele>821.1</ele>
        <time>2026-05-20T12:17:37Z</time>
      </trkpt>
      <trkpt lat="43.61513" lon="3.01141">
        <ele>821.1</ele>
        <time>2026-05-20T12:17:42Z</time>
      </trkpt>
      <trkpt lat="43.61513" lon="3.01141">
        <ele>821.1</ele>
        <time>2026-05-20T12:17:47Z</time>
      </trkpt>
      <trkpt lat="43.61513" lon="3.01141">
        <ele>821.1</ele>
        <time>2026-05-20T12:17:52Z</time>
      </trkpt>
      <trkpt lat="43.61513" lon="3.01141">
        <ele>821.1</ele>
        <time>2026-05-20T12:17:57Z</time>
      </trkpt>
      <trkpt lat="43.61513" lon="3.01141">
        <ele>821.1</ele>
        <time>2026-05-20T12:18:02Z</time>
      </trkpt>
      <trkpt lat="43.61513" lon="3.01141">
        <ele>821.1</ele>
        <time>2026-05-20T12:18:07Z</time>
      </trkpt>
      <trkpt lat="43.61513" lon="3.01141">
        <ele>821.1</ele>
        <time>2026-05-20T12:18:12Z</time>
      </trkpt>
      <trkpt lat="43.61513" lon="3.01141">
        <ele>821.1</ele>
        <time>2026-05-20T12:18:17Z</time>
      </trkpt>
      <trkpt lat="43.61513" lon="3.01141">
        <ele>821.1</ele>
        <time>2026-05-20T12:18:22Z</time>
      </trkpt>
      <trkpt lat="43.61513" lon="3.01141">
        <ele>821.1</ele>
        <time>2026-05-20T12:18:27Z</time>
      </trkpt>
      <trkpt lat="43.61513" lon="3.01141">
        <ele>821.1</ele>
        <time>2026-05-20T12:18:32Z</time>
      </trkpt>
      <trkpt lat="43.61513" lon="3.01141">
        <ele>821.1</ele>
        <time>2026-05-20T12:18:37Z</time>
      </trkpt>
      <trkpt lat="43.61513" lon="3.01141">
        <ele>821.1</ele>
        <time>2026-05-20T12:18:42Z</time>
      </trkpt>
      <trkpt lat="43.61513" lon="3.01141">
        <ele>821.1</ele>
        <time>2026-05-20T12:18:47Z</time>
      </trkpt>
      <trkpt lat="43.61513" lon="3.01141">
        <ele>821.1</ele>
        <time>2026-05-20T12:18:52Z</time>
      </trkpt>
      <trkpt lat="43.61513" lon="3.01141">
        <ele>821.1</ele>
        <time>2026-05-20T12:18:57Z</time>
      </trkpt>
      <trkpt lat="43.61513" lon="3.01141">
        <ele>821.1</ele>
        <time>2026-05-20T12:19:02Z</time>
      </trkpt>
      <trkpt lat="43.61513" lon="3.01141">
        <ele>821.1</ele>
        <time>2026-05-20T12:19:07Z</time>
      </trkpt>
      <trkpt lat="43.61513" lon="3.01141">
        <ele>821.1</ele>
        <time>2026-05-20T12:19:12Z</time>
      </trkpt>
      <trkpt lat="43.6151" lon="3.0114">
        <ele>821.5</ele>
        <time>2026-05-20T12:19:17Z</time>
      </trkpt>
      <trkpt lat="43.61505" lon="3.01134">
        <ele>821.6</ele>
        <time>2026-05-20T12:19:22Z</time>
      </trkpt>
      <trkpt lat="43.61501" lon="3.01129">
        <ele>821.8</ele>
        <time>2026-05-20T12:19:27Z</time>
      </trkpt>
      <trkpt lat="43.61495" lon="3.01126">
        <ele>822.1</ele>
        <time>2026-05-20T12:19:32Z</time>
      </trkpt>
      <trkpt lat="43.6149" lon="3.01122">
        <ele>822.3</ele>
        <time>2026-05-20T12:19:37Z</time>
      </trkpt>
      <trkpt lat="43.61485" lon="3.01117">
        <ele>822.3</ele>
        <time>2026-05-20T12:19:42Z</time>
      </trkpt>
      <trkpt lat="43.6148" lon="3.01111">
        <ele>822.1</ele>
        <time>2026-05-20T12:19:47Z</time>
      </trkpt>
      <trkpt lat="43.61476" lon="3.01104">
        <ele>821.8</ele>
        <time>2026-05-20T12:19:52Z</time>
      </trkpt>
      <trkpt lat="43.61471" lon="3.01097">
        <ele>821.6</ele>
        <time>2026-05-20T12:19:57Z</time>
      </trkpt>
      <trkpt lat="43.61468" lon="3.01092">
        <ele>821.4</ele>
        <time>2026-05-20T12:20:02Z</time>
      </trkpt>
      <trkpt lat="43.61464" lon="3.01086">
        <ele>821.2</ele>
        <time>2026-05-20T12:20:07Z</time>
      </trkpt>
      <trkpt lat="43.61461" lon="3.01078">
        <ele>820.8</ele>
        <time>2026-05-20T12:20:12Z</time>
      </trkpt>
      <trkpt lat="43.61459" lon="3.0107">
        <ele>820.4</ele>
        <time>2026-05-20T12:20:17Z</time>
      </trkpt>
      <trkpt lat="43.61456" lon="3.0106">
        <ele>819.9</ele>
        <time>2026-05-20T12:20:22Z</time>
      </trkpt>
      <trkpt lat="43.61454" lon="3.0105">
        <ele>819.3</ele>
        <time>2026-05-20T12:20:27Z</time>
      </trkpt>
      <trkpt lat="43.61453" lon="3.01039">
        <ele>818.5</ele>
        <time>2026-05-20T12:20:32Z</time>
      </trkpt>
      <trkpt lat="43.61452" lon="3.01029">
        <ele>817.8</ele>
        <time>2026-05-20T12:20:37Z</time>
      </trkpt>
      <trkpt lat="43.6145" lon="3.0102">
        <ele>817.2</ele>
        <time>2026-05-20T12:20:42Z</time>
      </trkpt>
      <trkpt lat="43.61445" lon="3.01011">
        <ele>816.9</ele>
        <time>2026-05-20T12:20:47Z</time>
      </trkpt>
      <trkpt lat="43.61443" lon="3.01001">
        <ele>816.2</ele>
        <time>2026-05-20T12:20:52Z</time>
      </trkpt>
      <trkpt lat="43.61439" lon="3.00992">
        <ele>816</ele>
        <time>2026-05-20T12:20:57Z</time>
      </trkpt>
      <trkpt lat="43.61435" lon="3.00984">
        <ele>815.8</ele>
        <time>2026-05-20T12:21:02Z</time>
      </trkpt>
      <trkpt lat="43.61433" lon="3.00975">
        <ele>815.5</ele>
        <time>2026-05-20T12:21:07Z</time>
      </trkpt>
      <trkpt lat="43.61432" lon="3.00968">
        <ele>815.2</ele>
        <time>2026-05-20T12:21:12Z</time>
      </trkpt>
      <trkpt lat="43.6143" lon="3.00959">
        <ele>814.8</ele>
        <time>2026-05-20T12:21:17Z</time>
      </trkpt>
      <trkpt lat="43.61428" lon="3.00951">
        <ele>814.5</ele>
        <time>2026-05-20T12:21:22Z</time>
      </trkpt>
      <trkpt lat="43.61426" lon="3.00942">
        <ele>814.1</ele>
        <time>2026-05-20T12:21:27Z</time>
      </trkpt>
      <trkpt lat="43.61424" lon="3.00933">
        <ele>813.7</ele>
        <time>2026-05-20T12:21:32Z</time>
      </trkpt>
      <trkpt lat="43.61424" lon="3.00922">
        <ele>813</ele>
        <time>2026-05-20T12:21:37Z</time>
      </trkpt>
      <trkpt lat="43.61425" lon="3.00912">
        <ele>812.3</ele>
        <time>2026-05-20T12:21:42Z</time>
      </trkpt>
      <trkpt lat="43.61427" lon="3.00902">
        <ele>811.4</ele>
        <time>2026-05-20T12:21:47Z</time>
      </trkpt>
      <trkpt lat="43.61428" lon="3.00893">
        <ele>810.6</ele>
        <time>2026-05-20T12:21:52Z</time>
      </trkpt>
      <trkpt lat="43.61429" lon="3.00883">
        <ele>809.7</ele>
        <time>2026-05-20T12:21:57Z</time>
      </trkpt>
      <trkpt lat="43.61432" lon="3.00872">
        <ele>808.8</ele>
        <time>2026-05-20T12:22:02Z</time>
      </trkpt>
      <trkpt lat="43.61432" lon="3.00863">
        <ele>808</ele>
        <time>2026-05-20T12:22:07Z</time>
      </trkpt>
      <trkpt lat="43.61434" lon="3.00852">
        <ele>807.1</ele>
        <time>2026-05-20T12:22:12Z</time>
      </trkpt>
      <trkpt lat="43.61437" lon="3.00842">
        <ele>806.4</ele>
        <time>2026-05-20T12:22:17Z</time>
      </trkpt>
      <trkpt lat="43.61438" lon="3.00835">
        <ele>805.9</ele>
        <time>2026-05-20T12:22:22Z</time>
      </trkpt>
      <trkpt lat="43.61439" lon="3.00826">
        <ele>804.8</ele>
        <time>2026-05-20T12:22:27Z</time>
      </trkpt>
      <trkpt lat="43.61441" lon="3.00817">
        <ele>803.6</ele>
        <time>2026-05-20T12:22:32Z</time>
      </trkpt>
      <trkpt lat="43.61443" lon="3.00805">
        <ele>802.2</ele>
        <time>2026-05-20T12:22:37Z</time>
      </trkpt>
      <trkpt lat="43.61444" lon="3.00794">
        <ele>800.8</ele>
        <time>2026-05-20T12:22:42Z</time>
      </trkpt>
      <trkpt lat="43.61444" lon="3.00785">
        <ele>799.6</ele>
        <time>2026-05-20T12:22:47Z</time>
      </trkpt>
      <trkpt lat="43.61445" lon="3.00775">
        <ele>798.4</ele>
        <time>2026-05-20T12:22:52Z</time>
      </trkpt>
      <trkpt lat="43.61448" lon="3.00767">
        <ele>797.7</ele>
        <time>2026-05-20T12:22:57Z</time>
      </trkpt>
      <trkpt lat="43.6145" lon="3.00765">
        <ele>797.7</ele>
        <time>2026-05-20T12:23:02Z</time>
      </trkpt>
      <trkpt lat="43.6145" lon="3.00763">
        <ele>797.4</ele>
        <time>2026-05-20T12:23:07Z</time>
      </trkpt>
      <trkpt lat="43.6145" lon="3.00763">
        <ele>797.4</ele>
        <time>2026-05-20T12:23:12Z</time>
      </trkpt>
      <trkpt lat="43.6145" lon="3.00763">
        <ele>797.4</ele>
        <time>2026-05-20T12:23:17Z</time>
      </trkpt>
      <trkpt lat="43.61449" lon="3.00757">
        <ele>796.5</ele>
        <time>2026-05-20T12:23:22Z</time>
      </trkpt>
      <trkpt lat="43.61451" lon="3.00749">
        <ele>795.9</ele>
        <time>2026-05-20T12:23:27Z</time>
      </trkpt>
      <trkpt lat="43.61452" lon="3.00739">
        <ele>795.1</ele>
        <time>2026-05-20T12:23:32Z</time>
      </trkpt>
      <trkpt lat="43.61454" lon="3.00729">
        <ele>794.6</ele>
        <time>2026-05-20T12:23:37Z</time>
      </trkpt>
      <trkpt lat="43.61454" lon="3.0072">
        <ele>793.8</ele>
        <time>2026-05-20T12:23:42Z</time>
      </trkpt>
      <trkpt lat="43.61457" lon="3.0071">
        <ele>793.4</ele>
        <time>2026-05-20T12:23:47Z</time>
      </trkpt>
      <trkpt lat="43.61459" lon="3.007">
        <ele>792.9</ele>
        <time>2026-05-20T12:23:52Z</time>
      </trkpt>
      <trkpt lat="43.61462" lon="3.00691">
        <ele>792.6</ele>
        <time>2026-05-20T12:23:57Z</time>
      </trkpt>
      <trkpt lat="43.61463" lon="3.00681">
        <ele>792</ele>
        <time>2026-05-20T12:24:02Z</time>
      </trkpt>
      <trkpt lat="43.61464" lon="3.00671">
        <ele>791.3</ele>
        <time>2026-05-20T12:24:07Z</time>
      </trkpt>
      <trkpt lat="43.61466" lon="3.00662">
        <ele>791</ele>
        <time>2026-05-20T12:24:12Z</time>
      </trkpt>
      <trkpt lat="43.61467" lon="3.00653">
        <ele>790.6</ele>
        <time>2026-05-20T12:24:17Z</time>
      </trkpt>
      <trkpt lat="43.61465" lon="3.00645">
        <ele>789.8</ele>
        <time>2026-05-20T12:24:22Z</time>
      </trkpt>
      <trkpt lat="43.61461" lon="3.00638">
        <ele>788.8</ele>
        <time>2026-05-20T12:24:27Z</time>
      </trkpt>
      <trkpt lat="43.61456" lon="3.00634">
        <ele>787.9</ele>
        <time>2026-05-20T12:24:32Z</time>
      </trkpt>
      <trkpt lat="43.6145" lon="3.00632">
        <ele>786.9</ele>
        <time>2026-05-20T12:24:37Z</time>
      </trkpt>
      <trkpt lat="43.61445" lon="3.00635">
        <ele>786.4</ele>
        <time>2026-05-20T12:24:42Z</time>
      </trkpt>
      <trkpt lat="43.61441" lon="3.00637">
        <ele>785.9</ele>
        <time>2026-05-20T12:24:47Z</time>
      </trkpt>
      <trkpt lat="43.61436" lon="3.00638">
        <ele>785.2</ele>
        <time>2026-05-20T12:24:52Z</time>
      </trkpt>
      <trkpt lat="43.61433" lon="3.00647">
        <ele>785</ele>
        <time>2026-05-20T12:24:57Z</time>
      </trkpt>
      <trkpt lat="43.61427" lon="3.00653">
        <ele>784.3</ele>
        <time>2026-05-20T12:25:02Z</time>
      </trkpt>
      <trkpt lat="43.61422" lon="3.0066">
        <ele>783.7</ele>
        <time>2026-05-20T12:25:07Z</time>
      </trkpt>
      <trkpt lat="43.61416" lon="3.00666">
        <ele>783</ele>
        <time>2026-05-20T12:25:12Z</time>
      </trkpt>
      <trkpt lat="43.6141" lon="3.00673">
        <ele>783.8</ele>
        <time>2026-05-20T12:25:17Z</time>
      </trkpt>
      <trkpt lat="43.61406" lon="3.00679">
        <ele>784.4</ele>
        <time>2026-05-20T12:25:22Z</time>
      </trkpt>
      <trkpt lat="43.61403" lon="3.00687">
        <ele>785</ele>
        <time>2026-05-20T12:25:27Z</time>
      </trkpt>
      <trkpt lat="43.61398" lon="3.00693">
        <ele>785.4</ele>
        <time>2026-05-20T12:25:32Z</time>
      </trkpt>
      <trkpt lat="43.61393" lon="3.00701">
        <ele>785.8</ele>
        <time>2026-05-20T12:25:37Z</time>
      </trkpt>
      <trkpt lat="43.61388" lon="3.00708">
        <ele>786</ele>
        <time>2026-05-20T12:25:42Z</time>
      </trkpt>
      <trkpt lat="43.61381" lon="3.00714">
        <ele>785.9</ele>
        <time>2026-05-20T12:25:47Z</time>
      </trkpt>
      <trkpt lat="43.61375" lon="3.00719">
        <ele>785.6</ele>
        <time>2026-05-20T12:25:52Z</time>
      </trkpt>
      <trkpt lat="43.61369" lon="3.00721">
        <ele>785.3</ele>
        <time>2026-05-20T12:25:57Z</time>
      </trkpt>
      <trkpt lat="43.61362" lon="3.00724">
        <ele>784.8</ele>
        <time>2026-05-20T12:26:02Z</time>
      </trkpt>
      <trkpt lat="43.61356" lon="3.00725">
        <ele>784.4</ele>
        <time>2026-05-20T12:26:07Z</time>
      </trkpt>
      <trkpt lat="43.61349" lon="3.00723">
        <ele>784</ele>
        <time>2026-05-20T12:26:12Z</time>
      </trkpt>
      <trkpt lat="43.61342" lon="3.00721">
        <ele>783.6</ele>
        <time>2026-05-20T12:26:17Z</time>
      </trkpt>
      <trkpt lat="43.61336" lon="3.00722">
        <ele>783.2</ele>
        <time>2026-05-20T12:26:22Z</time>
      </trkpt>
      <trkpt lat="43.61329" lon="3.00721">
        <ele>783.6</ele>
        <time>2026-05-20T12:26:27Z</time>
      </trkpt>
      <trkpt lat="43.61323" lon="3.00722">
        <ele>784.2</ele>
        <time>2026-05-20T12:26:32Z</time>
      </trkpt>
      <trkpt lat="43.61317" lon="3.00726">
        <ele>784.5</ele>
        <time>2026-05-20T12:26:37Z</time>
      </trkpt>
      <trkpt lat="43.61312" lon="3.00733">
        <ele>784.3</ele>
        <time>2026-05-20T12:26:42Z</time>
      </trkpt>
      <trkpt lat="43.61306" lon="3.00737">
        <ele>784.5</ele>
        <time>2026-05-20T12:26:47Z</time>
      </trkpt>
      <trkpt lat="43.61299" lon="3.00736">
        <ele>785.2</ele>
        <time>2026-05-20T12:26:52Z</time>
      </trkpt>
      <trkpt lat="43.61292" lon="3.00733">
        <ele>786.3</ele>
        <time>2026-05-20T12:26:57Z</time>
      </trkpt>
      <trkpt lat="43.61283" lon="3.00731">
        <ele>787.5</ele>
        <time>2026-05-20T12:27:02Z</time>
      </trkpt>
      <trkpt lat="43.61276" lon="3.00733">
        <ele>787.9</ele>
        <time>2026-05-20T12:27:07Z</time>
      </trkpt>
      <trkpt lat="43.61269" lon="3.00738">
        <ele>787.7</ele>
        <time>2026-05-20T12:27:12Z</time>
      </trkpt>
      <trkpt lat="43.61265" lon="3.00745">
        <ele>786.8</ele>
        <time>2026-05-20T12:27:17Z</time>
      </trkpt>
      <trkpt lat="43.61262" lon="3.00751">
        <ele>786</ele>
        <time>2026-05-20T12:27:22Z</time>
      </trkpt>
      <trkpt lat="43.61256" lon="3.00758">
        <ele>785.7</ele>
        <time>2026-05-20T12:27:27Z</time>
      </trkpt>
      <trkpt lat="43.61254" lon="3.00764">
        <ele>785</ele>
        <time>2026-05-20T12:27:32Z</time>
      </trkpt>
      <trkpt lat="43.61248" lon="3.00773">
        <ele>784</ele>
        <time>2026-05-20T12:27:37Z</time>
      </trkpt>
      <trkpt lat="43.61245" lon="3.00778">
        <ele>783.5</ele>
        <time>2026-05-20T12:27:42Z</time>
      </trkpt>
      <trkpt lat="43.61241" lon="3.00782">
        <ele>783.1</ele>
        <time>2026-05-20T12:27:47Z</time>
      </trkpt>
      <trkpt lat="43.61234" lon="3.00786">
        <ele>782.7</ele>
        <time>2026-05-20T12:27:52Z</time>
      </trkpt>
      <trkpt lat="43.61232" lon="3.00784">
        <ele>783</ele>
        <time>2026-05-20T12:27:57Z</time>
      </trkpt>
      <trkpt lat="43.61227" lon="3.00786">
        <ele>782.8</ele>
        <time>2026-05-20T12:28:02Z</time>
      </trkpt>
      <trkpt lat="43.61224" lon="3.00794">
        <ele>781.6</ele>
        <time>2026-05-20T12:28:07Z</time>
      </trkpt>
      <trkpt lat="43.61219" lon="3.008">
        <ele>780.6</ele>
        <time>2026-05-20T12:28:12Z</time>
      </trkpt>
      <trkpt lat="43.61212" lon="3.00807">
        <ele>779.4</ele>
        <time>2026-05-20T12:28:17Z</time>
      </trkpt>
      <trkpt lat="43.61207" lon="3.00811">
        <ele>778.6</ele>
        <time>2026-05-20T12:28:22Z</time>
      </trkpt>
      <trkpt lat="43.61203" lon="3.00816">
        <ele>777.7</ele>
        <time>2026-05-20T12:28:27Z</time>
      </trkpt>
      <trkpt lat="43.61199" lon="3.00821">
        <ele>776.6</ele>
        <time>2026-05-20T12:28:32Z</time>
      </trkpt>
      <trkpt lat="43.61194" lon="3.00826">
        <ele>775.5</ele>
        <time>2026-05-20T12:28:37Z</time>
      </trkpt>
      <trkpt lat="43.6119" lon="3.0083">
        <ele>774.5</ele>
        <time>2026-05-20T12:28:42Z</time>
      </trkpt>
      <trkpt lat="43.61184" lon="3.00834">
        <ele>773.6</ele>
        <time>2026-05-20T12:28:47Z</time>
      </trkpt>
      <trkpt lat="43.6118" lon="3.0083">
        <ele>774.2</ele>
        <time>2026-05-20T12:28:52Z</time>
      </trkpt>
      <trkpt lat="43.6118" lon="3.00826">
        <ele>775.1</ele>
        <time>2026-05-20T12:28:57Z</time>
      </trkpt>
      <trkpt lat="43.61179" lon="3.00825">
        <ele>775.3</ele>
        <time>2026-05-20T12:29:02Z</time>
      </trkpt>
      <trkpt lat="43.61179" lon="3.00825">
        <ele>775.3</ele>
        <time>2026-05-20T12:29:07Z</time>
      </trkpt>
      <trkpt lat="43.61179" lon="3.00825">
        <ele>775.3</ele>
        <time>2026-05-20T12:29:12Z</time>
      </trkpt>
      <trkpt lat="43.61179" lon="3.00825">
        <ele>775.3</ele>
        <time>2026-05-20T12:29:17Z</time>
      </trkpt>
      <trkpt lat="43.61179" lon="3.00825">
        <ele>775.3</ele>
        <time>2026-05-20T12:29:22Z</time>
      </trkpt>
      <trkpt lat="43.61179" lon="3.00825">
        <ele>775.3</ele>
        <time>2026-05-20T12:29:27Z</time>
      </trkpt>
      <trkpt lat="43.61179" lon="3.00825">
        <ele>775.3</ele>
        <time>2026-05-20T12:29:32Z</time>
      </trkpt>
      <trkpt lat="43.61179" lon="3.00825">
        <ele>775.3</ele>
        <time>2026-05-20T12:29:37Z</time>
      </trkpt>
      <trkpt lat="43.61179" lon="3.00825">
        <ele>775.3</ele>
        <time>2026-05-20T12:29:42Z</time>
      </trkpt>
      <trkpt lat="43.61179" lon="3.00825">
        <ele>775.3</ele>
        <time>2026-05-20T12:29:47Z</time>
      </trkpt>
      <trkpt lat="43.61179" lon="3.00825">
        <ele>775.3</ele>
        <time>2026-05-20T12:29:52Z</time>
      </trkpt>
      <trkpt lat="43.61179" lon="3.00825">
        <ele>775.3</ele>
        <time>2026-05-20T12:29:57Z</time>
      </trkpt>
      <trkpt lat="43.61179" lon="3.00825">
        <ele>775.3</ele>
        <time>2026-05-20T12:30:02Z</time>
      </trkpt>
      <trkpt lat="43.61179" lon="3.00825">
        <ele>775.3</ele>
        <time>2026-05-20T12:30:07Z</time>
      </trkpt>
      <trkpt lat="43.61179" lon="3.00825">
        <ele>775.3</ele>
        <time>2026-05-20T12:30:12Z</time>
      </trkpt>
      <trkpt lat="43.61179" lon="3.00825">
        <ele>775.3</ele>
        <time>2026-05-20T12:30:17Z</time>
      </trkpt>
      <trkpt lat="43.61172" lon="3.00814">
        <ele>777.7</ele>
        <time>2026-05-20T12:30:22Z</time>
      </trkpt>
      <trkpt lat="43.61168" lon="3.00809">
        <ele>778.8</ele>
        <time>2026-05-20T12:30:27Z</time>
      </trkpt>
      <trkpt lat="43.61167" lon="3.00803">
        <ele>780.3</ele>
        <time>2026-05-20T12:30:32Z</time>
      </trkpt>
      <trkpt lat="43.6117" lon="3.00801">
        <ele>780.7</ele>
        <time>2026-05-20T12:30:37Z</time>
      </trkpt>
      <trkpt lat="43.6117" lon="3.00801">
        <ele>780.7</ele>
        <time>2026-05-20T12:30:42Z</time>
      </trkpt>
      <trkpt lat="43.6117" lon="3.00801">
        <ele>780.7</ele>
        <time>2026-05-20T12:30:47Z</time>
      </trkpt>
      <trkpt lat="43.6117" lon="3.00801">
        <ele>780.7</ele>
        <time>2026-05-20T12:30:52Z</time>
      </trkpt>
      <trkpt lat="43.6117" lon="3.00801">
        <ele>780.7</ele>
        <time>2026-05-20T12:30:57Z</time>
      </trkpt>
      <trkpt lat="43.6117" lon="3.00801">
        <ele>780.7</ele>
        <time>2026-05-20T12:31:02Z</time>
      </trkpt>
      <trkpt lat="43.6117" lon="3.00801">
        <ele>780.7</ele>
        <time>2026-05-20T12:31:07Z</time>
      </trkpt>
      <trkpt lat="43.6117" lon="3.00801">
        <ele>780.7</ele>
        <time>2026-05-20T12:31:12Z</time>
      </trkpt>
      <trkpt lat="43.61159" lon="3.00794">
        <ele>781.7</ele>
        <time>2026-05-20T12:31:17Z</time>
      </trkpt>
      <trkpt lat="43.61155" lon="3.00792">
        <ele>781.8</ele>
        <time>2026-05-20T12:31:22Z</time>
      </trkpt>
      <trkpt lat="43.61155" lon="3.0079">
        <ele>782.3</ele>
        <time>2026-05-20T12:31:27Z</time>
      </trkpt>
      <trkpt lat="43.61154" lon="3.00789">
        <ele>782.4</ele>
        <time>2026-05-20T12:31:32Z</time>
      </trkpt>
      <trkpt lat="43.6115" lon="3.00795">
        <ele>780.6</ele>
        <time>2026-05-20T12:31:37Z</time>
      </trkpt>
      <trkpt lat="43.61146" lon="3.00803">
        <ele>778.2</ele>
        <time>2026-05-20T12:31:42Z</time>
      </trkpt>
      <trkpt lat="43.6114" lon="3.00808">
        <ele>776.4</ele>
        <time>2026-05-20T12:31:47Z</time>
      </trkpt>
      <trkpt lat="43.61136" lon="3.00813">
        <ele>774.7</ele>
        <time>2026-05-20T12:31:52Z</time>
      </trkpt>
      <trkpt lat="43.6113" lon="3.00819">
        <ele>772.6</ele>
        <time>2026-05-20T12:31:57Z</time>
      </trkpt>
      <trkpt lat="43.61128" lon="3.00824">
        <ele>771.2</ele>
        <time>2026-05-20T12:32:02Z</time>
      </trkpt>
      <trkpt lat="43.61127" lon="3.0083">
        <ele>769.6</ele>
        <time>2026-05-20T12:32:07Z</time>
      </trkpt>
      <trkpt lat="43.61125" lon="3.00837">
        <ele>768.7</ele>
        <time>2026-05-20T12:32:12Z</time>
      </trkpt>
      <trkpt lat="43.61124" lon="3.00838">
        <ele>768.6</ele>
        <time>2026-05-20T12:32:17Z</time>
      </trkpt>
      <trkpt lat="43.61129" lon="3.00838">
        <ele>769.1</ele>
        <time>2026-05-20T12:32:22Z</time>
      </trkpt>
      <trkpt lat="43.61129" lon="3.00838">
        <ele>769.1</ele>
        <time>2026-05-20T12:32:27Z</time>
      </trkpt>
      <trkpt lat="43.61133" lon="3.00844">
        <ele>769.8</ele>
        <time>2026-05-20T12:32:32Z</time>
      </trkpt>
      <trkpt lat="43.61137" lon="3.00845">
        <ele>770.2</ele>
        <time>2026-05-20T12:32:37Z</time>
      </trkpt>
      <trkpt lat="43.61137" lon="3.00845">
        <ele>770.2</ele>
        <time>2026-05-20T12:32:42Z</time>
      </trkpt>
      <trkpt lat="43.61137" lon="3.00845">
        <ele>770.2</ele>
        <time>2026-05-20T12:32:47Z</time>
      </trkpt>
      <trkpt lat="43.61137" lon="3.00845">
        <ele>770.2</ele>
        <time>2026-05-20T12:32:52Z</time>
      </trkpt>
      <trkpt lat="43.61137" lon="3.00845">
        <ele>770.2</ele>
        <time>2026-05-20T12:32:57Z</time>
      </trkpt>
      <trkpt lat="43.61137" lon="3.00845">
        <ele>770.2</ele>
        <time>2026-05-20T12:33:02Z</time>
      </trkpt>
      <trkpt lat="43.61137" lon="3.00845">
        <ele>770.2</ele>
        <time>2026-05-20T12:33:07Z</time>
      </trkpt>
      <trkpt lat="43.61137" lon="3.00845">
        <ele>770.2</ele>
        <time>2026-05-20T12:33:12Z</time>
      </trkpt>
      <trkpt lat="43.61137" lon="3.00845">
        <ele>770.2</ele>
        <time>2026-05-20T12:33:17Z</time>
      </trkpt>
      <trkpt lat="43.61137" lon="3.00845">
        <ele>770.2</ele>
        <time>2026-05-20T12:33:22Z</time>
      </trkpt>
      <trkpt lat="43.61137" lon="3.00845">
        <ele>770.2</ele>
        <time>2026-05-20T12:33:27Z</time>
      </trkpt>
      <trkpt lat="43.61137" lon="3.00845">
        <ele>770.2</ele>
        <time>2026-05-20T12:33:32Z</time>
      </trkpt>
      <trkpt lat="43.61137" lon="3.00845">
        <ele>770.2</ele>
        <time>2026-05-20T12:33:37Z</time>
      </trkpt>
      <trkpt lat="43.61137" lon="3.00845">
        <ele>770.2</ele>
        <time>2026-05-20T12:33:42Z</time>
      </trkpt>
      <trkpt lat="43.61137" lon="3.00845">
        <ele>770.2</ele>
        <time>2026-05-20T12:33:47Z</time>
      </trkpt>
      <trkpt lat="43.61132" lon="3.00844">
        <ele>769.7</ele>
        <time>2026-05-20T12:33:52Z</time>
      </trkpt>
      <trkpt lat="43.61125" lon="3.0084">
        <ele>768.8</ele>
        <time>2026-05-20T12:33:57Z</time>
      </trkpt>
      <trkpt lat="43.61122" lon="3.00836">
        <ele>768.3</ele>
        <time>2026-05-20T12:34:02Z</time>
      </trkpt>
      <trkpt lat="43.61122" lon="3.00832">
        <ele>768.5</ele>
        <time>2026-05-20T12:34:07Z</time>
      </trkpt>
      <trkpt lat="43.61123" lon="3.00826">
        <ele>770.1</ele>
        <time>2026-05-20T12:34:12Z</time>
      </trkpt>
      <trkpt lat="43.61128" lon="3.00823">
        <ele>771.4</ele>
        <time>2026-05-20T12:34:17Z</time>
      </trkpt>
      <trkpt lat="43.61131" lon="3.0082">
        <ele>772.5</ele>
        <time>2026-05-20T12:34:22Z</time>
      </trkpt>
      <trkpt lat="43.61128" lon="3.00817">
        <ele>772.9</ele>
        <time>2026-05-20T12:34:27Z</time>
      </trkpt>
      <trkpt lat="43.6112" lon="3.00823">
        <ele>770.6</ele>
        <time>2026-05-20T12:34:32Z</time>
      </trkpt>
      <trkpt lat="43.61112" lon="3.00825">
        <ele>769.2</ele>
        <time>2026-05-20T12:34:37Z</time>
      </trkpt>
      <trkpt lat="43.61106" lon="3.00827">
        <ele>768.1</ele>
        <time>2026-05-20T12:34:42Z</time>
      </trkpt>
      <trkpt lat="43.61099" lon="3.00828">
        <ele>767.1</ele>
        <time>2026-05-20T12:34:47Z</time>
      </trkpt>
      <trkpt lat="43.61094" lon="3.00828">
        <ele>766.5</ele>
        <time>2026-05-20T12:34:52Z</time>
      </trkpt>
      <trkpt lat="43.61089" lon="3.00828">
        <ele>766</ele>
        <time>2026-05-20T12:34:57Z</time>
      </trkpt>
      <trkpt lat="43.61085" lon="3.00827">
        <ele>765.8</ele>
        <time>2026-05-20T12:35:02Z</time>
      </trkpt>
      <trkpt lat="43.61081" lon="3.00826">
        <ele>765.8</ele>
        <time>2026-05-20T12:35:07Z</time>
      </trkpt>
      <trkpt lat="43.61081" lon="3.00826">
        <ele>765.8</ele>
        <time>2026-05-20T12:35:12Z</time>
      </trkpt>
      <trkpt lat="43.61081" lon="3.00826">
        <ele>765.8</ele>
        <time>2026-05-20T12:35:17Z</time>
      </trkpt>
      <trkpt lat="43.61081" lon="3.00826">
        <ele>765.8</ele>
        <time>2026-05-20T12:35:22Z</time>
      </trkpt>
      <trkpt lat="43.61081" lon="3.00826">
        <ele>765.8</ele>
        <time>2026-05-20T12:35:27Z</time>
      </trkpt>
      <trkpt lat="43.61075" lon="3.00835">
        <ele>763.8</ele>
        <time>2026-05-20T12:35:32Z</time>
      </trkpt>
      <trkpt lat="43.61069" lon="3.00835">
        <ele>763.5</ele>
        <time>2026-05-20T12:35:37Z</time>
      </trkpt>
      <trkpt lat="43.61063" lon="3.00831">
        <ele>763.6</ele>
        <time>2026-05-20T12:35:42Z</time>
      </trkpt>
      <trkpt lat="43.61058" lon="3.00829">
        <ele>763.8</ele>
        <time>2026-05-20T12:35:47Z</time>
      </trkpt>
      <trkpt lat="43.61053" lon="3.00826">
        <ele>764.2</ele>
        <time>2026-05-20T12:35:52Z</time>
      </trkpt>
      <trkpt lat="43.61048" lon="3.00822">
        <ele>764.8</ele>
        <time>2026-05-20T12:35:57Z</time>
      </trkpt>
      <trkpt lat="43.61044" lon="3.00818">
        <ele>765.4</ele>
        <time>2026-05-20T12:36:02Z</time>
      </trkpt>
      <trkpt lat="43.61039" lon="3.00811">
        <ele>766.5</ele>
        <time>2026-05-20T12:36:07Z</time>
      </trkpt>
      <trkpt lat="43.61035" lon="3.00808">
        <ele>766.8</ele>
        <time>2026-05-20T12:36:12Z</time>
      </trkpt>
      <trkpt lat="43.61032" lon="3.00805">
        <ele>767.1</ele>
        <time>2026-05-20T12:36:17Z</time>
      </trkpt>
      <trkpt lat="43.61031" lon="3.00801">
        <ele>767.8</ele>
        <time>2026-05-20T12:36:22Z</time>
      </trkpt>
      <trkpt lat="43.61031" lon="3.00801">
        <ele>767.8</ele>
        <time>2026-05-20T12:36:27Z</time>
      </trkpt>
      <trkpt lat="43.61031" lon="3.00801">
        <ele>767.8</ele>
        <time>2026-05-20T12:36:32Z</time>
      </trkpt>
      <trkpt lat="43.61031" lon="3.00801">
        <ele>767.8</ele>
        <time>2026-05-20T12:36:37Z</time>
      </trkpt>
      <trkpt lat="43.61031" lon="3.00801">
        <ele>767.8</ele>
        <time>2026-05-20T12:36:42Z</time>
      </trkpt>
      <trkpt lat="43.61031" lon="3.00801">
        <ele>767.8</ele>
        <time>2026-05-20T12:36:47Z</time>
      </trkpt>
      <trkpt lat="43.61031" lon="3.00801">
        <ele>767.8</ele>
        <time>2026-05-20T12:36:52Z</time>
      </trkpt>
      <trkpt lat="43.61031" lon="3.00801">
        <ele>767.8</ele>
        <time>2026-05-20T12:36:57Z</time>
      </trkpt>
      <trkpt lat="43.61031" lon="3.00801">
        <ele>767.8</ele>
        <time>2026-05-20T12:37:02Z</time>
      </trkpt>
      <trkpt lat="43.61031" lon="3.00801">
        <ele>767.8</ele>
        <time>2026-05-20T12:37:07Z</time>
      </trkpt>
      <trkpt lat="43.61031" lon="3.00801">
        <ele>767.8</ele>
        <time>2026-05-20T12:37:12Z</time>
      </trkpt>
      <trkpt lat="43.61031" lon="3.00801">
        <ele>767.8</ele>
        <time>2026-05-20T12:37:17Z</time>
      </trkpt>
      <trkpt lat="43.61031" lon="3.00801">
        <ele>767.8</ele>
        <time>2026-05-20T12:37:22Z</time>
      </trkpt>
      <trkpt lat="43.61031" lon="3.00801">
        <ele>767.8</ele>
        <time>2026-05-20T12:37:27Z</time>
      </trkpt>
      <trkpt lat="43.61031" lon="3.00801">
        <ele>767.8</ele>
        <time>2026-05-20T12:37:32Z</time>
      </trkpt>
      <trkpt lat="43.61031" lon="3.00801">
        <ele>767.8</ele>
        <time>2026-05-20T12:37:37Z</time>
      </trkpt>
      <trkpt lat="43.61031" lon="3.00801">
        <ele>767.8</ele>
        <time>2026-05-20T12:37:42Z</time>
      </trkpt>
      <trkpt lat="43.61031" lon="3.00801">
        <ele>767.8</ele>
        <time>2026-05-20T12:37:47Z</time>
      </trkpt>
      <trkpt lat="43.61031" lon="3.00801">
        <ele>767.8</ele>
        <time>2026-05-20T12:37:52Z</time>
      </trkpt>
      <trkpt lat="43.61031" lon="3.00801">
        <ele>767.8</ele>
        <time>2026-05-20T12:37:57Z</time>
      </trkpt>
      <trkpt lat="43.61031" lon="3.00801">
        <ele>767.8</ele>
        <time>2026-05-20T12:38:02Z</time>
      </trkpt>
      <trkpt lat="43.61031" lon="3.00801">
        <ele>767.8</ele>
        <time>2026-05-20T12:38:07Z</time>
      </trkpt>
      <trkpt lat="43.61031" lon="3.00801">
        <ele>767.8</ele>
        <time>2026-05-20T12:38:12Z</time>
      </trkpt>
      <trkpt lat="43.61031" lon="3.00801">
        <ele>767.8</ele>
        <time>2026-05-20T12:38:17Z</time>
      </trkpt>
      <trkpt lat="43.61031" lon="3.00801">
        <ele>767.8</ele>
        <time>2026-05-20T12:38:22Z</time>
      </trkpt>
      <trkpt lat="43.61031" lon="3.00801">
        <ele>767.8</ele>
        <time>2026-05-20T12:38:27Z</time>
      </trkpt>
      <trkpt lat="43.61031" lon="3.00801">
        <ele>767.8</ele>
        <time>2026-05-20T12:38:32Z</time>
      </trkpt>
      <trkpt lat="43.61031" lon="3.00801">
        <ele>767.8</ele>
        <time>2026-05-20T12:38:37Z</time>
      </trkpt>
      <trkpt lat="43.61031" lon="3.00801">
        <ele>767.8</ele>
        <time>2026-05-20T12:38:42Z</time>
      </trkpt>
      <trkpt lat="43.61031" lon="3.00801">
        <ele>767.8</ele>
        <time>2026-05-20T12:38:47Z</time>
      </trkpt>
      <trkpt lat="43.61031" lon="3.00801">
        <ele>767.8</ele>
        <time>2026-05-20T12:38:52Z</time>
      </trkpt>
      <trkpt lat="43.61031" lon="3.00801">
        <ele>767.8</ele>
        <time>2026-05-20T12:38:57Z</time>
      </trkpt>
      <trkpt lat="43.61031" lon="3.00801">
        <ele>767.8</ele>
        <time>2026-05-20T12:39:02Z</time>
      </trkpt>
      <trkpt lat="43.61031" lon="3.00801">
        <ele>767.8</ele>
        <time>2026-05-20T12:39:07Z</time>
      </trkpt>
      <trkpt lat="43.61031" lon="3.00801">
        <ele>767.8</ele>
        <time>2026-05-20T12:39:12Z</time>
      </trkpt>
      <trkpt lat="43.61031" lon="3.00801">
        <ele>767.8</ele>
        <time>2026-05-20T12:39:17Z</time>
      </trkpt>
      <trkpt lat="43.61031" lon="3.00801">
        <ele>767.8</ele>
        <time>2026-05-20T12:39:22Z</time>
      </trkpt>
      <trkpt lat="43.61031" lon="3.00801">
        <ele>767.8</ele>
        <time>2026-05-20T12:39:27Z</time>
      </trkpt>
      <trkpt lat="43.61031" lon="3.00801">
        <ele>767.8</ele>
        <time>2026-05-20T12:39:32Z</time>
      </trkpt>
      <trkpt lat="43.61031" lon="3.00801">
        <ele>767.8</ele>
        <time>2026-05-20T12:39:37Z</time>
      </trkpt>
      <trkpt lat="43.61031" lon="3.00801">
        <ele>767.8</ele>
        <time>2026-05-20T12:39:42Z</time>
      </trkpt>
      <trkpt lat="43.61031" lon="3.00801">
        <ele>767.8</ele>
        <time>2026-05-20T12:39:47Z</time>
      </trkpt>
      <trkpt lat="43.61031" lon="3.00801">
        <ele>767.8</ele>
        <time>2026-05-20T12:39:52Z</time>
      </trkpt>
      <trkpt lat="43.61031" lon="3.00801">
        <ele>767.8</ele>
        <time>2026-05-20T12:39:57Z</time>
      </trkpt>
      <trkpt lat="43.61031" lon="3.00801">
        <ele>767.8</ele>
        <time>2026-05-20T12:40:02Z</time>
      </trkpt>
      <trkpt lat="43.61031" lon="3.00801">
        <ele>767.8</ele>
        <time>2026-05-20T12:40:07Z</time>
      </trkpt>
      <trkpt lat="43.61031" lon="3.00801">
        <ele>767.8</ele>
        <time>2026-05-20T12:40:12Z</time>
      </trkpt>
      <trkpt lat="43.61031" lon="3.00801">
        <ele>767.8</ele>
        <time>2026-05-20T12:40:17Z</time>
      </trkpt>
      <trkpt lat="43.61031" lon="3.00801">
        <ele>767.8</ele>
        <time>2026-05-20T12:40:22Z</time>
      </trkpt>
      <trkpt lat="43.61031" lon="3.00801">
        <ele>767.8</ele>
        <time>2026-05-20T12:40:27Z</time>
      </trkpt>
      <trkpt lat="43.61032" lon="3.00815">
        <ele>765.2</ele>
        <time>2026-05-20T12:40:32Z</time>
      </trkpt>
      <trkpt lat="43.61031" lon="3.00816">
        <ele>764.9</ele>
        <time>2026-05-20T12:40:37Z</time>
      </trkpt>
      <trkpt lat="43.61031" lon="3.00816">
        <ele>764.9</ele>
        <time>2026-05-20T12:40:42Z</time>
      </trkpt>
      <trkpt lat="43.61028" lon="3.00824">
        <ele>763.1</ele>
        <time>2026-05-20T12:40:47Z</time>
      </trkpt>
      <trkpt lat="43.61026" lon="3.00828">
        <ele>762.3</ele>
        <time>2026-05-20T12:40:52Z</time>
      </trkpt>
      <trkpt lat="43.61023" lon="3.00832">
        <ele>761.4</ele>
        <time>2026-05-20T12:40:57Z</time>
      </trkpt>
      <trkpt lat="43.61022" lon="3.00831">
        <ele>761.5</ele>
        <time>2026-05-20T12:41:02Z</time>
      </trkpt>
      <trkpt lat="43.61024" lon="3.00827">
        <ele>762.3</ele>
        <time>2026-05-20T12:41:07Z</time>
      </trkpt>
      <trkpt lat="43.61026" lon="3.00822">
        <ele>763.4</ele>
        <time>2026-05-20T12:41:12Z</time>
      </trkpt>
      <trkpt lat="43.6103" lon="3.00817">
        <ele>764.6</ele>
        <time>2026-05-20T12:41:17Z</time>
      </trkpt>
      <trkpt lat="43.61032" lon="3.00814">
        <ele>765.4</ele>
        <time>2026-05-20T12:41:22Z</time>
      </trkpt>
      <trkpt lat="43.61034" lon="3.00813">
        <ele>765.7</ele>
        <time>2026-05-20T12:41:27Z</time>
      </trkpt>
      <trkpt lat="43.61035" lon="3.00815">
        <ele>765.4</ele>
        <time>2026-05-20T12:41:32Z</time>
      </trkpt>
      <trkpt lat="43.61035" lon="3.00815">
        <ele>765.4</ele>
        <time>2026-05-20T12:41:37Z</time>
      </trkpt>
      <trkpt lat="43.61035" lon="3.00815">
        <ele>765.4</ele>
        <time>2026-05-20T12:41:42Z</time>
      </trkpt>
      <trkpt lat="43.61035" lon="3.00815">
        <ele>765.4</ele>
        <time>2026-05-20T12:41:47Z</time>
      </trkpt>
      <trkpt lat="43.61035" lon="3.00815">
        <ele>765.4</ele>
        <time>2026-05-20T12:41:52Z</time>
      </trkpt>
      <trkpt lat="43.61041" lon="3.00815">
        <ele>765.8</ele>
        <time>2026-05-20T12:41:57Z</time>
      </trkpt>
      <trkpt lat="43.61046" lon="3.0082">
        <ele>765.1</ele>
        <time>2026-05-20T12:42:02Z</time>
      </trkpt>
      <trkpt lat="43.61051" lon="3.00824">
        <ele>764.5</ele>
        <time>2026-05-20T12:42:07Z</time>
      </trkpt>
      <trkpt lat="43.61055" lon="3.00828">
        <ele>763.9</ele>
        <time>2026-05-20T12:42:12Z</time>
      </trkpt>
      <trkpt lat="43.61059" lon="3.00832">
        <ele>763.1</ele>
        <time>2026-05-20T12:42:17Z</time>
      </trkpt>
      <trkpt lat="43.61062" lon="3.00838">
        <ele>763.6</ele>
        <time>2026-05-20T12:42:22Z</time>
      </trkpt>
      <trkpt lat="43.61068" lon="3.00837">
        <ele>763.7</ele>
        <time>2026-05-20T12:42:27Z</time>
      </trkpt>
      <trkpt lat="43.61071" lon="3.00838">
        <ele>763.9</ele>
        <time>2026-05-20T12:42:32Z</time>
      </trkpt>
      <trkpt lat="43.61067" lon="3.00836">
        <ele>763.5</ele>
        <time>2026-05-20T12:42:37Z</time>
      </trkpt>
      <trkpt lat="43.6106" lon="3.00833">
        <ele>763</ele>
        <time>2026-05-20T12:42:42Z</time>
      </trkpt>
      <trkpt lat="43.61055" lon="3.00827">
        <ele>764.1</ele>
        <time>2026-05-20T12:42:47Z</time>
      </trkpt>
      <trkpt lat="43.61048" lon="3.00821">
        <ele>765</ele>
        <time>2026-05-20T12:42:52Z</time>
      </trkpt>
      <trkpt lat="43.61043" lon="3.00818">
        <ele>765.3</ele>
        <time>2026-05-20T12:42:57Z</time>
      </trkpt>
      <trkpt lat="43.61039" lon="3.00813">
        <ele>766.1</ele>
        <time>2026-05-20T12:43:02Z</time>
      </trkpt>
      <trkpt lat="43.61034" lon="3.00808">
        <ele>766.7</ele>
        <time>2026-05-20T12:43:07Z</time>
      </trkpt>
      <trkpt lat="43.61029" lon="3.00803">
        <ele>767.3</ele>
        <time>2026-05-20T12:43:12Z</time>
      </trkpt>
      <trkpt lat="43.61028" lon="3.008">
        <ele>767.8</ele>
        <time>2026-05-20T12:43:17Z</time>
      </trkpt>
      <trkpt lat="43.61027" lon="3.00801">
        <ele>767.5</ele>
        <time>2026-05-20T12:43:22Z</time>
      </trkpt>
      <trkpt lat="43.61027" lon="3.00801">
        <ele>767.5</ele>
        <time>2026-05-20T12:43:27Z</time>
      </trkpt>
      <trkpt lat="43.61027" lon="3.00801">
        <ele>767.5</ele>
        <time>2026-05-20T12:43:32Z</time>
      </trkpt>
      <trkpt lat="43.61016" lon="3.00805">
        <ele>765.8</ele>
        <time>2026-05-20T12:43:37Z</time>
      </trkpt>
      <trkpt lat="43.61014" lon="3.00811">
        <ele>764.6</ele>
        <time>2026-05-20T12:43:42Z</time>
      </trkpt>
      <trkpt lat="43.61011" lon="3.00814">
        <ele>763.8</ele>
        <time>2026-05-20T12:43:47Z</time>
      </trkpt>
      <trkpt lat="43.61007" lon="3.00817">
        <ele>763</ele>
        <time>2026-05-20T12:43:52Z</time>
      </trkpt>
      <trkpt lat="43.61005" lon="3.00818">
        <ele>762.7</ele>
        <time>2026-05-20T12:43:57Z</time>
      </trkpt>
      <trkpt lat="43.61002" lon="3.0082">
        <ele>762.2</ele>
        <time>2026-05-20T12:44:02Z</time>
      </trkpt>
      <trkpt lat="43.61002" lon="3.0082">
        <ele>762.2</ele>
        <time>2026-05-20T12:44:07Z</time>
      </trkpt>
      <trkpt lat="43.61001" lon="3.00831">
        <ele>760.4</ele>
        <time>2026-05-20T12:44:12Z</time>
      </trkpt>
      <trkpt lat="43.61001" lon="3.00831">
        <ele>760.4</ele>
        <time>2026-05-20T12:44:17Z</time>
      </trkpt>
      <trkpt lat="43.61001" lon="3.00831">
        <ele>760.4</ele>
        <time>2026-05-20T12:44:22Z</time>
      </trkpt>
      <trkpt lat="43.61001" lon="3.00831">
        <ele>760.4</ele>
        <time>2026-05-20T12:44:27Z</time>
      </trkpt>
      <trkpt lat="43.61007" lon="3.00822">
        <ele>762.2</ele>
        <time>2026-05-20T12:44:32Z</time>
      </trkpt>
      <trkpt lat="43.61007" lon="3.00822">
        <ele>762.2</ele>
        <time>2026-05-20T12:44:37Z</time>
      </trkpt>
      <trkpt lat="43.61011" lon="3.00819">
        <ele>763</ele>
        <time>2026-05-20T12:44:42Z</time>
      </trkpt>
      <trkpt lat="43.61011" lon="3.00816">
        <ele>763.5</ele>
        <time>2026-05-20T12:44:47Z</time>
      </trkpt>
      <trkpt lat="43.61011" lon="3.00816">
        <ele>763.5</ele>
        <time>2026-05-20T12:44:52Z</time>
      </trkpt>
      <trkpt lat="43.61011" lon="3.00812">
        <ele>764.2</ele>
        <time>2026-05-20T12:44:57Z</time>
      </trkpt>
      <trkpt lat="43.61014" lon="3.00811">
        <ele>764.6</ele>
        <time>2026-05-20T12:45:02Z</time>
      </trkpt>
      <trkpt lat="43.61013" lon="3.00802">
        <ele>766</ele>
        <time>2026-05-20T12:45:07Z</time>
      </trkpt>
      <trkpt lat="43.61014" lon="3.008">
        <ele>766.5</ele>
        <time>2026-05-20T12:45:12Z</time>
      </trkpt>
      <trkpt lat="43.61013" lon="3.00799">
        <ele>766.6</ele>
        <time>2026-05-20T12:45:17Z</time>
      </trkpt>
      <trkpt lat="43.61013" lon="3.00799">
        <ele>766.6</ele>
        <time>2026-05-20T12:45:22Z</time>
      </trkpt>
      <trkpt lat="43.61013" lon="3.00799">
        <ele>766.6</ele>
        <time>2026-05-20T12:45:27Z</time>
      </trkpt>
      <trkpt lat="43.61026" lon="3.00801">
        <ele>767.4</ele>
        <time>2026-05-20T12:45:32Z</time>
      </trkpt>
      <trkpt lat="43.61026" lon="3.00801">
        <ele>767.4</ele>
        <time>2026-05-20T12:45:37Z</time>
      </trkpt>
      <trkpt lat="43.61026" lon="3.00801">
        <ele>767.4</ele>
        <time>2026-05-20T12:45:42Z</time>
      </trkpt>
      <trkpt lat="43.61028" lon="3.00799">
        <ele>767.9</ele>
        <time>2026-05-20T12:45:47Z</time>
      </trkpt>
      <trkpt lat="43.61028" lon="3.00799">
        <ele>767.9</ele>
        <time>2026-05-20T12:45:52Z</time>
      </trkpt>
      <trkpt lat="43.61028" lon="3.00799">
        <ele>767.9</ele>
        <time>2026-05-20T12:45:57Z</time>
      </trkpt>
      <trkpt lat="43.61028" lon="3.00799">
        <ele>767.9</ele>
        <time>2026-05-20T12:46:02Z</time>
      </trkpt>
      <trkpt lat="43.61028" lon="3.00799">
        <ele>767.9</ele>
        <time>2026-05-20T12:46:07Z</time>
      </trkpt>
      <trkpt lat="43.61028" lon="3.00799">
        <ele>767.9</ele>
        <time>2026-05-20T12:46:12Z</time>
      </trkpt>
      <trkpt lat="43.61028" lon="3.00799">
        <ele>767.9</ele>
        <time>2026-05-20T12:46:17Z</time>
      </trkpt>
      <trkpt lat="43.61028" lon="3.00799">
        <ele>767.9</ele>
        <time>2026-05-20T12:46:22Z</time>
      </trkpt>
      <trkpt lat="43.61028" lon="3.00799">
        <ele>767.9</ele>
        <time>2026-05-20T12:46:27Z</time>
      </trkpt>
      <trkpt lat="43.61028" lon="3.00799">
        <ele>767.9</ele>
        <time>2026-05-20T12:46:32Z</time>
      </trkpt>
      <trkpt lat="43.61028" lon="3.00799">
        <ele>767.9</ele>
        <time>2026-05-20T12:46:37Z</time>
      </trkpt>
      <trkpt lat="43.61028" lon="3.00799">
        <ele>767.9</ele>
        <time>2026-05-20T12:46:42Z</time>
      </trkpt>
      <trkpt lat="43.61028" lon="3.00799">
        <ele>767.9</ele>
        <time>2026-05-20T12:46:47Z</time>
      </trkpt>
      <trkpt lat="43.61028" lon="3.00799">
        <ele>767.9</ele>
        <time>2026-05-20T12:46:52Z</time>
      </trkpt>
      <trkpt lat="43.61028" lon="3.00799">
        <ele>767.9</ele>
        <time>2026-05-20T12:46:57Z</time>
      </trkpt>
      <trkpt lat="43.61028" lon="3.00799">
        <ele>767.9</ele>
        <time>2026-05-20T12:47:02Z</time>
      </trkpt>
      <trkpt lat="43.61028" lon="3.00799">
        <ele>767.9</ele>
        <time>2026-05-20T12:47:07Z</time>
      </trkpt>
      <trkpt lat="43.61028" lon="3.00799">
        <ele>767.9</ele>
        <time>2026-05-20T12:47:12Z</time>
      </trkpt>
      <trkpt lat="43.61028" lon="3.00799">
        <ele>767.9</ele>
        <time>2026-05-20T12:47:17Z</time>
      </trkpt>
      <trkpt lat="43.61028" lon="3.00799">
        <ele>767.9</ele>
        <time>2026-05-20T12:47:22Z</time>
      </trkpt>
      <trkpt lat="43.61028" lon="3.00799">
        <ele>767.9</ele>
        <time>2026-05-20T12:47:27Z</time>
      </trkpt>
      <trkpt lat="43.61028" lon="3.00799">
        <ele>767.9</ele>
        <time>2026-05-20T12:47:32Z</time>
      </trkpt>
      <trkpt lat="43.61028" lon="3.00799">
        <ele>767.9</ele>
        <time>2026-05-20T12:47:37Z</time>
      </trkpt>
      <trkpt lat="43.61028" lon="3.00799">
        <ele>767.9</ele>
        <time>2026-05-20T12:47:42Z</time>
      </trkpt>
      <trkpt lat="43.61028" lon="3.00799">
        <ele>767.9</ele>
        <time>2026-05-20T12:47:47Z</time>
      </trkpt>
      <trkpt lat="43.61028" lon="3.00799">
        <ele>767.9</ele>
        <time>2026-05-20T12:47:52Z</time>
      </trkpt>
      <trkpt lat="43.61028" lon="3.00799">
        <ele>767.9</ele>
        <time>2026-05-20T12:47:57Z</time>
      </trkpt>
      <trkpt lat="43.61028" lon="3.00799">
        <ele>767.9</ele>
        <time>2026-05-20T12:48:02Z</time>
      </trkpt>
      <trkpt lat="43.61028" lon="3.00799">
        <ele>767.9</ele>
        <time>2026-05-20T12:48:07Z</time>
      </trkpt>
      <trkpt lat="43.61028" lon="3.00799">
        <ele>767.9</ele>
        <time>2026-05-20T12:48:12Z</time>
      </trkpt>
      <trkpt lat="43.61028" lon="3.00799">
        <ele>767.9</ele>
        <time>2026-05-20T12:48:17Z</time>
      </trkpt>
      <trkpt lat="43.61028" lon="3.00799">
        <ele>767.9</ele>
        <time>2026-05-20T12:48:22Z</time>
      </trkpt>
      <trkpt lat="43.61028" lon="3.00799">
        <ele>767.9</ele>
        <time>2026-05-20T12:48:27Z</time>
      </trkpt>
      <trkpt lat="43.61026" lon="3.00803">
        <ele>767</ele>
        <time>2026-05-20T12:48:32Z</time>
      </trkpt>
      <trkpt lat="43.61021" lon="3.00801">
        <ele>766.9</ele>
        <time>2026-05-20T12:48:37Z</time>
      </trkpt>
      <trkpt lat="43.61018" lon="3.00805">
        <ele>765.9</ele>
        <time>2026-05-20T12:48:42Z</time>
      </trkpt>
      <trkpt lat="43.61017" lon="3.00809">
        <ele>765.1</ele>
        <time>2026-05-20T12:48:47Z</time>
      </trkpt>
      <trkpt lat="43.61016" lon="3.00811">
        <ele>764.7</ele>
        <time>2026-05-20T12:48:52Z</time>
      </trkpt>
      <trkpt lat="43.61016" lon="3.00811">
        <ele>764.7</ele>
        <time>2026-05-20T12:48:57Z</time>
      </trkpt>
      <trkpt lat="43.61016" lon="3.00811">
        <ele>764.7</ele>
        <time>2026-05-20T12:49:02Z</time>
      </trkpt>
      <trkpt lat="43.61012" lon="3.00815">
        <ele>763.7</ele>
        <time>2026-05-20T12:49:07Z</time>
      </trkpt>
      <trkpt lat="43.61006" lon="3.00818">
        <ele>762.8</ele>
        <time>2026-05-20T12:49:12Z</time>
      </trkpt>
      <trkpt lat="43.61005" lon="3.00824">
        <ele>761.8</ele>
        <time>2026-05-20T12:49:17Z</time>
      </trkpt>
      <trkpt lat="43.61005" lon="3.00826">
        <ele>761.4</ele>
        <time>2026-05-20T12:49:22Z</time>
      </trkpt>
      <trkpt lat="43.61004" lon="3.00826">
        <ele>761.4</ele>
        <time>2026-05-20T12:49:27Z</time>
      </trkpt>
      <trkpt lat="43.61004" lon="3.00826">
        <ele>761.4</ele>
        <time>2026-05-20T12:49:32Z</time>
      </trkpt>
      <trkpt lat="43.61008" lon="3.00821">
        <ele>762.4</ele>
        <time>2026-05-20T12:49:37Z</time>
      </trkpt>
      <trkpt lat="43.6101" lon="3.00815">
        <ele>763.6</ele>
        <time>2026-05-20T12:49:42Z</time>
      </trkpt>
      <trkpt lat="43.61005" lon="3.00809">
        <ele>764.2</ele>
        <time>2026-05-20T12:49:47Z</time>
      </trkpt>
      <trkpt lat="43.61002" lon="3.00808">
        <ele>764.1</ele>
        <time>2026-05-20T12:49:52Z</time>
      </trkpt>
      <trkpt lat="43.60997" lon="3.00808">
        <ele>763.7</ele>
        <time>2026-05-20T12:49:57Z</time>
      </trkpt>
      <trkpt lat="43.60995" lon="3.00807">
        <ele>763.7</ele>
        <time>2026-05-20T12:50:02Z</time>
      </trkpt>
      <trkpt lat="43.6099" lon="3.00804">
        <ele>763.8</ele>
        <time>2026-05-20T12:50:07Z</time>
      </trkpt>
      <trkpt lat="43.60987" lon="3.00802">
        <ele>763.8</ele>
        <time>2026-05-20T12:50:12Z</time>
      </trkpt>
      <trkpt lat="43.60984" lon="3.008">
        <ele>763.8</ele>
        <time>2026-05-20T12:50:17Z</time>
      </trkpt>
      <trkpt lat="43.60983" lon="3.00799">
        <ele>763.8</ele>
        <time>2026-05-20T12:50:22Z</time>
      </trkpt>
      <trkpt lat="43.60983" lon="3.00799">
        <ele>763.8</ele>
        <time>2026-05-20T12:50:27Z</time>
      </trkpt>
      <trkpt lat="43.60983" lon="3.00799">
        <ele>763.8</ele>
        <time>2026-05-20T12:50:32Z</time>
      </trkpt>
      <trkpt lat="43.60983" lon="3.00799">
        <ele>763.8</ele>
        <time>2026-05-20T12:50:37Z</time>
      </trkpt>
      <trkpt lat="43.60983" lon="3.00799">
        <ele>763.8</ele>
        <time>2026-05-20T12:50:42Z</time>
      </trkpt>
      <trkpt lat="43.60983" lon="3.00799">
        <ele>763.8</ele>
        <time>2026-05-20T12:50:47Z</time>
      </trkpt>
      <trkpt lat="43.60983" lon="3.00799">
        <ele>763.8</ele>
        <time>2026-05-20T12:50:52Z</time>
      </trkpt>
      <trkpt lat="43.60985" lon="3.00794">
        <ele>764.7</ele>
        <time>2026-05-20T12:50:57Z</time>
      </trkpt>
      <trkpt lat="43.60988" lon="3.00794">
        <ele>765</ele>
        <time>2026-05-20T12:51:02Z</time>
      </trkpt>
      <trkpt lat="43.60989" lon="3.00798">
        <ele>764.5</ele>
        <time>2026-05-20T12:51:07Z</time>
      </trkpt>
      <trkpt lat="43.60989" lon="3.00806">
        <ele>763.4</ele>
        <time>2026-05-20T12:51:12Z</time>
      </trkpt>
      <trkpt lat="43.6099" lon="3.00813">
        <ele>762.5</ele>
        <time>2026-05-20T12:51:17Z</time>
      </trkpt>
      <trkpt lat="43.60991" lon="3.00818">
        <ele>761.8</ele>
        <time>2026-05-20T12:51:22Z</time>
      </trkpt>
      <trkpt lat="43.60992" lon="3.0082">
        <ele>761.6</ele>
        <time>2026-05-20T12:51:27Z</time>
      </trkpt>
      <trkpt lat="43.60992" lon="3.00825">
        <ele>760.9</ele>
        <time>2026-05-20T12:51:32Z</time>
      </trkpt>
      <trkpt lat="43.60994" lon="3.00828">
        <ele>760.6</ele>
        <time>2026-05-20T12:51:37Z</time>
      </trkpt>
      <trkpt lat="43.60995" lon="3.00829">
        <ele>760.5</ele>
        <time>2026-05-20T12:51:42Z</time>
      </trkpt>
      <trkpt lat="43.60994" lon="3.00828">
        <ele>760.6</ele>
        <time>2026-05-20T12:51:47Z</time>
      </trkpt>
      <trkpt lat="43.60989" lon="3.00825">
        <ele>760.8</ele>
        <time>2026-05-20T12:51:52Z</time>
      </trkpt>
      <trkpt lat="43.60984" lon="3.00822">
        <ele>760.9</ele>
        <time>2026-05-20T12:51:57Z</time>
      </trkpt>
      <trkpt lat="43.60981" lon="3.00821">
        <ele>760.9</ele>
        <time>2026-05-20T12:52:02Z</time>
      </trkpt>
      <trkpt lat="43.60978" lon="3.00824">
        <ele>760.3</ele>
        <time>2026-05-20T12:52:07Z</time>
      </trkpt>
      <trkpt lat="43.60976" lon="3.00829">
        <ele>759.6</ele>
        <time>2026-05-20T12:52:12Z</time>
      </trkpt>
      <trkpt lat="43.60974" lon="3.00832">
        <ele>759.2</ele>
        <time>2026-05-20T12:52:17Z</time>
      </trkpt>
      <trkpt lat="43.60973" lon="3.00833">
        <ele>759.1</ele>
        <time>2026-05-20T12:52:22Z</time>
      </trkpt>
      <trkpt lat="43.60973" lon="3.00833">
        <ele>759.1</ele>
        <time>2026-05-20T12:52:27Z</time>
      </trkpt>
      <trkpt lat="43.60973" lon="3.00833">
        <ele>759.1</ele>
        <time>2026-05-20T12:52:32Z</time>
      </trkpt>
      <trkpt lat="43.60973" lon="3.00833">
        <ele>759.1</ele>
        <time>2026-05-20T12:52:37Z</time>
      </trkpt>
      <trkpt lat="43.60973" lon="3.00833">
        <ele>759.1</ele>
        <time>2026-05-20T12:52:42Z</time>
      </trkpt>
      <trkpt lat="43.60973" lon="3.00833">
        <ele>759.1</ele>
        <time>2026-05-20T12:52:47Z</time>
      </trkpt>
      <trkpt lat="43.60973" lon="3.00833">
        <ele>759.1</ele>
        <time>2026-05-20T12:52:52Z</time>
      </trkpt>
      <trkpt lat="43.60981" lon="3.00829">
        <ele>759.9</ele>
        <time>2026-05-20T12:52:57Z</time>
      </trkpt>
      <trkpt lat="43.60981" lon="3.00829">
        <ele>759.9</ele>
        <time>2026-05-20T12:53:02Z</time>
      </trkpt>
      <trkpt lat="43.60981" lon="3.00829">
        <ele>759.9</ele>
        <time>2026-05-20T12:53:07Z</time>
      </trkpt>
      <trkpt lat="43.60981" lon="3.00829">
        <ele>759.9</ele>
        <time>2026-05-20T12:53:12Z</time>
      </trkpt>
      <trkpt lat="43.60981" lon="3.00829">
        <ele>759.9</ele>
        <time>2026-05-20T12:53:17Z</time>
      </trkpt>
      <trkpt lat="43.60981" lon="3.00829">
        <ele>759.9</ele>
        <time>2026-05-20T12:53:22Z</time>
      </trkpt>
      <trkpt lat="43.60981" lon="3.00829">
        <ele>759.9</ele>
        <time>2026-05-20T12:53:27Z</time>
      </trkpt>
      <trkpt lat="43.60981" lon="3.00829">
        <ele>759.9</ele>
        <time>2026-05-20T12:53:32Z</time>
      </trkpt>
      <trkpt lat="43.60981" lon="3.00829">
        <ele>759.9</ele>
        <time>2026-05-20T12:53:37Z</time>
      </trkpt>
      <trkpt lat="43.60981" lon="3.00829">
        <ele>759.9</ele>
        <time>2026-05-20T12:53:42Z</time>
      </trkpt>
      <trkpt lat="43.60981" lon="3.00829">
        <ele>759.9</ele>
        <time>2026-05-20T12:53:47Z</time>
      </trkpt>
      <trkpt lat="43.60981" lon="3.00829">
        <ele>759.9</ele>
        <time>2026-05-20T12:53:52Z</time>
      </trkpt>
      <trkpt lat="43.60981" lon="3.00829">
        <ele>759.9</ele>
        <time>2026-05-20T12:53:57Z</time>
      </trkpt>
      <trkpt lat="43.60981" lon="3.00829">
        <ele>759.9</ele>
        <time>2026-05-20T12:54:02Z</time>
      </trkpt>
      <trkpt lat="43.60981" lon="3.00829">
        <ele>759.9</ele>
        <time>2026-05-20T12:54:07Z</time>
      </trkpt>
      <trkpt lat="43.60981" lon="3.00829">
        <ele>759.9</ele>
        <time>2026-05-20T12:54:12Z</time>
      </trkpt>
      <trkpt lat="43.60981" lon="3.00829">
        <ele>759.9</ele>
        <time>2026-05-20T12:54:17Z</time>
      </trkpt>
      <trkpt lat="43.60981" lon="3.00829">
        <ele>759.9</ele>
        <time>2026-05-20T12:54:22Z</time>
      </trkpt>
      <trkpt lat="43.60981" lon="3.00829">
        <ele>759.9</ele>
        <time>2026-05-20T12:54:27Z</time>
      </trkpt>
      <trkpt lat="43.60981" lon="3.00829">
        <ele>759.9</ele>
        <time>2026-05-20T12:54:32Z</time>
      </trkpt>
      <trkpt lat="43.60981" lon="3.00829">
        <ele>759.9</ele>
        <time>2026-05-20T12:54:37Z</time>
      </trkpt>
      <trkpt lat="43.60981" lon="3.00829">
        <ele>759.9</ele>
        <time>2026-05-20T12:54:42Z</time>
      </trkpt>
      <trkpt lat="43.60981" lon="3.00829">
        <ele>759.9</ele>
        <time>2026-05-20T12:54:47Z</time>
      </trkpt>
      <trkpt lat="43.60981" lon="3.00829">
        <ele>759.9</ele>
        <time>2026-05-20T12:54:52Z</time>
      </trkpt>
      <trkpt lat="43.60981" lon="3.00829">
        <ele>759.9</ele>
        <time>2026-05-20T12:54:57Z</time>
      </trkpt>
      <trkpt lat="43.60981" lon="3.00829">
        <ele>759.9</ele>
        <time>2026-05-20T12:55:02Z</time>
      </trkpt>
      <trkpt lat="43.60981" lon="3.00829">
        <ele>759.9</ele>
        <time>2026-05-20T12:55:07Z</time>
      </trkpt>
      <trkpt lat="43.60981" lon="3.00829">
        <ele>759.9</ele>
        <time>2026-05-20T12:55:12Z</time>
      </trkpt>
      <trkpt lat="43.60981" lon="3.00829">
        <ele>759.9</ele>
        <time>2026-05-20T12:55:17Z</time>
      </trkpt>
      <trkpt lat="43.60981" lon="3.00829">
        <ele>759.9</ele>
        <time>2026-05-20T12:55:22Z</time>
      </trkpt>
      <trkpt lat="43.60981" lon="3.00829">
        <ele>759.9</ele>
        <time>2026-05-20T12:55:27Z</time>
      </trkpt>
      <trkpt lat="43.60981" lon="3.00829">
        <ele>759.9</ele>
        <time>2026-05-20T12:55:32Z</time>
      </trkpt>
      <trkpt lat="43.60986" lon="3.00817">
        <ele>761.7</ele>
        <time>2026-05-20T12:55:37Z</time>
      </trkpt>
      <trkpt lat="43.60987" lon="3.00817">
        <ele>761.7</ele>
        <time>2026-05-20T12:55:42Z</time>
      </trkpt>
      <trkpt lat="43.6098" lon="3.00821">
        <ele>760.8</ele>
        <time>2026-05-20T12:55:47Z</time>
      </trkpt>
      <trkpt lat="43.60979" lon="3.00822">
        <ele>760.6</ele>
        <time>2026-05-20T12:55:52Z</time>
      </trkpt>
      <trkpt lat="43.60979" lon="3.00822">
        <ele>760.6</ele>
        <time>2026-05-20T12:55:57Z</time>
      </trkpt>
      <trkpt lat="43.60979" lon="3.00822">
        <ele>760.6</ele>
        <time>2026-05-20T12:56:02Z</time>
      </trkpt>
      <trkpt lat="43.60973" lon="3.00832">
        <ele>759.2</ele>
        <time>2026-05-20T12:56:07Z</time>
      </trkpt>
      <trkpt lat="43.60973" lon="3.00835">
        <ele>759.6</ele>
        <time>2026-05-20T12:56:12Z</time>
      </trkpt>
      <trkpt lat="43.60974" lon="3.00843">
        <ele>762.2</ele>
        <time>2026-05-20T12:56:17Z</time>
      </trkpt>
      <trkpt lat="43.60979" lon="3.00834">
        <ele>759.5</ele>
        <time>2026-05-20T12:56:22Z</time>
      </trkpt>
      <trkpt lat="43.60979" lon="3.00824">
        <ele>760.4</ele>
        <time>2026-05-20T12:56:27Z</time>
      </trkpt>
      <trkpt lat="43.60979" lon="3.00824">
        <ele>760.4</ele>
        <time>2026-05-20T12:56:32Z</time>
      </trkpt>
      <trkpt lat="43.60979" lon="3.00824">
        <ele>760.4</ele>
        <time>2026-05-20T12:56:37Z</time>
      </trkpt>
      <trkpt lat="43.60979" lon="3.00824">
        <ele>760.4</ele>
        <time>2026-05-20T12:56:42Z</time>
      </trkpt>
      <trkpt lat="43.60979" lon="3.00824">
        <ele>760.4</ele>
        <time>2026-05-20T12:56:47Z</time>
      </trkpt>
      <trkpt lat="43.60979" lon="3.00824">
        <ele>760.4</ele>
        <time>2026-05-20T12:56:52Z</time>
      </trkpt>
      <trkpt lat="43.60979" lon="3.00824">
        <ele>760.4</ele>
        <time>2026-05-20T12:56:57Z</time>
      </trkpt>
      <trkpt lat="43.60979" lon="3.00824">
        <ele>760.4</ele>
        <time>2026-05-20T12:57:02Z</time>
      </trkpt>
      <trkpt lat="43.60979" lon="3.00824">
        <ele>760.4</ele>
        <time>2026-05-20T12:57:07Z</time>
      </trkpt>
      <trkpt lat="43.60979" lon="3.00824">
        <ele>760.4</ele>
        <time>2026-05-20T12:57:12Z</time>
      </trkpt>
      <trkpt lat="43.60979" lon="3.00824">
        <ele>760.4</ele>
        <time>2026-05-20T12:57:17Z</time>
      </trkpt>
      <trkpt lat="43.60979" lon="3.00824">
        <ele>760.4</ele>
        <time>2026-05-20T12:57:22Z</time>
      </trkpt>
      <trkpt lat="43.60979" lon="3.00824">
        <ele>760.4</ele>
        <time>2026-05-20T12:57:27Z</time>
      </trkpt>
      <trkpt lat="43.60979" lon="3.00824">
        <ele>760.4</ele>
        <time>2026-05-20T12:57:32Z</time>
      </trkpt>
      <trkpt lat="43.60979" lon="3.00824">
        <ele>760.4</ele>
        <time>2026-05-20T12:57:37Z</time>
      </trkpt>
      <trkpt lat="43.60979" lon="3.00824">
        <ele>760.4</ele>
        <time>2026-05-20T12:57:42Z</time>
      </trkpt>
      <trkpt lat="43.60979" lon="3.00824">
        <ele>760.4</ele>
        <time>2026-05-20T12:57:47Z</time>
      </trkpt>
      <trkpt lat="43.60979" lon="3.00824">
        <ele>760.4</ele>
        <time>2026-05-20T12:57:52Z</time>
      </trkpt>
      <trkpt lat="43.60979" lon="3.00824">
        <ele>760.4</ele>
        <time>2026-05-20T12:57:57Z</time>
      </trkpt>
      <trkpt lat="43.60979" lon="3.00824">
        <ele>760.4</ele>
        <time>2026-05-20T12:58:02Z</time>
      </trkpt>
      <trkpt lat="43.60979" lon="3.00824">
        <ele>760.4</ele>
        <time>2026-05-20T12:58:07Z</time>
      </trkpt>
      <trkpt lat="43.60979" lon="3.00824">
        <ele>760.4</ele>
        <time>2026-05-20T12:58:12Z</time>
      </trkpt>
      <trkpt lat="43.60979" lon="3.00824">
        <ele>760.4</ele>
        <time>2026-05-20T12:58:17Z</time>
      </trkpt>
      <trkpt lat="43.60979" lon="3.00824">
        <ele>760.4</ele>
        <time>2026-05-20T12:58:22Z</time>
      </trkpt>
      <trkpt lat="43.60979" lon="3.00824">
        <ele>760.4</ele>
        <time>2026-05-20T12:58:27Z</time>
      </trkpt>
      <trkpt lat="43.60979" lon="3.00824">
        <ele>760.4</ele>
        <time>2026-05-20T12:58:32Z</time>
      </trkpt>
      <trkpt lat="43.60979" lon="3.00824">
        <ele>760.4</ele>
        <time>2026-05-20T12:58:37Z</time>
      </trkpt>
      <trkpt lat="43.60979" lon="3.00824">
        <ele>760.4</ele>
        <time>2026-05-20T12:58:42Z</time>
      </trkpt>
      <trkpt lat="43.60979" lon="3.00824">
        <ele>760.4</ele>
        <time>2026-05-20T12:58:47Z</time>
      </trkpt>
      <trkpt lat="43.60979" lon="3.00824">
        <ele>760.4</ele>
        <time>2026-05-20T12:58:52Z</time>
      </trkpt>
      <trkpt lat="43.60979" lon="3.00824">
        <ele>760.4</ele>
        <time>2026-05-20T12:58:57Z</time>
      </trkpt>
      <trkpt lat="43.60979" lon="3.00824">
        <ele>760.4</ele>
        <time>2026-05-20T12:59:02Z</time>
      </trkpt>
      <trkpt lat="43.60979" lon="3.00824">
        <ele>760.4</ele>
        <time>2026-05-20T12:59:07Z</time>
      </trkpt>
      <trkpt lat="43.60979" lon="3.00824">
        <ele>760.4</ele>
        <time>2026-05-20T12:59:12Z</time>
      </trkpt>
      <trkpt lat="43.60979" lon="3.00824">
        <ele>760.4</ele>
        <time>2026-05-20T12:59:17Z</time>
      </trkpt>
      <trkpt lat="43.60979" lon="3.00824">
        <ele>760.4</ele>
        <time>2026-05-20T12:59:22Z</time>
      </trkpt>
      <trkpt lat="43.60979" lon="3.00824">
        <ele>760.4</ele>
        <time>2026-05-20T12:59:27Z</time>
      </trkpt>
      <trkpt lat="43.60979" lon="3.00824">
        <ele>760.4</ele>
        <time>2026-05-20T12:59:32Z</time>
      </trkpt>
      <trkpt lat="43.60979" lon="3.00824">
        <ele>760.4</ele>
        <time>2026-05-20T12:59:37Z</time>
      </trkpt>
      <trkpt lat="43.60979" lon="3.00824">
        <ele>760.4</ele>
        <time>2026-05-20T12:59:42Z</time>
      </trkpt>
      <trkpt lat="43.60979" lon="3.00824">
        <ele>760.4</ele>
        <time>2026-05-20T12:59:47Z</time>
      </trkpt>
      <trkpt lat="43.60979" lon="3.00824">
        <ele>760.4</ele>
        <time>2026-05-20T12:59:52Z</time>
      </trkpt>
      <trkpt lat="43.60979" lon="3.00824">
        <ele>760.4</ele>
        <time>2026-05-20T12:59:57Z</time>
      </trkpt>
      <trkpt lat="43.60979" lon="3.00824">
        <ele>760.4</ele>
        <time>2026-05-20T13:00:02Z</time>
      </trkpt>
      <trkpt lat="43.60979" lon="3.00824">
        <ele>760.4</ele>
        <time>2026-05-20T13:00:07Z</time>
      </trkpt>
      <trkpt lat="43.60979" lon="3.00824">
        <ele>760.4</ele>
        <time>2026-05-20T13:00:12Z</time>
      </trkpt>
      <trkpt lat="43.60979" lon="3.00824">
        <ele>760.4</ele>
        <time>2026-05-20T13:00:17Z</time>
      </trkpt>
      <trkpt lat="43.60979" lon="3.00824">
        <ele>760.4</ele>
        <time>2026-05-20T13:00:22Z</time>
      </trkpt>
      <trkpt lat="43.60979" lon="3.00824">
        <ele>760.4</ele>
        <time>2026-05-20T13:00:27Z</time>
      </trkpt>
      <trkpt lat="43.60979" lon="3.00824">
        <ele>760.4</ele>
        <time>2026-05-20T13:00:32Z</time>
      </trkpt>
      <trkpt lat="43.60979" lon="3.00824">
        <ele>760.4</ele>
        <time>2026-05-20T13:00:37Z</time>
      </trkpt>
      <trkpt lat="43.60979" lon="3.00824">
        <ele>760.4</ele>
        <time>2026-05-20T13:00:42Z</time>
      </trkpt>
      <trkpt lat="43.60979" lon="3.00824">
        <ele>760.4</ele>
        <time>2026-05-20T13:00:47Z</time>
      </trkpt>
      <trkpt lat="43.60979" lon="3.00824">
        <ele>760.4</ele>
        <time>2026-05-20T13:00:52Z</time>
      </trkpt>
      <trkpt lat="43.60979" lon="3.00824">
        <ele>760.4</ele>
        <time>2026-05-20T13:00:57Z</time>
      </trkpt>
      <trkpt lat="43.60979" lon="3.00824">
        <ele>760.4</ele>
        <time>2026-05-20T13:01:02Z</time>
      </trkpt>
      <trkpt lat="43.60979" lon="3.00824">
        <ele>760.4</ele>
        <time>2026-05-20T13:01:07Z</time>
      </trkpt>
      <trkpt lat="43.60979" lon="3.00824">
        <ele>760.4</ele>
        <time>2026-05-20T13:01:12Z</time>
      </trkpt>
      <trkpt lat="43.60979" lon="3.00824">
        <ele>760.4</ele>
        <time>2026-05-20T13:01:17Z</time>
      </trkpt>
      <trkpt lat="43.60979" lon="3.00824">
        <ele>760.4</ele>
        <time>2026-05-20T13:01:22Z</time>
      </trkpt>
      <trkpt lat="43.60979" lon="3.00824">
        <ele>760.4</ele>
        <time>2026-05-20T13:01:27Z</time>
      </trkpt>
      <trkpt lat="43.60979" lon="3.00824">
        <ele>760.4</ele>
        <time>2026-05-20T13:01:32Z</time>
      </trkpt>
      <trkpt lat="43.60979" lon="3.00824">
        <ele>760.4</ele>
        <time>2026-05-20T13:01:37Z</time>
      </trkpt>
      <trkpt lat="43.60979" lon="3.00824">
        <ele>760.4</ele>
        <time>2026-05-20T13:01:42Z</time>
      </trkpt>
      <trkpt lat="43.60979" lon="3.00824">
        <ele>760.4</ele>
        <time>2026-05-20T13:01:47Z</time>
      </trkpt>
      <trkpt lat="43.60986" lon="3.00819">
        <ele>761.4</ele>
        <time>2026-05-20T13:01:52Z</time>
      </trkpt>
      <trkpt lat="43.60989" lon="3.00819">
        <ele>761.6</ele>
        <time>2026-05-20T13:01:57Z</time>
      </trkpt>
      <trkpt lat="43.60992" lon="3.00821">
        <ele>761.5</ele>
        <time>2026-05-20T13:02:02Z</time>
      </trkpt>
      <trkpt lat="43.60992" lon="3.00821">
        <ele>761.5</ele>
        <time>2026-05-20T13:02:07Z</time>
      </trkpt>
      <trkpt lat="43.60991" lon="3.00814">
        <ele>762.4</ele>
        <time>2026-05-20T13:02:12Z</time>
      </trkpt>
      <trkpt lat="43.60991" lon="3.00812">
        <ele>762.7</ele>
        <time>2026-05-20T13:02:17Z</time>
      </trkpt>
      <trkpt lat="43.60991" lon="3.00812">
        <ele>762.7</ele>
        <time>2026-05-20T13:02:22Z</time>
      </trkpt>
      <trkpt lat="43.60991" lon="3.00812">
        <ele>762.7</ele>
        <time>2026-05-20T13:02:27Z</time>
      </trkpt>
      <trkpt lat="43.60991" lon="3.00812">
        <ele>762.7</ele>
        <time>2026-05-20T13:02:32Z</time>
      </trkpt>
      <trkpt lat="43.60989" lon="3.00797">
        <ele>764.6</ele>
        <time>2026-05-20T13:02:37Z</time>
      </trkpt>
      <trkpt lat="43.60989" lon="3.00797">
        <ele>764.6</ele>
        <time>2026-05-20T13:02:42Z</time>
      </trkpt>
      <trkpt lat="43.60989" lon="3.00797">
        <ele>764.6</ele>
        <time>2026-05-20T13:02:47Z</time>
      </trkpt>
      <trkpt lat="43.60989" lon="3.00797">
        <ele>764.6</ele>
        <time>2026-05-20T13:02:52Z</time>
      </trkpt>
      <trkpt lat="43.60989" lon="3.00797">
        <ele>764.6</ele>
        <time>2026-05-20T13:02:57Z</time>
      </trkpt>
      <trkpt lat="43.60989" lon="3.00797">
        <ele>764.6</ele>
        <time>2026-05-20T13:03:02Z</time>
      </trkpt>
      <trkpt lat="43.60989" lon="3.00797">
        <ele>764.6</ele>
        <time>2026-05-20T13:03:07Z</time>
      </trkpt>
      <trkpt lat="43.60989" lon="3.00797">
        <ele>764.6</ele>
        <time>2026-05-20T13:03:12Z</time>
      </trkpt>
      <trkpt lat="43.60989" lon="3.00797">
        <ele>764.6</ele>
        <time>2026-05-20T13:03:17Z</time>
      </trkpt>
      <trkpt lat="43.60989" lon="3.00797">
        <ele>764.6</ele>
        <time>2026-05-20T13:03:22Z</time>
      </trkpt>
      <trkpt lat="43.60989" lon="3.00797">
        <ele>764.6</ele>
        <time>2026-05-20T13:03:27Z</time>
      </trkpt>
      <trkpt lat="43.60989" lon="3.00797">
        <ele>764.6</ele>
        <time>2026-05-20T13:03:32Z</time>
      </trkpt>
      <trkpt lat="43.60989" lon="3.00797">
        <ele>764.6</ele>
        <time>2026-05-20T13:03:37Z</time>
      </trkpt>
      <trkpt lat="43.60989" lon="3.00797">
        <ele>764.6</ele>
        <time>2026-05-20T13:03:42Z</time>
      </trkpt>
      <trkpt lat="43.60989" lon="3.00797">
        <ele>764.6</ele>
        <time>2026-05-20T13:03:47Z</time>
      </trkpt>
      <trkpt lat="43.60989" lon="3.00797">
        <ele>764.6</ele>
        <time>2026-05-20T13:03:52Z</time>
      </trkpt>
      <trkpt lat="43.60989" lon="3.00797">
        <ele>764.6</ele>
        <time>2026-05-20T13:03:57Z</time>
      </trkpt>
      <trkpt lat="43.60989" lon="3.00797">
        <ele>764.6</ele>
        <time>2026-05-20T13:04:02Z</time>
      </trkpt>
      <trkpt lat="43.60989" lon="3.00797">
        <ele>764.6</ele>
        <time>2026-05-20T13:04:07Z</time>
      </trkpt>
      <trkpt lat="43.60989" lon="3.00797">
        <ele>764.6</ele>
        <time>2026-05-20T13:04:12Z</time>
      </trkpt>
      <trkpt lat="43.60989" lon="3.00797">
        <ele>764.6</ele>
        <time>2026-05-20T13:04:17Z</time>
      </trkpt>
      <trkpt lat="43.60989" lon="3.00797">
        <ele>764.6</ele>
        <time>2026-05-20T13:04:22Z</time>
      </trkpt>
      <trkpt lat="43.60989" lon="3.00797">
        <ele>764.6</ele>
        <time>2026-05-20T13:04:27Z</time>
      </trkpt>
      <trkpt lat="43.60989" lon="3.00797">
        <ele>764.6</ele>
        <time>2026-05-20T13:04:32Z</time>
      </trkpt>
      <trkpt lat="43.60989" lon="3.00797">
        <ele>764.6</ele>
        <time>2026-05-20T13:04:37Z</time>
      </trkpt>
      <trkpt lat="43.60989" lon="3.00797">
        <ele>764.6</ele>
        <time>2026-05-20T13:04:42Z</time>
      </trkpt>
      <trkpt lat="43.60981" lon="3.0079">
        <ele>764.8</ele>
        <time>2026-05-20T13:04:47Z</time>
      </trkpt>
      <trkpt lat="43.60979" lon="3.0079">
        <ele>764.6</ele>
        <time>2026-05-20T13:04:52Z</time>
      </trkpt>
      <trkpt lat="43.60979" lon="3.0079">
        <ele>764.6</ele>
        <time>2026-05-20T13:04:57Z</time>
      </trkpt>
      <trkpt lat="43.60979" lon="3.0079">
        <ele>764.6</ele>
        <time>2026-05-20T13:05:02Z</time>
      </trkpt>
      <trkpt lat="43.60979" lon="3.0079">
        <ele>764.6</ele>
        <time>2026-05-20T13:05:07Z</time>
      </trkpt>
      <trkpt lat="43.60979" lon="3.0079">
        <ele>764.6</ele>
        <time>2026-05-20T13:05:12Z</time>
      </trkpt>
      <trkpt lat="43.60979" lon="3.0079">
        <ele>764.6</ele>
        <time>2026-05-20T13:05:17Z</time>
      </trkpt>
      <trkpt lat="43.60979" lon="3.0079">
        <ele>764.6</ele>
        <time>2026-05-20T13:05:22Z</time>
      </trkpt>
      <trkpt lat="43.60979" lon="3.0079">
        <ele>764.6</ele>
        <time>2026-05-20T13:05:27Z</time>
      </trkpt>
      <trkpt lat="43.60979" lon="3.0079">
        <ele>764.6</ele>
        <time>2026-05-20T13:05:32Z</time>
      </trkpt>
      <trkpt lat="43.60979" lon="3.0079">
        <ele>764.6</ele>
        <time>2026-05-20T13:05:37Z</time>
      </trkpt>
      <trkpt lat="43.60979" lon="3.0079">
        <ele>764.6</ele>
        <time>2026-05-20T13:05:42Z</time>
      </trkpt>
      <trkpt lat="43.60979" lon="3.0079">
        <ele>764.6</ele>
        <time>2026-05-20T13:05:47Z</time>
      </trkpt>
      <trkpt lat="43.60979" lon="3.0079">
        <ele>764.6</ele>
        <time>2026-05-20T13:05:52Z</time>
      </trkpt>
      <trkpt lat="43.60979" lon="3.0079">
        <ele>764.6</ele>
        <time>2026-05-20T13:05:57Z</time>
      </trkpt>
      <trkpt lat="43.60979" lon="3.0079">
        <ele>764.6</ele>
        <time>2026-05-20T13:06:02Z</time>
      </trkpt>
      <trkpt lat="43.60979" lon="3.0079">
        <ele>764.6</ele>
        <time>2026-05-20T13:06:07Z</time>
      </trkpt>
      <trkpt lat="43.60979" lon="3.0079">
        <ele>764.6</ele>
        <time>2026-05-20T13:06:12Z</time>
      </trkpt>
      <trkpt lat="43.6098" lon="3.00789">
        <ele>764.8</ele>
        <time>2026-05-20T13:06:17Z</time>
      </trkpt>
      <trkpt lat="43.6098" lon="3.00789">
        <ele>764.8</ele>
        <time>2026-05-20T13:06:22Z</time>
      </trkpt>
      <trkpt lat="43.60983" lon="3.00795">
        <ele>764.3</ele>
        <time>2026-05-20T13:06:27Z</time>
      </trkpt>
      <trkpt lat="43.60986" lon="3.00798">
        <ele>764.2</ele>
        <time>2026-05-20T13:06:32Z</time>
      </trkpt>
      <trkpt lat="43.60989" lon="3.008">
        <ele>764.2</ele>
        <time>2026-05-20T13:06:37Z</time>
      </trkpt>
      <trkpt lat="43.60993" lon="3.00803">
        <ele>764.1</ele>
        <time>2026-05-20T13:06:42Z</time>
      </trkpt>
      <trkpt lat="43.60992" lon="3.00807">
        <ele>763.5</ele>
        <time>2026-05-20T13:06:47Z</time>
      </trkpt>
      <trkpt lat="43.60992" lon="3.0081">
        <ele>763.1</ele>
        <time>2026-05-20T13:06:52Z</time>
      </trkpt>
      <trkpt lat="43.60992" lon="3.0081">
        <ele>763.1</ele>
        <time>2026-05-20T13:06:57Z</time>
      </trkpt>
      <trkpt lat="43.60992" lon="3.0081">
        <ele>763.1</ele>
        <time>2026-05-20T13:07:02Z</time>
      </trkpt>
      <trkpt lat="43.60995" lon="3.00808">
        <ele>763.6</ele>
        <time>2026-05-20T13:07:07Z</time>
      </trkpt>
      <trkpt lat="43.60998" lon="3.00812">
        <ele>763.2</ele>
        <time>2026-05-20T13:07:12Z</time>
      </trkpt>
      <trkpt lat="43.61001" lon="3.00814">
        <ele>763.1</ele>
        <time>2026-05-20T13:07:17Z</time>
      </trkpt>
      <trkpt lat="43.61003" lon="3.00814">
        <ele>763.2</ele>
        <time>2026-05-20T13:07:22Z</time>
      </trkpt>
      <trkpt lat="43.61007" lon="3.00815">
        <ele>763.4</ele>
        <time>2026-05-20T13:07:27Z</time>
      </trkpt>
      <trkpt lat="43.61009" lon="3.00815">
        <ele>763.5</ele>
        <time>2026-05-20T13:07:32Z</time>
      </trkpt>
      <trkpt lat="43.61011" lon="3.00818">
        <ele>763.1</ele>
        <time>2026-05-20T13:07:37Z</time>
      </trkpt>
      <trkpt lat="43.61012" lon="3.00821">
        <ele>762.7</ele>
        <time>2026-05-20T13:07:42Z</time>
      </trkpt>
      <trkpt lat="43.61014" lon="3.00823">
        <ele>762.5</ele>
        <time>2026-05-20T13:07:47Z</time>
      </trkpt>
      <trkpt lat="43.61015" lon="3.00823">
        <ele>762.5</ele>
        <time>2026-05-20T13:07:52Z</time>
      </trkpt>
      <trkpt lat="43.61018" lon="3.00821">
        <ele>763.1</ele>
        <time>2026-05-20T13:07:57Z</time>
      </trkpt>
      <trkpt lat="43.61019" lon="3.00813">
        <ele>764.6</ele>
        <time>2026-05-20T13:08:02Z</time>
      </trkpt>
      <trkpt lat="43.6102" lon="3.00807">
        <ele>765.8</ele>
        <time>2026-05-20T13:08:07Z</time>
      </trkpt>
      <trkpt lat="43.6102" lon="3.00802">
        <ele>766.7</ele>
        <time>2026-05-20T13:08:12Z</time>
      </trkpt>
      <trkpt lat="43.61021" lon="3.00799">
        <ele>767.3</ele>
        <time>2026-05-20T13:08:17Z</time>
      </trkpt>
      <trkpt lat="43.61022" lon="3.00797">
        <ele>767.8</ele>
        <time>2026-05-20T13:08:22Z</time>
      </trkpt>
      <trkpt lat="43.61023" lon="3.00797">
        <ele>767.9</ele>
        <time>2026-05-20T13:08:27Z</time>
      </trkpt>
      <trkpt lat="43.61023" lon="3.00797">
        <ele>767.9</ele>
        <time>2026-05-20T13:08:32Z</time>
      </trkpt>
      <trkpt lat="43.61033" lon="3.00801">
        <ele>768</ele>
        <time>2026-05-20T13:08:37Z</time>
      </trkpt>
      <trkpt lat="43.61037" lon="3.00809">
        <ele>766.7</ele>
        <time>2026-05-20T13:08:42Z</time>
      </trkpt>
      <trkpt lat="43.61037" lon="3.00809">
        <ele>766.7</ele>
        <time>2026-05-20T13:08:47Z</time>
      </trkpt>
      <trkpt lat="43.61037" lon="3.00809">
        <ele>766.7</ele>
        <time>2026-05-20T13:08:52Z</time>
      </trkpt>
      <trkpt lat="43.61037" lon="3.00809">
        <ele>766.7</ele>
        <time>2026-05-20T13:08:57Z</time>
      </trkpt>
      <trkpt lat="43.61037" lon="3.00809">
        <ele>766.7</ele>
        <time>2026-05-20T13:09:02Z</time>
      </trkpt>
      <trkpt lat="43.61037" lon="3.00809">
        <ele>766.7</ele>
        <time>2026-05-20T13:09:07Z</time>
      </trkpt>
      <trkpt lat="43.61037" lon="3.00809">
        <ele>766.7</ele>
        <time>2026-05-20T13:09:12Z</time>
      </trkpt>
      <trkpt lat="43.61037" lon="3.00809">
        <ele>766.7</ele>
        <time>2026-05-20T13:09:17Z</time>
      </trkpt>
      <trkpt lat="43.61037" lon="3.00809">
        <ele>766.7</ele>
        <time>2026-05-20T13:09:22Z</time>
      </trkpt>
      <trkpt lat="43.61037" lon="3.00809">
        <ele>766.7</ele>
        <time>2026-05-20T13:09:27Z</time>
      </trkpt>
      <trkpt lat="43.61037" lon="3.00809">
        <ele>766.7</ele>
        <time>2026-05-20T13:09:32Z</time>
      </trkpt>
      <trkpt lat="43.61037" lon="3.00809">
        <ele>766.7</ele>
        <time>2026-05-20T13:09:37Z</time>
      </trkpt>
      <trkpt lat="43.61037" lon="3.00809">
        <ele>766.7</ele>
        <time>2026-05-20T13:09:42Z</time>
      </trkpt>
      <trkpt lat="43.61037" lon="3.00809">
        <ele>766.7</ele>
        <time>2026-05-20T13:09:47Z</time>
      </trkpt>
      <trkpt lat="43.61037" lon="3.00809">
        <ele>766.7</ele>
        <time>2026-05-20T13:09:52Z</time>
      </trkpt>
      <trkpt lat="43.61037" lon="3.00809">
        <ele>766.7</ele>
        <time>2026-05-20T13:09:57Z</time>
      </trkpt>
      <trkpt lat="43.61037" lon="3.00809">
        <ele>766.7</ele>
        <time>2026-05-20T13:10:02Z</time>
      </trkpt>
      <trkpt lat="43.61037" lon="3.00809">
        <ele>766.7</ele>
        <time>2026-05-20T13:10:07Z</time>
      </trkpt>
      <trkpt lat="43.61037" lon="3.00809">
        <ele>766.7</ele>
        <time>2026-05-20T13:10:12Z</time>
      </trkpt>
      <trkpt lat="43.61037" lon="3.00809">
        <ele>766.7</ele>
        <time>2026-05-20T13:10:17Z</time>
      </trkpt>
      <trkpt lat="43.61037" lon="3.00809">
        <ele>766.7</ele>
        <time>2026-05-20T13:10:22Z</time>
      </trkpt>
      <trkpt lat="43.61037" lon="3.00809">
        <ele>766.7</ele>
        <time>2026-05-20T13:10:27Z</time>
      </trkpt>
      <trkpt lat="43.61037" lon="3.00809">
        <ele>766.7</ele>
        <time>2026-05-20T13:10:32Z</time>
      </trkpt>
      <trkpt lat="43.61037" lon="3.00809">
        <ele>766.7</ele>
        <time>2026-05-20T13:10:37Z</time>
      </trkpt>
      <trkpt lat="43.61037" lon="3.00809">
        <ele>766.7</ele>
        <time>2026-05-20T13:10:42Z</time>
      </trkpt>
      <trkpt lat="43.61037" lon="3.00809">
        <ele>766.7</ele>
        <time>2026-05-20T13:10:47Z</time>
      </trkpt>
      <trkpt lat="43.61037" lon="3.00809">
        <ele>766.7</ele>
        <time>2026-05-20T13:10:52Z</time>
      </trkpt>
      <trkpt lat="43.61037" lon="3.00809">
        <ele>766.7</ele>
        <time>2026-05-20T13:10:57Z</time>
      </trkpt>
      <trkpt lat="43.61037" lon="3.00809">
        <ele>766.7</ele>
        <time>2026-05-20T13:11:02Z</time>
      </trkpt>
      <trkpt lat="43.61037" lon="3.00809">
        <ele>766.7</ele>
        <time>2026-05-20T13:11:07Z</time>
      </trkpt>
      <trkpt lat="43.61037" lon="3.00809">
        <ele>766.7</ele>
        <time>2026-05-20T13:11:12Z</time>
      </trkpt>
      <trkpt lat="43.61037" lon="3.00809">
        <ele>766.7</ele>
        <time>2026-05-20T13:11:17Z</time>
      </trkpt>
      <trkpt lat="43.61037" lon="3.00809">
        <ele>766.7</ele>
        <time>2026-05-20T13:11:22Z</time>
      </trkpt>
      <trkpt lat="43.61037" lon="3.00809">
        <ele>766.7</ele>
        <time>2026-05-20T13:11:27Z</time>
      </trkpt>
      <trkpt lat="43.61037" lon="3.00809">
        <ele>766.7</ele>
        <time>2026-05-20T13:11:32Z</time>
      </trkpt>
      <trkpt lat="43.61037" lon="3.00809">
        <ele>766.7</ele>
        <time>2026-05-20T13:11:37Z</time>
      </trkpt>
      <trkpt lat="43.61037" lon="3.00809">
        <ele>766.7</ele>
        <time>2026-05-20T13:11:42Z</time>
      </trkpt>
      <trkpt lat="43.61037" lon="3.00809">
        <ele>766.7</ele>
        <time>2026-05-20T13:11:47Z</time>
      </trkpt>
      <trkpt lat="43.61037" lon="3.00809">
        <ele>766.7</ele>
        <time>2026-05-20T13:11:52Z</time>
      </trkpt>
      <trkpt lat="43.61037" lon="3.00809">
        <ele>766.7</ele>
        <time>2026-05-20T13:11:57Z</time>
      </trkpt>
      <trkpt lat="43.61037" lon="3.00809">
        <ele>766.7</ele>
        <time>2026-05-20T13:12:02Z</time>
      </trkpt>
      <trkpt lat="43.61037" lon="3.00809">
        <ele>766.7</ele>
        <time>2026-05-20T13:12:07Z</time>
      </trkpt>
      <trkpt lat="43.61037" lon="3.00809">
        <ele>766.7</ele>
        <time>2026-05-20T13:12:12Z</time>
      </trkpt>
      <trkpt lat="43.61037" lon="3.00809">
        <ele>766.7</ele>
        <time>2026-05-20T13:12:17Z</time>
      </trkpt>
      <trkpt lat="43.61037" lon="3.00809">
        <ele>766.7</ele>
        <time>2026-05-20T13:12:22Z</time>
      </trkpt>
      <trkpt lat="43.61037" lon="3.00809">
        <ele>766.7</ele>
        <time>2026-05-20T13:12:27Z</time>
      </trkpt>
      <trkpt lat="43.61037" lon="3.00809">
        <ele>766.7</ele>
        <time>2026-05-20T13:12:32Z</time>
      </trkpt>
      <trkpt lat="43.61037" lon="3.00809">
        <ele>766.7</ele>
        <time>2026-05-20T13:12:37Z</time>
      </trkpt>
      <trkpt lat="43.61037" lon="3.00809">
        <ele>766.7</ele>
        <time>2026-05-20T13:12:42Z</time>
      </trkpt>
      <trkpt lat="43.61037" lon="3.00809">
        <ele>766.7</ele>
        <time>2026-05-20T13:12:47Z</time>
      </trkpt>
      <trkpt lat="43.61037" lon="3.00809">
        <ele>766.7</ele>
        <time>2026-05-20T13:12:52Z</time>
      </trkpt>
      <trkpt lat="43.61037" lon="3.00809">
        <ele>766.7</ele>
        <time>2026-05-20T13:12:57Z</time>
      </trkpt>
      <trkpt lat="43.61037" lon="3.00809">
        <ele>766.7</ele>
        <time>2026-05-20T13:13:02Z</time>
      </trkpt>
      <trkpt lat="43.61037" lon="3.00809">
        <ele>766.7</ele>
        <time>2026-05-20T13:13:07Z</time>
      </trkpt>
      <trkpt lat="43.61037" lon="3.00809">
        <ele>766.7</ele>
        <time>2026-05-20T13:13:12Z</time>
      </trkpt>
      <trkpt lat="43.61043" lon="3.00819">
        <ele>765.1</ele>
        <time>2026-05-20T13:13:17Z</time>
      </trkpt>
      <trkpt lat="43.61049" lon="3.00825">
        <ele>764.2</ele>
        <time>2026-05-20T13:13:22Z</time>
      </trkpt>
      <trkpt lat="43.61053" lon="3.00829">
        <ele>763.5</ele>
        <time>2026-05-20T13:13:27Z</time>
      </trkpt>
      <trkpt lat="43.61058" lon="3.00831">
        <ele>763.3</ele>
        <time>2026-05-20T13:13:32Z</time>
      </trkpt>
      <trkpt lat="43.61062" lon="3.00837">
        <ele>763.5</ele>
        <time>2026-05-20T13:13:37Z</time>
      </trkpt>
      <trkpt lat="43.61068" lon="3.00839">
        <ele>763.9</ele>
        <time>2026-05-20T13:13:42Z</time>
      </trkpt>
      <trkpt lat="43.61074" lon="3.00841">
        <ele>764.4</ele>
        <time>2026-05-20T13:13:47Z</time>
      </trkpt>
      <trkpt lat="43.61077" lon="3.00838">
        <ele>764.2</ele>
        <time>2026-05-20T13:13:52Z</time>
      </trkpt>
      <trkpt lat="43.61082" lon="3.00836">
        <ele>764.2</ele>
        <time>2026-05-20T13:13:57Z</time>
      </trkpt>
      <trkpt lat="43.61085" lon="3.00831">
        <ele>764.8</ele>
        <time>2026-05-20T13:14:02Z</time>
      </trkpt>
      <trkpt lat="43.6109" lon="3.00827">
        <ele>766.4</ele>
        <time>2026-05-20T13:14:07Z</time>
      </trkpt>
      <trkpt lat="43.61097" lon="3.00824">
        <ele>767.9</ele>
        <time>2026-05-20T13:14:12Z</time>
      </trkpt>
      <trkpt lat="43.611" lon="3.0082">
        <ele>769.3</ele>
        <time>2026-05-20T13:14:17Z</time>
      </trkpt>
      <trkpt lat="43.61103" lon="3.00817">
        <ele>770.3</ele>
        <time>2026-05-20T13:14:22Z</time>
      </trkpt>
      <trkpt lat="43.61103" lon="3.00814">
        <ele>771.1</ele>
        <time>2026-05-20T13:14:27Z</time>
      </trkpt>
      <trkpt lat="43.61099" lon="3.00813">
        <ele>771</ele>
        <time>2026-05-20T13:14:32Z</time>
      </trkpt>
      <trkpt lat="43.61094" lon="3.00811">
        <ele>771</ele>
        <time>2026-05-20T13:14:37Z</time>
      </trkpt>
      <trkpt lat="43.61091" lon="3.0081">
        <ele>770.9</ele>
        <time>2026-05-20T13:14:42Z</time>
      </trkpt>
      <trkpt lat="43.61088" lon="3.00811">
        <ele>770.4</ele>
        <time>2026-05-20T13:14:47Z</time>
      </trkpt>
      <trkpt lat="43.61083" lon="3.0081">
        <ele>770.1</ele>
        <time>2026-05-20T13:14:52Z</time>
      </trkpt>
      <trkpt lat="43.6108" lon="3.00806">
        <ele>770.9</ele>
        <time>2026-05-20T13:14:57Z</time>
      </trkpt>
      <trkpt lat="43.61077" lon="3.00805">
        <ele>770.9</ele>
        <time>2026-05-20T13:15:02Z</time>
      </trkpt>
      <trkpt lat="43.61075" lon="3.00803">
        <ele>771.3</ele>
        <time>2026-05-20T13:15:07Z</time>
      </trkpt>
      <trkpt lat="43.61072" lon="3.008">
        <ele>771.8</ele>
        <time>2026-05-20T13:15:12Z</time>
      </trkpt>
      <trkpt lat="43.6107" lon="3.00798">
        <ele>772.1</ele>
        <time>2026-05-20T13:15:17Z</time>
      </trkpt>
      <trkpt lat="43.6107" lon="3.00798">
        <ele>772.1</ele>
        <time>2026-05-20T13:15:22Z</time>
      </trkpt>
      <trkpt lat="43.6107" lon="3.00798">
        <ele>772.1</ele>
        <time>2026-05-20T13:15:27Z</time>
      </trkpt>
      <trkpt lat="43.61077" lon="3.00795">
        <ele>773.5</ele>
        <time>2026-05-20T13:15:32Z</time>
      </trkpt>
      <trkpt lat="43.61077" lon="3.00795">
        <ele>773.5</ele>
        <time>2026-05-20T13:15:37Z</time>
      </trkpt>
      <trkpt lat="43.61077" lon="3.00795">
        <ele>773.5</ele>
        <time>2026-05-20T13:15:42Z</time>
      </trkpt>
      <trkpt lat="43.61077" lon="3.00795">
        <ele>773.5</ele>
        <time>2026-05-20T13:15:47Z</time>
      </trkpt>
      <trkpt lat="43.61077" lon="3.00795">
        <ele>773.5</ele>
        <time>2026-05-20T13:15:52Z</time>
      </trkpt>
      <trkpt lat="43.61081" lon="3.00793">
        <ele>774.4</ele>
        <time>2026-05-20T13:15:57Z</time>
      </trkpt>
      <trkpt lat="43.61082" lon="3.00794">
        <ele>774.3</ele>
        <time>2026-05-20T13:16:02Z</time>
      </trkpt>
      <trkpt lat="43.61082" lon="3.00794">
        <ele>774.3</ele>
        <time>2026-05-20T13:16:07Z</time>
      </trkpt>
      <trkpt lat="43.61082" lon="3.00794">
        <ele>774.3</ele>
        <time>2026-05-20T13:16:12Z</time>
      </trkpt>
      <trkpt lat="43.61082" lon="3.00794">
        <ele>774.3</ele>
        <time>2026-05-20T13:16:17Z</time>
      </trkpt>
      <trkpt lat="43.61082" lon="3.00794">
        <ele>774.3</ele>
        <time>2026-05-20T13:16:22Z</time>
      </trkpt>
      <trkpt lat="43.61091" lon="3.00786">
        <ele>777.2</ele>
        <time>2026-05-20T13:16:27Z</time>
      </trkpt>
      <trkpt lat="43.61095" lon="3.00783">
        <ele>778.4</ele>
        <time>2026-05-20T13:16:32Z</time>
      </trkpt>
      <trkpt lat="43.61097" lon="3.00781">
        <ele>779.1</ele>
        <time>2026-05-20T13:16:37Z</time>
      </trkpt>
      <trkpt lat="43.61098" lon="3.00781">
        <ele>779.2</ele>
        <time>2026-05-20T13:16:42Z</time>
      </trkpt>
      <trkpt lat="43.61098" lon="3.00781">
        <ele>779.2</ele>
        <time>2026-05-20T13:16:47Z</time>
      </trkpt>
      <trkpt lat="43.61098" lon="3.00781">
        <ele>779.2</ele>
        <time>2026-05-20T13:16:52Z</time>
      </trkpt>
      <trkpt lat="43.61101" lon="3.00777">
        <ele>780.5</ele>
        <time>2026-05-20T13:16:57Z</time>
      </trkpt>
      <trkpt lat="43.61103" lon="3.00773">
        <ele>781.7</ele>
        <time>2026-05-20T13:17:02Z</time>
      </trkpt>
      <trkpt lat="43.61106" lon="3.00771">
        <ele>782.5</ele>
        <time>2026-05-20T13:17:07Z</time>
      </trkpt>
      <trkpt lat="43.61108" lon="3.00769">
        <ele>783.2</ele>
        <time>2026-05-20T13:17:12Z</time>
      </trkpt>
      <trkpt lat="43.61109" lon="3.00765">
        <ele>784.3</ele>
        <time>2026-05-20T13:17:17Z</time>
      </trkpt>
      <trkpt lat="43.61111" lon="3.00764">
        <ele>784.7</ele>
        <time>2026-05-20T13:17:22Z</time>
      </trkpt>
      <trkpt lat="43.61111" lon="3.00764">
        <ele>784.7</ele>
        <time>2026-05-20T13:17:27Z</time>
      </trkpt>
      <trkpt lat="43.61111" lon="3.00764">
        <ele>784.7</ele>
        <time>2026-05-20T13:17:32Z</time>
      </trkpt>
      <trkpt lat="43.61111" lon="3.00764">
        <ele>784.7</ele>
        <time>2026-05-20T13:17:37Z</time>
      </trkpt>
      <trkpt lat="43.61111" lon="3.00764">
        <ele>784.7</ele>
        <time>2026-05-20T13:17:42Z</time>
      </trkpt>
      <trkpt lat="43.61115" lon="3.00756">
        <ele>787.1</ele>
        <time>2026-05-20T13:17:47Z</time>
      </trkpt>
      <trkpt lat="43.61117" lon="3.00753">
        <ele>788.1</ele>
        <time>2026-05-20T13:17:52Z</time>
      </trkpt>
      <trkpt lat="43.61118" lon="3.00751">
        <ele>788.7</ele>
        <time>2026-05-20T13:17:57Z</time>
      </trkpt>
      <trkpt lat="43.61119" lon="3.00748">
        <ele>789.6</ele>
        <time>2026-05-20T13:18:02Z</time>
      </trkpt>
      <trkpt lat="43.61119" lon="3.00748">
        <ele>789.6</ele>
        <time>2026-05-20T13:18:07Z</time>
      </trkpt>
      <trkpt lat="43.61119" lon="3.00748">
        <ele>789.6</ele>
        <time>2026-05-20T13:18:12Z</time>
      </trkpt>
      <trkpt lat="43.61123" lon="3.00741">
        <ele>792.1</ele>
        <time>2026-05-20T13:18:17Z</time>
      </trkpt>
      <trkpt lat="43.61123" lon="3.0074">
        <ele>792.4</ele>
        <time>2026-05-20T13:18:22Z</time>
      </trkpt>
      <trkpt lat="43.61123" lon="3.0074">
        <ele>792.4</ele>
        <time>2026-05-20T13:18:27Z</time>
      </trkpt>
      <trkpt lat="43.61126" lon="3.00734">
        <ele>794.5</ele>
        <time>2026-05-20T13:18:32Z</time>
      </trkpt>
      <trkpt lat="43.61128" lon="3.00731">
        <ele>795.6</ele>
        <time>2026-05-20T13:18:37Z</time>
      </trkpt>
      <trkpt lat="43.61124" lon="3.00729">
        <ele>795.8</ele>
        <time>2026-05-20T13:18:42Z</time>
      </trkpt>
      <trkpt lat="43.6112" lon="3.00727">
        <ele>796.1</ele>
        <time>2026-05-20T13:18:47Z</time>
      </trkpt>
      <trkpt lat="43.61118" lon="3.00727">
        <ele>796</ele>
        <time>2026-05-20T13:18:52Z</time>
      </trkpt>
      <trkpt lat="43.61115" lon="3.00729">
        <ele>795.1</ele>
        <time>2026-05-20T13:18:57Z</time>
      </trkpt>
      <trkpt lat="43.61112" lon="3.00735">
        <ele>793</ele>
        <time>2026-05-20T13:19:02Z</time>
      </trkpt>
      <trkpt lat="43.61111" lon="3.00739">
        <ele>791.7</ele>
        <time>2026-05-20T13:19:07Z</time>
      </trkpt>
      <trkpt lat="43.61108" lon="3.00739">
        <ele>791.5</ele>
        <time>2026-05-20T13:19:12Z</time>
      </trkpt>
      <trkpt lat="43.61104" lon="3.00735">
        <ele>792.4</ele>
        <time>2026-05-20T13:19:17Z</time>
      </trkpt>
      <trkpt lat="43.61102" lon="3.00737">
        <ele>791.6</ele>
        <time>2026-05-20T13:19:22Z</time>
      </trkpt>
      <trkpt lat="43.61101" lon="3.00737">
        <ele>791.5</ele>
        <time>2026-05-20T13:19:27Z</time>
      </trkpt>
      <trkpt lat="43.61101" lon="3.00737">
        <ele>791.5</ele>
        <time>2026-05-20T13:19:32Z</time>
      </trkpt>
      <trkpt lat="43.61094" lon="3.00737">
        <ele>790.9</ele>
        <time>2026-05-20T13:19:37Z</time>
      </trkpt>
      <trkpt lat="43.61091" lon="3.00738">
        <ele>790.4</ele>
        <time>2026-05-20T13:19:42Z</time>
      </trkpt>
      <trkpt lat="43.61086" lon="3.00738">
        <ele>790</ele>
        <time>2026-05-20T13:19:47Z</time>
      </trkpt>
      <trkpt lat="43.61081" lon="3.00738">
        <ele>789.4</ele>
        <time>2026-05-20T13:19:52Z</time>
      </trkpt>
      <trkpt lat="43.61077" lon="3.00738">
        <ele>788.8</ele>
        <time>2026-05-20T13:19:57Z</time>
      </trkpt>
      <trkpt lat="43.61074" lon="3.00738">
        <ele>788.4</ele>
        <time>2026-05-20T13:20:02Z</time>
      </trkpt>
      <trkpt lat="43.61073" lon="3.00735">
        <ele>789.2</ele>
        <time>2026-05-20T13:20:07Z</time>
      </trkpt>
      <trkpt lat="43.61072" lon="3.00732">
        <ele>790</ele>
        <time>2026-05-20T13:20:12Z</time>
      </trkpt>
      <trkpt lat="43.6107" lon="3.00729">
        <ele>790.7</ele>
        <time>2026-05-20T13:20:17Z</time>
      </trkpt>
      <trkpt lat="43.61068" lon="3.00727">
        <ele>791</ele>
        <time>2026-05-20T13:20:22Z</time>
      </trkpt>
      <trkpt lat="43.61067" lon="3.00723">
        <ele>792.2</ele>
        <time>2026-05-20T13:20:27Z</time>
      </trkpt>
      <trkpt lat="43.61065" lon="3.00722">
        <ele>792.2</ele>
        <time>2026-05-20T13:20:32Z</time>
      </trkpt>
      <trkpt lat="43.61064" lon="3.0072">
        <ele>792.8</ele>
        <time>2026-05-20T13:20:37Z</time>
      </trkpt>
      <trkpt lat="43.61062" lon="3.00719">
        <ele>792.8</ele>
        <time>2026-05-20T13:20:42Z</time>
      </trkpt>
      <trkpt lat="43.61062" lon="3.00718">
        <ele>793.1</ele>
        <time>2026-05-20T13:20:47Z</time>
      </trkpt>
      <trkpt lat="43.61061" lon="3.00714">
        <ele>794.3</ele>
        <time>2026-05-20T13:20:52Z</time>
      </trkpt>
      <trkpt lat="43.6106" lon="3.00711">
        <ele>795.2</ele>
        <time>2026-05-20T13:20:57Z</time>
      </trkpt>
      <trkpt lat="43.61059" lon="3.00709">
        <ele>795.7</ele>
        <time>2026-05-20T13:21:02Z</time>
      </trkpt>
      <trkpt lat="43.61059" lon="3.00709">
        <ele>795.7</ele>
        <time>2026-05-20T13:21:07Z</time>
      </trkpt>
      <trkpt lat="43.61059" lon="3.00709">
        <ele>795.7</ele>
        <time>2026-05-20T13:21:12Z</time>
      </trkpt>
      <trkpt lat="43.61059" lon="3.00709">
        <ele>795.7</ele>
        <time>2026-05-20T13:21:17Z</time>
      </trkpt>
      <trkpt lat="43.61059" lon="3.00709">
        <ele>795.7</ele>
        <time>2026-05-20T13:21:22Z</time>
      </trkpt>
      <trkpt lat="43.61059" lon="3.00709">
        <ele>795.7</ele>
        <time>2026-05-20T13:21:27Z</time>
      </trkpt>
      <trkpt lat="43.61059" lon="3.00709">
        <ele>795.7</ele>
        <time>2026-05-20T13:21:32Z</time>
      </trkpt>
      <trkpt lat="43.61059" lon="3.00709">
        <ele>795.7</ele>
        <time>2026-05-20T13:21:37Z</time>
      </trkpt>
      <trkpt lat="43.61059" lon="3.00709">
        <ele>795.7</ele>
        <time>2026-05-20T13:21:42Z</time>
      </trkpt>
      <trkpt lat="43.61059" lon="3.00709">
        <ele>795.7</ele>
        <time>2026-05-20T13:21:47Z</time>
      </trkpt>
      <trkpt lat="43.61059" lon="3.00709">
        <ele>795.7</ele>
        <time>2026-05-20T13:21:52Z</time>
      </trkpt>
      <trkpt lat="43.61059" lon="3.00709">
        <ele>795.7</ele>
        <time>2026-05-20T13:21:57Z</time>
      </trkpt>
      <trkpt lat="43.61059" lon="3.00709">
        <ele>795.7</ele>
        <time>2026-05-20T13:22:02Z</time>
      </trkpt>
      <trkpt lat="43.61059" lon="3.00709">
        <ele>795.7</ele>
        <time>2026-05-20T13:22:07Z</time>
      </trkpt>
      <trkpt lat="43.61059" lon="3.00709">
        <ele>795.7</ele>
        <time>2026-05-20T13:22:12Z</time>
      </trkpt>
      <trkpt lat="43.61059" lon="3.00709">
        <ele>795.7</ele>
        <time>2026-05-20T13:22:17Z</time>
      </trkpt>
      <trkpt lat="43.61059" lon="3.00709">
        <ele>795.7</ele>
        <time>2026-05-20T13:22:22Z</time>
      </trkpt>
      <trkpt lat="43.61059" lon="3.00709">
        <ele>795.7</ele>
        <time>2026-05-20T13:22:27Z</time>
      </trkpt>
      <trkpt lat="43.61059" lon="3.00709">
        <ele>795.7</ele>
        <time>2026-05-20T13:22:32Z</time>
      </trkpt>
      <trkpt lat="43.61059" lon="3.00709">
        <ele>795.7</ele>
        <time>2026-05-20T13:22:37Z</time>
      </trkpt>
      <trkpt lat="43.61059" lon="3.00709">
        <ele>795.7</ele>
        <time>2026-05-20T13:22:42Z</time>
      </trkpt>
      <trkpt lat="43.61059" lon="3.00709">
        <ele>795.7</ele>
        <time>2026-05-20T13:22:47Z</time>
      </trkpt>
      <trkpt lat="43.61059" lon="3.00709">
        <ele>795.7</ele>
        <time>2026-05-20T13:22:52Z</time>
      </trkpt>
      <trkpt lat="43.61059" lon="3.00709">
        <ele>795.7</ele>
        <time>2026-05-20T13:22:57Z</time>
      </trkpt>
      <trkpt lat="43.61059" lon="3.00709">
        <ele>795.7</ele>
        <time>2026-05-20T13:23:02Z</time>
      </trkpt>
      <trkpt lat="43.61059" lon="3.00709">
        <ele>795.7</ele>
        <time>2026-05-20T13:23:07Z</time>
      </trkpt>
      <trkpt lat="43.61059" lon="3.00709">
        <ele>795.7</ele>
        <time>2026-05-20T13:23:12Z</time>
      </trkpt>
      <trkpt lat="43.61059" lon="3.00709">
        <ele>795.7</ele>
        <time>2026-05-20T13:23:17Z</time>
      </trkpt>
      <trkpt lat="43.61059" lon="3.00709">
        <ele>795.7</ele>
        <time>2026-05-20T13:23:22Z</time>
      </trkpt>
      <trkpt lat="43.61059" lon="3.00709">
        <ele>795.7</ele>
        <time>2026-05-20T13:23:27Z</time>
      </trkpt>
      <trkpt lat="43.61059" lon="3.00709">
        <ele>795.7</ele>
        <time>2026-05-20T13:23:32Z</time>
      </trkpt>
      <trkpt lat="43.61059" lon="3.00709">
        <ele>795.7</ele>
        <time>2026-05-20T13:23:37Z</time>
      </trkpt>
      <trkpt lat="43.61059" lon="3.00709">
        <ele>795.7</ele>
        <time>2026-05-20T13:23:42Z</time>
      </trkpt>
      <trkpt lat="43.61059" lon="3.00709">
        <ele>795.7</ele>
        <time>2026-05-20T13:23:47Z</time>
      </trkpt>
      <trkpt lat="43.61059" lon="3.00709">
        <ele>795.7</ele>
        <time>2026-05-20T13:23:52Z</time>
      </trkpt>
      <trkpt lat="43.61059" lon="3.00709">
        <ele>795.7</ele>
        <time>2026-05-20T13:23:57Z</time>
      </trkpt>
      <trkpt lat="43.61059" lon="3.00709">
        <ele>795.7</ele>
        <time>2026-05-20T13:24:02Z</time>
      </trkpt>
      <trkpt lat="43.61059" lon="3.00709">
        <ele>795.7</ele>
        <time>2026-05-20T13:24:07Z</time>
      </trkpt>
      <trkpt lat="43.61059" lon="3.00709">
        <ele>795.7</ele>
        <time>2026-05-20T13:24:12Z</time>
      </trkpt>
      <trkpt lat="43.61059" lon="3.00709">
        <ele>795.7</ele>
        <time>2026-05-20T13:24:17Z</time>
      </trkpt>
      <trkpt lat="43.61059" lon="3.00709">
        <ele>795.7</ele>
        <time>2026-05-20T13:24:22Z</time>
      </trkpt>
      <trkpt lat="43.61059" lon="3.00709">
        <ele>795.7</ele>
        <time>2026-05-20T13:24:27Z</time>
      </trkpt>
      <trkpt lat="43.61059" lon="3.00709">
        <ele>795.7</ele>
        <time>2026-05-20T13:24:32Z</time>
      </trkpt>
      <trkpt lat="43.61059" lon="3.00709">
        <ele>795.7</ele>
        <time>2026-05-20T13:24:37Z</time>
      </trkpt>
      <trkpt lat="43.61059" lon="3.00709">
        <ele>795.7</ele>
        <time>2026-05-20T13:24:42Z</time>
      </trkpt>
      <trkpt lat="43.61059" lon="3.00709">
        <ele>795.7</ele>
        <time>2026-05-20T13:24:47Z</time>
      </trkpt>
      <trkpt lat="43.61059" lon="3.00709">
        <ele>795.7</ele>
        <time>2026-05-20T13:24:52Z</time>
      </trkpt>
      <trkpt lat="43.61059" lon="3.00709">
        <ele>795.7</ele>
        <time>2026-05-20T13:24:57Z</time>
      </trkpt>
      <trkpt lat="43.61059" lon="3.00709">
        <ele>795.7</ele>
        <time>2026-05-20T13:25:02Z</time>
      </trkpt>
      <trkpt lat="43.61059" lon="3.00709">
        <ele>795.7</ele>
        <time>2026-05-20T13:25:07Z</time>
      </trkpt>
      <trkpt lat="43.61059" lon="3.00709">
        <ele>795.7</ele>
        <time>2026-05-20T13:25:12Z</time>
      </trkpt>
      <trkpt lat="43.61059" lon="3.00709">
        <ele>795.7</ele>
        <time>2026-05-20T13:25:17Z</time>
      </trkpt>
      <trkpt lat="43.61059" lon="3.00709">
        <ele>795.7</ele>
        <time>2026-05-20T13:25:22Z</time>
      </trkpt>
      <trkpt lat="43.61059" lon="3.00709">
        <ele>795.7</ele>
        <time>2026-05-20T13:25:27Z</time>
      </trkpt>
      <trkpt lat="43.61059" lon="3.00709">
        <ele>795.7</ele>
        <time>2026-05-20T13:25:32Z</time>
      </trkpt>
      <trkpt lat="43.61059" lon="3.00709">
        <ele>795.7</ele>
        <time>2026-05-20T13:25:37Z</time>
      </trkpt>
      <trkpt lat="43.61059" lon="3.00709">
        <ele>795.7</ele>
        <time>2026-05-20T13:25:42Z</time>
      </trkpt>
      <trkpt lat="43.61059" lon="3.00709">
        <ele>795.7</ele>
        <time>2026-05-20T13:25:47Z</time>
      </trkpt>
      <trkpt lat="43.61059" lon="3.00709">
        <ele>795.7</ele>
        <time>2026-05-20T13:25:52Z</time>
      </trkpt>
      <trkpt lat="43.61059" lon="3.00709">
        <ele>795.7</ele>
        <time>2026-05-20T13:25:57Z</time>
      </trkpt>
      <trkpt lat="43.61059" lon="3.00709">
        <ele>795.7</ele>
        <time>2026-05-20T13:26:02Z</time>
      </trkpt>
      <trkpt lat="43.61059" lon="3.00709">
        <ele>795.7</ele>
        <time>2026-05-20T13:26:07Z</time>
      </trkpt>
      <trkpt lat="43.61059" lon="3.00709">
        <ele>795.7</ele>
        <time>2026-05-20T13:26:12Z</time>
      </trkpt>
      <trkpt lat="43.61059" lon="3.00709">
        <ele>795.7</ele>
        <time>2026-05-20T13:26:17Z</time>
      </trkpt>
      <trkpt lat="43.61059" lon="3.00709">
        <ele>795.7</ele>
        <time>2026-05-20T13:26:22Z</time>
      </trkpt>
      <trkpt lat="43.61059" lon="3.00709">
        <ele>795.7</ele>
        <time>2026-05-20T13:26:27Z</time>
      </trkpt>
      <trkpt lat="43.61059" lon="3.00709">
        <ele>795.7</ele>
        <time>2026-05-20T13:26:32Z</time>
      </trkpt>
      <trkpt lat="43.61059" lon="3.00709">
        <ele>795.7</ele>
        <time>2026-05-20T13:26:37Z</time>
      </trkpt>
      <trkpt lat="43.61059" lon="3.00709">
        <ele>795.7</ele>
        <time>2026-05-20T13:26:42Z</time>
      </trkpt>
      <trkpt lat="43.61059" lon="3.00709">
        <ele>795.7</ele>
        <time>2026-05-20T13:26:47Z</time>
      </trkpt>
      <trkpt lat="43.61059" lon="3.00709">
        <ele>795.7</ele>
        <time>2026-05-20T13:26:52Z</time>
      </trkpt>
      <trkpt lat="43.61059" lon="3.00709">
        <ele>795.7</ele>
        <time>2026-05-20T13:26:57Z</time>
      </trkpt>
      <trkpt lat="43.61059" lon="3.00709">
        <ele>795.7</ele>
        <time>2026-05-20T13:27:02Z</time>
      </trkpt>
      <trkpt lat="43.61059" lon="3.00709">
        <ele>795.7</ele>
        <time>2026-05-20T13:27:07Z</time>
      </trkpt>
      <trkpt lat="43.61059" lon="3.00709">
        <ele>795.7</ele>
        <time>2026-05-20T13:27:12Z</time>
      </trkpt>
      <trkpt lat="43.61059" lon="3.00709">
        <ele>795.7</ele>
        <time>2026-05-20T13:27:17Z</time>
      </trkpt>
      <trkpt lat="43.61059" lon="3.00709">
        <ele>795.7</ele>
        <time>2026-05-20T13:27:22Z</time>
      </trkpt>
      <trkpt lat="43.61059" lon="3.00709">
        <ele>795.7</ele>
        <time>2026-05-20T13:27:27Z</time>
      </trkpt>
      <trkpt lat="43.61059" lon="3.00709">
        <ele>795.7</ele>
        <time>2026-05-20T13:27:32Z</time>
      </trkpt>
      <trkpt lat="43.61059" lon="3.00709">
        <ele>795.7</ele>
        <time>2026-05-20T13:27:37Z</time>
      </trkpt>
      <trkpt lat="43.61059" lon="3.00709">
        <ele>795.7</ele>
        <time>2026-05-20T13:27:42Z</time>
      </trkpt>
      <trkpt lat="43.61059" lon="3.00709">
        <ele>795.7</ele>
        <time>2026-05-20T13:27:47Z</time>
      </trkpt>
      <trkpt lat="43.61059" lon="3.00709">
        <ele>795.7</ele>
        <time>2026-05-20T13:27:52Z</time>
      </trkpt>
      <trkpt lat="43.61059" lon="3.00709">
        <ele>795.7</ele>
        <time>2026-05-20T13:27:57Z</time>
      </trkpt>
      <trkpt lat="43.61059" lon="3.00709">
        <ele>795.7</ele>
        <time>2026-05-20T13:28:02Z</time>
      </trkpt>
      <trkpt lat="43.61059" lon="3.00709">
        <ele>795.7</ele>
        <time>2026-05-20T13:28:07Z</time>
      </trkpt>
      <trkpt lat="43.61059" lon="3.00709">
        <ele>795.7</ele>
        <time>2026-05-20T13:28:12Z</time>
      </trkpt>
      <trkpt lat="43.61059" lon="3.00709">
        <ele>795.7</ele>
        <time>2026-05-20T13:28:17Z</time>
      </trkpt>
      <trkpt lat="43.61059" lon="3.00709">
        <ele>795.7</ele>
        <time>2026-05-20T13:28:22Z</time>
      </trkpt>
      <trkpt lat="43.61059" lon="3.00709">
        <ele>795.7</ele>
        <time>2026-05-20T13:28:27Z</time>
      </trkpt>
      <trkpt lat="43.61059" lon="3.00709">
        <ele>795.7</ele>
        <time>2026-05-20T13:28:32Z</time>
      </trkpt>
      <trkpt lat="43.61059" lon="3.00709">
        <ele>795.7</ele>
        <time>2026-05-20T13:28:37Z</time>
      </trkpt>
      <trkpt lat="43.61059" lon="3.00709">
        <ele>795.7</ele>
        <time>2026-05-20T13:28:42Z</time>
      </trkpt>
      <trkpt lat="43.61059" lon="3.00709">
        <ele>795.7</ele>
        <time>2026-05-20T13:28:47Z</time>
      </trkpt>
      <trkpt lat="43.61059" lon="3.00709">
        <ele>795.7</ele>
        <time>2026-05-20T13:28:52Z</time>
      </trkpt>
      <trkpt lat="43.61059" lon="3.00709">
        <ele>795.7</ele>
        <time>2026-05-20T13:28:57Z</time>
      </trkpt>
      <trkpt lat="43.61059" lon="3.00709">
        <ele>795.7</ele>
        <time>2026-05-20T13:29:02Z</time>
      </trkpt>
      <trkpt lat="43.61059" lon="3.00709">
        <ele>795.7</ele>
        <time>2026-05-20T13:29:07Z</time>
      </trkpt>
      <trkpt lat="43.61059" lon="3.00709">
        <ele>795.7</ele>
        <time>2026-05-20T13:29:12Z</time>
      </trkpt>
      <trkpt lat="43.61059" lon="3.00709">
        <ele>795.7</ele>
        <time>2026-05-20T13:29:17Z</time>
      </trkpt>
      <trkpt lat="43.61059" lon="3.00709">
        <ele>795.7</ele>
        <time>2026-05-20T13:29:22Z</time>
      </trkpt>
      <trkpt lat="43.61059" lon="3.00709">
        <ele>795.7</ele>
        <time>2026-05-20T13:29:27Z</time>
      </trkpt>
      <trkpt lat="43.61059" lon="3.00709">
        <ele>795.7</ele>
        <time>2026-05-20T13:29:32Z</time>
      </trkpt>
      <trkpt lat="43.61059" lon="3.00709">
        <ele>795.7</ele>
        <time>2026-05-20T13:29:37Z</time>
      </trkpt>
      <trkpt lat="43.61059" lon="3.00709">
        <ele>795.7</ele>
        <time>2026-05-20T13:29:42Z</time>
      </trkpt>
      <trkpt lat="43.61059" lon="3.00709">
        <ele>795.7</ele>
        <time>2026-05-20T13:29:47Z</time>
      </trkpt>
      <trkpt lat="43.61059" lon="3.00709">
        <ele>795.7</ele>
        <time>2026-05-20T13:29:52Z</time>
      </trkpt>
      <trkpt lat="43.61059" lon="3.00709">
        <ele>795.7</ele>
        <time>2026-05-20T13:29:57Z</time>
      </trkpt>
      <trkpt lat="43.61059" lon="3.00709">
        <ele>795.7</ele>
        <time>2026-05-20T13:30:02Z</time>
      </trkpt>
      <trkpt lat="43.61059" lon="3.00709">
        <ele>795.7</ele>
        <time>2026-05-20T13:30:07Z</time>
      </trkpt>
      <trkpt lat="43.61059" lon="3.00709">
        <ele>795.7</ele>
        <time>2026-05-20T13:30:12Z</time>
      </trkpt>
      <trkpt lat="43.61059" lon="3.00709">
        <ele>795.7</ele>
        <time>2026-05-20T13:30:17Z</time>
      </trkpt>
      <trkpt lat="43.61059" lon="3.00709">
        <ele>795.7</ele>
        <time>2026-05-20T13:30:22Z</time>
      </trkpt>
      <trkpt lat="43.6106" lon="3.00697">
        <ele>799.8</ele>
        <time>2026-05-20T13:30:27Z</time>
      </trkpt>
      <trkpt lat="43.61059" lon="3.00696">
        <ele>800</ele>
        <time>2026-05-20T13:30:32Z</time>
      </trkpt>
      <trkpt lat="43.61059" lon="3.00696">
        <ele>800</ele>
        <time>2026-05-20T13:30:37Z</time>
      </trkpt>
      <trkpt lat="43.61059" lon="3.00696">
        <ele>800</ele>
        <time>2026-05-20T13:30:42Z</time>
      </trkpt>
      <trkpt lat="43.61059" lon="3.00696">
        <ele>800</ele>
        <time>2026-05-20T13:30:47Z</time>
      </trkpt>
      <trkpt lat="43.61059" lon="3.00696">
        <ele>800</ele>
        <time>2026-05-20T13:30:52Z</time>
      </trkpt>
      <trkpt lat="43.61059" lon="3.00696">
        <ele>800</ele>
        <time>2026-05-20T13:30:57Z</time>
      </trkpt>
      <trkpt lat="43.61068" lon="3.00689">
        <ele>803.3</ele>
        <time>2026-05-20T13:31:02Z</time>
      </trkpt>
      <trkpt lat="43.61071" lon="3.00686">
        <ele>804.6</ele>
        <time>2026-05-20T13:31:07Z</time>
      </trkpt>
      <trkpt lat="43.61073" lon="3.00683">
        <ele>805.8</ele>
        <time>2026-05-20T13:31:12Z</time>
      </trkpt>
      <trkpt lat="43.61075" lon="3.00681">
        <ele>806.6</ele>
        <time>2026-05-20T13:31:17Z</time>
      </trkpt>
      <trkpt lat="43.61077" lon="3.00679">
        <ele>807.5</ele>
        <time>2026-05-20T13:31:22Z</time>
      </trkpt>
      <trkpt lat="43.61079" lon="3.00677">
        <ele>808.3</ele>
        <time>2026-05-20T13:31:27Z</time>
      </trkpt>
      <trkpt lat="43.61081" lon="3.00674">
        <ele>809.5</ele>
        <time>2026-05-20T13:31:32Z</time>
      </trkpt>
      <trkpt lat="43.61082" lon="3.00671">
        <ele>810.5</ele>
        <time>2026-05-20T13:31:37Z</time>
      </trkpt>
      <trkpt lat="43.61083" lon="3.00669">
        <ele>811.2</ele>
        <time>2026-05-20T13:31:42Z</time>
      </trkpt>
      <trkpt lat="43.61083" lon="3.00666">
        <ele>812.2</ele>
        <time>2026-05-20T13:31:47Z</time>
      </trkpt>
      <trkpt lat="43.61085" lon="3.00664">
        <ele>813.2</ele>
        <time>2026-05-20T13:31:52Z</time>
      </trkpt>
      <trkpt lat="43.61085" lon="3.00661">
        <ele>814.5</ele>
        <time>2026-05-20T13:31:57Z</time>
      </trkpt>
      <trkpt lat="43.61085" lon="3.00659">
        <ele>815.3</ele>
        <time>2026-05-20T13:32:02Z</time>
      </trkpt>
      <trkpt lat="43.61085" lon="3.00659">
        <ele>815.3</ele>
        <time>2026-05-20T13:32:07Z</time>
      </trkpt>
      <trkpt lat="43.61085" lon="3.00659">
        <ele>815.3</ele>
        <time>2026-05-20T13:32:12Z</time>
      </trkpt>
      <trkpt lat="43.61085" lon="3.00659">
        <ele>815.3</ele>
        <time>2026-05-20T13:32:17Z</time>
      </trkpt>
      <trkpt lat="43.61085" lon="3.00659">
        <ele>815.3</ele>
        <time>2026-05-20T13:32:22Z</time>
      </trkpt>
      <trkpt lat="43.61085" lon="3.00659">
        <ele>815.3</ele>
        <time>2026-05-20T13:32:27Z</time>
      </trkpt>
      <trkpt lat="43.61085" lon="3.00646">
        <ele>820.8</ele>
        <time>2026-05-20T13:32:32Z</time>
      </trkpt>
      <trkpt lat="43.61084" lon="3.00644">
        <ele>821.6</ele>
        <time>2026-05-20T13:32:37Z</time>
      </trkpt>
      <trkpt lat="43.61083" lon="3.0064">
        <ele>823.2</ele>
        <time>2026-05-20T13:32:42Z</time>
      </trkpt>
      <trkpt lat="43.61081" lon="3.00638">
        <ele>823.9</ele>
        <time>2026-05-20T13:32:47Z</time>
      </trkpt>
      <trkpt lat="43.6108" lon="3.00637">
        <ele>824.2</ele>
        <time>2026-05-20T13:32:52Z</time>
      </trkpt>
      <trkpt lat="43.6108" lon="3.00633">
        <ele>825.9</ele>
        <time>2026-05-20T13:32:57Z</time>
      </trkpt>
      <trkpt lat="43.61078" lon="3.0063">
        <ele>827</ele>
        <time>2026-05-20T13:33:02Z</time>
      </trkpt>
      <trkpt lat="43.61076" lon="3.00628">
        <ele>827.7</ele>
        <time>2026-05-20T13:33:07Z</time>
      </trkpt>
      <trkpt lat="43.61075" lon="3.00626">
        <ele>828.5</ele>
        <time>2026-05-20T13:33:12Z</time>
      </trkpt>
      <trkpt lat="43.61075" lon="3.00625">
        <ele>828.9</ele>
        <time>2026-05-20T13:33:17Z</time>
      </trkpt>
      <trkpt lat="43.61073" lon="3.00622">
        <ele>830</ele>
        <time>2026-05-20T13:33:22Z</time>
      </trkpt>
      <trkpt lat="43.61071" lon="3.00621">
        <ele>830.3</ele>
        <time>2026-05-20T13:33:27Z</time>
      </trkpt>
      <trkpt lat="43.61069" lon="3.0062">
        <ele>830.6</ele>
        <time>2026-05-20T13:33:32Z</time>
      </trkpt>
      <trkpt lat="43.61065" lon="3.00622">
        <ele>829.5</ele>
        <time>2026-05-20T13:33:37Z</time>
      </trkpt>
      <trkpt lat="43.61063" lon="3.0062">
        <ele>830.2</ele>
        <time>2026-05-20T13:33:42Z</time>
      </trkpt>
      <trkpt lat="43.61061" lon="3.00619">
        <ele>830.5</ele>
        <time>2026-05-20T13:33:47Z</time>
      </trkpt>
      <trkpt lat="43.61059" lon="3.00617">
        <ele>831.2</ele>
        <time>2026-05-20T13:33:52Z</time>
      </trkpt>
      <trkpt lat="43.61059" lon="3.00616">
        <ele>831.7</ele>
        <time>2026-05-20T13:33:57Z</time>
      </trkpt>
      <trkpt lat="43.61059" lon="3.00616">
        <ele>831.7</ele>
        <time>2026-05-20T13:34:02Z</time>
      </trkpt>
      <trkpt lat="43.61059" lon="3.00616">
        <ele>831.7</ele>
        <time>2026-05-20T13:34:07Z</time>
      </trkpt>
      <trkpt lat="43.61057" lon="3.00607">
        <ele>835.4</ele>
        <time>2026-05-20T13:34:12Z</time>
      </trkpt>
      <trkpt lat="43.61057" lon="3.00606">
        <ele>835.9</ele>
        <time>2026-05-20T13:34:17Z</time>
      </trkpt>
      <trkpt lat="43.61058" lon="3.00602">
        <ele>837.7</ele>
        <time>2026-05-20T13:34:22Z</time>
      </trkpt>
      <trkpt lat="43.6106" lon="3.00599">
        <ele>839.1</ele>
        <time>2026-05-20T13:34:27Z</time>
      </trkpt>
      <trkpt lat="43.61062" lon="3.00597">
        <ele>840.1</ele>
        <time>2026-05-20T13:34:32Z</time>
      </trkpt>
      <trkpt lat="43.61062" lon="3.00595">
        <ele>840.9</ele>
        <time>2026-05-20T13:34:37Z</time>
      </trkpt>
      <trkpt lat="43.61062" lon="3.00594">
        <ele>841.4</ele>
        <time>2026-05-20T13:34:42Z</time>
      </trkpt>
      <trkpt lat="43.61062" lon="3.00594">
        <ele>841.4</ele>
        <time>2026-05-20T13:34:47Z</time>
      </trkpt>
      <trkpt lat="43.61062" lon="3.00594">
        <ele>841.4</ele>
        <time>2026-05-20T13:34:52Z</time>
      </trkpt>
      <trkpt lat="43.61056" lon="3.00589">
        <ele>843.2</ele>
        <time>2026-05-20T13:34:57Z</time>
      </trkpt>
      <trkpt lat="43.61056" lon="3.00589">
        <ele>843.2</ele>
        <time>2026-05-20T13:35:02Z</time>
      </trkpt>
      <trkpt lat="43.61056" lon="3.00589">
        <ele>843.2</ele>
        <time>2026-05-20T13:35:07Z</time>
      </trkpt>
      <trkpt lat="43.61056" lon="3.00589">
        <ele>843.2</ele>
        <time>2026-05-20T13:35:12Z</time>
      </trkpt>
      <trkpt lat="43.61056" lon="3.00589">
        <ele>843.2</ele>
        <time>2026-05-20T13:35:17Z</time>
      </trkpt>
      <trkpt lat="43.61056" lon="3.00589">
        <ele>843.2</ele>
        <time>2026-05-20T13:35:22Z</time>
      </trkpt>
      <trkpt lat="43.61056" lon="3.00589">
        <ele>843.2</ele>
        <time>2026-05-20T13:35:27Z</time>
      </trkpt>
      <trkpt lat="43.61056" lon="3.00589">
        <ele>843.2</ele>
        <time>2026-05-20T13:35:32Z</time>
      </trkpt>
      <trkpt lat="43.61056" lon="3.00589">
        <ele>843.2</ele>
        <time>2026-05-20T13:35:37Z</time>
      </trkpt>
      <trkpt lat="43.61056" lon="3.00589">
        <ele>843.2</ele>
        <time>2026-05-20T13:35:42Z</time>
      </trkpt>
      <trkpt lat="43.61056" lon="3.00589">
        <ele>843.2</ele>
        <time>2026-05-20T13:35:47Z</time>
      </trkpt>
      <trkpt lat="43.61054" lon="3.00576">
        <ele>848.4</ele>
        <time>2026-05-20T13:35:52Z</time>
      </trkpt>
      <trkpt lat="43.61054" lon="3.00576">
        <ele>848.4</ele>
        <time>2026-05-20T13:35:57Z</time>
      </trkpt>
      <trkpt lat="43.61054" lon="3.00576">
        <ele>848.4</ele>
        <time>2026-05-20T13:36:02Z</time>
      </trkpt>
      <trkpt lat="43.61054" lon="3.00576">
        <ele>848.4</ele>
        <time>2026-05-20T13:36:07Z</time>
      </trkpt>
      <trkpt lat="43.61054" lon="3.00576">
        <ele>848.4</ele>
        <time>2026-05-20T13:36:12Z</time>
      </trkpt>
      <trkpt lat="43.61052" lon="3.00563">
        <ele>853.2</ele>
        <time>2026-05-20T13:36:17Z</time>
      </trkpt>
      <trkpt lat="43.61052" lon="3.00562">
        <ele>853.6</ele>
        <time>2026-05-20T13:36:22Z</time>
      </trkpt>
      <trkpt lat="43.61052" lon="3.00562">
        <ele>853.6</ele>
        <time>2026-05-20T13:36:27Z</time>
      </trkpt>
      <trkpt lat="43.61052" lon="3.00562">
        <ele>853.6</ele>
        <time>2026-05-20T13:36:32Z</time>
      </trkpt>
      <trkpt lat="43.61052" lon="3.00562">
        <ele>853.6</ele>
        <time>2026-05-20T13:36:37Z</time>
      </trkpt>
      <trkpt lat="43.61052" lon="3.00562">
        <ele>853.6</ele>
        <time>2026-05-20T13:36:42Z</time>
      </trkpt>
      <trkpt lat="43.61052" lon="3.00562">
        <ele>853.6</ele>
        <time>2026-05-20T13:36:47Z</time>
      </trkpt>
      <trkpt lat="43.61052" lon="3.00562">
        <ele>853.6</ele>
        <time>2026-05-20T13:36:52Z</time>
      </trkpt>
      <trkpt lat="43.61048" lon="3.0055">
        <ele>857.9</ele>
        <time>2026-05-20T13:36:57Z</time>
      </trkpt>
      <trkpt lat="43.61049" lon="3.00548">
        <ele>858.7</ele>
        <time>2026-05-20T13:37:02Z</time>
      </trkpt>
      <trkpt lat="43.61047" lon="3.00547">
        <ele>859</ele>
        <time>2026-05-20T13:37:07Z</time>
      </trkpt>
      <trkpt lat="43.61045" lon="3.00545">
        <ele>859.7</ele>
        <time>2026-05-20T13:37:12Z</time>
      </trkpt>
      <trkpt lat="43.61045" lon="3.00545">
        <ele>859.7</ele>
        <time>2026-05-20T13:37:17Z</time>
      </trkpt>
      <trkpt lat="43.61045" lon="3.00545">
        <ele>859.7</ele>
        <time>2026-05-20T13:37:22Z</time>
      </trkpt>
      <trkpt lat="43.61045" lon="3.00545">
        <ele>859.7</ele>
        <time>2026-05-20T13:37:27Z</time>
      </trkpt>
      <trkpt lat="43.61045" lon="3.00545">
        <ele>859.7</ele>
        <time>2026-05-20T13:37:32Z</time>
      </trkpt>
      <trkpt lat="43.61045" lon="3.00545">
        <ele>859.7</ele>
        <time>2026-05-20T13:37:37Z</time>
      </trkpt>
      <trkpt lat="43.61045" lon="3.00545">
        <ele>859.7</ele>
        <time>2026-05-20T13:37:42Z</time>
      </trkpt>
      <trkpt lat="43.61039" lon="3.00536">
        <ele>862.7</ele>
        <time>2026-05-20T13:37:47Z</time>
      </trkpt>
      <trkpt lat="43.61037" lon="3.00535">
        <ele>863</ele>
        <time>2026-05-20T13:37:52Z</time>
      </trkpt>
      <trkpt lat="43.61035" lon="3.00537">
        <ele>862.1</ele>
        <time>2026-05-20T13:37:57Z</time>
      </trkpt>
      <trkpt lat="43.61035" lon="3.00537">
        <ele>862.1</ele>
        <time>2026-05-20T13:38:02Z</time>
      </trkpt>
      <trkpt lat="43.61035" lon="3.00537">
        <ele>862.1</ele>
        <time>2026-05-20T13:38:07Z</time>
      </trkpt>
      <trkpt lat="43.61035" lon="3.00537">
        <ele>862.1</ele>
        <time>2026-05-20T13:38:12Z</time>
      </trkpt>
      <trkpt lat="43.61035" lon="3.00537">
        <ele>862.1</ele>
        <time>2026-05-20T13:38:17Z</time>
      </trkpt>
      <trkpt lat="43.61035" lon="3.00537">
        <ele>862.1</ele>
        <time>2026-05-20T13:38:22Z</time>
      </trkpt>
      <trkpt lat="43.61035" lon="3.00537">
        <ele>862.1</ele>
        <time>2026-05-20T13:38:27Z</time>
      </trkpt>
      <trkpt lat="43.61035" lon="3.00537">
        <ele>862.1</ele>
        <time>2026-05-20T13:38:32Z</time>
      </trkpt>
      <trkpt lat="43.61035" lon="3.00537">
        <ele>862.1</ele>
        <time>2026-05-20T13:38:37Z</time>
      </trkpt>
      <trkpt lat="43.61035" lon="3.00537">
        <ele>862.1</ele>
        <time>2026-05-20T13:38:42Z</time>
      </trkpt>
      <trkpt lat="43.61035" lon="3.00537">
        <ele>862.1</ele>
        <time>2026-05-20T13:38:47Z</time>
      </trkpt>
      <trkpt lat="43.61034" lon="3.00528">
        <ele>865.5</ele>
        <time>2026-05-20T13:38:52Z</time>
      </trkpt>
      <trkpt lat="43.61034" lon="3.00526">
        <ele>866.2</ele>
        <time>2026-05-20T13:38:57Z</time>
      </trkpt>
      <trkpt lat="43.61033" lon="3.00524">
        <ele>866.9</ele>
        <time>2026-05-20T13:39:02Z</time>
      </trkpt>
      <trkpt lat="43.61032" lon="3.00521">
        <ele>868</ele>
        <time>2026-05-20T13:39:07Z</time>
      </trkpt>
      <trkpt lat="43.61032" lon="3.00518">
        <ele>869.1</ele>
        <time>2026-05-20T13:39:12Z</time>
      </trkpt>
      <trkpt lat="43.61031" lon="3.00517">
        <ele>869.5</ele>
        <time>2026-05-20T13:39:17Z</time>
      </trkpt>
      <trkpt lat="43.61029" lon="3.00515">
        <ele>870.1</ele>
        <time>2026-05-20T13:39:22Z</time>
      </trkpt>
      <trkpt lat="43.61028" lon="3.00514">
        <ele>870.4</ele>
        <time>2026-05-20T13:39:27Z</time>
      </trkpt>
      <trkpt lat="43.61024" lon="3.00513">
        <ele>870.6</ele>
        <time>2026-05-20T13:39:32Z</time>
      </trkpt>
      <trkpt lat="43.61022" lon="3.00511">
        <ele>871.2</ele>
        <time>2026-05-20T13:39:37Z</time>
      </trkpt>
      <trkpt lat="43.61019" lon="3.00508">
        <ele>872.1</ele>
        <time>2026-05-20T13:39:42Z</time>
      </trkpt>
      <trkpt lat="43.61017" lon="3.00505">
        <ele>873.1</ele>
        <time>2026-05-20T13:39:47Z</time>
      </trkpt>
      <trkpt lat="43.61016" lon="3.00504">
        <ele>873.5</ele>
        <time>2026-05-20T13:39:52Z</time>
      </trkpt>
      <trkpt lat="43.61014" lon="3.00503">
        <ele>873.7</ele>
        <time>2026-05-20T13:39:57Z</time>
      </trkpt>
      <trkpt lat="43.61012" lon="3.00503">
        <ele>873.6</ele>
        <time>2026-05-20T13:40:02Z</time>
      </trkpt>
      <trkpt lat="43.6101" lon="3.00501">
        <ele>874.2</ele>
        <time>2026-05-20T13:40:07Z</time>
      </trkpt>
      <trkpt lat="43.61008" lon="3.00499">
        <ele>874.8</ele>
        <time>2026-05-20T13:40:12Z</time>
      </trkpt>
      <trkpt lat="43.61008" lon="3.00499">
        <ele>874.8</ele>
        <time>2026-05-20T13:40:17Z</time>
      </trkpt>
      <trkpt lat="43.61008" lon="3.00499">
        <ele>874.8</ele>
        <time>2026-05-20T13:40:22Z</time>
      </trkpt>
      <trkpt lat="43.61008" lon="3.00499">
        <ele>874.8</ele>
        <time>2026-05-20T13:40:27Z</time>
      </trkpt>
      <trkpt lat="43.61008" lon="3.00499">
        <ele>874.8</ele>
        <time>2026-05-20T13:40:32Z</time>
      </trkpt>
      <trkpt lat="43.61008" lon="3.00499">
        <ele>874.8</ele>
        <time>2026-05-20T13:40:37Z</time>
      </trkpt>
      <trkpt lat="43.61008" lon="3.00499">
        <ele>874.8</ele>
        <time>2026-05-20T13:40:42Z</time>
      </trkpt>
      <trkpt lat="43.61008" lon="3.00499">
        <ele>874.8</ele>
        <time>2026-05-20T13:40:47Z</time>
      </trkpt>
      <trkpt lat="43.61002" lon="3.00492">
        <ele>877.1</ele>
        <time>2026-05-20T13:40:52Z</time>
      </trkpt>
      <trkpt lat="43.61" lon="3.0049">
        <ele>877.7</ele>
        <time>2026-05-20T13:40:57Z</time>
      </trkpt>
      <trkpt lat="43.60999" lon="3.0049">
        <ele>877.6</ele>
        <time>2026-05-20T13:41:02Z</time>
      </trkpt>
      <trkpt lat="43.60999" lon="3.00489">
        <ele>877.9</ele>
        <time>2026-05-20T13:41:07Z</time>
      </trkpt>
      <trkpt lat="43.60999" lon="3.00489">
        <ele>877.9</ele>
        <time>2026-05-20T13:41:12Z</time>
      </trkpt>
      <trkpt lat="43.60999" lon="3.00489">
        <ele>877.9</ele>
        <time>2026-05-20T13:41:17Z</time>
      </trkpt>
      <trkpt lat="43.60999" lon="3.00489">
        <ele>877.9</ele>
        <time>2026-05-20T13:41:22Z</time>
      </trkpt>
      <trkpt lat="43.60999" lon="3.00489">
        <ele>877.9</ele>
        <time>2026-05-20T13:41:27Z</time>
      </trkpt>
      <trkpt lat="43.60999" lon="3.00489">
        <ele>877.9</ele>
        <time>2026-05-20T13:41:32Z</time>
      </trkpt>
      <trkpt lat="43.60996" lon="3.00475">
        <ele>882.7</ele>
        <time>2026-05-20T13:41:37Z</time>
      </trkpt>
      <trkpt lat="43.60996" lon="3.00475">
        <ele>882.7</ele>
        <time>2026-05-20T13:41:42Z</time>
      </trkpt>
      <trkpt lat="43.60996" lon="3.00475">
        <ele>882.7</ele>
        <time>2026-05-20T13:41:47Z</time>
      </trkpt>
      <trkpt lat="43.60993" lon="3.00468">
        <ele>884.9</ele>
        <time>2026-05-20T13:41:52Z</time>
      </trkpt>
      <trkpt lat="43.60991" lon="3.00465">
        <ele>885.8</ele>
        <time>2026-05-20T13:41:57Z</time>
      </trkpt>
      <trkpt lat="43.60989" lon="3.00464">
        <ele>885.9</ele>
        <time>2026-05-20T13:42:02Z</time>
      </trkpt>
      <trkpt lat="43.60987" lon="3.00463">
        <ele>886</ele>
        <time>2026-05-20T13:42:07Z</time>
      </trkpt>
      <trkpt lat="43.60985" lon="3.00462">
        <ele>886.1</ele>
        <time>2026-05-20T13:42:12Z</time>
      </trkpt>
      <trkpt lat="43.60982" lon="3.00461">
        <ele>886.1</ele>
        <time>2026-05-20T13:42:17Z</time>
      </trkpt>
      <trkpt lat="43.6098" lon="3.00459">
        <ele>886.6</ele>
        <time>2026-05-20T13:42:22Z</time>
      </trkpt>
      <trkpt lat="43.60979" lon="3.00456">
        <ele>887.7</ele>
        <time>2026-05-20T13:42:27Z</time>
      </trkpt>
      <trkpt lat="43.60977" lon="3.00455">
        <ele>887.8</ele>
        <time>2026-05-20T13:42:32Z</time>
      </trkpt>
      <trkpt lat="43.60975" lon="3.00452">
        <ele>888.7</ele>
        <time>2026-05-20T13:42:37Z</time>
      </trkpt>
      <trkpt lat="43.60974" lon="3.0045">
        <ele>889.4</ele>
        <time>2026-05-20T13:42:42Z</time>
      </trkpt>
      <trkpt lat="43.60972" lon="3.00448">
        <ele>890</ele>
        <time>2026-05-20T13:42:47Z</time>
      </trkpt>
      <trkpt lat="43.60971" lon="3.00446">
        <ele>890.7</ele>
        <time>2026-05-20T13:42:52Z</time>
      </trkpt>
      <trkpt lat="43.60969" lon="3.00444">
        <ele>891.3</ele>
        <time>2026-05-20T13:42:57Z</time>
      </trkpt>
      <trkpt lat="43.60967" lon="3.00442">
        <ele>891.8</ele>
        <time>2026-05-20T13:43:02Z</time>
      </trkpt>
      <trkpt lat="43.60967" lon="3.00439">
        <ele>893.1</ele>
        <time>2026-05-20T13:43:07Z</time>
      </trkpt>
      <trkpt lat="43.60966" lon="3.00437">
        <ele>893.8</ele>
        <time>2026-05-20T13:43:12Z</time>
      </trkpt>
      <trkpt lat="43.60966" lon="3.00437">
        <ele>893.8</ele>
        <time>2026-05-20T13:43:17Z</time>
      </trkpt>
      <trkpt lat="43.60965" lon="3.00433">
        <ele>895.3</ele>
        <time>2026-05-20T13:43:22Z</time>
      </trkpt>
      <trkpt lat="43.60964" lon="3.0043">
        <ele>896.5</ele>
        <time>2026-05-20T13:43:27Z</time>
      </trkpt>
      <trkpt lat="43.60961" lon="3.00428">
        <ele>897</ele>
        <time>2026-05-20T13:43:32Z</time>
      </trkpt>
      <trkpt lat="43.6096" lon="3.00427">
        <ele>897.3</ele>
        <time>2026-05-20T13:43:37Z</time>
      </trkpt>
      <trkpt lat="43.6096" lon="3.00424">
        <ele>898.6</ele>
        <time>2026-05-20T13:43:42Z</time>
      </trkpt>
      <trkpt lat="43.6096" lon="3.00421">
        <ele>899.8</ele>
        <time>2026-05-20T13:43:47Z</time>
      </trkpt>
      <trkpt lat="43.6096" lon="3.00417">
        <ele>901.5</ele>
        <time>2026-05-20T13:43:52Z</time>
      </trkpt>
      <trkpt lat="43.6096" lon="3.00415">
        <ele>902.2</ele>
        <time>2026-05-20T13:43:57Z</time>
      </trkpt>
      <trkpt lat="43.60961" lon="3.00412">
        <ele>903.3</ele>
        <time>2026-05-20T13:44:02Z</time>
      </trkpt>
      <trkpt lat="43.60959" lon="3.00409">
        <ele>904.2</ele>
        <time>2026-05-20T13:44:07Z</time>
      </trkpt>
      <trkpt lat="43.60957" lon="3.00406">
        <ele>905.1</ele>
        <time>2026-05-20T13:44:12Z</time>
      </trkpt>
      <trkpt lat="43.60956" lon="3.00403">
        <ele>906.1</ele>
        <time>2026-05-20T13:44:17Z</time>
      </trkpt>
      <trkpt lat="43.60954" lon="3.00401">
        <ele>906.7</ele>
        <time>2026-05-20T13:44:22Z</time>
      </trkpt>
      <trkpt lat="43.60951" lon="3.00398">
        <ele>907.7</ele>
        <time>2026-05-20T13:44:27Z</time>
      </trkpt>
      <trkpt lat="43.6095" lon="3.00395">
        <ele>908.7</ele>
        <time>2026-05-20T13:44:32Z</time>
      </trkpt>
      <trkpt lat="43.60948" lon="3.00393">
        <ele>909.4</ele>
        <time>2026-05-20T13:44:37Z</time>
      </trkpt>
      <trkpt lat="43.60946" lon="3.0039">
        <ele>910.4</ele>
        <time>2026-05-20T13:44:42Z</time>
      </trkpt>
      <trkpt lat="43.60943" lon="3.00388">
        <ele>911.1</ele>
        <time>2026-05-20T13:44:47Z</time>
      </trkpt>
      <trkpt lat="43.60941" lon="3.00387">
        <ele>911.4</ele>
        <time>2026-05-20T13:44:52Z</time>
      </trkpt>
      <trkpt lat="43.60939" lon="3.00385">
        <ele>912.1</ele>
        <time>2026-05-20T13:44:57Z</time>
      </trkpt>
      <trkpt lat="43.60936" lon="3.00381">
        <ele>913.6</ele>
        <time>2026-05-20T13:45:02Z</time>
      </trkpt>
      <trkpt lat="43.60935" lon="3.00379">
        <ele>914.4</ele>
        <time>2026-05-20T13:45:07Z</time>
      </trkpt>
      <trkpt lat="43.60933" lon="3.00376">
        <ele>915.6</ele>
        <time>2026-05-20T13:45:12Z</time>
      </trkpt>
      <trkpt lat="43.60932" lon="3.00373">
        <ele>916.8</ele>
        <time>2026-05-20T13:45:17Z</time>
      </trkpt>
      <trkpt lat="43.60929" lon="3.00372">
        <ele>917.2</ele>
        <time>2026-05-20T13:45:22Z</time>
      </trkpt>
      <trkpt lat="43.60928" lon="3.00369">
        <ele>918.5</ele>
        <time>2026-05-20T13:45:27Z</time>
      </trkpt>
      <trkpt lat="43.60926" lon="3.00366">
        <ele>919.7</ele>
        <time>2026-05-20T13:45:32Z</time>
      </trkpt>
      <trkpt lat="43.60925" lon="3.00363">
        <ele>921</ele>
        <time>2026-05-20T13:45:37Z</time>
      </trkpt>
      <trkpt lat="43.60924" lon="3.00361">
        <ele>921.8</ele>
        <time>2026-05-20T13:45:42Z</time>
      </trkpt>
      <trkpt lat="43.60923" lon="3.00358">
        <ele>923.1</ele>
        <time>2026-05-20T13:45:47Z</time>
      </trkpt>
      <trkpt lat="43.60922" lon="3.00354">
        <ele>924.8</ele>
        <time>2026-05-20T13:45:52Z</time>
      </trkpt>
      <trkpt lat="43.60922" lon="3.00353">
        <ele>925.3</ele>
        <time>2026-05-20T13:45:57Z</time>
      </trkpt>
      <trkpt lat="43.60921" lon="3.00351">
        <ele>926.2</ele>
        <time>2026-05-20T13:46:02Z</time>
      </trkpt>
      <trkpt lat="43.60921" lon="3.00351">
        <ele>926.2</ele>
        <time>2026-05-20T13:46:07Z</time>
      </trkpt>
      <trkpt lat="43.60921" lon="3.00351">
        <ele>926.2</ele>
        <time>2026-05-20T13:46:12Z</time>
      </trkpt>
      <trkpt lat="43.60921" lon="3.00351">
        <ele>926.2</ele>
        <time>2026-05-20T13:46:17Z</time>
      </trkpt>
      <trkpt lat="43.60915" lon="3.00349">
        <ele>927.3</ele>
        <time>2026-05-20T13:46:22Z</time>
      </trkpt>
      <trkpt lat="43.60913" lon="3.00348">
        <ele>927.8</ele>
        <time>2026-05-20T13:46:27Z</time>
      </trkpt>
      <trkpt lat="43.60911" lon="3.00346">
        <ele>928.8</ele>
        <time>2026-05-20T13:46:32Z</time>
      </trkpt>
      <trkpt lat="43.6091" lon="3.00347">
        <ele>928.4</ele>
        <time>2026-05-20T13:46:37Z</time>
      </trkpt>
      <trkpt lat="43.6091" lon="3.00347">
        <ele>928.4</ele>
        <time>2026-05-20T13:46:42Z</time>
      </trkpt>
      <trkpt lat="43.6091" lon="3.00347">
        <ele>928.4</ele>
        <time>2026-05-20T13:46:47Z</time>
      </trkpt>
      <trkpt lat="43.60904" lon="3.00342">
        <ele>930.8</ele>
        <time>2026-05-20T13:46:52Z</time>
      </trkpt>
      <trkpt lat="43.60903" lon="3.00339">
        <ele>932.1</ele>
        <time>2026-05-20T13:46:57Z</time>
      </trkpt>
      <trkpt lat="43.60902" lon="3.00336">
        <ele>933.4</ele>
        <time>2026-05-20T13:47:02Z</time>
      </trkpt>
      <trkpt lat="43.609" lon="3.00334">
        <ele>934.3</ele>
        <time>2026-05-20T13:47:07Z</time>
      </trkpt>
      <trkpt lat="43.60899" lon="3.00332">
        <ele>934.9</ele>
        <time>2026-05-20T13:47:12Z</time>
      </trkpt>
      <trkpt lat="43.60898" lon="3.00329">
        <ele>935.7</ele>
        <time>2026-05-20T13:47:17Z</time>
      </trkpt>
      <trkpt lat="43.60897" lon="3.00327">
        <ele>936.2</ele>
        <time>2026-05-20T13:47:22Z</time>
      </trkpt>
      <trkpt lat="43.60897" lon="3.00327">
        <ele>936.2</ele>
        <time>2026-05-20T13:47:27Z</time>
      </trkpt>
      <trkpt lat="43.60897" lon="3.00327">
        <ele>936.2</ele>
        <time>2026-05-20T13:47:32Z</time>
      </trkpt>
      <trkpt lat="43.60897" lon="3.00327">
        <ele>936.2</ele>
        <time>2026-05-20T13:47:37Z</time>
      </trkpt>
      <trkpt lat="43.60894" lon="3.00321">
        <ele>937.7</ele>
        <time>2026-05-20T13:47:42Z</time>
      </trkpt>
      <trkpt lat="43.60894" lon="3.00318">
        <ele>938.4</ele>
        <time>2026-05-20T13:47:47Z</time>
      </trkpt>
      <trkpt lat="43.60893" lon="3.00316">
        <ele>938.9</ele>
        <time>2026-05-20T13:47:52Z</time>
      </trkpt>
      <trkpt lat="43.60894" lon="3.00314">
        <ele>939.3</ele>
        <time>2026-05-20T13:47:57Z</time>
      </trkpt>
      <trkpt lat="43.60893" lon="3.00311">
        <ele>940.1</ele>
        <time>2026-05-20T13:48:02Z</time>
      </trkpt>
      <trkpt lat="43.60893" lon="3.00309">
        <ele>940.5</ele>
        <time>2026-05-20T13:48:07Z</time>
      </trkpt>
      <trkpt lat="43.60892" lon="3.00307">
        <ele>941</ele>
        <time>2026-05-20T13:48:12Z</time>
      </trkpt>
      <trkpt lat="43.60892" lon="3.00306">
        <ele>941.3</ele>
        <time>2026-05-20T13:48:17Z</time>
      </trkpt>
      <trkpt lat="43.60892" lon="3.00306">
        <ele>941.3</ele>
        <time>2026-05-20T13:48:22Z</time>
      </trkpt>
      <trkpt lat="43.60892" lon="3.00306">
        <ele>941.3</ele>
        <time>2026-05-20T13:48:27Z</time>
      </trkpt>
      <trkpt lat="43.60892" lon="3.00306">
        <ele>941.3</ele>
        <time>2026-05-20T13:48:32Z</time>
      </trkpt>
      <trkpt lat="43.60892" lon="3.00306">
        <ele>941.3</ele>
        <time>2026-05-20T13:48:37Z</time>
      </trkpt>
      <trkpt lat="43.60885" lon="3.00299">
        <ele>943.3</ele>
        <time>2026-05-20T13:48:42Z</time>
      </trkpt>
      <trkpt lat="43.60882" lon="3.00298">
        <ele>943.8</ele>
        <time>2026-05-20T13:48:47Z</time>
      </trkpt>
      <trkpt lat="43.6088" lon="3.00294">
        <ele>944.9</ele>
        <time>2026-05-20T13:48:52Z</time>
      </trkpt>
      <trkpt lat="43.6088" lon="3.00294">
        <ele>944.9</ele>
        <time>2026-05-20T13:48:57Z</time>
      </trkpt>
      <trkpt lat="43.6088" lon="3.00293">
        <ele>945.1</ele>
        <time>2026-05-20T13:49:02Z</time>
      </trkpt>
      <trkpt lat="43.60876" lon="3.00289">
        <ele>946.3</ele>
        <time>2026-05-20T13:49:07Z</time>
      </trkpt>
      <trkpt lat="43.60875" lon="3.00286">
        <ele>947.1</ele>
        <time>2026-05-20T13:49:12Z</time>
      </trkpt>
      <trkpt lat="43.60873" lon="3.00285">
        <ele>947.5</ele>
        <time>2026-05-20T13:49:17Z</time>
      </trkpt>
      <trkpt lat="43.6087" lon="3.00285">
        <ele>947.7</ele>
        <time>2026-05-20T13:49:22Z</time>
      </trkpt>
      <trkpt lat="43.60868" lon="3.00285">
        <ele>947.9</ele>
        <time>2026-05-20T13:49:27Z</time>
      </trkpt>
      <trkpt lat="43.60865" lon="3.00286">
        <ele>947.8</ele>
        <time>2026-05-20T13:49:32Z</time>
      </trkpt>
      <trkpt lat="43.60865" lon="3.00286">
        <ele>947.8</ele>
        <time>2026-05-20T13:49:37Z</time>
      </trkpt>
      <trkpt lat="43.60865" lon="3.00286">
        <ele>947.8</ele>
        <time>2026-05-20T13:49:42Z</time>
      </trkpt>
      <trkpt lat="43.60865" lon="3.00286">
        <ele>947.8</ele>
        <time>2026-05-20T13:49:47Z</time>
      </trkpt>
      <trkpt lat="43.60865" lon="3.00286">
        <ele>947.8</ele>
        <time>2026-05-20T13:49:52Z</time>
      </trkpt>
      <trkpt lat="43.60865" lon="3.00286">
        <ele>947.8</ele>
        <time>2026-05-20T13:49:57Z</time>
      </trkpt>
      <trkpt lat="43.60861" lon="3.00284">
        <ele>948.6</ele>
        <time>2026-05-20T13:50:02Z</time>
      </trkpt>
      <trkpt lat="43.60859" lon="3.00283">
        <ele>949</ele>
        <time>2026-05-20T13:50:07Z</time>
      </trkpt>
      <trkpt lat="43.60857" lon="3.00281">
        <ele>949.7</ele>
        <time>2026-05-20T13:50:12Z</time>
      </trkpt>
      <trkpt lat="43.60854" lon="3.00281">
        <ele>949.9</ele>
        <time>2026-05-20T13:50:17Z</time>
      </trkpt>
      <trkpt lat="43.60852" lon="3.00278">
        <ele>950.9</ele>
        <time>2026-05-20T13:50:22Z</time>
      </trkpt>
      <trkpt lat="43.6085" lon="3.00277">
        <ele>951.3</ele>
        <time>2026-05-20T13:50:27Z</time>
      </trkpt>
      <trkpt lat="43.60847" lon="3.00277">
        <ele>951.5</ele>
        <time>2026-05-20T13:50:32Z</time>
      </trkpt>
      <trkpt lat="43.60845" lon="3.00275">
        <ele>952.2</ele>
        <time>2026-05-20T13:50:37Z</time>
      </trkpt>
      <trkpt lat="43.60844" lon="3.00272">
        <ele>953.1</ele>
        <time>2026-05-20T13:50:42Z</time>
      </trkpt>
      <trkpt lat="43.60843" lon="3.00269">
        <ele>954</ele>
        <time>2026-05-20T13:50:47Z</time>
      </trkpt>
      <trkpt lat="43.6084" lon="3.00268">
        <ele>954.5</ele>
        <time>2026-05-20T13:50:52Z</time>
      </trkpt>
      <trkpt lat="43.60837" lon="3.00268">
        <ele>954.7</ele>
        <time>2026-05-20T13:50:57Z</time>
      </trkpt>
      <trkpt lat="43.60835" lon="3.00267">
        <ele>955.2</ele>
        <time>2026-05-20T13:51:02Z</time>
      </trkpt>
      <trkpt lat="43.60834" lon="3.00264">
        <ele>956.1</ele>
        <time>2026-05-20T13:51:07Z</time>
      </trkpt>
      <trkpt lat="43.60833" lon="3.00263">
        <ele>956.4</ele>
        <time>2026-05-20T13:51:12Z</time>
      </trkpt>
      <trkpt lat="43.60833" lon="3.00262">
        <ele>956.7</ele>
        <time>2026-05-20T13:51:17Z</time>
      </trkpt>
      <trkpt lat="43.60833" lon="3.00262">
        <ele>956.7</ele>
        <time>2026-05-20T13:51:22Z</time>
      </trkpt>
      <trkpt lat="43.60833" lon="3.00256">
        <ele>958.3</ele>
        <time>2026-05-20T13:51:27Z</time>
      </trkpt>
      <trkpt lat="43.60833" lon="3.00255">
        <ele>958.6</ele>
        <time>2026-05-20T13:51:32Z</time>
      </trkpt>
      <trkpt lat="43.60832" lon="3.00251">
        <ele>959.7</ele>
        <time>2026-05-20T13:51:37Z</time>
      </trkpt>
      <trkpt lat="43.60831" lon="3.0025">
        <ele>959.9</ele>
        <time>2026-05-20T13:51:42Z</time>
      </trkpt>
      <trkpt lat="43.60831" lon="3.0025">
        <ele>959.9</ele>
        <time>2026-05-20T13:51:47Z</time>
      </trkpt>
      <trkpt lat="43.60828" lon="3.00247">
        <ele>960.2</ele>
        <time>2026-05-20T13:51:52Z</time>
      </trkpt>
      <trkpt lat="43.60825" lon="3.00246">
        <ele>960.3</ele>
        <time>2026-05-20T13:51:57Z</time>
      </trkpt>
      <trkpt lat="43.60822" lon="3.00245">
        <ele>960.3</ele>
        <time>2026-05-20T13:52:02Z</time>
      </trkpt>
      <trkpt lat="43.6082" lon="3.00242">
        <ele>960.6</ele>
        <time>2026-05-20T13:52:07Z</time>
      </trkpt>
      <trkpt lat="43.60817" lon="3.00241">
        <ele>960.7</ele>
        <time>2026-05-20T13:52:12Z</time>
      </trkpt>
      <trkpt lat="43.60814" lon="3.0024">
        <ele>960.7</ele>
        <time>2026-05-20T13:52:17Z</time>
      </trkpt>
      <trkpt lat="43.60811" lon="3.0024">
        <ele>960.7</ele>
        <time>2026-05-20T13:52:22Z</time>
      </trkpt>
      <trkpt lat="43.60809" lon="3.0024">
        <ele>960.6</ele>
        <time>2026-05-20T13:52:27Z</time>
      </trkpt>
      <trkpt lat="43.60804" lon="3.00238">
        <ele>960.7</ele>
        <time>2026-05-20T13:52:32Z</time>
      </trkpt>
      <trkpt lat="43.60802" lon="3.00236">
        <ele>960.9</ele>
        <time>2026-05-20T13:52:37Z</time>
      </trkpt>
      <trkpt lat="43.60798" lon="3.00234">
        <ele>961.1</ele>
        <time>2026-05-20T13:52:42Z</time>
      </trkpt>
      <trkpt lat="43.60795" lon="3.0023">
        <ele>961.5</ele>
        <time>2026-05-20T13:52:47Z</time>
      </trkpt>
      <trkpt lat="43.60793" lon="3.00226">
        <ele>961.9</ele>
        <time>2026-05-20T13:52:52Z</time>
      </trkpt>
      <trkpt lat="43.60791" lon="3.00222">
        <ele>962.3</ele>
        <time>2026-05-20T13:52:57Z</time>
      </trkpt>
      <trkpt lat="43.60788" lon="3.00219">
        <ele>962.6</ele>
        <time>2026-05-20T13:53:02Z</time>
      </trkpt>
      <trkpt lat="43.60784" lon="3.00219">
        <ele>962.5</ele>
        <time>2026-05-20T13:53:07Z</time>
      </trkpt>
      <trkpt lat="43.60781" lon="3.00219">
        <ele>962.5</ele>
        <time>2026-05-20T13:53:12Z</time>
      </trkpt>
      <trkpt lat="43.60777" lon="3.00217">
        <ele>962.6</ele>
        <time>2026-05-20T13:53:17Z</time>
      </trkpt>
      <trkpt lat="43.60774" lon="3.00214">
        <ele>962.9</ele>
        <time>2026-05-20T13:53:22Z</time>
      </trkpt>
      <trkpt lat="43.60772" lon="3.00212">
        <ele>963.1</ele>
        <time>2026-05-20T13:53:27Z</time>
      </trkpt>
      <trkpt lat="43.60771" lon="3.00208">
        <ele>963.5</ele>
        <time>2026-05-20T13:53:32Z</time>
      </trkpt>
      <trkpt lat="43.60768" lon="3.00205">
        <ele>963.8</ele>
        <time>2026-05-20T13:53:37Z</time>
      </trkpt>
      <trkpt lat="43.60765" lon="3.00201">
        <ele>964.2</ele>
        <time>2026-05-20T13:53:42Z</time>
      </trkpt>
      <trkpt lat="43.60763" lon="3.00197">
        <ele>964.7</ele>
        <time>2026-05-20T13:53:47Z</time>
      </trkpt>
      <trkpt lat="43.60761" lon="3.00194">
        <ele>965</ele>
        <time>2026-05-20T13:53:52Z</time>
      </trkpt>
      <trkpt lat="43.60759" lon="3.00192">
        <ele>965.2</ele>
        <time>2026-05-20T13:53:57Z</time>
      </trkpt>
      <trkpt lat="43.60755" lon="3.00189">
        <ele>965.4</ele>
        <time>2026-05-20T13:54:02Z</time>
      </trkpt>
      <trkpt lat="43.60753" lon="3.00186">
        <ele>965.8</ele>
        <time>2026-05-20T13:54:07Z</time>
      </trkpt>
      <trkpt lat="43.6075" lon="3.00183">
        <ele>966</ele>
        <time>2026-05-20T13:54:12Z</time>
      </trkpt>
      <trkpt lat="43.60748" lon="3.00177">
        <ele>966.7</ele>
        <time>2026-05-20T13:54:17Z</time>
      </trkpt>
      <trkpt lat="43.60748" lon="3.00174">
        <ele>967.1</ele>
        <time>2026-05-20T13:54:22Z</time>
      </trkpt>
      <trkpt lat="43.60745" lon="3.0017">
        <ele>967.4</ele>
        <time>2026-05-20T13:54:27Z</time>
      </trkpt>
      <trkpt lat="43.60743" lon="3.00166">
        <ele>967.8</ele>
        <time>2026-05-20T13:54:32Z</time>
      </trkpt>
      <trkpt lat="43.60741" lon="3.00164">
        <ele>968</ele>
        <time>2026-05-20T13:54:37Z</time>
      </trkpt>
      <trkpt lat="43.60738" lon="3.0016">
        <ele>968.5</ele>
        <time>2026-05-20T13:54:42Z</time>
      </trkpt>
      <trkpt lat="43.60735" lon="3.00156">
        <ele>969</ele>
        <time>2026-05-20T13:54:47Z</time>
      </trkpt>
      <trkpt lat="43.60733" lon="3.00154">
        <ele>969.2</ele>
        <time>2026-05-20T13:54:52Z</time>
      </trkpt>
      <trkpt lat="43.60731" lon="3.00149">
        <ele>969.8</ele>
        <time>2026-05-20T13:54:57Z</time>
      </trkpt>
      <trkpt lat="43.60729" lon="3.00144">
        <ele>970.5</ele>
        <time>2026-05-20T13:55:02Z</time>
      </trkpt>
      <trkpt lat="43.60727" lon="3.0014">
        <ele>971</ele>
        <time>2026-05-20T13:55:07Z</time>
      </trkpt>
      <trkpt lat="43.60726" lon="3.00135">
        <ele>971.8</ele>
        <time>2026-05-20T13:55:12Z</time>
      </trkpt>
      <trkpt lat="43.60725" lon="3.00134">
        <ele>971.9</ele>
        <time>2026-05-20T13:55:17Z</time>
      </trkpt>
      <trkpt lat="43.60722" lon="3.00131">
        <ele>972.3</ele>
        <time>2026-05-20T13:55:22Z</time>
      </trkpt>
      <trkpt lat="43.6072" lon="3.00128">
        <ele>972.7</ele>
        <time>2026-05-20T13:55:27Z</time>
      </trkpt>
      <trkpt lat="43.60717" lon="3.00125">
        <ele>973.1</ele>
        <time>2026-05-20T13:55:32Z</time>
      </trkpt>
      <trkpt lat="43.60717" lon="3.0012">
        <ele>973.9</ele>
        <time>2026-05-20T13:55:37Z</time>
      </trkpt>
      <trkpt lat="43.60717" lon="3.00115">
        <ele>974.6</ele>
        <time>2026-05-20T13:55:42Z</time>
      </trkpt>
      <trkpt lat="43.60714" lon="3.00113">
        <ele>974.9</ele>
        <time>2026-05-20T13:55:47Z</time>
      </trkpt>
      <trkpt lat="43.60709" lon="3.0011">
        <ele>975.3</ele>
        <time>2026-05-20T13:55:52Z</time>
      </trkpt>
      <trkpt lat="43.60705" lon="3.00109">
        <ele>975.5</ele>
        <time>2026-05-20T13:55:57Z</time>
      </trkpt>
      <trkpt lat="43.60699" lon="3.00108">
        <ele>975.6</ele>
        <time>2026-05-20T13:56:02Z</time>
      </trkpt>
      <trkpt lat="43.60695" lon="3.00105">
        <ele>976.1</ele>
        <time>2026-05-20T13:56:07Z</time>
      </trkpt>
      <trkpt lat="43.60691" lon="3.001">
        <ele>976.9</ele>
        <time>2026-05-20T13:56:12Z</time>
      </trkpt>
      <trkpt lat="43.60686" lon="3.00098">
        <ele>977.3</ele>
        <time>2026-05-20T13:56:17Z</time>
      </trkpt>
      <trkpt lat="43.60684" lon="3.00095">
        <ele>977.8</ele>
        <time>2026-05-20T13:56:22Z</time>
      </trkpt>
      <trkpt lat="43.60683" lon="3.0009">
        <ele>978.7</ele>
        <time>2026-05-20T13:56:27Z</time>
      </trkpt>
      <trkpt lat="43.60679" lon="3.00088">
        <ele>979</ele>
        <time>2026-05-20T13:56:32Z</time>
      </trkpt>
      <trkpt lat="43.60676" lon="3.00085">
        <ele>979.6</ele>
        <time>2026-05-20T13:56:37Z</time>
      </trkpt>
      <trkpt lat="43.60674" lon="3.00081">
        <ele>980.3</ele>
        <time>2026-05-20T13:56:42Z</time>
      </trkpt>
      <trkpt lat="43.6067" lon="3.00078">
        <ele>980.8</ele>
        <time>2026-05-20T13:56:47Z</time>
      </trkpt>
      <trkpt lat="43.60667" lon="3.00076">
        <ele>981.1</ele>
        <time>2026-05-20T13:56:52Z</time>
      </trkpt>
      <trkpt lat="43.60664" lon="3.00072">
        <ele>981.7</ele>
        <time>2026-05-20T13:56:57Z</time>
      </trkpt>
      <trkpt lat="43.60663" lon="3.00071">
        <ele>981.9</ele>
        <time>2026-05-20T13:57:02Z</time>
      </trkpt>
      <trkpt lat="43.60663" lon="3.0007">
        <ele>982</ele>
        <time>2026-05-20T13:57:07Z</time>
      </trkpt>
      <trkpt lat="43.60663" lon="3.0007">
        <ele>982</ele>
        <time>2026-05-20T13:57:12Z</time>
      </trkpt>
      <trkpt lat="43.60663" lon="3.0007">
        <ele>982</ele>
        <time>2026-05-20T13:57:17Z</time>
      </trkpt>
      <trkpt lat="43.60661" lon="3.0007">
        <ele>982</ele>
        <time>2026-05-20T13:57:22Z</time>
      </trkpt>
      <trkpt lat="43.60659" lon="3.00067">
        <ele>982.4</ele>
        <time>2026-05-20T13:57:27Z</time>
      </trkpt>
      <trkpt lat="43.60657" lon="3.00063">
        <ele>983</ele>
        <time>2026-05-20T13:57:32Z</time>
      </trkpt>
      <trkpt lat="43.60656" lon="3.00059">
        <ele>983.6</ele>
        <time>2026-05-20T13:57:37Z</time>
      </trkpt>
      <trkpt lat="43.60656" lon="3.00058">
        <ele>983.8</ele>
        <time>2026-05-20T13:57:42Z</time>
      </trkpt>
      <trkpt lat="43.60656" lon="3.00058">
        <ele>983.8</ele>
        <time>2026-05-20T13:57:47Z</time>
      </trkpt>
      <trkpt lat="43.60656" lon="3.00058">
        <ele>983.8</ele>
        <time>2026-05-20T13:57:52Z</time>
      </trkpt>
      <trkpt lat="43.60656" lon="3.00058">
        <ele>983.8</ele>
        <time>2026-05-20T13:57:57Z</time>
      </trkpt>
      <trkpt lat="43.60656" lon="3.00058">
        <ele>983.8</ele>
        <time>2026-05-20T13:58:02Z</time>
      </trkpt>
      <trkpt lat="43.60656" lon="3.00058">
        <ele>983.8</ele>
        <time>2026-05-20T13:58:07Z</time>
      </trkpt>
      <trkpt lat="43.60655" lon="3.00053">
        <ele>984.5</ele>
        <time>2026-05-20T13:58:12Z</time>
      </trkpt>
      <trkpt lat="43.60655" lon="3.00051">
        <ele>984.8</ele>
        <time>2026-05-20T13:58:17Z</time>
      </trkpt>
      <trkpt lat="43.60655" lon="3.00049">
        <ele>985.2</ele>
        <time>2026-05-20T13:58:22Z</time>
      </trkpt>
      <trkpt lat="43.60654" lon="3.00048">
        <ele>985.3</ele>
        <time>2026-05-20T13:58:27Z</time>
      </trkpt>
      <trkpt lat="43.60652" lon="3.00044">
        <ele>985.9</ele>
        <time>2026-05-20T13:58:32Z</time>
      </trkpt>
      <trkpt lat="43.60652" lon="3.00041">
        <ele>986.3</ele>
        <time>2026-05-20T13:58:37Z</time>
      </trkpt>
      <trkpt lat="43.60652" lon="3.00039">
        <ele>986.6</ele>
        <time>2026-05-20T13:58:42Z</time>
      </trkpt>
      <trkpt lat="43.60652" lon="3.00039">
        <ele>986.6</ele>
        <time>2026-05-20T13:58:47Z</time>
      </trkpt>
      <trkpt lat="43.60649" lon="3.00035">
        <ele>987.2</ele>
        <time>2026-05-20T13:58:52Z</time>
      </trkpt>
      <trkpt lat="43.60649" lon="3.00031">
        <ele>987.8</ele>
        <time>2026-05-20T13:58:57Z</time>
      </trkpt>
      <trkpt lat="43.60648" lon="3.00028">
        <ele>988.3</ele>
        <time>2026-05-20T13:59:02Z</time>
      </trkpt>
      <trkpt lat="43.60648" lon="3.00025">
        <ele>988.7</ele>
        <time>2026-05-20T13:59:07Z</time>
      </trkpt>
      <trkpt lat="43.60646" lon="3.00023">
        <ele>989</ele>
        <time>2026-05-20T13:59:12Z</time>
      </trkpt>
      <trkpt lat="43.60643" lon="3.00022">
        <ele>989.1</ele>
        <time>2026-05-20T13:59:17Z</time>
      </trkpt>
      <trkpt lat="43.6064" lon="3.00019">
        <ele>989.5</ele>
        <time>2026-05-20T13:59:22Z</time>
      </trkpt>
      <trkpt lat="43.60637" lon="3.00014">
        <ele>990.2</ele>
        <time>2026-05-20T13:59:27Z</time>
      </trkpt>
      <trkpt lat="43.60636" lon="3.0001">
        <ele>990.7</ele>
        <time>2026-05-20T13:59:32Z</time>
      </trkpt>
      <trkpt lat="43.60635" lon="3.00007">
        <ele>991.2</ele>
        <time>2026-05-20T13:59:37Z</time>
      </trkpt>
      <trkpt lat="43.60635" lon="3.00003">
        <ele>991.8</ele>
        <time>2026-05-20T13:59:42Z</time>
      </trkpt>
      <trkpt lat="43.60633" lon="3.00001">
        <ele>992</ele>
        <time>2026-05-20T13:59:47Z</time>
      </trkpt>
      <trkpt lat="43.60629" lon="2.99999">
        <ele>992.2</ele>
        <time>2026-05-20T13:59:52Z</time>
      </trkpt>
      <trkpt lat="43.60624" lon="2.99997">
        <ele>992.4</ele>
        <time>2026-05-20T13:59:57Z</time>
      </trkpt>
      <trkpt lat="43.6062" lon="2.99994">
        <ele>992.8</ele>
        <time>2026-05-20T14:00:02Z</time>
      </trkpt>
      <trkpt lat="43.60617" lon="2.9999">
        <ele>993.3</ele>
        <time>2026-05-20T14:00:07Z</time>
      </trkpt>
      <trkpt lat="43.60613" lon="2.99985">
        <ele>994</ele>
        <time>2026-05-20T14:00:12Z</time>
      </trkpt>
      <trkpt lat="43.60608" lon="2.99983">
        <ele>994.2</ele>
        <time>2026-05-20T14:00:17Z</time>
      </trkpt>
      <trkpt lat="43.60605" lon="2.9998">
        <ele>994.6</ele>
        <time>2026-05-20T14:00:22Z</time>
      </trkpt>
      <trkpt lat="43.60603" lon="2.99978">
        <ele>994.9</ele>
        <time>2026-05-20T14:00:27Z</time>
      </trkpt>
      <trkpt lat="43.60599" lon="2.99976">
        <ele>995.2</ele>
        <time>2026-05-20T14:00:32Z</time>
      </trkpt>
      <trkpt lat="43.60596" lon="2.99973">
        <ele>995.6</ele>
        <time>2026-05-20T14:00:37Z</time>
      </trkpt>
      <trkpt lat="43.60594" lon="2.99969">
        <ele>996.3</ele>
        <time>2026-05-20T14:00:42Z</time>
      </trkpt>
      <trkpt lat="43.60592" lon="2.99967">
        <ele>996.6</ele>
        <time>2026-05-20T14:00:47Z</time>
      </trkpt>
      <trkpt lat="43.60589" lon="2.99963">
        <ele>997.2</ele>
        <time>2026-05-20T14:00:52Z</time>
      </trkpt>
      <trkpt lat="43.60588" lon="2.99958">
        <ele>998.1</ele>
        <time>2026-05-20T14:00:57Z</time>
      </trkpt>
      <trkpt lat="43.60588" lon="2.99955">
        <ele>998.6</ele>
        <time>2026-05-20T14:01:02Z</time>
      </trkpt>
      <trkpt lat="43.60588" lon="2.99953">
        <ele>998.9</ele>
        <time>2026-05-20T14:01:07Z</time>
      </trkpt>
      <trkpt lat="43.60587" lon="2.9995">
        <ele>999.4</ele>
        <time>2026-05-20T14:01:12Z</time>
      </trkpt>
      <trkpt lat="43.60586" lon="2.99948">
        <ele>999.7</ele>
        <time>2026-05-20T14:01:17Z</time>
      </trkpt>
      <trkpt lat="43.60584" lon="2.99944">
        <ele>1000.4</ele>
        <time>2026-05-20T14:01:22Z</time>
      </trkpt>
      <trkpt lat="43.60582" lon="2.99941">
        <ele>1000.9</ele>
        <time>2026-05-20T14:01:27Z</time>
      </trkpt>
      <trkpt lat="43.60581" lon="2.99939">
        <ele>1001.2</ele>
        <time>2026-05-20T14:01:32Z</time>
      </trkpt>
      <trkpt lat="43.60579" lon="2.99934">
        <ele>1001.9</ele>
        <time>2026-05-20T14:01:37Z</time>
      </trkpt>
      <trkpt lat="43.60578" lon="2.99931">
        <ele>1002.4</ele>
        <time>2026-05-20T14:01:42Z</time>
      </trkpt>
      <trkpt lat="43.60576" lon="2.99929">
        <ele>1002.7</ele>
        <time>2026-05-20T14:01:47Z</time>
      </trkpt>
      <trkpt lat="43.60572" lon="2.99926">
        <ele>1003</ele>
        <time>2026-05-20T14:01:52Z</time>
      </trkpt>
      <trkpt lat="43.60571" lon="2.9992">
        <ele>1004</ele>
        <time>2026-05-20T14:01:57Z</time>
      </trkpt>
      <trkpt lat="43.60568" lon="2.99915">
        <ele>1004.6</ele>
        <time>2026-05-20T14:02:02Z</time>
      </trkpt>
      <trkpt lat="43.60566" lon="2.99909">
        <ele>1005.2</ele>
        <time>2026-05-20T14:02:07Z</time>
      </trkpt>
      <trkpt lat="43.60565" lon="2.99904">
        <ele>1005.7</ele>
        <time>2026-05-20T14:02:12Z</time>
      </trkpt>
      <trkpt lat="43.60564" lon="2.999">
        <ele>1006.1</ele>
        <time>2026-05-20T14:02:17Z</time>
      </trkpt>
      <trkpt lat="43.60562" lon="2.99898">
        <ele>1006.2</ele>
        <time>2026-05-20T14:02:22Z</time>
      </trkpt>
      <trkpt lat="43.60558" lon="2.99897">
        <ele>1006.1</ele>
        <time>2026-05-20T14:02:27Z</time>
      </trkpt>
      <trkpt lat="43.60555" lon="2.99895">
        <ele>1006.2</ele>
        <time>2026-05-20T14:02:32Z</time>
      </trkpt>
      <trkpt lat="43.60552" lon="2.99892">
        <ele>1006.4</ele>
        <time>2026-05-20T14:02:37Z</time>
      </trkpt>
      <trkpt lat="43.60548" lon="2.99889">
        <ele>1006.6</ele>
        <time>2026-05-20T14:02:42Z</time>
      </trkpt>
      <trkpt lat="43.60545" lon="2.99884">
        <ele>1007</ele>
        <time>2026-05-20T14:02:47Z</time>
      </trkpt>
      <trkpt lat="43.60543" lon="2.9988">
        <ele>1007.3</ele>
        <time>2026-05-20T14:02:52Z</time>
      </trkpt>
      <trkpt lat="43.6054" lon="2.99875">
        <ele>1007.7</ele>
        <time>2026-05-20T14:02:57Z</time>
      </trkpt>
      <trkpt lat="43.60539" lon="2.9987">
        <ele>1008.1</ele>
        <time>2026-05-20T14:03:02Z</time>
      </trkpt>
      <trkpt lat="43.60537" lon="2.99867">
        <ele>1008.4</ele>
        <time>2026-05-20T14:03:07Z</time>
      </trkpt>
      <trkpt lat="43.60533" lon="2.99865">
        <ele>1008.4</ele>
        <time>2026-05-20T14:03:12Z</time>
      </trkpt>
      <trkpt lat="43.6053" lon="2.9986">
        <ele>1008.8</ele>
        <time>2026-05-20T14:03:17Z</time>
      </trkpt>
      <trkpt lat="43.60528" lon="2.99855">
        <ele>1009.2</ele>
        <time>2026-05-20T14:03:22Z</time>
      </trkpt>
      <trkpt lat="43.60526" lon="2.9985">
        <ele>1009.6</ele>
        <time>2026-05-20T14:03:27Z</time>
      </trkpt>
      <trkpt lat="43.60524" lon="2.99845">
        <ele>1010</ele>
        <time>2026-05-20T14:03:32Z</time>
      </trkpt>
      <trkpt lat="43.60522" lon="2.9984">
        <ele>1010.4</ele>
        <time>2026-05-20T14:03:37Z</time>
      </trkpt>
      <trkpt lat="43.60521" lon="2.99838">
        <ele>1010.5</ele>
        <time>2026-05-20T14:03:42Z</time>
      </trkpt>
      <trkpt lat="43.60521" lon="2.99836">
        <ele>1010.7</ele>
        <time>2026-05-20T14:03:47Z</time>
      </trkpt>
      <trkpt lat="43.60521" lon="2.99833">
        <ele>1011.1</ele>
        <time>2026-05-20T14:03:52Z</time>
      </trkpt>
      <trkpt lat="43.6052" lon="2.99829">
        <ele>1011.6</ele>
        <time>2026-05-20T14:03:57Z</time>
      </trkpt>
      <trkpt lat="43.60518" lon="2.99826">
        <ele>1012</ele>
        <time>2026-05-20T14:04:02Z</time>
      </trkpt>
      <trkpt lat="43.60517" lon="2.99821">
        <ele>1012.8</ele>
        <time>2026-05-20T14:04:07Z</time>
      </trkpt>
      <trkpt lat="43.60517" lon="2.99818">
        <ele>1013.2</ele>
        <time>2026-05-20T14:04:12Z</time>
      </trkpt>
      <trkpt lat="43.60516" lon="2.99817">
        <ele>1013.4</ele>
        <time>2026-05-20T14:04:17Z</time>
      </trkpt>
      <trkpt lat="43.60515" lon="2.99813">
        <ele>1014</ele>
        <time>2026-05-20T14:04:22Z</time>
      </trkpt>
      <trkpt lat="43.60513" lon="2.9981">
        <ele>1014.4</ele>
        <time>2026-05-20T14:04:27Z</time>
      </trkpt>
      <trkpt lat="43.60512" lon="2.99805">
        <ele>1015.1</ele>
        <time>2026-05-20T14:04:32Z</time>
      </trkpt>
      <trkpt lat="43.60512" lon="2.99802">
        <ele>1015.6</ele>
        <time>2026-05-20T14:04:37Z</time>
      </trkpt>
      <trkpt lat="43.60512" lon="2.99798">
        <ele>1016.3</ele>
        <time>2026-05-20T14:04:42Z</time>
      </trkpt>
      <trkpt lat="43.60511" lon="2.99795">
        <ele>1016.7</ele>
        <time>2026-05-20T14:04:47Z</time>
      </trkpt>
      <trkpt lat="43.60509" lon="2.9979">
        <ele>1017.5</ele>
        <time>2026-05-20T14:04:52Z</time>
      </trkpt>
      <trkpt lat="43.60507" lon="2.99784">
        <ele>1018.4</ele>
        <time>2026-05-20T14:04:57Z</time>
      </trkpt>
      <trkpt lat="43.60505" lon="2.99778">
        <ele>1019.4</ele>
        <time>2026-05-20T14:05:02Z</time>
      </trkpt>
      <trkpt lat="43.60503" lon="2.99773">
        <ele>1020.2</ele>
        <time>2026-05-20T14:05:07Z</time>
      </trkpt>
      <trkpt lat="43.60501" lon="2.99768">
        <ele>1021</ele>
        <time>2026-05-20T14:05:12Z</time>
      </trkpt>
      <trkpt lat="43.60499" lon="2.99764">
        <ele>1021.6</ele>
        <time>2026-05-20T14:05:17Z</time>
      </trkpt>
      <trkpt lat="43.60498" lon="2.9976">
        <ele>1022.3</ele>
        <time>2026-05-20T14:05:22Z</time>
      </trkpt>
      <trkpt lat="43.60495" lon="2.99755">
        <ele>1023.1</ele>
        <time>2026-05-20T14:05:27Z</time>
      </trkpt>
      <trkpt lat="43.60492" lon="2.99753">
        <ele>1023.4</ele>
        <time>2026-05-20T14:05:32Z</time>
      </trkpt>
      <trkpt lat="43.60489" lon="2.9975">
        <ele>1023.9</ele>
        <time>2026-05-20T14:05:37Z</time>
      </trkpt>
      <trkpt lat="43.60489" lon="2.99748">
        <ele>1024.1</ele>
        <time>2026-05-20T14:05:42Z</time>
      </trkpt>
      <trkpt lat="43.60488" lon="2.99747">
        <ele>1024.2</ele>
        <time>2026-05-20T14:05:47Z</time>
      </trkpt>
      <trkpt lat="43.60488" lon="2.99747">
        <ele>1024.2</ele>
        <time>2026-05-20T14:05:52Z</time>
      </trkpt>
      <trkpt lat="43.60488" lon="2.99747">
        <ele>1024.2</ele>
        <time>2026-05-20T14:05:57Z</time>
      </trkpt>
      <trkpt lat="43.60488" lon="2.99747">
        <ele>1024.2</ele>
        <time>2026-05-20T14:06:02Z</time>
      </trkpt>
      <trkpt lat="43.60488" lon="2.99747">
        <ele>1024.2</ele>
        <time>2026-05-20T14:06:07Z</time>
      </trkpt>
      <trkpt lat="43.60488" lon="2.99747">
        <ele>1024.2</ele>
        <time>2026-05-20T14:06:12Z</time>
      </trkpt>
      <trkpt lat="43.60488" lon="2.99747">
        <ele>1024.2</ele>
        <time>2026-05-20T14:06:17Z</time>
      </trkpt>
      <trkpt lat="43.60486" lon="2.99743">
        <ele>1024.7</ele>
        <time>2026-05-20T14:06:22Z</time>
      </trkpt>
      <trkpt lat="43.60482" lon="2.99738">
        <ele>1025.3</ele>
        <time>2026-05-20T14:06:27Z</time>
      </trkpt>
      <trkpt lat="43.6048" lon="2.99734">
        <ele>1025.8</ele>
        <time>2026-05-20T14:06:32Z</time>
      </trkpt>
      <trkpt lat="43.60477" lon="2.99731">
        <ele>1026.2</ele>
        <time>2026-05-20T14:06:37Z</time>
      </trkpt>
      <trkpt lat="43.60475" lon="2.99728">
        <ele>1026.5</ele>
        <time>2026-05-20T14:06:42Z</time>
      </trkpt>
      <trkpt lat="43.60473" lon="2.99724">
        <ele>1027</ele>
        <time>2026-05-20T14:06:47Z</time>
      </trkpt>
      <trkpt lat="43.6047" lon="2.99721">
        <ele>1027.3</ele>
        <time>2026-05-20T14:06:52Z</time>
      </trkpt>
      <trkpt lat="43.6047" lon="2.99721">
        <ele>1027.3</ele>
        <time>2026-05-20T14:06:57Z</time>
      </trkpt>
      <trkpt lat="43.6047" lon="2.99721">
        <ele>1027.3</ele>
        <time>2026-05-20T14:07:02Z</time>
      </trkpt>
      <trkpt lat="43.6047" lon="2.99721">
        <ele>1027.3</ele>
        <time>2026-05-20T14:07:07Z</time>
      </trkpt>
      <trkpt lat="43.6047" lon="2.99721">
        <ele>1027.3</ele>
        <time>2026-05-20T14:07:12Z</time>
      </trkpt>
      <trkpt lat="43.60468" lon="2.99717">
        <ele>1027.8</ele>
        <time>2026-05-20T14:07:17Z</time>
      </trkpt>
      <trkpt lat="43.60467" lon="2.99714">
        <ele>1028.2</ele>
        <time>2026-05-20T14:07:22Z</time>
      </trkpt>
      <trkpt lat="43.60465" lon="2.99711">
        <ele>1028.5</ele>
        <time>2026-05-20T14:07:27Z</time>
      </trkpt>
      <trkpt lat="43.60465" lon="2.99707">
        <ele>1029</ele>
        <time>2026-05-20T14:07:32Z</time>
      </trkpt>
      <trkpt lat="43.60465" lon="2.99704">
        <ele>1029.4</ele>
        <time>2026-05-20T14:07:37Z</time>
      </trkpt>
      <trkpt lat="43.60463" lon="2.99702">
        <ele>1029.6</ele>
        <time>2026-05-20T14:07:42Z</time>
      </trkpt>
      <trkpt lat="43.60461" lon="2.99699">
        <ele>1030</ele>
        <time>2026-05-20T14:07:47Z</time>
      </trkpt>
      <trkpt lat="43.6046" lon="2.99696">
        <ele>1030.3</ele>
        <time>2026-05-20T14:07:52Z</time>
      </trkpt>
      <trkpt lat="43.6046" lon="2.99693">
        <ele>1030.7</ele>
        <time>2026-05-20T14:07:57Z</time>
      </trkpt>
      <trkpt lat="43.6046" lon="2.99689">
        <ele>1031.2</ele>
        <time>2026-05-20T14:08:02Z</time>
      </trkpt>
      <trkpt lat="43.60459" lon="2.99686">
        <ele>1031.6</ele>
        <time>2026-05-20T14:08:07Z</time>
      </trkpt>
      <trkpt lat="43.60457" lon="2.99683">
        <ele>1031.9</ele>
        <time>2026-05-20T14:08:12Z</time>
      </trkpt>
      <trkpt lat="43.60455" lon="2.99679">
        <ele>1032.4</ele>
        <time>2026-05-20T14:08:17Z</time>
      </trkpt>
      <trkpt lat="43.60454" lon="2.99675">
        <ele>1032.9</ele>
        <time>2026-05-20T14:08:22Z</time>
      </trkpt>
      <trkpt lat="43.60451" lon="2.9967">
        <ele>1033.4</ele>
        <time>2026-05-20T14:08:27Z</time>
      </trkpt>
      <trkpt lat="43.60448" lon="2.99667">
        <ele>1033.7</ele>
        <time>2026-05-20T14:08:32Z</time>
      </trkpt>
      <trkpt lat="43.60445" lon="2.99667">
        <ele>1033.6</ele>
        <time>2026-05-20T14:08:37Z</time>
      </trkpt>
      <trkpt lat="43.60442" lon="2.99664">
        <ele>1033.9</ele>
        <time>2026-05-20T14:08:42Z</time>
      </trkpt>
      <trkpt lat="43.6044" lon="2.99661">
        <ele>1034.1</ele>
        <time>2026-05-20T14:08:47Z</time>
      </trkpt>
      <trkpt lat="43.6044" lon="2.99656">
        <ele>1034.6</ele>
        <time>2026-05-20T14:08:52Z</time>
      </trkpt>
      <trkpt lat="43.6044" lon="2.99653">
        <ele>1034.9</ele>
        <time>2026-05-20T14:08:57Z</time>
      </trkpt>
      <trkpt lat="43.6044" lon="2.99649">
        <ele>1035.3</ele>
        <time>2026-05-20T14:09:02Z</time>
      </trkpt>
      <trkpt lat="43.60439" lon="2.99645">
        <ele>1035.6</ele>
        <time>2026-05-20T14:09:07Z</time>
      </trkpt>
      <trkpt lat="43.60438" lon="2.99643">
        <ele>1035.8</ele>
        <time>2026-05-20T14:09:12Z</time>
      </trkpt>
      <trkpt lat="43.60438" lon="2.9964">
        <ele>1036.1</ele>
        <time>2026-05-20T14:09:17Z</time>
      </trkpt>
      <trkpt lat="43.60439" lon="2.99638">
        <ele>1036.3</ele>
        <time>2026-05-20T14:09:22Z</time>
      </trkpt>
      <trkpt lat="43.60439" lon="2.99633">
        <ele>1036.8</ele>
        <time>2026-05-20T14:09:27Z</time>
      </trkpt>
      <trkpt lat="43.60437" lon="2.99629">
        <ele>1037.1</ele>
        <time>2026-05-20T14:09:32Z</time>
      </trkpt>
      <trkpt lat="43.60434" lon="2.99626">
        <ele>1037.2</ele>
        <time>2026-05-20T14:09:37Z</time>
      </trkpt>
      <trkpt lat="43.60433" lon="2.99621">
        <ele>1037.7</ele>
        <time>2026-05-20T14:09:42Z</time>
      </trkpt>
      <trkpt lat="43.60432" lon="2.99616">
        <ele>1038.1</ele>
        <time>2026-05-20T14:09:47Z</time>
      </trkpt>
      <trkpt lat="43.60431" lon="2.99612">
        <ele>1038.4</ele>
        <time>2026-05-20T14:09:52Z</time>
      </trkpt>
      <trkpt lat="43.6043" lon="2.99607">
        <ele>1038.8</ele>
        <time>2026-05-20T14:09:57Z</time>
      </trkpt>
      <trkpt lat="43.6043" lon="2.99601">
        <ele>1039.3</ele>
        <time>2026-05-20T14:10:02Z</time>
      </trkpt>
      <trkpt lat="43.60429" lon="2.99596">
        <ele>1039.7</ele>
        <time>2026-05-20T14:10:07Z</time>
      </trkpt>
      <trkpt lat="43.60428" lon="2.99591">
        <ele>1040.1</ele>
        <time>2026-05-20T14:10:12Z</time>
      </trkpt>
      <trkpt lat="43.60426" lon="2.99586">
        <ele>1040.4</ele>
        <time>2026-05-20T14:10:17Z</time>
      </trkpt>
      <trkpt lat="43.60424" lon="2.9958">
        <ele>1040.7</ele>
        <time>2026-05-20T14:10:22Z</time>
      </trkpt>
      <trkpt lat="43.60423" lon="2.99575">
        <ele>1040.9</ele>
        <time>2026-05-20T14:10:27Z</time>
      </trkpt>
      <trkpt lat="43.60423" lon="2.9957">
        <ele>1041.1</ele>
        <time>2026-05-20T14:10:32Z</time>
      </trkpt>
      <trkpt lat="43.60423" lon="2.99569">
        <ele>1041.2</ele>
        <time>2026-05-20T14:10:37Z</time>
      </trkpt>
      <trkpt lat="43.60422" lon="2.99568">
        <ele>1041.1</ele>
        <time>2026-05-20T14:10:42Z</time>
      </trkpt>
      <trkpt lat="43.60422" lon="2.99568">
        <ele>1041.1</ele>
        <time>2026-05-20T14:10:47Z</time>
      </trkpt>
      <trkpt lat="43.60422" lon="2.99568">
        <ele>1041.1</ele>
        <time>2026-05-20T14:10:52Z</time>
      </trkpt>
      <trkpt lat="43.60423" lon="2.99563">
        <ele>1041.5</ele>
        <time>2026-05-20T14:10:57Z</time>
      </trkpt>
      <trkpt lat="43.60423" lon="2.99558">
        <ele>1041.7</ele>
        <time>2026-05-20T14:11:02Z</time>
      </trkpt>
      <trkpt lat="43.60423" lon="2.99549">
        <ele>1042.2</ele>
        <time>2026-05-20T14:11:07Z</time>
      </trkpt>
      <trkpt lat="43.60422" lon="2.99543">
        <ele>1042.4</ele>
        <time>2026-05-20T14:11:12Z</time>
      </trkpt>
      <trkpt lat="43.60422" lon="2.99537">
        <ele>1042.7</ele>
        <time>2026-05-20T14:11:17Z</time>
      </trkpt>
      <trkpt lat="43.60421" lon="2.99529">
        <ele>1043</ele>
        <time>2026-05-20T14:11:22Z</time>
      </trkpt>
      <trkpt lat="43.60421" lon="2.9952">
        <ele>1043.4</ele>
        <time>2026-05-20T14:11:27Z</time>
      </trkpt>
      <trkpt lat="43.60421" lon="2.99512">
        <ele>1043.8</ele>
        <time>2026-05-20T14:11:32Z</time>
      </trkpt>
      <trkpt lat="43.60421" lon="2.99503">
        <ele>1044.3</ele>
        <time>2026-05-20T14:11:37Z</time>
      </trkpt>
      <trkpt lat="43.6042" lon="2.99496">
        <ele>1044.6</ele>
        <time>2026-05-20T14:11:42Z</time>
      </trkpt>
      <trkpt lat="43.6042" lon="2.99488">
        <ele>1045</ele>
        <time>2026-05-20T14:11:47Z</time>
      </trkpt>
      <trkpt lat="43.60419" lon="2.99479">
        <ele>1045.5</ele>
        <time>2026-05-20T14:11:52Z</time>
      </trkpt>
      <trkpt lat="43.60419" lon="2.9947">
        <ele>1046</ele>
        <time>2026-05-20T14:11:57Z</time>
      </trkpt>
      <trkpt lat="43.60419" lon="2.99462">
        <ele>1046.5</ele>
        <time>2026-05-20T14:12:02Z</time>
      </trkpt>
      <trkpt lat="43.60419" lon="2.99453">
        <ele>1047</ele>
        <time>2026-05-20T14:12:07Z</time>
      </trkpt>
      <trkpt lat="43.60419" lon="2.99446">
        <ele>1047.4</ele>
        <time>2026-05-20T14:12:12Z</time>
      </trkpt>
      <trkpt lat="43.60419" lon="2.99438">
        <ele>1047.9</ele>
        <time>2026-05-20T14:12:17Z</time>
      </trkpt>
      <trkpt lat="43.60418" lon="2.99431">
        <ele>1048.2</ele>
        <time>2026-05-20T14:12:22Z</time>
      </trkpt>
      <trkpt lat="43.60417" lon="2.99422">
        <ele>1048.7</ele>
        <time>2026-05-20T14:12:27Z</time>
      </trkpt>
      <trkpt lat="43.60417" lon="2.99413">
        <ele>1049.1</ele>
        <time>2026-05-20T14:12:32Z</time>
      </trkpt>
      <trkpt lat="43.60416" lon="2.99406">
        <ele>1049.1</ele>
        <time>2026-05-20T14:12:37Z</time>
      </trkpt>
      <trkpt lat="43.60415" lon="2.99398">
        <ele>1049.1</ele>
        <time>2026-05-20T14:12:42Z</time>
      </trkpt>
      <trkpt lat="43.60414" lon="2.9939">
        <ele>1049.2</ele>
        <time>2026-05-20T14:12:47Z</time>
      </trkpt>
      <trkpt lat="43.60413" lon="2.99381">
        <ele>1049.3</ele>
        <time>2026-05-20T14:12:52Z</time>
      </trkpt>
      <trkpt lat="43.60412" lon="2.99373">
        <ele>1049.3</ele>
        <time>2026-05-20T14:12:57Z</time>
      </trkpt>
      <trkpt lat="43.60411" lon="2.99364">
        <ele>1049.4</ele>
        <time>2026-05-20T14:13:02Z</time>
      </trkpt>
      <trkpt lat="43.60411" lon="2.99355">
        <ele>1049.5</ele>
        <time>2026-05-20T14:13:07Z</time>
      </trkpt>
      <trkpt lat="43.6041" lon="2.99346">
        <ele>1049.6</ele>
        <time>2026-05-20T14:13:12Z</time>
      </trkpt>
      <trkpt lat="43.6041" lon="2.99337">
        <ele>1049.7</ele>
        <time>2026-05-20T14:13:17Z</time>
      </trkpt>
      <trkpt lat="43.60408" lon="2.99328">
        <ele>1049.7</ele>
        <time>2026-05-20T14:13:22Z</time>
      </trkpt>
      <trkpt lat="43.60407" lon="2.9932">
        <ele>1049.7</ele>
        <time>2026-05-20T14:13:27Z</time>
      </trkpt>
      <trkpt lat="43.60407" lon="2.99311">
        <ele>1049.7</ele>
        <time>2026-05-20T14:13:32Z</time>
      </trkpt>
      <trkpt lat="43.60406" lon="2.9931">
        <ele>1049.7</ele>
        <time>2026-05-20T14:13:37Z</time>
      </trkpt>
      <trkpt lat="43.60406" lon="2.9931">
        <ele>1049.7</ele>
        <time>2026-05-20T14:13:42Z</time>
      </trkpt>
      <trkpt lat="43.60406" lon="2.99309">
        <ele>1049.7</ele>
        <time>2026-05-20T14:13:47Z</time>
      </trkpt>
      <trkpt lat="43.60406" lon="2.99309">
        <ele>1049.7</ele>
        <time>2026-05-20T14:13:52Z</time>
      </trkpt>
      <trkpt lat="43.60406" lon="2.99309">
        <ele>1049.7</ele>
        <time>2026-05-20T14:13:57Z</time>
      </trkpt>
      <trkpt lat="43.60405" lon="2.99304">
        <ele>1049.6</ele>
        <time>2026-05-20T14:14:02Z</time>
      </trkpt>
      <trkpt lat="43.60405" lon="2.99296">
        <ele>1049.6</ele>
        <time>2026-05-20T14:14:07Z</time>
      </trkpt>
      <trkpt lat="43.60404" lon="2.99288">
        <ele>1049.6</ele>
        <time>2026-05-20T14:14:12Z</time>
      </trkpt>
      <trkpt lat="43.60403" lon="2.99279">
        <ele>1049.6</ele>
        <time>2026-05-20T14:14:17Z</time>
      </trkpt>
      <trkpt lat="43.60403" lon="2.9927">
        <ele>1049.6</ele>
        <time>2026-05-20T14:14:22Z</time>
      </trkpt>
      <trkpt lat="43.60402" lon="2.99261">
        <ele>1049.6</ele>
        <time>2026-05-20T14:14:27Z</time>
      </trkpt>
      <trkpt lat="43.60401" lon="2.99253">
        <ele>1049.6</ele>
        <time>2026-05-20T14:14:32Z</time>
      </trkpt>
      <trkpt lat="43.604" lon="2.99244">
        <ele>1049.8</ele>
        <time>2026-05-20T14:14:37Z</time>
      </trkpt>
      <trkpt lat="43.60399" lon="2.99236">
        <ele>1050.1</ele>
        <time>2026-05-20T14:14:42Z</time>
      </trkpt>
      <trkpt lat="43.60399" lon="2.99226">
        <ele>1050.4</ele>
        <time>2026-05-20T14:14:47Z</time>
      </trkpt>
      <trkpt lat="43.60398" lon="2.99217">
        <ele>1050.7</ele>
        <time>2026-05-20T14:14:52Z</time>
      </trkpt>
      <trkpt lat="43.60398" lon="2.99208">
        <ele>1051.1</ele>
        <time>2026-05-20T14:14:57Z</time>
      </trkpt>
      <trkpt lat="43.60397" lon="2.992">
        <ele>1051.3</ele>
        <time>2026-05-20T14:15:02Z</time>
      </trkpt>
      <trkpt lat="43.60396" lon="2.99191">
        <ele>1051.6</ele>
        <time>2026-05-20T14:15:07Z</time>
      </trkpt>
      <trkpt lat="43.60396" lon="2.99183">
        <ele>1051.9</ele>
        <time>2026-05-20T14:15:12Z</time>
      </trkpt>
      <trkpt lat="43.60395" lon="2.99174">
        <ele>1052.2</ele>
        <time>2026-05-20T14:15:17Z</time>
      </trkpt>
      <trkpt lat="43.60393" lon="2.99166">
        <ele>1052.4</ele>
        <time>2026-05-20T14:15:22Z</time>
      </trkpt>
      <trkpt lat="43.60391" lon="2.99158">
        <ele>1052.4</ele>
        <time>2026-05-20T14:15:27Z</time>
      </trkpt>
      <trkpt lat="43.6039" lon="2.9915">
        <ele>1052.4</ele>
        <time>2026-05-20T14:15:32Z</time>
      </trkpt>
      <trkpt lat="43.60388" lon="2.99141">
        <ele>1052.4</ele>
        <time>2026-05-20T14:15:37Z</time>
      </trkpt>
      <trkpt lat="43.60388" lon="2.99134">
        <ele>1052.4</ele>
        <time>2026-05-20T14:15:42Z</time>
      </trkpt>
      <trkpt lat="43.60384" lon="2.99125">
        <ele>1052.3</ele>
        <time>2026-05-20T14:15:47Z</time>
      </trkpt>
      <trkpt lat="43.60382" lon="2.99118">
        <ele>1052.3</ele>
        <time>2026-05-20T14:15:52Z</time>
      </trkpt>
      <trkpt lat="43.60379" lon="2.99111">
        <ele>1052.2</ele>
        <time>2026-05-20T14:15:57Z</time>
      </trkpt>
      <trkpt lat="43.60376" lon="2.99103">
        <ele>1052</ele>
        <time>2026-05-20T14:16:02Z</time>
      </trkpt>
      <trkpt lat="43.60376" lon="2.99094">
        <ele>1052</ele>
        <time>2026-05-20T14:16:07Z</time>
      </trkpt>
      <trkpt lat="43.60374" lon="2.99086">
        <ele>1052</ele>
        <time>2026-05-20T14:16:12Z</time>
      </trkpt>
      <trkpt lat="43.60372" lon="2.99079">
        <ele>1051.9</ele>
        <time>2026-05-20T14:16:17Z</time>
      </trkpt>
      <trkpt lat="43.6037" lon="2.9907">
        <ele>1051.8</ele>
        <time>2026-05-20T14:16:22Z</time>
      </trkpt>
      <trkpt lat="43.60367" lon="2.99064">
        <ele>1051.7</ele>
        <time>2026-05-20T14:16:27Z</time>
      </trkpt>
      <trkpt lat="43.60366" lon="2.99056">
        <ele>1051.7</ele>
        <time>2026-05-20T14:16:32Z</time>
      </trkpt>
      <trkpt lat="43.60366" lon="2.99048">
        <ele>1051.7</ele>
        <time>2026-05-20T14:16:37Z</time>
      </trkpt>
      <trkpt lat="43.60363" lon="2.99039">
        <ele>1051.6</ele>
        <time>2026-05-20T14:16:42Z</time>
      </trkpt>
      <trkpt lat="43.60361" lon="2.99031">
        <ele>1051.5</ele>
        <time>2026-05-20T14:16:47Z</time>
      </trkpt>
      <trkpt lat="43.6036" lon="2.99024">
        <ele>1051.5</ele>
        <time>2026-05-20T14:16:52Z</time>
      </trkpt>
      <trkpt lat="43.60357" lon="2.99016">
        <ele>1051.4</ele>
        <time>2026-05-20T14:16:57Z</time>
      </trkpt>
      <trkpt lat="43.60354" lon="2.99011">
        <ele>1051.2</ele>
        <time>2026-05-20T14:17:02Z</time>
      </trkpt>
      <trkpt lat="43.60352" lon="2.99003">
        <ele>1051.1</ele>
        <time>2026-05-20T14:17:07Z</time>
      </trkpt>
      <trkpt lat="43.60351" lon="2.98997">
        <ele>1051.2</ele>
        <time>2026-05-20T14:17:12Z</time>
      </trkpt>
      <trkpt lat="43.6035" lon="2.98991">
        <ele>1051.4</ele>
        <time>2026-05-20T14:17:17Z</time>
      </trkpt>
      <trkpt lat="43.60349" lon="2.98984">
        <ele>1051.7</ele>
        <time>2026-05-20T14:17:22Z</time>
      </trkpt>
      <trkpt lat="43.60347" lon="2.98977">
        <ele>1051.9</ele>
        <time>2026-05-20T14:17:27Z</time>
      </trkpt>
      <trkpt lat="43.60346" lon="2.9897">
        <ele>1052.2</ele>
        <time>2026-05-20T14:17:32Z</time>
      </trkpt>
      <trkpt lat="43.60346" lon="2.98964">
        <ele>1052.5</ele>
        <time>2026-05-20T14:17:37Z</time>
      </trkpt>
      <trkpt lat="43.60344" lon="2.98957">
        <ele>1052.7</ele>
        <time>2026-05-20T14:17:42Z</time>
      </trkpt>
      <trkpt lat="43.60343" lon="2.9895">
        <ele>1053</ele>
        <time>2026-05-20T14:17:47Z</time>
      </trkpt>
      <trkpt lat="43.60342" lon="2.98942">
        <ele>1053.3</ele>
        <time>2026-05-20T14:17:52Z</time>
      </trkpt>
      <trkpt lat="43.6034" lon="2.98935">
        <ele>1053.5</ele>
        <time>2026-05-20T14:17:57Z</time>
      </trkpt>
      <trkpt lat="43.60336" lon="2.98928">
        <ele>1053.6</ele>
        <time>2026-05-20T14:18:02Z</time>
      </trkpt>
      <trkpt lat="43.60332" lon="2.98921">
        <ele>1053.7</ele>
        <time>2026-05-20T14:18:07Z</time>
      </trkpt>
      <trkpt lat="43.60327" lon="2.98916">
        <ele>1053.7</ele>
        <time>2026-05-20T14:18:12Z</time>
      </trkpt>
      <trkpt lat="43.60323" lon="2.9891">
        <ele>1053.9</ele>
        <time>2026-05-20T14:18:17Z</time>
      </trkpt>
      <trkpt lat="43.60318" lon="2.98904">
        <ele>1054</ele>
        <time>2026-05-20T14:18:22Z</time>
      </trkpt>
      <trkpt lat="43.60314" lon="2.98897">
        <ele>1054.2</ele>
        <time>2026-05-20T14:18:27Z</time>
      </trkpt>
      <trkpt lat="43.6031" lon="2.98891">
        <ele>1054.3</ele>
        <time>2026-05-20T14:18:32Z</time>
      </trkpt>
      <trkpt lat="43.60307" lon="2.98886">
        <ele>1054.5</ele>
        <time>2026-05-20T14:18:37Z</time>
      </trkpt>
      <trkpt lat="43.60306" lon="2.98883">
        <ele>1054.6</ele>
        <time>2026-05-20T14:18:42Z</time>
      </trkpt>
      <trkpt lat="43.60302" lon="2.98875">
        <ele>1054.8</ele>
        <time>2026-05-20T14:18:47Z</time>
      </trkpt>
      <trkpt lat="43.60299" lon="2.98868">
        <ele>1055</ele>
        <time>2026-05-20T14:18:52Z</time>
      </trkpt>
      <trkpt lat="43.60296" lon="2.9886">
        <ele>1055.3</ele>
        <time>2026-05-20T14:18:57Z</time>
      </trkpt>
      <trkpt lat="43.60294" lon="2.98853">
        <ele>1055.6</ele>
        <time>2026-05-20T14:19:02Z</time>
      </trkpt>
      <trkpt lat="43.60292" lon="2.98845">
        <ele>1055.9</ele>
        <time>2026-05-20T14:19:07Z</time>
      </trkpt>
      <trkpt lat="43.60287" lon="2.98841">
        <ele>1055.8</ele>
        <time>2026-05-20T14:19:12Z</time>
      </trkpt>
      <trkpt lat="43.60281" lon="2.98835">
        <ele>1055.8</ele>
        <time>2026-05-20T14:19:17Z</time>
      </trkpt>
      <trkpt lat="43.60277" lon="2.9883">
        <ele>1055.6</ele>
        <time>2026-05-20T14:19:22Z</time>
      </trkpt>
      <trkpt lat="43.60274" lon="2.98824">
        <ele>1055.3</ele>
        <time>2026-05-20T14:19:27Z</time>
      </trkpt>
      <trkpt lat="43.6027" lon="2.98818">
        <ele>1055</ele>
        <time>2026-05-20T14:19:32Z</time>
      </trkpt>
      <trkpt lat="43.60267" lon="2.98811">
        <ele>1054.6</ele>
        <time>2026-05-20T14:19:37Z</time>
      </trkpt>
      <trkpt lat="43.60264" lon="2.98803">
        <ele>1054.3</ele>
        <time>2026-05-20T14:19:42Z</time>
      </trkpt>
      <trkpt lat="43.60263" lon="2.98794">
        <ele>1054.1</ele>
        <time>2026-05-20T14:19:47Z</time>
      </trkpt>
      <trkpt lat="43.60261" lon="2.98786">
        <ele>1053.7</ele>
        <time>2026-05-20T14:19:52Z</time>
      </trkpt>
      <trkpt lat="43.6026" lon="2.98777">
        <ele>1053.5</ele>
        <time>2026-05-20T14:19:57Z</time>
      </trkpt>
      <trkpt lat="43.6026" lon="2.98768">
        <ele>1053.3</ele>
        <time>2026-05-20T14:20:02Z</time>
      </trkpt>
      <trkpt lat="43.60259" lon="2.98761">
        <ele>1053.1</ele>
        <time>2026-05-20T14:20:07Z</time>
      </trkpt>
      <trkpt lat="43.60256" lon="2.98758">
        <ele>1052.7</ele>
        <time>2026-05-20T14:20:12Z</time>
      </trkpt>
      <trkpt lat="43.60256" lon="2.98757">
        <ele>1052.7</ele>
        <time>2026-05-20T14:20:17Z</time>
      </trkpt>
      <trkpt lat="43.60256" lon="2.98757">
        <ele>1052.7</ele>
        <time>2026-05-20T14:20:22Z</time>
      </trkpt>
      <trkpt lat="43.60255" lon="2.98756">
        <ele>1052.6</ele>
        <time>2026-05-20T14:20:27Z</time>
      </trkpt>
      <trkpt lat="43.60253" lon="2.98749">
        <ele>1052.2</ele>
        <time>2026-05-20T14:20:32Z</time>
      </trkpt>
      <trkpt lat="43.60251" lon="2.98744">
        <ele>1051.6</ele>
        <time>2026-05-20T14:20:37Z</time>
      </trkpt>
      <trkpt lat="43.60249" lon="2.98738">
        <ele>1050.9</ele>
        <time>2026-05-20T14:20:42Z</time>
      </trkpt>
      <trkpt lat="43.60247" lon="2.98731">
        <ele>1050.2</ele>
        <time>2026-05-20T14:20:47Z</time>
      </trkpt>
      <trkpt lat="43.60243" lon="2.98725">
        <ele>1049.5</ele>
        <time>2026-05-20T14:20:52Z</time>
      </trkpt>
      <trkpt lat="43.60239" lon="2.98719">
        <ele>1048.8</ele>
        <time>2026-05-20T14:20:57Z</time>
      </trkpt>
      <trkpt lat="43.60236" lon="2.98713">
        <ele>1048.2</ele>
        <time>2026-05-20T14:21:02Z</time>
      </trkpt>
      <trkpt lat="43.60233" lon="2.98706">
        <ele>1047.5</ele>
        <time>2026-05-20T14:21:07Z</time>
      </trkpt>
      <trkpt lat="43.60231" lon="2.987">
        <ele>1046.9</ele>
        <time>2026-05-20T14:21:12Z</time>
      </trkpt>
      <trkpt lat="43.60229" lon="2.98694">
        <ele>1046.4</ele>
        <time>2026-05-20T14:21:17Z</time>
      </trkpt>
      <trkpt lat="43.60228" lon="2.98687">
        <ele>1045.8</ele>
        <time>2026-05-20T14:21:22Z</time>
      </trkpt>
      <trkpt lat="43.60228" lon="2.98682">
        <ele>1045.4</ele>
        <time>2026-05-20T14:21:27Z</time>
      </trkpt>
      <trkpt lat="43.60229" lon="2.98676">
        <ele>1045</ele>
        <time>2026-05-20T14:21:32Z</time>
      </trkpt>
      <trkpt lat="43.60228" lon="2.98671">
        <ele>1044.5</ele>
        <time>2026-05-20T14:21:37Z</time>
      </trkpt>
      <trkpt lat="43.60227" lon="2.98664">
        <ele>1044.1</ele>
        <time>2026-05-20T14:21:42Z</time>
      </trkpt>
      <trkpt lat="43.60226" lon="2.98657">
        <ele>1043.8</ele>
        <time>2026-05-20T14:21:47Z</time>
      </trkpt>
      <trkpt lat="43.60226" lon="2.98648">
        <ele>1043.5</ele>
        <time>2026-05-20T14:21:52Z</time>
      </trkpt>
      <trkpt lat="43.60225" lon="2.98639">
        <ele>1043.1</ele>
        <time>2026-05-20T14:21:57Z</time>
      </trkpt>
      <trkpt lat="43.60225" lon="2.9863">
        <ele>1042.8</ele>
        <time>2026-05-20T14:22:02Z</time>
      </trkpt>
      <trkpt lat="43.60224" lon="2.98623">
        <ele>1042.5</ele>
        <time>2026-05-20T14:22:07Z</time>
      </trkpt>
      <trkpt lat="43.60224" lon="2.98616">
        <ele>1042.2</ele>
        <time>2026-05-20T14:22:12Z</time>
      </trkpt>
      <trkpt lat="43.60225" lon="2.98606">
        <ele>1041.9</ele>
        <time>2026-05-20T14:22:17Z</time>
      </trkpt>
      <trkpt lat="43.60227" lon="2.98598">
        <ele>1041.7</ele>
        <time>2026-05-20T14:22:22Z</time>
      </trkpt>
      <trkpt lat="43.60228" lon="2.9859">
        <ele>1041.4</ele>
        <time>2026-05-20T14:22:27Z</time>
      </trkpt>
      <trkpt lat="43.60229" lon="2.98581">
        <ele>1041.2</ele>
        <time>2026-05-20T14:22:32Z</time>
      </trkpt>
      <trkpt lat="43.60228" lon="2.98572">
        <ele>1041.1</ele>
        <time>2026-05-20T14:22:37Z</time>
      </trkpt>
      <trkpt lat="43.60228" lon="2.98564">
        <ele>1041.1</ele>
        <time>2026-05-20T14:22:42Z</time>
      </trkpt>
      <trkpt lat="43.60229" lon="2.98554">
        <ele>1041.1</ele>
        <time>2026-05-20T14:22:47Z</time>
      </trkpt>
      <trkpt lat="43.60228" lon="2.98546">
        <ele>1041</ele>
        <time>2026-05-20T14:22:52Z</time>
      </trkpt>
      <trkpt lat="43.60227" lon="2.98538">
        <ele>1040.9</ele>
        <time>2026-05-20T14:22:57Z</time>
      </trkpt>
      <trkpt lat="43.60226" lon="2.98531">
        <ele>1040.8</ele>
        <time>2026-05-20T14:23:02Z</time>
      </trkpt>
      <trkpt lat="43.60224" lon="2.9852">
        <ele>1040.6</ele>
        <time>2026-05-20T14:23:07Z</time>
      </trkpt>
      <trkpt lat="43.60223" lon="2.9851">
        <ele>1040.5</ele>
        <time>2026-05-20T14:23:12Z</time>
      </trkpt>
      <trkpt lat="43.60223" lon="2.985">
        <ele>1040.4</ele>
        <time>2026-05-20T14:23:17Z</time>
      </trkpt>
      <trkpt lat="43.60223" lon="2.98492">
        <ele>1040.3</ele>
        <time>2026-05-20T14:23:22Z</time>
      </trkpt>
      <trkpt lat="43.60222" lon="2.98484">
        <ele>1040.2</ele>
        <time>2026-05-20T14:23:27Z</time>
      </trkpt>
      <trkpt lat="43.60222" lon="2.98474">
        <ele>1040.1</ele>
        <time>2026-05-20T14:23:32Z</time>
      </trkpt>
      <trkpt lat="43.60221" lon="2.98465">
        <ele>1040</ele>
        <time>2026-05-20T14:23:37Z</time>
      </trkpt>
      <trkpt lat="43.60219" lon="2.98457">
        <ele>1039.8</ele>
        <time>2026-05-20T14:23:42Z</time>
      </trkpt>
      <trkpt lat="43.60217" lon="2.98447">
        <ele>1039.6</ele>
        <time>2026-05-20T14:23:47Z</time>
      </trkpt>
      <trkpt lat="43.60215" lon="2.98439">
        <ele>1039.5</ele>
        <time>2026-05-20T14:23:52Z</time>
      </trkpt>
      <trkpt lat="43.6021" lon="2.98434">
        <ele>1039.2</ele>
        <time>2026-05-20T14:23:57Z</time>
      </trkpt>
      <trkpt lat="43.60205" lon="2.9843">
        <ele>1038.9</ele>
        <time>2026-05-20T14:24:02Z</time>
      </trkpt>
      <trkpt lat="43.60199" lon="2.98424">
        <ele>1038.6</ele>
        <time>2026-05-20T14:24:07Z</time>
      </trkpt>
      <trkpt lat="43.60197" lon="2.98422">
        <ele>1038.5</ele>
        <time>2026-05-20T14:24:12Z</time>
      </trkpt>
      <trkpt lat="43.60193" lon="2.98415">
        <ele>1038.3</ele>
        <time>2026-05-20T14:24:17Z</time>
      </trkpt>
      <trkpt lat="43.60191" lon="2.9841">
        <ele>1038.5</ele>
        <time>2026-05-20T14:24:22Z</time>
      </trkpt>
      <trkpt lat="43.6019" lon="2.98408">
        <ele>1038.6</ele>
        <time>2026-05-20T14:24:27Z</time>
      </trkpt>
      <trkpt lat="43.6019" lon="2.98407">
        <ele>1038.6</ele>
        <time>2026-05-20T14:24:32Z</time>
      </trkpt>
      <trkpt lat="43.6019" lon="2.98407">
        <ele>1038.6</ele>
        <time>2026-05-20T14:24:37Z</time>
      </trkpt>
      <trkpt lat="43.6019" lon="2.98407">
        <ele>1038.6</ele>
        <time>2026-05-20T14:24:42Z</time>
      </trkpt>
      <trkpt lat="43.6019" lon="2.98407">
        <ele>1038.6</ele>
        <time>2026-05-20T14:24:47Z</time>
      </trkpt>
      <trkpt lat="43.6019" lon="2.98407">
        <ele>1038.6</ele>
        <time>2026-05-20T14:24:52Z</time>
      </trkpt>
      <trkpt lat="43.6019" lon="2.98407">
        <ele>1038.6</ele>
        <time>2026-05-20T14:24:57Z</time>
      </trkpt>
      <trkpt lat="43.6019" lon="2.98407">
        <ele>1038.6</ele>
        <time>2026-05-20T14:25:02Z</time>
      </trkpt>
      <trkpt lat="43.6019" lon="2.98407">
        <ele>1038.6</ele>
        <time>2026-05-20T14:25:07Z</time>
      </trkpt>
      <trkpt lat="43.60186" lon="2.98403">
        <ele>1038.7</ele>
        <time>2026-05-20T14:25:12Z</time>
      </trkpt>
      <trkpt lat="43.60184" lon="2.984">
        <ele>1038.8</ele>
        <time>2026-05-20T14:25:17Z</time>
      </trkpt>
      <trkpt lat="43.60184" lon="2.984">
        <ele>1038.8</ele>
        <time>2026-05-20T14:25:22Z</time>
      </trkpt>
      <trkpt lat="43.60184" lon="2.984">
        <ele>1038.8</ele>
        <time>2026-05-20T14:25:27Z</time>
      </trkpt>
      <trkpt lat="43.60181" lon="2.98397">
        <ele>1038.9</ele>
        <time>2026-05-20T14:25:32Z</time>
      </trkpt>
      <trkpt lat="43.60176" lon="2.98392">
        <ele>1039</ele>
        <time>2026-05-20T14:25:37Z</time>
      </trkpt>
      <trkpt lat="43.60173" lon="2.98386">
        <ele>1039.3</ele>
        <time>2026-05-20T14:25:42Z</time>
      </trkpt>
      <trkpt lat="43.60171" lon="2.98381">
        <ele>1039.6</ele>
        <time>2026-05-20T14:25:47Z</time>
      </trkpt>
      <trkpt lat="43.60171" lon="2.98378">
        <ele>1039.8</ele>
        <time>2026-05-20T14:25:52Z</time>
      </trkpt>
      <trkpt lat="43.60169" lon="2.98371">
        <ele>1040.3</ele>
        <time>2026-05-20T14:25:57Z</time>
      </trkpt>
      <trkpt lat="43.60168" lon="2.98364">
        <ele>1040.8</ele>
        <time>2026-05-20T14:26:02Z</time>
      </trkpt>
      <trkpt lat="43.60166" lon="2.98357">
        <ele>1041.3</ele>
        <time>2026-05-20T14:26:07Z</time>
      </trkpt>
      <trkpt lat="43.60165" lon="2.98356">
        <ele>1041.3</ele>
        <time>2026-05-20T14:26:12Z</time>
      </trkpt>
      <trkpt lat="43.60164" lon="2.98351">
        <ele>1041.6</ele>
        <time>2026-05-20T14:26:17Z</time>
      </trkpt>
      <trkpt lat="43.60161" lon="2.98344">
        <ele>1042</ele>
        <time>2026-05-20T14:26:22Z</time>
      </trkpt>
      <trkpt lat="43.60159" lon="2.9834">
        <ele>1042.3</ele>
        <time>2026-05-20T14:26:27Z</time>
      </trkpt>
      <trkpt lat="43.60159" lon="2.9834">
        <ele>1042.3</ele>
        <time>2026-05-20T14:26:32Z</time>
      </trkpt>
      <trkpt lat="43.60159" lon="2.9834">
        <ele>1042.3</ele>
        <time>2026-05-20T14:26:37Z</time>
      </trkpt>
      <trkpt lat="43.60157" lon="2.98334">
        <ele>1042.6</ele>
        <time>2026-05-20T14:26:42Z</time>
      </trkpt>
      <trkpt lat="43.60152" lon="2.98329">
        <ele>1042.7</ele>
        <time>2026-05-20T14:26:47Z</time>
      </trkpt>
      <trkpt lat="43.60148" lon="2.98323">
        <ele>1042.9</ele>
        <time>2026-05-20T14:26:52Z</time>
      </trkpt>
      <trkpt lat="43.60144" lon="2.98318">
        <ele>1043</ele>
        <time>2026-05-20T14:26:57Z</time>
      </trkpt>
      <trkpt lat="43.60139" lon="2.98312">
        <ele>1043.1</ele>
        <time>2026-05-20T14:27:02Z</time>
      </trkpt>
      <trkpt lat="43.60138" lon="2.98309">
        <ele>1043.2</ele>
        <time>2026-05-20T14:27:07Z</time>
      </trkpt>
      <trkpt lat="43.60136" lon="2.98309">
        <ele>1043.2</ele>
        <time>2026-05-20T14:27:12Z</time>
      </trkpt>
      <trkpt lat="43.60136" lon="2.98309">
        <ele>1043.2</ele>
        <time>2026-05-20T14:27:17Z</time>
      </trkpt>
      <trkpt lat="43.60136" lon="2.98309">
        <ele>1043.2</ele>
        <time>2026-05-20T14:27:22Z</time>
      </trkpt>
      <trkpt lat="43.60136" lon="2.98309">
        <ele>1043.2</ele>
        <time>2026-05-20T14:27:27Z</time>
      </trkpt>
      <trkpt lat="43.60136" lon="2.98309">
        <ele>1043.2</ele>
        <time>2026-05-20T14:27:32Z</time>
      </trkpt>
      <trkpt lat="43.60136" lon="2.98309">
        <ele>1043.2</ele>
        <time>2026-05-20T14:27:37Z</time>
      </trkpt>
      <trkpt lat="43.60133" lon="2.983">
        <ele>1043.5</ele>
        <time>2026-05-20T14:27:42Z</time>
      </trkpt>
      <trkpt lat="43.60129" lon="2.98295">
        <ele>1043.7</ele>
        <time>2026-05-20T14:27:47Z</time>
      </trkpt>
      <trkpt lat="43.60124" lon="2.98293">
        <ele>1043.6</ele>
        <time>2026-05-20T14:27:52Z</time>
      </trkpt>
      <trkpt lat="43.60119" lon="2.98288">
        <ele>1043.8</ele>
        <time>2026-05-20T14:27:57Z</time>
      </trkpt>
      <trkpt lat="43.60115" lon="2.98281">
        <ele>1044</ele>
        <time>2026-05-20T14:28:02Z</time>
      </trkpt>
      <trkpt lat="43.60111" lon="2.98275">
        <ele>1044.3</ele>
        <time>2026-05-20T14:28:07Z</time>
      </trkpt>
      <trkpt lat="43.60107" lon="2.98271">
        <ele>1044.4</ele>
        <time>2026-05-20T14:28:12Z</time>
      </trkpt>
      <trkpt lat="43.60104" lon="2.98267">
        <ele>1044.5</ele>
        <time>2026-05-20T14:28:17Z</time>
      </trkpt>
      <trkpt lat="43.60099" lon="2.98263">
        <ele>1044.6</ele>
        <time>2026-05-20T14:28:22Z</time>
      </trkpt>
      <trkpt lat="43.60096" lon="2.98259">
        <ele>1044.8</ele>
        <time>2026-05-20T14:28:27Z</time>
      </trkpt>
      <trkpt lat="43.60093" lon="2.98256">
        <ele>1044.9</ele>
        <time>2026-05-20T14:28:32Z</time>
      </trkpt>
      <trkpt lat="43.6009" lon="2.98252">
        <ele>1045</ele>
        <time>2026-05-20T14:28:37Z</time>
      </trkpt>
      <trkpt lat="43.60087" lon="2.98248">
        <ele>1045.3</ele>
        <time>2026-05-20T14:28:42Z</time>
      </trkpt>
      <trkpt lat="43.60084" lon="2.98242">
        <ele>1045.8</ele>
        <time>2026-05-20T14:28:47Z</time>
      </trkpt>
      <trkpt lat="43.60081" lon="2.98237">
        <ele>1046.1</ele>
        <time>2026-05-20T14:28:52Z</time>
      </trkpt>
      <trkpt lat="43.60077" lon="2.98234">
        <ele>1046.1</ele>
        <time>2026-05-20T14:28:57Z</time>
      </trkpt>
      <trkpt lat="43.60075" lon="2.9823">
        <ele>1046.3</ele>
        <time>2026-05-20T14:29:02Z</time>
      </trkpt>
      <trkpt lat="43.60073" lon="2.98225">
        <ele>1046.6</ele>
        <time>2026-05-20T14:29:07Z</time>
      </trkpt>
      <trkpt lat="43.6007" lon="2.9822">
        <ele>1046.9</ele>
        <time>2026-05-20T14:29:12Z</time>
      </trkpt>
      <trkpt lat="43.60067" lon="2.98217">
        <ele>1046.9</ele>
        <time>2026-05-20T14:29:17Z</time>
      </trkpt>
      <trkpt lat="43.60065" lon="2.98213">
        <ele>1047.1</ele>
        <time>2026-05-20T14:29:22Z</time>
      </trkpt>
      <trkpt lat="43.60062" lon="2.9821">
        <ele>1047.2</ele>
        <time>2026-05-20T14:29:27Z</time>
      </trkpt>
      <trkpt lat="43.60061" lon="2.98206">
        <ele>1047.5</ele>
        <time>2026-05-20T14:29:32Z</time>
      </trkpt>
      <trkpt lat="43.60059" lon="2.98204">
        <ele>1047.5</ele>
        <time>2026-05-20T14:29:37Z</time>
      </trkpt>
      <trkpt lat="43.60056" lon="2.98199">
        <ele>1047.7</ele>
        <time>2026-05-20T14:29:42Z</time>
      </trkpt>
      <trkpt lat="43.60052" lon="2.98196">
        <ele>1047.7</ele>
        <time>2026-05-20T14:29:47Z</time>
      </trkpt>
      <trkpt lat="43.6005" lon="2.98192">
        <ele>1047.9</ele>
        <time>2026-05-20T14:29:52Z</time>
      </trkpt>
      <trkpt lat="43.60047" lon="2.98189">
        <ele>1047.9</ele>
        <time>2026-05-20T14:29:57Z</time>
      </trkpt>
      <trkpt lat="43.60045" lon="2.98186">
        <ele>1048</ele>
        <time>2026-05-20T14:30:02Z</time>
      </trkpt>
      <trkpt lat="43.60043" lon="2.98182">
        <ele>1048.2</ele>
        <time>2026-05-20T14:30:07Z</time>
      </trkpt>
      <trkpt lat="43.6004" lon="2.98178">
        <ele>1048.3</ele>
        <time>2026-05-20T14:30:12Z</time>
      </trkpt>
      <trkpt lat="43.60037" lon="2.98173">
        <ele>1048.5</ele>
        <time>2026-05-20T14:30:17Z</time>
      </trkpt>
      <trkpt lat="43.60033" lon="2.98168">
        <ele>1048.7</ele>
        <time>2026-05-20T14:30:22Z</time>
      </trkpt>
      <trkpt lat="43.60029" lon="2.98165">
        <ele>1048.5</ele>
        <time>2026-05-20T14:30:27Z</time>
      </trkpt>
      <trkpt lat="43.60026" lon="2.98161">
        <ele>1048.6</ele>
        <time>2026-05-20T14:30:32Z</time>
      </trkpt>
      <trkpt lat="43.60022" lon="2.98156">
        <ele>1048.6</ele>
        <time>2026-05-20T14:30:37Z</time>
      </trkpt>
      <trkpt lat="43.60018" lon="2.9815">
        <ele>1048.7</ele>
        <time>2026-05-20T14:30:42Z</time>
      </trkpt>
      <trkpt lat="43.60015" lon="2.98146">
        <ele>1048.7</ele>
        <time>2026-05-20T14:30:47Z</time>
      </trkpt>
      <trkpt lat="43.60011" lon="2.9814">
        <ele>1048.8</ele>
        <time>2026-05-20T14:30:52Z</time>
      </trkpt>
      <trkpt lat="43.60008" lon="2.98134">
        <ele>1049</ele>
        <time>2026-05-20T14:30:57Z</time>
      </trkpt>
      <trkpt lat="43.60003" lon="2.9813">
        <ele>1048.9</ele>
        <time>2026-05-20T14:31:02Z</time>
      </trkpt>
      <trkpt lat="43.6" lon="2.98126">
        <ele>1048.9</ele>
        <time>2026-05-20T14:31:07Z</time>
      </trkpt>
      <trkpt lat="43.59998" lon="2.98122">
        <ele>1049.1</ele>
        <time>2026-05-20T14:31:12Z</time>
      </trkpt>
      <trkpt lat="43.59994" lon="2.98116">
        <ele>1049.4</ele>
        <time>2026-05-20T14:31:17Z</time>
      </trkpt>
      <trkpt lat="43.5999" lon="2.98111">
        <ele>1049.5</ele>
        <time>2026-05-20T14:31:22Z</time>
      </trkpt>
      <trkpt lat="43.59988" lon="2.98104">
        <ele>1049.9</ele>
        <time>2026-05-20T14:31:27Z</time>
      </trkpt>
      <trkpt lat="43.59985" lon="2.981">
        <ele>1050.1</ele>
        <time>2026-05-20T14:31:32Z</time>
      </trkpt>
      <trkpt lat="43.5998" lon="2.98096">
        <ele>1050.1</ele>
        <time>2026-05-20T14:31:37Z</time>
      </trkpt>
      <trkpt lat="43.59976" lon="2.98092">
        <ele>1050.2</ele>
        <time>2026-05-20T14:31:42Z</time>
      </trkpt>
      <trkpt lat="43.59972" lon="2.98085">
        <ele>1050.5</ele>
        <time>2026-05-20T14:31:47Z</time>
      </trkpt>
      <trkpt lat="43.59967" lon="2.98079">
        <ele>1050.8</ele>
        <time>2026-05-20T14:31:52Z</time>
      </trkpt>
      <trkpt lat="43.59963" lon="2.98075">
        <ele>1051.1</ele>
        <time>2026-05-20T14:31:57Z</time>
      </trkpt>
      <trkpt lat="43.5996" lon="2.98067">
        <ele>1051.7</ele>
        <time>2026-05-20T14:32:02Z</time>
      </trkpt>
      <trkpt lat="43.59956" lon="2.98063">
        <ele>1052</ele>
        <time>2026-05-20T14:32:07Z</time>
      </trkpt>
      <trkpt lat="43.59951" lon="2.98061">
        <ele>1052</ele>
        <time>2026-05-20T14:32:12Z</time>
      </trkpt>
      <trkpt lat="43.59945" lon="2.98056">
        <ele>1052.3</ele>
        <time>2026-05-20T14:32:17Z</time>
      </trkpt>
      <trkpt lat="43.59941" lon="2.98053">
        <ele>1052.5</ele>
        <time>2026-05-20T14:32:22Z</time>
      </trkpt>
      <trkpt lat="43.59935" lon="2.98048">
        <ele>1052.8</ele>
        <time>2026-05-20T14:32:27Z</time>
      </trkpt>
      <trkpt lat="43.59932" lon="2.9804">
        <ele>1053.6</ele>
        <time>2026-05-20T14:32:32Z</time>
      </trkpt>
      <trkpt lat="43.59929" lon="2.98033">
        <ele>1054.4</ele>
        <time>2026-05-20T14:32:37Z</time>
      </trkpt>
      <trkpt lat="43.59926" lon="2.98026">
        <ele>1055.1</ele>
        <time>2026-05-20T14:32:42Z</time>
      </trkpt>
      <trkpt lat="43.59922" lon="2.98019">
        <ele>1055.8</ele>
        <time>2026-05-20T14:32:47Z</time>
      </trkpt>
      <trkpt lat="43.59918" lon="2.98013">
        <ele>1056.5</ele>
        <time>2026-05-20T14:32:52Z</time>
      </trkpt>
      <trkpt lat="43.59915" lon="2.98008">
        <ele>1057</ele>
        <time>2026-05-20T14:32:57Z</time>
      </trkpt>
      <trkpt lat="43.5991" lon="2.98006">
        <ele>1057.3</ele>
        <time>2026-05-20T14:33:02Z</time>
      </trkpt>
      <trkpt lat="43.59904" lon="2.98002">
        <ele>1057.8</ele>
        <time>2026-05-20T14:33:07Z</time>
      </trkpt>
      <trkpt lat="43.599" lon="2.97997">
        <ele>1058.1</ele>
        <time>2026-05-20T14:33:12Z</time>
      </trkpt>
      <trkpt lat="43.59897" lon="2.9799">
        <ele>1058.5</ele>
        <time>2026-05-20T14:33:17Z</time>
      </trkpt>
      <trkpt lat="43.59894" lon="2.97984">
        <ele>1058.8</ele>
        <time>2026-05-20T14:33:22Z</time>
      </trkpt>
      <trkpt lat="43.59892" lon="2.97979">
        <ele>1059</ele>
        <time>2026-05-20T14:33:27Z</time>
      </trkpt>
      <trkpt lat="43.59891" lon="2.97971">
        <ele>1059.4</ele>
        <time>2026-05-20T14:33:32Z</time>
      </trkpt>
      <trkpt lat="43.59887" lon="2.97966">
        <ele>1059.6</ele>
        <time>2026-05-20T14:33:37Z</time>
      </trkpt>
      <trkpt lat="43.59883" lon="2.97961">
        <ele>1059.9</ele>
        <time>2026-05-20T14:33:42Z</time>
      </trkpt>
      <trkpt lat="43.5988" lon="2.97955">
        <ele>1060.2</ele>
        <time>2026-05-20T14:33:47Z</time>
      </trkpt>
      <trkpt lat="43.59875" lon="2.97947">
        <ele>1060.5</ele>
        <time>2026-05-20T14:33:52Z</time>
      </trkpt>
      <trkpt lat="43.59871" lon="2.97941">
        <ele>1060.8</ele>
        <time>2026-05-20T14:33:57Z</time>
      </trkpt>
      <trkpt lat="43.59869" lon="2.97935">
        <ele>1061.1</ele>
        <time>2026-05-20T14:34:02Z</time>
      </trkpt>
      <trkpt lat="43.59864" lon="2.97932">
        <ele>1061.3</ele>
        <time>2026-05-20T14:34:07Z</time>
      </trkpt>
      <trkpt lat="43.59862" lon="2.97927">
        <ele>1061.5</ele>
        <time>2026-05-20T14:34:12Z</time>
      </trkpt>
      <trkpt lat="43.5986" lon="2.97922">
        <ele>1061.7</ele>
        <time>2026-05-20T14:34:17Z</time>
      </trkpt>
      <trkpt lat="43.59857" lon="2.97916">
        <ele>1062</ele>
        <time>2026-05-20T14:34:22Z</time>
      </trkpt>
      <trkpt lat="43.59853" lon="2.97909">
        <ele>1062.3</ele>
        <time>2026-05-20T14:34:27Z</time>
      </trkpt>
      <trkpt lat="43.59851" lon="2.97906">
        <ele>1062.5</ele>
        <time>2026-05-20T14:34:32Z</time>
      </trkpt>
      <trkpt lat="43.59848" lon="2.97901">
        <ele>1062.7</ele>
        <time>2026-05-20T14:34:37Z</time>
      </trkpt>
      <trkpt lat="43.59846" lon="2.97897">
        <ele>1062.9</ele>
        <time>2026-05-20T14:34:42Z</time>
      </trkpt>
      <trkpt lat="43.59844" lon="2.9789">
        <ele>1063.2</ele>
        <time>2026-05-20T14:34:47Z</time>
      </trkpt>
      <trkpt lat="43.59841" lon="2.97887">
        <ele>1063.4</ele>
        <time>2026-05-20T14:34:52Z</time>
      </trkpt>
      <trkpt lat="43.59838" lon="2.97883">
        <ele>1063.6</ele>
        <time>2026-05-20T14:34:57Z</time>
      </trkpt>
      <trkpt lat="43.59834" lon="2.97876">
        <ele>1063.9</ele>
        <time>2026-05-20T14:35:02Z</time>
      </trkpt>
      <trkpt lat="43.59832" lon="2.97872">
        <ele>1064.1</ele>
        <time>2026-05-20T14:35:07Z</time>
      </trkpt>
      <trkpt lat="43.5983" lon="2.97867">
        <ele>1064.3</ele>
        <time>2026-05-20T14:35:12Z</time>
      </trkpt>
      <trkpt lat="43.59825" lon="2.9786">
        <ele>1064.6</ele>
        <time>2026-05-20T14:35:17Z</time>
      </trkpt>
      <trkpt lat="43.59823" lon="2.97853">
        <ele>1064.8</ele>
        <time>2026-05-20T14:35:22Z</time>
      </trkpt>
      <trkpt lat="43.59822" lon="2.97851">
        <ele>1064.9</ele>
        <time>2026-05-20T14:35:27Z</time>
      </trkpt>
      <trkpt lat="43.59822" lon="2.97851">
        <ele>1064.9</ele>
        <time>2026-05-20T14:35:32Z</time>
      </trkpt>
      <trkpt lat="43.59822" lon="2.97851">
        <ele>1064.9</ele>
        <time>2026-05-20T14:35:37Z</time>
      </trkpt>
      <trkpt lat="43.59822" lon="2.97851">
        <ele>1064.9</ele>
        <time>2026-05-20T14:35:42Z</time>
      </trkpt>
      <trkpt lat="43.59822" lon="2.97849">
        <ele>1065</ele>
        <time>2026-05-20T14:35:47Z</time>
      </trkpt>
      <trkpt lat="43.59818" lon="2.97845">
        <ele>1065.1</ele>
        <time>2026-05-20T14:35:52Z</time>
      </trkpt>
      <trkpt lat="43.59812" lon="2.9784">
        <ele>1065.2</ele>
        <time>2026-05-20T14:35:57Z</time>
      </trkpt>
      <trkpt lat="43.59806" lon="2.97835">
        <ele>1065.3</ele>
        <time>2026-05-20T14:36:02Z</time>
      </trkpt>
      <trkpt lat="43.59802" lon="2.97833">
        <ele>1065.3</ele>
        <time>2026-05-20T14:36:07Z</time>
      </trkpt>
      <trkpt lat="43.59797" lon="2.97836">
        <ele>1065</ele>
        <time>2026-05-20T14:36:12Z</time>
      </trkpt>
      <trkpt lat="43.59793" lon="2.97837">
        <ele>1064.9</ele>
        <time>2026-05-20T14:36:17Z</time>
      </trkpt>
      <trkpt lat="43.59785" lon="2.97836">
        <ele>1064.7</ele>
        <time>2026-05-20T14:36:22Z</time>
      </trkpt>
      <trkpt lat="43.59779" lon="2.97835">
        <ele>1064.6</ele>
        <time>2026-05-20T14:36:27Z</time>
      </trkpt>
      <trkpt lat="43.59773" lon="2.97836">
        <ele>1064.4</ele>
        <time>2026-05-20T14:36:32Z</time>
      </trkpt>
      <trkpt lat="43.59766" lon="2.97835">
        <ele>1064.3</ele>
        <time>2026-05-20T14:36:37Z</time>
      </trkpt>
      <trkpt lat="43.59762" lon="2.97834">
        <ele>1064.3</ele>
        <time>2026-05-20T14:36:42Z</time>
      </trkpt>
      <trkpt lat="43.59761" lon="2.97834">
        <ele>1064.2</ele>
        <time>2026-05-20T14:36:47Z</time>
      </trkpt>
      <trkpt lat="43.59759" lon="2.97837">
        <ele>1064.1</ele>
        <time>2026-05-20T14:36:52Z</time>
      </trkpt>
      <trkpt lat="43.59754" lon="2.97837">
        <ele>1064</ele>
        <time>2026-05-20T14:36:57Z</time>
      </trkpt>
      <trkpt lat="43.59747" lon="2.97836">
        <ele>1063.9</ele>
        <time>2026-05-20T14:37:02Z</time>
      </trkpt>
      <trkpt lat="43.59739" lon="2.97837">
        <ele>1063.7</ele>
        <time>2026-05-20T14:37:07Z</time>
      </trkpt>
      <trkpt lat="43.59733" lon="2.97837">
        <ele>1063.7</ele>
        <time>2026-05-20T14:37:12Z</time>
      </trkpt>
      <trkpt lat="43.59729" lon="2.97837">
        <ele>1063.6</ele>
        <time>2026-05-20T14:37:17Z</time>
      </trkpt>
      <trkpt lat="43.59723" lon="2.97839">
        <ele>1063.4</ele>
        <time>2026-05-20T14:37:22Z</time>
      </trkpt>
      <trkpt lat="43.59718" lon="2.97838">
        <ele>1063.4</ele>
        <time>2026-05-20T14:37:27Z</time>
      </trkpt>
      <trkpt lat="43.59712" lon="2.97836">
        <ele>1063.4</ele>
        <time>2026-05-20T14:37:32Z</time>
      </trkpt>
      <trkpt lat="43.59705" lon="2.97832">
        <ele>1063.5</ele>
        <time>2026-05-20T14:37:37Z</time>
      </trkpt>
      <trkpt lat="43.59698" lon="2.97825">
        <ele>1063.5</ele>
        <time>2026-05-20T14:37:42Z</time>
      </trkpt>
      <trkpt lat="43.59693" lon="2.9782">
        <ele>1063.4</ele>
        <time>2026-05-20T14:37:47Z</time>
      </trkpt>
      <trkpt lat="43.59688" lon="2.97815">
        <ele>1063.4</ele>
        <time>2026-05-20T14:37:52Z</time>
      </trkpt>
      <trkpt lat="43.59684" lon="2.9781">
        <ele>1063.3</ele>
        <time>2026-05-20T14:37:57Z</time>
      </trkpt>
      <trkpt lat="43.5968" lon="2.97806">
        <ele>1063.3</ele>
        <time>2026-05-20T14:38:02Z</time>
      </trkpt>
      <trkpt lat="43.59672" lon="2.97801">
        <ele>1063.1</ele>
        <time>2026-05-20T14:38:07Z</time>
      </trkpt>
      <trkpt lat="43.59666" lon="2.97795">
        <ele>1063</ele>
        <time>2026-05-20T14:38:12Z</time>
      </trkpt>
      <trkpt lat="43.59661" lon="2.9779">
        <ele>1062.9</ele>
        <time>2026-05-20T14:38:17Z</time>
      </trkpt>
      <trkpt lat="43.59655" lon="2.97782">
        <ele>1062.8</ele>
        <time>2026-05-20T14:38:22Z</time>
      </trkpt>
      <trkpt lat="43.5965" lon="2.97777">
        <ele>1062.7</ele>
        <time>2026-05-20T14:38:27Z</time>
      </trkpt>
      <trkpt lat="43.59645" lon="2.97771">
        <ele>1062.5</ele>
        <time>2026-05-20T14:38:32Z</time>
      </trkpt>
      <trkpt lat="43.5964" lon="2.97766">
        <ele>1062.4</ele>
        <time>2026-05-20T14:38:37Z</time>
      </trkpt>
      <trkpt lat="43.59633" lon="2.97762">
        <ele>1062.3</ele>
        <time>2026-05-20T14:38:42Z</time>
      </trkpt>
      <trkpt lat="43.59627" lon="2.97756">
        <ele>1062.1</ele>
        <time>2026-05-20T14:38:47Z</time>
      </trkpt>
      <trkpt lat="43.59621" lon="2.97751">
        <ele>1061.9</ele>
        <time>2026-05-20T14:38:52Z</time>
      </trkpt>
      <trkpt lat="43.59615" lon="2.97746">
        <ele>1061.8</ele>
        <time>2026-05-20T14:38:57Z</time>
      </trkpt>
      <trkpt lat="43.5961" lon="2.97742">
        <ele>1061.6</ele>
        <time>2026-05-20T14:39:02Z</time>
      </trkpt>
      <trkpt lat="43.59603" lon="2.97735">
        <ele>1061.5</ele>
        <time>2026-05-20T14:39:07Z</time>
      </trkpt>
      <trkpt lat="43.59597" lon="2.9773">
        <ele>1061.3</ele>
        <time>2026-05-20T14:39:12Z</time>
      </trkpt>
      <trkpt lat="43.59588" lon="2.97727">
        <ele>1061.1</ele>
        <time>2026-05-20T14:39:17Z</time>
      </trkpt>
      <trkpt lat="43.5958" lon="2.97728">
        <ele>1060.9</ele>
        <time>2026-05-20T14:39:22Z</time>
      </trkpt>
      <trkpt lat="43.59575" lon="2.97731">
        <ele>1060.7</ele>
        <time>2026-05-20T14:39:27Z</time>
      </trkpt>
      <trkpt lat="43.59568" lon="2.97733">
        <ele>1060.5</ele>
        <time>2026-05-20T14:39:32Z</time>
      </trkpt>
      <trkpt lat="43.59562" lon="2.97735">
        <ele>1060.3</ele>
        <time>2026-05-20T14:39:37Z</time>
      </trkpt>
      <trkpt lat="43.59557" lon="2.97737">
        <ele>1060.2</ele>
        <time>2026-05-20T14:39:42Z</time>
      </trkpt>
      <trkpt lat="43.59551" lon="2.97741">
        <ele>1060.1</ele>
        <time>2026-05-20T14:39:47Z</time>
      </trkpt>
      <trkpt lat="43.59544" lon="2.97745">
        <ele>1060</ele>
        <time>2026-05-20T14:39:52Z</time>
      </trkpt>
      <trkpt lat="43.59539" lon="2.97747">
        <ele>1059.9</ele>
        <time>2026-05-20T14:39:57Z</time>
      </trkpt>
      <trkpt lat="43.59533" lon="2.97752">
        <ele>1059.9</ele>
        <time>2026-05-20T14:40:02Z</time>
      </trkpt>
      <trkpt lat="43.59526" lon="2.97756">
        <ele>1059.8</ele>
        <time>2026-05-20T14:40:07Z</time>
      </trkpt>
      <trkpt lat="43.5952" lon="2.9776">
        <ele>1059.9</ele>
        <time>2026-05-20T14:40:12Z</time>
      </trkpt>
      <trkpt lat="43.59514" lon="2.97765">
        <ele>1060</ele>
        <time>2026-05-20T14:40:17Z</time>
      </trkpt>
      <trkpt lat="43.59509" lon="2.9777">
        <ele>1060.1</ele>
        <time>2026-05-20T14:40:22Z</time>
      </trkpt>
      <trkpt lat="43.59504" lon="2.97774">
        <ele>1060.2</ele>
        <time>2026-05-20T14:40:27Z</time>
      </trkpt>
      <trkpt lat="43.59498" lon="2.97778">
        <ele>1060.2</ele>
        <time>2026-05-20T14:40:32Z</time>
      </trkpt>
      <trkpt lat="43.59492" lon="2.97781">
        <ele>1059.9</ele>
        <time>2026-05-20T14:40:37Z</time>
      </trkpt>
      <trkpt lat="43.59487" lon="2.97786">
        <ele>1059.8</ele>
        <time>2026-05-20T14:40:42Z</time>
      </trkpt>
      <trkpt lat="43.59482" lon="2.97789">
        <ele>1059.6</ele>
        <time>2026-05-20T14:40:47Z</time>
      </trkpt>
      <trkpt lat="43.59475" lon="2.97791">
        <ele>1059.2</ele>
        <time>2026-05-20T14:40:52Z</time>
      </trkpt>
      <trkpt lat="43.59469" lon="2.97791">
        <ele>1058.7</ele>
        <time>2026-05-20T14:40:57Z</time>
      </trkpt>
      <trkpt lat="43.59463" lon="2.97792">
        <ele>1058.4</ele>
        <time>2026-05-20T14:41:02Z</time>
      </trkpt>
      <trkpt lat="43.59456" lon="2.97795">
        <ele>1058</ele>
        <time>2026-05-20T14:41:07Z</time>
      </trkpt>
      <trkpt lat="43.5945" lon="2.978">
        <ele>1057.8</ele>
        <time>2026-05-20T14:41:12Z</time>
      </trkpt>
      <trkpt lat="43.59447" lon="2.97805">
        <ele>1057.8</ele>
        <time>2026-05-20T14:41:17Z</time>
      </trkpt>
      <trkpt lat="43.59445" lon="2.97809">
        <ele>1057.9</ele>
        <time>2026-05-20T14:41:22Z</time>
      </trkpt>
      <trkpt lat="43.59445" lon="2.97809">
        <ele>1057.9</ele>
        <time>2026-05-20T14:41:27Z</time>
      </trkpt>
      <trkpt lat="43.59445" lon="2.97809">
        <ele>1057.9</ele>
        <time>2026-05-20T14:41:32Z</time>
      </trkpt>
      <trkpt lat="43.59445" lon="2.97809">
        <ele>1057.9</ele>
        <time>2026-05-20T14:41:37Z</time>
      </trkpt>
      <trkpt lat="43.59445" lon="2.97809">
        <ele>1057.9</ele>
        <time>2026-05-20T14:41:42Z</time>
      </trkpt>
      <trkpt lat="43.59439" lon="2.97814">
        <ele>1057.7</ele>
        <time>2026-05-20T14:41:47Z</time>
      </trkpt>
      <trkpt lat="43.59434" lon="2.97817">
        <ele>1057.5</ele>
        <time>2026-05-20T14:41:52Z</time>
      </trkpt>
      <trkpt lat="43.59429" lon="2.97822">
        <ele>1057.3</ele>
        <time>2026-05-20T14:41:57Z</time>
      </trkpt>
      <trkpt lat="43.59424" lon="2.97824">
        <ele>1057.1</ele>
        <time>2026-05-20T14:42:02Z</time>
      </trkpt>
      <trkpt lat="43.59418" lon="2.97824">
        <ele>1056.6</ele>
        <time>2026-05-20T14:42:07Z</time>
      </trkpt>
      <trkpt lat="43.59412" lon="2.97825">
        <ele>1056.4</ele>
        <time>2026-05-20T14:42:12Z</time>
      </trkpt>
      <trkpt lat="43.59405" lon="2.97827">
        <ele>1056.3</ele>
        <time>2026-05-20T14:42:17Z</time>
      </trkpt>
      <trkpt lat="43.594" lon="2.97832">
        <ele>1056.3</ele>
        <time>2026-05-20T14:42:22Z</time>
      </trkpt>
      <trkpt lat="43.59395" lon="2.97834">
        <ele>1056.2</ele>
        <time>2026-05-20T14:42:27Z</time>
      </trkpt>
      <trkpt lat="43.59393" lon="2.97831">
        <ele>1056</ele>
        <time>2026-05-20T14:42:32Z</time>
      </trkpt>
      <trkpt lat="43.59392" lon="2.97827">
        <ele>1055.8</ele>
        <time>2026-05-20T14:42:37Z</time>
      </trkpt>
      <trkpt lat="43.59387" lon="2.9783">
        <ele>1055.7</ele>
        <time>2026-05-20T14:42:42Z</time>
      </trkpt>
      <trkpt lat="43.5938" lon="2.97834">
        <ele>1055.7</ele>
        <time>2026-05-20T14:42:47Z</time>
      </trkpt>
      <trkpt lat="43.59374" lon="2.97836">
        <ele>1055.5</ele>
        <time>2026-05-20T14:42:52Z</time>
      </trkpt>
      <trkpt lat="43.59367" lon="2.97837">
        <ele>1055.2</ele>
        <time>2026-05-20T14:42:57Z</time>
      </trkpt>
      <trkpt lat="43.59361" lon="2.97837">
        <ele>1055</ele>
        <time>2026-05-20T14:43:02Z</time>
      </trkpt>
      <trkpt lat="43.59358" lon="2.97839">
        <ele>1054.9</ele>
        <time>2026-05-20T14:43:07Z</time>
      </trkpt>
      <trkpt lat="43.59353" lon="2.97838">
        <ele>1054.7</ele>
        <time>2026-05-20T14:43:12Z</time>
      </trkpt>
      <trkpt lat="43.59347" lon="2.97838">
        <ele>1054.5</ele>
        <time>2026-05-20T14:43:17Z</time>
      </trkpt>
      <trkpt lat="43.5934" lon="2.97839">
        <ele>1054.2</ele>
        <time>2026-05-20T14:43:22Z</time>
      </trkpt>
      <trkpt lat="43.59334" lon="2.97839">
        <ele>1054</ele>
        <time>2026-05-20T14:43:27Z</time>
      </trkpt>
      <trkpt lat="43.59328" lon="2.97841">
        <ele>1053.4</ele>
        <time>2026-05-20T14:43:32Z</time>
      </trkpt>
      <trkpt lat="43.59322" lon="2.97845">
        <ele>1052.8</ele>
        <time>2026-05-20T14:43:37Z</time>
      </trkpt>
      <trkpt lat="43.59313" lon="2.97849">
        <ele>1051.9</ele>
        <time>2026-05-20T14:43:42Z</time>
      </trkpt>
      <trkpt lat="43.59308" lon="2.97848">
        <ele>1051.4</ele>
        <time>2026-05-20T14:43:47Z</time>
      </trkpt>
      <trkpt lat="43.59301" lon="2.97849">
        <ele>1050.8</ele>
        <time>2026-05-20T14:43:52Z</time>
      </trkpt>
      <trkpt lat="43.59295" lon="2.97848">
        <ele>1050.2</ele>
        <time>2026-05-20T14:43:57Z</time>
      </trkpt>
      <trkpt lat="43.59289" lon="2.97849">
        <ele>1049.7</ele>
        <time>2026-05-20T14:44:02Z</time>
      </trkpt>
      <trkpt lat="43.59282" lon="2.97852">
        <ele>1049</ele>
        <time>2026-05-20T14:44:07Z</time>
      </trkpt>
      <trkpt lat="43.59275" lon="2.97856">
        <ele>1048.3</ele>
        <time>2026-05-20T14:44:12Z</time>
      </trkpt>
      <trkpt lat="43.59271" lon="2.9786">
        <ele>1047.9</ele>
        <time>2026-05-20T14:44:17Z</time>
      </trkpt>
      <trkpt lat="43.59271" lon="2.9786">
        <ele>1047.9</ele>
        <time>2026-05-20T14:44:22Z</time>
      </trkpt>
      <trkpt lat="43.59271" lon="2.9786">
        <ele>1047.9</ele>
        <time>2026-05-20T14:44:27Z</time>
      </trkpt>
      <trkpt lat="43.59271" lon="2.9786">
        <ele>1047.9</ele>
        <time>2026-05-20T14:44:32Z</time>
      </trkpt>
      <trkpt lat="43.59271" lon="2.9786">
        <ele>1047.9</ele>
        <time>2026-05-20T14:44:37Z</time>
      </trkpt>
      <trkpt lat="43.59267" lon="2.97865">
        <ele>1047.6</ele>
        <time>2026-05-20T14:44:42Z</time>
      </trkpt>
      <trkpt lat="43.59261" lon="2.97865">
        <ele>1047</ele>
        <time>2026-05-20T14:44:47Z</time>
      </trkpt>
      <trkpt lat="43.59256" lon="2.97866">
        <ele>1046.5</ele>
        <time>2026-05-20T14:44:52Z</time>
      </trkpt>
      <trkpt lat="43.59249" lon="2.97866">
        <ele>1045.8</ele>
        <time>2026-05-20T14:44:57Z</time>
      </trkpt>
      <trkpt lat="43.59244" lon="2.97864">
        <ele>1044.6</ele>
        <time>2026-05-20T14:45:02Z</time>
      </trkpt>
      <trkpt lat="43.59238" lon="2.97864">
        <ele>1043.2</ele>
        <time>2026-05-20T14:45:07Z</time>
      </trkpt>
      <trkpt lat="43.59232" lon="2.97867">
        <ele>1041.8</ele>
        <time>2026-05-20T14:45:12Z</time>
      </trkpt>
      <trkpt lat="43.59225" lon="2.97869">
        <ele>1040.2</ele>
        <time>2026-05-20T14:45:17Z</time>
      </trkpt>
      <trkpt lat="43.59221" lon="2.97869">
        <ele>1039.3</ele>
        <time>2026-05-20T14:45:22Z</time>
      </trkpt>
      <trkpt lat="43.59217" lon="2.97872">
        <ele>1038.4</ele>
        <time>2026-05-20T14:45:27Z</time>
      </trkpt>
      <trkpt lat="43.59212" lon="2.97874">
        <ele>1037.3</ele>
        <time>2026-05-20T14:45:32Z</time>
      </trkpt>
      <trkpt lat="43.59206" lon="2.97875">
        <ele>1036</ele>
        <time>2026-05-20T14:45:37Z</time>
      </trkpt>
      <trkpt lat="43.59201" lon="2.97877">
        <ele>1034.9</ele>
        <time>2026-05-20T14:45:42Z</time>
      </trkpt>
      <trkpt lat="43.59195" lon="2.97877">
        <ele>1033.5</ele>
        <time>2026-05-20T14:45:47Z</time>
      </trkpt>
      <trkpt lat="43.5919" lon="2.97878">
        <ele>1032.4</ele>
        <time>2026-05-20T14:45:52Z</time>
      </trkpt>
      <trkpt lat="43.59185" lon="2.9788">
        <ele>1031.4</ele>
        <time>2026-05-20T14:45:57Z</time>
      </trkpt>
      <trkpt lat="43.5918" lon="2.97882">
        <ele>1030.3</ele>
        <time>2026-05-20T14:46:02Z</time>
      </trkpt>
      <trkpt lat="43.59173" lon="2.97881">
        <ele>1028.7</ele>
        <time>2026-05-20T14:46:07Z</time>
      </trkpt>
      <trkpt lat="43.59166" lon="2.97881">
        <ele>1026.9</ele>
        <time>2026-05-20T14:46:12Z</time>
      </trkpt>
      <trkpt lat="43.59161" lon="2.97881">
        <ele>1024.4</ele>
        <time>2026-05-20T14:46:17Z</time>
      </trkpt>
      <trkpt lat="43.59155" lon="2.97884">
        <ele>1021.5</ele>
        <time>2026-05-20T14:46:22Z</time>
      </trkpt>
      <trkpt lat="43.59151" lon="2.97884">
        <ele>1019.4</ele>
        <time>2026-05-20T14:46:27Z</time>
      </trkpt>
      <trkpt lat="43.59148" lon="2.97885">
        <ele>1018</ele>
        <time>2026-05-20T14:46:32Z</time>
      </trkpt>
      <trkpt lat="43.59144" lon="2.97887">
        <ele>1016.1</ele>
        <time>2026-05-20T14:46:37Z</time>
      </trkpt>
      <trkpt lat="43.5914" lon="2.97888">
        <ele>1014.2</ele>
        <time>2026-05-20T14:46:42Z</time>
      </trkpt>
      <trkpt lat="43.59134" lon="2.97889">
        <ele>1011.2</ele>
        <time>2026-05-20T14:46:47Z</time>
      </trkpt>
      <trkpt lat="43.59129" lon="2.97893">
        <ele>1009.1</ele>
        <time>2026-05-20T14:46:52Z</time>
      </trkpt>
      <trkpt lat="43.59122" lon="2.97893">
        <ele>1005.6</ele>
        <time>2026-05-20T14:46:57Z</time>
      </trkpt>
      <trkpt lat="43.59119" lon="2.97893">
        <ele>1004.1</ele>
        <time>2026-05-20T14:47:02Z</time>
      </trkpt>
      <trkpt lat="43.59116" lon="2.97898">
        <ele>1003.2</ele>
        <time>2026-05-20T14:47:07Z</time>
      </trkpt>
      <trkpt lat="43.59113" lon="2.97902">
        <ele>1002.2</ele>
        <time>2026-05-20T14:47:12Z</time>
      </trkpt>
      <trkpt lat="43.59107" lon="2.97905">
        <ele>999.6</ele>
        <time>2026-05-20T14:47:17Z</time>
      </trkpt>
      <trkpt lat="43.59102" lon="2.9791">
        <ele>997.9</ele>
        <time>2026-05-20T14:47:22Z</time>
      </trkpt>
      <trkpt lat="43.59097" lon="2.97913">
        <ele>995.9</ele>
        <time>2026-05-20T14:47:27Z</time>
      </trkpt>
      <trkpt lat="43.59096" lon="2.97919">
        <ele>995.8</ele>
        <time>2026-05-20T14:47:32Z</time>
      </trkpt>
      <trkpt lat="43.59094" lon="2.97923">
        <ele>994.6</ele>
        <time>2026-05-20T14:47:37Z</time>
      </trkpt>
      <trkpt lat="43.59094" lon="2.97923">
        <ele>994.6</ele>
        <time>2026-05-20T14:47:42Z</time>
      </trkpt>
      <trkpt lat="43.59094" lon="2.97923">
        <ele>994.6</ele>
        <time>2026-05-20T14:47:47Z</time>
      </trkpt>
      <trkpt lat="43.59093" lon="2.97924">
        <ele>994.1</ele>
        <time>2026-05-20T14:47:52Z</time>
      </trkpt>
      <trkpt lat="43.59088" lon="2.97931">
        <ele>991.3</ele>
        <time>2026-05-20T14:47:57Z</time>
      </trkpt>
      <trkpt lat="43.59088" lon="2.97934">
        <ele>991.1</ele>
        <time>2026-05-20T14:48:02Z</time>
      </trkpt>
      <trkpt lat="43.59088" lon="2.97939">
        <ele>990.8</ele>
        <time>2026-05-20T14:48:07Z</time>
      </trkpt>
      <trkpt lat="43.5909" lon="2.97943">
        <ele>991.5</ele>
        <time>2026-05-20T14:48:12Z</time>
      </trkpt>
      <trkpt lat="43.59089" lon="2.97948">
        <ele>990.7</ele>
        <time>2026-05-20T14:48:17Z</time>
      </trkpt>
      <trkpt lat="43.59088" lon="2.97949">
        <ele>990.2</ele>
        <time>2026-05-20T14:48:22Z</time>
      </trkpt>
      <trkpt lat="43.59082" lon="2.97952">
        <ele>986.8</ele>
        <time>2026-05-20T14:48:27Z</time>
      </trkpt>
      <trkpt lat="43.59077" lon="2.97951">
        <ele>982.9</ele>
        <time>2026-05-20T14:48:32Z</time>
      </trkpt>
      <trkpt lat="43.59072" lon="2.97949">
        <ele>979</ele>
        <time>2026-05-20T14:48:37Z</time>
      </trkpt>
      <trkpt lat="43.5907" lon="2.97948">
        <ele>977.5</ele>
        <time>2026-05-20T14:48:42Z</time>
      </trkpt>
      <trkpt lat="43.59068" lon="2.97949">
        <ele>975.8</ele>
        <time>2026-05-20T14:48:47Z</time>
      </trkpt>
      <trkpt lat="43.59065" lon="2.97948">
        <ele>973.5</ele>
        <time>2026-05-20T14:48:52Z</time>
      </trkpt>
      <trkpt lat="43.59064" lon="2.97944">
        <ele>972.8</ele>
        <time>2026-05-20T14:48:57Z</time>
      </trkpt>
      <trkpt lat="43.59065" lon="2.97942">
        <ele>973.7</ele>
        <time>2026-05-20T14:49:02Z</time>
      </trkpt>
      <trkpt lat="43.59065" lon="2.97942">
        <ele>973.7</ele>
        <time>2026-05-20T14:49:07Z</time>
      </trkpt>
      <trkpt lat="43.59065" lon="2.97942">
        <ele>973.7</ele>
        <time>2026-05-20T14:49:12Z</time>
      </trkpt>
      <trkpt lat="43.59065" lon="2.97942">
        <ele>973.7</ele>
        <time>2026-05-20T14:49:17Z</time>
      </trkpt>
      <trkpt lat="43.59061" lon="2.97939">
        <ele>970.5</ele>
        <time>2026-05-20T14:49:22Z</time>
      </trkpt>
      <trkpt lat="43.59055" lon="2.97937">
        <ele>965.7</ele>
        <time>2026-05-20T14:49:27Z</time>
      </trkpt>
      <trkpt lat="43.59051" lon="2.97933">
        <ele>962.5</ele>
        <time>2026-05-20T14:49:32Z</time>
      </trkpt>
      <trkpt lat="43.59048" lon="2.97927">
        <ele>960.2</ele>
        <time>2026-05-20T14:49:37Z</time>
      </trkpt>
      <trkpt lat="43.59047" lon="2.97922">
        <ele>959.4</ele>
        <time>2026-05-20T14:49:42Z</time>
      </trkpt>
      <trkpt lat="43.59047" lon="2.97918">
        <ele>959.5</ele>
        <time>2026-05-20T14:49:47Z</time>
      </trkpt>
      <trkpt lat="43.59046" lon="2.97915">
        <ele>958.4</ele>
        <time>2026-05-20T14:49:52Z</time>
      </trkpt>
      <trkpt lat="43.59046" lon="2.97915">
        <ele>958.4</ele>
        <time>2026-05-20T14:49:57Z</time>
      </trkpt>
      <trkpt lat="43.59044" lon="2.97913">
        <ele>956.4</ele>
        <time>2026-05-20T14:50:02Z</time>
      </trkpt>
      <trkpt lat="43.59043" lon="2.97913">
        <ele>955.5</ele>
        <time>2026-05-20T14:50:07Z</time>
      </trkpt>
      <trkpt lat="43.5904" lon="2.97912">
        <ele>952.8</ele>
        <time>2026-05-20T14:50:12Z</time>
      </trkpt>
      <trkpt lat="43.5904" lon="2.9791">
        <ele>952.5</ele>
        <time>2026-05-20T14:50:17Z</time>
      </trkpt>
      <trkpt lat="43.59039" lon="2.9791">
        <ele>951.7</ele>
        <time>2026-05-20T14:50:22Z</time>
      </trkpt>
      <trkpt lat="43.59039" lon="2.9791">
        <ele>951.7</ele>
        <time>2026-05-20T14:50:27Z</time>
      </trkpt>
      <trkpt lat="43.59039" lon="2.9791">
        <ele>951.7</ele>
        <time>2026-05-20T14:50:32Z</time>
      </trkpt>
      <trkpt lat="43.59039" lon="2.9791">
        <ele>951.7</ele>
        <time>2026-05-20T14:50:37Z</time>
      </trkpt>
      <trkpt lat="43.59039" lon="2.9791">
        <ele>951.7</ele>
        <time>2026-05-20T14:50:42Z</time>
      </trkpt>
      <trkpt lat="43.59039" lon="2.9791">
        <ele>951.7</ele>
        <time>2026-05-20T14:50:47Z</time>
      </trkpt>
      <trkpt lat="43.59039" lon="2.9791">
        <ele>951.7</ele>
        <time>2026-05-20T14:50:52Z</time>
      </trkpt>
      <trkpt lat="43.59039" lon="2.9791">
        <ele>951.7</ele>
        <time>2026-05-20T14:50:57Z</time>
      </trkpt>
      <trkpt lat="43.59039" lon="2.9791">
        <ele>951.7</ele>
        <time>2026-05-20T14:51:02Z</time>
      </trkpt>
      <trkpt lat="43.59039" lon="2.9791">
        <ele>951.7</ele>
        <time>2026-05-20T14:51:07Z</time>
      </trkpt>
      <trkpt lat="43.59039" lon="2.9791">
        <ele>951.7</ele>
        <time>2026-05-20T14:51:12Z</time>
      </trkpt>
      <trkpt lat="43.59039" lon="2.9791">
        <ele>951.7</ele>
        <time>2026-05-20T14:51:17Z</time>
      </trkpt>
      <trkpt lat="43.59039" lon="2.9791">
        <ele>951.7</ele>
        <time>2026-05-20T14:51:22Z</time>
      </trkpt>
      <trkpt lat="43.59039" lon="2.9791">
        <ele>951.7</ele>
        <time>2026-05-20T14:51:27Z</time>
      </trkpt>
      <trkpt lat="43.59039" lon="2.9791">
        <ele>951.7</ele>
        <time>2026-05-20T14:51:32Z</time>
      </trkpt>
      <trkpt lat="43.59039" lon="2.9791">
        <ele>951.7</ele>
        <time>2026-05-20T14:51:37Z</time>
      </trkpt>
      <trkpt lat="43.59039" lon="2.9791">
        <ele>951.7</ele>
        <time>2026-05-20T14:51:42Z</time>
      </trkpt>
      <trkpt lat="43.59039" lon="2.9791">
        <ele>951.7</ele>
        <time>2026-05-20T14:51:47Z</time>
      </trkpt>
      <trkpt lat="43.59039" lon="2.9791">
        <ele>951.7</ele>
        <time>2026-05-20T14:51:52Z</time>
      </trkpt>
      <trkpt lat="43.59039" lon="2.9791">
        <ele>951.7</ele>
        <time>2026-05-20T14:51:57Z</time>
      </trkpt>
      <trkpt lat="43.59039" lon="2.9791">
        <ele>951.7</ele>
        <time>2026-05-20T14:52:02Z</time>
      </trkpt>
      <trkpt lat="43.59039" lon="2.9791">
        <ele>951.7</ele>
        <time>2026-05-20T14:52:07Z</time>
      </trkpt>
      <trkpt lat="43.59039" lon="2.9791">
        <ele>951.7</ele>
        <time>2026-05-20T14:52:12Z</time>
      </trkpt>
      <trkpt lat="43.59039" lon="2.9791">
        <ele>951.7</ele>
        <time>2026-05-20T14:52:17Z</time>
      </trkpt>
      <trkpt lat="43.59039" lon="2.9791">
        <ele>951.7</ele>
        <time>2026-05-20T14:52:22Z</time>
      </trkpt>
      <trkpt lat="43.59039" lon="2.97912">
        <ele>952</ele>
        <time>2026-05-20T14:52:27Z</time>
      </trkpt>
      <trkpt lat="43.59039" lon="2.97912">
        <ele>952</ele>
        <time>2026-05-20T14:52:32Z</time>
      </trkpt>
      <trkpt lat="43.59039" lon="2.97912">
        <ele>952</ele>
        <time>2026-05-20T14:52:37Z</time>
      </trkpt>
      <trkpt lat="43.59039" lon="2.97912">
        <ele>952</ele>
        <time>2026-05-20T14:52:42Z</time>
      </trkpt>
      <trkpt lat="43.59039" lon="2.97912">
        <ele>952</ele>
        <time>2026-05-20T14:52:47Z</time>
      </trkpt>
      <trkpt lat="43.59039" lon="2.97912">
        <ele>952</ele>
        <time>2026-05-20T14:52:52Z</time>
      </trkpt>
      <trkpt lat="43.59039" lon="2.97912">
        <ele>952</ele>
        <time>2026-05-20T14:52:57Z</time>
      </trkpt>
      <trkpt lat="43.59039" lon="2.97912">
        <ele>952</ele>
        <time>2026-05-20T14:53:02Z</time>
      </trkpt>
      <trkpt lat="43.59039" lon="2.97912">
        <ele>952</ele>
        <time>2026-05-20T14:53:07Z</time>
      </trkpt>
      <trkpt lat="43.59039" lon="2.97912">
        <ele>952</ele>
        <time>2026-05-20T14:53:12Z</time>
      </trkpt>
      <trkpt lat="43.59039" lon="2.97912">
        <ele>952</ele>
        <time>2026-05-20T14:53:17Z</time>
      </trkpt>
      <trkpt lat="43.59039" lon="2.97912">
        <ele>952</ele>
        <time>2026-05-20T14:53:22Z</time>
      </trkpt>
      <trkpt lat="43.59039" lon="2.97912">
        <ele>952</ele>
        <time>2026-05-20T14:53:27Z</time>
      </trkpt>
      <trkpt lat="43.59039" lon="2.97912">
        <ele>952</ele>
        <time>2026-05-20T14:53:32Z</time>
      </trkpt>
      <trkpt lat="43.59039" lon="2.97912">
        <ele>952</ele>
        <time>2026-05-20T14:53:37Z</time>
      </trkpt>
      <trkpt lat="43.59039" lon="2.97912">
        <ele>952</ele>
        <time>2026-05-20T14:53:42Z</time>
      </trkpt>
      <trkpt lat="43.59039" lon="2.97912">
        <ele>952</ele>
        <time>2026-05-20T14:53:47Z</time>
      </trkpt>
      <trkpt lat="43.59039" lon="2.97912">
        <ele>952</ele>
        <time>2026-05-20T14:53:52Z</time>
      </trkpt>
      <trkpt lat="43.59039" lon="2.97912">
        <ele>952</ele>
        <time>2026-05-20T14:53:57Z</time>
      </trkpt>
      <trkpt lat="43.59039" lon="2.97912">
        <ele>952</ele>
        <time>2026-05-20T14:54:02Z</time>
      </trkpt>
      <trkpt lat="43.59039" lon="2.97912">
        <ele>952</ele>
        <time>2026-05-20T14:54:07Z</time>
      </trkpt>
      <trkpt lat="43.59039" lon="2.97912">
        <ele>952</ele>
        <time>2026-05-20T14:54:12Z</time>
      </trkpt>
      <trkpt lat="43.59039" lon="2.97912">
        <ele>952</ele>
        <time>2026-05-20T14:54:17Z</time>
      </trkpt>
      <trkpt lat="43.59039" lon="2.97912">
        <ele>952</ele>
        <time>2026-05-20T14:54:22Z</time>
      </trkpt>
      <trkpt lat="43.59039" lon="2.97912">
        <ele>952</ele>
        <time>2026-05-20T14:54:27Z</time>
      </trkpt>
      <trkpt lat="43.59042" lon="2.97912">
        <ele>954.5</ele>
        <time>2026-05-20T14:54:32Z</time>
      </trkpt>
      <trkpt lat="43.59042" lon="2.97912">
        <ele>954.5</ele>
        <time>2026-05-20T14:54:37Z</time>
      </trkpt>
      <trkpt lat="43.59042" lon="2.97912">
        <ele>954.5</ele>
        <time>2026-05-20T14:54:42Z</time>
      </trkpt>
      <trkpt lat="43.59046" lon="2.97919">
        <ele>958.6</ele>
        <time>2026-05-20T14:54:47Z</time>
      </trkpt>
      <trkpt lat="43.59049" lon="2.97918">
        <ele>961.1</ele>
        <time>2026-05-20T14:54:52Z</time>
      </trkpt>
      <trkpt lat="43.59052" lon="2.97917">
        <ele>963.7</ele>
        <time>2026-05-20T14:54:57Z</time>
      </trkpt>
      <trkpt lat="43.59054" lon="2.97915">
        <ele>965.1</ele>
        <time>2026-05-20T14:55:02Z</time>
      </trkpt>
      <trkpt lat="43.59058" lon="2.97914">
        <ele>968.3</ele>
        <time>2026-05-20T14:55:07Z</time>
      </trkpt>
      <trkpt lat="43.59061" lon="2.97915">
        <ele>971</ele>
        <time>2026-05-20T14:55:12Z</time>
      </trkpt>
      <trkpt lat="43.59065" lon="2.97913">
        <ele>974</ele>
        <time>2026-05-20T14:55:17Z</time>
      </trkpt>
      <trkpt lat="43.59069" lon="2.97909">
        <ele>976.7</ele>
        <time>2026-05-20T14:55:22Z</time>
      </trkpt>
      <trkpt lat="43.59071" lon="2.97903">
        <ele>977.5</ele>
        <time>2026-05-20T14:55:27Z</time>
      </trkpt>
      <trkpt lat="43.59074" lon="2.979">
        <ele>979.5</ele>
        <time>2026-05-20T14:55:32Z</time>
      </trkpt>
      <trkpt lat="43.59074" lon="2.979">
        <ele>979.5</ele>
        <time>2026-05-20T14:55:37Z</time>
      </trkpt>
      <trkpt lat="43.59075" lon="2.97896">
        <ele>979.8</ele>
        <time>2026-05-20T14:55:42Z</time>
      </trkpt>
      <trkpt lat="43.59076" lon="2.97892">
        <ele>980</ele>
        <time>2026-05-20T14:55:47Z</time>
      </trkpt>
      <trkpt lat="43.59079" lon="2.97889">
        <ele>982</ele>
        <time>2026-05-20T14:55:52Z</time>
      </trkpt>
      <trkpt lat="43.59082" lon="2.97885">
        <ele>983.9</ele>
        <time>2026-05-20T14:55:57Z</time>
      </trkpt>
      <trkpt lat="43.59082" lon="2.97879">
        <ele>983</ele>
        <time>2026-05-20T14:56:02Z</time>
      </trkpt>
      <trkpt lat="43.59083" lon="2.97872">
        <ele>982.7</ele>
        <time>2026-05-20T14:56:07Z</time>
      </trkpt>
      <trkpt lat="43.59084" lon="2.97867">
        <ele>982.6</ele>
        <time>2026-05-20T14:56:12Z</time>
      </trkpt>
      <trkpt lat="43.59084" lon="2.9786">
        <ele>981.5</ele>
        <time>2026-05-20T14:56:17Z</time>
      </trkpt>
      <trkpt lat="43.59084" lon="2.97853">
        <ele>980.4</ele>
        <time>2026-05-20T14:56:22Z</time>
      </trkpt>
      <trkpt lat="43.59084" lon="2.97846">
        <ele>979.3</ele>
        <time>2026-05-20T14:56:27Z</time>
      </trkpt>
      <trkpt lat="43.59085" lon="2.9784">
        <ele>979</ele>
        <time>2026-05-20T14:56:32Z</time>
      </trkpt>
      <trkpt lat="43.59087" lon="2.97837">
        <ele>979.7</ele>
        <time>2026-05-20T14:56:37Z</time>
      </trkpt>
      <trkpt lat="43.5909" lon="2.97835">
        <ele>981.1</ele>
        <time>2026-05-20T14:56:42Z</time>
      </trkpt>
      <trkpt lat="43.59092" lon="2.97832">
        <ele>981.8</ele>
        <time>2026-05-20T14:56:47Z</time>
      </trkpt>
      <trkpt lat="43.59091" lon="2.97828">
        <ele>980.7</ele>
        <time>2026-05-20T14:56:52Z</time>
      </trkpt>
      <trkpt lat="43.59091" lon="2.97822">
        <ele>979.9</ele>
        <time>2026-05-20T14:56:57Z</time>
      </trkpt>
      <trkpt lat="43.59092" lon="2.97817">
        <ele>979.9</ele>
        <time>2026-05-20T14:57:02Z</time>
      </trkpt>
      <trkpt lat="43.59093" lon="2.9781">
        <ele>979.6</ele>
        <time>2026-05-20T14:57:07Z</time>
      </trkpt>
      <trkpt lat="43.59093" lon="2.97806">
        <ele>979.1</ele>
        <time>2026-05-20T14:57:12Z</time>
      </trkpt>
      <trkpt lat="43.59095" lon="2.97806">
        <ele>980.4</ele>
        <time>2026-05-20T14:57:17Z</time>
      </trkpt>
      <trkpt lat="43.59095" lon="2.97807">
        <ele>980.5</ele>
        <time>2026-05-20T14:57:22Z</time>
      </trkpt>
      <trkpt lat="43.59099" lon="2.97803">
        <ele>982.5</ele>
        <time>2026-05-20T14:57:27Z</time>
      </trkpt>
      <trkpt lat="43.59099" lon="2.97801">
        <ele>982.3</ele>
        <time>2026-05-20T14:57:32Z</time>
      </trkpt>
      <trkpt lat="43.59099" lon="2.97801">
        <ele>982.3</ele>
        <time>2026-05-20T14:57:37Z</time>
      </trkpt>
      <trkpt lat="43.59099" lon="2.97801">
        <ele>982.3</ele>
        <time>2026-05-20T14:57:42Z</time>
      </trkpt>
      <trkpt lat="43.59099" lon="2.97801">
        <ele>982.3</ele>
        <time>2026-05-20T14:57:47Z</time>
      </trkpt>
      <trkpt lat="43.59099" lon="2.97801">
        <ele>982.3</ele>
        <time>2026-05-20T14:57:52Z</time>
      </trkpt>
      <trkpt lat="43.59099" lon="2.97801">
        <ele>982.3</ele>
        <time>2026-05-20T14:57:57Z</time>
      </trkpt>
      <trkpt lat="43.59099" lon="2.97801">
        <ele>982.3</ele>
        <time>2026-05-20T14:58:02Z</time>
      </trkpt>
      <trkpt lat="43.59097" lon="2.97797">
        <ele>980.6</ele>
        <time>2026-05-20T14:58:07Z</time>
      </trkpt>
      <trkpt lat="43.59101" lon="2.97793">
        <ele>982.7</ele>
        <time>2026-05-20T14:58:12Z</time>
      </trkpt>
      <trkpt lat="43.59104" lon="2.97789">
        <ele>984.2</ele>
        <time>2026-05-20T14:58:17Z</time>
      </trkpt>
      <trkpt lat="43.59105" lon="2.97783">
        <ele>984.3</ele>
        <time>2026-05-20T14:58:22Z</time>
      </trkpt>
      <trkpt lat="43.59108" lon="2.97781">
        <ele>986.1</ele>
        <time>2026-05-20T14:58:27Z</time>
      </trkpt>
      <trkpt lat="43.59109" lon="2.97777">
        <ele>986.4</ele>
        <time>2026-05-20T14:58:32Z</time>
      </trkpt>
      <trkpt lat="43.59111" lon="2.97771">
        <ele>987.2</ele>
        <time>2026-05-20T14:58:37Z</time>
      </trkpt>
      <trkpt lat="43.59113" lon="2.97765">
        <ele>988</ele>
        <time>2026-05-20T14:58:42Z</time>
      </trkpt>
      <trkpt lat="43.59113" lon="2.97758">
        <ele>987.4</ele>
        <time>2026-05-20T14:58:47Z</time>
      </trkpt>
      <trkpt lat="43.59113" lon="2.97751">
        <ele>986.8</ele>
        <time>2026-05-20T14:58:52Z</time>
      </trkpt>
      <trkpt lat="43.59111" lon="2.9775">
        <ele>985.3</ele>
        <time>2026-05-20T14:58:57Z</time>
      </trkpt>
      <trkpt lat="43.59108" lon="2.97747">
        <ele>982.9</ele>
        <time>2026-05-20T14:59:02Z</time>
      </trkpt>
      <trkpt lat="43.59105" lon="2.97749">
        <ele>980.8</ele>
        <time>2026-05-20T14:59:07Z</time>
      </trkpt>
      <trkpt lat="43.59103" lon="2.9775">
        <ele>979.4</ele>
        <time>2026-05-20T14:59:12Z</time>
      </trkpt>
      <trkpt lat="43.59103" lon="2.9775">
        <ele>979.4</ele>
        <time>2026-05-20T14:59:17Z</time>
      </trkpt>
      <trkpt lat="43.59107" lon="2.97751">
        <ele>982.4</ele>
        <time>2026-05-20T14:59:22Z</time>
      </trkpt>
      <trkpt lat="43.59112" lon="2.9775">
        <ele>986</ele>
        <time>2026-05-20T14:59:27Z</time>
      </trkpt>
      <trkpt lat="43.59113" lon="2.97743">
        <ele>986.3</ele>
        <time>2026-05-20T14:59:32Z</time>
      </trkpt>
      <trkpt lat="43.59114" lon="2.97734">
        <ele>986.6</ele>
        <time>2026-05-20T14:59:37Z</time>
      </trkpt>
      <trkpt lat="43.59116" lon="2.97726">
        <ele>987.7</ele>
        <time>2026-05-20T14:59:42Z</time>
      </trkpt>
      <trkpt lat="43.59118" lon="2.97719">
        <ele>988.9</ele>
        <time>2026-05-20T14:59:47Z</time>
      </trkpt>
      <trkpt lat="43.5912" lon="2.97714">
        <ele>990.1</ele>
        <time>2026-05-20T14:59:52Z</time>
      </trkpt>
      <trkpt lat="43.59122" lon="2.97709">
        <ele>991.5</ele>
        <time>2026-05-20T14:59:57Z</time>
      </trkpt>
      <trkpt lat="43.59126" lon="2.97702">
        <ele>994.3</ele>
        <time>2026-05-20T15:00:02Z</time>
      </trkpt>
      <trkpt lat="43.5913" lon="2.97699">
        <ele>997.3</ele>
        <time>2026-05-20T15:00:07Z</time>
      </trkpt>
      <trkpt lat="43.59133" lon="2.97694">
        <ele>999.5</ele>
        <time>2026-05-20T15:00:12Z</time>
      </trkpt>
      <trkpt lat="43.59138" lon="2.97687">
        <ele>1003.2</ele>
        <time>2026-05-20T15:00:17Z</time>
      </trkpt>
      <trkpt lat="43.59142" lon="2.97681">
        <ele>1006.2</ele>
        <time>2026-05-20T15:00:22Z</time>
      </trkpt>
      <trkpt lat="43.59145" lon="2.97675">
        <ele>1008.5</ele>
        <time>2026-05-20T15:00:27Z</time>
      </trkpt>
      <trkpt lat="43.59147" lon="2.97668">
        <ele>1010</ele>
        <time>2026-05-20T15:00:32Z</time>
      </trkpt>
      <trkpt lat="43.59151" lon="2.97661">
        <ele>1012.1</ele>
        <time>2026-05-20T15:00:37Z</time>
      </trkpt>
      <trkpt lat="43.59156" lon="2.97655">
        <ele>1014.9</ele>
        <time>2026-05-20T15:00:42Z</time>
      </trkpt>
      <trkpt lat="43.59158" lon="2.97649">
        <ele>1015.2</ele>
        <time>2026-05-20T15:00:47Z</time>
      </trkpt>
      <trkpt lat="43.59163" lon="2.97644">
        <ele>1018</ele>
        <time>2026-05-20T15:00:52Z</time>
      </trkpt>
      <trkpt lat="43.59166" lon="2.9764">
        <ele>1019.4</ele>
        <time>2026-05-20T15:00:57Z</time>
      </trkpt>
      <trkpt lat="43.59169" lon="2.97635">
        <ele>1019.4</ele>
        <time>2026-05-20T15:01:02Z</time>
      </trkpt>
      <trkpt lat="43.59174" lon="2.97629">
        <ele>1019.3</ele>
        <time>2026-05-20T15:01:07Z</time>
      </trkpt>
      <trkpt lat="43.59178" lon="2.97623">
        <ele>1019.1</ele>
        <time>2026-05-20T15:01:12Z</time>
      </trkpt>
      <trkpt lat="43.59182" lon="2.97618">
        <ele>1019.1</ele>
        <time>2026-05-20T15:01:17Z</time>
      </trkpt>
      <trkpt lat="43.59183" lon="2.97612">
        <ele>1018.1</ele>
        <time>2026-05-20T15:01:22Z</time>
      </trkpt>
      <trkpt lat="43.59184" lon="2.97606">
        <ele>1017.1</ele>
        <time>2026-05-20T15:01:27Z</time>
      </trkpt>
      <trkpt lat="43.59181" lon="2.97602">
        <ele>1015.4</ele>
        <time>2026-05-20T15:01:32Z</time>
      </trkpt>
      <trkpt lat="43.59181" lon="2.97596">
        <ele>1014.2</ele>
        <time>2026-05-20T15:01:37Z</time>
      </trkpt>
      <trkpt lat="43.59183" lon="2.9759">
        <ele>1013.5</ele>
        <time>2026-05-20T15:01:42Z</time>
      </trkpt>
      <trkpt lat="43.59187" lon="2.97588">
        <ele>1014.3</ele>
        <time>2026-05-20T15:01:47Z</time>
      </trkpt>
      <trkpt lat="43.5919" lon="2.97585">
        <ele>1014.6</ele>
        <time>2026-05-20T15:01:52Z</time>
      </trkpt>
      <trkpt lat="43.5919" lon="2.97579">
        <ele>1013.8</ele>
        <time>2026-05-20T15:01:57Z</time>
      </trkpt>
      <trkpt lat="43.5919" lon="2.97574">
        <ele>1013.2</ele>
        <time>2026-05-20T15:02:02Z</time>
      </trkpt>
      <trkpt lat="43.59191" lon="2.97567">
        <ele>1012.8</ele>
        <time>2026-05-20T15:02:07Z</time>
      </trkpt>
      <trkpt lat="43.59191" lon="2.9756">
        <ele>1012</ele>
        <time>2026-05-20T15:02:12Z</time>
      </trkpt>
      <trkpt lat="43.59189" lon="2.97552">
        <ele>1010.5</ele>
        <time>2026-05-20T15:02:17Z</time>
      </trkpt>
      <trkpt lat="43.59184" lon="2.97548">
        <ele>1008.5</ele>
        <time>2026-05-20T15:02:22Z</time>
      </trkpt>
      <trkpt lat="43.5918" lon="2.97544">
        <ele>1006.8</ele>
        <time>2026-05-20T15:02:27Z</time>
      </trkpt>
      <trkpt lat="43.59177" lon="2.97542">
        <ele>1005.7</ele>
        <time>2026-05-20T15:02:32Z</time>
      </trkpt>
      <trkpt lat="43.59176" lon="2.97541">
        <ele>1005.3</ele>
        <time>2026-05-20T15:02:37Z</time>
      </trkpt>
      <trkpt lat="43.59176" lon="2.97541">
        <ele>1005.3</ele>
        <time>2026-05-20T15:02:42Z</time>
      </trkpt>
      <trkpt lat="43.59176" lon="2.97541">
        <ele>1005.3</ele>
        <time>2026-05-20T15:02:47Z</time>
      </trkpt>
      <trkpt lat="43.59176" lon="2.97541">
        <ele>1005.3</ele>
        <time>2026-05-20T15:02:52Z</time>
      </trkpt>
      <trkpt lat="43.59176" lon="2.97541">
        <ele>1005.3</ele>
        <time>2026-05-20T15:02:57Z</time>
      </trkpt>
      <trkpt lat="43.59176" lon="2.97541">
        <ele>1005.3</ele>
        <time>2026-05-20T15:03:02Z</time>
      </trkpt>
      <trkpt lat="43.59176" lon="2.97541">
        <ele>1005.3</ele>
        <time>2026-05-20T15:03:07Z</time>
      </trkpt>
      <trkpt lat="43.59176" lon="2.97541">
        <ele>1005.3</ele>
        <time>2026-05-20T15:03:12Z</time>
      </trkpt>
      <trkpt lat="43.59176" lon="2.97541">
        <ele>1005.3</ele>
        <time>2026-05-20T15:03:17Z</time>
      </trkpt>
      <trkpt lat="43.59176" lon="2.97541">
        <ele>1005.3</ele>
        <time>2026-05-20T15:03:22Z</time>
      </trkpt>
      <trkpt lat="43.59176" lon="2.97541">
        <ele>1005.3</ele>
        <time>2026-05-20T15:03:27Z</time>
      </trkpt>
      <trkpt lat="43.59176" lon="2.97541">
        <ele>1005.3</ele>
        <time>2026-05-20T15:03:32Z</time>
      </trkpt>
      <trkpt lat="43.59176" lon="2.97541">
        <ele>1005.3</ele>
        <time>2026-05-20T15:03:37Z</time>
      </trkpt>
      <trkpt lat="43.59179" lon="2.97541">
        <ele>1006.2</ele>
        <time>2026-05-20T15:03:42Z</time>
      </trkpt>
      <trkpt lat="43.59182" lon="2.97544">
        <ele>1007.4</ele>
        <time>2026-05-20T15:03:47Z</time>
      </trkpt>
      <trkpt lat="43.59189" lon="2.97544">
        <ele>1009.6</ele>
        <time>2026-05-20T15:03:52Z</time>
      </trkpt>
      <trkpt lat="43.59194" lon="2.97543">
        <ele>1011</ele>
        <time>2026-05-20T15:03:57Z</time>
      </trkpt>
      <trkpt lat="43.59198" lon="2.97539">
        <ele>1011.8</ele>
        <time>2026-05-20T15:04:02Z</time>
      </trkpt>
      <trkpt lat="43.59203" lon="2.97537">
        <ele>1013.1</ele>
        <time>2026-05-20T15:04:07Z</time>
      </trkpt>
      <trkpt lat="43.59207" lon="2.97533">
        <ele>1013.9</ele>
        <time>2026-05-20T15:04:12Z</time>
      </trkpt>
      <trkpt lat="43.59211" lon="2.97531">
        <ele>1014.8</ele>
        <time>2026-05-20T15:04:17Z</time>
      </trkpt>
      <trkpt lat="43.59215" lon="2.9753">
        <ele>1015.9</ele>
        <time>2026-05-20T15:04:22Z</time>
      </trkpt>
      <trkpt lat="43.59219" lon="2.97528">
        <ele>1016.9</ele>
        <time>2026-05-20T15:04:27Z</time>
      </trkpt>
      <trkpt lat="43.59223" lon="2.97525">
        <ele>1017.8</ele>
        <time>2026-05-20T15:04:32Z</time>
      </trkpt>
      <trkpt lat="43.59227" lon="2.97522">
        <ele>1018.7</ele>
        <time>2026-05-20T15:04:37Z</time>
      </trkpt>
      <trkpt lat="43.59231" lon="2.97516">
        <ele>1019.2</ele>
        <time>2026-05-20T15:04:42Z</time>
      </trkpt>
      <trkpt lat="43.59237" lon="2.97513">
        <ele>1020.6</ele>
        <time>2026-05-20T15:04:47Z</time>
      </trkpt>
      <trkpt lat="43.59242" lon="2.97511">
        <ele>1021.9</ele>
        <time>2026-05-20T15:04:52Z</time>
      </trkpt>
      <trkpt lat="43.59247" lon="2.97507">
        <ele>1022.9</ele>
        <time>2026-05-20T15:04:57Z</time>
      </trkpt>
      <trkpt lat="43.59251" lon="2.97505">
        <ele>1023.8</ele>
        <time>2026-05-20T15:05:02Z</time>
      </trkpt>
      <trkpt lat="43.59256" lon="2.97503">
        <ele>1024.6</ele>
        <time>2026-05-20T15:05:07Z</time>
      </trkpt>
      <trkpt lat="43.59262" lon="2.975">
        <ele>1025.6</ele>
        <time>2026-05-20T15:05:12Z</time>
      </trkpt>
      <trkpt lat="43.59266" lon="2.97498">
        <ele>1026.4</ele>
        <time>2026-05-20T15:05:17Z</time>
      </trkpt>
      <trkpt lat="43.5927" lon="2.97495">
        <ele>1027.2</ele>
        <time>2026-05-20T15:05:22Z</time>
      </trkpt>
      <trkpt lat="43.59274" lon="2.9749">
        <ele>1027.9</ele>
        <time>2026-05-20T15:05:27Z</time>
      </trkpt>
      <trkpt lat="43.59278" lon="2.97482">
        <ele>1028.5</ele>
        <time>2026-05-20T15:05:32Z</time>
      </trkpt>
      <trkpt lat="43.59284" lon="2.97481">
        <ele>1029.8</ele>
        <time>2026-05-20T15:05:37Z</time>
      </trkpt>
      <trkpt lat="43.59287" lon="2.97479">
        <ele>1030.4</ele>
        <time>2026-05-20T15:05:42Z</time>
      </trkpt>
      <trkpt lat="43.59291" lon="2.97476">
        <ele>1031.1</ele>
        <time>2026-05-20T15:05:47Z</time>
      </trkpt>
      <trkpt lat="43.59296" lon="2.97472">
        <ele>1032.1</ele>
        <time>2026-05-20T15:05:52Z</time>
      </trkpt>
      <trkpt lat="43.59302" lon="2.97467">
        <ele>1033.2</ele>
        <time>2026-05-20T15:05:57Z</time>
      </trkpt>
      <trkpt lat="43.59305" lon="2.97463">
        <ele>1033.7</ele>
        <time>2026-05-20T15:06:02Z</time>
      </trkpt>
      <trkpt lat="43.5931" lon="2.97461">
        <ele>1034.7</ele>
        <time>2026-05-20T15:06:07Z</time>
      </trkpt>
      <trkpt lat="43.59315" lon="2.97456">
        <ele>1035.6</ele>
        <time>2026-05-20T15:06:12Z</time>
      </trkpt>
      <trkpt lat="43.5932" lon="2.97453">
        <ele>1036.5</ele>
        <time>2026-05-20T15:06:17Z</time>
      </trkpt>
      <trkpt lat="43.59325" lon="2.97452">
        <ele>1037.5</ele>
        <time>2026-05-20T15:06:22Z</time>
      </trkpt>
      <trkpt lat="43.59327" lon="2.9745">
        <ele>1037.9</ele>
        <time>2026-05-20T15:06:27Z</time>
      </trkpt>
      <trkpt lat="43.59331" lon="2.97449">
        <ele>1038.7</ele>
        <time>2026-05-20T15:06:32Z</time>
      </trkpt>
      <trkpt lat="43.59336" lon="2.97447">
        <ele>1039.4</ele>
        <time>2026-05-20T15:06:37Z</time>
      </trkpt>
      <trkpt lat="43.59342" lon="2.97445">
        <ele>1040</ele>
        <time>2026-05-20T15:06:42Z</time>
      </trkpt>
      <trkpt lat="43.59349" lon="2.97443">
        <ele>1040.6</ele>
        <time>2026-05-20T15:06:47Z</time>
      </trkpt>
      <trkpt lat="43.59353" lon="2.97441">
        <ele>1041</ele>
        <time>2026-05-20T15:06:52Z</time>
      </trkpt>
      <trkpt lat="43.59356" lon="2.97434">
        <ele>1041.2</ele>
        <time>2026-05-20T15:06:57Z</time>
      </trkpt>
      <trkpt lat="43.5936" lon="2.97429">
        <ele>1041.5</ele>
        <time>2026-05-20T15:07:02Z</time>
      </trkpt>
      <trkpt lat="43.59366" lon="2.97422">
        <ele>1042</ele>
        <time>2026-05-20T15:07:07Z</time>
      </trkpt>
      <trkpt lat="43.59371" lon="2.97414">
        <ele>1042.5</ele>
        <time>2026-05-20T15:07:12Z</time>
      </trkpt>
      <trkpt lat="43.59377" lon="2.9741">
        <ele>1043.1</ele>
        <time>2026-05-20T15:07:17Z</time>
      </trkpt>
      <trkpt lat="43.59381" lon="2.97407">
        <ele>1043.5</ele>
        <time>2026-05-20T15:07:22Z</time>
      </trkpt>
      <trkpt lat="43.59383" lon="2.97406">
        <ele>1043.7</ele>
        <time>2026-05-20T15:07:27Z</time>
      </trkpt>
      <trkpt lat="43.59389" lon="2.97405">
        <ele>1044.4</ele>
        <time>2026-05-20T15:07:32Z</time>
      </trkpt>
      <trkpt lat="43.59395" lon="2.97403">
        <ele>1045.2</ele>
        <time>2026-05-20T15:07:37Z</time>
      </trkpt>
      <trkpt lat="43.59401" lon="2.97403">
        <ele>1045.9</ele>
        <time>2026-05-20T15:07:42Z</time>
      </trkpt>
      <trkpt lat="43.59407" lon="2.97398">
        <ele>1046.6</ele>
        <time>2026-05-20T15:07:47Z</time>
      </trkpt>
      <trkpt lat="43.59412" lon="2.97391">
        <ele>1047.1</ele>
        <time>2026-05-20T15:07:52Z</time>
      </trkpt>
      <trkpt lat="43.59418" lon="2.97384">
        <ele>1047.7</ele>
        <time>2026-05-20T15:07:57Z</time>
      </trkpt>
      <trkpt lat="43.59423" lon="2.97377">
        <ele>1047.7</ele>
        <time>2026-05-20T15:08:02Z</time>
      </trkpt>
      <trkpt lat="43.59427" lon="2.97374">
        <ele>1047.9</ele>
        <time>2026-05-20T15:08:07Z</time>
      </trkpt>
      <trkpt lat="43.59431" lon="2.97366">
        <ele>1047.9</ele>
        <time>2026-05-20T15:08:12Z</time>
      </trkpt>
      <trkpt lat="43.59436" lon="2.97361">
        <ele>1048.1</ele>
        <time>2026-05-20T15:08:17Z</time>
      </trkpt>
      <trkpt lat="43.5944" lon="2.97357">
        <ele>1048.2</ele>
        <time>2026-05-20T15:08:22Z</time>
      </trkpt>
      <trkpt lat="43.59443" lon="2.97351">
        <ele>1048.3</ele>
        <time>2026-05-20T15:08:27Z</time>
      </trkpt>
      <trkpt lat="43.59444" lon="2.97343">
        <ele>1048.4</ele>
        <time>2026-05-20T15:08:32Z</time>
      </trkpt>
      <trkpt lat="43.59445" lon="2.97336">
        <ele>1048.4</ele>
        <time>2026-05-20T15:08:37Z</time>
      </trkpt>
      <trkpt lat="43.59443" lon="2.97327">
        <ele>1047.8</ele>
        <time>2026-05-20T15:08:42Z</time>
      </trkpt>
      <trkpt lat="43.59441" lon="2.97319">
        <ele>1047.2</ele>
        <time>2026-05-20T15:08:47Z</time>
      </trkpt>
      <trkpt lat="43.5944" lon="2.97311">
        <ele>1046.6</ele>
        <time>2026-05-20T15:08:52Z</time>
      </trkpt>
      <trkpt lat="43.59439" lon="2.97301">
        <ele>1045.8</ele>
        <time>2026-05-20T15:08:57Z</time>
      </trkpt>
      <trkpt lat="43.59438" lon="2.97294">
        <ele>1045.3</ele>
        <time>2026-05-20T15:09:02Z</time>
      </trkpt>
      <trkpt lat="43.59438" lon="2.97296">
        <ele>1045.5</ele>
        <time>2026-05-20T15:09:07Z</time>
      </trkpt>
    </trkseg>
  </trk>
</gpx>